<?xml version="1.0" encoding="UTF-8" standalone="no" ?>
<gpx xmlns="http://www.topografix.com/GPX/1/1" xmlns:xsi="http://www.w3.org/2001/XMLSchema-instance" xsi:schemaLocation="http://www.topografix.com/GPX/1/1 http://www.topografix.com/GPX/1/1/gpx.xsd" version="1.1" creator="VisuGPX - https://www.visugpx.com">
  <metadata>
    <name>Proto BANON</name>
  </metadata>
  <trk>
    <name><![CDATA[Banon - Fontienne]]></name>
    <extensions>
      <line xmlns="http://www.topografix.com/GPX/gpx_style/0/2">
        <color>0000FF</color>
        <width>4</width>
      </line>
    </extensions>
    <trkseg>
      <trkpt lat="44.03859" lon="5.62866">
        <ele>788.814</ele>
        <time>2018-12-22T15:11:56Z</time>
      </trkpt>
      <trkpt lat="44.03855" lon="5.62862">
        <ele>789.054</ele>
        <time>2018-12-22T15:12:26Z</time>
      </trkpt>
      <trkpt lat="44.0385" lon="5.62862">
        <ele>788.909</ele>
        <time>2018-12-22T15:12:32Z</time>
      </trkpt>
      <trkpt lat="44.03846" lon="5.62859">
        <ele>788.608</ele>
        <time>2018-12-22T15:12:38Z</time>
      </trkpt>
      <trkpt lat="44.03844" lon="5.62866">
        <ele>789.124</ele>
        <time>2018-12-22T15:13:01Z</time>
      </trkpt>
      <trkpt lat="44.0384" lon="5.62867">
        <ele>789.022</ele>
        <time>2018-12-22T15:13:13Z</time>
      </trkpt>
      <trkpt lat="44.03838" lon="5.62857">
        <ele>788.396</ele>
        <time>2018-12-22T15:13:57Z</time>
      </trkpt>
      <trkpt lat="44.03837" lon="5.62851">
        <ele>788.064</ele>
        <time>2018-12-22T15:13:58Z</time>
      </trkpt>
      <trkpt lat="44.03833" lon="5.62843">
        <ele>787.565</ele>
        <time>2018-12-22T15:13:59Z</time>
      </trkpt>
      <trkpt lat="44.0383" lon="5.62837">
        <ele>787.595</ele>
        <time>2018-12-22T15:14:00Z</time>
      </trkpt>
      <trkpt lat="44.03826" lon="5.6283">
        <ele>787.414</ele>
        <time>2018-12-22T15:14:01Z</time>
      </trkpt>
      <trkpt lat="44.03823" lon="5.62822">
        <ele>787.49</ele>
        <time>2018-12-22T15:14:02Z</time>
      </trkpt>
      <trkpt lat="44.03821" lon="5.6281">
        <ele>787.729</ele>
        <time>2018-12-22T15:14:04Z</time>
      </trkpt>
      <trkpt lat="44.03816" lon="5.62804">
        <ele>787.8</ele>
        <time>2018-12-22T15:14:05Z</time>
      </trkpt>
      <trkpt lat="44.03811" lon="5.62798">
        <ele>787.92</ele>
        <time>2018-12-22T15:14:06Z</time>
      </trkpt>
      <trkpt lat="44.03807" lon="5.62794">
        <ele>788.008</ele>
        <time>2018-12-22T15:14:07Z</time>
      </trkpt>
      <trkpt lat="44.03802" lon="5.62794">
        <ele>788.265</ele>
        <time>2018-12-22T15:14:08Z</time>
      </trkpt>
      <trkpt lat="44.03797" lon="5.62794">
        <ele>788.273</ele>
        <time>2018-12-22T15:14:09Z</time>
      </trkpt>
      <trkpt lat="44.03793" lon="5.62798">
        <ele>788.117</ele>
        <time>2018-12-22T15:14:10Z</time>
      </trkpt>
      <trkpt lat="44.0379" lon="5.62804">
        <ele>787.575</ele>
        <time>2018-12-22T15:14:11Z</time>
      </trkpt>
      <trkpt lat="44.03786" lon="5.62811">
        <ele>786.756</ele>
        <time>2018-12-22T15:14:12Z</time>
      </trkpt>
      <trkpt lat="44.03784" lon="5.62817">
        <ele>785.526</ele>
        <time>2018-12-22T15:14:13Z</time>
      </trkpt>
      <trkpt lat="44.03782" lon="5.62823">
        <ele>784.155</ele>
        <time>2018-12-22T15:14:14Z</time>
      </trkpt>
      <trkpt lat="44.03779" lon="5.62831">
        <ele>783.061</ele>
        <time>2018-12-22T15:14:15Z</time>
      </trkpt>
      <trkpt lat="44.03776" lon="5.62839">
        <ele>782.219</ele>
        <time>2018-12-22T15:14:16Z</time>
      </trkpt>
      <trkpt lat="44.03773" lon="5.62845">
        <ele>781.509</ele>
        <time>2018-12-22T15:14:17Z</time>
      </trkpt>
      <trkpt lat="44.03772" lon="5.62852">
        <ele>781.319</ele>
        <time>2018-12-22T15:14:18Z</time>
      </trkpt>
      <trkpt lat="44.03769" lon="5.62858">
        <ele>780.508</ele>
        <time>2018-12-22T15:14:20Z</time>
      </trkpt>
      <trkpt lat="44.03761" lon="5.62861">
        <ele>779.014</ele>
        <time>2018-12-22T15:14:22Z</time>
      </trkpt>
      <trkpt lat="44.03746" lon="5.62859">
        <ele>776.432</ele>
        <time>2018-12-22T15:14:24Z</time>
      </trkpt>
      <trkpt lat="44.03737" lon="5.62852">
        <ele>775.496</ele>
        <time>2018-12-22T15:14:25Z</time>
      </trkpt>
      <trkpt lat="44.03727" lon="5.6285">
        <ele>774.564</ele>
        <time>2018-12-22T15:14:26Z</time>
      </trkpt>
      <trkpt lat="44.03717" lon="5.62846">
        <ele>773.915</ele>
        <time>2018-12-22T15:14:27Z</time>
      </trkpt>
      <trkpt lat="44.03707" lon="5.62842">
        <ele>773.575</ele>
        <time>2018-12-22T15:14:28Z</time>
      </trkpt>
      <trkpt lat="44.03698" lon="5.62839">
        <ele>773.184</ele>
        <time>2018-12-22T15:14:29Z</time>
      </trkpt>
      <trkpt lat="44.03689" lon="5.62836">
        <ele>772.38</ele>
        <time>2018-12-22T15:14:30Z</time>
      </trkpt>
      <trkpt lat="44.03681" lon="5.62833">
        <ele>771.735</ele>
        <time>2018-12-22T15:14:31Z</time>
      </trkpt>
      <trkpt lat="44.03673" lon="5.62832">
        <ele>770.486</ele>
        <time>2018-12-22T15:14:32Z</time>
      </trkpt>
      <trkpt lat="44.03666" lon="5.62831">
        <ele>770.214</ele>
        <time>2018-12-22T15:14:33Z</time>
      </trkpt>
      <trkpt lat="44.0366" lon="5.6283">
        <ele>770.108</ele>
        <time>2018-12-22T15:14:34Z</time>
      </trkpt>
      <trkpt lat="44.03655" lon="5.62831">
        <ele>769.976</ele>
        <time>2018-12-22T15:14:35Z</time>
      </trkpt>
      <trkpt lat="44.0365" lon="5.62834">
        <ele>769.884</ele>
        <time>2018-12-22T15:14:36Z</time>
      </trkpt>
      <trkpt lat="44.03644" lon="5.62839">
        <ele>769.248</ele>
        <time>2018-12-22T15:14:38Z</time>
      </trkpt>
      <trkpt lat="44.03641" lon="5.62844">
        <ele>768.396</ele>
        <time>2018-12-22T15:14:43Z</time>
      </trkpt>
      <trkpt lat="44.03637" lon="5.62848">
        <ele>768.717</ele>
        <time>2018-12-22T15:14:49Z</time>
      </trkpt>
      <trkpt lat="44.03633" lon="5.62852">
        <ele>768.717</ele>
        <time>2018-12-22T15:14:55Z</time>
      </trkpt>
      <trkpt lat="44.03629" lon="5.62853">
        <ele>768.776</ele>
        <time>2018-12-22T15:15:01Z</time>
      </trkpt>
      <trkpt lat="44.03628" lon="5.6286">
        <ele>769.192</ele>
        <time>2018-12-22T15:15:42Z</time>
      </trkpt>
      <trkpt lat="44.03627" lon="5.62853">
        <ele>768.974</ele>
        <time>2018-12-22T15:15:59Z</time>
      </trkpt>
      <trkpt lat="44.03632" lon="5.62853">
        <ele>768.656</ele>
        <time>2018-12-22T15:16:49Z</time>
      </trkpt>
      <trkpt lat="44.03637" lon="5.62852">
        <ele>768.321</ele>
        <time>2018-12-22T15:17:09Z</time>
      </trkpt>
      <trkpt lat="44.03642" lon="5.62853">
        <ele>768.508</ele>
        <time>2018-12-22T15:17:25Z</time>
      </trkpt>
      <trkpt lat="44.03642" lon="5.62859">
        <ele>769.12</ele>
        <time>2018-12-22T15:18:01Z</time>
      </trkpt>
      <trkpt lat="44.03645" lon="5.62864">
        <ele>768.518</ele>
        <time>2018-12-22T15:18:27Z</time>
      </trkpt>
      <trkpt lat="44.03647" lon="5.62857">
        <ele>768.582</ele>
        <time>2018-12-22T15:18:37Z</time>
      </trkpt>
      <trkpt lat="44.0365" lon="5.62851">
        <ele>768.41</ele>
        <time>2018-12-22T15:18:38Z</time>
      </trkpt>
      <trkpt lat="44.03654" lon="5.62848">
        <ele>768.451</ele>
        <time>2018-12-22T15:18:39Z</time>
      </trkpt>
      <trkpt lat="44.03658" lon="5.62847">
        <ele>768.551</ele>
        <time>2018-12-22T15:18:40Z</time>
      </trkpt>
      <trkpt lat="44.03664" lon="5.62849">
        <ele>768.75</ele>
        <time>2018-12-22T15:18:41Z</time>
      </trkpt>
      <trkpt lat="44.0367" lon="5.62851">
        <ele>768.936</ele>
        <time>2018-12-22T15:18:42Z</time>
      </trkpt>
      <trkpt lat="44.03676" lon="5.62851">
        <ele>769.229</ele>
        <time>2018-12-22T15:18:43Z</time>
      </trkpt>
      <trkpt lat="44.03683" lon="5.62852">
        <ele>769.7</ele>
        <time>2018-12-22T15:18:44Z</time>
      </trkpt>
      <trkpt lat="44.0369" lon="5.62854">
        <ele>769.72</ele>
        <time>2018-12-22T15:18:45Z</time>
      </trkpt>
      <trkpt lat="44.03698" lon="5.62857">
        <ele>770.108</ele>
        <time>2018-12-22T15:18:46Z</time>
      </trkpt>
      <trkpt lat="44.03706" lon="5.62859">
        <ele>770.475</ele>
        <time>2018-12-22T15:18:47Z</time>
      </trkpt>
      <trkpt lat="44.03714" lon="5.62862">
        <ele>770.793</ele>
        <time>2018-12-22T15:18:48Z</time>
      </trkpt>
      <trkpt lat="44.03721" lon="5.62864">
        <ele>771.287</ele>
        <time>2018-12-22T15:18:49Z</time>
      </trkpt>
      <trkpt lat="44.03729" lon="5.62867">
        <ele>772.035</ele>
        <time>2018-12-22T15:18:50Z</time>
      </trkpt>
      <trkpt lat="44.03736" lon="5.62868">
        <ele>772.936</ele>
        <time>2018-12-22T15:18:51Z</time>
      </trkpt>
      <trkpt lat="44.03742" lon="5.6287">
        <ele>774.086</ele>
        <time>2018-12-22T15:18:52Z</time>
      </trkpt>
      <trkpt lat="44.03748" lon="5.62872">
        <ele>775.325</ele>
        <time>2018-12-22T15:18:53Z</time>
      </trkpt>
      <trkpt lat="44.03753" lon="5.62874">
        <ele>776.521</ele>
        <time>2018-12-22T15:18:54Z</time>
      </trkpt>
      <trkpt lat="44.03759" lon="5.62874">
        <ele>777.654</ele>
        <time>2018-12-22T15:18:55Z</time>
      </trkpt>
      <trkpt lat="44.03765" lon="5.62876">
        <ele>778.556</ele>
        <time>2018-12-22T15:18:56Z</time>
      </trkpt>
      <trkpt lat="44.03773" lon="5.62877">
        <ele>779.511</ele>
        <time>2018-12-22T15:18:57Z</time>
      </trkpt>
      <trkpt lat="44.03782" lon="5.62879">
        <ele>779.908</ele>
        <time>2018-12-22T15:18:58Z</time>
      </trkpt>
      <trkpt lat="44.0379" lon="5.62879">
        <ele>780.788</ele>
        <time>2018-12-22T15:18:59Z</time>
      </trkpt>
      <trkpt lat="44.03798" lon="5.6288">
        <ele>780.816</ele>
        <time>2018-12-22T15:19:00Z</time>
      </trkpt>
      <trkpt lat="44.03806" lon="5.62881">
        <ele>780.98</ele>
        <time>2018-12-22T15:19:01Z</time>
      </trkpt>
      <trkpt lat="44.03813" lon="5.62882">
        <ele>781.618</ele>
        <time>2018-12-22T15:19:02Z</time>
      </trkpt>
      <trkpt lat="44.0382" lon="5.62881">
        <ele>781.969</ele>
        <time>2018-12-22T15:19:03Z</time>
      </trkpt>
      <trkpt lat="44.03827" lon="5.62881">
        <ele>782.629</ele>
        <time>2018-12-22T15:19:04Z</time>
      </trkpt>
      <trkpt lat="44.03834" lon="5.62882">
        <ele>783.418</ele>
        <time>2018-12-22T15:19:05Z</time>
      </trkpt>
      <trkpt lat="44.03839" lon="5.62882">
        <ele>784.294</ele>
        <time>2018-12-22T15:19:06Z</time>
      </trkpt>
      <trkpt lat="44.03845" lon="5.62883">
        <ele>785.166</ele>
        <time>2018-12-22T15:19:07Z</time>
      </trkpt>
      <trkpt lat="44.0385" lon="5.62883">
        <ele>785.729</ele>
        <time>2018-12-22T15:19:08Z</time>
      </trkpt>
      <trkpt lat="44.03859" lon="5.62881">
        <ele>787.121</ele>
        <time>2018-12-22T15:19:10Z</time>
      </trkpt>
      <trkpt lat="44.03867" lon="5.6288">
        <ele>787.808</ele>
        <time>2018-12-22T15:19:12Z</time>
      </trkpt>
      <trkpt lat="44.03875" lon="5.6288">
        <ele>788.479</ele>
        <time>2018-12-22T15:19:14Z</time>
      </trkpt>
      <trkpt lat="44.0388" lon="5.62877">
        <ele>788.717</ele>
        <time>2018-12-22T15:19:15Z</time>
      </trkpt>
      <trkpt lat="44.03881" lon="5.62869">
        <ele>789.511</ele>
        <time>2018-12-22T15:19:17Z</time>
      </trkpt>
      <trkpt lat="44.03883" lon="5.62863">
        <ele>790.349</ele>
        <time>2018-12-22T15:19:19Z</time>
      </trkpt>
      <trkpt lat="44.03888" lon="5.62857">
        <ele>791.69</ele>
        <time>2018-12-22T15:19:23Z</time>
      </trkpt>
      <trkpt lat="44.03891" lon="5.62853">
        <ele>791.84</ele>
        <time>2018-12-22T15:19:25Z</time>
      </trkpt>
      <trkpt lat="44.03895" lon="5.62848">
        <ele>792.769</ele>
        <time>2018-12-22T15:19:27Z</time>
      </trkpt>
      <trkpt lat="44.03897" lon="5.6284">
        <ele>793.815</ele>
        <time>2018-12-22T15:19:29Z</time>
      </trkpt>
      <trkpt lat="44.03898" lon="5.62834">
        <ele>794.317</ele>
        <time>2018-12-22T15:19:30Z</time>
      </trkpt>
      <trkpt lat="44.03899" lon="5.62826">
        <ele>794.787</ele>
        <time>2018-12-22T15:19:31Z</time>
      </trkpt>
      <trkpt lat="44.039" lon="5.62819">
        <ele>795.415</ele>
        <time>2018-12-22T15:19:32Z</time>
      </trkpt>
      <trkpt lat="44.03901" lon="5.62812">
        <ele>795.908</ele>
        <time>2018-12-22T15:19:33Z</time>
      </trkpt>
      <trkpt lat="44.03902" lon="5.62799">
        <ele>796.954</ele>
        <time>2018-12-22T15:19:35Z</time>
      </trkpt>
      <trkpt lat="44.03904" lon="5.62792">
        <ele>798.982</ele>
        <time>2018-12-22T15:19:38Z</time>
      </trkpt>
      <trkpt lat="44.03904" lon="5.62784">
        <ele>799.976</ele>
        <time>2018-12-22T15:19:41Z</time>
      </trkpt>
      <trkpt lat="44.03903" lon="5.62777">
        <ele>800.554</ele>
        <time>2018-12-22T15:19:44Z</time>
      </trkpt>
      <trkpt lat="44.03903" lon="5.62766">
        <ele>800.555</ele>
        <time>2018-12-22T15:19:46Z</time>
      </trkpt>
      <trkpt lat="44.03902" lon="5.62757">
        <ele>800.685</ele>
        <time>2018-12-22T15:19:47Z</time>
      </trkpt>
      <trkpt lat="44.03901" lon="5.62751">
        <ele>800.874</ele>
        <time>2018-12-22T15:19:48Z</time>
      </trkpt>
      <trkpt lat="44.03903" lon="5.62739">
        <ele>802.07</ele>
        <time>2018-12-22T15:19:50Z</time>
      </trkpt>
      <trkpt lat="44.03908" lon="5.62737">
        <ele>803.031</ele>
        <time>2018-12-22T15:19:52Z</time>
      </trkpt>
      <trkpt lat="44.03913" lon="5.62739">
        <ele>803.961</ele>
        <time>2018-12-22T15:19:54Z</time>
      </trkpt>
      <trkpt lat="44.03916" lon="5.62744">
        <ele>804.107</ele>
        <time>2018-12-22T15:19:56Z</time>
      </trkpt>
      <trkpt lat="44.03912" lon="5.62744">
        <ele>804.108</ele>
        <time>2018-12-22T15:20:06Z</time>
      </trkpt>
      <trkpt lat="44.03908" lon="5.62739">
        <ele>804.186</ele>
        <time>2018-12-22T15:20:10Z</time>
      </trkpt>
      <trkpt lat="44.03907" lon="5.62731">
        <ele>804.214</ele>
        <time>2018-12-22T15:20:13Z</time>
      </trkpt>
      <trkpt lat="44.03908" lon="5.62723">
        <ele>804.998</ele>
        <time>2018-12-22T15:20:15Z</time>
      </trkpt>
      <trkpt lat="44.0391" lon="5.62718">
        <ele>805.646</ele>
        <time>2018-12-22T15:20:17Z</time>
      </trkpt>
      <trkpt lat="44.03911" lon="5.62712">
        <ele>806.317</ele>
        <time>2018-12-22T15:20:19Z</time>
      </trkpt>
      <trkpt lat="44.03913" lon="5.62704">
        <ele>807.287</ele>
        <time>2018-12-22T15:20:21Z</time>
      </trkpt>
      <trkpt lat="44.03916" lon="5.62696">
        <ele>807.646</ele>
        <time>2018-12-22T15:20:23Z</time>
      </trkpt>
      <trkpt lat="44.03919" lon="5.62687">
        <ele>808.722</ele>
        <time>2018-12-22T15:20:25Z</time>
      </trkpt>
      <trkpt lat="44.03922" lon="5.62677">
        <ele>810.132</ele>
        <time>2018-12-22T15:20:27Z</time>
      </trkpt>
      <trkpt lat="44.03926" lon="5.62668">
        <ele>811.092</ele>
        <time>2018-12-22T15:20:29Z</time>
      </trkpt>
      <trkpt lat="44.03931" lon="5.62659">
        <ele>811.611</ele>
        <time>2018-12-22T15:20:31Z</time>
      </trkpt>
      <trkpt lat="44.03936" lon="5.6265">
        <ele>812.108</ele>
        <time>2018-12-22T15:20:33Z</time>
      </trkpt>
      <trkpt lat="44.03941" lon="5.6264">
        <ele>812.796</ele>
        <time>2018-12-22T15:20:35Z</time>
      </trkpt>
      <trkpt lat="44.03944" lon="5.62635">
        <ele>813.054</ele>
        <time>2018-12-22T15:20:36Z</time>
      </trkpt>
      <trkpt lat="44.03948" lon="5.6263">
        <ele>813.338</ele>
        <time>2018-12-22T15:20:37Z</time>
      </trkpt>
      <trkpt lat="44.0395" lon="5.62625">
        <ele>813.696</ele>
        <time>2018-12-22T15:20:38Z</time>
      </trkpt>
      <trkpt lat="44.03953" lon="5.6262">
        <ele>814.047</ele>
        <time>2018-12-22T15:20:39Z</time>
      </trkpt>
      <trkpt lat="44.03958" lon="5.62609">
        <ele>814.647</ele>
        <time>2018-12-22T15:20:41Z</time>
      </trkpt>
      <trkpt lat="44.03961" lon="5.62603">
        <ele>814.956</ele>
        <time>2018-12-22T15:20:42Z</time>
      </trkpt>
      <trkpt lat="44.03964" lon="5.62596">
        <ele>815.352</ele>
        <time>2018-12-22T15:20:43Z</time>
      </trkpt>
      <trkpt lat="44.03967" lon="5.62588">
        <ele>815.373</ele>
        <time>2018-12-22T15:20:44Z</time>
      </trkpt>
      <trkpt lat="44.0397" lon="5.62581">
        <ele>816.185</ele>
        <time>2018-12-22T15:20:45Z</time>
      </trkpt>
      <trkpt lat="44.03972" lon="5.62573">
        <ele>816.713</ele>
        <time>2018-12-22T15:20:46Z</time>
      </trkpt>
      <trkpt lat="44.03975" lon="5.62566">
        <ele>817.108</ele>
        <time>2018-12-22T15:20:47Z</time>
      </trkpt>
      <trkpt lat="44.03978" lon="5.62558">
        <ele>817.81</ele>
        <time>2018-12-22T15:20:48Z</time>
      </trkpt>
      <trkpt lat="44.03981" lon="5.6255">
        <ele>818.498</ele>
        <time>2018-12-22T15:20:49Z</time>
      </trkpt>
      <trkpt lat="44.03985" lon="5.62542">
        <ele>818.662</ele>
        <time>2018-12-22T15:20:50Z</time>
      </trkpt>
      <trkpt lat="44.03988" lon="5.62536">
        <ele>818.81</ele>
        <time>2018-12-22T15:20:51Z</time>
      </trkpt>
      <trkpt lat="44.03991" lon="5.6253">
        <ele>819.211</ele>
        <time>2018-12-22T15:20:52Z</time>
      </trkpt>
      <trkpt lat="44.03993" lon="5.62525">
        <ele>820.311</ele>
        <time>2018-12-22T15:20:53Z</time>
      </trkpt>
      <trkpt lat="44.03995" lon="5.62519">
        <ele>821.14</ele>
        <time>2018-12-22T15:20:54Z</time>
      </trkpt>
      <trkpt lat="44.04" lon="5.6251">
        <ele>823.036</ele>
        <time>2018-12-22T15:20:56Z</time>
      </trkpt>
      <trkpt lat="44.04004" lon="5.62507">
        <ele>825.075</ele>
        <time>2018-12-22T15:20:58Z</time>
      </trkpt>
      <trkpt lat="44.04011" lon="5.62501">
        <ele>826.528</ele>
        <time>2018-12-22T15:21:00Z</time>
      </trkpt>
      <trkpt lat="44.04014" lon="5.62495">
        <ele>827.22</ele>
        <time>2018-12-22T15:21:01Z</time>
      </trkpt>
      <trkpt lat="44.04017" lon="5.62491">
        <ele>827.408</ele>
        <time>2018-12-22T15:21:02Z</time>
      </trkpt>
      <trkpt lat="44.04021" lon="5.62486">
        <ele>827.73</ele>
        <time>2018-12-22T15:21:03Z</time>
      </trkpt>
      <trkpt lat="44.04025" lon="5.62482">
        <ele>828.078</ele>
        <time>2018-12-22T15:21:04Z</time>
      </trkpt>
      <trkpt lat="44.04031" lon="5.62473">
        <ele>828.682</ele>
        <time>2018-12-22T15:21:06Z</time>
      </trkpt>
      <trkpt lat="44.04035" lon="5.62467">
        <ele>829.17</ele>
        <time>2018-12-22T15:21:07Z</time>
      </trkpt>
      <trkpt lat="44.04041" lon="5.62461">
        <ele>829.181</ele>
        <time>2018-12-22T15:21:08Z</time>
      </trkpt>
      <trkpt lat="44.04047" lon="5.62456">
        <ele>829.571</ele>
        <time>2018-12-22T15:21:09Z</time>
      </trkpt>
      <trkpt lat="44.04054" lon="5.62454">
        <ele>829.85</ele>
        <time>2018-12-22T15:21:10Z</time>
      </trkpt>
      <trkpt lat="44.04062" lon="5.62456">
        <ele>829.876</ele>
        <time>2018-12-22T15:21:11Z</time>
      </trkpt>
      <trkpt lat="44.0407" lon="5.62458">
        <ele>829.824</ele>
        <time>2018-12-22T15:21:12Z</time>
      </trkpt>
      <trkpt lat="44.04078" lon="5.6246">
        <ele>829.804</ele>
        <time>2018-12-22T15:21:13Z</time>
      </trkpt>
      <trkpt lat="44.04088" lon="5.6246">
        <ele>829.814</ele>
        <time>2018-12-22T15:21:14Z</time>
      </trkpt>
      <trkpt lat="44.04097" lon="5.62458">
        <ele>829.908</ele>
        <time>2018-12-22T15:21:15Z</time>
      </trkpt>
      <trkpt lat="44.04104" lon="5.62452">
        <ele>830.535</ele>
        <time>2018-12-22T15:21:16Z</time>
      </trkpt>
      <trkpt lat="44.04111" lon="5.62447">
        <ele>831.623</ele>
        <time>2018-12-22T15:21:17Z</time>
      </trkpt>
      <trkpt lat="44.04119" lon="5.62443">
        <ele>832.757</ele>
        <time>2018-12-22T15:21:18Z</time>
      </trkpt>
      <trkpt lat="44.04128" lon="5.6244">
        <ele>834.255</ele>
        <time>2018-12-22T15:21:19Z</time>
      </trkpt>
      <trkpt lat="44.04139" lon="5.62437">
        <ele>835.666</ele>
        <time>2018-12-22T15:21:20Z</time>
      </trkpt>
      <trkpt lat="44.0415" lon="5.62434">
        <ele>837.836</ele>
        <time>2018-12-22T15:21:21Z</time>
      </trkpt>
      <trkpt lat="44.04161" lon="5.62432">
        <ele>838.745</ele>
        <time>2018-12-22T15:21:22Z</time>
      </trkpt>
      <trkpt lat="44.04173" lon="5.62433">
        <ele>839.721</ele>
        <time>2018-12-22T15:21:23Z</time>
      </trkpt>
      <trkpt lat="44.04184" lon="5.62433">
        <ele>840.288</ele>
        <time>2018-12-22T15:21:24Z</time>
      </trkpt>
      <trkpt lat="44.04196" lon="5.62434">
        <ele>840.424</ele>
        <time>2018-12-22T15:21:25Z</time>
      </trkpt>
      <trkpt lat="44.04209" lon="5.62438">
        <ele>840.526</ele>
        <time>2018-12-22T15:21:26Z</time>
      </trkpt>
      <trkpt lat="44.04223" lon="5.62443">
        <ele>840.508</ele>
        <time>2018-12-22T15:21:27Z</time>
      </trkpt>
      <trkpt lat="44.04236" lon="5.62449">
        <ele>840.211</ele>
        <time>2018-12-22T15:21:28Z</time>
      </trkpt>
      <trkpt lat="44.0425" lon="5.62456">
        <ele>840.119</ele>
        <time>2018-12-22T15:21:29Z</time>
      </trkpt>
      <trkpt lat="44.04266" lon="5.62464">
        <ele>840.073</ele>
        <time>2018-12-22T15:21:30Z</time>
      </trkpt>
      <trkpt lat="44.04282" lon="5.62472">
        <ele>839.891</ele>
        <time>2018-12-22T15:21:31Z</time>
      </trkpt>
      <trkpt lat="44.043" lon="5.6248">
        <ele>839.422</ele>
        <time>2018-12-22T15:21:32Z</time>
      </trkpt>
      <trkpt lat="44.04317" lon="5.62489">
        <ele>839.112</ele>
        <time>2018-12-22T15:21:33Z</time>
      </trkpt>
      <trkpt lat="44.04336" lon="5.62499">
        <ele>838.571</ele>
        <time>2018-12-22T15:21:34Z</time>
      </trkpt>
      <trkpt lat="44.04355" lon="5.62506">
        <ele>837.447</ele>
        <time>2018-12-22T15:21:35Z</time>
      </trkpt>
      <trkpt lat="44.04376" lon="5.62515">
        <ele>836.285</ele>
        <time>2018-12-22T15:21:36Z</time>
      </trkpt>
      <trkpt lat="44.04397" lon="5.62526">
        <ele>837.189</ele>
        <time>2018-12-22T15:21:37Z</time>
      </trkpt>
      <trkpt lat="44.04418" lon="5.62536">
        <ele>838.917</ele>
        <time>2018-12-22T15:21:38Z</time>
      </trkpt>
      <trkpt lat="44.04438" lon="5.62547">
        <ele>841.408</ele>
        <time>2018-12-22T15:21:39Z</time>
      </trkpt>
      <trkpt lat="44.04456" lon="5.62556">
        <ele>845.081</ele>
        <time>2018-12-22T15:21:40Z</time>
      </trkpt>
      <trkpt lat="44.04471" lon="5.62564">
        <ele>848.479</ele>
        <time>2018-12-22T15:21:41Z</time>
      </trkpt>
      <trkpt lat="44.04487" lon="5.62572">
        <ele>850.333</ele>
        <time>2018-12-22T15:21:42Z</time>
      </trkpt>
      <trkpt lat="44.045" lon="5.6258">
        <ele>852.221</ele>
        <time>2018-12-22T15:21:43Z</time>
      </trkpt>
      <trkpt lat="44.04512" lon="5.62588">
        <ele>854.942</ele>
        <time>2018-12-22T15:21:44Z</time>
      </trkpt>
      <trkpt lat="44.04524" lon="5.62593">
        <ele>857.662</ele>
        <time>2018-12-22T15:21:45Z</time>
      </trkpt>
      <trkpt lat="44.04532" lon="5.626">
        <ele>860.251</ele>
        <time>2018-12-22T15:21:46Z</time>
      </trkpt>
      <trkpt lat="44.04537" lon="5.62608">
        <ele>862.687</ele>
        <time>2018-12-22T15:21:47Z</time>
      </trkpt>
      <trkpt lat="44.04542" lon="5.62622">
        <ele>864.723</ele>
        <time>2018-12-22T15:21:48Z</time>
      </trkpt>
      <trkpt lat="44.04543" lon="5.6264">
        <ele>866.583</ele>
        <time>2018-12-22T15:21:49Z</time>
      </trkpt>
      <trkpt lat="44.04544" lon="5.62662">
        <ele>866.911</ele>
        <time>2018-12-22T15:21:50Z</time>
      </trkpt>
      <trkpt lat="44.04549" lon="5.62681">
        <ele>867.508</ele>
        <time>2018-12-22T15:21:51Z</time>
      </trkpt>
      <trkpt lat="44.04553" lon="5.62699">
        <ele>868.435</ele>
        <time>2018-12-22T15:21:52Z</time>
      </trkpt>
      <trkpt lat="44.04559" lon="5.62718">
        <ele>869.513</ele>
        <time>2018-12-22T15:21:53Z</time>
      </trkpt>
      <trkpt lat="44.04563" lon="5.62734">
        <ele>870.867</ele>
        <time>2018-12-22T15:21:54Z</time>
      </trkpt>
      <trkpt lat="44.04568" lon="5.62748">
        <ele>872.415</ele>
        <time>2018-12-22T15:21:55Z</time>
      </trkpt>
      <trkpt lat="44.04575" lon="5.6276">
        <ele>873.976</ele>
        <time>2018-12-22T15:21:56Z</time>
      </trkpt>
      <trkpt lat="44.04583" lon="5.62769">
        <ele>875.166</ele>
        <time>2018-12-22T15:21:57Z</time>
      </trkpt>
      <trkpt lat="44.04589" lon="5.62777">
        <ele>876.385</ele>
        <time>2018-12-22T15:21:58Z</time>
      </trkpt>
      <trkpt lat="44.04596" lon="5.62782">
        <ele>877.341</ele>
        <time>2018-12-22T15:21:59Z</time>
      </trkpt>
      <trkpt lat="44.04603" lon="5.62781">
        <ele>878.585</ele>
        <time>2018-12-22T15:22:00Z</time>
      </trkpt>
      <trkpt lat="44.04609" lon="5.6278">
        <ele>881.189</ele>
        <time>2018-12-22T15:22:01Z</time>
      </trkpt>
      <trkpt lat="44.04617" lon="5.62779">
        <ele>883.417</ele>
        <time>2018-12-22T15:22:03Z</time>
      </trkpt>
      <trkpt lat="44.04617" lon="5.62788">
        <ele>884.708</ele>
        <time>2018-12-22T15:22:05Z</time>
      </trkpt>
      <trkpt lat="44.04612" lon="5.62793">
        <ele>885.271</ele>
        <time>2018-12-22T15:22:06Z</time>
      </trkpt>
      <trkpt lat="44.04605" lon="5.62793">
        <ele>886.029</ele>
        <time>2018-12-22T15:22:07Z</time>
      </trkpt>
      <trkpt lat="44.04597" lon="5.62792">
        <ele>886.543</ele>
        <time>2018-12-22T15:22:08Z</time>
      </trkpt>
      <trkpt lat="44.04589" lon="5.62792">
        <ele>887.071</ele>
        <time>2018-12-22T15:22:09Z</time>
      </trkpt>
      <trkpt lat="44.0458" lon="5.62793">
        <ele>887.972</ele>
        <time>2018-12-22T15:22:10Z</time>
      </trkpt>
      <trkpt lat="44.0457" lon="5.62795">
        <ele>888.642</ele>
        <time>2018-12-22T15:22:11Z</time>
      </trkpt>
      <trkpt lat="44.0456" lon="5.62799">
        <ele>889.341</ele>
        <time>2018-12-22T15:22:12Z</time>
      </trkpt>
      <trkpt lat="44.0455" lon="5.62799">
        <ele>890.287</ele>
        <time>2018-12-22T15:22:13Z</time>
      </trkpt>
      <trkpt lat="44.0454" lon="5.62802">
        <ele>891.377</ele>
        <time>2018-12-22T15:22:14Z</time>
      </trkpt>
      <trkpt lat="44.04532" lon="5.62802">
        <ele>892.461</ele>
        <time>2018-12-22T15:22:15Z</time>
      </trkpt>
      <trkpt lat="44.04523" lon="5.62798">
        <ele>893.827</ele>
        <time>2018-12-22T15:22:16Z</time>
      </trkpt>
      <trkpt lat="44.04516" lon="5.62796">
        <ele>895.208</ele>
        <time>2018-12-22T15:22:17Z</time>
      </trkpt>
      <trkpt lat="44.0451" lon="5.62789">
        <ele>898.54</ele>
        <time>2018-12-22T15:22:18Z</time>
      </trkpt>
      <trkpt lat="44.04505" lon="5.62775">
        <ele>899.148</ele>
        <time>2018-12-22T15:22:19Z</time>
      </trkpt>
      <trkpt lat="44.04501" lon="5.62761">
        <ele>900.252</ele>
        <time>2018-12-22T15:22:20Z</time>
      </trkpt>
      <trkpt lat="44.04497" lon="5.62749">
        <ele>901.38</ele>
        <time>2018-12-22T15:22:21Z</time>
      </trkpt>
      <trkpt lat="44.04493" lon="5.62737">
        <ele>902.651</ele>
        <time>2018-12-22T15:22:22Z</time>
      </trkpt>
      <trkpt lat="44.04489" lon="5.62731">
        <ele>904.461</ele>
        <time>2018-12-22T15:22:23Z</time>
      </trkpt>
      <trkpt lat="44.04485" lon="5.62728">
        <ele>906.72</ele>
        <time>2018-12-22T15:22:24Z</time>
      </trkpt>
      <trkpt lat="44.04478" lon="5.62733">
        <ele>909.846</ele>
        <time>2018-12-22T15:22:26Z</time>
      </trkpt>
      <trkpt lat="44.04477" lon="5.6274">
        <ele>910.939</ele>
        <time>2018-12-22T15:22:27Z</time>
      </trkpt>
      <trkpt lat="44.04477" lon="5.62751">
        <ele>911.501</ele>
        <time>2018-12-22T15:22:28Z</time>
      </trkpt>
      <trkpt lat="44.04482" lon="5.62762">
        <ele>911.921</ele>
        <time>2018-12-22T15:22:29Z</time>
      </trkpt>
      <trkpt lat="44.04485" lon="5.62776">
        <ele>911.908</ele>
        <time>2018-12-22T15:22:30Z</time>
      </trkpt>
      <trkpt lat="44.04487" lon="5.62791">
        <ele>911.426</ele>
        <time>2018-12-22T15:22:31Z</time>
      </trkpt>
      <trkpt lat="44.04489" lon="5.62808">
        <ele>911.074</ele>
        <time>2018-12-22T15:22:32Z</time>
      </trkpt>
      <trkpt lat="44.0449" lon="5.62827">
        <ele>910.618</ele>
        <time>2018-12-22T15:22:33Z</time>
      </trkpt>
      <trkpt lat="44.04492" lon="5.62846">
        <ele>910.526</ele>
        <time>2018-12-22T15:22:34Z</time>
      </trkpt>
      <trkpt lat="44.04496" lon="5.62862">
        <ele>910.577</ele>
        <time>2018-12-22T15:22:35Z</time>
      </trkpt>
      <trkpt lat="44.04502" lon="5.62871">
        <ele>911.027</ele>
        <time>2018-12-22T15:22:36Z</time>
      </trkpt>
      <trkpt lat="44.04507" lon="5.62883">
        <ele>911.446</ele>
        <time>2018-12-22T15:22:37Z</time>
      </trkpt>
      <trkpt lat="44.04514" lon="5.62895">
        <ele>912.392</ele>
        <time>2018-12-22T15:22:38Z</time>
      </trkpt>
      <trkpt lat="44.04517" lon="5.62909">
        <ele>913.446</ele>
        <time>2018-12-22T15:22:39Z</time>
      </trkpt>
      <trkpt lat="44.0452" lon="5.62921">
        <ele>915.188</ele>
        <time>2018-12-22T15:22:40Z</time>
      </trkpt>
      <trkpt lat="44.04519" lon="5.62933">
        <ele>917.116</ele>
        <time>2018-12-22T15:22:41Z</time>
      </trkpt>
      <trkpt lat="44.04519" lon="5.62943">
        <ele>919.208</ele>
        <time>2018-12-22T15:22:42Z</time>
      </trkpt>
      <trkpt lat="44.04523" lon="5.62951">
        <ele>923.247</ele>
        <time>2018-12-22T15:22:44Z</time>
      </trkpt>
      <trkpt lat="44.0453" lon="5.62948">
        <ele>924.775</ele>
        <time>2018-12-22T15:22:45Z</time>
      </trkpt>
      <trkpt lat="44.04538" lon="5.62947">
        <ele>925.169</ele>
        <time>2018-12-22T15:22:46Z</time>
      </trkpt>
      <trkpt lat="44.04547" lon="5.62948">
        <ele>925.147</ele>
        <time>2018-12-22T15:22:47Z</time>
      </trkpt>
      <trkpt lat="44.04557" lon="5.6295">
        <ele>925.328</ele>
        <time>2018-12-22T15:22:48Z</time>
      </trkpt>
      <trkpt lat="44.04566" lon="5.62951">
        <ele>925.578</ele>
        <time>2018-12-22T15:22:49Z</time>
      </trkpt>
      <trkpt lat="44.04576" lon="5.62953">
        <ele>926.117</ele>
        <time>2018-12-22T15:22:50Z</time>
      </trkpt>
      <trkpt lat="44.04586" lon="5.62954">
        <ele>926.373</ele>
        <time>2018-12-22T15:22:51Z</time>
      </trkpt>
      <trkpt lat="44.04597" lon="5.62956">
        <ele>926.694</ele>
        <time>2018-12-22T15:22:52Z</time>
      </trkpt>
      <trkpt lat="44.04608" lon="5.6296">
        <ele>927.657</ele>
        <time>2018-12-22T15:22:53Z</time>
      </trkpt>
      <trkpt lat="44.04619" lon="5.62965">
        <ele>928.322</ele>
        <time>2018-12-22T15:22:54Z</time>
      </trkpt>
      <trkpt lat="44.0463" lon="5.62971">
        <ele>929.408</ele>
        <time>2018-12-22T15:22:55Z</time>
      </trkpt>
      <trkpt lat="44.0464" lon="5.6298">
        <ele>931.182</ele>
        <time>2018-12-22T15:22:56Z</time>
      </trkpt>
      <trkpt lat="44.04652" lon="5.6299">
        <ele>932.95</ele>
        <time>2018-12-22T15:22:57Z</time>
      </trkpt>
      <trkpt lat="44.04663" lon="5.63">
        <ele>934.254</ele>
        <time>2018-12-22T15:22:58Z</time>
      </trkpt>
      <trkpt lat="44.04675" lon="5.63009">
        <ele>935.792</ele>
        <time>2018-12-22T15:22:59Z</time>
      </trkpt>
      <trkpt lat="44.04687" lon="5.63019">
        <ele>937.773</ele>
        <time>2018-12-22T15:23:00Z</time>
      </trkpt>
      <trkpt lat="44.04699" lon="5.63028">
        <ele>938.693</ele>
        <time>2018-12-22T15:23:01Z</time>
      </trkpt>
      <trkpt lat="44.04711" lon="5.63038">
        <ele>939.772</ele>
        <time>2018-12-22T15:23:02Z</time>
      </trkpt>
      <trkpt lat="44.04723" lon="5.63048">
        <ele>941.328</ele>
        <time>2018-12-22T15:23:03Z</time>
      </trkpt>
      <trkpt lat="44.04735" lon="5.63058">
        <ele>942.734</ele>
        <time>2018-12-22T15:23:04Z</time>
      </trkpt>
      <trkpt lat="44.04747" lon="5.63066">
        <ele>944.655</ele>
        <time>2018-12-22T15:23:05Z</time>
      </trkpt>
      <trkpt lat="44.04759" lon="5.63075">
        <ele>946.51</ele>
        <time>2018-12-22T15:23:06Z</time>
      </trkpt>
      <trkpt lat="44.04771" lon="5.63084">
        <ele>948.208</ele>
        <time>2018-12-22T15:23:07Z</time>
      </trkpt>
      <trkpt lat="44.04783" lon="5.63091">
        <ele>949.536</ele>
        <time>2018-12-22T15:23:08Z</time>
      </trkpt>
      <trkpt lat="44.04795" lon="5.63099">
        <ele>951.384</ele>
        <time>2018-12-22T15:23:09Z</time>
      </trkpt>
      <trkpt lat="44.04806" lon="5.63107">
        <ele>952.668</ele>
        <time>2018-12-22T15:23:10Z</time>
      </trkpt>
      <trkpt lat="44.04817" lon="5.63115">
        <ele>954.276</ele>
        <time>2018-12-22T15:23:11Z</time>
      </trkpt>
      <trkpt lat="44.04826" lon="5.63123">
        <ele>955.997</ele>
        <time>2018-12-22T15:23:12Z</time>
      </trkpt>
      <trkpt lat="44.04836" lon="5.63133">
        <ele>958.167</ele>
        <time>2018-12-22T15:23:13Z</time>
      </trkpt>
      <trkpt lat="44.04843" lon="5.63144">
        <ele>962.076</ele>
        <time>2018-12-22T15:23:14Z</time>
      </trkpt>
      <trkpt lat="44.0485" lon="5.63157">
        <ele>963.742</ele>
        <time>2018-12-22T15:23:15Z</time>
      </trkpt>
      <trkpt lat="44.04858" lon="5.63167">
        <ele>965.733</ele>
        <time>2018-12-22T15:23:16Z</time>
      </trkpt>
      <trkpt lat="44.04868" lon="5.63175">
        <ele>967.623</ele>
        <time>2018-12-22T15:23:17Z</time>
      </trkpt>
      <trkpt lat="44.04878" lon="5.63185">
        <ele>969.415</ele>
        <time>2018-12-22T15:23:18Z</time>
      </trkpt>
      <trkpt lat="44.04888" lon="5.63195">
        <ele>971.908</ele>
        <time>2018-12-22T15:23:19Z</time>
      </trkpt>
      <trkpt lat="44.04897" lon="5.63205">
        <ele>974.226</ele>
        <time>2018-12-22T15:23:20Z</time>
      </trkpt>
      <trkpt lat="44.04908" lon="5.63213">
        <ele>976.324</ele>
        <time>2018-12-22T15:23:21Z</time>
      </trkpt>
      <trkpt lat="44.04919" lon="5.6322">
        <ele>977.988</ele>
        <time>2018-12-22T15:23:22Z</time>
      </trkpt>
      <trkpt lat="44.04931" lon="5.63225">
        <ele>979.916</ele>
        <time>2018-12-22T15:23:23Z</time>
      </trkpt>
      <trkpt lat="44.04943" lon="5.6323">
        <ele>981.697</ele>
        <time>2018-12-22T15:23:24Z</time>
      </trkpt>
      <trkpt lat="44.04954" lon="5.63236">
        <ele>983.387</ele>
        <time>2018-12-22T15:23:25Z</time>
      </trkpt>
      <trkpt lat="44.04963" lon="5.63242">
        <ele>985.286</ele>
        <time>2018-12-22T15:23:26Z</time>
      </trkpt>
      <trkpt lat="44.04973" lon="5.63247">
        <ele>987.672</ele>
        <time>2018-12-22T15:23:27Z</time>
      </trkpt>
      <trkpt lat="44.04982" lon="5.63252">
        <ele>992.086</ele>
        <time>2018-12-22T15:23:28Z</time>
      </trkpt>
      <trkpt lat="44.04992" lon="5.63256">
        <ele>993.56</ele>
        <time>2018-12-22T15:23:29Z</time>
      </trkpt>
      <trkpt lat="44.05002" lon="5.6326">
        <ele>995.526</ele>
        <time>2018-12-22T15:23:30Z</time>
      </trkpt>
      <trkpt lat="44.05012" lon="5.63261">
        <ele>997.008</ele>
        <time>2018-12-22T15:23:31Z</time>
      </trkpt>
      <trkpt lat="44.0502" lon="5.63266">
        <ele>998.791</ele>
        <time>2018-12-22T15:23:32Z</time>
      </trkpt>
      <trkpt lat="44.05028" lon="5.63272">
        <ele>1000.149</ele>
        <time>2018-12-22T15:23:33Z</time>
      </trkpt>
      <trkpt lat="44.05036" lon="5.63277">
        <ele>1002.023</ele>
        <time>2018-12-22T15:23:34Z</time>
      </trkpt>
      <trkpt lat="44.05045" lon="5.63281">
        <ele>1003.191</ele>
        <time>2018-12-22T15:23:35Z</time>
      </trkpt>
      <trkpt lat="44.05055" lon="5.63284">
        <ele>1004.192</ele>
        <time>2018-12-22T15:23:36Z</time>
      </trkpt>
      <trkpt lat="44.05065" lon="5.63289">
        <ele>1005.382</ele>
        <time>2018-12-22T15:23:37Z</time>
      </trkpt>
      <trkpt lat="44.05076" lon="5.63294">
        <ele>1006.081</ele>
        <time>2018-12-22T15:23:38Z</time>
      </trkpt>
      <trkpt lat="44.05087" lon="5.633">
        <ele>1006.687</ele>
        <time>2018-12-22T15:23:39Z</time>
      </trkpt>
      <trkpt lat="44.05099" lon="5.63305">
        <ele>1008.039</ele>
        <time>2018-12-22T15:23:40Z</time>
      </trkpt>
      <trkpt lat="44.0511" lon="5.6331">
        <ele>1012.001</ele>
        <time>2018-12-22T15:23:41Z</time>
      </trkpt>
      <trkpt lat="44.05119" lon="5.63314">
        <ele>1014.821</ele>
        <time>2018-12-22T15:23:42Z</time>
      </trkpt>
      <trkpt lat="44.05127" lon="5.63318">
        <ele>1017.508</ele>
        <time>2018-12-22T15:23:43Z</time>
      </trkpt>
      <trkpt lat="44.05134" lon="5.63321">
        <ele>1020.066</ele>
        <time>2018-12-22T15:23:44Z</time>
      </trkpt>
      <trkpt lat="44.05138" lon="5.63327">
        <ele>1022.554</ele>
        <time>2018-12-22T15:23:45Z</time>
      </trkpt>
      <trkpt lat="44.05142" lon="5.63329">
        <ele>1024.258</ele>
        <time>2018-12-22T15:23:46Z</time>
      </trkpt>
      <trkpt lat="44.05144" lon="5.63336">
        <ele>1025.466</ele>
        <time>2018-12-22T15:23:47Z</time>
      </trkpt>
      <trkpt lat="44.05145" lon="5.63344">
        <ele>1026.687</ele>
        <time>2018-12-22T15:23:48Z</time>
      </trkpt>
      <trkpt lat="44.05144" lon="5.63356">
        <ele>1028.117</ele>
        <time>2018-12-22T15:23:49Z</time>
      </trkpt>
      <trkpt lat="44.05141" lon="5.63365">
        <ele>1029.526</ele>
        <time>2018-12-22T15:23:50Z</time>
      </trkpt>
      <trkpt lat="44.05135" lon="5.63371">
        <ele>1031.292</ele>
        <time>2018-12-22T15:23:51Z</time>
      </trkpt>
      <trkpt lat="44.05128" lon="5.63375">
        <ele>1033.192</ele>
        <time>2018-12-22T15:23:52Z</time>
      </trkpt>
      <trkpt lat="44.05121" lon="5.6338">
        <ele>1034.873</ele>
        <time>2018-12-22T15:23:53Z</time>
      </trkpt>
      <trkpt lat="44.05115" lon="5.63386">
        <ele>1036.02</ele>
        <time>2018-12-22T15:23:54Z</time>
      </trkpt>
      <trkpt lat="44.05108" lon="5.63393">
        <ele>1036.708</ele>
        <time>2018-12-22T15:23:55Z</time>
      </trkpt>
      <trkpt lat="44.05102" lon="5.63399">
        <ele>1037.112</ele>
        <time>2018-12-22T15:23:56Z</time>
      </trkpt>
      <trkpt lat="44.05094" lon="5.63407">
        <ele>1037.15</ele>
        <time>2018-12-22T15:23:57Z</time>
      </trkpt>
      <trkpt lat="44.05084" lon="5.63414">
        <ele>1036.744</ele>
        <time>2018-12-22T15:23:58Z</time>
      </trkpt>
      <trkpt lat="44.05073" lon="5.63424">
        <ele>1036.742</ele>
        <time>2018-12-22T15:23:59Z</time>
      </trkpt>
      <trkpt lat="44.0506" lon="5.63435">
        <ele>1036.883</ele>
        <time>2018-12-22T15:24:00Z</time>
      </trkpt>
      <trkpt lat="44.05048" lon="5.63447">
        <ele>1037.163</ele>
        <time>2018-12-22T15:24:01Z</time>
      </trkpt>
      <trkpt lat="44.05037" lon="5.63458">
        <ele>1037.842</ele>
        <time>2018-12-22T15:24:02Z</time>
      </trkpt>
      <trkpt lat="44.05031" lon="5.63465">
        <ele>1039.018</ele>
        <time>2018-12-22T15:24:03Z</time>
      </trkpt>
      <trkpt lat="44.05023" lon="5.63471">
        <ele>1040.037</ele>
        <time>2018-12-22T15:24:04Z</time>
      </trkpt>
      <trkpt lat="44.05019" lon="5.63479">
        <ele>1041.649</ele>
        <time>2018-12-22T15:24:05Z</time>
      </trkpt>
      <trkpt lat="44.05014" lon="5.63487">
        <ele>1043.213</ele>
        <time>2018-12-22T15:24:07Z</time>
      </trkpt>
      <trkpt lat="44.0501" lon="5.63492">
        <ele>1044.208</ele>
        <time>2018-12-22T15:24:09Z</time>
      </trkpt>
      <trkpt lat="44.05007" lon="5.63498">
        <ele>1044.726</ele>
        <time>2018-12-22T15:24:13Z</time>
      </trkpt>
      <trkpt lat="44.05011" lon="5.63513">
        <ele>1044.364</ele>
        <time>2018-12-22T15:24:17Z</time>
      </trkpt>
      <trkpt lat="44.05015" lon="5.63522">
        <ele>1044.318</ele>
        <time>2018-12-22T15:24:18Z</time>
      </trkpt>
      <trkpt lat="44.05019" lon="5.63531">
        <ele>1044.786</ele>
        <time>2018-12-22T15:24:19Z</time>
      </trkpt>
      <trkpt lat="44.05024" lon="5.6354">
        <ele>1045.197</ele>
        <time>2018-12-22T15:24:20Z</time>
      </trkpt>
      <trkpt lat="44.05029" lon="5.63548">
        <ele>1045.747</ele>
        <time>2018-12-22T15:24:21Z</time>
      </trkpt>
      <trkpt lat="44.05034" lon="5.63555">
        <ele>1048.516</ele>
        <time>2018-12-22T15:24:22Z</time>
      </trkpt>
      <trkpt lat="44.05039" lon="5.6356">
        <ele>1049.852</ele>
        <time>2018-12-22T15:24:23Z</time>
      </trkpt>
      <trkpt lat="44.05045" lon="5.63564">
        <ele>1051.371</ele>
        <time>2018-12-22T15:24:24Z</time>
      </trkpt>
      <trkpt lat="44.0505" lon="5.63567">
        <ele>1054.341</ele>
        <time>2018-12-22T15:24:26Z</time>
      </trkpt>
      <trkpt lat="44.05054" lon="5.63572">
        <ele>1058.815</ele>
        <time>2018-12-22T15:24:43Z</time>
      </trkpt>
      <trkpt lat="44.05059" lon="5.63578">
        <ele>1058.308</ele>
        <time>2018-12-22T15:24:45Z</time>
      </trkpt>
      <trkpt lat="44.05065" lon="5.63581">
        <ele>1058.28</ele>
        <time>2018-12-22T15:24:47Z</time>
      </trkpt>
      <trkpt lat="44.05069" lon="5.63584">
        <ele>1058.598</ele>
        <time>2018-12-22T15:24:52Z</time>
      </trkpt>
      <trkpt lat="44.05073" lon="5.6358">
        <ele>1059.112</ele>
        <time>2018-12-22T15:25:00Z</time>
      </trkpt>
      <trkpt lat="44.05066" lon="5.63579">
        <ele>1058.88</ele>
        <time>2018-12-22T15:25:28Z</time>
      </trkpt>
      <trkpt lat="44.05059" lon="5.63573">
        <ele>1058.521</ele>
        <time>2018-12-22T15:25:30Z</time>
      </trkpt>
      <trkpt lat="44.05053" lon="5.6357">
        <ele>1058.351</ele>
        <time>2018-12-22T15:25:32Z</time>
      </trkpt>
      <trkpt lat="44.05047" lon="5.63566">
        <ele>1058.13</ele>
        <time>2018-12-22T15:25:35Z</time>
      </trkpt>
      <trkpt lat="44.05043" lon="5.63561">
        <ele>1057.646</ele>
        <time>2018-12-22T15:25:37Z</time>
      </trkpt>
      <trkpt lat="44.0504" lon="5.63556">
        <ele>1056.862</ele>
        <time>2018-12-22T15:25:40Z</time>
      </trkpt>
      <trkpt lat="44.05041" lon="5.63548">
        <ele>1057.083</ele>
        <time>2018-12-22T15:25:44Z</time>
      </trkpt>
      <trkpt lat="44.05044" lon="5.63552">
        <ele>1056.711</ele>
        <time>2018-12-22T15:25:49Z</time>
      </trkpt>
      <trkpt lat="44.05047" lon="5.63558">
        <ele>1057.208</ele>
        <time>2018-12-22T15:26:03Z</time>
      </trkpt>
      <trkpt lat="44.05051" lon="5.63562">
        <ele>1057.489</ele>
        <time>2018-12-22T15:26:05Z</time>
      </trkpt>
      <trkpt lat="44.05057" lon="5.63559">
        <ele>1059.227</ele>
        <time>2018-12-22T15:26:08Z</time>
      </trkpt>
      <trkpt lat="44.05057" lon="5.63551">
        <ele>1061.941</ele>
        <time>2018-12-22T15:26:11Z</time>
      </trkpt>
      <trkpt lat="44.05059" lon="5.63544">
        <ele>1063.159</ele>
        <time>2018-12-22T15:26:15Z</time>
      </trkpt>
      <trkpt lat="44.05064" lon="5.63548">
        <ele>1064.12</ele>
        <time>2018-12-22T15:26:23Z</time>
      </trkpt>
      <trkpt lat="44.05069" lon="5.63555">
        <ele>1064.41</ele>
        <time>2018-12-22T15:26:25Z</time>
      </trkpt>
      <trkpt lat="44.05076" lon="5.63555">
        <ele>1064.519</ele>
        <time>2018-12-22T15:26:27Z</time>
      </trkpt>
      <trkpt lat="44.05086" lon="5.63555">
        <ele>1064.655</ele>
        <time>2018-12-22T15:26:29Z</time>
      </trkpt>
      <trkpt lat="44.05091" lon="5.63556">
        <ele>1064.764</ele>
        <time>2018-12-22T15:26:30Z</time>
      </trkpt>
      <trkpt lat="44.05096" lon="5.63556">
        <ele>1064.906</ele>
        <time>2018-12-22T15:26:31Z</time>
      </trkpt>
      <trkpt lat="44.05101" lon="5.63556">
        <ele>1065.116</ele>
        <time>2018-12-22T15:26:33Z</time>
      </trkpt>
      <trkpt lat="44.05106" lon="5.63556">
        <ele>1066.708</ele>
        <time>2018-12-22T15:26:41Z</time>
      </trkpt>
      <trkpt lat="44.05107" lon="5.63563">
        <ele>1066.889</ele>
        <time>2018-12-22T15:26:58Z</time>
      </trkpt>
      <trkpt lat="44.05115" lon="5.63562">
        <ele>1065.897</ele>
        <time>2018-12-22T15:27:06Z</time>
      </trkpt>
      <trkpt lat="44.05121" lon="5.63559">
        <ele>1065.471</ele>
        <time>2018-12-22T15:27:08Z</time>
      </trkpt>
      <trkpt lat="44.05125" lon="5.63555">
        <ele>1065.439</ele>
        <time>2018-12-22T15:27:09Z</time>
      </trkpt>
      <trkpt lat="44.0513" lon="5.63552">
        <ele>1065.35</ele>
        <time>2018-12-22T15:27:10Z</time>
      </trkpt>
      <trkpt lat="44.05135" lon="5.63554">
        <ele>1065.38</ele>
        <time>2018-12-22T15:27:11Z</time>
      </trkpt>
      <trkpt lat="44.05139" lon="5.63555">
        <ele>1065.459</ele>
        <time>2018-12-22T15:27:12Z</time>
      </trkpt>
      <trkpt lat="44.05146" lon="5.63557">
        <ele>1065.825</ele>
        <time>2018-12-22T15:27:14Z</time>
      </trkpt>
      <trkpt lat="44.05151" lon="5.63554">
        <ele>1066.942</ele>
        <time>2018-12-22T15:27:16Z</time>
      </trkpt>
      <trkpt lat="44.05156" lon="5.63551">
        <ele>1067.322</ele>
        <time>2018-12-22T15:27:17Z</time>
      </trkpt>
      <trkpt lat="44.05161" lon="5.63547">
        <ele>1067.414</ele>
        <time>2018-12-22T15:27:18Z</time>
      </trkpt>
      <trkpt lat="44.05165" lon="5.63544">
        <ele>1067.608</ele>
        <time>2018-12-22T15:27:19Z</time>
      </trkpt>
      <trkpt lat="44.05173" lon="5.6354">
        <ele>1067.587</ele>
        <time>2018-12-22T15:27:21Z</time>
      </trkpt>
      <trkpt lat="44.05177" lon="5.63539">
        <ele>1067.515</ele>
        <time>2018-12-22T15:27:22Z</time>
      </trkpt>
      <trkpt lat="44.05183" lon="5.6354">
        <ele>1067.699</ele>
        <time>2018-12-22T15:27:23Z</time>
      </trkpt>
      <trkpt lat="44.05187" lon="5.63541">
        <ele>1067.777</ele>
        <time>2018-12-22T15:27:24Z</time>
      </trkpt>
      <trkpt lat="44.05193" lon="5.63541">
        <ele>1067.848</ele>
        <time>2018-12-22T15:27:25Z</time>
      </trkpt>
      <trkpt lat="44.05198" lon="5.63541">
        <ele>1068.338</ele>
        <time>2018-12-22T15:27:26Z</time>
      </trkpt>
      <trkpt lat="44.05202" lon="5.63543">
        <ele>1068.867</ele>
        <time>2018-12-22T15:27:27Z</time>
      </trkpt>
      <trkpt lat="44.05207" lon="5.63544">
        <ele>1069.473</ele>
        <time>2018-12-22T15:27:28Z</time>
      </trkpt>
      <trkpt lat="44.05216" lon="5.63539">
        <ele>1071.212</ele>
        <time>2018-12-22T15:27:30Z</time>
      </trkpt>
      <trkpt lat="44.05223" lon="5.63535">
        <ele>1072.132</ele>
        <time>2018-12-22T15:27:31Z</time>
      </trkpt>
      <trkpt lat="44.0523" lon="5.63527">
        <ele>1072.705</ele>
        <time>2018-12-22T15:27:32Z</time>
      </trkpt>
      <trkpt lat="44.05236" lon="5.63521">
        <ele>1073.008</ele>
        <time>2018-12-22T15:27:33Z</time>
      </trkpt>
      <trkpt lat="44.05241" lon="5.63517">
        <ele>1073.594</ele>
        <time>2018-12-22T15:27:34Z</time>
      </trkpt>
      <trkpt lat="44.05246" lon="5.63515">
        <ele>1073.652</ele>
        <time>2018-12-22T15:27:35Z</time>
      </trkpt>
      <trkpt lat="44.05251" lon="5.63513">
        <ele>1073.736</ele>
        <time>2018-12-22T15:27:36Z</time>
      </trkpt>
      <trkpt lat="44.05256" lon="5.6351">
        <ele>1073.884</ele>
        <time>2018-12-22T15:27:37Z</time>
      </trkpt>
      <trkpt lat="44.05262" lon="5.63507">
        <ele>1074.175</ele>
        <time>2018-12-22T15:27:38Z</time>
      </trkpt>
      <trkpt lat="44.05269" lon="5.63505">
        <ele>1074.355</ele>
        <time>2018-12-22T15:27:39Z</time>
      </trkpt>
      <trkpt lat="44.05274" lon="5.63503">
        <ele>1074.864</ele>
        <time>2018-12-22T15:27:40Z</time>
      </trkpt>
      <trkpt lat="44.05282" lon="5.63499">
        <ele>1075.99</ele>
        <time>2018-12-22T15:27:42Z</time>
      </trkpt>
      <trkpt lat="44.05288" lon="5.63493">
        <ele>1076.062</ele>
        <time>2018-12-22T15:27:44Z</time>
      </trkpt>
      <trkpt lat="44.05294" lon="5.63491">
        <ele>1074.983</ele>
        <time>2018-12-22T15:27:46Z</time>
      </trkpt>
      <trkpt lat="44.05299" lon="5.6349">
        <ele>1073.311</ele>
        <time>2018-12-22T15:27:48Z</time>
      </trkpt>
      <trkpt lat="44.05305" lon="5.63487">
        <ele>1071.908</ele>
        <time>2018-12-22T15:27:50Z</time>
      </trkpt>
      <trkpt lat="44.05312" lon="5.63483">
        <ele>1070.749</ele>
        <time>2018-12-22T15:27:52Z</time>
      </trkpt>
      <trkpt lat="44.05321" lon="5.63478">
        <ele>1068.847</ele>
        <time>2018-12-22T15:27:54Z</time>
      </trkpt>
      <trkpt lat="44.05325" lon="5.63477">
        <ele>1067.781</ele>
        <time>2018-12-22T15:27:55Z</time>
      </trkpt>
      <trkpt lat="44.0533" lon="5.63475">
        <ele>1066.639</ele>
        <time>2018-12-22T15:27:56Z</time>
      </trkpt>
      <trkpt lat="44.05336" lon="5.63473">
        <ele>1065.45</ele>
        <time>2018-12-22T15:27:57Z</time>
      </trkpt>
      <trkpt lat="44.05343" lon="5.63469">
        <ele>1063.07</ele>
        <time>2018-12-22T15:27:59Z</time>
      </trkpt>
      <trkpt lat="44.05348" lon="5.63465">
        <ele>1058.639</ele>
        <time>2018-12-22T15:28:01Z</time>
      </trkpt>
      <trkpt lat="44.05356" lon="5.63465">
        <ele>1056.475</ele>
        <time>2018-12-22T15:28:03Z</time>
      </trkpt>
      <trkpt lat="44.05363" lon="5.63466">
        <ele>1055.213</ele>
        <time>2018-12-22T15:28:05Z</time>
      </trkpt>
      <trkpt lat="44.05369" lon="5.63468">
        <ele>1054.443</ele>
        <time>2018-12-22T15:28:06Z</time>
      </trkpt>
      <trkpt lat="44.05375" lon="5.63469">
        <ele>1053.407</ele>
        <time>2018-12-22T15:28:07Z</time>
      </trkpt>
      <trkpt lat="44.05381" lon="5.6347">
        <ele>1052.208</ele>
        <time>2018-12-22T15:28:08Z</time>
      </trkpt>
      <trkpt lat="44.05387" lon="5.6347">
        <ele>1050.914</ele>
        <time>2018-12-22T15:28:09Z</time>
      </trkpt>
      <trkpt lat="44.05392" lon="5.63471">
        <ele>1049.892</ele>
        <time>2018-12-22T15:28:10Z</time>
      </trkpt>
      <trkpt lat="44.05397" lon="5.63472">
        <ele>1048.766</ele>
        <time>2018-12-22T15:28:11Z</time>
      </trkpt>
      <trkpt lat="44.05402" lon="5.63473">
        <ele>1048.214</ele>
        <time>2018-12-22T15:28:12Z</time>
      </trkpt>
      <trkpt lat="44.0541" lon="5.63474">
        <ele>1047.245</ele>
        <time>2018-12-22T15:28:14Z</time>
      </trkpt>
      <trkpt lat="44.05418" lon="5.63477">
        <ele>1045.955</ele>
        <time>2018-12-22T15:28:16Z</time>
      </trkpt>
      <trkpt lat="44.05424" lon="5.6348">
        <ele>1044.044</ele>
        <time>2018-12-22T15:28:18Z</time>
      </trkpt>
      <trkpt lat="44.05431" lon="5.63485">
        <ele>1043.22</ele>
        <time>2018-12-22T15:28:19Z</time>
      </trkpt>
      <trkpt lat="44.05438" lon="5.63493">
        <ele>1042.638</ele>
        <time>2018-12-22T15:28:20Z</time>
      </trkpt>
      <trkpt lat="44.05445" lon="5.63499">
        <ele>1042.47</ele>
        <time>2018-12-22T15:28:21Z</time>
      </trkpt>
      <trkpt lat="44.05449" lon="5.63503">
        <ele>1042.417</ele>
        <time>2018-12-22T15:28:22Z</time>
      </trkpt>
      <trkpt lat="44.05453" lon="5.63508">
        <ele>1042.408</ele>
        <time>2018-12-22T15:28:23Z</time>
      </trkpt>
      <trkpt lat="44.05456" lon="5.63513">
        <ele>1042.646</ele>
        <time>2018-12-22T15:28:24Z</time>
      </trkpt>
      <trkpt lat="44.05463" lon="5.63517">
        <ele>1042.834</ele>
        <time>2018-12-22T15:28:26Z</time>
      </trkpt>
      <trkpt lat="44.05471" lon="5.63519">
        <ele>1042.078</ele>
        <time>2018-12-22T15:28:28Z</time>
      </trkpt>
      <trkpt lat="44.05478" lon="5.63522">
        <ele>1039.086</ele>
        <time>2018-12-22T15:28:32Z</time>
      </trkpt>
      <trkpt lat="44.05485" lon="5.63528">
        <ele>1038.237</ele>
        <time>2018-12-22T15:28:34Z</time>
      </trkpt>
      <trkpt lat="44.05492" lon="5.63533">
        <ele>1037.387</ele>
        <time>2018-12-22T15:28:36Z</time>
      </trkpt>
      <trkpt lat="44.05496" lon="5.63536">
        <ele>1036.946</ele>
        <time>2018-12-22T15:28:37Z</time>
      </trkpt>
      <trkpt lat="44.05504" lon="5.63543">
        <ele>1035.872</ele>
        <time>2018-12-22T15:28:39Z</time>
      </trkpt>
      <trkpt lat="44.05511" lon="5.63549">
        <ele>1034.996</ele>
        <time>2018-12-22T15:28:41Z</time>
      </trkpt>
      <trkpt lat="44.05518" lon="5.63557">
        <ele>1034.531</ele>
        <time>2018-12-22T15:28:43Z</time>
      </trkpt>
      <trkpt lat="44.05522" lon="5.63561">
        <ele>1034.424</ele>
        <time>2018-12-22T15:28:44Z</time>
      </trkpt>
      <trkpt lat="44.05527" lon="5.63566">
        <ele>1034.408</ele>
        <time>2018-12-22T15:28:45Z</time>
      </trkpt>
      <trkpt lat="44.05533" lon="5.63569">
        <ele>1034.322</ele>
        <time>2018-12-22T15:28:46Z</time>
      </trkpt>
      <trkpt lat="44.0554" lon="5.63569">
        <ele>1034.23</ele>
        <time>2018-12-22T15:28:47Z</time>
      </trkpt>
      <trkpt lat="44.05546" lon="5.63572">
        <ele>1033.714</ele>
        <time>2018-12-22T15:28:48Z</time>
      </trkpt>
      <trkpt lat="44.05553" lon="5.63576">
        <ele>1032.842</ele>
        <time>2018-12-22T15:28:49Z</time>
      </trkpt>
      <trkpt lat="44.05561" lon="5.63581">
        <ele>1031.983</ele>
        <time>2018-12-22T15:28:50Z</time>
      </trkpt>
      <trkpt lat="44.05569" lon="5.63586">
        <ele>1030.833</ele>
        <time>2018-12-22T15:28:51Z</time>
      </trkpt>
      <trkpt lat="44.05578" lon="5.63588">
        <ele>1029.252</ele>
        <time>2018-12-22T15:28:52Z</time>
      </trkpt>
      <trkpt lat="44.05589" lon="5.63588">
        <ele>1028.048</ele>
        <time>2018-12-22T15:28:53Z</time>
      </trkpt>
      <trkpt lat="44.056" lon="5.63587">
        <ele>1025.294</ele>
        <time>2018-12-22T15:28:54Z</time>
      </trkpt>
      <trkpt lat="44.05606" lon="5.63589">
        <ele>1024.157</ele>
        <time>2018-12-22T15:28:55Z</time>
      </trkpt>
      <trkpt lat="44.05613" lon="5.6359">
        <ele>1023.222</ele>
        <time>2018-12-22T15:28:56Z</time>
      </trkpt>
      <trkpt lat="44.0562" lon="5.6359">
        <ele>1021.908</ele>
        <time>2018-12-22T15:28:57Z</time>
      </trkpt>
      <trkpt lat="44.05627" lon="5.63589">
        <ele>1020.972</ele>
        <time>2018-12-22T15:28:58Z</time>
      </trkpt>
      <trkpt lat="44.05634" lon="5.63588">
        <ele>1019.91</ele>
        <time>2018-12-22T15:28:59Z</time>
      </trkpt>
      <trkpt lat="44.0564" lon="5.63587">
        <ele>1018.754</ele>
        <time>2018-12-22T15:29:00Z</time>
      </trkpt>
      <trkpt lat="44.05645" lon="5.63584">
        <ele>1017.382</ele>
        <time>2018-12-22T15:29:01Z</time>
      </trkpt>
      <trkpt lat="44.05651" lon="5.63583">
        <ele>1016.023</ele>
        <time>2018-12-22T15:29:02Z</time>
      </trkpt>
      <trkpt lat="44.05658" lon="5.6358">
        <ele>1014.993</ele>
        <time>2018-12-22T15:29:03Z</time>
      </trkpt>
      <trkpt lat="44.05666" lon="5.63575">
        <ele>1013.552</ele>
        <time>2018-12-22T15:29:04Z</time>
      </trkpt>
      <trkpt lat="44.05675" lon="5.63569">
        <ele>1012.028</ele>
        <time>2018-12-22T15:29:05Z</time>
      </trkpt>
      <trkpt lat="44.05683" lon="5.63564">
        <ele>1010.929</ele>
        <time>2018-12-22T15:29:06Z</time>
      </trkpt>
      <trkpt lat="44.05693" lon="5.63558">
        <ele>1010</ele>
        <time>2018-12-22T15:29:07Z</time>
      </trkpt>
      <trkpt lat="44.05702" lon="5.63553">
        <ele>1008.52</ele>
        <time>2018-12-22T15:29:08Z</time>
      </trkpt>
      <trkpt lat="44.05713" lon="5.63549">
        <ele>1007.908</ele>
        <time>2018-12-22T15:29:09Z</time>
      </trkpt>
      <trkpt lat="44.05725" lon="5.63548">
        <ele>1007.145</ele>
        <time>2018-12-22T15:29:10Z</time>
      </trkpt>
      <trkpt lat="44.05736" lon="5.63545">
        <ele>1006.063</ele>
        <time>2018-12-22T15:29:11Z</time>
      </trkpt>
      <trkpt lat="44.05748" lon="5.63541">
        <ele>1004.867</ele>
        <time>2018-12-22T15:29:12Z</time>
      </trkpt>
      <trkpt lat="44.05758" lon="5.63538">
        <ele>1003.665</ele>
        <time>2018-12-22T15:29:13Z</time>
      </trkpt>
      <trkpt lat="44.0577" lon="5.63535">
        <ele>1002.826</ele>
        <time>2018-12-22T15:29:14Z</time>
      </trkpt>
      <trkpt lat="44.05781" lon="5.63532">
        <ele>1002.136</ele>
        <time>2018-12-22T15:29:15Z</time>
      </trkpt>
      <trkpt lat="44.05793" lon="5.6353">
        <ele>1001.395</ele>
        <time>2018-12-22T15:29:16Z</time>
      </trkpt>
      <trkpt lat="44.05804" lon="5.63528">
        <ele>1000.711</ele>
        <time>2018-12-22T15:29:17Z</time>
      </trkpt>
      <trkpt lat="44.05814" lon="5.63527">
        <ele>1000.117</ele>
        <time>2018-12-22T15:29:18Z</time>
      </trkpt>
      <trkpt lat="44.05824" lon="5.63526">
        <ele>999.587</ele>
        <time>2018-12-22T15:29:19Z</time>
      </trkpt>
      <trkpt lat="44.05829" lon="5.63526">
        <ele>999.015</ele>
        <time>2018-12-22T15:29:20Z</time>
      </trkpt>
      <trkpt lat="44.05834" lon="5.63527">
        <ele>998.708</ele>
        <time>2018-12-22T15:29:21Z</time>
      </trkpt>
      <trkpt lat="44.05839" lon="5.63526">
        <ele>998.734</ele>
        <time>2018-12-22T15:29:22Z</time>
      </trkpt>
      <trkpt lat="44.05845" lon="5.63525">
        <ele>998.812</ele>
        <time>2018-12-22T15:29:23Z</time>
      </trkpt>
      <trkpt lat="44.05853" lon="5.63524">
        <ele>999.096</ele>
        <time>2018-12-22T15:29:25Z</time>
      </trkpt>
      <trkpt lat="44.05858" lon="5.63523">
        <ele>1000.094</ele>
        <time>2018-12-22T15:29:34Z</time>
      </trkpt>
      <trkpt lat="44.05863" lon="5.63523">
        <ele>1000.065</ele>
        <time>2018-12-22T15:29:37Z</time>
      </trkpt>
      <trkpt lat="44.05868" lon="5.63524">
        <ele>999.725</ele>
        <time>2018-12-22T15:29:52Z</time>
      </trkpt>
      <trkpt lat="44.05875" lon="5.63529">
        <ele>999.564</ele>
        <time>2018-12-22T15:29:54Z</time>
      </trkpt>
      <trkpt lat="44.0588" lon="5.63531">
        <ele>999.52</ele>
        <time>2018-12-22T15:29:55Z</time>
      </trkpt>
      <trkpt lat="44.05885" lon="5.63535">
        <ele>999.527</ele>
        <time>2018-12-22T15:29:56Z</time>
      </trkpt>
      <trkpt lat="44.05892" lon="5.63538">
        <ele>999.768</ele>
        <time>2018-12-22T15:29:57Z</time>
      </trkpt>
      <trkpt lat="44.059" lon="5.63543">
        <ele>999.714</ele>
        <time>2018-12-22T15:29:58Z</time>
      </trkpt>
      <trkpt lat="44.05908" lon="5.63547">
        <ele>999.708</ele>
        <time>2018-12-22T15:29:59Z</time>
      </trkpt>
      <trkpt lat="44.05919" lon="5.63551">
        <ele>999.795</ele>
        <time>2018-12-22T15:30:00Z</time>
      </trkpt>
      <trkpt lat="44.05931" lon="5.63555">
        <ele>999.883</ele>
        <time>2018-12-22T15:30:01Z</time>
      </trkpt>
      <trkpt lat="44.05943" lon="5.63559">
        <ele>999.887</ele>
        <time>2018-12-22T15:30:02Z</time>
      </trkpt>
      <trkpt lat="44.05955" lon="5.63563">
        <ele>999.525</ele>
        <time>2018-12-22T15:30:03Z</time>
      </trkpt>
      <trkpt lat="44.05968" lon="5.63566">
        <ele>999.346</ele>
        <time>2018-12-22T15:30:04Z</time>
      </trkpt>
      <trkpt lat="44.0598" lon="5.6357">
        <ele>999.316</ele>
        <time>2018-12-22T15:30:05Z</time>
      </trkpt>
      <trkpt lat="44.05991" lon="5.63574">
        <ele>999.985</ele>
        <time>2018-12-22T15:30:06Z</time>
      </trkpt>
      <trkpt lat="44.06002" lon="5.63578">
        <ele>1000.841</ele>
        <time>2018-12-22T15:30:07Z</time>
      </trkpt>
      <trkpt lat="44.06013" lon="5.63581">
        <ele>1001.654</ele>
        <time>2018-12-22T15:30:08Z</time>
      </trkpt>
      <trkpt lat="44.06024" lon="5.63584">
        <ele>1002.656</ele>
        <time>2018-12-22T15:30:09Z</time>
      </trkpt>
      <trkpt lat="44.06036" lon="5.63587">
        <ele>1003.411</ele>
        <time>2018-12-22T15:30:10Z</time>
      </trkpt>
      <trkpt lat="44.06048" lon="5.63591">
        <ele>1003.408</ele>
        <time>2018-12-22T15:30:11Z</time>
      </trkpt>
      <trkpt lat="44.0606" lon="5.63593">
        <ele>1003.588</ele>
        <time>2018-12-22T15:30:12Z</time>
      </trkpt>
      <trkpt lat="44.06072" lon="5.63594">
        <ele>1003.566</ele>
        <time>2018-12-22T15:30:13Z</time>
      </trkpt>
      <trkpt lat="44.06083" lon="5.63596">
        <ele>1004.57</ele>
        <time>2018-12-22T15:30:14Z</time>
      </trkpt>
      <trkpt lat="44.06093" lon="5.63598">
        <ele>1005.278</ele>
        <time>2018-12-22T15:30:15Z</time>
      </trkpt>
      <trkpt lat="44.06101" lon="5.63599">
        <ele>1006.339</ele>
        <time>2018-12-22T15:30:16Z</time>
      </trkpt>
      <trkpt lat="44.06109" lon="5.63602">
        <ele>1007.129</ele>
        <time>2018-12-22T15:30:17Z</time>
      </trkpt>
      <trkpt lat="44.06118" lon="5.63606">
        <ele>1008.368</ele>
        <time>2018-12-22T15:30:18Z</time>
      </trkpt>
      <trkpt lat="44.06127" lon="5.63612">
        <ele>1009.194</ele>
        <time>2018-12-22T15:30:19Z</time>
      </trkpt>
      <trkpt lat="44.06136" lon="5.63619">
        <ele>1009.761</ele>
        <time>2018-12-22T15:30:20Z</time>
      </trkpt>
      <trkpt lat="44.06145" lon="5.63625">
        <ele>1010.121</ele>
        <time>2018-12-22T15:30:21Z</time>
      </trkpt>
      <trkpt lat="44.06153" lon="5.63632">
        <ele>1010.313</ele>
        <time>2018-12-22T15:30:22Z</time>
      </trkpt>
      <trkpt lat="44.0616" lon="5.63638">
        <ele>1010.308</ele>
        <time>2018-12-22T15:30:23Z</time>
      </trkpt>
      <trkpt lat="44.06167" lon="5.63644">
        <ele>1010.279</ele>
        <time>2018-12-22T15:30:24Z</time>
      </trkpt>
      <trkpt lat="44.06175" lon="5.63652">
        <ele>1010.217</ele>
        <time>2018-12-22T15:30:25Z</time>
      </trkpt>
      <trkpt lat="44.06184" lon="5.63659">
        <ele>1010.341</ele>
        <time>2018-12-22T15:30:26Z</time>
      </trkpt>
      <trkpt lat="44.06192" lon="5.63667">
        <ele>1011.799</ele>
        <time>2018-12-22T15:30:27Z</time>
      </trkpt>
      <trkpt lat="44.06201" lon="5.63675">
        <ele>1013.04</ele>
        <time>2018-12-22T15:30:28Z</time>
      </trkpt>
      <trkpt lat="44.0621" lon="5.63683">
        <ele>1013.95</ele>
        <time>2018-12-22T15:30:29Z</time>
      </trkpt>
      <trkpt lat="44.0622" lon="5.63689">
        <ele>1014.529</ele>
        <time>2018-12-22T15:30:30Z</time>
      </trkpt>
      <trkpt lat="44.06231" lon="5.63695">
        <ele>1015.365</ele>
        <time>2018-12-22T15:30:31Z</time>
      </trkpt>
      <trkpt lat="44.06243" lon="5.63701">
        <ele>1015.397</ele>
        <time>2018-12-22T15:30:32Z</time>
      </trkpt>
      <trkpt lat="44.06255" lon="5.63706">
        <ele>1015.423</ele>
        <time>2018-12-22T15:30:33Z</time>
      </trkpt>
      <trkpt lat="44.06267" lon="5.63709">
        <ele>1015.825</ele>
        <time>2018-12-22T15:30:34Z</time>
      </trkpt>
      <trkpt lat="44.06278" lon="5.63714">
        <ele>1018.008</ele>
        <time>2018-12-22T15:30:35Z</time>
      </trkpt>
      <trkpt lat="44.06289" lon="5.63718">
        <ele>1018.012</ele>
        <time>2018-12-22T15:30:36Z</time>
      </trkpt>
      <trkpt lat="44.06301" lon="5.63722">
        <ele>1018.04</ele>
        <time>2018-12-22T15:30:37Z</time>
      </trkpt>
      <trkpt lat="44.06312" lon="5.63727">
        <ele>1018.084</ele>
        <time>2018-12-22T15:30:38Z</time>
      </trkpt>
      <trkpt lat="44.06324" lon="5.63731">
        <ele>1019.752</ele>
        <time>2018-12-22T15:30:39Z</time>
      </trkpt>
      <trkpt lat="44.06336" lon="5.63734">
        <ele>1019.723</ele>
        <time>2018-12-22T15:30:40Z</time>
      </trkpt>
      <trkpt lat="44.06347" lon="5.63736">
        <ele>1021.883</ele>
        <time>2018-12-22T15:30:41Z</time>
      </trkpt>
      <trkpt lat="44.0636" lon="5.63738">
        <ele>1022.632</ele>
        <time>2018-12-22T15:30:42Z</time>
      </trkpt>
      <trkpt lat="44.06374" lon="5.63741">
        <ele>1023.488</ele>
        <time>2018-12-22T15:30:43Z</time>
      </trkpt>
      <trkpt lat="44.06388" lon="5.63742">
        <ele>1023.815</ele>
        <time>2018-12-22T15:30:44Z</time>
      </trkpt>
      <trkpt lat="44.06402" lon="5.63744">
        <ele>1023.865</ele>
        <time>2018-12-22T15:30:45Z</time>
      </trkpt>
      <trkpt lat="44.06417" lon="5.63746">
        <ele>1023.911</ele>
        <time>2018-12-22T15:30:46Z</time>
      </trkpt>
      <trkpt lat="44.06431" lon="5.63746">
        <ele>1024.008</ele>
        <time>2018-12-22T15:30:47Z</time>
      </trkpt>
      <trkpt lat="44.06446" lon="5.63746">
        <ele>1024.624</ele>
        <time>2018-12-22T15:30:48Z</time>
      </trkpt>
      <trkpt lat="44.0646" lon="5.63745">
        <ele>1025.632</ele>
        <time>2018-12-22T15:30:49Z</time>
      </trkpt>
      <trkpt lat="44.06473" lon="5.63743">
        <ele>1026.756</ele>
        <time>2018-12-22T15:30:50Z</time>
      </trkpt>
      <trkpt lat="44.06483" lon="5.63736">
        <ele>1027.864</ele>
        <time>2018-12-22T15:30:51Z</time>
      </trkpt>
      <trkpt lat="44.06492" lon="5.63726">
        <ele>1029.045</ele>
        <time>2018-12-22T15:30:52Z</time>
      </trkpt>
      <trkpt lat="44.065" lon="5.63715">
        <ele>1030.065</ele>
        <time>2018-12-22T15:30:53Z</time>
      </trkpt>
      <trkpt lat="44.06509" lon="5.63704">
        <ele>1031.264</ele>
        <time>2018-12-22T15:30:54Z</time>
      </trkpt>
      <trkpt lat="44.0652" lon="5.63696">
        <ele>1032.06</ele>
        <time>2018-12-22T15:30:55Z</time>
      </trkpt>
      <trkpt lat="44.06531" lon="5.63689">
        <ele>1032.833</ele>
        <time>2018-12-22T15:30:56Z</time>
      </trkpt>
      <trkpt lat="44.06542" lon="5.63684">
        <ele>1033.423</ele>
        <time>2018-12-22T15:30:57Z</time>
      </trkpt>
      <trkpt lat="44.06554" lon="5.63679">
        <ele>1034.315</ele>
        <time>2018-12-22T15:30:58Z</time>
      </trkpt>
      <trkpt lat="44.06563" lon="5.63674">
        <ele>1035.608</ele>
        <time>2018-12-22T15:30:59Z</time>
      </trkpt>
      <trkpt lat="44.06573" lon="5.63667">
        <ele>1036.876</ele>
        <time>2018-12-22T15:31:00Z</time>
      </trkpt>
      <trkpt lat="44.06581" lon="5.63659">
        <ele>1038.044</ele>
        <time>2018-12-22T15:31:01Z</time>
      </trkpt>
      <trkpt lat="44.06587" lon="5.63651">
        <ele>1039.628</ele>
        <time>2018-12-22T15:31:02Z</time>
      </trkpt>
      <trkpt lat="44.06591" lon="5.63647">
        <ele>1041.366</ele>
        <time>2018-12-22T15:31:03Z</time>
      </trkpt>
      <trkpt lat="44.06596" lon="5.63644">
        <ele>1044.327</ele>
        <time>2018-12-22T15:31:05Z</time>
      </trkpt>
      <trkpt lat="44.06602" lon="5.63642">
        <ele>1047.797</ele>
        <time>2018-12-22T15:31:08Z</time>
      </trkpt>
      <trkpt lat="44.06607" lon="5.63642">
        <ele>1048.136</ele>
        <time>2018-12-22T15:31:10Z</time>
      </trkpt>
      <trkpt lat="44.06612" lon="5.63645">
        <ele>1048.942</ele>
        <time>2018-12-22T15:31:12Z</time>
      </trkpt>
      <trkpt lat="44.06617" lon="5.63643">
        <ele>1049.248</ele>
        <time>2018-12-22T15:31:14Z</time>
      </trkpt>
      <trkpt lat="44.06623" lon="5.63636">
        <ele>1049.861</ele>
        <time>2018-12-22T15:31:16Z</time>
      </trkpt>
      <trkpt lat="44.0663" lon="5.63633">
        <ele>1051.317</ele>
        <time>2018-12-22T15:31:19Z</time>
      </trkpt>
      <trkpt lat="44.06638" lon="5.63637">
        <ele>1052.108</ele>
        <time>2018-12-22T15:31:21Z</time>
      </trkpt>
      <trkpt lat="44.06643" lon="5.63638">
        <ele>1051.957</ele>
        <time>2018-12-22T15:31:22Z</time>
      </trkpt>
      <trkpt lat="44.0665" lon="5.63639">
        <ele>1051.725</ele>
        <time>2018-12-22T15:31:23Z</time>
      </trkpt>
      <trkpt lat="44.06657" lon="5.6364">
        <ele>1051.639</ele>
        <time>2018-12-22T15:31:24Z</time>
      </trkpt>
      <trkpt lat="44.06665" lon="5.6364">
        <ele>1051.637</ele>
        <time>2018-12-22T15:31:25Z</time>
      </trkpt>
      <trkpt lat="44.06671" lon="5.6364">
        <ele>1052.188</ele>
        <time>2018-12-22T15:31:26Z</time>
      </trkpt>
      <trkpt lat="44.06678" lon="5.6364">
        <ele>1052.978</ele>
        <time>2018-12-22T15:31:27Z</time>
      </trkpt>
      <trkpt lat="44.06685" lon="5.63637">
        <ele>1053.817</ele>
        <time>2018-12-22T15:31:28Z</time>
      </trkpt>
      <trkpt lat="44.06693" lon="5.63634">
        <ele>1054.393</ele>
        <time>2018-12-22T15:31:29Z</time>
      </trkpt>
      <trkpt lat="44.06701" lon="5.63629">
        <ele>1055.091</ele>
        <time>2018-12-22T15:31:30Z</time>
      </trkpt>
      <trkpt lat="44.06709" lon="5.63625">
        <ele>1055.581</ele>
        <time>2018-12-22T15:31:31Z</time>
      </trkpt>
      <trkpt lat="44.06717" lon="5.63623">
        <ele>1055.719</ele>
        <time>2018-12-22T15:31:32Z</time>
      </trkpt>
      <trkpt lat="44.06725" lon="5.63622">
        <ele>1056.308</ele>
        <time>2018-12-22T15:31:33Z</time>
      </trkpt>
      <trkpt lat="44.06732" lon="5.6362">
        <ele>1057.252</ele>
        <time>2018-12-22T15:31:34Z</time>
      </trkpt>
      <trkpt lat="44.06738" lon="5.63617">
        <ele>1059.42</ele>
        <time>2018-12-22T15:31:35Z</time>
      </trkpt>
      <trkpt lat="44.06745" lon="5.63613">
        <ele>1060.434</ele>
        <time>2018-12-22T15:31:36Z</time>
      </trkpt>
      <trkpt lat="44.06753" lon="5.63608">
        <ele>1061.562</ele>
        <time>2018-12-22T15:31:37Z</time>
      </trkpt>
      <trkpt lat="44.06761" lon="5.63605">
        <ele>1062.473</ele>
        <time>2018-12-22T15:31:38Z</time>
      </trkpt>
      <trkpt lat="44.06768" lon="5.63601">
        <ele>1063.093</ele>
        <time>2018-12-22T15:31:39Z</time>
      </trkpt>
      <trkpt lat="44.06775" lon="5.63598">
        <ele>1063.542</ele>
        <time>2018-12-22T15:31:40Z</time>
      </trkpt>
      <trkpt lat="44.06784" lon="5.63596">
        <ele>1064.658</ele>
        <time>2018-12-22T15:31:41Z</time>
      </trkpt>
      <trkpt lat="44.06793" lon="5.63591">
        <ele>1065.644</ele>
        <time>2018-12-22T15:31:42Z</time>
      </trkpt>
      <trkpt lat="44.06799" lon="5.63585">
        <ele>1066.705</ele>
        <time>2018-12-22T15:31:43Z</time>
      </trkpt>
      <trkpt lat="44.06803" lon="5.63578">
        <ele>1068.015</ele>
        <time>2018-12-22T15:31:44Z</time>
      </trkpt>
      <trkpt lat="44.06805" lon="5.63569">
        <ele>1069.008</ele>
        <time>2018-12-22T15:31:45Z</time>
      </trkpt>
      <trkpt lat="44.06805" lon="5.6356">
        <ele>1069.887</ele>
        <time>2018-12-22T15:31:46Z</time>
      </trkpt>
      <trkpt lat="44.06803" lon="5.6355">
        <ele>1071.135</ele>
        <time>2018-12-22T15:31:47Z</time>
      </trkpt>
      <trkpt lat="44.06799" lon="5.63541">
        <ele>1072.099</ele>
        <time>2018-12-22T15:31:48Z</time>
      </trkpt>
      <trkpt lat="44.06796" lon="5.63533">
        <ele>1072.657</ele>
        <time>2018-12-22T15:31:49Z</time>
      </trkpt>
      <trkpt lat="44.06789" lon="5.6353">
        <ele>1073.538</ele>
        <time>2018-12-22T15:31:50Z</time>
      </trkpt>
      <trkpt lat="44.06783" lon="5.63529">
        <ele>1074.018</ele>
        <time>2018-12-22T15:31:51Z</time>
      </trkpt>
      <trkpt lat="44.06778" lon="5.63528">
        <ele>1074.667</ele>
        <time>2018-12-22T15:31:52Z</time>
      </trkpt>
      <trkpt lat="44.06774" lon="5.63527">
        <ele>1075.093</ele>
        <time>2018-12-22T15:31:53Z</time>
      </trkpt>
      <trkpt lat="44.06769" lon="5.63524">
        <ele>1075.683</ele>
        <time>2018-12-22T15:31:54Z</time>
      </trkpt>
      <trkpt lat="44.06767" lon="5.63518">
        <ele>1076.125</ele>
        <time>2018-12-22T15:31:56Z</time>
      </trkpt>
      <trkpt lat="44.06773" lon="5.63516">
        <ele>1076.517</ele>
        <time>2018-12-22T15:31:58Z</time>
      </trkpt>
      <trkpt lat="44.06782" lon="5.63514">
        <ele>1077.108</ele>
        <time>2018-12-22T15:32:00Z</time>
      </trkpt>
      <trkpt lat="44.06788" lon="5.63512">
        <ele>1077.391</ele>
        <time>2018-12-22T15:32:01Z</time>
      </trkpt>
      <trkpt lat="44.06795" lon="5.63511">
        <ele>1077.469</ele>
        <time>2018-12-22T15:32:02Z</time>
      </trkpt>
      <trkpt lat="44.06803" lon="5.6351">
        <ele>1077.773</ele>
        <time>2018-12-22T15:32:03Z</time>
      </trkpt>
      <trkpt lat="44.06812" lon="5.6351">
        <ele>1077.841</ele>
        <time>2018-12-22T15:32:04Z</time>
      </trkpt>
      <trkpt lat="44.0682" lon="5.63509">
        <ele>1078.182</ele>
        <time>2018-12-22T15:32:05Z</time>
      </trkpt>
      <trkpt lat="44.0683" lon="5.6351">
        <ele>1078.592</ele>
        <time>2018-12-22T15:32:06Z</time>
      </trkpt>
      <trkpt lat="44.06838" lon="5.63512">
        <ele>1079.041</ele>
        <time>2018-12-22T15:32:07Z</time>
      </trkpt>
      <trkpt lat="44.06845" lon="5.63513">
        <ele>1079.167</ele>
        <time>2018-12-22T15:32:08Z</time>
      </trkpt>
      <trkpt lat="44.06853" lon="5.63516">
        <ele>1079.789</ele>
        <time>2018-12-22T15:32:09Z</time>
      </trkpt>
      <trkpt lat="44.0686" lon="5.6352">
        <ele>1080.206</ele>
        <time>2018-12-22T15:32:10Z</time>
      </trkpt>
      <trkpt lat="44.06868" lon="5.63524">
        <ele>1082.426</ele>
        <time>2018-12-22T15:32:11Z</time>
      </trkpt>
      <trkpt lat="44.06875" lon="5.63527">
        <ele>1082.408</ele>
        <time>2018-12-22T15:32:12Z</time>
      </trkpt>
      <trkpt lat="44.06883" lon="5.63531">
        <ele>1082.651</ele>
        <time>2018-12-22T15:32:13Z</time>
      </trkpt>
      <trkpt lat="44.06892" lon="5.63537">
        <ele>1082.679</ele>
        <time>2018-12-22T15:32:14Z</time>
      </trkpt>
      <trkpt lat="44.06899" lon="5.63543">
        <ele>1083.773</ele>
        <time>2018-12-22T15:32:15Z</time>
      </trkpt>
      <trkpt lat="44.06907" lon="5.63548">
        <ele>1084.371</ele>
        <time>2018-12-22T15:32:16Z</time>
      </trkpt>
      <trkpt lat="44.06915" lon="5.63552">
        <ele>1084.392</ele>
        <time>2018-12-22T15:32:17Z</time>
      </trkpt>
      <trkpt lat="44.06923" lon="5.63555">
        <ele>1084.422</ele>
        <time>2018-12-22T15:32:18Z</time>
      </trkpt>
      <trkpt lat="44.06931" lon="5.63557">
        <ele>1084.481</ele>
        <time>2018-12-22T15:32:19Z</time>
      </trkpt>
      <trkpt lat="44.06939" lon="5.63559">
        <ele>1084.297</ele>
        <time>2018-12-22T15:32:20Z</time>
      </trkpt>
      <trkpt lat="44.06948" lon="5.63562">
        <ele>1084.296</ele>
        <time>2018-12-22T15:32:21Z</time>
      </trkpt>
      <trkpt lat="44.06955" lon="5.63566">
        <ele>1084.431</ele>
        <time>2018-12-22T15:32:22Z</time>
      </trkpt>
      <trkpt lat="44.06964" lon="5.63572">
        <ele>1085.024</ele>
        <time>2018-12-22T15:32:23Z</time>
      </trkpt>
      <trkpt lat="44.06972" lon="5.63579">
        <ele>1085.608</ele>
        <time>2018-12-22T15:32:24Z</time>
      </trkpt>
      <trkpt lat="44.0698" lon="5.63588">
        <ele>1086.532</ele>
        <time>2018-12-22T15:32:25Z</time>
      </trkpt>
      <trkpt lat="44.06988" lon="5.63593">
        <ele>1086.72</ele>
        <time>2018-12-22T15:32:26Z</time>
      </trkpt>
      <trkpt lat="44.06997" lon="5.63598">
        <ele>1087.244</ele>
        <time>2018-12-22T15:32:27Z</time>
      </trkpt>
      <trkpt lat="44.07007" lon="5.636">
        <ele>1087.662</ele>
        <time>2018-12-22T15:32:28Z</time>
      </trkpt>
      <trkpt lat="44.07018" lon="5.63598">
        <ele>1088.223</ele>
        <time>2018-12-22T15:32:29Z</time>
      </trkpt>
      <trkpt lat="44.07029" lon="5.63593">
        <ele>1088.833</ele>
        <time>2018-12-22T15:32:30Z</time>
      </trkpt>
      <trkpt lat="44.07038" lon="5.63586">
        <ele>1089.642</ele>
        <time>2018-12-22T15:32:31Z</time>
      </trkpt>
      <trkpt lat="44.07047" lon="5.63582">
        <ele>1090.388</ele>
        <time>2018-12-22T15:32:32Z</time>
      </trkpt>
      <trkpt lat="44.07056" lon="5.63578">
        <ele>1091.314</ele>
        <time>2018-12-22T15:32:33Z</time>
      </trkpt>
      <trkpt lat="44.07064" lon="5.63575">
        <ele>1092.254</ele>
        <time>2018-12-22T15:32:34Z</time>
      </trkpt>
      <trkpt lat="44.07072" lon="5.63572">
        <ele>1093.609</ele>
        <time>2018-12-22T15:32:35Z</time>
      </trkpt>
      <trkpt lat="44.0708" lon="5.6357">
        <ele>1094.308</ele>
        <time>2018-12-22T15:32:36Z</time>
      </trkpt>
      <trkpt lat="44.07088" lon="5.63568">
        <ele>1095.394</ele>
        <time>2018-12-22T15:32:37Z</time>
      </trkpt>
      <trkpt lat="44.07096" lon="5.63566">
        <ele>1096.012</ele>
        <time>2018-12-22T15:32:38Z</time>
      </trkpt>
      <trkpt lat="44.07105" lon="5.63563">
        <ele>1096.096</ele>
        <time>2018-12-22T15:32:39Z</time>
      </trkpt>
      <trkpt lat="44.07115" lon="5.6356">
        <ele>1096.974</ele>
        <time>2018-12-22T15:32:40Z</time>
      </trkpt>
      <trkpt lat="44.07125" lon="5.63557">
        <ele>1096.975</ele>
        <time>2018-12-22T15:32:41Z</time>
      </trkpt>
      <trkpt lat="44.07136" lon="5.63555">
        <ele>1096.965</ele>
        <time>2018-12-22T15:32:42Z</time>
      </trkpt>
      <trkpt lat="44.07147" lon="5.63553">
        <ele>1097.244</ele>
        <time>2018-12-22T15:32:43Z</time>
      </trkpt>
      <trkpt lat="44.07158" lon="5.63551">
        <ele>1097.78</ele>
        <time>2018-12-22T15:32:44Z</time>
      </trkpt>
      <trkpt lat="44.07169" lon="5.63549">
        <ele>1097.835</ele>
        <time>2018-12-22T15:32:45Z</time>
      </trkpt>
      <trkpt lat="44.07179" lon="5.63547">
        <ele>1098.486</ele>
        <time>2018-12-22T15:32:46Z</time>
      </trkpt>
      <trkpt lat="44.0719" lon="5.63545">
        <ele>1098.814</ele>
        <time>2018-12-22T15:32:47Z</time>
      </trkpt>
      <trkpt lat="44.07201" lon="5.63543">
        <ele>1099.108</ele>
        <time>2018-12-22T15:32:48Z</time>
      </trkpt>
      <trkpt lat="44.07213" lon="5.6354">
        <ele>1099.876</ele>
        <time>2018-12-22T15:32:49Z</time>
      </trkpt>
      <trkpt lat="44.07224" lon="5.63535">
        <ele>1101.284</ele>
        <time>2018-12-22T15:32:50Z</time>
      </trkpt>
      <trkpt lat="44.07234" lon="5.63531">
        <ele>1102.458</ele>
        <time>2018-12-22T15:32:51Z</time>
      </trkpt>
      <trkpt lat="44.07244" lon="5.63528">
        <ele>1102.996</ele>
        <time>2018-12-22T15:32:52Z</time>
      </trkpt>
      <trkpt lat="44.07253" lon="5.63526">
        <ele>1106.217</ele>
        <time>2018-12-22T15:32:53Z</time>
      </trkpt>
      <trkpt lat="44.07261" lon="5.63525">
        <ele>1107.347</ele>
        <time>2018-12-22T15:32:54Z</time>
      </trkpt>
      <trkpt lat="44.07268" lon="5.63524">
        <ele>1108.776</ele>
        <time>2018-12-22T15:32:55Z</time>
      </trkpt>
      <trkpt lat="44.07273" lon="5.63525">
        <ele>1111.282</ele>
        <time>2018-12-22T15:32:56Z</time>
      </trkpt>
      <trkpt lat="44.07278" lon="5.63524">
        <ele>1114.419</ele>
        <time>2018-12-22T15:32:58Z</time>
      </trkpt>
      <trkpt lat="44.07282" lon="5.63521">
        <ele>1116.109</ele>
        <time>2018-12-22T15:33:01Z</time>
      </trkpt>
      <trkpt lat="44.07286" lon="5.63529">
        <ele>1116.419</ele>
        <time>2018-12-22T15:33:06Z</time>
      </trkpt>
      <trkpt lat="44.07291" lon="5.63539">
        <ele>1116.508</ele>
        <time>2018-12-22T15:33:08Z</time>
      </trkpt>
      <trkpt lat="44.07295" lon="5.63545">
        <ele>1116.324</ele>
        <time>2018-12-22T15:33:09Z</time>
      </trkpt>
      <trkpt lat="44.07299" lon="5.63551">
        <ele>1115.872</ele>
        <time>2018-12-22T15:33:10Z</time>
      </trkpt>
      <trkpt lat="44.07304" lon="5.63559">
        <ele>1115.486</ele>
        <time>2018-12-22T15:33:11Z</time>
      </trkpt>
      <trkpt lat="44.07309" lon="5.63568">
        <ele>1114.994</ele>
        <time>2018-12-22T15:33:12Z</time>
      </trkpt>
      <trkpt lat="44.07314" lon="5.63579">
        <ele>1114.865</ele>
        <time>2018-12-22T15:33:13Z</time>
      </trkpt>
      <trkpt lat="44.07319" lon="5.63589">
        <ele>1114.825</ele>
        <time>2018-12-22T15:33:14Z</time>
      </trkpt>
      <trkpt lat="44.07324" lon="5.63597">
        <ele>1114.894</ele>
        <time>2018-12-22T15:33:15Z</time>
      </trkpt>
      <trkpt lat="44.07328" lon="5.63608">
        <ele>1114.91</ele>
        <time>2018-12-22T15:33:16Z</time>
      </trkpt>
      <trkpt lat="44.07332" lon="5.6362">
        <ele>1115.374</ele>
        <time>2018-12-22T15:33:17Z</time>
      </trkpt>
      <trkpt lat="44.07337" lon="5.63633">
        <ele>1115.956</ele>
        <time>2018-12-22T15:33:18Z</time>
      </trkpt>
      <trkpt lat="44.07342" lon="5.63644">
        <ele>1116.821</ele>
        <time>2018-12-22T15:33:19Z</time>
      </trkpt>
      <trkpt lat="44.07347" lon="5.63654">
        <ele>1118.808</ele>
        <time>2018-12-22T15:33:20Z</time>
      </trkpt>
      <trkpt lat="44.07353" lon="5.63664">
        <ele>1119.95</ele>
        <time>2018-12-22T15:33:21Z</time>
      </trkpt>
      <trkpt lat="44.07361" lon="5.63675">
        <ele>1121.188</ele>
        <time>2018-12-22T15:33:22Z</time>
      </trkpt>
      <trkpt lat="44.07368" lon="5.63687">
        <ele>1121.682</ele>
        <time>2018-12-22T15:33:23Z</time>
      </trkpt>
      <trkpt lat="44.07376" lon="5.63698">
        <ele>1121.93</ele>
        <time>2018-12-22T15:33:24Z</time>
      </trkpt>
      <trkpt lat="44.07384" lon="5.6371">
        <ele>1121.991</ele>
        <time>2018-12-22T15:33:25Z</time>
      </trkpt>
      <trkpt lat="44.07392" lon="5.63721">
        <ele>1121.351</ele>
        <time>2018-12-22T15:33:26Z</time>
      </trkpt>
      <trkpt lat="44.07399" lon="5.63733">
        <ele>1120.81</ele>
        <time>2018-12-22T15:33:27Z</time>
      </trkpt>
      <trkpt lat="44.07406" lon="5.63744">
        <ele>1120.436</ele>
        <time>2018-12-22T15:33:28Z</time>
      </trkpt>
      <trkpt lat="44.07413" lon="5.63755">
        <ele>1120.479</ele>
        <time>2018-12-22T15:33:29Z</time>
      </trkpt>
      <trkpt lat="44.0742" lon="5.63767">
        <ele>1120.405</ele>
        <time>2018-12-22T15:33:30Z</time>
      </trkpt>
      <trkpt lat="44.07427" lon="5.63779">
        <ele>1120.825</ele>
        <time>2018-12-22T15:33:31Z</time>
      </trkpt>
      <trkpt lat="44.07434" lon="5.63792">
        <ele>1121.108</ele>
        <time>2018-12-22T15:33:32Z</time>
      </trkpt>
      <trkpt lat="44.07441" lon="5.63806">
        <ele>1121.29</ele>
        <time>2018-12-22T15:33:33Z</time>
      </trkpt>
      <trkpt lat="44.07446" lon="5.63819">
        <ele>1121.388</ele>
        <time>2018-12-22T15:33:34Z</time>
      </trkpt>
      <trkpt lat="44.07453" lon="5.63831">
        <ele>1121.462</ele>
        <time>2018-12-22T15:33:35Z</time>
      </trkpt>
      <trkpt lat="44.0746" lon="5.63843">
        <ele>1121.49</ele>
        <time>2018-12-22T15:33:36Z</time>
      </trkpt>
      <trkpt lat="44.07468" lon="5.63854">
        <ele>1121.371</ele>
        <time>2018-12-22T15:33:37Z</time>
      </trkpt>
      <trkpt lat="44.07477" lon="5.63862">
        <ele>1121.251</ele>
        <time>2018-12-22T15:33:38Z</time>
      </trkpt>
      <trkpt lat="44.07488" lon="5.63867">
        <ele>1121.21</ele>
        <time>2018-12-22T15:33:39Z</time>
      </trkpt>
      <trkpt lat="44.07499" lon="5.63871">
        <ele>1121.176</ele>
        <time>2018-12-22T15:33:40Z</time>
      </trkpt>
      <trkpt lat="44.07512" lon="5.63873">
        <ele>1121.125</ele>
        <time>2018-12-22T15:33:41Z</time>
      </trkpt>
      <trkpt lat="44.07525" lon="5.63872">
        <ele>1120.926</ele>
        <time>2018-12-22T15:33:42Z</time>
      </trkpt>
      <trkpt lat="44.07537" lon="5.63871">
        <ele>1120.608</ele>
        <time>2018-12-22T15:33:43Z</time>
      </trkpt>
      <trkpt lat="44.07546" lon="5.6387">
        <ele>1120.608</ele>
        <time>2018-12-22T15:33:44Z</time>
      </trkpt>
      <trkpt lat="44.07555" lon="5.63869">
        <ele>1120.645</ele>
        <time>2018-12-22T15:33:45Z</time>
      </trkpt>
      <trkpt lat="44.07564" lon="5.63867">
        <ele>1121.123</ele>
        <time>2018-12-22T15:33:46Z</time>
      </trkpt>
      <trkpt lat="44.07572" lon="5.63864">
        <ele>1121.787</ele>
        <time>2018-12-22T15:33:47Z</time>
      </trkpt>
      <trkpt lat="44.07581" lon="5.6386">
        <ele>1122.155</ele>
        <time>2018-12-22T15:33:48Z</time>
      </trkpt>
      <trkpt lat="44.07589" lon="5.63854">
        <ele>1122.166</ele>
        <time>2018-12-22T15:33:49Z</time>
      </trkpt>
      <trkpt lat="44.07597" lon="5.63844">
        <ele>1122.066</ele>
        <time>2018-12-22T15:33:50Z</time>
      </trkpt>
      <trkpt lat="44.07604" lon="5.63834">
        <ele>1121.955</ele>
        <time>2018-12-22T15:33:51Z</time>
      </trkpt>
      <trkpt lat="44.07612" lon="5.63822">
        <ele>1121.661</ele>
        <time>2018-12-22T15:33:52Z</time>
      </trkpt>
      <trkpt lat="44.07618" lon="5.6381">
        <ele>1120.989</ele>
        <time>2018-12-22T15:33:53Z</time>
      </trkpt>
      <trkpt lat="44.07625" lon="5.63799">
        <ele>1119.806</ele>
        <time>2018-12-22T15:33:54Z</time>
      </trkpt>
      <trkpt lat="44.07634" lon="5.63789">
        <ele>1118.626</ele>
        <time>2018-12-22T15:33:55Z</time>
      </trkpt>
      <trkpt lat="44.07641" lon="5.63779">
        <ele>1118.608</ele>
        <time>2018-12-22T15:33:56Z</time>
      </trkpt>
      <trkpt lat="44.0765" lon="5.6377">
        <ele>1118.641</ele>
        <time>2018-12-22T15:33:57Z</time>
      </trkpt>
      <trkpt lat="44.07658" lon="5.63759">
        <ele>1118.839</ele>
        <time>2018-12-22T15:33:58Z</time>
      </trkpt>
      <trkpt lat="44.07666" lon="5.63748">
        <ele>1120.093</ele>
        <time>2018-12-22T15:33:59Z</time>
      </trkpt>
      <trkpt lat="44.07675" lon="5.63736">
        <ele>1120.071</ele>
        <time>2018-12-22T15:34:00Z</time>
      </trkpt>
      <trkpt lat="44.07684" lon="5.63724">
        <ele>1119.512</ele>
        <time>2018-12-22T15:34:01Z</time>
      </trkpt>
      <trkpt lat="44.07692" lon="5.63714">
        <ele>1119.552</ele>
        <time>2018-12-22T15:34:02Z</time>
      </trkpt>
      <trkpt lat="44.077" lon="5.637">
        <ele>1119.981</ele>
        <time>2018-12-22T15:34:03Z</time>
      </trkpt>
      <trkpt lat="44.07707" lon="5.6369">
        <ele>1120.297</ele>
        <time>2018-12-22T15:34:04Z</time>
      </trkpt>
      <trkpt lat="44.07713" lon="5.63679">
        <ele>1120.823</ele>
        <time>2018-12-22T15:34:05Z</time>
      </trkpt>
      <trkpt lat="44.07717" lon="5.63673">
        <ele>1121.683</ele>
        <time>2018-12-22T15:34:06Z</time>
      </trkpt>
      <trkpt lat="44.07723" lon="5.63669">
        <ele>1122.611</ele>
        <time>2018-12-22T15:34:07Z</time>
      </trkpt>
      <trkpt lat="44.07728" lon="5.63671">
        <ele>1123.408</ele>
        <time>2018-12-22T15:34:08Z</time>
      </trkpt>
      <trkpt lat="44.07733" lon="5.63675">
        <ele>1124.355</ele>
        <time>2018-12-22T15:34:09Z</time>
      </trkpt>
      <trkpt lat="44.07738" lon="5.63681">
        <ele>1125.533</ele>
        <time>2018-12-22T15:34:10Z</time>
      </trkpt>
      <trkpt lat="44.07744" lon="5.63684">
        <ele>1126.767</ele>
        <time>2018-12-22T15:34:11Z</time>
      </trkpt>
      <trkpt lat="44.07752" lon="5.63688">
        <ele>1127.525</ele>
        <time>2018-12-22T15:34:12Z</time>
      </trkpt>
      <trkpt lat="44.07759" lon="5.63697">
        <ele>1128.256</ele>
        <time>2018-12-22T15:34:13Z</time>
      </trkpt>
      <trkpt lat="44.07765" lon="5.63709">
        <ele>1128.296</ele>
        <time>2018-12-22T15:34:14Z</time>
      </trkpt>
      <trkpt lat="44.0777" lon="5.63723">
        <ele>1127.745</ele>
        <time>2018-12-22T15:34:15Z</time>
      </trkpt>
      <trkpt lat="44.07777" lon="5.63737">
        <ele>1127.771</ele>
        <time>2018-12-22T15:34:16Z</time>
      </trkpt>
      <trkpt lat="44.07783" lon="5.6375">
        <ele>1127.778</ele>
        <time>2018-12-22T15:34:17Z</time>
      </trkpt>
      <trkpt lat="44.07789" lon="5.63764">
        <ele>1127.833</ele>
        <time>2018-12-22T15:34:18Z</time>
      </trkpt>
      <trkpt lat="44.07793" lon="5.63779">
        <ele>1127.926</ele>
        <time>2018-12-22T15:34:19Z</time>
      </trkpt>
      <trkpt lat="44.078" lon="5.63795">
        <ele>1128.408</ele>
        <time>2018-12-22T15:34:20Z</time>
      </trkpt>
      <trkpt lat="44.07805" lon="5.6381">
        <ele>1128.61</ele>
        <time>2018-12-22T15:34:21Z</time>
      </trkpt>
      <trkpt lat="44.07813" lon="5.63823">
        <ele>1128.858</ele>
        <time>2018-12-22T15:34:22Z</time>
      </trkpt>
      <trkpt lat="44.0782" lon="5.63838">
        <ele>1129.832</ele>
        <time>2018-12-22T15:34:23Z</time>
      </trkpt>
      <trkpt lat="44.07828" lon="5.63851">
        <ele>1129.87</ele>
        <time>2018-12-22T15:34:24Z</time>
      </trkpt>
      <trkpt lat="44.07835" lon="5.63863">
        <ele>1130.831</ele>
        <time>2018-12-22T15:34:25Z</time>
      </trkpt>
      <trkpt lat="44.07842" lon="5.63877">
        <ele>1133.611</ele>
        <time>2018-12-22T15:34:26Z</time>
      </trkpt>
      <trkpt lat="44.07851" lon="5.63888">
        <ele>1134.86</ele>
        <time>2018-12-22T15:34:27Z</time>
      </trkpt>
      <trkpt lat="44.07863" lon="5.63895">
        <ele>1135.556</ele>
        <time>2018-12-22T15:34:28Z</time>
      </trkpt>
      <trkpt lat="44.07874" lon="5.63904">
        <ele>1135.853</ele>
        <time>2018-12-22T15:34:29Z</time>
      </trkpt>
      <trkpt lat="44.07884" lon="5.63914">
        <ele>1135.804</ele>
        <time>2018-12-22T15:34:30Z</time>
      </trkpt>
      <trkpt lat="44.07894" lon="5.63924">
        <ele>1135.214</ele>
        <time>2018-12-22T15:34:31Z</time>
      </trkpt>
      <trkpt lat="44.07904" lon="5.63931">
        <ele>1134.308</ele>
        <time>2018-12-22T15:34:32Z</time>
      </trkpt>
      <trkpt lat="44.07915" lon="5.63939">
        <ele>1134.388</ele>
        <time>2018-12-22T15:34:33Z</time>
      </trkpt>
      <trkpt lat="44.07927" lon="5.63947">
        <ele>1133.976</ele>
        <time>2018-12-22T15:34:34Z</time>
      </trkpt>
      <trkpt lat="44.07939" lon="5.63954">
        <ele>1133.95</ele>
        <time>2018-12-22T15:34:35Z</time>
      </trkpt>
      <trkpt lat="44.07951" lon="5.63962">
        <ele>1134.448</ele>
        <time>2018-12-22T15:34:36Z</time>
      </trkpt>
      <trkpt lat="44.07963" lon="5.6397">
        <ele>1136.139</ele>
        <time>2018-12-22T15:34:37Z</time>
      </trkpt>
      <trkpt lat="44.07976" lon="5.63978">
        <ele>1137.379</ele>
        <time>2018-12-22T15:34:38Z</time>
      </trkpt>
      <trkpt lat="44.07988" lon="5.63987">
        <ele>1139.278</ele>
        <time>2018-12-22T15:34:39Z</time>
      </trkpt>
      <trkpt lat="44.07999" lon="5.63995">
        <ele>1140.064</ele>
        <time>2018-12-22T15:34:40Z</time>
      </trkpt>
      <trkpt lat="44.08012" lon="5.64">
        <ele>1141.043</ele>
        <time>2018-12-22T15:34:41Z</time>
      </trkpt>
      <trkpt lat="44.08025" lon="5.64003">
        <ele>1141.664</ele>
        <time>2018-12-22T15:34:42Z</time>
      </trkpt>
      <trkpt lat="44.08037" lon="5.64008">
        <ele>1143.41</ele>
        <time>2018-12-22T15:34:43Z</time>
      </trkpt>
      <trkpt lat="44.08051" lon="5.64012">
        <ele>1144.808</ele>
        <time>2018-12-22T15:34:44Z</time>
      </trkpt>
      <trkpt lat="44.08065" lon="5.64016">
        <ele>1145.747</ele>
        <time>2018-12-22T15:34:45Z</time>
      </trkpt>
      <trkpt lat="44.08082" lon="5.64016">
        <ele>1146.195</ele>
        <time>2018-12-22T15:34:46Z</time>
      </trkpt>
      <trkpt lat="44.08098" lon="5.64016">
        <ele>1146.729</ele>
        <time>2018-12-22T15:34:47Z</time>
      </trkpt>
      <trkpt lat="44.08114" lon="5.64021">
        <ele>1147.797</ele>
        <time>2018-12-22T15:34:48Z</time>
      </trkpt>
      <trkpt lat="44.08128" lon="5.64025">
        <ele>1148.378</ele>
        <time>2018-12-22T15:34:49Z</time>
      </trkpt>
      <trkpt lat="44.08143" lon="5.6403">
        <ele>1149.058</ele>
        <time>2018-12-22T15:34:50Z</time>
      </trkpt>
      <trkpt lat="44.08156" lon="5.64036">
        <ele>1150.247</ele>
        <time>2018-12-22T15:34:51Z</time>
      </trkpt>
      <trkpt lat="44.08168" lon="5.6404">
        <ele>1151.643</ele>
        <time>2018-12-22T15:34:52Z</time>
      </trkpt>
      <trkpt lat="44.08182" lon="5.64044">
        <ele>1152.885</ele>
        <time>2018-12-22T15:34:53Z</time>
      </trkpt>
      <trkpt lat="44.08196" lon="5.64047">
        <ele>1153.889</ele>
        <time>2018-12-22T15:34:54Z</time>
      </trkpt>
      <trkpt lat="44.0821" lon="5.64051">
        <ele>1154.417</ele>
        <time>2018-12-22T15:34:55Z</time>
      </trkpt>
      <trkpt lat="44.08226" lon="5.64052">
        <ele>1155.108</ele>
        <time>2018-12-22T15:34:56Z</time>
      </trkpt>
      <trkpt lat="44.08241" lon="5.64052">
        <ele>1155.761</ele>
        <time>2018-12-22T15:34:57Z</time>
      </trkpt>
      <trkpt lat="44.08256" lon="5.64051">
        <ele>1155.849</ele>
        <time>2018-12-22T15:34:58Z</time>
      </trkpt>
      <trkpt lat="44.0827" lon="5.64048">
        <ele>1156.813</ele>
        <time>2018-12-22T15:34:59Z</time>
      </trkpt>
      <trkpt lat="44.08283" lon="5.64046">
        <ele>1157.531</ele>
        <time>2018-12-22T15:35:00Z</time>
      </trkpt>
      <trkpt lat="44.08296" lon="5.64048">
        <ele>1158.332</ele>
        <time>2018-12-22T15:35:01Z</time>
      </trkpt>
      <trkpt lat="44.08309" lon="5.6405">
        <ele>1159.522</ele>
        <time>2018-12-22T15:35:02Z</time>
      </trkpt>
      <trkpt lat="44.0832" lon="5.64053">
        <ele>1161.111</ele>
        <time>2018-12-22T15:35:03Z</time>
      </trkpt>
      <trkpt lat="44.08332" lon="5.64055">
        <ele>1163.747</ele>
        <time>2018-12-22T15:35:04Z</time>
      </trkpt>
      <trkpt lat="44.08344" lon="5.64056">
        <ele>1165.153</ele>
        <time>2018-12-22T15:35:05Z</time>
      </trkpt>
      <trkpt lat="44.08358" lon="5.64053">
        <ele>1166.304</ele>
        <time>2018-12-22T15:35:06Z</time>
      </trkpt>
      <trkpt lat="44.08371" lon="5.64051">
        <ele>1166.614</ele>
        <time>2018-12-22T15:35:07Z</time>
      </trkpt>
      <trkpt lat="44.08386" lon="5.64052">
        <ele>1166.608</ele>
        <time>2018-12-22T15:35:08Z</time>
      </trkpt>
      <trkpt lat="44.08401" lon="5.64055">
        <ele>1166.178</ele>
        <time>2018-12-22T15:35:09Z</time>
      </trkpt>
      <trkpt lat="44.08415" lon="5.64058">
        <ele>1165.826</ele>
        <time>2018-12-22T15:35:10Z</time>
      </trkpt>
      <trkpt lat="44.0843" lon="5.64061">
        <ele>1165.05</ele>
        <time>2018-12-22T15:35:11Z</time>
      </trkpt>
      <trkpt lat="44.08445" lon="5.64063">
        <ele>1164.778</ele>
        <time>2018-12-22T15:35:12Z</time>
      </trkpt>
      <trkpt lat="44.0846" lon="5.64066">
        <ele>1164.689</ele>
        <time>2018-12-22T15:35:13Z</time>
      </trkpt>
      <trkpt lat="44.08474" lon="5.64068">
        <ele>1164.799</ele>
        <time>2018-12-22T15:35:14Z</time>
      </trkpt>
      <trkpt lat="44.08488" lon="5.64069">
        <ele>1164.898</ele>
        <time>2018-12-22T15:35:15Z</time>
      </trkpt>
      <trkpt lat="44.08502" lon="5.64069">
        <ele>1165.874</ele>
        <time>2018-12-22T15:35:16Z</time>
      </trkpt>
      <trkpt lat="44.08516" lon="5.64069">
        <ele>1166.882</ele>
        <time>2018-12-22T15:35:17Z</time>
      </trkpt>
      <trkpt lat="44.08529" lon="5.64069">
        <ele>1167.843</ele>
        <time>2018-12-22T15:35:18Z</time>
      </trkpt>
      <trkpt lat="44.08541" lon="5.64069">
        <ele>1167.817</ele>
        <time>2018-12-22T15:35:19Z</time>
      </trkpt>
      <trkpt lat="44.08553" lon="5.64071">
        <ele>1167.508</ele>
        <time>2018-12-22T15:35:20Z</time>
      </trkpt>
      <trkpt lat="44.08566" lon="5.64074">
        <ele>1167.511</ele>
        <time>2018-12-22T15:35:21Z</time>
      </trkpt>
      <trkpt lat="44.08578" lon="5.64076">
        <ele>1167.659</ele>
        <time>2018-12-22T15:35:22Z</time>
      </trkpt>
      <trkpt lat="44.0859" lon="5.64078">
        <ele>1167.843</ele>
        <time>2018-12-22T15:35:23Z</time>
      </trkpt>
      <trkpt lat="44.08603" lon="5.64078">
        <ele>1168.561</ele>
        <time>2018-12-22T15:35:24Z</time>
      </trkpt>
      <trkpt lat="44.08615" lon="5.6408">
        <ele>1168.972</ele>
        <time>2018-12-22T15:35:25Z</time>
      </trkpt>
      <trkpt lat="44.08627" lon="5.64082">
        <ele>1169.012</ele>
        <time>2018-12-22T15:35:26Z</time>
      </trkpt>
      <trkpt lat="44.0864" lon="5.64085">
        <ele>1169.271</ele>
        <time>2018-12-22T15:35:27Z</time>
      </trkpt>
      <trkpt lat="44.08653" lon="5.64089">
        <ele>1169.797</ele>
        <time>2018-12-22T15:35:28Z</time>
      </trkpt>
      <trkpt lat="44.08668" lon="5.64094">
        <ele>1169.752</ele>
        <time>2018-12-22T15:35:29Z</time>
      </trkpt>
      <trkpt lat="44.08684" lon="5.641">
        <ele>1169.353</ele>
        <time>2018-12-22T15:35:30Z</time>
      </trkpt>
      <trkpt lat="44.08699" lon="5.64106">
        <ele>1169.608</ele>
        <time>2018-12-22T15:35:31Z</time>
      </trkpt>
      <trkpt lat="44.08712" lon="5.64112">
        <ele>1169.808</ele>
        <time>2018-12-22T15:35:32Z</time>
      </trkpt>
      <trkpt lat="44.08723" lon="5.6412">
        <ele>1170.958</ele>
        <time>2018-12-22T15:35:33Z</time>
      </trkpt>
      <trkpt lat="44.08731" lon="5.64125">
        <ele>1172.516</ele>
        <time>2018-12-22T15:35:34Z</time>
      </trkpt>
      <trkpt lat="44.08735" lon="5.64129">
        <ele>1174.49</ele>
        <time>2018-12-22T15:35:35Z</time>
      </trkpt>
      <trkpt lat="44.08739" lon="5.64133">
        <ele>1176.358</ele>
        <time>2018-12-22T15:35:37Z</time>
      </trkpt>
      <trkpt lat="44.08745" lon="5.64138">
        <ele>1178.089</ele>
        <time>2018-12-22T15:35:45Z</time>
      </trkpt>
      <trkpt lat="44.08752" lon="5.64144">
        <ele>1177.399</ele>
        <time>2018-12-22T15:35:47Z</time>
      </trkpt>
      <trkpt lat="44.08756" lon="5.64149">
        <ele>1176.878</ele>
        <time>2018-12-22T15:35:48Z</time>
      </trkpt>
      <trkpt lat="44.08759" lon="5.64155">
        <ele>1176.574</ele>
        <time>2018-12-22T15:35:49Z</time>
      </trkpt>
      <trkpt lat="44.08763" lon="5.64161">
        <ele>1176.324</ele>
        <time>2018-12-22T15:35:50Z</time>
      </trkpt>
      <trkpt lat="44.08767" lon="5.64168">
        <ele>1175.904</ele>
        <time>2018-12-22T15:35:51Z</time>
      </trkpt>
      <trkpt lat="44.08772" lon="5.64176">
        <ele>1175.414</ele>
        <time>2018-12-22T15:35:52Z</time>
      </trkpt>
      <trkpt lat="44.08776" lon="5.64183">
        <ele>1175.208</ele>
        <time>2018-12-22T15:35:53Z</time>
      </trkpt>
      <trkpt lat="44.08781" lon="5.6419">
        <ele>1175.285</ele>
        <time>2018-12-22T15:35:54Z</time>
      </trkpt>
      <trkpt lat="44.08786" lon="5.64199">
        <ele>1175.153</ele>
        <time>2018-12-22T15:35:55Z</time>
      </trkpt>
      <trkpt lat="44.08792" lon="5.64206">
        <ele>1175.177</ele>
        <time>2018-12-22T15:35:56Z</time>
      </trkpt>
      <trkpt lat="44.088" lon="5.64211">
        <ele>1175.335</ele>
        <time>2018-12-22T15:35:57Z</time>
      </trkpt>
      <trkpt lat="44.08808" lon="5.64216">
        <ele>1175.136</ele>
        <time>2018-12-22T15:35:58Z</time>
      </trkpt>
      <trkpt lat="44.08814" lon="5.6422">
        <ele>1175.036</ele>
        <time>2018-12-22T15:35:59Z</time>
      </trkpt>
      <trkpt lat="44.08822" lon="5.64223">
        <ele>1174.685</ele>
        <time>2018-12-22T15:36:00Z</time>
      </trkpt>
      <trkpt lat="44.0883" lon="5.64227">
        <ele>1174.221</ele>
        <time>2018-12-22T15:36:01Z</time>
      </trkpt>
      <trkpt lat="44.08837" lon="5.6423">
        <ele>1174.257</ele>
        <time>2018-12-22T15:36:02Z</time>
      </trkpt>
      <trkpt lat="44.08845" lon="5.64232">
        <ele>1173.8</ele>
        <time>2018-12-22T15:36:03Z</time>
      </trkpt>
      <trkpt lat="44.08852" lon="5.64234">
        <ele>1173.22</ele>
        <time>2018-12-22T15:36:04Z</time>
      </trkpt>
      <trkpt lat="44.08859" lon="5.64235">
        <ele>1172.708</ele>
        <time>2018-12-22T15:36:05Z</time>
      </trkpt>
      <trkpt lat="44.08866" lon="5.64236">
        <ele>1171.948</ele>
        <time>2018-12-22T15:36:06Z</time>
      </trkpt>
      <trkpt lat="44.08875" lon="5.64239">
        <ele>1171.086</ele>
        <time>2018-12-22T15:36:07Z</time>
      </trkpt>
      <trkpt lat="44.08884" lon="5.64242">
        <ele>1170.54</ele>
        <time>2018-12-22T15:36:08Z</time>
      </trkpt>
      <trkpt lat="44.08895" lon="5.64247">
        <ele>1169.818</ele>
        <time>2018-12-22T15:36:09Z</time>
      </trkpt>
      <trkpt lat="44.08906" lon="5.64251">
        <ele>1168.629</ele>
        <time>2018-12-22T15:36:10Z</time>
      </trkpt>
      <trkpt lat="44.08916" lon="5.64255">
        <ele>1168.469</ele>
        <time>2018-12-22T15:36:11Z</time>
      </trkpt>
      <trkpt lat="44.08927" lon="5.64259">
        <ele>1167.828</ele>
        <time>2018-12-22T15:36:12Z</time>
      </trkpt>
      <trkpt lat="44.08937" lon="5.64264">
        <ele>1167.564</ele>
        <time>2018-12-22T15:36:13Z</time>
      </trkpt>
      <trkpt lat="44.08946" lon="5.64268">
        <ele>1167.166</ele>
        <time>2018-12-22T15:36:14Z</time>
      </trkpt>
      <trkpt lat="44.08957" lon="5.64272">
        <ele>1166.429</ele>
        <time>2018-12-22T15:36:15Z</time>
      </trkpt>
      <trkpt lat="44.08968" lon="5.64277">
        <ele>1165.221</ele>
        <time>2018-12-22T15:36:16Z</time>
      </trkpt>
      <trkpt lat="44.08979" lon="5.64282">
        <ele>1163.408</ele>
        <time>2018-12-22T15:36:17Z</time>
      </trkpt>
      <trkpt lat="44.08989" lon="5.64286">
        <ele>1161.849</ele>
        <time>2018-12-22T15:36:18Z</time>
      </trkpt>
      <trkpt lat="44.08999" lon="5.6429">
        <ele>1160.397</ele>
        <time>2018-12-22T15:36:19Z</time>
      </trkpt>
      <trkpt lat="44.09009" lon="5.64295">
        <ele>1159.221</ele>
        <time>2018-12-22T15:36:20Z</time>
      </trkpt>
      <trkpt lat="44.09017" lon="5.64298">
        <ele>1158.849</ele>
        <time>2018-12-22T15:36:21Z</time>
      </trkpt>
      <trkpt lat="44.09026" lon="5.64302">
        <ele>1158.51</ele>
        <time>2018-12-22T15:36:22Z</time>
      </trkpt>
      <trkpt lat="44.09035" lon="5.64306">
        <ele>1158.25</ele>
        <time>2018-12-22T15:36:23Z</time>
      </trkpt>
      <trkpt lat="44.09044" lon="5.6431">
        <ele>1157.719</ele>
        <time>2018-12-22T15:36:24Z</time>
      </trkpt>
      <trkpt lat="44.09052" lon="5.64315">
        <ele>1156.715</ele>
        <time>2018-12-22T15:36:25Z</time>
      </trkpt>
      <trkpt lat="44.09058" lon="5.64322">
        <ele>1156.273</ele>
        <time>2018-12-22T15:36:26Z</time>
      </trkpt>
      <trkpt lat="44.09062" lon="5.64327">
        <ele>1155.885</ele>
        <time>2018-12-22T15:36:27Z</time>
      </trkpt>
      <trkpt lat="44.09067" lon="5.64332">
        <ele>1155.813</ele>
        <time>2018-12-22T15:36:28Z</time>
      </trkpt>
      <trkpt lat="44.09071" lon="5.64336">
        <ele>1155.808</ele>
        <time>2018-12-22T15:36:29Z</time>
      </trkpt>
      <trkpt lat="44.0908" lon="5.64344">
        <ele>1155.66</ele>
        <time>2018-12-22T15:36:31Z</time>
      </trkpt>
      <trkpt lat="44.09088" lon="5.64341">
        <ele>1155.448</ele>
        <time>2018-12-22T15:36:32Z</time>
      </trkpt>
      <trkpt lat="44.09096" lon="5.64338">
        <ele>1154.882</ele>
        <time>2018-12-22T15:36:33Z</time>
      </trkpt>
      <trkpt lat="44.09104" lon="5.64335">
        <ele>1154.38</ele>
        <time>2018-12-22T15:36:34Z</time>
      </trkpt>
      <trkpt lat="44.09111" lon="5.64332">
        <ele>1154.321</ele>
        <time>2018-12-22T15:36:35Z</time>
      </trkpt>
      <trkpt lat="44.0912" lon="5.64329">
        <ele>1154.581</ele>
        <time>2018-12-22T15:36:36Z</time>
      </trkpt>
      <trkpt lat="44.0913" lon="5.64326">
        <ele>1155.27</ele>
        <time>2018-12-22T15:36:37Z</time>
      </trkpt>
      <trkpt lat="44.0914" lon="5.64324">
        <ele>1155.236</ele>
        <time>2018-12-22T15:36:38Z</time>
      </trkpt>
      <trkpt lat="44.09149" lon="5.64323">
        <ele>1155.243</ele>
        <time>2018-12-22T15:36:39Z</time>
      </trkpt>
      <trkpt lat="44.09158" lon="5.64324">
        <ele>1155.164</ele>
        <time>2018-12-22T15:36:40Z</time>
      </trkpt>
      <trkpt lat="44.09167" lon="5.64326">
        <ele>1154.81</ele>
        <time>2018-12-22T15:36:41Z</time>
      </trkpt>
      <trkpt lat="44.09176" lon="5.64331">
        <ele>1154.308</ele>
        <time>2018-12-22T15:36:42Z</time>
      </trkpt>
      <trkpt lat="44.09186" lon="5.64337">
        <ele>1153.737</ele>
        <time>2018-12-22T15:36:43Z</time>
      </trkpt>
      <trkpt lat="44.09197" lon="5.64343">
        <ele>1152.875</ele>
        <time>2018-12-22T15:36:44Z</time>
      </trkpt>
      <trkpt lat="44.09207" lon="5.64351">
        <ele>1151.429</ele>
        <time>2018-12-22T15:36:45Z</time>
      </trkpt>
      <trkpt lat="44.09218" lon="5.64359">
        <ele>1151.437</ele>
        <time>2018-12-22T15:36:46Z</time>
      </trkpt>
      <trkpt lat="44.09228" lon="5.64365">
        <ele>1150.418</ele>
        <time>2018-12-22T15:36:47Z</time>
      </trkpt>
      <trkpt lat="44.09239" lon="5.6437">
        <ele>1149.788</ele>
        <time>2018-12-22T15:36:48Z</time>
      </trkpt>
      <trkpt lat="44.09251" lon="5.64374">
        <ele>1148.017</ele>
        <time>2018-12-22T15:36:49Z</time>
      </trkpt>
      <trkpt lat="44.09263" lon="5.64378">
        <ele>1146.953</ele>
        <time>2018-12-22T15:36:50Z</time>
      </trkpt>
      <trkpt lat="44.09275" lon="5.64382">
        <ele>1146.949</ele>
        <time>2018-12-22T15:36:51Z</time>
      </trkpt>
      <trkpt lat="44.09287" lon="5.64386">
        <ele>1146.402</ele>
        <time>2018-12-22T15:36:52Z</time>
      </trkpt>
      <trkpt lat="44.09301" lon="5.6439">
        <ele>1146.022</ele>
        <time>2018-12-22T15:36:53Z</time>
      </trkpt>
      <trkpt lat="44.09314" lon="5.64393">
        <ele>1145.808</ele>
        <time>2018-12-22T15:36:54Z</time>
      </trkpt>
      <trkpt lat="44.09328" lon="5.64397">
        <ele>1145.847</ele>
        <time>2018-12-22T15:36:55Z</time>
      </trkpt>
      <trkpt lat="44.09342" lon="5.64402">
        <ele>1146.615</ele>
        <time>2018-12-22T15:36:56Z</time>
      </trkpt>
      <trkpt lat="44.09356" lon="5.64406">
        <ele>1147.329</ele>
        <time>2018-12-22T15:36:57Z</time>
      </trkpt>
      <trkpt lat="44.09369" lon="5.64409">
        <ele>1148.717</ele>
        <time>2018-12-22T15:36:58Z</time>
      </trkpt>
      <trkpt lat="44.09381" lon="5.64413">
        <ele>1150.458</ele>
        <time>2018-12-22T15:36:59Z</time>
      </trkpt>
      <trkpt lat="44.09393" lon="5.64416">
        <ele>1152.118</ele>
        <time>2018-12-22T15:37:00Z</time>
      </trkpt>
      <trkpt lat="44.09403" lon="5.64423">
        <ele>1154.837</ele>
        <time>2018-12-22T15:37:01Z</time>
      </trkpt>
      <trkpt lat="44.09412" lon="5.64432">
        <ele>1156.343</ele>
        <time>2018-12-22T15:37:02Z</time>
      </trkpt>
      <trkpt lat="44.09421" lon="5.6444">
        <ele>1157.074</ele>
        <time>2018-12-22T15:37:03Z</time>
      </trkpt>
      <trkpt lat="44.0943" lon="5.64448">
        <ele>1157.156</ele>
        <time>2018-12-22T15:37:04Z</time>
      </trkpt>
      <trkpt lat="44.09438" lon="5.64456">
        <ele>1157.121</ele>
        <time>2018-12-22T15:37:05Z</time>
      </trkpt>
      <trkpt lat="44.09446" lon="5.64465">
        <ele>1156.308</ele>
        <time>2018-12-22T15:37:06Z</time>
      </trkpt>
      <trkpt lat="44.09455" lon="5.64471">
        <ele>1154.97</ele>
        <time>2018-12-22T15:37:07Z</time>
      </trkpt>
      <trkpt lat="44.09463" lon="5.64476">
        <ele>1153.618</ele>
        <time>2018-12-22T15:37:08Z</time>
      </trkpt>
      <trkpt lat="44.0947" lon="5.64481">
        <ele>1152.582</ele>
        <time>2018-12-22T15:37:09Z</time>
      </trkpt>
      <trkpt lat="44.09477" lon="5.64488">
        <ele>1152.56</ele>
        <time>2018-12-22T15:37:10Z</time>
      </trkpt>
      <trkpt lat="44.09484" lon="5.64496">
        <ele>1152.691</ele>
        <time>2018-12-22T15:37:11Z</time>
      </trkpt>
      <trkpt lat="44.0949" lon="5.64504">
        <ele>1153.131</ele>
        <time>2018-12-22T15:37:12Z</time>
      </trkpt>
      <trkpt lat="44.09497" lon="5.64511">
        <ele>1153.99</ele>
        <time>2018-12-22T15:37:13Z</time>
      </trkpt>
      <trkpt lat="44.09504" lon="5.64518">
        <ele>1155.576</ele>
        <time>2018-12-22T15:37:14Z</time>
      </trkpt>
      <trkpt lat="44.09512" lon="5.64525">
        <ele>1155.597</ele>
        <time>2018-12-22T15:37:15Z</time>
      </trkpt>
      <trkpt lat="44.0952" lon="5.64532">
        <ele>1155.423</ele>
        <time>2018-12-22T15:37:16Z</time>
      </trkpt>
      <trkpt lat="44.09524" lon="5.64542">
        <ele>1154.925</ele>
        <time>2018-12-22T15:37:17Z</time>
      </trkpt>
      <trkpt lat="44.09528" lon="5.64549">
        <ele>1154.608</ele>
        <time>2018-12-22T15:37:18Z</time>
      </trkpt>
      <trkpt lat="44.09534" lon="5.64555">
        <ele>1154.612</ele>
        <time>2018-12-22T15:37:19Z</time>
      </trkpt>
      <trkpt lat="44.09539" lon="5.64562">
        <ele>1154.79</ele>
        <time>2018-12-22T15:37:20Z</time>
      </trkpt>
      <trkpt lat="44.09545" lon="5.64567">
        <ele>1155.064</ele>
        <time>2018-12-22T15:37:21Z</time>
      </trkpt>
      <trkpt lat="44.09552" lon="5.64572">
        <ele>1155.882</ele>
        <time>2018-12-22T15:37:22Z</time>
      </trkpt>
      <trkpt lat="44.09557" lon="5.64578">
        <ele>1156.463</ele>
        <time>2018-12-22T15:37:23Z</time>
      </trkpt>
      <trkpt lat="44.09559" lon="5.64584">
        <ele>1156.763</ele>
        <time>2018-12-22T15:37:24Z</time>
      </trkpt>
      <trkpt lat="44.09562" lon="5.6459">
        <ele>1157.072</ele>
        <time>2018-12-22T15:37:25Z</time>
      </trkpt>
      <trkpt lat="44.09566" lon="5.64592">
        <ele>1157.088</ele>
        <time>2018-12-22T15:37:26Z</time>
      </trkpt>
      <trkpt lat="44.09568" lon="5.64598">
        <ele>1157.167</ele>
        <time>2018-12-22T15:37:27Z</time>
      </trkpt>
      <trkpt lat="44.09576" lon="5.64595">
        <ele>1156.381</ele>
        <time>2018-12-22T15:37:29Z</time>
      </trkpt>
      <trkpt lat="44.09583" lon="5.64595">
        <ele>1156.219</ele>
        <time>2018-12-22T15:37:30Z</time>
      </trkpt>
      <trkpt lat="44.09591" lon="5.64595">
        <ele>1156.208</ele>
        <time>2018-12-22T15:37:31Z</time>
      </trkpt>
      <trkpt lat="44.09599" lon="5.64592">
        <ele>1156.219</ele>
        <time>2018-12-22T15:37:32Z</time>
      </trkpt>
      <trkpt lat="44.09606" lon="5.64587">
        <ele>1156.737</ele>
        <time>2018-12-22T15:37:33Z</time>
      </trkpt>
      <trkpt lat="44.09612" lon="5.64581">
        <ele>1157.671</ele>
        <time>2018-12-22T15:37:34Z</time>
      </trkpt>
      <trkpt lat="44.0962" lon="5.64572">
        <ele>1158.029</ele>
        <time>2018-12-22T15:37:35Z</time>
      </trkpt>
      <trkpt lat="44.09629" lon="5.64566">
        <ele>1158.77</ele>
        <time>2018-12-22T15:37:36Z</time>
      </trkpt>
      <trkpt lat="44.09637" lon="5.64558">
        <ele>1159.47</ele>
        <time>2018-12-22T15:37:37Z</time>
      </trkpt>
      <trkpt lat="44.09652" lon="5.6455">
        <ele>1160.129</ele>
        <time>2018-12-22T15:37:38Z</time>
      </trkpt>
      <trkpt lat="44.09663" lon="5.64544">
        <ele>1160.755</ele>
        <time>2018-12-22T15:37:39Z</time>
      </trkpt>
      <trkpt lat="44.09675" lon="5.64539">
        <ele>1162.732</ele>
        <time>2018-12-22T15:37:40Z</time>
      </trkpt>
      <trkpt lat="44.09688" lon="5.64534">
        <ele>1163.392</ele>
        <time>2018-12-22T15:37:41Z</time>
      </trkpt>
      <trkpt lat="44.09703" lon="5.6453">
        <ele>1164.011</ele>
        <time>2018-12-22T15:37:42Z</time>
      </trkpt>
      <trkpt lat="44.09719" lon="5.64523">
        <ele>1164.508</ele>
        <time>2018-12-22T15:37:43Z</time>
      </trkpt>
      <trkpt lat="44.09735" lon="5.64517">
        <ele>1165.536</ele>
        <time>2018-12-22T15:37:44Z</time>
      </trkpt>
      <trkpt lat="44.09751" lon="5.6451">
        <ele>1166.084</ele>
        <time>2018-12-22T15:37:45Z</time>
      </trkpt>
      <trkpt lat="44.09765" lon="5.64504">
        <ele>1166.938</ele>
        <time>2018-12-22T15:37:46Z</time>
      </trkpt>
      <trkpt lat="44.0978" lon="5.64498">
        <ele>1168.676</ele>
        <time>2018-12-22T15:37:47Z</time>
      </trkpt>
      <trkpt lat="44.09794" lon="5.64491">
        <ele>1170.737</ele>
        <time>2018-12-22T15:37:48Z</time>
      </trkpt>
      <trkpt lat="44.09805" lon="5.64481">
        <ele>1172.667</ele>
        <time>2018-12-22T15:37:49Z</time>
      </trkpt>
      <trkpt lat="44.09815" lon="5.64471">
        <ele>1177.026</ele>
        <time>2018-12-22T15:37:50Z</time>
      </trkpt>
      <trkpt lat="44.09823" lon="5.64462">
        <ele>1178.372</ele>
        <time>2018-12-22T15:37:51Z</time>
      </trkpt>
      <trkpt lat="44.09832" lon="5.64452">
        <ele>1179.194</ele>
        <time>2018-12-22T15:37:52Z</time>
      </trkpt>
      <trkpt lat="44.09841" lon="5.64445">
        <ele>1180.257</ele>
        <time>2018-12-22T15:37:53Z</time>
      </trkpt>
      <trkpt lat="44.09857" lon="5.64445">
        <ele>1180.822</ele>
        <time>2018-12-22T15:37:54Z</time>
      </trkpt>
      <trkpt lat="44.09873" lon="5.64443">
        <ele>1181.408</ele>
        <time>2018-12-22T15:37:55Z</time>
      </trkpt>
      <trkpt lat="44.09889" lon="5.64442">
        <ele>1182.342</ele>
        <time>2018-12-22T15:37:56Z</time>
      </trkpt>
      <trkpt lat="44.09906" lon="5.64443">
        <ele>1182.46</ele>
        <time>2018-12-22T15:37:57Z</time>
      </trkpt>
      <trkpt lat="44.09922" lon="5.64444">
        <ele>1182.544</ele>
        <time>2018-12-22T15:37:58Z</time>
      </trkpt>
      <trkpt lat="44.09937" lon="5.64442">
        <ele>1182.482</ele>
        <time>2018-12-22T15:37:59Z</time>
      </trkpt>
      <trkpt lat="44.09953" lon="5.64438">
        <ele>1182.463</ele>
        <time>2018-12-22T15:38:00Z</time>
      </trkpt>
      <trkpt lat="44.0997" lon="5.6443">
        <ele>1182.253</ele>
        <time>2018-12-22T15:38:01Z</time>
      </trkpt>
      <trkpt lat="44.09986" lon="5.64423">
        <ele>1182.282</ele>
        <time>2018-12-22T15:38:02Z</time>
      </trkpt>
      <trkpt lat="44.10002" lon="5.64416">
        <ele>1182.438</ele>
        <time>2018-12-22T15:38:03Z</time>
      </trkpt>
      <trkpt lat="44.10019" lon="5.64411">
        <ele>1183.634</ele>
        <time>2018-12-22T15:38:04Z</time>
      </trkpt>
      <trkpt lat="44.10035" lon="5.64406">
        <ele>1184.755</ele>
        <time>2018-12-22T15:38:05Z</time>
      </trkpt>
      <trkpt lat="44.10048" lon="5.64402">
        <ele>1185.41</ele>
        <time>2018-12-22T15:38:06Z</time>
      </trkpt>
      <trkpt lat="44.10059" lon="5.64397">
        <ele>1185.708</ele>
        <time>2018-12-22T15:38:07Z</time>
      </trkpt>
      <trkpt lat="44.10071" lon="5.64391">
        <ele>1185.736</ele>
        <time>2018-12-22T15:38:08Z</time>
      </trkpt>
      <trkpt lat="44.10084" lon="5.64384">
        <ele>1185.754</ele>
        <time>2018-12-22T15:38:09Z</time>
      </trkpt>
      <trkpt lat="44.10097" lon="5.64374">
        <ele>1185.998</ele>
        <time>2018-12-22T15:38:10Z</time>
      </trkpt>
      <trkpt lat="44.10107" lon="5.64366">
        <ele>1186.186</ele>
        <time>2018-12-22T15:38:11Z</time>
      </trkpt>
      <trkpt lat="44.10118" lon="5.64355">
        <ele>1186.127</ele>
        <time>2018-12-22T15:38:12Z</time>
      </trkpt>
      <trkpt lat="44.10128" lon="5.64344">
        <ele>1186.147</ele>
        <time>2018-12-22T15:38:13Z</time>
      </trkpt>
      <trkpt lat="44.10138" lon="5.64332">
        <ele>1186.046</ele>
        <time>2018-12-22T15:38:14Z</time>
      </trkpt>
      <trkpt lat="44.10148" lon="5.64321">
        <ele>1185.562</ele>
        <time>2018-12-22T15:38:15Z</time>
      </trkpt>
      <trkpt lat="44.10158" lon="5.64308">
        <ele>1183.826</ele>
        <time>2018-12-22T15:38:16Z</time>
      </trkpt>
      <trkpt lat="44.10168" lon="5.64295">
        <ele>1182.747</ele>
        <time>2018-12-22T15:38:17Z</time>
      </trkpt>
      <trkpt lat="44.10178" lon="5.64281">
        <ele>1178.911</ele>
        <time>2018-12-22T15:38:18Z</time>
      </trkpt>
      <trkpt lat="44.10188" lon="5.64267">
        <ele>1176.908</ele>
        <time>2018-12-22T15:38:19Z</time>
      </trkpt>
      <trkpt lat="44.10198" lon="5.64253">
        <ele>1175.855</ele>
        <time>2018-12-22T15:38:20Z</time>
      </trkpt>
      <trkpt lat="44.10209" lon="5.64242">
        <ele>1174.483</ele>
        <time>2018-12-22T15:38:21Z</time>
      </trkpt>
      <trkpt lat="44.10219" lon="5.64232">
        <ele>1173.827</ele>
        <time>2018-12-22T15:38:22Z</time>
      </trkpt>
      <trkpt lat="44.10231" lon="5.64225">
        <ele>1173.825</ele>
        <time>2018-12-22T15:38:23Z</time>
      </trkpt>
      <trkpt lat="44.10242" lon="5.64218">
        <ele>1173.866</ele>
        <time>2018-12-22T15:38:24Z</time>
      </trkpt>
      <trkpt lat="44.10255" lon="5.64212">
        <ele>1173.856</ele>
        <time>2018-12-22T15:38:25Z</time>
      </trkpt>
      <trkpt lat="44.10267" lon="5.64205">
        <ele>1173.875</ele>
        <time>2018-12-22T15:38:26Z</time>
      </trkpt>
      <trkpt lat="44.1028" lon="5.64196">
        <ele>1174.351</ele>
        <time>2018-12-22T15:38:27Z</time>
      </trkpt>
      <trkpt lat="44.10292" lon="5.64186">
        <ele>1174.396</ele>
        <time>2018-12-22T15:38:28Z</time>
      </trkpt>
      <trkpt lat="44.10304" lon="5.64175">
        <ele>1173.931</ele>
        <time>2018-12-22T15:38:29Z</time>
      </trkpt>
      <trkpt lat="44.10316" lon="5.64165">
        <ele>1173.324</ele>
        <time>2018-12-22T15:38:30Z</time>
      </trkpt>
      <trkpt lat="44.10329" lon="5.64157">
        <ele>1172.208</ele>
        <time>2018-12-22T15:38:31Z</time>
      </trkpt>
      <trkpt lat="44.10342" lon="5.6415">
        <ele>1172.332</ele>
        <time>2018-12-22T15:38:32Z</time>
      </trkpt>
      <trkpt lat="44.10354" lon="5.64142">
        <ele>1173.16</ele>
        <time>2018-12-22T15:38:33Z</time>
      </trkpt>
      <trkpt lat="44.10365" lon="5.64133">
        <ele>1174.374</ele>
        <time>2018-12-22T15:38:34Z</time>
      </trkpt>
      <trkpt lat="44.10373" lon="5.64123">
        <ele>1176.292</ele>
        <time>2018-12-22T15:38:35Z</time>
      </trkpt>
      <trkpt lat="44.10378" lon="5.6411">
        <ele>1177.163</ele>
        <time>2018-12-22T15:38:36Z</time>
      </trkpt>
      <trkpt lat="44.10383" lon="5.64098">
        <ele>1177.333</ele>
        <time>2018-12-22T15:38:37Z</time>
      </trkpt>
      <trkpt lat="44.10389" lon="5.64086">
        <ele>1177.342</ele>
        <time>2018-12-22T15:38:38Z</time>
      </trkpt>
      <trkpt lat="44.10395" lon="5.64074">
        <ele>1177.528</ele>
        <time>2018-12-22T15:38:39Z</time>
      </trkpt>
      <trkpt lat="44.10402" lon="5.64065">
        <ele>1177.517</ele>
        <time>2018-12-22T15:38:40Z</time>
      </trkpt>
      <trkpt lat="44.10409" lon="5.64056">
        <ele>1177.587</ele>
        <time>2018-12-22T15:38:41Z</time>
      </trkpt>
      <trkpt lat="44.10419" lon="5.6405">
        <ele>1177.615</ele>
        <time>2018-12-22T15:38:42Z</time>
      </trkpt>
      <trkpt lat="44.10429" lon="5.64046">
        <ele>1178.808</ele>
        <time>2018-12-22T15:38:43Z</time>
      </trkpt>
      <trkpt lat="44.10437" lon="5.64039">
        <ele>1179.854</ele>
        <time>2018-12-22T15:38:44Z</time>
      </trkpt>
      <trkpt lat="44.10445" lon="5.64034">
        <ele>1182.152</ele>
        <time>2018-12-22T15:38:45Z</time>
      </trkpt>
      <trkpt lat="44.1045" lon="5.64029">
        <ele>1182.146</ele>
        <time>2018-12-22T15:38:46Z</time>
      </trkpt>
      <trkpt lat="44.10454" lon="5.64025">
        <ele>1183.144</ele>
        <time>2018-12-22T15:38:47Z</time>
      </trkpt>
      <trkpt lat="44.10458" lon="5.64017">
        <ele>1185.355</ele>
        <time>2018-12-22T15:38:49Z</time>
      </trkpt>
      <trkpt lat="44.10463" lon="5.64018">
        <ele>1188.985</ele>
        <time>2018-12-22T15:39:18Z</time>
      </trkpt>
      <trkpt lat="44.10467" lon="5.6402">
        <ele>1188.914</ele>
        <time>2018-12-22T15:39:34Z</time>
      </trkpt>
      <trkpt lat="44.10467" lon="5.64027">
        <ele>1189.29</ele>
        <time>2018-12-22T15:39:47Z</time>
      </trkpt>
      <trkpt lat="44.10465" lon="5.64033">
        <ele>1188.879</ele>
        <time>2018-12-22T15:40:00Z</time>
      </trkpt>
      <trkpt lat="44.10462" lon="5.64038">
        <ele>1188.005</ele>
        <time>2018-12-22T15:40:17Z</time>
      </trkpt>
      <trkpt lat="44.10457" lon="5.64035">
        <ele>1188.825</ele>
        <time>2018-12-22T15:40:29Z</time>
      </trkpt>
      <trkpt lat="44.10455" lon="5.64028">
        <ele>1188.208</ele>
        <time>2018-12-22T15:40:43Z</time>
      </trkpt>
      <trkpt lat="44.10451" lon="5.64025">
        <ele>1189.54</ele>
        <time>2018-12-22T15:41:06Z</time>
      </trkpt>
      <trkpt lat="44.10448" lon="5.64021">
        <ele>1190.778</ele>
        <time>2018-12-22T15:41:27Z</time>
      </trkpt>
      <trkpt lat="44.10444" lon="5.64017">
        <ele>1187.772</ele>
        <time>2018-12-22T15:41:52Z</time>
      </trkpt>
      <trkpt lat="44.10449" lon="5.64018">
        <ele>1188.85</ele>
        <time>2018-12-22T15:42:04Z</time>
      </trkpt>
      <trkpt lat="44.10454" lon="5.6402">
        <ele>1188.541</ele>
        <time>2018-12-22T15:42:14Z</time>
      </trkpt>
      <trkpt lat="44.10459" lon="5.64019">
        <ele>1188.161</ele>
        <time>2018-12-22T15:42:26Z</time>
      </trkpt>
      <trkpt lat="44.10463" lon="5.64015">
        <ele>1188.63</ele>
        <time>2018-12-22T15:42:44Z</time>
      </trkpt>
      <trkpt lat="44.10459" lon="5.64011">
        <ele>1188.186</ele>
        <time>2018-12-22T15:43:20Z</time>
      </trkpt>
      <trkpt lat="44.10463" lon="5.64016">
        <ele>1187.959</ele>
        <time>2018-12-22T15:43:33Z</time>
      </trkpt>
      <trkpt lat="44.10469" lon="5.64008">
        <ele>1186.403</ele>
        <time>2018-12-22T15:43:48Z</time>
      </trkpt>
      <trkpt lat="44.10473" lon="5.64001">
        <ele>1186.223</ele>
        <time>2018-12-22T15:43:49Z</time>
      </trkpt>
      <trkpt lat="44.10477" lon="5.63992">
        <ele>1185.908</ele>
        <time>2018-12-22T15:43:50Z</time>
      </trkpt>
      <trkpt lat="44.10482" lon="5.63984">
        <ele>1185.968</ele>
        <time>2018-12-22T15:43:51Z</time>
      </trkpt>
      <trkpt lat="44.10487" lon="5.63974">
        <ele>1185.946</ele>
        <time>2018-12-22T15:43:52Z</time>
      </trkpt>
      <trkpt lat="44.10494" lon="5.63965">
        <ele>1185.41</ele>
        <time>2018-12-22T15:43:53Z</time>
      </trkpt>
      <trkpt lat="44.10502" lon="5.63957">
        <ele>1184.278</ele>
        <time>2018-12-22T15:43:54Z</time>
      </trkpt>
      <trkpt lat="44.10511" lon="5.63951">
        <ele>1183.449</ele>
        <time>2018-12-22T15:43:55Z</time>
      </trkpt>
      <trkpt lat="44.10521" lon="5.63948">
        <ele>1181.949</ele>
        <time>2018-12-22T15:43:56Z</time>
      </trkpt>
      <trkpt lat="44.10531" lon="5.63948">
        <ele>1181.888</ele>
        <time>2018-12-22T15:43:57Z</time>
      </trkpt>
      <trkpt lat="44.1054" lon="5.6395">
        <ele>1181.834</ele>
        <time>2018-12-22T15:43:58Z</time>
      </trkpt>
      <trkpt lat="44.10548" lon="5.63953">
        <ele>1183.463</ele>
        <time>2018-12-22T15:43:59Z</time>
      </trkpt>
      <trkpt lat="44.10556" lon="5.63956">
        <ele>1187.144</ele>
        <time>2018-12-22T15:44:00Z</time>
      </trkpt>
      <trkpt lat="44.10563" lon="5.63961">
        <ele>1189.118</ele>
        <time>2018-12-22T15:44:01Z</time>
      </trkpt>
      <trkpt lat="44.10571" lon="5.63965">
        <ele>1190.508</ele>
        <time>2018-12-22T15:44:02Z</time>
      </trkpt>
      <trkpt lat="44.10579" lon="5.63967">
        <ele>1191.869</ele>
        <time>2018-12-22T15:44:03Z</time>
      </trkpt>
      <trkpt lat="44.10587" lon="5.63968">
        <ele>1192.947</ele>
        <time>2018-12-22T15:44:04Z</time>
      </trkpt>
      <trkpt lat="44.10595" lon="5.6397">
        <ele>1193.591</ele>
        <time>2018-12-22T15:44:05Z</time>
      </trkpt>
      <trkpt lat="44.10603" lon="5.6397">
        <ele>1193.789</ele>
        <time>2018-12-22T15:44:06Z</time>
      </trkpt>
      <trkpt lat="44.1061" lon="5.63969">
        <ele>1194.02</ele>
        <time>2018-12-22T15:44:07Z</time>
      </trkpt>
      <trkpt lat="44.10618" lon="5.63968">
        <ele>1194.09</ele>
        <time>2018-12-22T15:44:08Z</time>
      </trkpt>
      <trkpt lat="44.10624" lon="5.63967">
        <ele>1193.979</ele>
        <time>2018-12-22T15:44:09Z</time>
      </trkpt>
      <trkpt lat="44.1063" lon="5.63966">
        <ele>1193.925</ele>
        <time>2018-12-22T15:44:10Z</time>
      </trkpt>
      <trkpt lat="44.10638" lon="5.63965">
        <ele>1195.144</ele>
        <time>2018-12-22T15:44:12Z</time>
      </trkpt>
      <trkpt lat="44.10643" lon="5.63961">
        <ele>1196.605</ele>
        <time>2018-12-22T15:44:14Z</time>
      </trkpt>
      <trkpt lat="44.10644" lon="5.63947">
        <ele>1197.215</ele>
        <time>2018-12-22T15:44:16Z</time>
      </trkpt>
      <trkpt lat="44.10645" lon="5.63937">
        <ele>1197.108</ele>
        <time>2018-12-22T15:44:17Z</time>
      </trkpt>
      <trkpt lat="44.10646" lon="5.63926">
        <ele>1196.867</ele>
        <time>2018-12-22T15:44:18Z</time>
      </trkpt>
      <trkpt lat="44.10647" lon="5.63914">
        <ele>1196.135</ele>
        <time>2018-12-22T15:44:19Z</time>
      </trkpt>
      <trkpt lat="44.10647" lon="5.63901">
        <ele>1195.629</ele>
        <time>2018-12-22T15:44:20Z</time>
      </trkpt>
      <trkpt lat="44.10647" lon="5.63889">
        <ele>1195.427</ele>
        <time>2018-12-22T15:44:21Z</time>
      </trkpt>
      <trkpt lat="44.10648" lon="5.63877">
        <ele>1195.498</ele>
        <time>2018-12-22T15:44:22Z</time>
      </trkpt>
      <trkpt lat="44.1065" lon="5.63866">
        <ele>1195.758</ele>
        <time>2018-12-22T15:44:23Z</time>
      </trkpt>
      <trkpt lat="44.10651" lon="5.63856">
        <ele>1197.017</ele>
        <time>2018-12-22T15:44:24Z</time>
      </trkpt>
      <trkpt lat="44.10653" lon="5.63845">
        <ele>1197.353</ele>
        <time>2018-12-22T15:44:25Z</time>
      </trkpt>
      <trkpt lat="44.10654" lon="5.63834">
        <ele>1197.359</ele>
        <time>2018-12-22T15:44:26Z</time>
      </trkpt>
      <trkpt lat="44.10656" lon="5.63821">
        <ele>1197.503</ele>
        <time>2018-12-22T15:44:27Z</time>
      </trkpt>
      <trkpt lat="44.10658" lon="5.63807">
        <ele>1197.323</ele>
        <time>2018-12-22T15:44:28Z</time>
      </trkpt>
      <trkpt lat="44.10661" lon="5.63793">
        <ele>1196.808</ele>
        <time>2018-12-22T15:44:29Z</time>
      </trkpt>
      <trkpt lat="44.10666" lon="5.6378">
        <ele>1195.838</ele>
        <time>2018-12-22T15:44:30Z</time>
      </trkpt>
      <trkpt lat="44.10672" lon="5.63771">
        <ele>1195.156</ele>
        <time>2018-12-22T15:44:31Z</time>
      </trkpt>
      <trkpt lat="44.1068" lon="5.63767">
        <ele>1194.74</ele>
        <time>2018-12-22T15:44:32Z</time>
      </trkpt>
      <trkpt lat="44.1069" lon="5.63765">
        <ele>1193.488</ele>
        <time>2018-12-22T15:44:33Z</time>
      </trkpt>
      <trkpt lat="44.10701" lon="5.63768">
        <ele>1192.769</ele>
        <time>2018-12-22T15:44:34Z</time>
      </trkpt>
      <trkpt lat="44.10712" lon="5.63775">
        <ele>1192.799</ele>
        <time>2018-12-22T15:44:35Z</time>
      </trkpt>
      <trkpt lat="44.10722" lon="5.63781">
        <ele>1191.268</ele>
        <time>2018-12-22T15:44:36Z</time>
      </trkpt>
      <trkpt lat="44.10733" lon="5.63787">
        <ele>1190.234</ele>
        <time>2018-12-22T15:44:37Z</time>
      </trkpt>
      <trkpt lat="44.10744" lon="5.63792">
        <ele>1189.453</ele>
        <time>2018-12-22T15:44:38Z</time>
      </trkpt>
      <trkpt lat="44.10755" lon="5.63799">
        <ele>1188.104</ele>
        <time>2018-12-22T15:44:39Z</time>
      </trkpt>
      <trkpt lat="44.10765" lon="5.63805">
        <ele>1187.014</ele>
        <time>2018-12-22T15:44:40Z</time>
      </trkpt>
      <trkpt lat="44.10776" lon="5.63812">
        <ele>1186.708</ele>
        <time>2018-12-22T15:44:41Z</time>
      </trkpt>
      <trkpt lat="44.10785" lon="5.63819">
        <ele>1186.778</ele>
        <time>2018-12-22T15:44:42Z</time>
      </trkpt>
      <trkpt lat="44.10794" lon="5.63826">
        <ele>1186.886</ele>
        <time>2018-12-22T15:44:43Z</time>
      </trkpt>
      <trkpt lat="44.10802" lon="5.63832">
        <ele>1187.24</ele>
        <time>2018-12-22T15:44:44Z</time>
      </trkpt>
      <trkpt lat="44.1081" lon="5.63839">
        <ele>1187.768</ele>
        <time>2018-12-22T15:44:45Z</time>
      </trkpt>
      <trkpt lat="44.10816" lon="5.63845">
        <ele>1187.919</ele>
        <time>2018-12-22T15:44:46Z</time>
      </trkpt>
      <trkpt lat="44.10824" lon="5.63846">
        <ele>1188.019</ele>
        <time>2018-12-22T15:44:47Z</time>
      </trkpt>
      <trkpt lat="44.10831" lon="5.63844">
        <ele>1188.168</ele>
        <time>2018-12-22T15:44:48Z</time>
      </trkpt>
      <trkpt lat="44.10839" lon="5.63838">
        <ele>1188.244</ele>
        <time>2018-12-22T15:44:49Z</time>
      </trkpt>
      <trkpt lat="44.10844" lon="5.63828">
        <ele>1188.211</ele>
        <time>2018-12-22T15:44:50Z</time>
      </trkpt>
      <trkpt lat="44.10847" lon="5.63816">
        <ele>1188.121</ele>
        <time>2018-12-22T15:44:51Z</time>
      </trkpt>
      <trkpt lat="44.10849" lon="5.63805">
        <ele>1187.803</ele>
        <time>2018-12-22T15:44:52Z</time>
      </trkpt>
      <trkpt lat="44.10848" lon="5.63794">
        <ele>1187.708</ele>
        <time>2018-12-22T15:44:53Z</time>
      </trkpt>
      <trkpt lat="44.10845" lon="5.63783">
        <ele>1187.624</ele>
        <time>2018-12-22T15:44:54Z</time>
      </trkpt>
      <trkpt lat="44.10845" lon="5.6377">
        <ele>1187.652</ele>
        <time>2018-12-22T15:44:55Z</time>
      </trkpt>
      <trkpt lat="44.10848" lon="5.63755">
        <ele>1187.756</ele>
        <time>2018-12-22T15:44:56Z</time>
      </trkpt>
      <trkpt lat="44.10853" lon="5.6374">
        <ele>1187.794</ele>
        <time>2018-12-22T15:44:57Z</time>
      </trkpt>
      <trkpt lat="44.10861" lon="5.63727">
        <ele>1186.975</ele>
        <time>2018-12-22T15:44:58Z</time>
      </trkpt>
      <trkpt lat="44.1087" lon="5.63715">
        <ele>1184.275</ele>
        <time>2018-12-22T15:44:59Z</time>
      </trkpt>
      <trkpt lat="44.1088" lon="5.63705">
        <ele>1184.214</ele>
        <time>2018-12-22T15:45:00Z</time>
      </trkpt>
      <trkpt lat="44.10891" lon="5.63696">
        <ele>1182.16</ele>
        <time>2018-12-22T15:45:01Z</time>
      </trkpt>
      <trkpt lat="44.10902" lon="5.63686">
        <ele>1179.937</ele>
        <time>2018-12-22T15:45:02Z</time>
      </trkpt>
      <trkpt lat="44.10912" lon="5.63676">
        <ele>1179.849</ele>
        <time>2018-12-22T15:45:03Z</time>
      </trkpt>
      <trkpt lat="44.10922" lon="5.63666">
        <ele>1179.813</ele>
        <time>2018-12-22T15:45:04Z</time>
      </trkpt>
      <trkpt lat="44.10933" lon="5.63655">
        <ele>1180.108</ele>
        <time>2018-12-22T15:45:05Z</time>
      </trkpt>
      <trkpt lat="44.10944" lon="5.63644">
        <ele>1180.146</ele>
        <time>2018-12-22T15:45:06Z</time>
      </trkpt>
      <trkpt lat="44.10955" lon="5.63633">
        <ele>1179.654</ele>
        <time>2018-12-22T15:45:07Z</time>
      </trkpt>
      <trkpt lat="44.10965" lon="5.63622">
        <ele>1177.918</ele>
        <time>2018-12-22T15:45:08Z</time>
      </trkpt>
      <trkpt lat="44.10975" lon="5.63609">
        <ele>1176.836</ele>
        <time>2018-12-22T15:45:09Z</time>
      </trkpt>
      <trkpt lat="44.10985" lon="5.63598">
        <ele>1175.697</ele>
        <time>2018-12-22T15:45:10Z</time>
      </trkpt>
      <trkpt lat="44.10994" lon="5.63586">
        <ele>1174.177</ele>
        <time>2018-12-22T15:45:11Z</time>
      </trkpt>
      <trkpt lat="44.11003" lon="5.63577">
        <ele>1174.136</ele>
        <time>2018-12-22T15:45:12Z</time>
      </trkpt>
      <trkpt lat="44.11013" lon="5.63567">
        <ele>1174.032</ele>
        <time>2018-12-22T15:45:13Z</time>
      </trkpt>
      <trkpt lat="44.11022" lon="5.63559">
        <ele>1173.564</ele>
        <time>2018-12-22T15:45:14Z</time>
      </trkpt>
      <trkpt lat="44.11033" lon="5.63554">
        <ele>1172.806</ele>
        <time>2018-12-22T15:45:15Z</time>
      </trkpt>
      <trkpt lat="44.11045" lon="5.63553">
        <ele>1171.716</ele>
        <time>2018-12-22T15:45:16Z</time>
      </trkpt>
      <trkpt lat="44.11057" lon="5.63551">
        <ele>1170.608</ele>
        <time>2018-12-22T15:45:17Z</time>
      </trkpt>
      <trkpt lat="44.11071" lon="5.63546">
        <ele>1169.449</ele>
        <time>2018-12-22T15:45:18Z</time>
      </trkpt>
      <trkpt lat="44.11084" lon="5.6354">
        <ele>1167.667</ele>
        <time>2018-12-22T15:45:19Z</time>
      </trkpt>
      <trkpt lat="44.11097" lon="5.63538">
        <ele>1166.181</ele>
        <time>2018-12-22T15:45:20Z</time>
      </trkpt>
      <trkpt lat="44.11111" lon="5.63533">
        <ele>1165.039</ele>
        <time>2018-12-22T15:45:21Z</time>
      </trkpt>
      <trkpt lat="44.11125" lon="5.63528">
        <ele>1163.92</ele>
        <time>2018-12-22T15:45:22Z</time>
      </trkpt>
      <trkpt lat="44.11139" lon="5.63522">
        <ele>1162.96</ele>
        <time>2018-12-22T15:45:23Z</time>
      </trkpt>
      <trkpt lat="44.11153" lon="5.63515">
        <ele>1162.519</ele>
        <time>2018-12-22T15:45:24Z</time>
      </trkpt>
      <trkpt lat="44.11165" lon="5.63508">
        <ele>1162.315</ele>
        <time>2018-12-22T15:45:25Z</time>
      </trkpt>
      <trkpt lat="44.11177" lon="5.635">
        <ele>1161.998</ele>
        <time>2018-12-22T15:45:26Z</time>
      </trkpt>
      <trkpt lat="44.11189" lon="5.63492">
        <ele>1161.815</ele>
        <time>2018-12-22T15:45:27Z</time>
      </trkpt>
      <trkpt lat="44.11198" lon="5.63483">
        <ele>1161.726</ele>
        <time>2018-12-22T15:45:28Z</time>
      </trkpt>
      <trkpt lat="44.11205" lon="5.63473">
        <ele>1161.508</ele>
        <time>2018-12-22T15:45:29Z</time>
      </trkpt>
      <trkpt lat="44.11214" lon="5.63463">
        <ele>1161.532</ele>
        <time>2018-12-22T15:45:30Z</time>
      </trkpt>
      <trkpt lat="44.11224" lon="5.6346">
        <ele>1160.76</ele>
        <time>2018-12-22T15:45:31Z</time>
      </trkpt>
      <trkpt lat="44.11234" lon="5.63457">
        <ele>1159.484</ele>
        <time>2018-12-22T15:45:32Z</time>
      </trkpt>
      <trkpt lat="44.11243" lon="5.63454">
        <ele>1158.162</ele>
        <time>2018-12-22T15:45:33Z</time>
      </trkpt>
      <trkpt lat="44.11251" lon="5.63449">
        <ele>1157.213</ele>
        <time>2018-12-22T15:45:34Z</time>
      </trkpt>
      <trkpt lat="44.11261" lon="5.63445">
        <ele>1156.923</ele>
        <time>2018-12-22T15:45:35Z</time>
      </trkpt>
      <trkpt lat="44.1127" lon="5.6344">
        <ele>1156.992</ele>
        <time>2018-12-22T15:45:36Z</time>
      </trkpt>
      <trkpt lat="44.1128" lon="5.63435">
        <ele>1158.188</ele>
        <time>2018-12-22T15:45:37Z</time>
      </trkpt>
      <trkpt lat="44.11289" lon="5.6343">
        <ele>1159.883</ele>
        <time>2018-12-22T15:45:38Z</time>
      </trkpt>
      <trkpt lat="44.11294" lon="5.63425">
        <ele>1161.025</ele>
        <time>2018-12-22T15:45:39Z</time>
      </trkpt>
      <trkpt lat="44.113" lon="5.634">
        <ele>1163.317</ele>
        <time>2018-12-22T15:45:43Z</time>
      </trkpt>
      <trkpt lat="44.11292" lon="5.63392">
        <ele>1163.408</ele>
        <time>2018-12-22T15:45:44Z</time>
      </trkpt>
      <trkpt lat="44.11283" lon="5.63386">
        <ele>1163.411</ele>
        <time>2018-12-22T15:45:45Z</time>
      </trkpt>
      <trkpt lat="44.11271" lon="5.63379">
        <ele>1163.489</ele>
        <time>2018-12-22T15:45:46Z</time>
      </trkpt>
      <trkpt lat="44.11258" lon="5.63375">
        <ele>1163.223</ele>
        <time>2018-12-22T15:45:47Z</time>
      </trkpt>
      <trkpt lat="44.11245" lon="5.63373">
        <ele>1163.171</ele>
        <time>2018-12-22T15:45:48Z</time>
      </trkpt>
      <trkpt lat="44.11231" lon="5.63369">
        <ele>1162.872</ele>
        <time>2018-12-22T15:45:49Z</time>
      </trkpt>
      <trkpt lat="44.11217" lon="5.63367">
        <ele>1162.332</ele>
        <time>2018-12-22T15:45:50Z</time>
      </trkpt>
      <trkpt lat="44.11203" lon="5.63365">
        <ele>1161.981</ele>
        <time>2018-12-22T15:45:51Z</time>
      </trkpt>
      <trkpt lat="44.11189" lon="5.63365">
        <ele>1160.567</ele>
        <time>2018-12-22T15:45:52Z</time>
      </trkpt>
      <trkpt lat="44.11174" lon="5.63366">
        <ele>1160.159</ele>
        <time>2018-12-22T15:45:53Z</time>
      </trkpt>
      <trkpt lat="44.11159" lon="5.63369">
        <ele>1159.503</ele>
        <time>2018-12-22T15:45:54Z</time>
      </trkpt>
      <trkpt lat="44.11145" lon="5.6337">
        <ele>1159.523</ele>
        <time>2018-12-22T15:45:55Z</time>
      </trkpt>
      <trkpt lat="44.1113" lon="5.63369">
        <ele>1159.508</ele>
        <time>2018-12-22T15:45:56Z</time>
      </trkpt>
      <trkpt lat="44.11116" lon="5.63367">
        <ele>1159.718</ele>
        <time>2018-12-22T15:45:57Z</time>
      </trkpt>
      <trkpt lat="44.111" lon="5.63364">
        <ele>1159.816</ele>
        <time>2018-12-22T15:45:58Z</time>
      </trkpt>
      <trkpt lat="44.11085" lon="5.6336">
        <ele>1159.85</ele>
        <time>2018-12-22T15:45:59Z</time>
      </trkpt>
      <trkpt lat="44.1107" lon="5.63358">
        <ele>1159.478</ele>
        <time>2018-12-22T15:46:00Z</time>
      </trkpt>
      <trkpt lat="44.11054" lon="5.63356">
        <ele>1159.169</ele>
        <time>2018-12-22T15:46:01Z</time>
      </trkpt>
      <trkpt lat="44.11039" lon="5.63355">
        <ele>1158.859</ele>
        <time>2018-12-22T15:46:02Z</time>
      </trkpt>
      <trkpt lat="44.11024" lon="5.63355">
        <ele>1158.558</ele>
        <time>2018-12-22T15:46:03Z</time>
      </trkpt>
      <trkpt lat="44.11007" lon="5.63356">
        <ele>1158.544</ele>
        <time>2018-12-22T15:46:04Z</time>
      </trkpt>
      <trkpt lat="44.10991" lon="5.63355">
        <ele>1158.747</ele>
        <time>2018-12-22T15:46:05Z</time>
      </trkpt>
      <trkpt lat="44.10974" lon="5.63356">
        <ele>1158.829</ele>
        <time>2018-12-22T15:46:06Z</time>
      </trkpt>
      <trkpt lat="44.10958" lon="5.63359">
        <ele>1159.121</ele>
        <time>2018-12-22T15:46:07Z</time>
      </trkpt>
      <trkpt lat="44.10941" lon="5.63362">
        <ele>1159.408</ele>
        <time>2018-12-22T15:46:08Z</time>
      </trkpt>
      <trkpt lat="44.10925" lon="5.63368">
        <ele>1159.597</ele>
        <time>2018-12-22T15:46:09Z</time>
      </trkpt>
      <trkpt lat="44.10908" lon="5.63375">
        <ele>1159.915</ele>
        <time>2018-12-22T15:46:10Z</time>
      </trkpt>
      <trkpt lat="44.10893" lon="5.63381">
        <ele>1160.589</ele>
        <time>2018-12-22T15:46:11Z</time>
      </trkpt>
      <trkpt lat="44.10876" lon="5.63387">
        <ele>1161.467</ele>
        <time>2018-12-22T15:46:12Z</time>
      </trkpt>
      <trkpt lat="44.10863" lon="5.6339">
        <ele>1162.378</ele>
        <time>2018-12-22T15:46:13Z</time>
      </trkpt>
      <trkpt lat="44.10849" lon="5.63389">
        <ele>1163.878</ele>
        <time>2018-12-22T15:46:14Z</time>
      </trkpt>
      <trkpt lat="44.10838" lon="5.63385">
        <ele>1165.157</ele>
        <time>2018-12-22T15:46:15Z</time>
      </trkpt>
      <trkpt lat="44.10828" lon="5.63378">
        <ele>1165.853</ele>
        <time>2018-12-22T15:46:16Z</time>
      </trkpt>
      <trkpt lat="44.10817" lon="5.63369">
        <ele>1166.614</ele>
        <time>2018-12-22T15:46:17Z</time>
      </trkpt>
      <trkpt lat="44.10808" lon="5.63358">
        <ele>1166.654</ele>
        <time>2018-12-22T15:46:18Z</time>
      </trkpt>
      <trkpt lat="44.108" lon="5.63345">
        <ele>1166.209</ele>
        <time>2018-12-22T15:46:19Z</time>
      </trkpt>
      <trkpt lat="44.10793" lon="5.63327">
        <ele>1166.208</ele>
        <time>2018-12-22T15:46:20Z</time>
      </trkpt>
      <trkpt lat="44.10788" lon="5.63309">
        <ele>1165.824</ele>
        <time>2018-12-22T15:46:21Z</time>
      </trkpt>
      <trkpt lat="44.10784" lon="5.63292">
        <ele>1165.312</ele>
        <time>2018-12-22T15:46:22Z</time>
      </trkpt>
      <trkpt lat="44.1078" lon="5.63276">
        <ele>1165.016</ele>
        <time>2018-12-22T15:46:23Z</time>
      </trkpt>
      <trkpt lat="44.10778" lon="5.63257">
        <ele>1164.154</ele>
        <time>2018-12-22T15:46:24Z</time>
      </trkpt>
      <trkpt lat="44.1078" lon="5.63237">
        <ele>1163.355</ele>
        <time>2018-12-22T15:46:25Z</time>
      </trkpt>
      <trkpt lat="44.10784" lon="5.63216">
        <ele>1162.285</ele>
        <time>2018-12-22T15:46:26Z</time>
      </trkpt>
      <trkpt lat="44.10789" lon="5.63196">
        <ele>1161.134</ele>
        <time>2018-12-22T15:46:27Z</time>
      </trkpt>
      <trkpt lat="44.10794" lon="5.63178">
        <ele>1159.83</ele>
        <time>2018-12-22T15:46:28Z</time>
      </trkpt>
      <trkpt lat="44.10799" lon="5.6316">
        <ele>1159.195</ele>
        <time>2018-12-22T15:46:29Z</time>
      </trkpt>
      <trkpt lat="44.10804" lon="5.63142">
        <ele>1156.749</ele>
        <time>2018-12-22T15:46:30Z</time>
      </trkpt>
      <trkpt lat="44.10806" lon="5.63123">
        <ele>1155.823</ele>
        <time>2018-12-22T15:46:31Z</time>
      </trkpt>
      <trkpt lat="44.10808" lon="5.63103">
        <ele>1155.708</ele>
        <time>2018-12-22T15:46:32Z</time>
      </trkpt>
      <trkpt lat="44.10808" lon="5.63082">
        <ele>1155.772</ele>
        <time>2018-12-22T15:46:33Z</time>
      </trkpt>
      <trkpt lat="44.10806" lon="5.63062">
        <ele>1156.51</ele>
        <time>2018-12-22T15:46:34Z</time>
      </trkpt>
      <trkpt lat="44.10803" lon="5.63042">
        <ele>1157.394</ele>
        <time>2018-12-22T15:46:35Z</time>
      </trkpt>
      <trkpt lat="44.10798" lon="5.63021">
        <ele>1157.822</ele>
        <time>2018-12-22T15:46:36Z</time>
      </trkpt>
      <trkpt lat="44.10794" lon="5.63001">
        <ele>1157.843</ele>
        <time>2018-12-22T15:46:37Z</time>
      </trkpt>
      <trkpt lat="44.1079" lon="5.62982">
        <ele>1157.363</ele>
        <time>2018-12-22T15:46:38Z</time>
      </trkpt>
      <trkpt lat="44.10785" lon="5.62963">
        <ele>1156.492</ele>
        <time>2018-12-22T15:46:39Z</time>
      </trkpt>
      <trkpt lat="44.10781" lon="5.62943">
        <ele>1155.498</ele>
        <time>2018-12-22T15:46:40Z</time>
      </trkpt>
      <trkpt lat="44.10776" lon="5.62922">
        <ele>1154.174</ele>
        <time>2018-12-22T15:46:41Z</time>
      </trkpt>
      <trkpt lat="44.10772" lon="5.629">
        <ele>1151.556</ele>
        <time>2018-12-22T15:46:42Z</time>
      </trkpt>
      <trkpt lat="44.10769" lon="5.62878">
        <ele>1149.721</ele>
        <time>2018-12-22T15:46:43Z</time>
      </trkpt>
      <trkpt lat="44.10766" lon="5.62856">
        <ele>1147.408</ele>
        <time>2018-12-22T15:46:44Z</time>
      </trkpt>
      <trkpt lat="44.10762" lon="5.62833">
        <ele>1144.41</ele>
        <time>2018-12-22T15:46:45Z</time>
      </trkpt>
      <trkpt lat="44.10759" lon="5.6281">
        <ele>1144.458</ele>
        <time>2018-12-22T15:46:46Z</time>
      </trkpt>
      <trkpt lat="44.10755" lon="5.62788">
        <ele>1143.422</ele>
        <time>2018-12-22T15:46:47Z</time>
      </trkpt>
      <trkpt lat="44.10751" lon="5.62767">
        <ele>1143.19</ele>
        <time>2018-12-22T15:46:48Z</time>
      </trkpt>
      <trkpt lat="44.10746" lon="5.62744">
        <ele>1142.911</ele>
        <time>2018-12-22T15:46:49Z</time>
      </trkpt>
      <trkpt lat="44.10741" lon="5.62722">
        <ele>1142.851</ele>
        <time>2018-12-22T15:46:50Z</time>
      </trkpt>
      <trkpt lat="44.10736" lon="5.627">
        <ele>1142.42</ele>
        <time>2018-12-22T15:46:51Z</time>
      </trkpt>
      <trkpt lat="44.1073" lon="5.6268">
        <ele>1142.096</ele>
        <time>2018-12-22T15:46:52Z</time>
      </trkpt>
      <trkpt lat="44.10726" lon="5.62662">
        <ele>1141.784</ele>
        <time>2018-12-22T15:46:53Z</time>
      </trkpt>
      <trkpt lat="44.10721" lon="5.62645">
        <ele>1141.307</ele>
        <time>2018-12-22T15:46:54Z</time>
      </trkpt>
      <trkpt lat="44.10717" lon="5.62627">
        <ele>1140.317</ele>
        <time>2018-12-22T15:46:55Z</time>
      </trkpt>
      <trkpt lat="44.10716" lon="5.62608">
        <ele>1139.308</ele>
        <time>2018-12-22T15:46:56Z</time>
      </trkpt>
      <trkpt lat="44.10715" lon="5.62587">
        <ele>1138.261</ele>
        <time>2018-12-22T15:46:57Z</time>
      </trkpt>
      <trkpt lat="44.10715" lon="5.62565">
        <ele>1137.059</ele>
        <time>2018-12-22T15:46:58Z</time>
      </trkpt>
      <trkpt lat="44.10717" lon="5.62544">
        <ele>1135.733</ele>
        <time>2018-12-22T15:46:59Z</time>
      </trkpt>
      <trkpt lat="44.10719" lon="5.62524">
        <ele>1134.771</ele>
        <time>2018-12-22T15:47:00Z</time>
      </trkpt>
      <trkpt lat="44.1072" lon="5.62503">
        <ele>1134.562</ele>
        <time>2018-12-22T15:47:01Z</time>
      </trkpt>
      <trkpt lat="44.1072" lon="5.62483">
        <ele>1134.542</ele>
        <time>2018-12-22T15:47:02Z</time>
      </trkpt>
      <trkpt lat="44.10718" lon="5.62465">
        <ele>1134.671</ele>
        <time>2018-12-22T15:47:03Z</time>
      </trkpt>
      <trkpt lat="44.10717" lon="5.62445">
        <ele>1135.267</ele>
        <time>2018-12-22T15:47:04Z</time>
      </trkpt>
      <trkpt lat="44.10713" lon="5.62426">
        <ele>1135.264</ele>
        <time>2018-12-22T15:47:05Z</time>
      </trkpt>
      <trkpt lat="44.10709" lon="5.62411">
        <ele>1134.606</ele>
        <time>2018-12-22T15:47:06Z</time>
      </trkpt>
      <trkpt lat="44.10704" lon="5.62394">
        <ele>1134.616</ele>
        <time>2018-12-22T15:47:07Z</time>
      </trkpt>
      <trkpt lat="44.10698" lon="5.62377">
        <ele>1132.308</ele>
        <time>2018-12-22T15:47:08Z</time>
      </trkpt>
      <trkpt lat="44.1069" lon="5.62361">
        <ele>1131.139</ele>
        <time>2018-12-22T15:47:09Z</time>
      </trkpt>
      <trkpt lat="44.10683" lon="5.62346">
        <ele>1129.787</ele>
        <time>2018-12-22T15:47:10Z</time>
      </trkpt>
      <trkpt lat="44.10674" lon="5.62332">
        <ele>1128.861</ele>
        <time>2018-12-22T15:47:11Z</time>
      </trkpt>
      <trkpt lat="44.10665" lon="5.62319">
        <ele>1128.299</ele>
        <time>2018-12-22T15:47:12Z</time>
      </trkpt>
      <trkpt lat="44.10656" lon="5.62306">
        <ele>1128.09</ele>
        <time>2018-12-22T15:47:13Z</time>
      </trkpt>
      <trkpt lat="44.10647" lon="5.62293">
        <ele>1127.41</ele>
        <time>2018-12-22T15:47:14Z</time>
      </trkpt>
      <trkpt lat="44.10639" lon="5.62279">
        <ele>1127.339</ele>
        <time>2018-12-22T15:47:15Z</time>
      </trkpt>
      <trkpt lat="44.10631" lon="5.62265">
        <ele>1127.075</ele>
        <time>2018-12-22T15:47:16Z</time>
      </trkpt>
      <trkpt lat="44.10625" lon="5.6225">
        <ele>1126.282</ele>
        <time>2018-12-22T15:47:17Z</time>
      </trkpt>
      <trkpt lat="44.10619" lon="5.62236">
        <ele>1125.243</ele>
        <time>2018-12-22T15:47:18Z</time>
      </trkpt>
      <trkpt lat="44.10611" lon="5.62222">
        <ele>1124.317</ele>
        <time>2018-12-22T15:47:19Z</time>
      </trkpt>
      <trkpt lat="44.10604" lon="5.62209">
        <ele>1123.708</ele>
        <time>2018-12-22T15:47:20Z</time>
      </trkpt>
      <trkpt lat="44.10597" lon="5.62197">
        <ele>1123.171</ele>
        <time>2018-12-22T15:47:21Z</time>
      </trkpt>
      <trkpt lat="44.1059" lon="5.62185">
        <ele>1122.879</ele>
        <time>2018-12-22T15:47:22Z</time>
      </trkpt>
      <trkpt lat="44.10584" lon="5.62174">
        <ele>1122.213</ele>
        <time>2018-12-22T15:47:23Z</time>
      </trkpt>
      <trkpt lat="44.10575" lon="5.62164">
        <ele>1121.591</ele>
        <time>2018-12-22T15:47:24Z</time>
      </trkpt>
      <trkpt lat="44.10567" lon="5.62155">
        <ele>1121.062</ele>
        <time>2018-12-22T15:47:25Z</time>
      </trkpt>
      <trkpt lat="44.10558" lon="5.62146">
        <ele>1120.982</ele>
        <time>2018-12-22T15:47:26Z</time>
      </trkpt>
      <trkpt lat="44.1055" lon="5.62139">
        <ele>1120.851</ele>
        <time>2018-12-22T15:47:27Z</time>
      </trkpt>
      <trkpt lat="44.10543" lon="5.62131">
        <ele>1120.897</ele>
        <time>2018-12-22T15:47:28Z</time>
      </trkpt>
      <trkpt lat="44.10536" lon="5.62126">
        <ele>1121.267</ele>
        <time>2018-12-22T15:47:29Z</time>
      </trkpt>
      <trkpt lat="44.1053" lon="5.62123">
        <ele>1121.881</ele>
        <time>2018-12-22T15:47:30Z</time>
      </trkpt>
      <trkpt lat="44.10526" lon="5.6212">
        <ele>1122.219</ele>
        <time>2018-12-22T15:47:31Z</time>
      </trkpt>
      <trkpt lat="44.10523" lon="5.62112">
        <ele>1121.408</ele>
        <time>2018-12-22T15:47:33Z</time>
      </trkpt>
      <trkpt lat="44.10527" lon="5.62106">
        <ele>1120.289</ele>
        <time>2018-12-22T15:47:34Z</time>
      </trkpt>
      <trkpt lat="44.10534" lon="5.62101">
        <ele>1118.697</ele>
        <time>2018-12-22T15:47:35Z</time>
      </trkpt>
      <trkpt lat="44.10541" lon="5.62095">
        <ele>1116.741</ele>
        <time>2018-12-22T15:47:36Z</time>
      </trkpt>
      <trkpt lat="44.10548" lon="5.62088">
        <ele>1115.799</ele>
        <time>2018-12-22T15:47:37Z</time>
      </trkpt>
      <trkpt lat="44.10555" lon="5.62081">
        <ele>1115.01</ele>
        <time>2018-12-22T15:47:38Z</time>
      </trkpt>
      <trkpt lat="44.10561" lon="5.62076">
        <ele>1114.94</ele>
        <time>2018-12-22T15:47:39Z</time>
      </trkpt>
      <trkpt lat="44.10567" lon="5.62072">
        <ele>1114.949</ele>
        <time>2018-12-22T15:47:40Z</time>
      </trkpt>
      <trkpt lat="44.10573" lon="5.62068">
        <ele>1115.355</ele>
        <time>2018-12-22T15:47:41Z</time>
      </trkpt>
      <trkpt lat="44.1058" lon="5.62066">
        <ele>1115.373</ele>
        <time>2018-12-22T15:47:42Z</time>
      </trkpt>
      <trkpt lat="44.10588" lon="5.62067">
        <ele>1115.185</ele>
        <time>2018-12-22T15:47:43Z</time>
      </trkpt>
      <trkpt lat="44.10597" lon="5.62069">
        <ele>1114.813</ele>
        <time>2018-12-22T15:47:44Z</time>
      </trkpt>
      <trkpt lat="44.10606" lon="5.62073">
        <ele>1114.808</ele>
        <time>2018-12-22T15:47:45Z</time>
      </trkpt>
      <trkpt lat="44.10616" lon="5.62076">
        <ele>1115.25</ele>
        <time>2018-12-22T15:47:46Z</time>
      </trkpt>
      <trkpt lat="44.10627" lon="5.62079">
        <ele>1115.638</ele>
        <time>2018-12-22T15:47:47Z</time>
      </trkpt>
      <trkpt lat="44.10637" lon="5.62082">
        <ele>1116.442</ele>
        <time>2018-12-22T15:47:48Z</time>
      </trkpt>
      <trkpt lat="44.10647" lon="5.62084">
        <ele>1117.01</ele>
        <time>2018-12-22T15:47:49Z</time>
      </trkpt>
      <trkpt lat="44.10657" lon="5.62086">
        <ele>1117.781</ele>
        <time>2018-12-22T15:47:50Z</time>
      </trkpt>
      <trkpt lat="44.10667" lon="5.62087">
        <ele>1117.831</ele>
        <time>2018-12-22T15:47:51Z</time>
      </trkpt>
      <trkpt lat="44.10678" lon="5.62087">
        <ele>1118.09</ele>
        <time>2018-12-22T15:47:52Z</time>
      </trkpt>
      <trkpt lat="44.10689" lon="5.62086">
        <ele>1118.156</ele>
        <time>2018-12-22T15:47:53Z</time>
      </trkpt>
      <trkpt lat="44.10699" lon="5.62086">
        <ele>1118.545</ele>
        <time>2018-12-22T15:47:54Z</time>
      </trkpt>
      <trkpt lat="44.1071" lon="5.62085">
        <ele>1118.647</ele>
        <time>2018-12-22T15:47:55Z</time>
      </trkpt>
      <trkpt lat="44.1072" lon="5.62083">
        <ele>1119.011</ele>
        <time>2018-12-22T15:47:56Z</time>
      </trkpt>
      <trkpt lat="44.10731" lon="5.62079">
        <ele>1119.408</ele>
        <time>2018-12-22T15:47:57Z</time>
      </trkpt>
      <trkpt lat="44.10742" lon="5.62076">
        <ele>1119.727</ele>
        <time>2018-12-22T15:47:58Z</time>
      </trkpt>
      <trkpt lat="44.10753" lon="5.62077">
        <ele>1120.375</ele>
        <time>2018-12-22T15:47:59Z</time>
      </trkpt>
      <trkpt lat="44.10763" lon="5.62081">
        <ele>1120.879</ele>
        <time>2018-12-22T15:48:00Z</time>
      </trkpt>
      <trkpt lat="44.10771" lon="5.6209">
        <ele>1121.777</ele>
        <time>2018-12-22T15:48:01Z</time>
      </trkpt>
      <trkpt lat="44.10779" lon="5.62102">
        <ele>1123.028</ele>
        <time>2018-12-22T15:48:02Z</time>
      </trkpt>
      <trkpt lat="44.10786" lon="5.62113">
        <ele>1123.748</ele>
        <time>2018-12-22T15:48:03Z</time>
      </trkpt>
      <trkpt lat="44.10794" lon="5.62123">
        <ele>1124.457</ele>
        <time>2018-12-22T15:48:04Z</time>
      </trkpt>
      <trkpt lat="44.10802" lon="5.62133">
        <ele>1125.293</ele>
        <time>2018-12-22T15:48:05Z</time>
      </trkpt>
      <trkpt lat="44.10811" lon="5.62144">
        <ele>1126.454</ele>
        <time>2018-12-22T15:48:06Z</time>
      </trkpt>
      <trkpt lat="44.10819" lon="5.62154">
        <ele>1126.956</ele>
        <time>2018-12-22T15:48:07Z</time>
      </trkpt>
      <trkpt lat="44.10828" lon="5.62166">
        <ele>1128.011</ele>
        <time>2018-12-22T15:48:08Z</time>
      </trkpt>
      <trkpt lat="44.10839" lon="5.62177">
        <ele>1129.608</ele>
        <time>2018-12-22T15:48:09Z</time>
      </trkpt>
      <trkpt lat="44.10849" lon="5.62188">
        <ele>1130.078</ele>
        <time>2018-12-22T15:48:10Z</time>
      </trkpt>
      <trkpt lat="44.1086" lon="5.62198">
        <ele>1130.276</ele>
        <time>2018-12-22T15:48:11Z</time>
      </trkpt>
      <trkpt lat="44.10871" lon="5.62206">
        <ele>1130.86</ele>
        <time>2018-12-22T15:48:12Z</time>
      </trkpt>
      <trkpt lat="44.10883" lon="5.62214">
        <ele>1131.558</ele>
        <time>2018-12-22T15:48:13Z</time>
      </trkpt>
      <trkpt lat="44.10896" lon="5.62221">
        <ele>1133.469</ele>
        <time>2018-12-22T15:48:14Z</time>
      </trkpt>
      <trkpt lat="44.10909" lon="5.6223">
        <ele>1135.559</ele>
        <time>2018-12-22T15:48:15Z</time>
      </trkpt>
      <trkpt lat="44.10921" lon="5.62239">
        <ele>1137.688</ele>
        <time>2018-12-22T15:48:16Z</time>
      </trkpt>
      <trkpt lat="44.10935" lon="5.62247">
        <ele>1139.274</ele>
        <time>2018-12-22T15:48:17Z</time>
      </trkpt>
      <trkpt lat="44.10948" lon="5.62256">
        <ele>1140.744</ele>
        <time>2018-12-22T15:48:18Z</time>
      </trkpt>
      <trkpt lat="44.10961" lon="5.62264">
        <ele>1141.405</ele>
        <time>2018-12-22T15:48:19Z</time>
      </trkpt>
      <trkpt lat="44.10975" lon="5.62273">
        <ele>1141.515</ele>
        <time>2018-12-22T15:48:20Z</time>
      </trkpt>
      <trkpt lat="44.10988" lon="5.6228">
        <ele>1141.808</ele>
        <time>2018-12-22T15:48:21Z</time>
      </trkpt>
      <trkpt lat="44.11003" lon="5.62286">
        <ele>1142.267</ele>
        <time>2018-12-22T15:48:22Z</time>
      </trkpt>
      <trkpt lat="44.11015" lon="5.62293">
        <ele>1143.265</ele>
        <time>2018-12-22T15:48:23Z</time>
      </trkpt>
      <trkpt lat="44.11025" lon="5.623">
        <ele>1145.229</ele>
        <time>2018-12-22T15:48:24Z</time>
      </trkpt>
      <trkpt lat="44.11037" lon="5.62306">
        <ele>1147.077</ele>
        <time>2018-12-22T15:48:25Z</time>
      </trkpt>
      <trkpt lat="44.11048" lon="5.62312">
        <ele>1148.948</ele>
        <time>2018-12-22T15:48:26Z</time>
      </trkpt>
      <trkpt lat="44.11058" lon="5.62318">
        <ele>1150.918</ele>
        <time>2018-12-22T15:48:27Z</time>
      </trkpt>
      <trkpt lat="44.11068" lon="5.62323">
        <ele>1152.667</ele>
        <time>2018-12-22T15:48:28Z</time>
      </trkpt>
      <trkpt lat="44.11078" lon="5.62328">
        <ele>1154.153</ele>
        <time>2018-12-22T15:48:29Z</time>
      </trkpt>
      <trkpt lat="44.11087" lon="5.62334">
        <ele>1156.195</ele>
        <time>2018-12-22T15:48:30Z</time>
      </trkpt>
      <trkpt lat="44.11097" lon="5.6234">
        <ele>1158.549</ele>
        <time>2018-12-22T15:48:31Z</time>
      </trkpt>
      <trkpt lat="44.11106" lon="5.62346">
        <ele>1160.523</ele>
        <time>2018-12-22T15:48:32Z</time>
      </trkpt>
      <trkpt lat="44.11115" lon="5.62355">
        <ele>1162.608</ele>
        <time>2018-12-22T15:48:33Z</time>
      </trkpt>
      <trkpt lat="44.11125" lon="5.62363">
        <ele>1165.222</ele>
        <time>2018-12-22T15:48:34Z</time>
      </trkpt>
      <trkpt lat="44.11135" lon="5.62371">
        <ele>1166.62</ele>
        <time>2018-12-22T15:48:35Z</time>
      </trkpt>
      <trkpt lat="44.11144" lon="5.6238">
        <ele>1167.434</ele>
        <time>2018-12-22T15:48:36Z</time>
      </trkpt>
      <trkpt lat="44.11155" lon="5.62389">
        <ele>1168.132</ele>
        <time>2018-12-22T15:48:37Z</time>
      </trkpt>
      <trkpt lat="44.11165" lon="5.62397">
        <ele>1169.253</ele>
        <time>2018-12-22T15:48:38Z</time>
      </trkpt>
      <trkpt lat="44.11177" lon="5.62403">
        <ele>1170.183</ele>
        <time>2018-12-22T15:48:39Z</time>
      </trkpt>
      <trkpt lat="44.1119" lon="5.62406">
        <ele>1170.482</ele>
        <time>2018-12-22T15:48:40Z</time>
      </trkpt>
      <trkpt lat="44.11203" lon="5.62404">
        <ele>1171.118</ele>
        <time>2018-12-22T15:48:41Z</time>
      </trkpt>
      <trkpt lat="44.11216" lon="5.62401">
        <ele>1171.764</ele>
        <time>2018-12-22T15:48:42Z</time>
      </trkpt>
      <trkpt lat="44.11229" lon="5.62395">
        <ele>1172.006</ele>
        <time>2018-12-22T15:48:43Z</time>
      </trkpt>
      <trkpt lat="44.11243" lon="5.62391">
        <ele>1172.516</ele>
        <time>2018-12-22T15:48:44Z</time>
      </trkpt>
      <trkpt lat="44.11258" lon="5.62389">
        <ele>1172.708</ele>
        <time>2018-12-22T15:48:45Z</time>
      </trkpt>
      <trkpt lat="44.11272" lon="5.62393">
        <ele>1173.729</ele>
        <time>2018-12-22T15:48:46Z</time>
      </trkpt>
      <trkpt lat="44.11285" lon="5.62402">
        <ele>1174.247</ele>
        <time>2018-12-22T15:48:47Z</time>
      </trkpt>
      <trkpt lat="44.11298" lon="5.62411">
        <ele>1175.061</ele>
        <time>2018-12-22T15:48:48Z</time>
      </trkpt>
      <trkpt lat="44.1131" lon="5.62419">
        <ele>1175.959</ele>
        <time>2018-12-22T15:48:49Z</time>
      </trkpt>
      <trkpt lat="44.11323" lon="5.62428">
        <ele>1176.34</ele>
        <time>2018-12-22T15:48:50Z</time>
      </trkpt>
      <trkpt lat="44.11337" lon="5.62434">
        <ele>1177.31</ele>
        <time>2018-12-22T15:48:51Z</time>
      </trkpt>
      <trkpt lat="44.1135" lon="5.6244">
        <ele>1178.069</ele>
        <time>2018-12-22T15:48:52Z</time>
      </trkpt>
      <trkpt lat="44.11365" lon="5.62444">
        <ele>1178.615</ele>
        <time>2018-12-22T15:48:53Z</time>
      </trkpt>
      <trkpt lat="44.11379" lon="5.62448">
        <ele>1179.481</ele>
        <time>2018-12-22T15:48:54Z</time>
      </trkpt>
      <trkpt lat="44.11394" lon="5.62451">
        <ele>1180.561</ele>
        <time>2018-12-22T15:48:55Z</time>
      </trkpt>
      <trkpt lat="44.11409" lon="5.62454">
        <ele>1181.017</ele>
        <time>2018-12-22T15:48:56Z</time>
      </trkpt>
      <trkpt lat="44.11424" lon="5.62457">
        <ele>1182.108</ele>
        <time>2018-12-22T15:48:57Z</time>
      </trkpt>
      <trkpt lat="44.11439" lon="5.62458">
        <ele>1183.161</ele>
        <time>2018-12-22T15:48:58Z</time>
      </trkpt>
      <trkpt lat="44.11453" lon="5.62459">
        <ele>1184.359</ele>
        <time>2018-12-22T15:48:59Z</time>
      </trkpt>
      <trkpt lat="44.11468" lon="5.62459">
        <ele>1185.343</ele>
        <time>2018-12-22T15:49:00Z</time>
      </trkpt>
      <trkpt lat="44.11483" lon="5.62459">
        <ele>1185.771</ele>
        <time>2018-12-22T15:49:01Z</time>
      </trkpt>
      <trkpt lat="44.11497" lon="5.62461">
        <ele>1186.572</ele>
        <time>2018-12-22T15:49:02Z</time>
      </trkpt>
      <trkpt lat="44.11511" lon="5.62463">
        <ele>1187.492</ele>
        <time>2018-12-22T15:49:03Z</time>
      </trkpt>
      <trkpt lat="44.11524" lon="5.62465">
        <ele>1188.761</ele>
        <time>2018-12-22T15:49:04Z</time>
      </trkpt>
      <trkpt lat="44.11538" lon="5.62468">
        <ele>1189.777</ele>
        <time>2018-12-22T15:49:05Z</time>
      </trkpt>
      <trkpt lat="44.11551" lon="5.62471">
        <ele>1190.775</ele>
        <time>2018-12-22T15:49:06Z</time>
      </trkpt>
      <trkpt lat="44.11564" lon="5.62474">
        <ele>1191.928</ele>
        <time>2018-12-22T15:49:07Z</time>
      </trkpt>
      <trkpt lat="44.11577" lon="5.62477">
        <ele>1193.12</ele>
        <time>2018-12-22T15:49:08Z</time>
      </trkpt>
      <trkpt lat="44.11592" lon="5.6248">
        <ele>1194.108</ele>
        <time>2018-12-22T15:49:09Z</time>
      </trkpt>
      <trkpt lat="44.11605" lon="5.62483">
        <ele>1195.14</ele>
        <time>2018-12-22T15:49:10Z</time>
      </trkpt>
      <trkpt lat="44.11618" lon="5.62486">
        <ele>1196.968</ele>
        <time>2018-12-22T15:49:11Z</time>
      </trkpt>
      <trkpt lat="44.11631" lon="5.62489">
        <ele>1197.552</ele>
        <time>2018-12-22T15:49:12Z</time>
      </trkpt>
      <trkpt lat="44.11643" lon="5.62492">
        <ele>1198.23</ele>
        <time>2018-12-22T15:49:13Z</time>
      </trkpt>
      <trkpt lat="44.11657" lon="5.62496">
        <ele>1198.781</ele>
        <time>2018-12-22T15:49:14Z</time>
      </trkpt>
      <trkpt lat="44.1167" lon="5.62501">
        <ele>1199.711</ele>
        <time>2018-12-22T15:49:15Z</time>
      </trkpt>
      <trkpt lat="44.11681" lon="5.62506">
        <ele>1200.87</ele>
        <time>2018-12-22T15:49:16Z</time>
      </trkpt>
      <trkpt lat="44.1169" lon="5.62512">
        <ele>1201.986</ele>
        <time>2018-12-22T15:49:17Z</time>
      </trkpt>
      <trkpt lat="44.11699" lon="5.62518">
        <ele>1203.274</ele>
        <time>2018-12-22T15:49:18Z</time>
      </trkpt>
      <trkpt lat="44.11707" lon="5.62527">
        <ele>1204.756</ele>
        <time>2018-12-22T15:49:19Z</time>
      </trkpt>
      <trkpt lat="44.11715" lon="5.62537">
        <ele>1205.921</ele>
        <time>2018-12-22T15:49:20Z</time>
      </trkpt>
      <trkpt lat="44.11723" lon="5.62549">
        <ele>1206.908</ele>
        <time>2018-12-22T15:49:21Z</time>
      </trkpt>
      <trkpt lat="44.11731" lon="5.62562">
        <ele>1207.73</ele>
        <time>2018-12-22T15:49:22Z</time>
      </trkpt>
      <trkpt lat="44.11738" lon="5.62573">
        <ele>1208.048</ele>
        <time>2018-12-22T15:49:23Z</time>
      </trkpt>
      <trkpt lat="44.11746" lon="5.62585">
        <ele>1208.082</ele>
        <time>2018-12-22T15:49:24Z</time>
      </trkpt>
      <trkpt lat="44.11755" lon="5.62596">
        <ele>1208.33</ele>
        <time>2018-12-22T15:49:25Z</time>
      </trkpt>
      <trkpt lat="44.11764" lon="5.62607">
        <ele>1208.761</ele>
        <time>2018-12-22T15:49:26Z</time>
      </trkpt>
      <trkpt lat="44.11772" lon="5.62617">
        <ele>1208.741</ele>
        <time>2018-12-22T15:49:27Z</time>
      </trkpt>
      <trkpt lat="44.11782" lon="5.62625">
        <ele>1208.99</ele>
        <time>2018-12-22T15:49:28Z</time>
      </trkpt>
      <trkpt lat="44.11793" lon="5.6263">
        <ele>1208.956</ele>
        <time>2018-12-22T15:49:29Z</time>
      </trkpt>
      <trkpt lat="44.11805" lon="5.62635">
        <ele>1208.365</ele>
        <time>2018-12-22T15:49:30Z</time>
      </trkpt>
      <trkpt lat="44.11817" lon="5.6264">
        <ele>1207.468</ele>
        <time>2018-12-22T15:49:31Z</time>
      </trkpt>
      <trkpt lat="44.1183" lon="5.62645">
        <ele>1206.314</ele>
        <time>2018-12-22T15:49:32Z</time>
      </trkpt>
      <trkpt lat="44.11843" lon="5.62649">
        <ele>1204.808</ele>
        <time>2018-12-22T15:49:33Z</time>
      </trkpt>
      <trkpt lat="44.11856" lon="5.62655">
        <ele>1200.949</ele>
        <time>2018-12-22T15:49:34Z</time>
      </trkpt>
      <trkpt lat="44.11868" lon="5.62661">
        <ele>1200.957</ele>
        <time>2018-12-22T15:49:35Z</time>
      </trkpt>
      <trkpt lat="44.1188" lon="5.62668">
        <ele>1200.681</ele>
        <time>2018-12-22T15:49:36Z</time>
      </trkpt>
      <trkpt lat="44.11891" lon="5.62677">
        <ele>1200.479</ele>
        <time>2018-12-22T15:49:37Z</time>
      </trkpt>
      <trkpt lat="44.11901" lon="5.62686">
        <ele>1199.91</ele>
        <time>2018-12-22T15:49:38Z</time>
      </trkpt>
      <trkpt lat="44.11912" lon="5.62697">
        <ele>1199.03</ele>
        <time>2018-12-22T15:49:39Z</time>
      </trkpt>
      <trkpt lat="44.11923" lon="5.62708">
        <ele>1198.239</ele>
        <time>2018-12-22T15:49:40Z</time>
      </trkpt>
      <trkpt lat="44.11935" lon="5.62719">
        <ele>1196.825</ele>
        <time>2018-12-22T15:49:41Z</time>
      </trkpt>
      <trkpt lat="44.11947" lon="5.62729">
        <ele>1195.578</ele>
        <time>2018-12-22T15:49:42Z</time>
      </trkpt>
      <trkpt lat="44.11958" lon="5.6274">
        <ele>1194.733</ele>
        <time>2018-12-22T15:49:43Z</time>
      </trkpt>
      <trkpt lat="44.11971" lon="5.62748">
        <ele>1193.826</ele>
        <time>2018-12-22T15:49:44Z</time>
      </trkpt>
      <trkpt lat="44.11984" lon="5.62752">
        <ele>1193.008</ele>
        <time>2018-12-22T15:49:45Z</time>
      </trkpt>
      <trkpt lat="44.11998" lon="5.62753">
        <ele>1192.41</ele>
        <time>2018-12-22T15:49:46Z</time>
      </trkpt>
      <trkpt lat="44.12011" lon="5.62752">
        <ele>1192.548</ele>
        <time>2018-12-22T15:49:47Z</time>
      </trkpt>
      <trkpt lat="44.12023" lon="5.62753">
        <ele>1193.092</ele>
        <time>2018-12-22T15:49:48Z</time>
      </trkpt>
      <trkpt lat="44.12034" lon="5.62755">
        <ele>1193.97</ele>
        <time>2018-12-22T15:49:49Z</time>
      </trkpt>
      <trkpt lat="44.12043" lon="5.62755">
        <ele>1195.331</ele>
        <time>2018-12-22T15:49:50Z</time>
      </trkpt>
      <trkpt lat="44.12052" lon="5.62754">
        <ele>1196.951</ele>
        <time>2018-12-22T15:49:51Z</time>
      </trkpt>
      <trkpt lat="44.1206" lon="5.62753">
        <ele>1198.24</ele>
        <time>2018-12-22T15:49:52Z</time>
      </trkpt>
      <trkpt lat="44.12069" lon="5.62752">
        <ele>1199.836</ele>
        <time>2018-12-22T15:49:53Z</time>
      </trkpt>
      <trkpt lat="44.12079" lon="5.62753">
        <ele>1201.491</ele>
        <time>2018-12-22T15:49:54Z</time>
      </trkpt>
      <trkpt lat="44.12088" lon="5.62755">
        <ele>1202.481</ele>
        <time>2018-12-22T15:49:55Z</time>
      </trkpt>
      <trkpt lat="44.12097" lon="5.62754">
        <ele>1202.919</ele>
        <time>2018-12-22T15:49:56Z</time>
      </trkpt>
      <trkpt lat="44.12108" lon="5.6275">
        <ele>1203.408</ele>
        <time>2018-12-22T15:49:57Z</time>
      </trkpt>
      <trkpt lat="44.1212" lon="5.62741">
        <ele>1203.552</ele>
        <time>2018-12-22T15:49:58Z</time>
      </trkpt>
      <trkpt lat="44.1213" lon="5.62735">
        <ele>1204.29</ele>
        <time>2018-12-22T15:49:59Z</time>
      </trkpt>
      <trkpt lat="44.12141" lon="5.62728">
        <ele>1205.274</ele>
        <time>2018-12-22T15:50:00Z</time>
      </trkpt>
      <trkpt lat="44.12151" lon="5.62719">
        <ele>1206.072</ele>
        <time>2018-12-22T15:50:01Z</time>
      </trkpt>
      <trkpt lat="44.12158" lon="5.62711">
        <ele>1207.213</ele>
        <time>2018-12-22T15:50:02Z</time>
      </trkpt>
      <trkpt lat="44.12166" lon="5.62703">
        <ele>1208.633</ele>
        <time>2018-12-22T15:50:03Z</time>
      </trkpt>
      <trkpt lat="44.12175" lon="5.62695">
        <ele>1209.792</ele>
        <time>2018-12-22T15:50:04Z</time>
      </trkpt>
      <trkpt lat="44.12184" lon="5.62689">
        <ele>1210.728</ele>
        <time>2018-12-22T15:50:05Z</time>
      </trkpt>
      <trkpt lat="44.12193" lon="5.62683">
        <ele>1211.817</ele>
        <time>2018-12-22T15:50:06Z</time>
      </trkpt>
      <trkpt lat="44.12203" lon="5.62677">
        <ele>1212.587</ele>
        <time>2018-12-22T15:50:07Z</time>
      </trkpt>
      <trkpt lat="44.12213" lon="5.62674">
        <ele>1213.415</ele>
        <time>2018-12-22T15:50:08Z</time>
      </trkpt>
      <trkpt lat="44.12224" lon="5.62672">
        <ele>1214.408</ele>
        <time>2018-12-22T15:50:09Z</time>
      </trkpt>
      <trkpt lat="44.12235" lon="5.6267">
        <ele>1214.984</ele>
        <time>2018-12-22T15:50:10Z</time>
      </trkpt>
      <trkpt lat="44.12245" lon="5.62665">
        <ele>1215.612</ele>
        <time>2018-12-22T15:50:11Z</time>
      </trkpt>
      <trkpt lat="44.12255" lon="5.62658">
        <ele>1216.116</ele>
        <time>2018-12-22T15:50:12Z</time>
      </trkpt>
      <trkpt lat="44.12265" lon="5.6265">
        <ele>1216.484</ele>
        <time>2018-12-22T15:50:13Z</time>
      </trkpt>
      <trkpt lat="44.12276" lon="5.62645">
        <ele>1217.415</ele>
        <time>2018-12-22T15:50:14Z</time>
      </trkpt>
      <trkpt lat="44.12288" lon="5.62646">
        <ele>1220.825</ele>
        <time>2018-12-22T15:50:15Z</time>
      </trkpt>
      <trkpt lat="44.12299" lon="5.62649">
        <ele>1220.814</ele>
        <time>2018-12-22T15:50:16Z</time>
      </trkpt>
      <trkpt lat="44.12308" lon="5.62652">
        <ele>1225.03</ele>
        <time>2018-12-22T15:50:17Z</time>
      </trkpt>
      <trkpt lat="44.12317" lon="5.62651">
        <ele>1225.073</ele>
        <time>2018-12-22T15:50:18Z</time>
      </trkpt>
      <trkpt lat="44.12323" lon="5.62647">
        <ele>1225.085</ele>
        <time>2018-12-22T15:50:19Z</time>
      </trkpt>
      <trkpt lat="44.12327" lon="5.62638">
        <ele>1226.413</ele>
        <time>2018-12-22T15:50:21Z</time>
      </trkpt>
      <trkpt lat="44.12336" lon="5.6263">
        <ele>1229.208</ele>
        <time>2018-12-22T15:50:23Z</time>
      </trkpt>
      <trkpt lat="44.12341" lon="5.62628">
        <ele>1230.88</ele>
        <time>2018-12-22T15:50:24Z</time>
      </trkpt>
      <trkpt lat="44.12346" lon="5.62625">
        <ele>1233.868</ele>
        <time>2018-12-22T15:50:25Z</time>
      </trkpt>
      <trkpt lat="44.12353" lon="5.62622">
        <ele>1235.082</ele>
        <time>2018-12-22T15:50:26Z</time>
      </trkpt>
      <trkpt lat="44.12359" lon="5.62619">
        <ele>1236.08</ele>
        <time>2018-12-22T15:50:27Z</time>
      </trkpt>
      <trkpt lat="44.12365" lon="5.62618">
        <ele>1236.441</ele>
        <time>2018-12-22T15:50:28Z</time>
      </trkpt>
      <trkpt lat="44.12371" lon="5.62617">
        <ele>1237.451</ele>
        <time>2018-12-22T15:50:29Z</time>
      </trkpt>
      <trkpt lat="44.12378" lon="5.62613">
        <ele>1238.47</ele>
        <time>2018-12-22T15:50:30Z</time>
      </trkpt>
      <trkpt lat="44.12385" lon="5.6261">
        <ele>1239.766</ele>
        <time>2018-12-22T15:50:31Z</time>
      </trkpt>
      <trkpt lat="44.12393" lon="5.62608">
        <ele>1241.432</ele>
        <time>2018-12-22T15:50:32Z</time>
      </trkpt>
      <trkpt lat="44.12399" lon="5.62606">
        <ele>1243.692</ele>
        <time>2018-12-22T15:50:33Z</time>
      </trkpt>
      <trkpt lat="44.12406" lon="5.62603">
        <ele>1245.711</ele>
        <time>2018-12-22T15:50:34Z</time>
      </trkpt>
      <trkpt lat="44.12413" lon="5.626">
        <ele>1247.408</ele>
        <time>2018-12-22T15:50:35Z</time>
      </trkpt>
      <trkpt lat="44.12421" lon="5.62598">
        <ele>1251.416</ele>
        <time>2018-12-22T15:50:36Z</time>
      </trkpt>
      <trkpt lat="44.12428" lon="5.62596">
        <ele>1253.214</ele>
        <time>2018-12-22T15:50:37Z</time>
      </trkpt>
      <trkpt lat="44.12437" lon="5.62595">
        <ele>1254.578</ele>
        <time>2018-12-22T15:50:38Z</time>
      </trkpt>
      <trkpt lat="44.12445" lon="5.62595">
        <ele>1256.496</ele>
        <time>2018-12-22T15:50:39Z</time>
      </trkpt>
      <trkpt lat="44.12455" lon="5.62594">
        <ele>1257.937</ele>
        <time>2018-12-22T15:50:40Z</time>
      </trkpt>
      <trkpt lat="44.12465" lon="5.62594">
        <ele>1259.057</ele>
        <time>2018-12-22T15:50:41Z</time>
      </trkpt>
      <trkpt lat="44.12475" lon="5.62595">
        <ele>1260.466</ele>
        <time>2018-12-22T15:50:42Z</time>
      </trkpt>
      <trkpt lat="44.12484" lon="5.62597">
        <ele>1262.012</ele>
        <time>2018-12-22T15:50:43Z</time>
      </trkpt>
      <trkpt lat="44.12491" lon="5.62599">
        <ele>1263.457</ele>
        <time>2018-12-22T15:50:44Z</time>
      </trkpt>
      <trkpt lat="44.12498" lon="5.62598">
        <ele>1265.3</ele>
        <time>2018-12-22T15:50:45Z</time>
      </trkpt>
      <trkpt lat="44.12504" lon="5.62596">
        <ele>1268.52</ele>
        <time>2018-12-22T15:50:46Z</time>
      </trkpt>
      <trkpt lat="44.1251" lon="5.62596">
        <ele>1268.508</ele>
        <time>2018-12-22T15:50:47Z</time>
      </trkpt>
      <trkpt lat="44.12515" lon="5.62596">
        <ele>1269.778</ele>
        <time>2018-12-22T15:50:48Z</time>
      </trkpt>
      <trkpt lat="44.12521" lon="5.62599">
        <ele>1270.116</ele>
        <time>2018-12-22T15:50:49Z</time>
      </trkpt>
      <trkpt lat="44.12526" lon="5.62604">
        <ele>1270.56</ele>
        <time>2018-12-22T15:50:50Z</time>
      </trkpt>
      <trkpt lat="44.12532" lon="5.62609">
        <ele>1271.238</ele>
        <time>2018-12-22T15:50:51Z</time>
      </trkpt>
      <trkpt lat="44.12538" lon="5.62614">
        <ele>1271.799</ele>
        <time>2018-12-22T15:50:52Z</time>
      </trkpt>
      <trkpt lat="44.12545" lon="5.6262">
        <ele>1272.879</ele>
        <time>2018-12-22T15:50:53Z</time>
      </trkpt>
      <trkpt lat="44.12552" lon="5.62628">
        <ele>1273.958</ele>
        <time>2018-12-22T15:50:54Z</time>
      </trkpt>
      <trkpt lat="44.12559" lon="5.62635">
        <ele>1274.254</ele>
        <time>2018-12-22T15:50:55Z</time>
      </trkpt>
      <trkpt lat="44.12568" lon="5.62641">
        <ele>1274.249</ele>
        <time>2018-12-22T15:50:56Z</time>
      </trkpt>
      <trkpt lat="44.12577" lon="5.62647">
        <ele>1274.802</ele>
        <time>2018-12-22T15:50:57Z</time>
      </trkpt>
      <trkpt lat="44.12586" lon="5.62654">
        <ele>1275.122</ele>
        <time>2018-12-22T15:50:58Z</time>
      </trkpt>
      <trkpt lat="44.12597" lon="5.62662">
        <ele>1275.308</ele>
        <time>2018-12-22T15:50:59Z</time>
      </trkpt>
      <trkpt lat="44.12608" lon="5.62669">
        <ele>1276.057</ele>
        <time>2018-12-22T15:51:00Z</time>
      </trkpt>
      <trkpt lat="44.12621" lon="5.62674">
        <ele>1277.015</ele>
        <time>2018-12-22T15:51:01Z</time>
      </trkpt>
      <trkpt lat="44.12633" lon="5.62678">
        <ele>1278.299</ele>
        <time>2018-12-22T15:51:02Z</time>
      </trkpt>
      <trkpt lat="44.12647" lon="5.62682">
        <ele>1278.257</ele>
        <time>2018-12-22T15:51:03Z</time>
      </trkpt>
      <trkpt lat="44.12661" lon="5.62686">
        <ele>1278.998</ele>
        <time>2018-12-22T15:51:04Z</time>
      </trkpt>
      <trkpt lat="44.12676" lon="5.6269">
        <ele>1280.788</ele>
        <time>2018-12-22T15:51:05Z</time>
      </trkpt>
      <trkpt lat="44.1269" lon="5.62693">
        <ele>1281.477</ele>
        <time>2018-12-22T15:51:06Z</time>
      </trkpt>
      <trkpt lat="44.12705" lon="5.62695">
        <ele>1282.623</ele>
        <time>2018-12-22T15:51:07Z</time>
      </trkpt>
      <trkpt lat="44.12721" lon="5.62697">
        <ele>1284.364</ele>
        <time>2018-12-22T15:51:08Z</time>
      </trkpt>
      <trkpt lat="44.12736" lon="5.62698">
        <ele>1286.006</ele>
        <time>2018-12-22T15:51:09Z</time>
      </trkpt>
      <trkpt lat="44.12752" lon="5.627">
        <ele>1286.916</ele>
        <time>2018-12-22T15:51:10Z</time>
      </trkpt>
      <trkpt lat="44.12768" lon="5.62702">
        <ele>1288.108</ele>
        <time>2018-12-22T15:51:11Z</time>
      </trkpt>
      <trkpt lat="44.12786" lon="5.62704">
        <ele>1289.679</ele>
        <time>2018-12-22T15:51:12Z</time>
      </trkpt>
      <trkpt lat="44.12805" lon="5.62705">
        <ele>1291.567</ele>
        <time>2018-12-22T15:51:13Z</time>
      </trkpt>
      <trkpt lat="44.12822" lon="5.62704">
        <ele>1291.821</ele>
        <time>2018-12-22T15:51:14Z</time>
      </trkpt>
      <trkpt lat="44.12839" lon="5.62703">
        <ele>1293.149</ele>
        <time>2018-12-22T15:51:15Z</time>
      </trkpt>
      <trkpt lat="44.12857" lon="5.62703">
        <ele>1293.76</ele>
        <time>2018-12-22T15:51:16Z</time>
      </trkpt>
      <trkpt lat="44.12875" lon="5.62703">
        <ele>1294.04</ele>
        <time>2018-12-22T15:51:17Z</time>
      </trkpt>
      <trkpt lat="44.12892" lon="5.62704">
        <ele>1296.139</ele>
        <time>2018-12-22T15:51:18Z</time>
      </trkpt>
      <trkpt lat="44.12909" lon="5.62705">
        <ele>1297.775</ele>
        <time>2018-12-22T15:51:19Z</time>
      </trkpt>
      <trkpt lat="44.12925" lon="5.62707">
        <ele>1298.533</ele>
        <time>2018-12-22T15:51:20Z</time>
      </trkpt>
      <trkpt lat="44.12941" lon="5.62709">
        <ele>1299.623</ele>
        <time>2018-12-22T15:51:21Z</time>
      </trkpt>
      <trkpt lat="44.12954" lon="5.62711">
        <ele>1301.615</ele>
        <time>2018-12-22T15:51:22Z</time>
      </trkpt>
      <trkpt lat="44.12968" lon="5.62713">
        <ele>1302.308</ele>
        <time>2018-12-22T15:51:23Z</time>
      </trkpt>
      <trkpt lat="44.12981" lon="5.62716">
        <ele>1302.966</ele>
        <time>2018-12-22T15:51:24Z</time>
      </trkpt>
      <trkpt lat="44.12995" lon="5.6272">
        <ele>1304.014</ele>
        <time>2018-12-22T15:51:25Z</time>
      </trkpt>
      <trkpt lat="44.1301" lon="5.62724">
        <ele>1304.598</ele>
        <time>2018-12-22T15:51:26Z</time>
      </trkpt>
      <trkpt lat="44.13024" lon="5.62727">
        <ele>1305.316</ele>
        <time>2018-12-22T15:51:27Z</time>
      </trkpt>
      <trkpt lat="44.13038" lon="5.62732">
        <ele>1306.377</ele>
        <time>2018-12-22T15:51:28Z</time>
      </trkpt>
      <trkpt lat="44.13052" lon="5.62738">
        <ele>1306.647</ele>
        <time>2018-12-22T15:51:29Z</time>
      </trkpt>
      <trkpt lat="44.13065" lon="5.62741">
        <ele>1306.976</ele>
        <time>2018-12-22T15:51:30Z</time>
      </trkpt>
      <trkpt lat="44.13079" lon="5.62743">
        <ele>1307.172</ele>
        <time>2018-12-22T15:51:31Z</time>
      </trkpt>
      <trkpt lat="44.13093" lon="5.62745">
        <ele>1307.169</ele>
        <time>2018-12-22T15:51:32Z</time>
      </trkpt>
      <trkpt lat="44.13106" lon="5.62745">
        <ele>1307.204</ele>
        <time>2018-12-22T15:51:33Z</time>
      </trkpt>
      <trkpt lat="44.1312" lon="5.62747">
        <ele>1307.024</ele>
        <time>2018-12-22T15:51:34Z</time>
      </trkpt>
      <trkpt lat="44.13132" lon="5.62752">
        <ele>1307.008</ele>
        <time>2018-12-22T15:51:35Z</time>
      </trkpt>
      <trkpt lat="44.13146" lon="5.62754">
        <ele>1306.559</ele>
        <time>2018-12-22T15:51:36Z</time>
      </trkpt>
      <trkpt lat="44.13158" lon="5.62756">
        <ele>1306.177</ele>
        <time>2018-12-22T15:51:37Z</time>
      </trkpt>
      <trkpt lat="44.13171" lon="5.62757">
        <ele>1304.451</ele>
        <time>2018-12-22T15:51:38Z</time>
      </trkpt>
      <trkpt lat="44.1319" lon="5.62754">
        <ele>1304.079</ele>
        <time>2018-12-22T15:51:39Z</time>
      </trkpt>
      <trkpt lat="44.13202" lon="5.62752">
        <ele>1303.96</ele>
        <time>2018-12-22T15:51:40Z</time>
      </trkpt>
      <trkpt lat="44.13219" lon="5.6275">
        <ele>1303.96</ele>
        <time>2018-12-22T15:51:41Z</time>
      </trkpt>
      <trkpt lat="44.13235" lon="5.62749">
        <ele>1303.849</ele>
        <time>2018-12-22T15:51:42Z</time>
      </trkpt>
      <trkpt lat="44.1325" lon="5.62747">
        <ele>1303.745</ele>
        <time>2018-12-22T15:51:43Z</time>
      </trkpt>
      <trkpt lat="44.13265" lon="5.62746">
        <ele>1303.435</ele>
        <time>2018-12-22T15:51:44Z</time>
      </trkpt>
      <trkpt lat="44.13279" lon="5.62745">
        <ele>1303.486</ele>
        <time>2018-12-22T15:51:45Z</time>
      </trkpt>
      <trkpt lat="44.13292" lon="5.62745">
        <ele>1303.614</ele>
        <time>2018-12-22T15:51:46Z</time>
      </trkpt>
      <trkpt lat="44.133" lon="5.62747">
        <ele>1304.008</ele>
        <time>2018-12-22T15:51:47Z</time>
      </trkpt>
      <trkpt lat="44.13311" lon="5.6275">
        <ele>1304.786</ele>
        <time>2018-12-22T15:51:48Z</time>
      </trkpt>
      <trkpt lat="44.13321" lon="5.62752">
        <ele>1306.014</ele>
        <time>2018-12-22T15:51:49Z</time>
      </trkpt>
      <trkpt lat="44.1333" lon="5.62757">
        <ele>1306.718</ele>
        <time>2018-12-22T15:51:50Z</time>
      </trkpt>
      <trkpt lat="44.13337" lon="5.62759">
        <ele>1306.536</ele>
        <time>2018-12-22T15:51:51Z</time>
      </trkpt>
      <trkpt lat="44.13346" lon="5.62758">
        <ele>1306.047</ele>
        <time>2018-12-22T15:51:52Z</time>
      </trkpt>
      <trkpt lat="44.13354" lon="5.62756">
        <ele>1305.437</ele>
        <time>2018-12-22T15:51:53Z</time>
      </trkpt>
      <trkpt lat="44.13365" lon="5.62752">
        <ele>1304.496</ele>
        <time>2018-12-22T15:51:54Z</time>
      </trkpt>
      <trkpt lat="44.13375" lon="5.62749">
        <ele>1303.982</ele>
        <time>2018-12-22T15:51:55Z</time>
      </trkpt>
      <trkpt lat="44.13386" lon="5.62746">
        <ele>1303.924</ele>
        <time>2018-12-22T15:51:56Z</time>
      </trkpt>
      <trkpt lat="44.13396" lon="5.62743">
        <ele>1303.904</ele>
        <time>2018-12-22T15:51:57Z</time>
      </trkpt>
      <trkpt lat="44.13407" lon="5.62742">
        <ele>1304.114</ele>
        <time>2018-12-22T15:51:58Z</time>
      </trkpt>
      <trkpt lat="44.13417" lon="5.62742">
        <ele>1305.108</ele>
        <time>2018-12-22T15:51:59Z</time>
      </trkpt>
      <trkpt lat="44.13427" lon="5.62742">
        <ele>1305.545</ele>
        <time>2018-12-22T15:52:00Z</time>
      </trkpt>
      <trkpt lat="44.13438" lon="5.62743">
        <ele>1305.783</ele>
        <time>2018-12-22T15:52:01Z</time>
      </trkpt>
      <trkpt lat="44.13452" lon="5.62742">
        <ele>1305.747</ele>
        <time>2018-12-22T15:52:02Z</time>
      </trkpt>
      <trkpt lat="44.13465" lon="5.62742">
        <ele>1305.855</ele>
        <time>2018-12-22T15:52:03Z</time>
      </trkpt>
      <trkpt lat="44.13477" lon="5.62742">
        <ele>1306.286</ele>
        <time>2018-12-22T15:52:04Z</time>
      </trkpt>
      <trkpt lat="44.13489" lon="5.62743">
        <ele>1306.526</ele>
        <time>2018-12-22T15:52:05Z</time>
      </trkpt>
      <trkpt lat="44.135" lon="5.62744">
        <ele>1307.245</ele>
        <time>2018-12-22T15:52:06Z</time>
      </trkpt>
      <trkpt lat="44.1351" lon="5.62746">
        <ele>1308.231</ele>
        <time>2018-12-22T15:52:07Z</time>
      </trkpt>
      <trkpt lat="44.13518" lon="5.62747">
        <ele>1309.086</ele>
        <time>2018-12-22T15:52:08Z</time>
      </trkpt>
      <trkpt lat="44.13527" lon="5.62752">
        <ele>1309.66</ele>
        <time>2018-12-22T15:52:09Z</time>
      </trkpt>
      <trkpt lat="44.13534" lon="5.62758">
        <ele>1310.226</ele>
        <time>2018-12-22T15:52:10Z</time>
      </trkpt>
      <trkpt lat="44.13541" lon="5.62767">
        <ele>1310.808</ele>
        <time>2018-12-22T15:52:11Z</time>
      </trkpt>
      <trkpt lat="44.13549" lon="5.62772">
        <ele>1311.111</ele>
        <time>2018-12-22T15:52:12Z</time>
      </trkpt>
      <trkpt lat="44.13557" lon="5.62779">
        <ele>1311.879</ele>
        <time>2018-12-22T15:52:13Z</time>
      </trkpt>
      <trkpt lat="44.13566" lon="5.62785">
        <ele>1312.753</ele>
        <time>2018-12-22T15:52:14Z</time>
      </trkpt>
      <trkpt lat="44.13575" lon="5.62788">
        <ele>1313.961</ele>
        <time>2018-12-22T15:52:15Z</time>
      </trkpt>
      <trkpt lat="44.13587" lon="5.6279">
        <ele>1314.032</ele>
        <time>2018-12-22T15:52:16Z</time>
      </trkpt>
      <trkpt lat="44.13599" lon="5.62788">
        <ele>1314.062</ele>
        <time>2018-12-22T15:52:17Z</time>
      </trkpt>
      <trkpt lat="44.13611" lon="5.62787">
        <ele>1313.681</ele>
        <time>2018-12-22T15:52:18Z</time>
      </trkpt>
      <trkpt lat="44.13624" lon="5.62786">
        <ele>1311.347</ele>
        <time>2018-12-22T15:52:19Z</time>
      </trkpt>
      <trkpt lat="44.13637" lon="5.62785">
        <ele>1311.347</ele>
        <time>2018-12-22T15:52:20Z</time>
      </trkpt>
      <trkpt lat="44.13648" lon="5.62785">
        <ele>1311.329</ele>
        <time>2018-12-22T15:52:21Z</time>
      </trkpt>
      <trkpt lat="44.13658" lon="5.62783">
        <ele>1310.621</ele>
        <time>2018-12-22T15:52:22Z</time>
      </trkpt>
      <trkpt lat="44.1367" lon="5.62784">
        <ele>1310.608</ele>
        <time>2018-12-22T15:52:23Z</time>
      </trkpt>
      <trkpt lat="44.1368" lon="5.62787">
        <ele>1310.687</ele>
        <time>2018-12-22T15:52:24Z</time>
      </trkpt>
      <trkpt lat="44.13692" lon="5.62791">
        <ele>1310.625</ele>
        <time>2018-12-22T15:52:25Z</time>
      </trkpt>
      <trkpt lat="44.13704" lon="5.62796">
        <ele>1308.559</ele>
        <time>2018-12-22T15:52:26Z</time>
      </trkpt>
      <trkpt lat="44.13716" lon="5.62803">
        <ele>1307.377</ele>
        <time>2018-12-22T15:52:27Z</time>
      </trkpt>
      <trkpt lat="44.13727" lon="5.62813">
        <ele>1305.988</ele>
        <time>2018-12-22T15:52:28Z</time>
      </trkpt>
      <trkpt lat="44.13738" lon="5.62821">
        <ele>1305.388</ele>
        <time>2018-12-22T15:52:29Z</time>
      </trkpt>
      <trkpt lat="44.13752" lon="5.62825">
        <ele>1304.357</ele>
        <time>2018-12-22T15:52:30Z</time>
      </trkpt>
      <trkpt lat="44.13765" lon="5.62827">
        <ele>1303.513</ele>
        <time>2018-12-22T15:52:31Z</time>
      </trkpt>
      <trkpt lat="44.13779" lon="5.62826">
        <ele>1303.347</ele>
        <time>2018-12-22T15:52:32Z</time>
      </trkpt>
      <trkpt lat="44.13791" lon="5.62826">
        <ele>1302.829</ele>
        <time>2018-12-22T15:52:33Z</time>
      </trkpt>
      <trkpt lat="44.13802" lon="5.62828">
        <ele>1302.021</ele>
        <time>2018-12-22T15:52:34Z</time>
      </trkpt>
      <trkpt lat="44.13813" lon="5.62829">
        <ele>1302.008</ele>
        <time>2018-12-22T15:52:35Z</time>
      </trkpt>
      <trkpt lat="44.13823" lon="5.62833">
        <ele>1302.117</ele>
        <time>2018-12-22T15:52:36Z</time>
      </trkpt>
      <trkpt lat="44.13834" lon="5.62837">
        <ele>1302.315</ele>
        <time>2018-12-22T15:52:37Z</time>
      </trkpt>
      <trkpt lat="44.13845" lon="5.62842">
        <ele>1302.959</ele>
        <time>2018-12-22T15:52:38Z</time>
      </trkpt>
      <trkpt lat="44.13856" lon="5.62847">
        <ele>1303.297</ele>
        <time>2018-12-22T15:52:39Z</time>
      </trkpt>
      <trkpt lat="44.13867" lon="5.62852">
        <ele>1303.548</ele>
        <time>2018-12-22T15:52:40Z</time>
      </trkpt>
      <trkpt lat="44.13877" lon="5.62857">
        <ele>1303.728</ele>
        <time>2018-12-22T15:52:41Z</time>
      </trkpt>
      <trkpt lat="44.13887" lon="5.62862">
        <ele>1304.367</ele>
        <time>2018-12-22T15:52:42Z</time>
      </trkpt>
      <trkpt lat="44.13897" lon="5.62867">
        <ele>1304.923</ele>
        <time>2018-12-22T15:52:43Z</time>
      </trkpt>
      <trkpt lat="44.13907" lon="5.62873">
        <ele>1305.155</ele>
        <time>2018-12-22T15:52:44Z</time>
      </trkpt>
      <trkpt lat="44.13917" lon="5.62878">
        <ele>1305.807</ele>
        <time>2018-12-22T15:52:45Z</time>
      </trkpt>
      <trkpt lat="44.13927" lon="5.62884">
        <ele>1306.017</ele>
        <time>2018-12-22T15:52:46Z</time>
      </trkpt>
      <trkpt lat="44.13937" lon="5.62889">
        <ele>1306.008</ele>
        <time>2018-12-22T15:52:47Z</time>
      </trkpt>
      <trkpt lat="44.13945" lon="5.62894">
        <ele>1305.788</ele>
        <time>2018-12-22T15:52:48Z</time>
      </trkpt>
      <trkpt lat="44.13954" lon="5.62901">
        <ele>1305.786</ele>
        <time>2018-12-22T15:52:49Z</time>
      </trkpt>
      <trkpt lat="44.13962" lon="5.62909">
        <ele>1305.71</ele>
        <time>2018-12-22T15:52:50Z</time>
      </trkpt>
      <trkpt lat="44.13971" lon="5.62919">
        <ele>1305.768</ele>
        <time>2018-12-22T15:52:51Z</time>
      </trkpt>
      <trkpt lat="44.13979" lon="5.62929">
        <ele>1305.619</ele>
        <time>2018-12-22T15:52:52Z</time>
      </trkpt>
      <trkpt lat="44.13988" lon="5.62939">
        <ele>1304.779</ele>
        <time>2018-12-22T15:52:53Z</time>
      </trkpt>
      <trkpt lat="44.13997" lon="5.62948">
        <ele>1304.138</ele>
        <time>2018-12-22T15:52:54Z</time>
      </trkpt>
      <trkpt lat="44.14006" lon="5.62958">
        <ele>1303.294</ele>
        <time>2018-12-22T15:52:55Z</time>
      </trkpt>
      <trkpt lat="44.14015" lon="5.62969">
        <ele>1302.486</ele>
        <time>2018-12-22T15:52:56Z</time>
      </trkpt>
      <trkpt lat="44.14024" lon="5.6298">
        <ele>1302.46</ele>
        <time>2018-12-22T15:52:57Z</time>
      </trkpt>
      <trkpt lat="44.14032" lon="5.62989">
        <ele>1302.626</ele>
        <time>2018-12-22T15:52:58Z</time>
      </trkpt>
      <trkpt lat="44.1404" lon="5.62998">
        <ele>1302.908</ele>
        <time>2018-12-22T15:52:59Z</time>
      </trkpt>
      <trkpt lat="44.14047" lon="5.63006">
        <ele>1303.251</ele>
        <time>2018-12-22T15:53:00Z</time>
      </trkpt>
      <trkpt lat="44.14052" lon="5.63015">
        <ele>1303.569</ele>
        <time>2018-12-22T15:53:01Z</time>
      </trkpt>
      <trkpt lat="44.14056" lon="5.63024">
        <ele>1303.963</ele>
        <time>2018-12-22T15:53:02Z</time>
      </trkpt>
      <trkpt lat="44.14059" lon="5.63031">
        <ele>1304.361</ele>
        <time>2018-12-22T15:53:03Z</time>
      </trkpt>
      <trkpt lat="44.14063" lon="5.63038">
        <ele>1304.812</ele>
        <time>2018-12-22T15:53:04Z</time>
      </trkpt>
      <trkpt lat="44.14067" lon="5.63044">
        <ele>1305.022</ele>
        <time>2018-12-22T15:53:05Z</time>
      </trkpt>
      <trkpt lat="44.14071" lon="5.63051">
        <ele>1305.051</ele>
        <time>2018-12-22T15:53:06Z</time>
      </trkpt>
      <trkpt lat="44.14075" lon="5.63059">
        <ele>1304.937</ele>
        <time>2018-12-22T15:53:07Z</time>
      </trkpt>
      <trkpt lat="44.14079" lon="5.63067">
        <ele>1304.865</ele>
        <time>2018-12-22T15:53:08Z</time>
      </trkpt>
      <trkpt lat="44.14084" lon="5.63076">
        <ele>1304.668</ele>
        <time>2018-12-22T15:53:09Z</time>
      </trkpt>
      <trkpt lat="44.14088" lon="5.63084">
        <ele>1304.514</ele>
        <time>2018-12-22T15:53:10Z</time>
      </trkpt>
      <trkpt lat="44.14092" lon="5.63092">
        <ele>1304.408</ele>
        <time>2018-12-22T15:53:11Z</time>
      </trkpt>
      <trkpt lat="44.14097" lon="5.63101">
        <ele>1304.099</ele>
        <time>2018-12-22T15:53:12Z</time>
      </trkpt>
      <trkpt lat="44.14102" lon="5.63112">
        <ele>1303.227</ele>
        <time>2018-12-22T15:53:13Z</time>
      </trkpt>
      <trkpt lat="44.14105" lon="5.63125">
        <ele>1301.521</ele>
        <time>2018-12-22T15:53:14Z</time>
      </trkpt>
      <trkpt lat="44.14107" lon="5.6314">
        <ele>1300.959</ele>
        <time>2018-12-22T15:53:15Z</time>
      </trkpt>
      <trkpt lat="44.14109" lon="5.63153">
        <ele>1300.94</ele>
        <time>2018-12-22T15:53:16Z</time>
      </trkpt>
      <trkpt lat="44.1411" lon="5.63165">
        <ele>1301.16</ele>
        <time>2018-12-22T15:53:17Z</time>
      </trkpt>
      <trkpt lat="44.14111" lon="5.63177">
        <ele>1301.529</ele>
        <time>2018-12-22T15:53:18Z</time>
      </trkpt>
      <trkpt lat="44.14113" lon="5.63189">
        <ele>1302.385</ele>
        <time>2018-12-22T15:53:19Z</time>
      </trkpt>
      <trkpt lat="44.14115" lon="5.63199">
        <ele>1302.939</ele>
        <time>2018-12-22T15:53:20Z</time>
      </trkpt>
      <trkpt lat="44.14117" lon="5.63208">
        <ele>1303.501</ele>
        <time>2018-12-22T15:53:21Z</time>
      </trkpt>
      <trkpt lat="44.1412" lon="5.63218">
        <ele>1303.621</ele>
        <time>2018-12-22T15:53:22Z</time>
      </trkpt>
      <trkpt lat="44.14123" lon="5.63229">
        <ele>1303.608</ele>
        <time>2018-12-22T15:53:23Z</time>
      </trkpt>
      <trkpt lat="44.14126" lon="5.63239">
        <ele>1303.596</ele>
        <time>2018-12-22T15:53:24Z</time>
      </trkpt>
      <trkpt lat="44.1413" lon="5.63249">
        <ele>1303.184</ele>
        <time>2018-12-22T15:53:25Z</time>
      </trkpt>
      <trkpt lat="44.14132" lon="5.63258">
        <ele>1302.628</ele>
        <time>2018-12-22T15:53:26Z</time>
      </trkpt>
      <trkpt lat="44.14137" lon="5.63269">
        <ele>1301.826</ele>
        <time>2018-12-22T15:53:27Z</time>
      </trkpt>
      <trkpt lat="44.14141" lon="5.6328">
        <ele>1301.657</ele>
        <time>2018-12-22T15:53:28Z</time>
      </trkpt>
      <trkpt lat="44.14143" lon="5.63292">
        <ele>1301.287</ele>
        <time>2018-12-22T15:53:29Z</time>
      </trkpt>
      <trkpt lat="44.14143" lon="5.63305">
        <ele>1300.796</ele>
        <time>2018-12-22T15:53:30Z</time>
      </trkpt>
      <trkpt lat="44.14144" lon="5.63319">
        <ele>1300.412</ele>
        <time>2018-12-22T15:53:31Z</time>
      </trkpt>
      <trkpt lat="44.14142" lon="5.63334">
        <ele>1299.891</ele>
        <time>2018-12-22T15:53:32Z</time>
      </trkpt>
      <trkpt lat="44.1414" lon="5.63348">
        <ele>1299.481</ele>
        <time>2018-12-22T15:53:33Z</time>
      </trkpt>
      <trkpt lat="44.14138" lon="5.63363">
        <ele>1299.419</ele>
        <time>2018-12-22T15:53:34Z</time>
      </trkpt>
      <trkpt lat="44.14137" lon="5.63376">
        <ele>1299.408</ele>
        <time>2018-12-22T15:53:35Z</time>
      </trkpt>
      <trkpt lat="44.14136" lon="5.63389">
        <ele>1299.462</ele>
        <time>2018-12-22T15:53:36Z</time>
      </trkpt>
      <trkpt lat="44.14136" lon="5.63401">
        <ele>1299.06</ele>
        <time>2018-12-22T15:53:37Z</time>
      </trkpt>
      <trkpt lat="44.14135" lon="5.63414">
        <ele>1299.014</ele>
        <time>2018-12-22T15:53:38Z</time>
      </trkpt>
      <trkpt lat="44.14133" lon="5.63428">
        <ele>1297.362</ele>
        <time>2018-12-22T15:53:39Z</time>
      </trkpt>
      <trkpt lat="44.14131" lon="5.63442">
        <ele>1296.573</ele>
        <time>2018-12-22T15:53:40Z</time>
      </trkpt>
      <trkpt lat="44.14127" lon="5.63456">
        <ele>1295.953</ele>
        <time>2018-12-22T15:53:41Z</time>
      </trkpt>
      <trkpt lat="44.14122" lon="5.6347">
        <ele>1295.382</ele>
        <time>2018-12-22T15:53:42Z</time>
      </trkpt>
      <trkpt lat="44.14116" lon="5.63485">
        <ele>1295.048</ele>
        <time>2018-12-22T15:53:43Z</time>
      </trkpt>
      <trkpt lat="44.1411" lon="5.635">
        <ele>1294.584</ele>
        <time>2018-12-22T15:53:44Z</time>
      </trkpt>
      <trkpt lat="44.14104" lon="5.63514">
        <ele>1294.307</ele>
        <time>2018-12-22T15:53:45Z</time>
      </trkpt>
      <trkpt lat="44.14097" lon="5.63527">
        <ele>1294.317</ele>
        <time>2018-12-22T15:53:46Z</time>
      </trkpt>
      <trkpt lat="44.1409" lon="5.63541">
        <ele>1294.508</ele>
        <time>2018-12-22T15:53:47Z</time>
      </trkpt>
      <trkpt lat="44.14084" lon="5.63554">
        <ele>1294.791</ele>
        <time>2018-12-22T15:53:48Z</time>
      </trkpt>
      <trkpt lat="44.14079" lon="5.63565">
        <ele>1295.269</ele>
        <time>2018-12-22T15:53:49Z</time>
      </trkpt>
      <trkpt lat="44.14075" lon="5.63577">
        <ele>1295.963</ele>
        <time>2018-12-22T15:53:50Z</time>
      </trkpt>
      <trkpt lat="44.14072" lon="5.63586">
        <ele>1296.681</ele>
        <time>2018-12-22T15:53:51Z</time>
      </trkpt>
      <trkpt lat="44.14066" lon="5.63594">
        <ele>1296.972</ele>
        <time>2018-12-22T15:53:52Z</time>
      </trkpt>
      <trkpt lat="44.14059" lon="5.63601">
        <ele>1297.492</ele>
        <time>2018-12-22T15:53:53Z</time>
      </trkpt>
      <trkpt lat="44.14054" lon="5.63606">
        <ele>1297.751</ele>
        <time>2018-12-22T15:53:54Z</time>
      </trkpt>
      <trkpt lat="44.1405" lon="5.6361">
        <ele>1297.977</ele>
        <time>2018-12-22T15:53:55Z</time>
      </trkpt>
      <trkpt lat="44.14043" lon="5.63614">
        <ele>1298.669</ele>
        <time>2018-12-22T15:53:57Z</time>
      </trkpt>
      <trkpt lat="44.14049" lon="5.63612">
        <ele>1297.304</ele>
        <time>2018-12-22T15:54:29Z</time>
      </trkpt>
      <trkpt lat="44.14053" lon="5.63604">
        <ele>1296.924</ele>
        <time>2018-12-22T15:54:31Z</time>
      </trkpt>
      <trkpt lat="44.1406" lon="5.63595">
        <ele>1296.608</ele>
        <time>2018-12-22T15:54:33Z</time>
      </trkpt>
      <trkpt lat="44.14065" lon="5.6359">
        <ele>1296.339</ele>
        <time>2018-12-22T15:54:34Z</time>
      </trkpt>
      <trkpt lat="44.14072" lon="5.63584">
        <ele>1295.987</ele>
        <time>2018-12-22T15:54:35Z</time>
      </trkpt>
      <trkpt lat="44.14082" lon="5.63575">
        <ele>1295.191</ele>
        <time>2018-12-22T15:54:36Z</time>
      </trkpt>
      <trkpt lat="44.14093" lon="5.63564">
        <ele>1294.899</ele>
        <time>2018-12-22T15:54:37Z</time>
      </trkpt>
      <trkpt lat="44.14108" lon="5.6355">
        <ele>1293.94</ele>
        <time>2018-12-22T15:54:38Z</time>
      </trkpt>
      <trkpt lat="44.14123" lon="5.63536">
        <ele>1290.72</ele>
        <time>2018-12-22T15:54:39Z</time>
      </trkpt>
      <trkpt lat="44.14138" lon="5.63524">
        <ele>1288.829</ele>
        <time>2018-12-22T15:54:40Z</time>
      </trkpt>
      <trkpt lat="44.14153" lon="5.63516">
        <ele>1287.335</ele>
        <time>2018-12-22T15:54:41Z</time>
      </trkpt>
      <trkpt lat="44.14167" lon="5.63515">
        <ele>1287.372</ele>
        <time>2018-12-22T15:54:42Z</time>
      </trkpt>
      <trkpt lat="44.14179" lon="5.63514">
        <ele>1287.313</ele>
        <time>2018-12-22T15:54:43Z</time>
      </trkpt>
      <trkpt lat="44.1419" lon="5.63512">
        <ele>1288.514</ele>
        <time>2018-12-22T15:54:44Z</time>
      </trkpt>
      <trkpt lat="44.14199" lon="5.63511">
        <ele>1290.208</ele>
        <time>2018-12-22T15:54:45Z</time>
      </trkpt>
      <trkpt lat="44.14207" lon="5.63508">
        <ele>1291.43</ele>
        <time>2018-12-22T15:54:46Z</time>
      </trkpt>
      <trkpt lat="44.14215" lon="5.63504">
        <ele>1292.578</ele>
        <time>2018-12-22T15:54:47Z</time>
      </trkpt>
      <trkpt lat="44.14224" lon="5.635">
        <ele>1293.252</ele>
        <time>2018-12-22T15:54:48Z</time>
      </trkpt>
      <trkpt lat="44.14233" lon="5.63497">
        <ele>1293.62</ele>
        <time>2018-12-22T15:54:49Z</time>
      </trkpt>
      <trkpt lat="44.14242" lon="5.63495">
        <ele>1293.651</ele>
        <time>2018-12-22T15:54:50Z</time>
      </trkpt>
      <trkpt lat="44.14252" lon="5.63491">
        <ele>1293.871</ele>
        <time>2018-12-22T15:54:51Z</time>
      </trkpt>
      <trkpt lat="44.14264" lon="5.63488">
        <ele>1294.34</ele>
        <time>2018-12-22T15:54:52Z</time>
      </trkpt>
      <trkpt lat="44.14275" lon="5.63486">
        <ele>1294.736</ele>
        <time>2018-12-22T15:54:53Z</time>
      </trkpt>
      <trkpt lat="44.14285" lon="5.63483">
        <ele>1295.471</ele>
        <time>2018-12-22T15:54:54Z</time>
      </trkpt>
      <trkpt lat="44.14295" lon="5.63479">
        <ele>1296.641</ele>
        <time>2018-12-22T15:54:55Z</time>
      </trkpt>
      <trkpt lat="44.14306" lon="5.63475">
        <ele>1297.415</ele>
        <time>2018-12-22T15:54:56Z</time>
      </trkpt>
      <trkpt lat="44.14315" lon="5.63469">
        <ele>1297.908</ele>
        <time>2018-12-22T15:54:57Z</time>
      </trkpt>
      <trkpt lat="44.14323" lon="5.63463">
        <ele>1298.72</ele>
        <time>2018-12-22T15:54:58Z</time>
      </trkpt>
      <trkpt lat="44.1433" lon="5.63458">
        <ele>1299.478</ele>
        <time>2018-12-22T15:54:59Z</time>
      </trkpt>
      <trkpt lat="44.14336" lon="5.63454">
        <ele>1300.292</ele>
        <time>2018-12-22T15:55:00Z</time>
      </trkpt>
      <trkpt lat="44.1434" lon="5.63451">
        <ele>1300.75</ele>
        <time>2018-12-22T15:55:01Z</time>
      </trkpt>
      <trkpt lat="44.14345" lon="5.63448">
        <ele>1301.361</ele>
        <time>2018-12-22T15:55:02Z</time>
      </trkpt>
      <trkpt lat="44.14351" lon="5.63445">
        <ele>1302.041</ele>
        <time>2018-12-22T15:55:03Z</time>
      </trkpt>
      <trkpt lat="44.14355" lon="5.63443">
        <ele>1302.04</ele>
        <time>2018-12-22T15:55:04Z</time>
      </trkpt>
      <trkpt lat="44.1436" lon="5.63441">
        <ele>1302.016</ele>
        <time>2018-12-22T15:55:05Z</time>
      </trkpt>
      <trkpt lat="44.14365" lon="5.63442">
        <ele>1302.054</ele>
        <time>2018-12-22T15:55:06Z</time>
      </trkpt>
      <trkpt lat="44.1437" lon="5.63444">
        <ele>1302.356</ele>
        <time>2018-12-22T15:55:07Z</time>
      </trkpt>
      <trkpt lat="44.14376" lon="5.63447">
        <ele>1303.111</ele>
        <time>2018-12-22T15:55:08Z</time>
      </trkpt>
      <trkpt lat="44.1438" lon="5.63451">
        <ele>1304.308</ele>
        <time>2018-12-22T15:55:09Z</time>
      </trkpt>
      <trkpt lat="44.14386" lon="5.63455">
        <ele>1305.648</ele>
        <time>2018-12-22T15:55:10Z</time>
      </trkpt>
      <trkpt lat="44.14392" lon="5.63459">
        <ele>1306.746</ele>
        <time>2018-12-22T15:55:11Z</time>
      </trkpt>
      <trkpt lat="44.14399" lon="5.63463">
        <ele>1307.59</ele>
        <time>2018-12-22T15:55:12Z</time>
      </trkpt>
      <trkpt lat="44.14406" lon="5.63464">
        <ele>1307.818</ele>
        <time>2018-12-22T15:55:13Z</time>
      </trkpt>
      <trkpt lat="44.14415" lon="5.63466">
        <ele>1307.929</ele>
        <time>2018-12-22T15:55:14Z</time>
      </trkpt>
      <trkpt lat="44.14424" lon="5.63469">
        <ele>1308.039</ele>
        <time>2018-12-22T15:55:15Z</time>
      </trkpt>
      <trkpt lat="44.14434" lon="5.63473">
        <ele>1308.058</ele>
        <time>2018-12-22T15:55:16Z</time>
      </trkpt>
      <trkpt lat="44.14442" lon="5.63477">
        <ele>1308.054</ele>
        <time>2018-12-22T15:55:17Z</time>
      </trkpt>
      <trkpt lat="44.14451" lon="5.63482">
        <ele>1307.743</ele>
        <time>2018-12-22T15:55:18Z</time>
      </trkpt>
      <trkpt lat="44.14461" lon="5.63486">
        <ele>1307.664</ele>
        <time>2018-12-22T15:55:19Z</time>
      </trkpt>
      <trkpt lat="44.14471" lon="5.63488">
        <ele>1307.61</ele>
        <time>2018-12-22T15:55:20Z</time>
      </trkpt>
      <trkpt lat="44.14482" lon="5.63489">
        <ele>1307.608</ele>
        <time>2018-12-22T15:55:21Z</time>
      </trkpt>
      <trkpt lat="44.14493" lon="5.63491">
        <ele>1307.697</ele>
        <time>2018-12-22T15:55:22Z</time>
      </trkpt>
      <trkpt lat="44.14504" lon="5.63494">
        <ele>1307.775</ele>
        <time>2018-12-22T15:55:23Z</time>
      </trkpt>
      <trkpt lat="44.14516" lon="5.63498">
        <ele>1308.259</ele>
        <time>2018-12-22T15:55:24Z</time>
      </trkpt>
      <trkpt lat="44.14528" lon="5.63502">
        <ele>1308.487</ele>
        <time>2018-12-22T15:55:25Z</time>
      </trkpt>
      <trkpt lat="44.14539" lon="5.63506">
        <ele>1308.688</ele>
        <time>2018-12-22T15:55:26Z</time>
      </trkpt>
      <trkpt lat="44.1455" lon="5.6351">
        <ele>1309.928</ele>
        <time>2018-12-22T15:55:27Z</time>
      </trkpt>
      <trkpt lat="44.1456" lon="5.63514">
        <ele>1310.677</ele>
        <time>2018-12-22T15:55:28Z</time>
      </trkpt>
      <trkpt lat="44.14571" lon="5.63518">
        <ele>1312.273</ele>
        <time>2018-12-22T15:55:29Z</time>
      </trkpt>
      <trkpt lat="44.14582" lon="5.63522">
        <ele>1313.778</ele>
        <time>2018-12-22T15:55:30Z</time>
      </trkpt>
      <trkpt lat="44.14591" lon="5.63527">
        <ele>1315.133</ele>
        <time>2018-12-22T15:55:31Z</time>
      </trkpt>
      <trkpt lat="44.14601" lon="5.63531">
        <ele>1316.926</ele>
        <time>2018-12-22T15:55:32Z</time>
      </trkpt>
      <trkpt lat="44.14611" lon="5.63535">
        <ele>1318.308</ele>
        <time>2018-12-22T15:55:33Z</time>
      </trkpt>
      <trkpt lat="44.1462" lon="5.63538">
        <ele>1319.22</ele>
        <time>2018-12-22T15:55:34Z</time>
      </trkpt>
      <trkpt lat="44.14629" lon="5.63541">
        <ele>1320.598</ele>
        <time>2018-12-22T15:55:35Z</time>
      </trkpt>
      <trkpt lat="44.14639" lon="5.63545">
        <ele>1321.522</ele>
        <time>2018-12-22T15:55:36Z</time>
      </trkpt>
      <trkpt lat="44.14651" lon="5.63547">
        <ele>1322.49</ele>
        <time>2018-12-22T15:55:37Z</time>
      </trkpt>
      <trkpt lat="44.14662" lon="5.6355">
        <ele>1323.541</ele>
        <time>2018-12-22T15:55:38Z</time>
      </trkpt>
      <trkpt lat="44.14673" lon="5.63554">
        <ele>1324.691</ele>
        <time>2018-12-22T15:55:39Z</time>
      </trkpt>
      <trkpt lat="44.14684" lon="5.63558">
        <ele>1325.68</ele>
        <time>2018-12-22T15:55:40Z</time>
      </trkpt>
      <trkpt lat="44.14694" lon="5.63561">
        <ele>1326.156</ele>
        <time>2018-12-22T15:55:41Z</time>
      </trkpt>
      <trkpt lat="44.14706" lon="5.63565">
        <ele>1326.718</ele>
        <time>2018-12-22T15:55:42Z</time>
      </trkpt>
      <trkpt lat="44.14717" lon="5.63569">
        <ele>1327.498</ele>
        <time>2018-12-22T15:55:43Z</time>
      </trkpt>
      <trkpt lat="44.14728" lon="5.63572">
        <ele>1328.417</ele>
        <time>2018-12-22T15:55:44Z</time>
      </trkpt>
      <trkpt lat="44.14737" lon="5.63576">
        <ele>1329.208</ele>
        <time>2018-12-22T15:55:45Z</time>
      </trkpt>
      <trkpt lat="44.14745" lon="5.63579">
        <ele>1330.524</ele>
        <time>2018-12-22T15:55:46Z</time>
      </trkpt>
      <trkpt lat="44.14753" lon="5.63582">
        <ele>1332.162</ele>
        <time>2018-12-22T15:55:47Z</time>
      </trkpt>
      <trkpt lat="44.1476" lon="5.63584">
        <ele>1333.626</ele>
        <time>2018-12-22T15:55:48Z</time>
      </trkpt>
      <trkpt lat="44.14769" lon="5.63585">
        <ele>1334.864</ele>
        <time>2018-12-22T15:55:49Z</time>
      </trkpt>
      <trkpt lat="44.14778" lon="5.63587">
        <ele>1337.095</ele>
        <time>2018-12-22T15:55:50Z</time>
      </trkpt>
      <trkpt lat="44.14787" lon="5.63588">
        <ele>1337.765</ele>
        <time>2018-12-22T15:55:51Z</time>
      </trkpt>
      <trkpt lat="44.14795" lon="5.6359">
        <ele>1338.784</ele>
        <time>2018-12-22T15:55:52Z</time>
      </trkpt>
      <trkpt lat="44.14804" lon="5.63593">
        <ele>1339.93</ele>
        <time>2018-12-22T15:55:53Z</time>
      </trkpt>
      <trkpt lat="44.14809" lon="5.63596">
        <ele>1340.828</ele>
        <time>2018-12-22T15:55:54Z</time>
      </trkpt>
      <trkpt lat="44.14817" lon="5.636">
        <ele>1341.989</ele>
        <time>2018-12-22T15:55:55Z</time>
      </trkpt>
      <trkpt lat="44.14824" lon="5.63602">
        <ele>1343.117</ele>
        <time>2018-12-22T15:55:56Z</time>
      </trkpt>
      <trkpt lat="44.14833" lon="5.63601">
        <ele>1344.208</ele>
        <time>2018-12-22T15:55:57Z</time>
      </trkpt>
      <trkpt lat="44.14842" lon="5.63597">
        <ele>1345.145</ele>
        <time>2018-12-22T15:55:58Z</time>
      </trkpt>
      <trkpt lat="44.14851" lon="5.63592">
        <ele>1346.353</ele>
        <time>2018-12-22T15:55:59Z</time>
      </trkpt>
      <trkpt lat="44.14859" lon="5.63586">
        <ele>1347.227</ele>
        <time>2018-12-22T15:56:00Z</time>
      </trkpt>
      <trkpt lat="44.14868" lon="5.6358">
        <ele>1347.835</ele>
        <time>2018-12-22T15:56:01Z</time>
      </trkpt>
      <trkpt lat="44.14875" lon="5.63572">
        <ele>1349.596</ele>
        <time>2018-12-22T15:56:02Z</time>
      </trkpt>
      <trkpt lat="44.14882" lon="5.63564">
        <ele>1349.526</ele>
        <time>2018-12-22T15:56:03Z</time>
      </trkpt>
      <trkpt lat="44.14886" lon="5.63557">
        <ele>1350.185</ele>
        <time>2018-12-22T15:56:04Z</time>
      </trkpt>
      <trkpt lat="44.1489" lon="5.63552">
        <ele>1351.241</ele>
        <time>2018-12-22T15:56:05Z</time>
      </trkpt>
      <trkpt lat="44.14894" lon="5.63549">
        <ele>1352.211</ele>
        <time>2018-12-22T15:56:06Z</time>
      </trkpt>
      <trkpt lat="44.14901" lon="5.6355">
        <ele>1355.121</ele>
        <time>2018-12-22T15:56:08Z</time>
      </trkpt>
      <trkpt lat="44.14907" lon="5.6355">
        <ele>1357.303</ele>
        <time>2018-12-22T15:56:10Z</time>
      </trkpt>
      <trkpt lat="44.14912" lon="5.63549">
        <ele>1359.108</ele>
        <time>2018-12-22T15:56:19Z</time>
      </trkpt>
      <trkpt lat="44.14914" lon="5.63561">
        <ele>1358.854</ele>
        <time>2018-12-22T15:56:21Z</time>
      </trkpt>
      <trkpt lat="44.14914" lon="5.63568">
        <ele>1358.792</ele>
        <time>2018-12-22T15:56:22Z</time>
      </trkpt>
      <trkpt lat="44.14913" lon="5.63574">
        <ele>1358.476</ele>
        <time>2018-12-22T15:56:23Z</time>
      </trkpt>
      <trkpt lat="44.14911" lon="5.63586">
        <ele>1358.154</ele>
        <time>2018-12-22T15:56:25Z</time>
      </trkpt>
      <trkpt lat="44.14912" lon="5.63592">
        <ele>1357.735</ele>
        <time>2018-12-22T15:56:26Z</time>
      </trkpt>
      <trkpt lat="44.14914" lon="5.63602">
        <ele>1357.685</ele>
        <time>2018-12-22T15:56:27Z</time>
      </trkpt>
      <trkpt lat="44.14918" lon="5.63613">
        <ele>1357.674</ele>
        <time>2018-12-22T15:56:28Z</time>
      </trkpt>
      <trkpt lat="44.14923" lon="5.63625">
        <ele>1357.64</ele>
        <time>2018-12-22T15:56:29Z</time>
      </trkpt>
      <trkpt lat="44.14926" lon="5.63636">
        <ele>1357.734</ele>
        <time>2018-12-22T15:56:30Z</time>
      </trkpt>
      <trkpt lat="44.14928" lon="5.63649">
        <ele>1357.755</ele>
        <time>2018-12-22T15:56:31Z</time>
      </trkpt>
      <trkpt lat="44.14931" lon="5.63661">
        <ele>1358.01</ele>
        <time>2018-12-22T15:56:32Z</time>
      </trkpt>
      <trkpt lat="44.14932" lon="5.63672">
        <ele>1358.108</ele>
        <time>2018-12-22T15:56:33Z</time>
      </trkpt>
      <trkpt lat="44.14933" lon="5.63682">
        <ele>1358.166</ele>
        <time>2018-12-22T15:56:34Z</time>
      </trkpt>
      <trkpt lat="44.14936" lon="5.63689">
        <ele>1358.194</ele>
        <time>2018-12-22T15:56:35Z</time>
      </trkpt>
      <trkpt lat="44.1494" lon="5.63697">
        <ele>1358.018</ele>
        <time>2018-12-22T15:56:36Z</time>
      </trkpt>
      <trkpt lat="44.14943" lon="5.63707">
        <ele>1358.026</ele>
        <time>2018-12-22T15:56:37Z</time>
      </trkpt>
      <trkpt lat="44.14947" lon="5.6372">
        <ele>1357.937</ele>
        <time>2018-12-22T15:56:38Z</time>
      </trkpt>
      <trkpt lat="44.1495" lon="5.63732">
        <ele>1357.637</ele>
        <time>2018-12-22T15:56:39Z</time>
      </trkpt>
      <trkpt lat="44.14954" lon="5.63744">
        <ele>1356.986</ele>
        <time>2018-12-22T15:56:40Z</time>
      </trkpt>
      <trkpt lat="44.14958" lon="5.63757">
        <ele>1356.152</ele>
        <time>2018-12-22T15:56:41Z</time>
      </trkpt>
      <trkpt lat="44.14962" lon="5.63771">
        <ele>1355.446</ele>
        <time>2018-12-22T15:56:42Z</time>
      </trkpt>
      <trkpt lat="44.14965" lon="5.63785">
        <ele>1355.388</ele>
        <time>2018-12-22T15:56:43Z</time>
      </trkpt>
      <trkpt lat="44.14967" lon="5.638">
        <ele>1355.316</ele>
        <time>2018-12-22T15:56:44Z</time>
      </trkpt>
      <trkpt lat="44.14969" lon="5.63814">
        <ele>1355.608</ele>
        <time>2018-12-22T15:56:45Z</time>
      </trkpt>
      <trkpt lat="44.14968" lon="5.63829">
        <ele>1356.637</ele>
        <time>2018-12-22T15:56:46Z</time>
      </trkpt>
      <trkpt lat="44.14968" lon="5.63845">
        <ele>1357.695</ele>
        <time>2018-12-22T15:56:47Z</time>
      </trkpt>
      <trkpt lat="44.14967" lon="5.6386">
        <ele>1358.149</ele>
        <time>2018-12-22T15:56:48Z</time>
      </trkpt>
      <trkpt lat="44.14966" lon="5.63876">
        <ele>1359.317</ele>
        <time>2018-12-22T15:56:49Z</time>
      </trkpt>
      <trkpt lat="44.14963" lon="5.6389">
        <ele>1362.168</ele>
        <time>2018-12-22T15:56:50Z</time>
      </trkpt>
      <trkpt lat="44.14959" lon="5.63905">
        <ele>1363.768</ele>
        <time>2018-12-22T15:56:51Z</time>
      </trkpt>
      <trkpt lat="44.14956" lon="5.6392">
        <ele>1365.487</ele>
        <time>2018-12-22T15:56:52Z</time>
      </trkpt>
      <trkpt lat="44.14951" lon="5.63937">
        <ele>1366.843</ele>
        <time>2018-12-22T15:56:53Z</time>
      </trkpt>
      <trkpt lat="44.14948" lon="5.63952">
        <ele>1368.426</ele>
        <time>2018-12-22T15:56:54Z</time>
      </trkpt>
      <trkpt lat="44.14945" lon="5.63968">
        <ele>1369.747</ele>
        <time>2018-12-22T15:56:55Z</time>
      </trkpt>
      <trkpt lat="44.14942" lon="5.63985">
        <ele>1370.911</ele>
        <time>2018-12-22T15:56:56Z</time>
      </trkpt>
      <trkpt lat="44.1494" lon="5.64003">
        <ele>1372.408</ele>
        <time>2018-12-22T15:56:57Z</time>
      </trkpt>
      <trkpt lat="44.14939" lon="5.64023">
        <ele>1374.225</ele>
        <time>2018-12-22T15:56:58Z</time>
      </trkpt>
      <trkpt lat="44.14939" lon="5.64042">
        <ele>1375.873</ele>
        <time>2018-12-22T15:56:59Z</time>
      </trkpt>
      <trkpt lat="44.14939" lon="5.64058">
        <ele>1379.477</ele>
        <time>2018-12-22T15:57:00Z</time>
      </trkpt>
      <trkpt lat="44.14939" lon="5.64074">
        <ele>1379.445</ele>
        <time>2018-12-22T15:57:01Z</time>
      </trkpt>
      <trkpt lat="44.14939" lon="5.64089">
        <ele>1383.686</ele>
        <time>2018-12-22T15:57:02Z</time>
      </trkpt>
      <trkpt lat="44.14939" lon="5.64103">
        <ele>1385.736</ele>
        <time>2018-12-22T15:57:03Z</time>
      </trkpt>
      <trkpt lat="44.14938" lon="5.64118">
        <ele>1388.635</ele>
        <time>2018-12-22T15:57:04Z</time>
      </trkpt>
      <trkpt lat="44.14937" lon="5.64133">
        <ele>1391.011</ele>
        <time>2018-12-22T15:57:05Z</time>
      </trkpt>
      <trkpt lat="44.14937" lon="5.64147">
        <ele>1392.914</ele>
        <time>2018-12-22T15:57:06Z</time>
      </trkpt>
      <trkpt lat="44.14936" lon="5.64158">
        <ele>1395.054</ele>
        <time>2018-12-22T15:57:07Z</time>
      </trkpt>
      <trkpt lat="44.14935" lon="5.64168">
        <ele>1396.809</ele>
        <time>2018-12-22T15:57:08Z</time>
      </trkpt>
      <trkpt lat="44.14934" lon="5.64176">
        <ele>1397.808</ele>
        <time>2018-12-22T15:57:09Z</time>
      </trkpt>
      <trkpt lat="44.14932" lon="5.64183">
        <ele>1398.724</ele>
        <time>2018-12-22T15:57:10Z</time>
      </trkpt>
      <trkpt lat="44.14931" lon="5.64189">
        <ele>1400.952</ele>
        <time>2018-12-22T15:57:11Z</time>
      </trkpt>
      <trkpt lat="44.14928" lon="5.64195">
        <ele>1400.966</ele>
        <time>2018-12-22T15:57:12Z</time>
      </trkpt>
      <trkpt lat="44.14926" lon="5.64201">
        <ele>1401.944</ele>
        <time>2018-12-22T15:57:13Z</time>
      </trkpt>
      <trkpt lat="44.14924" lon="5.64207">
        <ele>1403.475</ele>
        <time>2018-12-22T15:57:14Z</time>
      </trkpt>
      <trkpt lat="44.14921" lon="5.64214">
        <ele>1403.795</ele>
        <time>2018-12-22T15:57:15Z</time>
      </trkpt>
      <trkpt lat="44.1492" lon="5.64221">
        <ele>1404.234</ele>
        <time>2018-12-22T15:57:16Z</time>
      </trkpt>
      <trkpt lat="44.14918" lon="5.64236">
        <ele>1404.57</ele>
        <time>2018-12-22T15:57:18Z</time>
      </trkpt>
      <trkpt lat="44.14918" lon="5.64243">
        <ele>1404.961</ele>
        <time>2018-12-22T15:57:19Z</time>
      </trkpt>
      <trkpt lat="44.14918" lon="5.64251">
        <ele>1405.521</ele>
        <time>2018-12-22T15:57:20Z</time>
      </trkpt>
      <trkpt lat="44.14918" lon="5.6426">
        <ele>1406.013</ele>
        <time>2018-12-22T15:57:21Z</time>
      </trkpt>
      <trkpt lat="44.14919" lon="5.64271">
        <ele>1406.408</ele>
        <time>2018-12-22T15:57:22Z</time>
      </trkpt>
      <trkpt lat="44.1492" lon="5.64281">
        <ele>1406.499</ele>
        <time>2018-12-22T15:57:23Z</time>
      </trkpt>
      <trkpt lat="44.14921" lon="5.64293">
        <ele>1406.497</ele>
        <time>2018-12-22T15:57:24Z</time>
      </trkpt>
      <trkpt lat="44.14923" lon="5.64307">
        <ele>1405.891</ele>
        <time>2018-12-22T15:57:25Z</time>
      </trkpt>
      <trkpt lat="44.14926" lon="5.64322">
        <ele>1404.949</ele>
        <time>2018-12-22T15:57:26Z</time>
      </trkpt>
      <trkpt lat="44.14928" lon="5.64336">
        <ele>1403.23</ele>
        <time>2018-12-22T15:57:27Z</time>
      </trkpt>
      <trkpt lat="44.14928" lon="5.64349">
        <ele>1402.92</ele>
        <time>2018-12-22T15:57:28Z</time>
      </trkpt>
      <trkpt lat="44.14929" lon="5.64361">
        <ele>1402.869</ele>
        <time>2018-12-22T15:57:29Z</time>
      </trkpt>
      <trkpt lat="44.14928" lon="5.64374">
        <ele>1402.795</ele>
        <time>2018-12-22T15:57:30Z</time>
      </trkpt>
      <trkpt lat="44.14924" lon="5.64387">
        <ele>1402.521</ele>
        <time>2018-12-22T15:57:31Z</time>
      </trkpt>
      <trkpt lat="44.14919" lon="5.64401">
        <ele>1402.241</ele>
        <time>2018-12-22T15:57:32Z</time>
      </trkpt>
      <trkpt lat="44.14914" lon="5.64414">
        <ele>1401.705</ele>
        <time>2018-12-22T15:57:33Z</time>
      </trkpt>
      <trkpt lat="44.14908" lon="5.64426">
        <ele>1401.308</ele>
        <time>2018-12-22T15:57:34Z</time>
      </trkpt>
      <trkpt lat="44.14901" lon="5.64437">
        <ele>1400.895</ele>
        <time>2018-12-22T15:57:35Z</time>
      </trkpt>
      <trkpt lat="44.14895" lon="5.6445">
        <ele>1400.823</ele>
        <time>2018-12-22T15:57:36Z</time>
      </trkpt>
      <trkpt lat="44.14889" lon="5.64462">
        <ele>1401.067</ele>
        <time>2018-12-22T15:57:37Z</time>
      </trkpt>
      <trkpt lat="44.14885" lon="5.64476">
        <ele>1402.885</ele>
        <time>2018-12-22T15:57:38Z</time>
      </trkpt>
      <trkpt lat="44.14881" lon="5.64491">
        <ele>1404.636</ele>
        <time>2018-12-22T15:57:39Z</time>
      </trkpt>
      <trkpt lat="44.14876" lon="5.64505">
        <ele>1406.696</ele>
        <time>2018-12-22T15:57:40Z</time>
      </trkpt>
      <trkpt lat="44.1487" lon="5.64519">
        <ele>1408.235</ele>
        <time>2018-12-22T15:57:41Z</time>
      </trkpt>
      <trkpt lat="44.14864" lon="5.64532">
        <ele>1409.981</ele>
        <time>2018-12-22T15:57:42Z</time>
      </trkpt>
      <trkpt lat="44.14858" lon="5.64544">
        <ele>1411.399</ele>
        <time>2018-12-22T15:57:43Z</time>
      </trkpt>
      <trkpt lat="44.14851" lon="5.64557">
        <ele>1412.307</ele>
        <time>2018-12-22T15:57:44Z</time>
      </trkpt>
      <trkpt lat="44.14845" lon="5.6457">
        <ele>1413.027</ele>
        <time>2018-12-22T15:57:45Z</time>
      </trkpt>
      <trkpt lat="44.14841" lon="5.64582">
        <ele>1414.108</ele>
        <time>2018-12-22T15:57:46Z</time>
      </trkpt>
      <trkpt lat="44.14838" lon="5.64593">
        <ele>1414.592</ele>
        <time>2018-12-22T15:57:47Z</time>
      </trkpt>
      <trkpt lat="44.14835" lon="5.64604">
        <ele>1415.11</ele>
        <time>2018-12-22T15:57:48Z</time>
      </trkpt>
      <trkpt lat="44.14833" lon="5.64615">
        <ele>1416.284</ele>
        <time>2018-12-22T15:57:49Z</time>
      </trkpt>
      <trkpt lat="44.1483" lon="5.64626">
        <ele>1416.422</ele>
        <time>2018-12-22T15:57:50Z</time>
      </trkpt>
      <trkpt lat="44.14826" lon="5.64636">
        <ele>1416.413</ele>
        <time>2018-12-22T15:57:51Z</time>
      </trkpt>
      <trkpt lat="44.14822" lon="5.64647">
        <ele>1416.013</ele>
        <time>2018-12-22T15:57:52Z</time>
      </trkpt>
      <trkpt lat="44.14819" lon="5.64656">
        <ele>1415.652</ele>
        <time>2018-12-22T15:57:53Z</time>
      </trkpt>
      <trkpt lat="44.14817" lon="5.64664">
        <ele>1415.428</ele>
        <time>2018-12-22T15:57:54Z</time>
      </trkpt>
      <trkpt lat="44.14816" lon="5.64672">
        <ele>1415.348</ele>
        <time>2018-12-22T15:57:55Z</time>
      </trkpt>
      <trkpt lat="44.14816" lon="5.64679">
        <ele>1415.261</ele>
        <time>2018-12-22T15:57:56Z</time>
      </trkpt>
      <trkpt lat="44.14815" lon="5.64687">
        <ele>1415.117</ele>
        <time>2018-12-22T15:57:57Z</time>
      </trkpt>
      <trkpt lat="44.14815" lon="5.64694">
        <ele>1414.808</ele>
        <time>2018-12-22T15:57:58Z</time>
      </trkpt>
      <trkpt lat="44.14815" lon="5.64701">
        <ele>1414.277</ele>
        <time>2018-12-22T15:57:59Z</time>
      </trkpt>
      <trkpt lat="44.14814" lon="5.64709">
        <ele>1413.375</ele>
        <time>2018-12-22T15:58:00Z</time>
      </trkpt>
      <trkpt lat="44.14814" lon="5.64718">
        <ele>1412.339</ele>
        <time>2018-12-22T15:58:01Z</time>
      </trkpt>
      <trkpt lat="44.14815" lon="5.64728">
        <ele>1409.557</ele>
        <time>2018-12-22T15:58:02Z</time>
      </trkpt>
      <trkpt lat="44.14815" lon="5.64739">
        <ele>1407.858</ele>
        <time>2018-12-22T15:58:03Z</time>
      </trkpt>
      <trkpt lat="44.14815" lon="5.64752">
        <ele>1405.958</ele>
        <time>2018-12-22T15:58:04Z</time>
      </trkpt>
      <trkpt lat="44.14814" lon="5.64766">
        <ele>1403.717</ele>
        <time>2018-12-22T15:58:05Z</time>
      </trkpt>
      <trkpt lat="44.14813" lon="5.64778">
        <ele>1401.843</ele>
        <time>2018-12-22T15:58:06Z</time>
      </trkpt>
      <trkpt lat="44.14812" lon="5.6479">
        <ele>1400.563</ele>
        <time>2018-12-22T15:58:07Z</time>
      </trkpt>
      <trkpt lat="44.14812" lon="5.64804">
        <ele>1398.544</ele>
        <time>2018-12-22T15:58:08Z</time>
      </trkpt>
      <trkpt lat="44.14812" lon="5.64817">
        <ele>1396.518</ele>
        <time>2018-12-22T15:58:09Z</time>
      </trkpt>
      <trkpt lat="44.14813" lon="5.64832">
        <ele>1394.908</ele>
        <time>2018-12-22T15:58:10Z</time>
      </trkpt>
      <trkpt lat="44.14814" lon="5.64846">
        <ele>1393.339</ele>
        <time>2018-12-22T15:58:11Z</time>
      </trkpt>
      <trkpt lat="44.14815" lon="5.64861">
        <ele>1391.137</ele>
        <time>2018-12-22T15:58:12Z</time>
      </trkpt>
      <trkpt lat="44.14818" lon="5.64876">
        <ele>1387.521</ele>
        <time>2018-12-22T15:58:13Z</time>
      </trkpt>
      <trkpt lat="44.14822" lon="5.64892">
        <ele>1385.329</ele>
        <time>2018-12-22T15:58:14Z</time>
      </trkpt>
      <trkpt lat="44.14825" lon="5.64909">
        <ele>1383.24</ele>
        <time>2018-12-22T15:58:15Z</time>
      </trkpt>
      <trkpt lat="44.1483" lon="5.64927">
        <ele>1381.01</ele>
        <time>2018-12-22T15:58:16Z</time>
      </trkpt>
      <trkpt lat="44.14832" lon="5.64944">
        <ele>1379.999</ele>
        <time>2018-12-22T15:58:17Z</time>
      </trkpt>
      <trkpt lat="44.14834" lon="5.6496">
        <ele>1379.525</ele>
        <time>2018-12-22T15:58:18Z</time>
      </trkpt>
      <trkpt lat="44.14835" lon="5.64975">
        <ele>1379.358</ele>
        <time>2018-12-22T15:58:19Z</time>
      </trkpt>
      <trkpt lat="44.14837" lon="5.64991">
        <ele>1379.152</ele>
        <time>2018-12-22T15:58:20Z</time>
      </trkpt>
      <trkpt lat="44.14839" lon="5.6501">
        <ele>1378.817</ele>
        <time>2018-12-22T15:58:21Z</time>
      </trkpt>
      <trkpt lat="44.1484" lon="5.65028">
        <ele>1377.908</ele>
        <time>2018-12-22T15:58:22Z</time>
      </trkpt>
      <trkpt lat="44.14841" lon="5.65046">
        <ele>1376.918</ele>
        <time>2018-12-22T15:58:23Z</time>
      </trkpt>
      <trkpt lat="44.14842" lon="5.65064">
        <ele>1376.056</ele>
        <time>2018-12-22T15:58:24Z</time>
      </trkpt>
      <trkpt lat="44.14843" lon="5.6508">
        <ele>1375.85</ele>
        <time>2018-12-22T15:58:25Z</time>
      </trkpt>
      <trkpt lat="44.14843" lon="5.65097">
        <ele>1376.618</ele>
        <time>2018-12-22T15:58:26Z</time>
      </trkpt>
      <trkpt lat="44.14841" lon="5.65114">
        <ele>1377.859</ele>
        <time>2018-12-22T15:58:27Z</time>
      </trkpt>
      <trkpt lat="44.1484" lon="5.65131">
        <ele>1379.389</ele>
        <time>2018-12-22T15:58:28Z</time>
      </trkpt>
      <trkpt lat="44.14837" lon="5.65151">
        <ele>1381.068</ele>
        <time>2018-12-22T15:58:29Z</time>
      </trkpt>
      <trkpt lat="44.14835" lon="5.65171">
        <ele>1382.074</ele>
        <time>2018-12-22T15:58:30Z</time>
      </trkpt>
      <trkpt lat="44.14832" lon="5.65191">
        <ele>1382.917</ele>
        <time>2018-12-22T15:58:31Z</time>
      </trkpt>
      <trkpt lat="44.14829" lon="5.6521">
        <ele>1383.087</ele>
        <time>2018-12-22T15:58:32Z</time>
      </trkpt>
      <trkpt lat="44.14827" lon="5.65226">
        <ele>1383.615</ele>
        <time>2018-12-22T15:58:33Z</time>
      </trkpt>
      <trkpt lat="44.14825" lon="5.65242">
        <ele>1384.108</ele>
        <time>2018-12-22T15:58:34Z</time>
      </trkpt>
      <trkpt lat="44.14826" lon="5.65258">
        <ele>1384.714</ele>
        <time>2018-12-22T15:58:35Z</time>
      </trkpt>
      <trkpt lat="44.14825" lon="5.65275">
        <ele>1385.692</ele>
        <time>2018-12-22T15:58:36Z</time>
      </trkpt>
      <trkpt lat="44.14825" lon="5.6529">
        <ele>1387.866</ele>
        <time>2018-12-22T15:58:37Z</time>
      </trkpt>
      <trkpt lat="44.14825" lon="5.65305">
        <ele>1389.154</ele>
        <time>2018-12-22T15:58:38Z</time>
      </trkpt>
      <trkpt lat="44.14823" lon="5.6532">
        <ele>1390.135</ele>
        <time>2018-12-22T15:58:39Z</time>
      </trkpt>
      <trkpt lat="44.1482" lon="5.65336">
        <ele>1391.065</ele>
        <time>2018-12-22T15:58:40Z</time>
      </trkpt>
      <trkpt lat="44.14817" lon="5.65352">
        <ele>1391.624</ele>
        <time>2018-12-22T15:58:41Z</time>
      </trkpt>
      <trkpt lat="44.14813" lon="5.65368">
        <ele>1392.52</ele>
        <time>2018-12-22T15:58:42Z</time>
      </trkpt>
      <trkpt lat="44.14809" lon="5.65383">
        <ele>1393.084</ele>
        <time>2018-12-22T15:58:43Z</time>
      </trkpt>
      <trkpt lat="44.14804" lon="5.65398">
        <ele>1393.607</ele>
        <time>2018-12-22T15:58:44Z</time>
      </trkpt>
      <trkpt lat="44.14799" lon="5.65414">
        <ele>1394.217</ele>
        <time>2018-12-22T15:58:45Z</time>
      </trkpt>
      <trkpt lat="44.14794" lon="5.65429">
        <ele>1395.308</ele>
        <time>2018-12-22T15:58:46Z</time>
      </trkpt>
      <trkpt lat="44.14789" lon="5.65444">
        <ele>1396.551</ele>
        <time>2018-12-22T15:58:47Z</time>
      </trkpt>
      <trkpt lat="44.14784" lon="5.65458">
        <ele>1398.329</ele>
        <time>2018-12-22T15:58:48Z</time>
      </trkpt>
      <trkpt lat="44.14779" lon="5.65471">
        <ele>1402.083</ele>
        <time>2018-12-22T15:58:49Z</time>
      </trkpt>
      <trkpt lat="44.14773" lon="5.65486">
        <ele>1403.751</ele>
        <time>2018-12-22T15:58:50Z</time>
      </trkpt>
      <trkpt lat="44.14769" lon="5.655">
        <ele>1405.282</ele>
        <time>2018-12-22T15:58:51Z</time>
      </trkpt>
      <trkpt lat="44.14764" lon="5.65515">
        <ele>1406.662</ele>
        <time>2018-12-22T15:58:52Z</time>
      </trkpt>
      <trkpt lat="44.14758" lon="5.6553">
        <ele>1408.331</ele>
        <time>2018-12-22T15:58:53Z</time>
      </trkpt>
      <trkpt lat="44.14751" lon="5.65542">
        <ele>1409.527</ele>
        <time>2018-12-22T15:58:54Z</time>
      </trkpt>
      <trkpt lat="44.14743" lon="5.65552">
        <ele>1410.926</ele>
        <time>2018-12-22T15:58:55Z</time>
      </trkpt>
      <trkpt lat="44.14733" lon="5.65562">
        <ele>1412.347</ele>
        <time>2018-12-22T15:58:56Z</time>
      </trkpt>
      <trkpt lat="44.14724" lon="5.65572">
        <ele>1413.611</ele>
        <time>2018-12-22T15:58:57Z</time>
      </trkpt>
      <trkpt lat="44.14715" lon="5.65582">
        <ele>1414.308</ele>
        <time>2018-12-22T15:58:58Z</time>
      </trkpt>
      <trkpt lat="44.14706" lon="5.65592">
        <ele>1415.495</ele>
        <time>2018-12-22T15:58:59Z</time>
      </trkpt>
      <trkpt lat="44.14695" lon="5.65599">
        <ele>1416.343</ele>
        <time>2018-12-22T15:59:00Z</time>
      </trkpt>
      <trkpt lat="44.14684" lon="5.65606">
        <ele>1417.397</ele>
        <time>2018-12-22T15:59:01Z</time>
      </trkpt>
      <trkpt lat="44.14674" lon="5.6561">
        <ele>1418.145</ele>
        <time>2018-12-22T15:59:02Z</time>
      </trkpt>
      <trkpt lat="44.14666" lon="5.65613">
        <ele>1418.946</ele>
        <time>2018-12-22T15:59:03Z</time>
      </trkpt>
      <trkpt lat="44.14658" lon="5.65616">
        <ele>1419.676</ele>
        <time>2018-12-22T15:59:04Z</time>
      </trkpt>
      <trkpt lat="44.1465" lon="5.65619">
        <ele>1420.535</ele>
        <time>2018-12-22T15:59:05Z</time>
      </trkpt>
      <trkpt lat="44.14645" lon="5.6562">
        <ele>1421.451</ele>
        <time>2018-12-22T15:59:06Z</time>
      </trkpt>
      <trkpt lat="44.14639" lon="5.65621">
        <ele>1422.215</ele>
        <time>2018-12-22T15:59:07Z</time>
      </trkpt>
      <trkpt lat="44.14633" lon="5.65622">
        <ele>1422.665</ele>
        <time>2018-12-22T15:59:08Z</time>
      </trkpt>
      <trkpt lat="44.14628" lon="5.65622">
        <ele>1422.711</ele>
        <time>2018-12-22T15:59:09Z</time>
      </trkpt>
      <trkpt lat="44.14622" lon="5.65623">
        <ele>1422.708</ele>
        <time>2018-12-22T15:59:10Z</time>
      </trkpt>
      <trkpt lat="44.14612" lon="5.65623">
        <ele>1422.124</ele>
        <time>2018-12-22T15:59:12Z</time>
      </trkpt>
      <trkpt lat="44.14603" lon="5.65625">
        <ele>1421.492</ele>
        <time>2018-12-22T15:59:14Z</time>
      </trkpt>
      <trkpt lat="44.14598" lon="5.65633">
        <ele>1420.636</ele>
        <time>2018-12-22T15:59:16Z</time>
      </trkpt>
      <trkpt lat="44.14597" lon="5.65639">
        <ele>1420.294</ele>
        <time>2018-12-22T15:59:17Z</time>
      </trkpt>
      <trkpt lat="44.14593" lon="5.65649">
        <ele>1419.055</ele>
        <time>2018-12-22T15:59:19Z</time>
      </trkpt>
      <trkpt lat="44.1459" lon="5.65654">
        <ele>1418.375</ele>
        <time>2018-12-22T15:59:20Z</time>
      </trkpt>
      <trkpt lat="44.14588" lon="5.6566">
        <ele>1417.454</ele>
        <time>2018-12-22T15:59:21Z</time>
      </trkpt>
      <trkpt lat="44.14586" lon="5.65668">
        <ele>1416.38</ele>
        <time>2018-12-22T15:59:22Z</time>
      </trkpt>
      <trkpt lat="44.14585" lon="5.65676">
        <ele>1415.259</ele>
        <time>2018-12-22T15:59:23Z</time>
      </trkpt>
      <trkpt lat="44.14582" lon="5.65684">
        <ele>1412.803</ele>
        <time>2018-12-22T15:59:24Z</time>
      </trkpt>
      <trkpt lat="44.14579" lon="5.6569">
        <ele>1411.523</ele>
        <time>2018-12-22T15:59:25Z</time>
      </trkpt>
      <trkpt lat="44.14576" lon="5.65694">
        <ele>1410.308</ele>
        <time>2018-12-22T15:59:26Z</time>
      </trkpt>
      <trkpt lat="44.14571" lon="5.65696">
        <ele>1409.118</ele>
        <time>2018-12-22T15:59:27Z</time>
      </trkpt>
      <trkpt lat="44.14567" lon="5.65703">
        <ele>1407.096</ele>
        <time>2018-12-22T15:59:29Z</time>
      </trkpt>
      <trkpt lat="44.14567" lon="5.65711">
        <ele>1405.83</ele>
        <time>2018-12-22T15:59:30Z</time>
      </trkpt>
      <trkpt lat="44.1457" lon="5.65721">
        <ele>1403.628</ele>
        <time>2018-12-22T15:59:32Z</time>
      </trkpt>
      <trkpt lat="44.14573" lon="5.65732">
        <ele>1401.659</ele>
        <time>2018-12-22T15:59:34Z</time>
      </trkpt>
      <trkpt lat="44.14576" lon="5.65739">
        <ele>1400.799</ele>
        <time>2018-12-22T15:59:35Z</time>
      </trkpt>
      <trkpt lat="44.14581" lon="5.65749">
        <ele>1397.868</ele>
        <time>2018-12-22T15:59:37Z</time>
      </trkpt>
      <trkpt lat="44.14586" lon="5.65754">
        <ele>1395.844</ele>
        <time>2018-12-22T15:59:39Z</time>
      </trkpt>
      <trkpt lat="44.14588" lon="5.65761">
        <ele>1394.481</ele>
        <time>2018-12-22T15:59:41Z</time>
      </trkpt>
      <trkpt lat="44.14592" lon="5.65768">
        <ele>1393.261</ele>
        <time>2018-12-22T15:59:43Z</time>
      </trkpt>
      <trkpt lat="44.14595" lon="5.65776">
        <ele>1391.617</ele>
        <time>2018-12-22T15:59:45Z</time>
      </trkpt>
      <trkpt lat="44.14597" lon="5.65783">
        <ele>1389.808</ele>
        <time>2018-12-22T15:59:47Z</time>
      </trkpt>
      <trkpt lat="44.14601" lon="5.6579">
        <ele>1386.591</ele>
        <time>2018-12-22T15:59:49Z</time>
      </trkpt>
      <trkpt lat="44.14604" lon="5.65797">
        <ele>1384.259</ele>
        <time>2018-12-22T15:59:51Z</time>
      </trkpt>
      <trkpt lat="44.14608" lon="5.65808">
        <ele>1381.963</ele>
        <time>2018-12-22T15:59:53Z</time>
      </trkpt>
      <trkpt lat="44.1461" lon="5.65815">
        <ele>1379.411</ele>
        <time>2018-12-22T15:59:55Z</time>
      </trkpt>
      <trkpt lat="44.14615" lon="5.65822">
        <ele>1376.812</ele>
        <time>2018-12-22T15:59:57Z</time>
      </trkpt>
      <trkpt lat="44.14619" lon="5.6583">
        <ele>1374.262</ele>
        <time>2018-12-22T15:59:59Z</time>
      </trkpt>
      <trkpt lat="44.14624" lon="5.65837">
        <ele>1370.571</ele>
        <time>2018-12-22T16:00:01Z</time>
      </trkpt>
      <trkpt lat="44.14628" lon="5.65842">
        <ele>1369.587</ele>
        <time>2018-12-22T16:00:02Z</time>
      </trkpt>
      <trkpt lat="44.14633" lon="5.65846">
        <ele>1368.534</ele>
        <time>2018-12-22T16:00:03Z</time>
      </trkpt>
      <trkpt lat="44.14636" lon="5.65851">
        <ele>1367.655</ele>
        <time>2018-12-22T16:00:04Z</time>
      </trkpt>
      <trkpt lat="44.14639" lon="5.65856">
        <ele>1366.81</ele>
        <time>2018-12-22T16:00:05Z</time>
      </trkpt>
      <trkpt lat="44.14644" lon="5.65864">
        <ele>1365.108</ele>
        <time>2018-12-22T16:00:07Z</time>
      </trkpt>
      <trkpt lat="44.14648" lon="5.6587">
        <ele>1363.286</ele>
        <time>2018-12-22T16:00:09Z</time>
      </trkpt>
      <trkpt lat="44.14652" lon="5.65876">
        <ele>1360.194</ele>
        <time>2018-12-22T16:00:11Z</time>
      </trkpt>
      <trkpt lat="44.14658" lon="5.65883">
        <ele>1357.718</ele>
        <time>2018-12-22T16:00:13Z</time>
      </trkpt>
      <trkpt lat="44.14662" lon="5.6589">
        <ele>1355.146</ele>
        <time>2018-12-22T16:00:15Z</time>
      </trkpt>
      <trkpt lat="44.14668" lon="5.65894">
        <ele>1352.767</ele>
        <time>2018-12-22T16:00:17Z</time>
      </trkpt>
      <trkpt lat="44.14673" lon="5.65901">
        <ele>1351.027</ele>
        <time>2018-12-22T16:00:19Z</time>
      </trkpt>
      <trkpt lat="44.14678" lon="5.65907">
        <ele>1349.386</ele>
        <time>2018-12-22T16:00:21Z</time>
      </trkpt>
      <trkpt lat="44.14684" lon="5.65914">
        <ele>1347.552</ele>
        <time>2018-12-22T16:00:23Z</time>
      </trkpt>
      <trkpt lat="44.14688" lon="5.65918">
        <ele>1346.616</ele>
        <time>2018-12-22T16:00:25Z</time>
      </trkpt>
      <trkpt lat="44.14693" lon="5.65923">
        <ele>1345.176</ele>
        <time>2018-12-22T16:00:28Z</time>
      </trkpt>
      <trkpt lat="44.14697" lon="5.65927">
        <ele>1344.013</ele>
        <time>2018-12-22T16:00:30Z</time>
      </trkpt>
      <trkpt lat="44.14703" lon="5.65931">
        <ele>1342.408</ele>
        <time>2018-12-22T16:00:32Z</time>
      </trkpt>
      <trkpt lat="44.14708" lon="5.65936">
        <ele>1339.274</ele>
        <time>2018-12-22T16:00:34Z</time>
      </trkpt>
      <trkpt lat="44.14712" lon="5.65944">
        <ele>1337.282</ele>
        <time>2018-12-22T16:00:36Z</time>
      </trkpt>
      <trkpt lat="44.14715" lon="5.65949">
        <ele>1336.356</ele>
        <time>2018-12-22T16:00:37Z</time>
      </trkpt>
      <trkpt lat="44.14718" lon="5.6596">
        <ele>1334.224</ele>
        <time>2018-12-22T16:00:39Z</time>
      </trkpt>
      <trkpt lat="44.1472" lon="5.65966">
        <ele>1333.175</ele>
        <time>2018-12-22T16:00:40Z</time>
      </trkpt>
      <trkpt lat="44.14722" lon="5.65972">
        <ele>1332.065</ele>
        <time>2018-12-22T16:00:41Z</time>
      </trkpt>
      <trkpt lat="44.14726" lon="5.6598">
        <ele>1329.794</ele>
        <time>2018-12-22T16:00:43Z</time>
      </trkpt>
      <trkpt lat="44.14731" lon="5.65986">
        <ele>1327.79</ele>
        <time>2018-12-22T16:00:45Z</time>
      </trkpt>
      <trkpt lat="44.14734" lon="5.65991">
        <ele>1325.493</ele>
        <time>2018-12-22T16:00:46Z</time>
      </trkpt>
      <trkpt lat="44.14734" lon="5.65999">
        <ele>1323.165</ele>
        <time>2018-12-22T16:00:48Z</time>
      </trkpt>
      <trkpt lat="44.14735" lon="5.6601">
        <ele>1320.121</ele>
        <time>2018-12-22T16:00:50Z</time>
      </trkpt>
      <trkpt lat="44.14738" lon="5.6602">
        <ele>1318.308</ele>
        <time>2018-12-22T16:00:51Z</time>
      </trkpt>
      <trkpt lat="44.14742" lon="5.66029">
        <ele>1316.342</ele>
        <time>2018-12-22T16:00:52Z</time>
      </trkpt>
      <trkpt lat="44.14745" lon="5.66039">
        <ele>1314.29</ele>
        <time>2018-12-22T16:00:53Z</time>
      </trkpt>
      <trkpt lat="44.1475" lon="5.66052">
        <ele>1312.124</ele>
        <time>2018-12-22T16:00:54Z</time>
      </trkpt>
      <trkpt lat="44.14753" lon="5.66067">
        <ele>1310.122</ele>
        <time>2018-12-22T16:00:55Z</time>
      </trkpt>
      <trkpt lat="44.14756" lon="5.66082">
        <ele>1308.483</ele>
        <time>2018-12-22T16:00:56Z</time>
      </trkpt>
      <trkpt lat="44.14758" lon="5.66095">
        <ele>1307.053</ele>
        <time>2018-12-22T16:00:57Z</time>
      </trkpt>
      <trkpt lat="44.14762" lon="5.66109">
        <ele>1304.712</ele>
        <time>2018-12-22T16:00:58Z</time>
      </trkpt>
      <trkpt lat="44.14767" lon="5.66123">
        <ele>1303.868</ele>
        <time>2018-12-22T16:00:59Z</time>
      </trkpt>
      <trkpt lat="44.14771" lon="5.66137">
        <ele>1303.072</ele>
        <time>2018-12-22T16:01:00Z</time>
      </trkpt>
      <trkpt lat="44.14773" lon="5.6615">
        <ele>1302.313</ele>
        <time>2018-12-22T16:01:01Z</time>
      </trkpt>
      <trkpt lat="44.14775" lon="5.66162">
        <ele>1301.614</ele>
        <time>2018-12-22T16:01:02Z</time>
      </trkpt>
      <trkpt lat="44.14775" lon="5.66174">
        <ele>1301.108</ele>
        <time>2018-12-22T16:01:03Z</time>
      </trkpt>
      <trkpt lat="44.14775" lon="5.66188">
        <ele>1300.81</ele>
        <time>2018-12-22T16:01:04Z</time>
      </trkpt>
      <trkpt lat="44.14773" lon="5.66201">
        <ele>1300.858</ele>
        <time>2018-12-22T16:01:05Z</time>
      </trkpt>
      <trkpt lat="44.14772" lon="5.66214">
        <ele>1301.042</ele>
        <time>2018-12-22T16:01:06Z</time>
      </trkpt>
      <trkpt lat="44.14771" lon="5.66228">
        <ele>1301.58</ele>
        <time>2018-12-22T16:01:07Z</time>
      </trkpt>
      <trkpt lat="44.14772" lon="5.6624">
        <ele>1302.381</ele>
        <time>2018-12-22T16:01:08Z</time>
      </trkpt>
      <trkpt lat="44.14772" lon="5.66251">
        <ele>1303.351</ele>
        <time>2018-12-22T16:01:09Z</time>
      </trkpt>
      <trkpt lat="44.14772" lon="5.66265">
        <ele>1305.03</ele>
        <time>2018-12-22T16:01:10Z</time>
      </trkpt>
      <trkpt lat="44.14773" lon="5.66273">
        <ele>1305.936</ele>
        <time>2018-12-22T16:01:11Z</time>
      </trkpt>
      <trkpt lat="44.14774" lon="5.66282">
        <ele>1306.469</ele>
        <time>2018-12-22T16:01:12Z</time>
      </trkpt>
      <trkpt lat="44.14777" lon="5.66291">
        <ele>1307.104</ele>
        <time>2018-12-22T16:01:13Z</time>
      </trkpt>
      <trkpt lat="44.1478" lon="5.66301">
        <ele>1307.624</ele>
        <time>2018-12-22T16:01:14Z</time>
      </trkpt>
      <trkpt lat="44.14783" lon="5.66311">
        <ele>1308.408</ele>
        <time>2018-12-22T16:01:15Z</time>
      </trkpt>
      <trkpt lat="44.14783" lon="5.66323">
        <ele>1309.379</ele>
        <time>2018-12-22T16:01:16Z</time>
      </trkpt>
      <trkpt lat="44.14783" lon="5.66337">
        <ele>1310.287</ele>
        <time>2018-12-22T16:01:17Z</time>
      </trkpt>
      <trkpt lat="44.14785" lon="5.66351">
        <ele>1310.921</ele>
        <time>2018-12-22T16:01:18Z</time>
      </trkpt>
      <trkpt lat="44.14787" lon="5.66365">
        <ele>1311.819</ele>
        <time>2018-12-22T16:01:19Z</time>
      </trkpt>
      <trkpt lat="44.14788" lon="5.66378">
        <ele>1312.61</ele>
        <time>2018-12-22T16:01:20Z</time>
      </trkpt>
      <trkpt lat="44.14788" lon="5.66394">
        <ele>1314.56</ele>
        <time>2018-12-22T16:01:21Z</time>
      </trkpt>
      <trkpt lat="44.14789" lon="5.66411">
        <ele>1315.759</ele>
        <time>2018-12-22T16:01:22Z</time>
      </trkpt>
      <trkpt lat="44.1479" lon="5.66429">
        <ele>1316.865</ele>
        <time>2018-12-22T16:01:23Z</time>
      </trkpt>
      <trkpt lat="44.14792" lon="5.66448">
        <ele>1317.239</ele>
        <time>2018-12-22T16:01:24Z</time>
      </trkpt>
      <trkpt lat="44.14793" lon="5.66467">
        <ele>1317.801</ele>
        <time>2018-12-22T16:01:25Z</time>
      </trkpt>
      <trkpt lat="44.14793" lon="5.66486">
        <ele>1318.421</ele>
        <time>2018-12-22T16:01:26Z</time>
      </trkpt>
      <trkpt lat="44.14794" lon="5.66504">
        <ele>1319.408</ele>
        <time>2018-12-22T16:01:27Z</time>
      </trkpt>
      <trkpt lat="44.14795" lon="5.66522">
        <ele>1320.966</ele>
        <time>2018-12-22T16:01:28Z</time>
      </trkpt>
      <trkpt lat="44.14797" lon="5.6654">
        <ele>1323.274</ele>
        <time>2018-12-22T16:01:29Z</time>
      </trkpt>
      <trkpt lat="44.14799" lon="5.66557">
        <ele>1325.358</ele>
        <time>2018-12-22T16:01:30Z</time>
      </trkpt>
      <trkpt lat="44.14802" lon="5.66576">
        <ele>1326.956</ele>
        <time>2018-12-22T16:01:31Z</time>
      </trkpt>
      <trkpt lat="44.14806" lon="5.66595">
        <ele>1328.447</ele>
        <time>2018-12-22T16:01:32Z</time>
      </trkpt>
      <trkpt lat="44.14811" lon="5.66612">
        <ele>1329.637</ele>
        <time>2018-12-22T16:01:33Z</time>
      </trkpt>
      <trkpt lat="44.14817" lon="5.66628">
        <ele>1332.566</ele>
        <time>2018-12-22T16:01:34Z</time>
      </trkpt>
      <trkpt lat="44.14823" lon="5.66644">
        <ele>1334.392</ele>
        <time>2018-12-22T16:01:35Z</time>
      </trkpt>
      <trkpt lat="44.14829" lon="5.66658">
        <ele>1335.827</ele>
        <time>2018-12-22T16:01:36Z</time>
      </trkpt>
      <trkpt lat="44.14834" lon="5.66673">
        <ele>1337.468</ele>
        <time>2018-12-22T16:01:37Z</time>
      </trkpt>
      <trkpt lat="44.1484" lon="5.66689">
        <ele>1339.114</ele>
        <time>2018-12-22T16:01:38Z</time>
      </trkpt>
      <trkpt lat="44.14845" lon="5.66705">
        <ele>1340.708</ele>
        <time>2018-12-22T16:01:39Z</time>
      </trkpt>
      <trkpt lat="44.1485" lon="5.66721">
        <ele>1342.265</ele>
        <time>2018-12-22T16:01:40Z</time>
      </trkpt>
      <trkpt lat="44.14854" lon="5.66738">
        <ele>1344.073</ele>
        <time>2018-12-22T16:01:41Z</time>
      </trkpt>
      <trkpt lat="44.14857" lon="5.66756">
        <ele>1345.937</ele>
        <time>2018-12-22T16:01:42Z</time>
      </trkpt>
      <trkpt lat="44.14855" lon="5.66772">
        <ele>1347.115</ele>
        <time>2018-12-22T16:01:43Z</time>
      </trkpt>
      <trkpt lat="44.14854" lon="5.66789">
        <ele>1348.236</ele>
        <time>2018-12-22T16:01:44Z</time>
      </trkpt>
      <trkpt lat="44.14854" lon="5.66805">
        <ele>1351.936</ele>
        <time>2018-12-22T16:01:45Z</time>
      </trkpt>
      <trkpt lat="44.14856" lon="5.6682">
        <ele>1353.535</ele>
        <time>2018-12-22T16:01:46Z</time>
      </trkpt>
      <trkpt lat="44.14856" lon="5.66833">
        <ele>1356.081</ele>
        <time>2018-12-22T16:01:47Z</time>
      </trkpt>
      <trkpt lat="44.14856" lon="5.66845">
        <ele>1358.738</ele>
        <time>2018-12-22T16:01:48Z</time>
      </trkpt>
      <trkpt lat="44.14855" lon="5.66856">
        <ele>1361.07</ele>
        <time>2018-12-22T16:01:49Z</time>
      </trkpt>
      <trkpt lat="44.14851" lon="5.66869">
        <ele>1362.717</ele>
        <time>2018-12-22T16:01:50Z</time>
      </trkpt>
      <trkpt lat="44.14847" lon="5.66883">
        <ele>1364.408</ele>
        <time>2018-12-22T16:01:51Z</time>
      </trkpt>
      <trkpt lat="44.14842" lon="5.66896">
        <ele>1365.696</ele>
        <time>2018-12-22T16:01:52Z</time>
      </trkpt>
      <trkpt lat="44.14837" lon="5.66909">
        <ele>1366.554</ele>
        <time>2018-12-22T16:01:53Z</time>
      </trkpt>
      <trkpt lat="44.14833" lon="5.66921">
        <ele>1367.588</ele>
        <time>2018-12-22T16:01:54Z</time>
      </trkpt>
      <trkpt lat="44.14829" lon="5.66931">
        <ele>1368.966</ele>
        <time>2018-12-22T16:01:55Z</time>
      </trkpt>
      <trkpt lat="44.14826" lon="5.66943">
        <ele>1370.327</ele>
        <time>2018-12-22T16:01:56Z</time>
      </trkpt>
      <trkpt lat="44.14821" lon="5.66954">
        <ele>1372.597</ele>
        <time>2018-12-22T16:01:57Z</time>
      </trkpt>
      <trkpt lat="44.14817" lon="5.66965">
        <ele>1373.486</ele>
        <time>2018-12-22T16:01:58Z</time>
      </trkpt>
      <trkpt lat="44.14811" lon="5.66976">
        <ele>1374.092</ele>
        <time>2018-12-22T16:01:59Z</time>
      </trkpt>
      <trkpt lat="44.14806" lon="5.66987">
        <ele>1374.769</ele>
        <time>2018-12-22T16:02:00Z</time>
      </trkpt>
      <trkpt lat="44.14801" lon="5.66997">
        <ele>1375.604</ele>
        <time>2018-12-22T16:02:01Z</time>
      </trkpt>
      <trkpt lat="44.14798" lon="5.67005">
        <ele>1376.524</ele>
        <time>2018-12-22T16:02:02Z</time>
      </trkpt>
      <trkpt lat="44.14795" lon="5.67012">
        <ele>1377.808</ele>
        <time>2018-12-22T16:02:03Z</time>
      </trkpt>
      <trkpt lat="44.14793" lon="5.67023">
        <ele>1379.439</ele>
        <time>2018-12-22T16:02:05Z</time>
      </trkpt>
      <trkpt lat="44.14792" lon="5.67035">
        <ele>1380.487</ele>
        <time>2018-12-22T16:02:07Z</time>
      </trkpt>
      <trkpt lat="44.14792" lon="5.67041">
        <ele>1380.551</ele>
        <time>2018-12-22T16:02:08Z</time>
      </trkpt>
      <trkpt lat="44.14792" lon="5.67049">
        <ele>1380.699</ele>
        <time>2018-12-22T16:02:09Z</time>
      </trkpt>
      <trkpt lat="44.14792" lon="5.67055">
        <ele>1380.69</ele>
        <time>2018-12-22T16:02:10Z</time>
      </trkpt>
      <trkpt lat="44.14793" lon="5.67062">
        <ele>1380.64</ele>
        <time>2018-12-22T16:02:11Z</time>
      </trkpt>
      <trkpt lat="44.14793" lon="5.67069">
        <ele>1380.699</ele>
        <time>2018-12-22T16:02:12Z</time>
      </trkpt>
      <trkpt lat="44.14794" lon="5.67077">
        <ele>1380.765</ele>
        <time>2018-12-22T16:02:13Z</time>
      </trkpt>
      <trkpt lat="44.14795" lon="5.67085">
        <ele>1380.811</ele>
        <time>2018-12-22T16:02:14Z</time>
      </trkpt>
      <trkpt lat="44.14796" lon="5.67092">
        <ele>1381.021</ele>
        <time>2018-12-22T16:02:15Z</time>
      </trkpt>
      <trkpt lat="44.14798" lon="5.671">
        <ele>1381.203</ele>
        <time>2018-12-22T16:02:16Z</time>
      </trkpt>
      <trkpt lat="44.14799" lon="5.67108">
        <ele>1381.608</ele>
        <time>2018-12-22T16:02:17Z</time>
      </trkpt>
      <trkpt lat="44.14801" lon="5.67116">
        <ele>1382.214</ele>
        <time>2018-12-22T16:02:18Z</time>
      </trkpt>
      <trkpt lat="44.14803" lon="5.67123">
        <ele>1383.012</ele>
        <time>2018-12-22T16:02:19Z</time>
      </trkpt>
      <trkpt lat="44.14804" lon="5.6713">
        <ele>1383.516</ele>
        <time>2018-12-22T16:02:20Z</time>
      </trkpt>
      <trkpt lat="44.14804" lon="5.67137">
        <ele>1383.944</ele>
        <time>2018-12-22T16:02:21Z</time>
      </trkpt>
      <trkpt lat="44.14804" lon="5.67143">
        <ele>1383.875</ele>
        <time>2018-12-22T16:02:22Z</time>
      </trkpt>
      <trkpt lat="44.14804" lon="5.6715">
        <ele>1383.395</ele>
        <time>2018-12-22T16:02:23Z</time>
      </trkpt>
      <trkpt lat="44.14803" lon="5.67158">
        <ele>1382.884</ele>
        <time>2018-12-22T16:02:24Z</time>
      </trkpt>
      <trkpt lat="44.14802" lon="5.67166">
        <ele>1382.71</ele>
        <time>2018-12-22T16:02:25Z</time>
      </trkpt>
      <trkpt lat="44.148" lon="5.67174">
        <ele>1382.799</ele>
        <time>2018-12-22T16:02:26Z</time>
      </trkpt>
      <trkpt lat="44.14799" lon="5.67184">
        <ele>1383.207</ele>
        <time>2018-12-22T16:02:27Z</time>
      </trkpt>
      <trkpt lat="44.14796" lon="5.67194">
        <ele>1385.027</ele>
        <time>2018-12-22T16:02:29Z</time>
      </trkpt>
      <trkpt lat="44.14794" lon="5.67199">
        <ele>1387.308</ele>
        <time>2018-12-22T16:02:31Z</time>
      </trkpt>
      <trkpt lat="44.14793" lon="5.67206">
        <ele>1387.442</ele>
        <time>2018-12-22T16:02:43Z</time>
      </trkpt>
      <trkpt lat="44.14789" lon="5.67201">
        <ele>1387.64</ele>
        <time>2018-12-22T16:03:20Z</time>
      </trkpt>
      <trkpt lat="44.14785" lon="5.67202">
        <ele>1389.184</ele>
        <time>2018-12-22T16:03:27Z</time>
      </trkpt>
      <trkpt lat="44.1478" lon="5.67199">
        <ele>1389.412</ele>
        <time>2018-12-22T16:03:30Z</time>
      </trkpt>
      <trkpt lat="44.14778" lon="5.67206">
        <ele>1388.493</ele>
        <time>2018-12-22T16:03:39Z</time>
      </trkpt>
      <trkpt lat="44.14778" lon="5.67212">
        <ele>1388.823</ele>
        <time>2018-12-22T16:04:05Z</time>
      </trkpt>
      <trkpt lat="44.14784" lon="5.67211">
        <ele>1388.142</ele>
        <time>2018-12-22T16:04:13Z</time>
      </trkpt>
      <trkpt lat="44.14788" lon="5.67211">
        <ele>1387.868</ele>
        <time>2018-12-22T16:04:20Z</time>
      </trkpt>
      <trkpt lat="44.14783" lon="5.67218">
        <ele>1387.491</ele>
        <time>2018-12-22T16:05:14Z</time>
      </trkpt>
      <trkpt lat="44.14778" lon="5.67222">
        <ele>1386.881</ele>
        <time>2018-12-22T16:05:15Z</time>
      </trkpt>
      <trkpt lat="44.14773" lon="5.67227">
        <ele>1386.619</ele>
        <time>2018-12-22T16:05:16Z</time>
      </trkpt>
      <trkpt lat="44.14767" lon="5.67234">
        <ele>1386.608</ele>
        <time>2018-12-22T16:05:17Z</time>
      </trkpt>
      <trkpt lat="44.14761" lon="5.67242">
        <ele>1387.162</ele>
        <time>2018-12-22T16:05:18Z</time>
      </trkpt>
      <trkpt lat="44.14756" lon="5.67252">
        <ele>1388.19</ele>
        <time>2018-12-22T16:05:19Z</time>
      </trkpt>
      <trkpt lat="44.14752" lon="5.67263">
        <ele>1389.474</ele>
        <time>2018-12-22T16:05:20Z</time>
      </trkpt>
      <trkpt lat="44.14747" lon="5.67273">
        <ele>1390.362</ele>
        <time>2018-12-22T16:05:21Z</time>
      </trkpt>
      <trkpt lat="44.14744" lon="5.67279">
        <ele>1393.493</ele>
        <time>2018-12-22T16:05:22Z</time>
      </trkpt>
      <trkpt lat="44.14742" lon="5.67288">
        <ele>1395.853</ele>
        <time>2018-12-22T16:05:23Z</time>
      </trkpt>
      <trkpt lat="44.14741" lon="5.67296">
        <ele>1398.182</ele>
        <time>2018-12-22T16:05:24Z</time>
      </trkpt>
      <trkpt lat="44.14736" lon="5.67304">
        <ele>1400.158</ele>
        <time>2018-12-22T16:05:25Z</time>
      </trkpt>
      <trkpt lat="44.14731" lon="5.67314">
        <ele>1403.375</ele>
        <time>2018-12-22T16:05:26Z</time>
      </trkpt>
      <trkpt lat="44.14725" lon="5.67326">
        <ele>1405.128</ele>
        <time>2018-12-22T16:05:27Z</time>
      </trkpt>
      <trkpt lat="44.14721" lon="5.67336">
        <ele>1406.82</ele>
        <time>2018-12-22T16:05:28Z</time>
      </trkpt>
      <trkpt lat="44.14719" lon="5.67346">
        <ele>1408.408</ele>
        <time>2018-12-22T16:05:29Z</time>
      </trkpt>
      <trkpt lat="44.14719" lon="5.67354">
        <ele>1411.04</ele>
        <time>2018-12-22T16:05:30Z</time>
      </trkpt>
      <trkpt lat="44.14718" lon="5.67362">
        <ele>1413.148</ele>
        <time>2018-12-22T16:05:31Z</time>
      </trkpt>
      <trkpt lat="44.14718" lon="5.6737">
        <ele>1415.572</ele>
        <time>2018-12-22T16:05:32Z</time>
      </trkpt>
      <trkpt lat="44.14717" lon="5.67378">
        <ele>1417.68</ele>
        <time>2018-12-22T16:05:33Z</time>
      </trkpt>
      <trkpt lat="44.14715" lon="5.67388">
        <ele>1420.241</ele>
        <time>2018-12-22T16:05:34Z</time>
      </trkpt>
      <trkpt lat="44.14714" lon="5.67396">
        <ele>1423.971</ele>
        <time>2018-12-22T16:05:35Z</time>
      </trkpt>
      <trkpt lat="44.14712" lon="5.67404">
        <ele>1425.74</ele>
        <time>2018-12-22T16:05:36Z</time>
      </trkpt>
      <trkpt lat="44.14711" lon="5.67413">
        <ele>1425.736</ele>
        <time>2018-12-22T16:05:37Z</time>
      </trkpt>
      <trkpt lat="44.14708" lon="5.67425">
        <ele>1428.153</ele>
        <time>2018-12-22T16:05:38Z</time>
      </trkpt>
      <trkpt lat="44.14706" lon="5.67436">
        <ele>1433.204</ele>
        <time>2018-12-22T16:05:39Z</time>
      </trkpt>
      <trkpt lat="44.14703" lon="5.67447">
        <ele>1436.014</ele>
        <time>2018-12-22T16:05:40Z</time>
      </trkpt>
      <trkpt lat="44.14701" lon="5.67455">
        <ele>1438.708</ele>
        <time>2018-12-22T16:05:41Z</time>
      </trkpt>
      <trkpt lat="44.14695" lon="5.67462">
        <ele>1441.028</ele>
        <time>2018-12-22T16:05:42Z</time>
      </trkpt>
      <trkpt lat="44.14688" lon="5.67467">
        <ele>1442.786</ele>
        <time>2018-12-22T16:05:43Z</time>
      </trkpt>
      <trkpt lat="44.14682" lon="5.67469">
        <ele>1443.55</ele>
        <time>2018-12-22T16:05:44Z</time>
      </trkpt>
      <trkpt lat="44.14673" lon="5.67472">
        <ele>1444.098</ele>
        <time>2018-12-22T16:05:45Z</time>
      </trkpt>
      <trkpt lat="44.14664" lon="5.67478">
        <ele>1444.129</ele>
        <time>2018-12-22T16:05:46Z</time>
      </trkpt>
      <trkpt lat="44.14654" lon="5.67485">
        <ele>1444.139</ele>
        <time>2018-12-22T16:05:47Z</time>
      </trkpt>
      <trkpt lat="44.14644" lon="5.67489">
        <ele>1444.188</ele>
        <time>2018-12-22T16:05:48Z</time>
      </trkpt>
      <trkpt lat="44.14635" lon="5.67494">
        <ele>1444.514</ele>
        <time>2018-12-22T16:05:49Z</time>
      </trkpt>
      <trkpt lat="44.14627" lon="5.67496">
        <ele>1445.124</ele>
        <time>2018-12-22T16:05:50Z</time>
      </trkpt>
      <trkpt lat="44.14617" lon="5.67496">
        <ele>1445.104</ele>
        <time>2018-12-22T16:05:51Z</time>
      </trkpt>
      <trkpt lat="44.14611" lon="5.67497">
        <ele>1444.914</ele>
        <time>2018-12-22T16:05:52Z</time>
      </trkpt>
      <trkpt lat="44.14604" lon="5.67496">
        <ele>1444.608</ele>
        <time>2018-12-22T16:05:53Z</time>
      </trkpt>
      <trkpt lat="44.14596" lon="5.67496">
        <ele>1444.215</ele>
        <time>2018-12-22T16:05:54Z</time>
      </trkpt>
      <trkpt lat="44.14587" lon="5.67497">
        <ele>1443.813</ele>
        <time>2018-12-22T16:05:55Z</time>
      </trkpt>
      <trkpt lat="44.14578" lon="5.67499">
        <ele>1443.867</ele>
        <time>2018-12-22T16:05:56Z</time>
      </trkpt>
      <trkpt lat="44.14569" lon="5.67503">
        <ele>1444.455</ele>
        <time>2018-12-22T16:05:57Z</time>
      </trkpt>
      <trkpt lat="44.1456" lon="5.67506">
        <ele>1444.626</ele>
        <time>2018-12-22T16:05:58Z</time>
      </trkpt>
      <trkpt lat="44.14552" lon="5.67508">
        <ele>1445.396</ele>
        <time>2018-12-22T16:05:59Z</time>
      </trkpt>
      <trkpt lat="44.14544" lon="5.67511">
        <ele>1445.995</ele>
        <time>2018-12-22T16:06:00Z</time>
      </trkpt>
      <trkpt lat="44.14534" lon="5.67514">
        <ele>1447.091</ele>
        <time>2018-12-22T16:06:01Z</time>
      </trkpt>
      <trkpt lat="44.14526" lon="5.67515">
        <ele>1448.269</ele>
        <time>2018-12-22T16:06:02Z</time>
      </trkpt>
      <trkpt lat="44.14519" lon="5.67517">
        <ele>1449.104</ele>
        <time>2018-12-22T16:06:03Z</time>
      </trkpt>
      <trkpt lat="44.14513" lon="5.67516">
        <ele>1450.224</ele>
        <time>2018-12-22T16:06:04Z</time>
      </trkpt>
      <trkpt lat="44.14508" lon="5.67513">
        <ele>1450.708</ele>
        <time>2018-12-22T16:06:05Z</time>
      </trkpt>
      <trkpt lat="44.14503" lon="5.67509">
        <ele>1451.489</ele>
        <time>2018-12-22T16:06:06Z</time>
      </trkpt>
      <trkpt lat="44.14497" lon="5.67505">
        <ele>1452.177</ele>
        <time>2018-12-22T16:06:07Z</time>
      </trkpt>
      <trkpt lat="44.14493" lon="5.67504">
        <ele>1452.641</ele>
        <time>2018-12-22T16:06:08Z</time>
      </trkpt>
      <trkpt lat="44.14487" lon="5.67504">
        <ele>1453.179</ele>
        <time>2018-12-22T16:06:09Z</time>
      </trkpt>
      <trkpt lat="44.14482" lon="5.67507">
        <ele>1453.91</ele>
        <time>2018-12-22T16:06:10Z</time>
      </trkpt>
      <trkpt lat="44.14477" lon="5.67511">
        <ele>1455.11</ele>
        <time>2018-12-22T16:06:11Z</time>
      </trkpt>
      <trkpt lat="44.1447" lon="5.67514">
        <ele>1456.129</ele>
        <time>2018-12-22T16:06:12Z</time>
      </trkpt>
      <trkpt lat="44.14463" lon="5.67517">
        <ele>1457.045</ele>
        <time>2018-12-22T16:06:13Z</time>
      </trkpt>
      <trkpt lat="44.14455" lon="5.6752">
        <ele>1458.738</ele>
        <time>2018-12-22T16:06:14Z</time>
      </trkpt>
      <trkpt lat="44.14447" lon="5.67522">
        <ele>1459.37</ele>
        <time>2018-12-22T16:06:15Z</time>
      </trkpt>
      <trkpt lat="44.1444" lon="5.67525">
        <ele>1460.017</ele>
        <time>2018-12-22T16:06:16Z</time>
      </trkpt>
      <trkpt lat="44.14434" lon="5.67527">
        <ele>1460.708</ele>
        <time>2018-12-22T16:06:17Z</time>
      </trkpt>
      <trkpt lat="44.14429" lon="5.67531">
        <ele>1462.676</ele>
        <time>2018-12-22T16:06:19Z</time>
      </trkpt>
      <trkpt lat="44.14429" lon="5.67541">
        <ele>1464.494</ele>
        <time>2018-12-22T16:06:21Z</time>
      </trkpt>
      <trkpt lat="44.14429" lon="5.67551">
        <ele>1466.278</ele>
        <time>2018-12-22T16:06:24Z</time>
      </trkpt>
      <trkpt lat="44.14428" lon="5.67557">
        <ele>1467.796</ele>
        <time>2018-12-22T16:06:26Z</time>
      </trkpt>
      <trkpt lat="44.14427" lon="5.67567">
        <ele>1468.417</ele>
        <time>2018-12-22T16:06:28Z</time>
      </trkpt>
      <trkpt lat="44.14429" lon="5.67573">
        <ele>1468.917</ele>
        <time>2018-12-22T16:06:30Z</time>
      </trkpt>
      <trkpt lat="44.14433" lon="5.67577">
        <ele>1469.696</ele>
        <time>2018-12-22T16:06:48Z</time>
      </trkpt>
      <trkpt lat="44.14434" lon="5.67584">
        <ele>1470.272</ele>
        <time>2018-12-22T16:06:50Z</time>
      </trkpt>
      <trkpt lat="44.14435" lon="5.6759">
        <ele>1470.972</ele>
        <time>2018-12-22T16:06:52Z</time>
      </trkpt>
      <trkpt lat="44.14435" lon="5.67601">
        <ele>1471.813</ele>
        <time>2018-12-22T16:06:54Z</time>
      </trkpt>
      <trkpt lat="44.14435" lon="5.67608">
        <ele>1472.414</ele>
        <time>2018-12-22T16:06:55Z</time>
      </trkpt>
      <trkpt lat="44.14436" lon="5.67617">
        <ele>1473.708</ele>
        <time>2018-12-22T16:06:57Z</time>
      </trkpt>
      <trkpt lat="44.14435" lon="5.67625">
        <ele>1476.26</ele>
        <time>2018-12-22T16:07:00Z</time>
      </trkpt>
      <trkpt lat="44.14435" lon="5.67632">
        <ele>1479.688</ele>
        <time>2018-12-22T16:07:03Z</time>
      </trkpt>
      <trkpt lat="44.14437" lon="5.67638">
        <ele>1482.272</ele>
        <time>2018-12-22T16:07:07Z</time>
      </trkpt>
      <trkpt lat="44.14441" lon="5.67646">
        <ele>1484.55</ele>
        <time>2018-12-22T16:07:10Z</time>
      </trkpt>
      <trkpt lat="44.14444" lon="5.67652">
        <ele>1486.251</ele>
        <time>2018-12-22T16:07:12Z</time>
      </trkpt>
      <trkpt lat="44.14446" lon="5.67657">
        <ele>1486.971</ele>
        <time>2018-12-22T16:07:13Z</time>
      </trkpt>
      <trkpt lat="44.14449" lon="5.67666">
        <ele>1488.33</ele>
        <time>2018-12-22T16:07:15Z</time>
      </trkpt>
      <trkpt lat="44.14452" lon="5.67675">
        <ele>1489.946</ele>
        <time>2018-12-22T16:07:17Z</time>
      </trkpt>
      <trkpt lat="44.14454" lon="5.6768">
        <ele>1490.831</ele>
        <time>2018-12-22T16:07:18Z</time>
      </trkpt>
      <trkpt lat="44.14458" lon="5.67694">
        <ele>1492.461</ele>
        <time>2018-12-22T16:07:20Z</time>
      </trkpt>
      <trkpt lat="44.14461" lon="5.67702">
        <ele>1493.107</ele>
        <time>2018-12-22T16:07:21Z</time>
      </trkpt>
      <trkpt lat="44.14465" lon="5.67707">
        <ele>1493.908</ele>
        <time>2018-12-22T16:07:22Z</time>
      </trkpt>
      <trkpt lat="44.14468" lon="5.67712">
        <ele>1494.576</ele>
        <time>2018-12-22T16:07:23Z</time>
      </trkpt>
      <trkpt lat="44.14473" lon="5.67716">
        <ele>1497.164</ele>
        <time>2018-12-22T16:07:25Z</time>
      </trkpt>
      <trkpt lat="44.14476" lon="5.67722">
        <ele>1498.048</ele>
        <time>2018-12-22T16:07:26Z</time>
      </trkpt>
      <trkpt lat="44.14479" lon="5.6773">
        <ele>1498.856</ele>
        <time>2018-12-22T16:07:27Z</time>
      </trkpt>
      <trkpt lat="44.14481" lon="5.67739">
        <ele>1499.747</ele>
        <time>2018-12-22T16:07:28Z</time>
      </trkpt>
      <trkpt lat="44.14483" lon="5.6775">
        <ele>1500.577</ele>
        <time>2018-12-22T16:07:29Z</time>
      </trkpt>
      <trkpt lat="44.14486" lon="5.6776">
        <ele>1501.366</ele>
        <time>2018-12-22T16:07:30Z</time>
      </trkpt>
      <trkpt lat="44.14488" lon="5.67769">
        <ele>1502.262</ele>
        <time>2018-12-22T16:07:31Z</time>
      </trkpt>
      <trkpt lat="44.14491" lon="5.67777">
        <ele>1503.326</ele>
        <time>2018-12-22T16:07:32Z</time>
      </trkpt>
      <trkpt lat="44.14495" lon="5.67784">
        <ele>1504.547</ele>
        <time>2018-12-22T16:07:33Z</time>
      </trkpt>
      <trkpt lat="44.145" lon="5.67792">
        <ele>1505.611</ele>
        <time>2018-12-22T16:07:34Z</time>
      </trkpt>
      <trkpt lat="44.14504" lon="5.678">
        <ele>1506.908</ele>
        <time>2018-12-22T16:07:35Z</time>
      </trkpt>
      <trkpt lat="44.1451" lon="5.67806">
        <ele>1509.045</ele>
        <time>2018-12-22T16:07:36Z</time>
      </trkpt>
      <trkpt lat="44.14518" lon="5.67811">
        <ele>1510.113</ele>
        <time>2018-12-22T16:07:37Z</time>
      </trkpt>
      <trkpt lat="44.14525" lon="5.67817">
        <ele>1511.277</ele>
        <time>2018-12-22T16:07:38Z</time>
      </trkpt>
      <trkpt lat="44.14531" lon="5.67821">
        <ele>1512.435</ele>
        <time>2018-12-22T16:07:39Z</time>
      </trkpt>
      <trkpt lat="44.14537" lon="5.67826">
        <ele>1513.856</ele>
        <time>2018-12-22T16:07:40Z</time>
      </trkpt>
      <trkpt lat="44.14541" lon="5.67832">
        <ele>1515.366</ele>
        <time>2018-12-22T16:07:41Z</time>
      </trkpt>
      <trkpt lat="44.14546" lon="5.67838">
        <ele>1516.915</ele>
        <time>2018-12-22T16:07:42Z</time>
      </trkpt>
      <trkpt lat="44.14552" lon="5.67843">
        <ele>1518.641</ele>
        <time>2018-12-22T16:07:43Z</time>
      </trkpt>
      <trkpt lat="44.14557" lon="5.67849">
        <ele>1520.262</ele>
        <time>2018-12-22T16:07:44Z</time>
      </trkpt>
      <trkpt lat="44.14561" lon="5.67856">
        <ele>1521.583</ele>
        <time>2018-12-22T16:07:45Z</time>
      </trkpt>
      <trkpt lat="44.14566" lon="5.67863">
        <ele>1522.511</ele>
        <time>2018-12-22T16:07:46Z</time>
      </trkpt>
      <trkpt lat="44.14569" lon="5.6787">
        <ele>1523.608</ele>
        <time>2018-12-22T16:07:47Z</time>
      </trkpt>
      <trkpt lat="44.14572" lon="5.67875">
        <ele>1524.889</ele>
        <time>2018-12-22T16:07:48Z</time>
      </trkpt>
      <trkpt lat="44.14575" lon="5.67882">
        <ele>1526.137</ele>
        <time>2018-12-22T16:07:50Z</time>
      </trkpt>
      <trkpt lat="44.14578" lon="5.6789">
        <ele>1526.741</ele>
        <time>2018-12-22T16:07:52Z</time>
      </trkpt>
      <trkpt lat="44.14579" lon="5.67899">
        <ele>1527.119</ele>
        <time>2018-12-22T16:07:54Z</time>
      </trkpt>
      <trkpt lat="44.1458" lon="5.67912">
        <ele>1527.63</ele>
        <time>2018-12-22T16:07:56Z</time>
      </trkpt>
      <trkpt lat="44.1458" lon="5.67921">
        <ele>1527.88</ele>
        <time>2018-12-22T16:07:58Z</time>
      </trkpt>
      <trkpt lat="44.14578" lon="5.67931">
        <ele>1528.149</ele>
        <time>2018-12-22T16:08:00Z</time>
      </trkpt>
      <trkpt lat="44.14576" lon="5.67939">
        <ele>1528.195</ele>
        <time>2018-12-22T16:08:02Z</time>
      </trkpt>
      <trkpt lat="44.14576" lon="5.67946">
        <ele>1527.368</ele>
        <time>2018-12-22T16:08:04Z</time>
      </trkpt>
      <trkpt lat="44.14574" lon="5.67954">
        <ele>1526.542</ele>
        <time>2018-12-22T16:08:06Z</time>
      </trkpt>
      <trkpt lat="44.14573" lon="5.67961">
        <ele>1526.526</ele>
        <time>2018-12-22T16:08:07Z</time>
      </trkpt>
      <trkpt lat="44.14571" lon="5.67967">
        <ele>1526.708</ele>
        <time>2018-12-22T16:08:08Z</time>
      </trkpt>
      <trkpt lat="44.14569" lon="5.67973">
        <ele>1527.429</ele>
        <time>2018-12-22T16:08:10Z</time>
      </trkpt>
      <trkpt lat="44.14568" lon="5.6798">
        <ele>1528.057</ele>
        <time>2018-12-22T16:08:15Z</time>
      </trkpt>
      <trkpt lat="44.14566" lon="5.67987">
        <ele>1527.781</ele>
        <time>2018-12-22T16:08:18Z</time>
      </trkpt>
      <trkpt lat="44.14562" lon="5.67998">
        <ele>1526.789</ele>
        <time>2018-12-22T16:08:20Z</time>
      </trkpt>
      <trkpt lat="44.14558" lon="5.68005">
        <ele>1526.06</ele>
        <time>2018-12-22T16:08:21Z</time>
      </trkpt>
      <trkpt lat="44.14554" lon="5.68012">
        <ele>1524.82</ele>
        <time>2018-12-22T16:08:22Z</time>
      </trkpt>
      <trkpt lat="44.14551" lon="5.6802">
        <ele>1523.949</ele>
        <time>2018-12-22T16:08:23Z</time>
      </trkpt>
      <trkpt lat="44.14548" lon="5.68026">
        <ele>1522.735</ele>
        <time>2018-12-22T16:08:24Z</time>
      </trkpt>
      <trkpt lat="44.14544" lon="5.68031">
        <ele>1521.583</ele>
        <time>2018-12-22T16:08:25Z</time>
      </trkpt>
      <trkpt lat="44.1454" lon="5.68035">
        <ele>1519.925</ele>
        <time>2018-12-22T16:08:26Z</time>
      </trkpt>
      <trkpt lat="44.14538" lon="5.68046">
        <ele>1516.917</ele>
        <time>2018-12-22T16:08:28Z</time>
      </trkpt>
      <trkpt lat="44.14539" lon="5.68057">
        <ele>1514.608</ele>
        <time>2018-12-22T16:08:30Z</time>
      </trkpt>
      <trkpt lat="44.14539" lon="5.68063">
        <ele>1513.911</ele>
        <time>2018-12-22T16:08:31Z</time>
      </trkpt>
      <trkpt lat="44.1454" lon="5.68074">
        <ele>1512.199</ele>
        <time>2018-12-22T16:08:33Z</time>
      </trkpt>
      <trkpt lat="44.1454" lon="5.68081">
        <ele>1510.553</ele>
        <time>2018-12-22T16:08:34Z</time>
      </trkpt>
      <trkpt lat="44.14541" lon="5.68092">
        <ele>1507.881</ele>
        <time>2018-12-22T16:08:36Z</time>
      </trkpt>
      <trkpt lat="44.14541" lon="5.68101">
        <ele>1505.982</ele>
        <time>2018-12-22T16:08:38Z</time>
      </trkpt>
      <trkpt lat="44.14541" lon="5.68109">
        <ele>1504.912</ele>
        <time>2018-12-22T16:08:40Z</time>
      </trkpt>
      <trkpt lat="44.1454" lon="5.68117">
        <ele>1504.351</ele>
        <time>2018-12-22T16:08:42Z</time>
      </trkpt>
      <trkpt lat="44.14537" lon="5.68123">
        <ele>1503.487</ele>
        <time>2018-12-22T16:08:44Z</time>
      </trkpt>
      <trkpt lat="44.14531" lon="5.68123">
        <ele>1501.277</ele>
        <time>2018-12-22T16:08:46Z</time>
      </trkpt>
      <trkpt lat="44.14526" lon="5.68131">
        <ele>1499.261</ele>
        <time>2018-12-22T16:08:48Z</time>
      </trkpt>
      <trkpt lat="44.14522" lon="5.68139">
        <ele>1496.927</ele>
        <time>2018-12-22T16:08:50Z</time>
      </trkpt>
      <trkpt lat="44.14515" lon="5.68141">
        <ele>1494.508</ele>
        <time>2018-12-22T16:08:53Z</time>
      </trkpt>
      <trkpt lat="44.14509" lon="5.68148">
        <ele>1492.11</ele>
        <time>2018-12-22T16:08:55Z</time>
      </trkpt>
      <trkpt lat="44.14507" lon="5.6816">
        <ele>1487.618</ele>
        <time>2018-12-22T16:08:57Z</time>
      </trkpt>
      <trkpt lat="44.14504" lon="5.68173">
        <ele>1485.052</ele>
        <time>2018-12-22T16:08:59Z</time>
      </trkpt>
      <trkpt lat="44.14502" lon="5.68186">
        <ele>1482.82</ele>
        <time>2018-12-22T16:09:01Z</time>
      </trkpt>
      <trkpt lat="44.14501" lon="5.68195">
        <ele>1481.571</ele>
        <time>2018-12-22T16:09:02Z</time>
      </trkpt>
      <trkpt lat="44.14501" lon="5.68203">
        <ele>1480.341</ele>
        <time>2018-12-22T16:09:03Z</time>
      </trkpt>
      <trkpt lat="44.145" lon="5.68214">
        <ele>1479.39</ele>
        <time>2018-12-22T16:09:04Z</time>
      </trkpt>
      <trkpt lat="44.14499" lon="5.68225">
        <ele>1478.126</ele>
        <time>2018-12-22T16:09:05Z</time>
      </trkpt>
      <trkpt lat="44.14498" lon="5.68235">
        <ele>1477.383</ele>
        <time>2018-12-22T16:09:06Z</time>
      </trkpt>
      <trkpt lat="44.14495" lon="5.68247">
        <ele>1476.925</ele>
        <time>2018-12-22T16:09:07Z</time>
      </trkpt>
      <trkpt lat="44.14492" lon="5.68258">
        <ele>1476.717</ele>
        <time>2018-12-22T16:09:08Z</time>
      </trkpt>
      <trkpt lat="44.1449" lon="5.68265">
        <ele>1476.208</ele>
        <time>2018-12-22T16:09:09Z</time>
      </trkpt>
      <trkpt lat="44.14488" lon="5.68275">
        <ele>1474.951</ele>
        <time>2018-12-22T16:09:11Z</time>
      </trkpt>
      <trkpt lat="44.14488" lon="5.6829">
        <ele>1473.969</ele>
        <time>2018-12-22T16:09:13Z</time>
      </trkpt>
      <trkpt lat="44.14489" lon="5.68301">
        <ele>1473.383</ele>
        <time>2018-12-22T16:09:14Z</time>
      </trkpt>
      <trkpt lat="44.1449" lon="5.68312">
        <ele>1473.161</ele>
        <time>2018-12-22T16:09:15Z</time>
      </trkpt>
      <trkpt lat="44.1449" lon="5.6832">
        <ele>1473.042</ele>
        <time>2018-12-22T16:09:16Z</time>
      </trkpt>
      <trkpt lat="44.14488" lon="5.68327">
        <ele>1472.882</ele>
        <time>2018-12-22T16:09:17Z</time>
      </trkpt>
      <trkpt lat="44.14485" lon="5.68334">
        <ele>1471.881</ele>
        <time>2018-12-22T16:09:18Z</time>
      </trkpt>
      <trkpt lat="44.14481" lon="5.68342">
        <ele>1471.387</ele>
        <time>2018-12-22T16:09:19Z</time>
      </trkpt>
      <trkpt lat="44.14478" lon="5.6835">
        <ele>1469.694</ele>
        <time>2018-12-22T16:09:20Z</time>
      </trkpt>
      <trkpt lat="44.14476" lon="5.68356">
        <ele>1468.857</ele>
        <time>2018-12-22T16:09:21Z</time>
      </trkpt>
      <trkpt lat="44.14474" lon="5.68366">
        <ele>1468.222</ele>
        <time>2018-12-22T16:09:23Z</time>
      </trkpt>
      <trkpt lat="44.14473" lon="5.68373">
        <ele>1467.908</ele>
        <time>2018-12-22T16:09:24Z</time>
      </trkpt>
      <trkpt lat="44.1447" lon="5.68378">
        <ele>1467.672</ele>
        <time>2018-12-22T16:09:25Z</time>
      </trkpt>
      <trkpt lat="44.14466" lon="5.68387">
        <ele>1466.28</ele>
        <time>2018-12-22T16:09:27Z</time>
      </trkpt>
      <trkpt lat="44.14466" lon="5.68393">
        <ele>1464.714</ele>
        <time>2018-12-22T16:09:29Z</time>
      </trkpt>
      <trkpt lat="44.14468" lon="5.684">
        <ele>1464.162</ele>
        <time>2018-12-22T16:09:30Z</time>
      </trkpt>
      <trkpt lat="44.1447" lon="5.68409">
        <ele>1463.713</ele>
        <time>2018-12-22T16:09:31Z</time>
      </trkpt>
      <trkpt lat="44.14471" lon="5.68418">
        <ele>1463.453</ele>
        <time>2018-12-22T16:09:32Z</time>
      </trkpt>
      <trkpt lat="44.14471" lon="5.68428">
        <ele>1463.272</ele>
        <time>2018-12-22T16:09:33Z</time>
      </trkpt>
      <trkpt lat="44.14471" lon="5.68437">
        <ele>1463.148</ele>
        <time>2018-12-22T16:09:34Z</time>
      </trkpt>
      <trkpt lat="44.14471" lon="5.68446">
        <ele>1462.647</ele>
        <time>2018-12-22T16:09:35Z</time>
      </trkpt>
      <trkpt lat="44.14471" lon="5.68457">
        <ele>1461.929</ele>
        <time>2018-12-22T16:09:36Z</time>
      </trkpt>
      <trkpt lat="44.14472" lon="5.68467">
        <ele>1461.521</ele>
        <time>2018-12-22T16:09:37Z</time>
      </trkpt>
      <trkpt lat="44.14473" lon="5.68477">
        <ele>1460.908</ele>
        <time>2018-12-22T16:09:38Z</time>
      </trkpt>
      <trkpt lat="44.14475" lon="5.68487">
        <ele>1460.737</ele>
        <time>2018-12-22T16:09:39Z</time>
      </trkpt>
      <trkpt lat="44.14474" lon="5.68494">
        <ele>1460.785</ele>
        <time>2018-12-22T16:09:40Z</time>
      </trkpt>
      <trkpt lat="44.14474" lon="5.68506">
        <ele>1461.299</ele>
        <time>2018-12-22T16:09:42Z</time>
      </trkpt>
      <trkpt lat="44.14475" lon="5.68514">
        <ele>1461.447</ele>
        <time>2018-12-22T16:09:43Z</time>
      </trkpt>
      <trkpt lat="44.14476" lon="5.68522">
        <ele>1461.258</ele>
        <time>2018-12-22T16:09:44Z</time>
      </trkpt>
      <trkpt lat="44.14478" lon="5.68529">
        <ele>1461.278</ele>
        <time>2018-12-22T16:09:45Z</time>
      </trkpt>
      <trkpt lat="44.1448" lon="5.68539">
        <ele>1461.367</ele>
        <time>2018-12-22T16:09:46Z</time>
      </trkpt>
      <trkpt lat="44.14481" lon="5.68549">
        <ele>1461.983</ele>
        <time>2018-12-22T16:09:47Z</time>
      </trkpt>
      <trkpt lat="44.14481" lon="5.6856">
        <ele>1462.581</ele>
        <time>2018-12-22T16:09:48Z</time>
      </trkpt>
      <trkpt lat="44.14483" lon="5.6857">
        <ele>1462.861</ele>
        <time>2018-12-22T16:09:49Z</time>
      </trkpt>
      <trkpt lat="44.14483" lon="5.68578">
        <ele>1463.217</ele>
        <time>2018-12-22T16:09:50Z</time>
      </trkpt>
      <trkpt lat="44.14484" lon="5.68587">
        <ele>1463.808</ele>
        <time>2018-12-22T16:09:52Z</time>
      </trkpt>
      <trkpt lat="44.14483" lon="5.68597">
        <ele>1462.881</ele>
        <time>2018-12-22T16:09:55Z</time>
      </trkpt>
      <trkpt lat="44.14483" lon="5.68607">
        <ele>1461.579</ele>
        <time>2018-12-22T16:09:57Z</time>
      </trkpt>
      <trkpt lat="44.14482" lon="5.68615">
        <ele>1460.893</ele>
        <time>2018-12-22T16:09:58Z</time>
      </trkpt>
      <trkpt lat="44.1448" lon="5.68625">
        <ele>1460.841</ele>
        <time>2018-12-22T16:09:59Z</time>
      </trkpt>
      <trkpt lat="44.14479" lon="5.68632">
        <ele>1459.682</ele>
        <time>2018-12-22T16:10:00Z</time>
      </trkpt>
      <trkpt lat="44.14478" lon="5.68638">
        <ele>1459.172</ele>
        <time>2018-12-22T16:10:01Z</time>
      </trkpt>
      <trkpt lat="44.14477" lon="5.68645">
        <ele>1458.541</ele>
        <time>2018-12-22T16:10:02Z</time>
      </trkpt>
      <trkpt lat="44.14476" lon="5.68653">
        <ele>1457.147</ele>
        <time>2018-12-22T16:10:04Z</time>
      </trkpt>
      <trkpt lat="44.14474" lon="5.68664">
        <ele>1455.675</ele>
        <time>2018-12-22T16:10:06Z</time>
      </trkpt>
      <trkpt lat="44.14472" lon="5.6867">
        <ele>1454.028</ele>
        <time>2018-12-22T16:10:07Z</time>
      </trkpt>
      <trkpt lat="44.1447" lon="5.68675">
        <ele>1453.22</ele>
        <time>2018-12-22T16:10:08Z</time>
      </trkpt>
      <trkpt lat="44.14469" lon="5.68684">
        <ele>1451.308</ele>
        <time>2018-12-22T16:10:10Z</time>
      </trkpt>
      <trkpt lat="44.14471" lon="5.6869">
        <ele>1449.93</ele>
        <time>2018-12-22T16:10:12Z</time>
      </trkpt>
      <trkpt lat="44.14469" lon="5.68697">
        <ele>1449.668</ele>
        <time>2018-12-22T16:10:15Z</time>
      </trkpt>
      <trkpt lat="44.14469" lon="5.68708">
        <ele>1449.472</ele>
        <time>2018-12-22T16:10:17Z</time>
      </trkpt>
      <trkpt lat="44.14467" lon="5.68718">
        <ele>1448.32</ele>
        <time>2018-12-22T16:10:19Z</time>
      </trkpt>
      <trkpt lat="44.14467" lon="5.68727">
        <ele>1447.551</ele>
        <time>2018-12-22T16:10:21Z</time>
      </trkpt>
      <trkpt lat="44.14467" lon="5.68734">
        <ele>1446.911</ele>
        <time>2018-12-22T16:10:22Z</time>
      </trkpt>
      <trkpt lat="44.14467" lon="5.68743">
        <ele>1446.22</ele>
        <time>2018-12-22T16:10:24Z</time>
      </trkpt>
      <trkpt lat="44.14465" lon="5.68755">
        <ele>1446.196</ele>
        <time>2018-12-22T16:10:26Z</time>
      </trkpt>
      <trkpt lat="44.14464" lon="5.68767">
        <ele>1446.058</ele>
        <time>2018-12-22T16:10:28Z</time>
      </trkpt>
      <trkpt lat="44.14463" lon="5.68775">
        <ele>1445.752</ele>
        <time>2018-12-22T16:10:29Z</time>
      </trkpt>
      <trkpt lat="44.14462" lon="5.68784">
        <ele>1445.017</ele>
        <time>2018-12-22T16:10:30Z</time>
      </trkpt>
      <trkpt lat="44.14461" lon="5.68792">
        <ele>1444.508</ele>
        <time>2018-12-22T16:10:31Z</time>
      </trkpt>
      <trkpt lat="44.14461" lon="5.68802">
        <ele>1444.148</ele>
        <time>2018-12-22T16:10:32Z</time>
      </trkpt>
      <trkpt lat="44.14461" lon="5.6881">
        <ele>1443.676</ele>
        <time>2018-12-22T16:10:33Z</time>
      </trkpt>
      <trkpt lat="44.14462" lon="5.6882">
        <ele>1443.16</ele>
        <time>2018-12-22T16:10:34Z</time>
      </trkpt>
      <trkpt lat="44.14463" lon="5.68833">
        <ele>1442.598</ele>
        <time>2018-12-22T16:10:36Z</time>
      </trkpt>
      <trkpt lat="44.14462" lon="5.68846">
        <ele>1441.779</ele>
        <time>2018-12-22T16:10:38Z</time>
      </trkpt>
      <trkpt lat="44.1446" lon="5.68854">
        <ele>1441.159</ele>
        <time>2018-12-22T16:10:39Z</time>
      </trkpt>
      <trkpt lat="44.14458" lon="5.68861">
        <ele>1440.738</ele>
        <time>2018-12-22T16:10:40Z</time>
      </trkpt>
      <trkpt lat="44.14458" lon="5.68871">
        <ele>1440.174</ele>
        <time>2018-12-22T16:10:42Z</time>
      </trkpt>
      <trkpt lat="44.1446" lon="5.68881">
        <ele>1440.056</ele>
        <time>2018-12-22T16:10:44Z</time>
      </trkpt>
      <trkpt lat="44.14462" lon="5.68893">
        <ele>1439.859</ele>
        <time>2018-12-22T16:10:46Z</time>
      </trkpt>
      <trkpt lat="44.14463" lon="5.689">
        <ele>1439.514</ele>
        <time>2018-12-22T16:10:48Z</time>
      </trkpt>
      <trkpt lat="44.14461" lon="5.68908">
        <ele>1439.308</ele>
        <time>2018-12-22T16:10:50Z</time>
      </trkpt>
      <trkpt lat="44.1446" lon="5.6892">
        <ele>1438.558</ele>
        <time>2018-12-22T16:10:52Z</time>
      </trkpt>
      <trkpt lat="44.14458" lon="5.68928">
        <ele>1436.446</ele>
        <time>2018-12-22T16:10:53Z</time>
      </trkpt>
      <trkpt lat="44.14456" lon="5.68935">
        <ele>1435.36</ele>
        <time>2018-12-22T16:10:54Z</time>
      </trkpt>
      <trkpt lat="44.14454" lon="5.68943">
        <ele>1434.388</ele>
        <time>2018-12-22T16:10:55Z</time>
      </trkpt>
      <trkpt lat="44.14452" lon="5.68954">
        <ele>1432.789</ele>
        <time>2018-12-22T16:10:57Z</time>
      </trkpt>
      <trkpt lat="44.14451" lon="5.68962">
        <ele>1432.289</ele>
        <time>2018-12-22T16:10:58Z</time>
      </trkpt>
      <trkpt lat="44.1445" lon="5.68969">
        <ele>1431.868</ele>
        <time>2018-12-22T16:10:59Z</time>
      </trkpt>
      <trkpt lat="44.14451" lon="5.68976">
        <ele>1431.474</ele>
        <time>2018-12-22T16:11:00Z</time>
      </trkpt>
      <trkpt lat="44.14452" lon="5.68984">
        <ele>1430.999</ele>
        <time>2018-12-22T16:11:02Z</time>
      </trkpt>
      <trkpt lat="44.14451" lon="5.68992">
        <ele>1430.907</ele>
        <time>2018-12-22T16:11:04Z</time>
      </trkpt>
      <trkpt lat="44.1445" lon="5.68999">
        <ele>1430.827</ele>
        <time>2018-12-22T16:11:05Z</time>
      </trkpt>
      <trkpt lat="44.14448" lon="5.69007">
        <ele>1430.708</ele>
        <time>2018-12-22T16:11:06Z</time>
      </trkpt>
      <trkpt lat="44.14446" lon="5.69015">
        <ele>1430.392</ele>
        <time>2018-12-22T16:11:07Z</time>
      </trkpt>
      <trkpt lat="44.14445" lon="5.69022">
        <ele>1429.87</ele>
        <time>2018-12-22T16:11:08Z</time>
      </trkpt>
      <trkpt lat="44.14443" lon="5.69028">
        <ele>1429.384</ele>
        <time>2018-12-22T16:11:09Z</time>
      </trkpt>
      <trkpt lat="44.14437" lon="5.69037">
        <ele>1428.372</ele>
        <time>2018-12-22T16:11:11Z</time>
      </trkpt>
      <trkpt lat="44.14432" lon="5.69043">
        <ele>1427.663</ele>
        <time>2018-12-22T16:11:12Z</time>
      </trkpt>
      <trkpt lat="44.14427" lon="5.69049">
        <ele>1426.713</ele>
        <time>2018-12-22T16:11:13Z</time>
      </trkpt>
      <trkpt lat="44.14424" lon="5.69054">
        <ele>1425.652</ele>
        <time>2018-12-22T16:11:14Z</time>
      </trkpt>
      <trkpt lat="44.14419" lon="5.6906">
        <ele>1424.068</ele>
        <time>2018-12-22T16:11:15Z</time>
      </trkpt>
      <trkpt lat="44.14415" lon="5.69066">
        <ele>1420.826</ele>
        <time>2018-12-22T16:11:16Z</time>
      </trkpt>
      <trkpt lat="44.14412" lon="5.69072">
        <ele>1419.047</ele>
        <time>2018-12-22T16:11:17Z</time>
      </trkpt>
      <trkpt lat="44.1441" lon="5.69082">
        <ele>1417.311</ele>
        <time>2018-12-22T16:11:18Z</time>
      </trkpt>
      <trkpt lat="44.14408" lon="5.69089">
        <ele>1415.708</ele>
        <time>2018-12-22T16:11:19Z</time>
      </trkpt>
      <trkpt lat="44.14408" lon="5.69097">
        <ele>1414.235</ele>
        <time>2018-12-22T16:11:20Z</time>
      </trkpt>
      <trkpt lat="44.14407" lon="5.69103">
        <ele>1412.913</ele>
        <time>2018-12-22T16:11:21Z</time>
      </trkpt>
      <trkpt lat="44.14403" lon="5.69111">
        <ele>1410.887</ele>
        <time>2018-12-22T16:11:23Z</time>
      </trkpt>
      <trkpt lat="44.14401" lon="5.69119">
        <ele>1409.265</ele>
        <time>2018-12-22T16:11:25Z</time>
      </trkpt>
      <trkpt lat="44.14398" lon="5.69126">
        <ele>1408.416</ele>
        <time>2018-12-22T16:11:26Z</time>
      </trkpt>
      <trkpt lat="44.14396" lon="5.69132">
        <ele>1407.746</ele>
        <time>2018-12-22T16:11:27Z</time>
      </trkpt>
      <trkpt lat="44.14393" lon="5.69138">
        <ele>1406.255</ele>
        <time>2018-12-22T16:11:28Z</time>
      </trkpt>
      <trkpt lat="44.1439" lon="5.69146">
        <ele>1404.731</ele>
        <time>2018-12-22T16:11:30Z</time>
      </trkpt>
      <trkpt lat="44.14384" lon="5.6915">
        <ele>1403.079</ele>
        <time>2018-12-22T16:11:32Z</time>
      </trkpt>
      <trkpt lat="44.14376" lon="5.69153">
        <ele>1401.305</ele>
        <time>2018-12-22T16:11:34Z</time>
      </trkpt>
      <trkpt lat="44.14371" lon="5.69156">
        <ele>1400.425</ele>
        <time>2018-12-22T16:11:35Z</time>
      </trkpt>
      <trkpt lat="44.14366" lon="5.69161">
        <ele>1398.808</ele>
        <time>2018-12-22T16:11:37Z</time>
      </trkpt>
      <trkpt lat="44.14362" lon="5.69169">
        <ele>1396.63</ele>
        <time>2018-12-22T16:11:39Z</time>
      </trkpt>
      <trkpt lat="44.14359" lon="5.69177">
        <ele>1395.188</ele>
        <time>2018-12-22T16:11:41Z</time>
      </trkpt>
      <trkpt lat="44.14354" lon="5.69185">
        <ele>1393.382</ele>
        <time>2018-12-22T16:11:43Z</time>
      </trkpt>
      <trkpt lat="44.14347" lon="5.69196">
        <ele>1390.95</ele>
        <time>2018-12-22T16:11:45Z</time>
      </trkpt>
      <trkpt lat="44.14342" lon="5.69201">
        <ele>1389.721</ele>
        <time>2018-12-22T16:11:46Z</time>
      </trkpt>
      <trkpt lat="44.14338" lon="5.69207">
        <ele>1388.251</ele>
        <time>2018-12-22T16:11:47Z</time>
      </trkpt>
      <trkpt lat="44.14334" lon="5.69211">
        <ele>1386.74</ele>
        <time>2018-12-22T16:11:48Z</time>
      </trkpt>
      <trkpt lat="44.14329" lon="5.69215">
        <ele>1385.266</ele>
        <time>2018-12-22T16:11:49Z</time>
      </trkpt>
      <trkpt lat="44.14324" lon="5.69217">
        <ele>1383.722</ele>
        <time>2018-12-22T16:11:50Z</time>
      </trkpt>
      <trkpt lat="44.14318" lon="5.69221">
        <ele>1380.662</ele>
        <time>2018-12-22T16:11:51Z</time>
      </trkpt>
      <trkpt lat="44.14313" lon="5.69224">
        <ele>1379.208</ele>
        <time>2018-12-22T16:11:52Z</time>
      </trkpt>
      <trkpt lat="44.14305" lon="5.69231">
        <ele>1376.808</ele>
        <time>2018-12-22T16:11:54Z</time>
      </trkpt>
      <trkpt lat="44.14299" lon="5.69239">
        <ele>1374.615</ele>
        <time>2018-12-22T16:11:56Z</time>
      </trkpt>
      <trkpt lat="44.14296" lon="5.69246">
        <ele>1372.673</ele>
        <time>2018-12-22T16:11:58Z</time>
      </trkpt>
      <trkpt lat="44.14295" lon="5.69255">
        <ele>1370.737</ele>
        <time>2018-12-22T16:12:00Z</time>
      </trkpt>
      <trkpt lat="44.14296" lon="5.69262">
        <ele>1369.845</ele>
        <time>2018-12-22T16:12:01Z</time>
      </trkpt>
      <trkpt lat="44.14299" lon="5.69272">
        <ele>1369.236</ele>
        <time>2018-12-22T16:12:02Z</time>
      </trkpt>
      <trkpt lat="44.143" lon="5.69281">
        <ele>1368.596</ele>
        <time>2018-12-22T16:12:03Z</time>
      </trkpt>
      <trkpt lat="44.143" lon="5.69294">
        <ele>1368.515</ele>
        <time>2018-12-22T16:12:04Z</time>
      </trkpt>
      <trkpt lat="44.14297" lon="5.69306">
        <ele>1368.521</ele>
        <time>2018-12-22T16:12:05Z</time>
      </trkpt>
      <trkpt lat="44.14296" lon="5.69317">
        <ele>1368.778</ele>
        <time>2018-12-22T16:12:06Z</time>
      </trkpt>
      <trkpt lat="44.14295" lon="5.69327">
        <ele>1369.033</ele>
        <time>2018-12-22T16:12:07Z</time>
      </trkpt>
      <trkpt lat="44.14293" lon="5.69338">
        <ele>1369.426</ele>
        <time>2018-12-22T16:12:08Z</time>
      </trkpt>
      <trkpt lat="44.14291" lon="5.69348">
        <ele>1369.908</ele>
        <time>2018-12-22T16:12:09Z</time>
      </trkpt>
      <trkpt lat="44.1429" lon="5.69356">
        <ele>1370.31</ele>
        <time>2018-12-22T16:12:10Z</time>
      </trkpt>
      <trkpt lat="44.14289" lon="5.69363">
        <ele>1370.848</ele>
        <time>2018-12-22T16:12:11Z</time>
      </trkpt>
      <trkpt lat="44.14288" lon="5.6937">
        <ele>1371.192</ele>
        <time>2018-12-22T16:12:12Z</time>
      </trkpt>
      <trkpt lat="44.14288" lon="5.69378">
        <ele>1371.14</ele>
        <time>2018-12-22T16:12:13Z</time>
      </trkpt>
      <trkpt lat="44.14288" lon="5.69384">
        <ele>1371.291</ele>
        <time>2018-12-22T16:12:14Z</time>
      </trkpt>
      <trkpt lat="44.1429" lon="5.69396">
        <ele>1371.741</ele>
        <time>2018-12-22T16:12:16Z</time>
      </trkpt>
      <trkpt lat="44.14291" lon="5.69405">
        <ele>1372.32</ele>
        <time>2018-12-22T16:12:17Z</time>
      </trkpt>
      <trkpt lat="44.14291" lon="5.69414">
        <ele>1372.696</ele>
        <time>2018-12-22T16:12:18Z</time>
      </trkpt>
      <trkpt lat="44.1429" lon="5.69422">
        <ele>1373.196</ele>
        <time>2018-12-22T16:12:19Z</time>
      </trkpt>
      <trkpt lat="44.1429" lon="5.69431">
        <ele>1373.531</ele>
        <time>2018-12-22T16:12:20Z</time>
      </trkpt>
      <trkpt lat="44.14291" lon="5.69438">
        <ele>1373.724</ele>
        <time>2018-12-22T16:12:21Z</time>
      </trkpt>
      <trkpt lat="44.14292" lon="5.69448">
        <ele>1373.908</ele>
        <time>2018-12-22T16:12:22Z</time>
      </trkpt>
      <trkpt lat="44.14293" lon="5.69456">
        <ele>1374.252</ele>
        <time>2018-12-22T16:12:23Z</time>
      </trkpt>
      <trkpt lat="44.14294" lon="5.69464">
        <ele>1374.64</ele>
        <time>2018-12-22T16:12:24Z</time>
      </trkpt>
      <trkpt lat="44.14296" lon="5.69473">
        <ele>1375.064</ele>
        <time>2018-12-22T16:12:25Z</time>
      </trkpt>
      <trkpt lat="44.14297" lon="5.69482">
        <ele>1375.322</ele>
        <time>2018-12-22T16:12:26Z</time>
      </trkpt>
      <trkpt lat="44.14298" lon="5.69489">
        <ele>1375.143</ele>
        <time>2018-12-22T16:12:27Z</time>
      </trkpt>
      <trkpt lat="44.143" lon="5.69497">
        <ele>1374.983</ele>
        <time>2018-12-22T16:12:28Z</time>
      </trkpt>
      <trkpt lat="44.14301" lon="5.69503">
        <ele>1374.822</ele>
        <time>2018-12-22T16:12:29Z</time>
      </trkpt>
      <trkpt lat="44.14304" lon="5.69512">
        <ele>1374.638</ele>
        <time>2018-12-22T16:12:31Z</time>
      </trkpt>
      <trkpt lat="44.14308" lon="5.69519">
        <ele>1374.855</ele>
        <time>2018-12-22T16:12:33Z</time>
      </trkpt>
      <trkpt lat="44.14313" lon="5.69527">
        <ele>1375.007</ele>
        <time>2018-12-22T16:12:35Z</time>
      </trkpt>
      <trkpt lat="44.14316" lon="5.69533">
        <ele>1375.417</ele>
        <time>2018-12-22T16:12:37Z</time>
      </trkpt>
      <trkpt lat="44.14323" lon="5.69536">
        <ele>1375.208</ele>
        <time>2018-12-22T16:12:39Z</time>
      </trkpt>
      <trkpt lat="44.14329" lon="5.69543">
        <ele>1375.228</ele>
        <time>2018-12-22T16:12:41Z</time>
      </trkpt>
      <trkpt lat="44.14332" lon="5.69551">
        <ele>1375.256</ele>
        <time>2018-12-22T16:12:43Z</time>
      </trkpt>
      <trkpt lat="44.1433" lon="5.69559">
        <ele>1374.37</ele>
        <time>2018-12-22T16:12:47Z</time>
      </trkpt>
      <trkpt lat="44.14329" lon="5.69569">
        <ele>1372.618</ele>
        <time>2018-12-22T16:12:49Z</time>
      </trkpt>
      <trkpt lat="44.14331" lon="5.69578">
        <ele>1370.359</ele>
        <time>2018-12-22T16:12:52Z</time>
      </trkpt>
      <trkpt lat="44.14331" lon="5.69585">
        <ele>1369.489</ele>
        <time>2018-12-22T16:12:54Z</time>
      </trkpt>
      <trkpt lat="44.14335" lon="5.69595">
        <ele>1369.388</ele>
        <time>2018-12-22T16:12:57Z</time>
      </trkpt>
      <trkpt lat="44.14336" lon="5.69603">
        <ele>1369.824</ele>
        <time>2018-12-22T16:12:59Z</time>
      </trkpt>
      <trkpt lat="44.14337" lon="5.69611">
        <ele>1369.817</ele>
        <time>2018-12-22T16:13:02Z</time>
      </trkpt>
      <trkpt lat="44.14341" lon="5.69619">
        <ele>1369.587</ele>
        <time>2018-12-22T16:13:04Z</time>
      </trkpt>
      <trkpt lat="44.14345" lon="5.69629">
        <ele>1369.515</ele>
        <time>2018-12-22T16:13:06Z</time>
      </trkpt>
      <trkpt lat="44.14348" lon="5.69635">
        <ele>1369.608</ele>
        <time>2018-12-22T16:13:07Z</time>
      </trkpt>
      <trkpt lat="44.14353" lon="5.69645">
        <ele>1370.984</ele>
        <time>2018-12-22T16:13:09Z</time>
      </trkpt>
      <trkpt lat="44.14356" lon="5.69651">
        <ele>1371.592</ele>
        <time>2018-12-22T16:13:10Z</time>
      </trkpt>
      <trkpt lat="44.14359" lon="5.69657">
        <ele>1372.616</ele>
        <time>2018-12-22T16:13:11Z</time>
      </trkpt>
      <trkpt lat="44.14361" lon="5.69663">
        <ele>1375.084</ele>
        <time>2018-12-22T16:13:12Z</time>
      </trkpt>
      <trkpt lat="44.14363" lon="5.6967">
        <ele>1375.975</ele>
        <time>2018-12-22T16:13:13Z</time>
      </trkpt>
      <trkpt lat="44.14363" lon="5.69679">
        <ele>1377.485</ele>
        <time>2018-12-22T16:13:15Z</time>
      </trkpt>
      <trkpt lat="44.14363" lon="5.69686">
        <ele>1377.564</ele>
        <time>2018-12-22T16:13:16Z</time>
      </trkpt>
      <trkpt lat="44.14365" lon="5.69693">
        <ele>1377.53</ele>
        <time>2018-12-22T16:13:17Z</time>
      </trkpt>
      <trkpt lat="44.14366" lon="5.697">
        <ele>1377.444</ele>
        <time>2018-12-22T16:13:18Z</time>
      </trkpt>
      <trkpt lat="44.14368" lon="5.69707">
        <ele>1377.305</ele>
        <time>2018-12-22T16:13:19Z</time>
      </trkpt>
      <trkpt lat="44.14369" lon="5.69718">
        <ele>1377.315</ele>
        <time>2018-12-22T16:13:21Z</time>
      </trkpt>
      <trkpt lat="44.14372" lon="5.69728">
        <ele>1377.108</ele>
        <time>2018-12-22T16:13:23Z</time>
      </trkpt>
      <trkpt lat="44.14374" lon="5.69739">
        <ele>1376.417</ele>
        <time>2018-12-22T16:13:25Z</time>
      </trkpt>
      <trkpt lat="44.14376" lon="5.69751">
        <ele>1376.175</ele>
        <time>2018-12-22T16:13:27Z</time>
      </trkpt>
      <trkpt lat="44.14377" lon="5.69757">
        <ele>1376.199</ele>
        <time>2018-12-22T16:13:28Z</time>
      </trkpt>
      <trkpt lat="44.14378" lon="5.69765">
        <ele>1376.317</ele>
        <time>2018-12-22T16:13:29Z</time>
      </trkpt>
      <trkpt lat="44.14378" lon="5.69772">
        <ele>1376.548</ele>
        <time>2018-12-22T16:13:30Z</time>
      </trkpt>
      <trkpt lat="44.1438" lon="5.69778">
        <ele>1376.838</ele>
        <time>2018-12-22T16:13:31Z</time>
      </trkpt>
      <trkpt lat="44.14382" lon="5.69784">
        <ele>1377.067</ele>
        <time>2018-12-22T16:13:32Z</time>
      </trkpt>
      <trkpt lat="44.14383" lon="5.69795">
        <ele>1377.013</ele>
        <time>2018-12-22T16:13:34Z</time>
      </trkpt>
      <trkpt lat="44.14386" lon="5.69806">
        <ele>1376.665</ele>
        <time>2018-12-22T16:13:36Z</time>
      </trkpt>
      <trkpt lat="44.14388" lon="5.69812">
        <ele>1376.368</ele>
        <time>2018-12-22T16:13:37Z</time>
      </trkpt>
      <trkpt lat="44.14389" lon="5.69819">
        <ele>1376.214</ele>
        <time>2018-12-22T16:13:38Z</time>
      </trkpt>
      <trkpt lat="44.1439" lon="5.69828">
        <ele>1376.208</ele>
        <time>2018-12-22T16:13:39Z</time>
      </trkpt>
      <trkpt lat="44.14391" lon="5.69835">
        <ele>1376.269</ele>
        <time>2018-12-22T16:13:40Z</time>
      </trkpt>
      <trkpt lat="44.14392" lon="5.69842">
        <ele>1376.637</ele>
        <time>2018-12-22T16:13:41Z</time>
      </trkpt>
      <trkpt lat="44.14392" lon="5.69855">
        <ele>1377.851</ele>
        <time>2018-12-22T16:13:43Z</time>
      </trkpt>
      <trkpt lat="44.14395" lon="5.69861">
        <ele>1378.579</ele>
        <time>2018-12-22T16:13:44Z</time>
      </trkpt>
      <trkpt lat="44.14398" lon="5.69868">
        <ele>1379.15</ele>
        <time>2018-12-22T16:13:45Z</time>
      </trkpt>
      <trkpt lat="44.14403" lon="5.69875">
        <ele>1380.03</ele>
        <time>2018-12-22T16:13:46Z</time>
      </trkpt>
      <trkpt lat="44.14406" lon="5.6988">
        <ele>1380.639</ele>
        <time>2018-12-22T16:13:47Z</time>
      </trkpt>
      <trkpt lat="44.14408" lon="5.69886">
        <ele>1381.685</ele>
        <time>2018-12-22T16:13:49Z</time>
      </trkpt>
      <trkpt lat="44.14408" lon="5.69893">
        <ele>1382.036</ele>
        <time>2018-12-22T16:13:52Z</time>
      </trkpt>
      <trkpt lat="44.14403" lon="5.699">
        <ele>1379.317</ele>
        <time>2018-12-22T16:13:56Z</time>
      </trkpt>
      <trkpt lat="44.14398" lon="5.69906">
        <ele>1374.918</ele>
        <time>2018-12-22T16:14:00Z</time>
      </trkpt>
      <trkpt lat="44.14394" lon="5.6991">
        <ele>1372.708</ele>
        <time>2018-12-22T16:14:02Z</time>
      </trkpt>
      <trkpt lat="44.14393" lon="5.69916">
        <ele>1369.646</ele>
        <time>2018-12-22T16:14:05Z</time>
      </trkpt>
      <trkpt lat="44.14395" lon="5.69923">
        <ele>1364.914</ele>
        <time>2018-12-22T16:14:10Z</time>
      </trkpt>
      <trkpt lat="44.14393" lon="5.69931">
        <ele>1363.588</ele>
        <time>2018-12-22T16:14:12Z</time>
      </trkpt>
      <trkpt lat="44.14389" lon="5.6994">
        <ele>1362.226</ele>
        <time>2018-12-22T16:14:14Z</time>
      </trkpt>
      <trkpt lat="44.14387" lon="5.69948">
        <ele>1360.617</ele>
        <time>2018-12-22T16:14:16Z</time>
      </trkpt>
      <trkpt lat="44.14386" lon="5.69954">
        <ele>1358.367</ele>
        <time>2018-12-22T16:14:18Z</time>
      </trkpt>
      <trkpt lat="44.14385" lon="5.6996">
        <ele>1354.396</ele>
        <time>2018-12-22T16:14:21Z</time>
      </trkpt>
      <trkpt lat="44.14382" lon="5.69966">
        <ele>1352.892</ele>
        <time>2018-12-22T16:14:23Z</time>
      </trkpt>
      <trkpt lat="44.14379" lon="5.69972">
        <ele>1351.537</ele>
        <time>2018-12-22T16:14:25Z</time>
      </trkpt>
      <trkpt lat="44.14376" lon="5.6998">
        <ele>1350.549</ele>
        <time>2018-12-22T16:14:27Z</time>
      </trkpt>
      <trkpt lat="44.1437" lon="5.69984">
        <ele>1349.813</ele>
        <time>2018-12-22T16:14:31Z</time>
      </trkpt>
      <trkpt lat="44.14366" lon="5.69987">
        <ele>1349.708</ele>
        <time>2018-12-22T16:14:34Z</time>
      </trkpt>
      <trkpt lat="44.14362" lon="5.69993">
        <ele>1349.566</ele>
        <time>2018-12-22T16:14:37Z</time>
      </trkpt>
      <trkpt lat="44.14358" lon="5.69998">
        <ele>1349.354</ele>
        <time>2018-12-22T16:14:40Z</time>
      </trkpt>
      <trkpt lat="44.14354" lon="5.70002">
        <ele>1348.798</ele>
        <time>2018-12-22T16:14:43Z</time>
      </trkpt>
      <trkpt lat="44.1435" lon="5.70006">
        <ele>1347.216</ele>
        <time>2018-12-22T16:14:45Z</time>
      </trkpt>
      <trkpt lat="44.14345" lon="5.70006">
        <ele>1346.347</ele>
        <time>2018-12-22T16:14:47Z</time>
      </trkpt>
      <trkpt lat="44.14337" lon="5.70007">
        <ele>1345.467</ele>
        <time>2018-12-22T16:14:49Z</time>
      </trkpt>
      <trkpt lat="44.1433" lon="5.70007">
        <ele>1344.026</ele>
        <time>2018-12-22T16:14:51Z</time>
      </trkpt>
      <trkpt lat="44.14323" lon="5.70009">
        <ele>1342.262</ele>
        <time>2018-12-22T16:14:53Z</time>
      </trkpt>
      <trkpt lat="44.14316" lon="5.70008">
        <ele>1340.114</ele>
        <time>2018-12-22T16:14:55Z</time>
      </trkpt>
      <trkpt lat="44.1431" lon="5.70006">
        <ele>1339.454</ele>
        <time>2018-12-22T16:14:57Z</time>
      </trkpt>
      <trkpt lat="44.14302" lon="5.70009">
        <ele>1338.209</ele>
        <time>2018-12-22T16:14:59Z</time>
      </trkpt>
      <trkpt lat="44.14294" lon="5.70011">
        <ele>1336.308</ele>
        <time>2018-12-22T16:15:01Z</time>
      </trkpt>
      <trkpt lat="44.14285" lon="5.70013">
        <ele>1333.994</ele>
        <time>2018-12-22T16:15:03Z</time>
      </trkpt>
      <trkpt lat="44.14279" lon="5.70014">
        <ele>1331.652</ele>
        <time>2018-12-22T16:15:05Z</time>
      </trkpt>
      <trkpt lat="44.14274" lon="5.70016">
        <ele>1328.846</ele>
        <time>2018-12-22T16:15:07Z</time>
      </trkpt>
      <trkpt lat="44.14269" lon="5.70018">
        <ele>1327.224</ele>
        <time>2018-12-22T16:15:09Z</time>
      </trkpt>
      <trkpt lat="44.14264" lon="5.70025">
        <ele>1325.585</ele>
        <time>2018-12-22T16:15:11Z</time>
      </trkpt>
      <trkpt lat="44.1426" lon="5.70029">
        <ele>1324.745</ele>
        <time>2018-12-22T16:15:12Z</time>
      </trkpt>
      <trkpt lat="44.14252" lon="5.70033">
        <ele>1323.624</ele>
        <time>2018-12-22T16:15:14Z</time>
      </trkpt>
      <trkpt lat="44.14245" lon="5.70043">
        <ele>1322.84</ele>
        <time>2018-12-22T16:15:16Z</time>
      </trkpt>
      <trkpt lat="44.14242" lon="5.70049">
        <ele>1322.258</ele>
        <time>2018-12-22T16:15:17Z</time>
      </trkpt>
      <trkpt lat="44.14238" lon="5.70054">
        <ele>1321.452</ele>
        <time>2018-12-22T16:15:18Z</time>
      </trkpt>
      <trkpt lat="44.14233" lon="5.7006">
        <ele>1319.617</ele>
        <time>2018-12-22T16:15:19Z</time>
      </trkpt>
      <trkpt lat="44.14228" lon="5.70067">
        <ele>1319.008</ele>
        <time>2018-12-22T16:15:20Z</time>
      </trkpt>
      <trkpt lat="44.14222" lon="5.70073">
        <ele>1318.428</ele>
        <time>2018-12-22T16:15:21Z</time>
      </trkpt>
      <trkpt lat="44.14214" lon="5.70078">
        <ele>1317.846</ele>
        <time>2018-12-22T16:15:22Z</time>
      </trkpt>
      <trkpt lat="44.14207" lon="5.70082">
        <ele>1317.59</ele>
        <time>2018-12-22T16:15:23Z</time>
      </trkpt>
      <trkpt lat="44.14199" lon="5.70087">
        <ele>1317.218</ele>
        <time>2018-12-22T16:15:24Z</time>
      </trkpt>
      <trkpt lat="44.14193" lon="5.70093">
        <ele>1317.159</ele>
        <time>2018-12-22T16:15:25Z</time>
      </trkpt>
      <trkpt lat="44.14188" lon="5.70097">
        <ele>1317.179</ele>
        <time>2018-12-22T16:15:26Z</time>
      </trkpt>
      <trkpt lat="44.14182" lon="5.70103">
        <ele>1317.868</ele>
        <time>2018-12-22T16:15:28Z</time>
      </trkpt>
      <trkpt lat="44.14177" lon="5.70108">
        <ele>1319.444</ele>
        <time>2018-12-22T16:15:30Z</time>
      </trkpt>
      <trkpt lat="44.1417" lon="5.70113">
        <ele>1320.528</ele>
        <time>2018-12-22T16:15:32Z</time>
      </trkpt>
      <trkpt lat="44.14163" lon="5.70117">
        <ele>1321.389</ele>
        <time>2018-12-22T16:15:34Z</time>
      </trkpt>
      <trkpt lat="44.14156" lon="5.70123">
        <ele>1321.617</ele>
        <time>2018-12-22T16:15:36Z</time>
      </trkpt>
      <trkpt lat="44.14155" lon="5.70129">
        <ele>1321.108</ele>
        <time>2018-12-22T16:15:40Z</time>
      </trkpt>
      <trkpt lat="44.14157" lon="5.70135">
        <ele>1319.265</ele>
        <time>2018-12-22T16:15:47Z</time>
      </trkpt>
      <trkpt lat="44.14152" lon="5.70137">
        <ele>1318.333</ele>
        <time>2018-12-22T16:15:53Z</time>
      </trkpt>
      <trkpt lat="44.14148" lon="5.70142">
        <ele>1321.037</ele>
        <time>2018-12-22T16:16:14Z</time>
      </trkpt>
      <trkpt lat="44.14144" lon="5.70141">
        <ele>1321.125</ele>
        <time>2018-12-22T16:16:27Z</time>
      </trkpt>
      <trkpt lat="44.14147" lon="5.70132">
        <ele>1321.616</ele>
        <time>2018-12-22T16:16:31Z</time>
      </trkpt>
      <trkpt lat="44.14152" lon="5.70127">
        <ele>1321.596</ele>
        <time>2018-12-22T16:16:34Z</time>
      </trkpt>
      <trkpt lat="44.14158" lon="5.70122">
        <ele>1321.475</ele>
        <time>2018-12-22T16:16:35Z</time>
      </trkpt>
      <trkpt lat="44.14162" lon="5.70116">
        <ele>1321.361</ele>
        <time>2018-12-22T16:16:36Z</time>
      </trkpt>
      <trkpt lat="44.14167" lon="5.70111">
        <ele>1321.128</ele>
        <time>2018-12-22T16:16:37Z</time>
      </trkpt>
      <trkpt lat="44.14172" lon="5.70107">
        <ele>1320.989</ele>
        <time>2018-12-22T16:16:38Z</time>
      </trkpt>
      <trkpt lat="44.14176" lon="5.70101">
        <ele>1321.017</ele>
        <time>2018-12-22T16:16:39Z</time>
      </trkpt>
      <trkpt lat="44.1418" lon="5.70094">
        <ele>1321.208</ele>
        <time>2018-12-22T16:16:40Z</time>
      </trkpt>
      <trkpt lat="44.14184" lon="5.70087">
        <ele>1321.445</ele>
        <time>2018-12-22T16:16:41Z</time>
      </trkpt>
      <trkpt lat="44.14187" lon="5.70079">
        <ele>1321.513</ele>
        <time>2018-12-22T16:16:42Z</time>
      </trkpt>
      <trkpt lat="44.14191" lon="5.70072">
        <ele>1322.067</ele>
        <time>2018-12-22T16:16:44Z</time>
      </trkpt>
      <trkpt lat="44.14191" lon="5.70064">
        <ele>1323.625</ele>
        <time>2018-12-22T16:16:47Z</time>
      </trkpt>
      <trkpt lat="44.14186" lon="5.70059">
        <ele>1324.416</ele>
        <time>2018-12-22T16:16:49Z</time>
      </trkpt>
      <trkpt lat="44.14181" lon="5.7006">
        <ele>1324.616</ele>
        <time>2018-12-22T16:16:51Z</time>
      </trkpt>
      <trkpt lat="44.14179" lon="5.70054">
        <ele>1325.615</ele>
        <time>2018-12-22T16:17:17Z</time>
      </trkpt>
      <trkpt lat="44.14183" lon="5.70058">
        <ele>1325.791</ele>
        <time>2018-12-22T16:17:19Z</time>
      </trkpt>
      <trkpt lat="44.1419" lon="5.70056">
        <ele>1325.796</ele>
        <time>2018-12-22T16:17:23Z</time>
      </trkpt>
      <trkpt lat="44.14193" lon="5.70051">
        <ele>1325.731</ele>
        <time>2018-12-22T16:17:25Z</time>
      </trkpt>
      <trkpt lat="44.1419" lon="5.70042">
        <ele>1325.024</ele>
        <time>2018-12-22T16:17:28Z</time>
      </trkpt>
      <trkpt lat="44.14188" lon="5.70035">
        <ele>1323.408</ele>
        <time>2018-12-22T16:17:30Z</time>
      </trkpt>
      <trkpt lat="44.14184" lon="5.70029">
        <ele>1321.112</ele>
        <time>2018-12-22T16:17:32Z</time>
      </trkpt>
      <trkpt lat="44.14182" lon="5.7002">
        <ele>1318.64</ele>
        <time>2018-12-22T16:17:34Z</time>
      </trkpt>
      <trkpt lat="44.14173" lon="5.70025">
        <ele>1313.034</ele>
        <time>2018-12-22T16:17:40Z</time>
      </trkpt>
      <trkpt lat="44.14166" lon="5.70028">
        <ele>1312.282</ele>
        <time>2018-12-22T16:17:41Z</time>
      </trkpt>
      <trkpt lat="44.14158" lon="5.70031">
        <ele>1311.613</ele>
        <time>2018-12-22T16:17:42Z</time>
      </trkpt>
      <trkpt lat="44.1415" lon="5.70034">
        <ele>1311.013</ele>
        <time>2018-12-22T16:17:43Z</time>
      </trkpt>
      <trkpt lat="44.14143" lon="5.70038">
        <ele>1310.392</ele>
        <time>2018-12-22T16:17:44Z</time>
      </trkpt>
      <trkpt lat="44.14134" lon="5.70043">
        <ele>1309.968</ele>
        <time>2018-12-22T16:17:45Z</time>
      </trkpt>
      <trkpt lat="44.14123" lon="5.70044">
        <ele>1309.966</ele>
        <time>2018-12-22T16:17:46Z</time>
      </trkpt>
      <trkpt lat="44.14114" lon="5.70047">
        <ele>1310.129</ele>
        <time>2018-12-22T16:17:47Z</time>
      </trkpt>
      <trkpt lat="44.14104" lon="5.70048">
        <ele>1311.221</ele>
        <time>2018-12-22T16:17:48Z</time>
      </trkpt>
      <trkpt lat="44.14094" lon="5.70049">
        <ele>1312.008</ele>
        <time>2018-12-22T16:17:49Z</time>
      </trkpt>
      <trkpt lat="44.14085" lon="5.7005">
        <ele>1312.729</ele>
        <time>2018-12-22T16:17:50Z</time>
      </trkpt>
      <trkpt lat="44.14075" lon="5.70051">
        <ele>1313.337</ele>
        <time>2018-12-22T16:17:51Z</time>
      </trkpt>
      <trkpt lat="44.14065" lon="5.70052">
        <ele>1313.531</ele>
        <time>2018-12-22T16:17:52Z</time>
      </trkpt>
      <trkpt lat="44.14056" lon="5.70054">
        <ele>1313.619</ele>
        <time>2018-12-22T16:17:53Z</time>
      </trkpt>
      <trkpt lat="44.14047" lon="5.70056">
        <ele>1313.94</ele>
        <time>2018-12-22T16:17:54Z</time>
      </trkpt>
      <trkpt lat="44.14039" lon="5.70059">
        <ele>1314.38</ele>
        <time>2018-12-22T16:17:55Z</time>
      </trkpt>
      <trkpt lat="44.14033" lon="5.70064">
        <ele>1314.679</ele>
        <time>2018-12-22T16:17:56Z</time>
      </trkpt>
      <trkpt lat="44.14026" lon="5.70069">
        <ele>1315.275</ele>
        <time>2018-12-22T16:17:57Z</time>
      </trkpt>
      <trkpt lat="44.14023" lon="5.70074">
        <ele>1315.844</ele>
        <time>2018-12-22T16:17:58Z</time>
      </trkpt>
      <trkpt lat="44.14016" lon="5.70078">
        <ele>1316.105</ele>
        <time>2018-12-22T16:17:59Z</time>
      </trkpt>
      <trkpt lat="44.1401" lon="5.70084">
        <ele>1316.015</ele>
        <time>2018-12-22T16:18:00Z</time>
      </trkpt>
      <trkpt lat="44.14005" lon="5.70091">
        <ele>1315.808</ele>
        <time>2018-12-22T16:18:01Z</time>
      </trkpt>
      <trkpt lat="44.13999" lon="5.70096">
        <ele>1315.387</ele>
        <time>2018-12-22T16:18:02Z</time>
      </trkpt>
      <trkpt lat="44.13993" lon="5.70102">
        <ele>1315.155</ele>
        <time>2018-12-22T16:18:03Z</time>
      </trkpt>
      <trkpt lat="44.13986" lon="5.70106">
        <ele>1315.079</ele>
        <time>2018-12-22T16:18:04Z</time>
      </trkpt>
      <trkpt lat="44.1398" lon="5.70111">
        <ele>1314.867</ele>
        <time>2018-12-22T16:18:05Z</time>
      </trkpt>
      <trkpt lat="44.13976" lon="5.70117">
        <ele>1314.468</ele>
        <time>2018-12-22T16:18:06Z</time>
      </trkpt>
      <trkpt lat="44.13971" lon="5.70122">
        <ele>1314.128</ele>
        <time>2018-12-22T16:18:07Z</time>
      </trkpt>
      <trkpt lat="44.13968" lon="5.70127">
        <ele>1313.747</ele>
        <time>2018-12-22T16:18:08Z</time>
      </trkpt>
      <trkpt lat="44.13959" lon="5.70131">
        <ele>1312.573</ele>
        <time>2018-12-22T16:18:10Z</time>
      </trkpt>
      <trkpt lat="44.13954" lon="5.70131">
        <ele>1310.871</ele>
        <time>2018-12-22T16:18:11Z</time>
      </trkpt>
      <trkpt lat="44.13948" lon="5.70131">
        <ele>1310.041</ele>
        <time>2018-12-22T16:18:12Z</time>
      </trkpt>
      <trkpt lat="44.13942" lon="5.70135">
        <ele>1309.315</ele>
        <time>2018-12-22T16:18:13Z</time>
      </trkpt>
      <trkpt lat="44.13938" lon="5.70139">
        <ele>1308.608</ele>
        <time>2018-12-22T16:18:14Z</time>
      </trkpt>
      <trkpt lat="44.13934" lon="5.70142">
        <ele>1308.65</ele>
        <time>2018-12-22T16:18:15Z</time>
      </trkpt>
      <trkpt lat="44.13929" lon="5.70144">
        <ele>1308.678</ele>
        <time>2018-12-22T16:18:16Z</time>
      </trkpt>
      <trkpt lat="44.13924" lon="5.70149">
        <ele>1308.942</ele>
        <time>2018-12-22T16:18:17Z</time>
      </trkpt>
      <trkpt lat="44.13919" lon="5.70152">
        <ele>1309.35</ele>
        <time>2018-12-22T16:18:18Z</time>
      </trkpt>
      <trkpt lat="44.1391" lon="5.70163">
        <ele>1310.991</ele>
        <time>2018-12-22T16:18:21Z</time>
      </trkpt>
      <trkpt lat="44.13907" lon="5.70168">
        <ele>1310.951</ele>
        <time>2018-12-22T16:18:22Z</time>
      </trkpt>
      <trkpt lat="44.13901" lon="5.70173">
        <ele>1309.88</ele>
        <time>2018-12-22T16:18:23Z</time>
      </trkpt>
      <trkpt lat="44.13895" lon="5.70182">
        <ele>1308.936</ele>
        <time>2018-12-22T16:18:24Z</time>
      </trkpt>
      <trkpt lat="44.1389" lon="5.70187">
        <ele>1308.182</ele>
        <time>2018-12-22T16:18:25Z</time>
      </trkpt>
      <trkpt lat="44.13884" lon="5.70191">
        <ele>1307.543</ele>
        <time>2018-12-22T16:18:26Z</time>
      </trkpt>
      <trkpt lat="44.13878" lon="5.70196">
        <ele>1307.017</ele>
        <time>2018-12-22T16:18:27Z</time>
      </trkpt>
      <trkpt lat="44.13868" lon="5.70202">
        <ele>1306.708</ele>
        <time>2018-12-22T16:18:28Z</time>
      </trkpt>
      <trkpt lat="44.13859" lon="5.70206">
        <ele>1306.481</ele>
        <time>2018-12-22T16:18:29Z</time>
      </trkpt>
      <trkpt lat="44.13854" lon="5.70209">
        <ele>1306.389</ele>
        <time>2018-12-22T16:18:30Z</time>
      </trkpt>
      <trkpt lat="44.13846" lon="5.7021">
        <ele>1306.483</ele>
        <time>2018-12-22T16:18:31Z</time>
      </trkpt>
      <trkpt lat="44.13839" lon="5.70214">
        <ele>1306.451</ele>
        <time>2018-12-22T16:18:32Z</time>
      </trkpt>
      <trkpt lat="44.13831" lon="5.70218">
        <ele>1306.432</ele>
        <time>2018-12-22T16:18:33Z</time>
      </trkpt>
      <trkpt lat="44.13821" lon="5.7022">
        <ele>1306.482</ele>
        <time>2018-12-22T16:18:34Z</time>
      </trkpt>
      <trkpt lat="44.13817" lon="5.70221">
        <ele>1306.541</ele>
        <time>2018-12-22T16:18:35Z</time>
      </trkpt>
      <trkpt lat="44.13811" lon="5.70222">
        <ele>1306.627</ele>
        <time>2018-12-22T16:18:36Z</time>
      </trkpt>
      <trkpt lat="44.13802" lon="5.70232">
        <ele>1306.726</ele>
        <time>2018-12-22T16:18:37Z</time>
      </trkpt>
      <trkpt lat="44.13794" lon="5.70231">
        <ele>1308.347</ele>
        <time>2018-12-22T16:18:39Z</time>
      </trkpt>
      <trkpt lat="44.13789" lon="5.70234">
        <ele>1308.811</ele>
        <time>2018-12-22T16:18:41Z</time>
      </trkpt>
      <trkpt lat="44.13788" lon="5.70242">
        <ele>1308.808</ele>
        <time>2018-12-22T16:18:42Z</time>
      </trkpt>
      <trkpt lat="44.13787" lon="5.70253">
        <ele>1308.115</ele>
        <time>2018-12-22T16:18:44Z</time>
      </trkpt>
      <trkpt lat="44.13782" lon="5.70264">
        <ele>1305.553</ele>
        <time>2018-12-22T16:18:46Z</time>
      </trkpt>
      <trkpt lat="44.13778" lon="5.70271">
        <ele>1304.247</ele>
        <time>2018-12-22T16:18:47Z</time>
      </trkpt>
      <trkpt lat="44.13773" lon="5.70279">
        <ele>1302.835</ele>
        <time>2018-12-22T16:18:48Z</time>
      </trkpt>
      <trkpt lat="44.1377" lon="5.70288">
        <ele>1301.236</ele>
        <time>2018-12-22T16:18:49Z</time>
      </trkpt>
      <trkpt lat="44.13767" lon="5.70299">
        <ele>1299.766</ele>
        <time>2018-12-22T16:18:50Z</time>
      </trkpt>
      <trkpt lat="44.13765" lon="5.70309">
        <ele>1298.165</ele>
        <time>2018-12-22T16:18:51Z</time>
      </trkpt>
      <trkpt lat="44.1376" lon="5.7032">
        <ele>1296.571</ele>
        <time>2018-12-22T16:18:52Z</time>
      </trkpt>
      <trkpt lat="44.13757" lon="5.70331">
        <ele>1294.964</ele>
        <time>2018-12-22T16:18:53Z</time>
      </trkpt>
      <trkpt lat="44.13754" lon="5.70341">
        <ele>1293.306</ele>
        <time>2018-12-22T16:18:54Z</time>
      </trkpt>
      <trkpt lat="44.13752" lon="5.70349">
        <ele>1291.716</ele>
        <time>2018-12-22T16:18:55Z</time>
      </trkpt>
      <trkpt lat="44.13747" lon="5.70359">
        <ele>1290.208</ele>
        <time>2018-12-22T16:18:56Z</time>
      </trkpt>
      <trkpt lat="44.13743" lon="5.7037">
        <ele>1287.289</ele>
        <time>2018-12-22T16:18:57Z</time>
      </trkpt>
      <trkpt lat="44.1374" lon="5.70379">
        <ele>1285.937</ele>
        <time>2018-12-22T16:18:58Z</time>
      </trkpt>
      <trkpt lat="44.13737" lon="5.70387">
        <ele>1284.731</ele>
        <time>2018-12-22T16:18:59Z</time>
      </trkpt>
      <trkpt lat="44.13722" lon="5.70412">
        <ele>1283.659</ele>
        <time>2018-12-22T16:19:00Z</time>
      </trkpt>
      <trkpt lat="44.1372" lon="5.70419">
        <ele>1282.79</ele>
        <time>2018-12-22T16:19:01Z</time>
      </trkpt>
      <trkpt lat="44.13717" lon="5.70425">
        <ele>1282.22</ele>
        <time>2018-12-22T16:19:02Z</time>
      </trkpt>
      <trkpt lat="44.13712" lon="5.70428">
        <ele>1281.979</ele>
        <time>2018-12-22T16:19:03Z</time>
      </trkpt>
      <trkpt lat="44.13707" lon="5.70432">
        <ele>1281.855</ele>
        <time>2018-12-22T16:19:05Z</time>
      </trkpt>
      <trkpt lat="44.13701" lon="5.70436">
        <ele>1281.838</ele>
        <time>2018-12-22T16:19:07Z</time>
      </trkpt>
      <trkpt lat="44.13693" lon="5.70439">
        <ele>1281.87</ele>
        <time>2018-12-22T16:19:09Z</time>
      </trkpt>
      <trkpt lat="44.13689" lon="5.70445">
        <ele>1281.917</ele>
        <time>2018-12-22T16:19:12Z</time>
      </trkpt>
      <trkpt lat="44.13684" lon="5.70452">
        <ele>1282.008</ele>
        <time>2018-12-22T16:19:14Z</time>
      </trkpt>
      <trkpt lat="44.13681" lon="5.70457">
        <ele>1282.186</ele>
        <time>2018-12-22T16:19:16Z</time>
      </trkpt>
      <trkpt lat="44.13678" lon="5.70464">
        <ele>1282.184</ele>
        <time>2018-12-22T16:19:19Z</time>
      </trkpt>
      <trkpt lat="44.13675" lon="5.70473">
        <ele>1282.088</ele>
        <time>2018-12-22T16:19:21Z</time>
      </trkpt>
      <trkpt lat="44.13674" lon="5.70483">
        <ele>1281.986</ele>
        <time>2018-12-22T16:19:23Z</time>
      </trkpt>
      <trkpt lat="44.13678" lon="5.70487">
        <ele>1281.117</ele>
        <time>2018-12-22T16:19:27Z</time>
      </trkpt>
      <trkpt lat="44.13674" lon="5.70495">
        <ele>1281.167</ele>
        <time>2018-12-22T16:19:30Z</time>
      </trkpt>
      <trkpt lat="44.13673" lon="5.70502">
        <ele>1281.336</ele>
        <time>2018-12-22T16:19:31Z</time>
      </trkpt>
      <trkpt lat="44.13671" lon="5.70508">
        <ele>1281.882</ele>
        <time>2018-12-22T16:19:33Z</time>
      </trkpt>
      <trkpt lat="44.13669" lon="5.70516">
        <ele>1281.879</ele>
        <time>2018-12-22T16:19:34Z</time>
      </trkpt>
      <trkpt lat="44.13668" lon="5.70523">
        <ele>1282.205</ele>
        <time>2018-12-22T16:19:39Z</time>
      </trkpt>
      <trkpt lat="44.13665" lon="5.70528">
        <ele>1282.425</ele>
        <time>2018-12-22T16:19:52Z</time>
      </trkpt>
      <trkpt lat="44.13663" lon="5.70534">
        <ele>1282.308</ele>
        <time>2018-12-22T16:20:00Z</time>
      </trkpt>
      <trkpt lat="44.13659" lon="5.70538">
        <ele>1282.55</ele>
        <time>2018-12-22T16:20:07Z</time>
      </trkpt>
      <trkpt lat="44.13658" lon="5.70544">
        <ele>1283.188</ele>
        <time>2018-12-22T16:20:15Z</time>
      </trkpt>
      <trkpt lat="44.13666" lon="5.70549">
        <ele>1282.552</ele>
        <time>2018-12-22T16:20:28Z</time>
      </trkpt>
      <trkpt lat="44.13672" lon="5.70554">
        <ele>1282.38</ele>
        <time>2018-12-22T16:20:30Z</time>
      </trkpt>
      <trkpt lat="44.13677" lon="5.70556">
        <ele>1282.351</ele>
        <time>2018-12-22T16:20:31Z</time>
      </trkpt>
      <trkpt lat="44.13682" lon="5.70558">
        <ele>1282.371</ele>
        <time>2018-12-22T16:20:32Z</time>
      </trkpt>
      <trkpt lat="44.13683" lon="5.70565">
        <ele>1281.68</ele>
        <time>2018-12-22T16:21:07Z</time>
      </trkpt>
      <trkpt lat="44.13682" lon="5.70574">
        <ele>1281.966</ele>
        <time>2018-12-22T16:21:09Z</time>
      </trkpt>
      <trkpt lat="44.13683" lon="5.70583">
        <ele>1282.577</ele>
        <time>2018-12-22T16:21:10Z</time>
      </trkpt>
      <trkpt lat="44.13682" lon="5.70592">
        <ele>1284.961</ele>
        <time>2018-12-22T16:21:12Z</time>
      </trkpt>
      <trkpt lat="44.1368" lon="5.706">
        <ele>1287.727</ele>
        <time>2018-12-22T16:21:14Z</time>
      </trkpt>
      <trkpt lat="44.13675" lon="5.70606">
        <ele>1293.208</ele>
        <time>2018-12-22T16:21:16Z</time>
      </trkpt>
      <trkpt lat="44.13668" lon="5.70612">
        <ele>1296.54</ele>
        <time>2018-12-22T16:21:18Z</time>
      </trkpt>
      <trkpt lat="44.13665" lon="5.70616">
        <ele>1297.338</ele>
        <time>2018-12-22T16:21:19Z</time>
      </trkpt>
      <trkpt lat="44.1366" lon="5.70621">
        <ele>1298.822</ele>
        <time>2018-12-22T16:21:20Z</time>
      </trkpt>
      <trkpt lat="44.13656" lon="5.70627">
        <ele>1300.56</ele>
        <time>2018-12-22T16:21:21Z</time>
      </trkpt>
      <trkpt lat="44.13649" lon="5.70636">
        <ele>1302.491</ele>
        <time>2018-12-22T16:21:22Z</time>
      </trkpt>
      <trkpt lat="44.13642" lon="5.70646">
        <ele>1304.351</ele>
        <time>2018-12-22T16:21:23Z</time>
      </trkpt>
      <trkpt lat="44.13637" lon="5.70655">
        <ele>1306.43</ele>
        <time>2018-12-22T16:21:24Z</time>
      </trkpt>
      <trkpt lat="44.13634" lon="5.70664">
        <ele>1308.436</ele>
        <time>2018-12-22T16:21:25Z</time>
      </trkpt>
      <trkpt lat="44.13633" lon="5.70671">
        <ele>1310.864</ele>
        <time>2018-12-22T16:21:26Z</time>
      </trkpt>
      <trkpt lat="44.13631" lon="5.70678">
        <ele>1312.906</ele>
        <time>2018-12-22T16:21:27Z</time>
      </trkpt>
      <trkpt lat="44.13627" lon="5.70688">
        <ele>1317.716</ele>
        <time>2018-12-22T16:21:28Z</time>
      </trkpt>
      <trkpt lat="44.13624" lon="5.70698">
        <ele>1319.608</ele>
        <time>2018-12-22T16:21:29Z</time>
      </trkpt>
      <trkpt lat="44.13623" lon="5.70707">
        <ele>1321.749</ele>
        <time>2018-12-22T16:21:30Z</time>
      </trkpt>
      <trkpt lat="44.1362" lon="5.70713">
        <ele>1322.917</ele>
        <time>2018-12-22T16:21:31Z</time>
      </trkpt>
      <trkpt lat="44.13618" lon="5.70719">
        <ele>1324.661</ele>
        <time>2018-12-22T16:21:32Z</time>
      </trkpt>
      <trkpt lat="44.13617" lon="5.70727">
        <ele>1325.879</ele>
        <time>2018-12-22T16:21:33Z</time>
      </trkpt>
      <trkpt lat="44.13616" lon="5.70734">
        <ele>1327.43</ele>
        <time>2018-12-22T16:21:34Z</time>
      </trkpt>
      <trkpt lat="44.13615" lon="5.70743">
        <ele>1329.15</ele>
        <time>2018-12-22T16:21:36Z</time>
      </trkpt>
      <trkpt lat="44.13615" lon="5.7075">
        <ele>1334.099</ele>
        <time>2018-12-22T16:21:39Z</time>
      </trkpt>
      <trkpt lat="44.13617" lon="5.70756">
        <ele>1335.085</ele>
        <time>2018-12-22T16:21:53Z</time>
      </trkpt>
      <trkpt lat="44.13619" lon="5.7075">
        <ele>1335.047</ele>
        <time>2018-12-22T16:22:19Z</time>
      </trkpt>
      <trkpt lat="44.13617" lon="5.70742">
        <ele>1330.229</ele>
        <time>2018-12-22T16:22:24Z</time>
      </trkpt>
      <trkpt lat="44.13614" lon="5.70738">
        <ele>1321.221</ele>
        <time>2018-12-22T16:22:30Z</time>
      </trkpt>
      <trkpt lat="44.13616" lon="5.70732">
        <ele>1312.108</ele>
        <time>2018-12-22T16:22:36Z</time>
      </trkpt>
      <trkpt lat="44.13618" lon="5.70726">
        <ele>1308.957</ele>
        <time>2018-12-22T16:22:38Z</time>
      </trkpt>
      <trkpt lat="44.13621" lon="5.70721">
        <ele>1306.415</ele>
        <time>2018-12-22T16:22:40Z</time>
      </trkpt>
      <trkpt lat="44.13624" lon="5.70716">
        <ele>1304.099</ele>
        <time>2018-12-22T16:22:42Z</time>
      </trkpt>
      <trkpt lat="44.13629" lon="5.7071">
        <ele>1302.127</ele>
        <time>2018-12-22T16:22:45Z</time>
      </trkpt>
      <trkpt lat="44.13632" lon="5.70705">
        <ele>1301.178</ele>
        <time>2018-12-22T16:22:47Z</time>
      </trkpt>
      <trkpt lat="44.13636" lon="5.70699">
        <ele>1300.788</ele>
        <time>2018-12-22T16:22:49Z</time>
      </trkpt>
      <trkpt lat="44.13638" lon="5.70693">
        <ele>1300.947</ele>
        <time>2018-12-22T16:22:51Z</time>
      </trkpt>
      <trkpt lat="44.13638" lon="5.70684">
        <ele>1301.943</ele>
        <time>2018-12-22T16:22:54Z</time>
      </trkpt>
      <trkpt lat="44.13633" lon="5.7068">
        <ele>1302.035</ele>
        <time>2018-12-22T16:22:58Z</time>
      </trkpt>
      <trkpt lat="44.13627" lon="5.70682">
        <ele>1303.686</ele>
        <time>2018-12-22T16:23:00Z</time>
      </trkpt>
      <trkpt lat="44.13623" lon="5.70683">
        <ele>1304.914</ele>
        <time>2018-12-22T16:23:01Z</time>
      </trkpt>
      <trkpt lat="44.13618" lon="5.70686">
        <ele>1306.408</ele>
        <time>2018-12-22T16:23:02Z</time>
      </trkpt>
      <trkpt lat="44.13614" lon="5.70695">
        <ele>1309.146</ele>
        <time>2018-12-22T16:23:04Z</time>
      </trkpt>
      <trkpt lat="44.13615" lon="5.70705">
        <ele>1313.844</ele>
        <time>2018-12-22T16:23:06Z</time>
      </trkpt>
      <trkpt lat="44.13613" lon="5.70717">
        <ele>1318.078</ele>
        <time>2018-12-22T16:23:08Z</time>
      </trkpt>
      <trkpt lat="44.1361" lon="5.70726">
        <ele>1323.266</ele>
        <time>2018-12-22T16:23:10Z</time>
      </trkpt>
      <trkpt lat="44.13609" lon="5.70734">
        <ele>1328.337</ele>
        <time>2018-12-22T16:23:12Z</time>
      </trkpt>
      <trkpt lat="44.13611" lon="5.70742">
        <ele>1331.737</ele>
        <time>2018-12-22T16:23:15Z</time>
      </trkpt>
      <trkpt lat="44.13614" lon="5.7075">
        <ele>1333.846</ele>
        <time>2018-12-22T16:23:17Z</time>
      </trkpt>
      <trkpt lat="44.13617" lon="5.70754">
        <ele>1336.452</ele>
        <time>2018-12-22T16:23:28Z</time>
      </trkpt>
      <trkpt lat="44.13613" lon="5.70748">
        <ele>1329.043</ele>
        <time>2018-12-22T16:24:40Z</time>
      </trkpt>
      <trkpt lat="44.13611" lon="5.70741">
        <ele>1326.164</ele>
        <time>2018-12-22T16:24:43Z</time>
      </trkpt>
      <trkpt lat="44.13607" lon="5.70734">
        <ele>1320.61</ele>
        <time>2018-12-22T16:24:46Z</time>
      </trkpt>
      <trkpt lat="44.13611" lon="5.70732">
        <ele>1310.708</ele>
        <time>2018-12-22T16:24:58Z</time>
      </trkpt>
      <trkpt lat="44.13616" lon="5.70729">
        <ele>1310.377</ele>
        <time>2018-12-22T16:25:05Z</time>
      </trkpt>
      <trkpt lat="44.13617" lon="5.70723">
        <ele>1309.965</ele>
        <time>2018-12-22T16:25:15Z</time>
      </trkpt>
      <trkpt lat="44.13615" lon="5.70717">
        <ele>1310.149</ele>
        <time>2018-12-22T16:25:20Z</time>
      </trkpt>
      <trkpt lat="44.13613" lon="5.7071">
        <ele>1308.647</ele>
        <time>2018-12-22T16:25:23Z</time>
      </trkpt>
      <trkpt lat="44.13616" lon="5.70704">
        <ele>1304.238</ele>
        <time>2018-12-22T16:25:27Z</time>
      </trkpt>
      <trkpt lat="44.13621" lon="5.70699">
        <ele>1300.688</ele>
        <time>2018-12-22T16:25:30Z</time>
      </trkpt>
      <trkpt lat="44.13625" lon="5.70694">
        <ele>1296.767</ele>
        <time>2018-12-22T16:25:33Z</time>
      </trkpt>
      <trkpt lat="44.13629" lon="5.70688">
        <ele>1294.533</ele>
        <time>2018-12-22T16:25:36Z</time>
      </trkpt>
      <trkpt lat="44.13633" lon="5.70683">
        <ele>1292.867</ele>
        <time>2018-12-22T16:25:38Z</time>
      </trkpt>
      <trkpt lat="44.13639" lon="5.70678">
        <ele>1291.781</ele>
        <time>2018-12-22T16:25:39Z</time>
      </trkpt>
      <trkpt lat="44.13643" lon="5.70673">
        <ele>1290.419</ele>
        <time>2018-12-22T16:25:40Z</time>
      </trkpt>
      <trkpt lat="44.13648" lon="5.70667">
        <ele>1289.108</ele>
        <time>2018-12-22T16:25:41Z</time>
      </trkpt>
      <trkpt lat="44.13653" lon="5.70663">
        <ele>1287.639</ele>
        <time>2018-12-22T16:25:42Z</time>
      </trkpt>
      <trkpt lat="44.13659" lon="5.70659">
        <ele>1286.217</ele>
        <time>2018-12-22T16:25:43Z</time>
      </trkpt>
      <trkpt lat="44.13665" lon="5.70652">
        <ele>1283.951</ele>
        <time>2018-12-22T16:25:44Z</time>
      </trkpt>
      <trkpt lat="44.13669" lon="5.70646">
        <ele>1282.889</ele>
        <time>2018-12-22T16:25:45Z</time>
      </trkpt>
      <trkpt lat="44.13674" lon="5.70638">
        <ele>1282.15</ele>
        <time>2018-12-22T16:25:46Z</time>
      </trkpt>
      <trkpt lat="44.13677" lon="5.70631">
        <ele>1281.65</ele>
        <time>2018-12-22T16:25:47Z</time>
      </trkpt>
      <trkpt lat="44.13678" lon="5.70624">
        <ele>1281.489</ele>
        <time>2018-12-22T16:25:48Z</time>
      </trkpt>
      <trkpt lat="44.1368" lon="5.70615">
        <ele>1281.535</ele>
        <time>2018-12-22T16:25:50Z</time>
      </trkpt>
      <trkpt lat="44.13684" lon="5.70607">
        <ele>1282.215</ele>
        <time>2018-12-22T16:25:54Z</time>
      </trkpt>
      <trkpt lat="44.13687" lon="5.70597">
        <ele>1282.365</ele>
        <time>2018-12-22T16:25:57Z</time>
      </trkpt>
      <trkpt lat="44.13688" lon="5.70588">
        <ele>1282.311</ele>
        <time>2018-12-22T16:25:59Z</time>
      </trkpt>
      <trkpt lat="44.13688" lon="5.70581">
        <ele>1282.408</ele>
        <time>2018-12-22T16:26:01Z</time>
      </trkpt>
      <trkpt lat="44.13696" lon="5.70578">
        <ele>1282.424</ele>
        <time>2018-12-22T16:26:04Z</time>
      </trkpt>
      <trkpt lat="44.13701" lon="5.70577">
        <ele>1282.442</ele>
        <time>2018-12-22T16:26:06Z</time>
      </trkpt>
      <trkpt lat="44.13701" lon="5.7057">
        <ele>1282.726</ele>
        <time>2018-12-22T16:26:19Z</time>
      </trkpt>
      <trkpt lat="44.13697" lon="5.70568">
        <ele>1282.764</ele>
        <time>2018-12-22T16:26:39Z</time>
      </trkpt>
      <trkpt lat="44.13694" lon="5.70573">
        <ele>1282.925</ele>
        <time>2018-12-22T16:26:52Z</time>
      </trkpt>
      <trkpt lat="44.13691" lon="5.70567">
        <ele>1282.935</ele>
        <time>2018-12-22T16:27:28Z</time>
      </trkpt>
      <trkpt lat="44.13687" lon="5.70564">
        <ele>1282.754</ele>
        <time>2018-12-22T16:27:30Z</time>
      </trkpt>
      <trkpt lat="44.1368" lon="5.70556">
        <ele>1281.48</ele>
        <time>2018-12-22T16:27:32Z</time>
      </trkpt>
      <trkpt lat="44.13678" lon="5.7055">
        <ele>1280.742</ele>
        <time>2018-12-22T16:27:33Z</time>
      </trkpt>
      <trkpt lat="44.13674" lon="5.70543">
        <ele>1280.122</ele>
        <time>2018-12-22T16:27:34Z</time>
      </trkpt>
      <trkpt lat="44.13668" lon="5.70538">
        <ele>1279.614</ele>
        <time>2018-12-22T16:27:35Z</time>
      </trkpt>
      <trkpt lat="44.13662" lon="5.70533">
        <ele>1279.108</ele>
        <time>2018-12-22T16:27:36Z</time>
      </trkpt>
      <trkpt lat="44.13656" lon="5.7053">
        <ele>1278.727</ele>
        <time>2018-12-22T16:27:37Z</time>
      </trkpt>
      <trkpt lat="44.13649" lon="5.70529">
        <ele>1278.345</ele>
        <time>2018-12-22T16:27:38Z</time>
      </trkpt>
      <trkpt lat="44.13643" lon="5.70527">
        <ele>1277.879</ele>
        <time>2018-12-22T16:27:39Z</time>
      </trkpt>
      <trkpt lat="44.13638" lon="5.70526">
        <ele>1277.087</ele>
        <time>2018-12-22T16:27:40Z</time>
      </trkpt>
      <trkpt lat="44.13632" lon="5.70527">
        <ele>1276.218</ele>
        <time>2018-12-22T16:27:41Z</time>
      </trkpt>
      <trkpt lat="44.13625" lon="5.70528">
        <ele>1274.148</ele>
        <time>2018-12-22T16:27:42Z</time>
      </trkpt>
      <trkpt lat="44.13619" lon="5.70529">
        <ele>1272.847</ele>
        <time>2018-12-22T16:27:43Z</time>
      </trkpt>
      <trkpt lat="44.13613" lon="5.7053">
        <ele>1271.593</ele>
        <time>2018-12-22T16:27:44Z</time>
      </trkpt>
      <trkpt lat="44.13607" lon="5.70531">
        <ele>1270.226</ele>
        <time>2018-12-22T16:27:45Z</time>
      </trkpt>
      <trkpt lat="44.136" lon="5.70533">
        <ele>1268.947</ele>
        <time>2018-12-22T16:27:46Z</time>
      </trkpt>
      <trkpt lat="44.13593" lon="5.70536">
        <ele>1267.511</ele>
        <time>2018-12-22T16:27:47Z</time>
      </trkpt>
      <trkpt lat="44.13585" lon="5.7054">
        <ele>1266.208</ele>
        <time>2018-12-22T16:27:48Z</time>
      </trkpt>
      <trkpt lat="44.13577" lon="5.70543">
        <ele>1265.055</ele>
        <time>2018-12-22T16:27:49Z</time>
      </trkpt>
      <trkpt lat="44.1357" lon="5.70547">
        <ele>1263.613</ele>
        <time>2018-12-22T16:27:50Z</time>
      </trkpt>
      <trkpt lat="44.13562" lon="5.70547">
        <ele>1262.297</ele>
        <time>2018-12-22T16:27:51Z</time>
      </trkpt>
      <trkpt lat="44.13553" lon="5.70545">
        <ele>1260.665</ele>
        <time>2018-12-22T16:27:52Z</time>
      </trkpt>
      <trkpt lat="44.13543" lon="5.70545">
        <ele>1259.086</ele>
        <time>2018-12-22T16:27:53Z</time>
      </trkpt>
      <trkpt lat="44.13535" lon="5.70545">
        <ele>1255.426</ele>
        <time>2018-12-22T16:27:54Z</time>
      </trkpt>
      <trkpt lat="44.13526" lon="5.70546">
        <ele>1253.565</ele>
        <time>2018-12-22T16:27:55Z</time>
      </trkpt>
      <trkpt lat="44.13515" lon="5.70549">
        <ele>1251.621</ele>
        <time>2018-12-22T16:27:56Z</time>
      </trkpt>
      <trkpt lat="44.13506" lon="5.70551">
        <ele>1249.719</ele>
        <time>2018-12-22T16:27:57Z</time>
      </trkpt>
      <trkpt lat="44.13496" lon="5.70552">
        <ele>1248.009</ele>
        <time>2018-12-22T16:27:58Z</time>
      </trkpt>
      <trkpt lat="44.13487" lon="5.70552">
        <ele>1246.319</ele>
        <time>2018-12-22T16:27:59Z</time>
      </trkpt>
      <trkpt lat="44.13479" lon="5.70551">
        <ele>1244.808</ele>
        <time>2018-12-22T16:28:00Z</time>
      </trkpt>
      <trkpt lat="44.13471" lon="5.7055">
        <ele>1243.454</ele>
        <time>2018-12-22T16:28:01Z</time>
      </trkpt>
      <trkpt lat="44.13464" lon="5.70549">
        <ele>1242.262</ele>
        <time>2018-12-22T16:28:02Z</time>
      </trkpt>
      <trkpt lat="44.13453" lon="5.70548">
        <ele>1241.026</ele>
        <time>2018-12-22T16:28:03Z</time>
      </trkpt>
      <trkpt lat="44.13445" lon="5.70547">
        <ele>1240.044</ele>
        <time>2018-12-22T16:28:04Z</time>
      </trkpt>
      <trkpt lat="44.13436" lon="5.70547">
        <ele>1239.045</ele>
        <time>2018-12-22T16:28:05Z</time>
      </trkpt>
      <trkpt lat="44.13427" lon="5.70546">
        <ele>1236.795</ele>
        <time>2018-12-22T16:28:06Z</time>
      </trkpt>
      <trkpt lat="44.13419" lon="5.70545">
        <ele>1235.644</ele>
        <time>2018-12-22T16:28:07Z</time>
      </trkpt>
      <trkpt lat="44.1341" lon="5.70543">
        <ele>1234.36</ele>
        <time>2018-12-22T16:28:08Z</time>
      </trkpt>
      <trkpt lat="44.13402" lon="5.70542">
        <ele>1233.065</ele>
        <time>2018-12-22T16:28:09Z</time>
      </trkpt>
      <trkpt lat="44.13395" lon="5.70542">
        <ele>1231.768</ele>
        <time>2018-12-22T16:28:10Z</time>
      </trkpt>
      <trkpt lat="44.13389" lon="5.70541">
        <ele>1230.514</ele>
        <time>2018-12-22T16:28:11Z</time>
      </trkpt>
      <trkpt lat="44.13379" lon="5.70539">
        <ele>1228.308</ele>
        <time>2018-12-22T16:28:13Z</time>
      </trkpt>
      <trkpt lat="44.13372" lon="5.70537">
        <ele>1227.299</ele>
        <time>2018-12-22T16:28:14Z</time>
      </trkpt>
      <trkpt lat="44.13366" lon="5.70537">
        <ele>1226.327</ele>
        <time>2018-12-22T16:28:15Z</time>
      </trkpt>
      <trkpt lat="44.13359" lon="5.70538">
        <ele>1225.331</ele>
        <time>2018-12-22T16:28:16Z</time>
      </trkpt>
      <trkpt lat="44.13351" lon="5.70538">
        <ele>1224.279</ele>
        <time>2018-12-22T16:28:17Z</time>
      </trkpt>
      <trkpt lat="44.13343" lon="5.70539">
        <ele>1222.32</ele>
        <time>2018-12-22T16:28:18Z</time>
      </trkpt>
      <trkpt lat="44.13337" lon="5.70536">
        <ele>1221.34</ele>
        <time>2018-12-22T16:28:19Z</time>
      </trkpt>
      <trkpt lat="44.13329" lon="5.70531">
        <ele>1220.479</ele>
        <time>2018-12-22T16:28:20Z</time>
      </trkpt>
      <trkpt lat="44.13319" lon="5.70526">
        <ele>1219.565</ele>
        <time>2018-12-22T16:28:21Z</time>
      </trkpt>
      <trkpt lat="44.1331" lon="5.70523">
        <ele>1218.346</ele>
        <time>2018-12-22T16:28:22Z</time>
      </trkpt>
      <trkpt lat="44.133" lon="5.70519">
        <ele>1217.188</ele>
        <time>2018-12-22T16:28:23Z</time>
      </trkpt>
      <trkpt lat="44.1329" lon="5.70517">
        <ele>1215.816</ele>
        <time>2018-12-22T16:28:24Z</time>
      </trkpt>
      <trkpt lat="44.13282" lon="5.70516">
        <ele>1214.408</ele>
        <time>2018-12-22T16:28:25Z</time>
      </trkpt>
      <trkpt lat="44.13274" lon="5.70514">
        <ele>1213.057</ele>
        <time>2018-12-22T16:28:26Z</time>
      </trkpt>
      <trkpt lat="44.13267" lon="5.70512">
        <ele>1211.835</ele>
        <time>2018-12-22T16:28:27Z</time>
      </trkpt>
      <trkpt lat="44.13261" lon="5.7051">
        <ele>1210.639</ele>
        <time>2018-12-22T16:28:28Z</time>
      </trkpt>
      <trkpt lat="44.13256" lon="5.70507">
        <ele>1209.587</ele>
        <time>2018-12-22T16:28:29Z</time>
      </trkpt>
      <trkpt lat="44.13251" lon="5.70505">
        <ele>1207.458</ele>
        <time>2018-12-22T16:28:30Z</time>
      </trkpt>
      <trkpt lat="44.13241" lon="5.70503">
        <ele>1205.238</ele>
        <time>2018-12-22T16:28:32Z</time>
      </trkpt>
      <trkpt lat="44.13234" lon="5.70502">
        <ele>1204.077</ele>
        <time>2018-12-22T16:28:33Z</time>
      </trkpt>
      <trkpt lat="44.13227" lon="5.70501">
        <ele>1202.793</ele>
        <time>2018-12-22T16:28:34Z</time>
      </trkpt>
      <trkpt lat="44.13221" lon="5.70502">
        <ele>1201.667</ele>
        <time>2018-12-22T16:28:35Z</time>
      </trkpt>
      <trkpt lat="44.13215" lon="5.70501">
        <ele>1200.381</ele>
        <time>2018-12-22T16:28:36Z</time>
      </trkpt>
      <trkpt lat="44.13209" lon="5.705">
        <ele>1199.319</ele>
        <time>2018-12-22T16:28:37Z</time>
      </trkpt>
      <trkpt lat="44.13204" lon="5.70499">
        <ele>1198.208</ele>
        <time>2018-12-22T16:28:38Z</time>
      </trkpt>
      <trkpt lat="44.13198" lon="5.70498">
        <ele>1197.429</ele>
        <time>2018-12-22T16:28:39Z</time>
      </trkpt>
      <trkpt lat="44.13189" lon="5.70496">
        <ele>1195.927</ele>
        <time>2018-12-22T16:28:41Z</time>
      </trkpt>
      <trkpt lat="44.13185" lon="5.70488">
        <ele>1191.981</ele>
        <time>2018-12-22T16:28:44Z</time>
      </trkpt>
      <trkpt lat="44.13174" lon="5.70483">
        <ele>1189.389</ele>
        <time>2018-12-22T16:28:46Z</time>
      </trkpt>
      <trkpt lat="44.13169" lon="5.70478">
        <ele>1187.75</ele>
        <time>2018-12-22T16:28:47Z</time>
      </trkpt>
      <trkpt lat="44.13165" lon="5.7047">
        <ele>1186.15</ele>
        <time>2018-12-22T16:28:48Z</time>
      </trkpt>
      <trkpt lat="44.13161" lon="5.70462">
        <ele>1184.579</ele>
        <time>2018-12-22T16:28:49Z</time>
      </trkpt>
      <trkpt lat="44.13157" lon="5.70455">
        <ele>1183.045</ele>
        <time>2018-12-22T16:28:50Z</time>
      </trkpt>
      <trkpt lat="44.1315" lon="5.70441">
        <ele>1181.825</ele>
        <time>2018-12-22T16:28:51Z</time>
      </trkpt>
      <trkpt lat="44.13145" lon="5.7043">
        <ele>1180.826</ele>
        <time>2018-12-22T16:28:52Z</time>
      </trkpt>
      <trkpt lat="44.13139" lon="5.70419">
        <ele>1179.908</ele>
        <time>2018-12-22T16:28:53Z</time>
      </trkpt>
      <trkpt lat="44.13134" lon="5.70412">
        <ele>1178.008</ele>
        <time>2018-12-22T16:28:54Z</time>
      </trkpt>
      <trkpt lat="44.13128" lon="5.70405">
        <ele>1177.095</ele>
        <time>2018-12-22T16:28:55Z</time>
      </trkpt>
      <trkpt lat="44.13122" lon="5.70401">
        <ele>1176.063</ele>
        <time>2018-12-22T16:28:56Z</time>
      </trkpt>
      <trkpt lat="44.13112" lon="5.70402">
        <ele>1174.177</ele>
        <time>2018-12-22T16:28:58Z</time>
      </trkpt>
      <trkpt lat="44.13107" lon="5.70403">
        <ele>1173.265</ele>
        <time>2018-12-22T16:28:59Z</time>
      </trkpt>
      <trkpt lat="44.13101" lon="5.70403">
        <ele>1172.466</ele>
        <time>2018-12-22T16:29:00Z</time>
      </trkpt>
      <trkpt lat="44.13095" lon="5.70403">
        <ele>1171.726</ele>
        <time>2018-12-22T16:29:01Z</time>
      </trkpt>
      <trkpt lat="44.13086" lon="5.70399">
        <ele>1170.945</ele>
        <time>2018-12-22T16:29:02Z</time>
      </trkpt>
      <trkpt lat="44.13077" lon="5.70395">
        <ele>1170.291</ele>
        <time>2018-12-22T16:29:03Z</time>
      </trkpt>
      <trkpt lat="44.1307" lon="5.70393">
        <ele>1169.336</ele>
        <time>2018-12-22T16:29:04Z</time>
      </trkpt>
      <trkpt lat="44.13062" lon="5.70393">
        <ele>1168.317</ele>
        <time>2018-12-22T16:29:05Z</time>
      </trkpt>
      <trkpt lat="44.13054" lon="5.70393">
        <ele>1166.118</ele>
        <time>2018-12-22T16:29:06Z</time>
      </trkpt>
      <trkpt lat="44.13044" lon="5.70394">
        <ele>1164.908</ele>
        <time>2018-12-22T16:29:07Z</time>
      </trkpt>
      <trkpt lat="44.13034" lon="5.70396">
        <ele>1163.786</ele>
        <time>2018-12-22T16:29:08Z</time>
      </trkpt>
      <trkpt lat="44.13021" lon="5.70397">
        <ele>1162.544</ele>
        <time>2018-12-22T16:29:09Z</time>
      </trkpt>
      <trkpt lat="44.13012" lon="5.70396">
        <ele>1161.448</ele>
        <time>2018-12-22T16:29:10Z</time>
      </trkpt>
      <trkpt lat="44.13003" lon="5.70394">
        <ele>1160.416</ele>
        <time>2018-12-22T16:29:11Z</time>
      </trkpt>
      <trkpt lat="44.12994" lon="5.70395">
        <ele>1159.597</ele>
        <time>2018-12-22T16:29:12Z</time>
      </trkpt>
      <trkpt lat="44.12985" lon="5.70393">
        <ele>1158.657</ele>
        <time>2018-12-22T16:29:13Z</time>
      </trkpt>
      <trkpt lat="44.12977" lon="5.7039">
        <ele>1157.776</ele>
        <time>2018-12-22T16:29:14Z</time>
      </trkpt>
      <trkpt lat="44.12967" lon="5.70385">
        <ele>1156.722</ele>
        <time>2018-12-22T16:29:15Z</time>
      </trkpt>
      <trkpt lat="44.12961" lon="5.70379">
        <ele>1155.784</ele>
        <time>2018-12-22T16:29:16Z</time>
      </trkpt>
      <trkpt lat="44.12953" lon="5.70377">
        <ele>1153.507</ele>
        <time>2018-12-22T16:29:17Z</time>
      </trkpt>
      <trkpt lat="44.12945" lon="5.70375">
        <ele>1152.317</ele>
        <time>2018-12-22T16:29:18Z</time>
      </trkpt>
      <trkpt lat="44.12936" lon="5.70376">
        <ele>1151.108</ele>
        <time>2018-12-22T16:29:19Z</time>
      </trkpt>
      <trkpt lat="44.12926" lon="5.70378">
        <ele>1150.091</ele>
        <time>2018-12-22T16:29:20Z</time>
      </trkpt>
      <trkpt lat="44.12915" lon="5.70381">
        <ele>1149.079</ele>
        <time>2018-12-22T16:29:21Z</time>
      </trkpt>
      <trkpt lat="44.12908" lon="5.70382">
        <ele>1148.083</ele>
        <time>2018-12-22T16:29:22Z</time>
      </trkpt>
      <trkpt lat="44.12897" lon="5.70384">
        <ele>1147.151</ele>
        <time>2018-12-22T16:29:23Z</time>
      </trkpt>
      <trkpt lat="44.12885" lon="5.70385">
        <ele>1146.222</ele>
        <time>2018-12-22T16:29:24Z</time>
      </trkpt>
      <trkpt lat="44.12873" lon="5.70387">
        <ele>1145.272</ele>
        <time>2018-12-22T16:29:25Z</time>
      </trkpt>
      <trkpt lat="44.12862" lon="5.70389">
        <ele>1144.241</ele>
        <time>2018-12-22T16:29:26Z</time>
      </trkpt>
      <trkpt lat="44.12854" lon="5.70388">
        <ele>1143.447</ele>
        <time>2018-12-22T16:29:27Z</time>
      </trkpt>
      <trkpt lat="44.12844" lon="5.70386">
        <ele>1142.636</ele>
        <time>2018-12-22T16:29:28Z</time>
      </trkpt>
      <trkpt lat="44.12836" lon="5.70384">
        <ele>1141.017</ele>
        <time>2018-12-22T16:29:29Z</time>
      </trkpt>
      <trkpt lat="44.12828" lon="5.70382">
        <ele>1140.318</ele>
        <time>2018-12-22T16:29:30Z</time>
      </trkpt>
      <trkpt lat="44.12818" lon="5.70381">
        <ele>1139.408</ele>
        <time>2018-12-22T16:29:31Z</time>
      </trkpt>
      <trkpt lat="44.12807" lon="5.7038">
        <ele>1138.776</ele>
        <time>2018-12-22T16:29:32Z</time>
      </trkpt>
      <trkpt lat="44.12796" lon="5.70377">
        <ele>1138.034</ele>
        <time>2018-12-22T16:29:33Z</time>
      </trkpt>
      <trkpt lat="44.12788" lon="5.70375">
        <ele>1137.378</ele>
        <time>2018-12-22T16:29:34Z</time>
      </trkpt>
      <trkpt lat="44.1278" lon="5.70372">
        <ele>1136.616</ele>
        <time>2018-12-22T16:29:35Z</time>
      </trkpt>
      <trkpt lat="44.12771" lon="5.70369">
        <ele>1135.977</ele>
        <time>2018-12-22T16:29:36Z</time>
      </trkpt>
      <trkpt lat="44.12761" lon="5.70362">
        <ele>1135.147</ele>
        <time>2018-12-22T16:29:37Z</time>
      </trkpt>
      <trkpt lat="44.12751" lon="5.70356">
        <ele>1134.266</ele>
        <time>2018-12-22T16:29:38Z</time>
      </trkpt>
      <trkpt lat="44.12743" lon="5.7035">
        <ele>1133.462</ele>
        <time>2018-12-22T16:29:39Z</time>
      </trkpt>
      <trkpt lat="44.12734" lon="5.70345">
        <ele>1132.378</ele>
        <time>2018-12-22T16:29:40Z</time>
      </trkpt>
      <trkpt lat="44.12725" lon="5.70341">
        <ele>1130.833</ele>
        <time>2018-12-22T16:29:41Z</time>
      </trkpt>
      <trkpt lat="44.12716" lon="5.70337">
        <ele>1130.126</ele>
        <time>2018-12-22T16:29:42Z</time>
      </trkpt>
      <trkpt lat="44.12707" lon="5.70337">
        <ele>1129.108</ele>
        <time>2018-12-22T16:29:43Z</time>
      </trkpt>
      <trkpt lat="44.12699" lon="5.70335">
        <ele>1128.32</ele>
        <time>2018-12-22T16:29:44Z</time>
      </trkpt>
      <trkpt lat="44.12692" lon="5.70333">
        <ele>1127.698</ele>
        <time>2018-12-22T16:29:45Z</time>
      </trkpt>
      <trkpt lat="44.12683" lon="5.7033">
        <ele>1126.432</ele>
        <time>2018-12-22T16:29:46Z</time>
      </trkpt>
      <trkpt lat="44.12675" lon="5.70328">
        <ele>1125.31</ele>
        <time>2018-12-22T16:29:47Z</time>
      </trkpt>
      <trkpt lat="44.12667" lon="5.70326">
        <ele>1124.281</ele>
        <time>2018-12-22T16:29:48Z</time>
      </trkpt>
      <trkpt lat="44.12659" lon="5.7032">
        <ele>1123.061</ele>
        <time>2018-12-22T16:29:49Z</time>
      </trkpt>
      <trkpt lat="44.12649" lon="5.70315">
        <ele>1121.53</ele>
        <time>2018-12-22T16:29:50Z</time>
      </trkpt>
      <trkpt lat="44.1264" lon="5.70313">
        <ele>1120.686</ele>
        <time>2018-12-22T16:29:51Z</time>
      </trkpt>
      <trkpt lat="44.1263" lon="5.7031">
        <ele>1119.716</ele>
        <time>2018-12-22T16:29:52Z</time>
      </trkpt>
      <trkpt lat="44.1262" lon="5.70311">
        <ele>1118.276</ele>
        <time>2018-12-22T16:29:53Z</time>
      </trkpt>
      <trkpt lat="44.12609" lon="5.70312">
        <ele>1117.913</ele>
        <time>2018-12-22T16:29:54Z</time>
      </trkpt>
      <trkpt lat="44.12599" lon="5.70315">
        <ele>1117.208</ele>
        <time>2018-12-22T16:29:55Z</time>
      </trkpt>
      <trkpt lat="44.12588" lon="5.70322">
        <ele>1116.364</ele>
        <time>2018-12-22T16:29:56Z</time>
      </trkpt>
      <trkpt lat="44.12577" lon="5.70327">
        <ele>1115.532</ele>
        <time>2018-12-22T16:29:57Z</time>
      </trkpt>
      <trkpt lat="44.12567" lon="5.70326">
        <ele>1114.996</ele>
        <time>2018-12-22T16:29:58Z</time>
      </trkpt>
      <trkpt lat="44.12556" lon="5.70328">
        <ele>1114.074</ele>
        <time>2018-12-22T16:29:59Z</time>
      </trkpt>
      <trkpt lat="44.12546" lon="5.70331">
        <ele>1113.265</ele>
        <time>2018-12-22T16:30:00Z</time>
      </trkpt>
      <trkpt lat="44.12533" lon="5.70333">
        <ele>1112.665</ele>
        <time>2018-12-22T16:30:01Z</time>
      </trkpt>
      <trkpt lat="44.12523" lon="5.70334">
        <ele>1111.844</ele>
        <time>2018-12-22T16:30:02Z</time>
      </trkpt>
      <trkpt lat="44.12511" lon="5.70333">
        <ele>1111.04</ele>
        <time>2018-12-22T16:30:03Z</time>
      </trkpt>
      <trkpt lat="44.125" lon="5.70333">
        <ele>1110.158</ele>
        <time>2018-12-22T16:30:04Z</time>
      </trkpt>
      <trkpt lat="44.12489" lon="5.70336">
        <ele>1108.652</ele>
        <time>2018-12-22T16:30:05Z</time>
      </trkpt>
      <trkpt lat="44.12479" lon="5.70337">
        <ele>1107.917</ele>
        <time>2018-12-22T16:30:06Z</time>
      </trkpt>
      <trkpt lat="44.1247" lon="5.70339">
        <ele>1107.108</ele>
        <time>2018-12-22T16:30:07Z</time>
      </trkpt>
      <trkpt lat="44.12461" lon="5.70342">
        <ele>1106.478</ele>
        <time>2018-12-22T16:30:08Z</time>
      </trkpt>
      <trkpt lat="44.1245" lon="5.70343">
        <ele>1105.626</ele>
        <time>2018-12-22T16:30:09Z</time>
      </trkpt>
      <trkpt lat="44.12442" lon="5.70343">
        <ele>1104.96</ele>
        <time>2018-12-22T16:30:10Z</time>
      </trkpt>
      <trkpt lat="44.12437" lon="5.70342">
        <ele>1104.158</ele>
        <time>2018-12-22T16:30:11Z</time>
      </trkpt>
      <trkpt lat="44.1243" lon="5.70337">
        <ele>1103.269</ele>
        <time>2018-12-22T16:30:12Z</time>
      </trkpt>
      <trkpt lat="44.12421" lon="5.70329">
        <ele>1101.499</ele>
        <time>2018-12-22T16:30:14Z</time>
      </trkpt>
      <trkpt lat="44.12415" lon="5.70325">
        <ele>1100.358</ele>
        <time>2018-12-22T16:30:15Z</time>
      </trkpt>
      <trkpt lat="44.12408" lon="5.70323">
        <ele>1099.284</ele>
        <time>2018-12-22T16:30:16Z</time>
      </trkpt>
      <trkpt lat="44.124" lon="5.70323">
        <ele>1097.386</ele>
        <time>2018-12-22T16:30:17Z</time>
      </trkpt>
      <trkpt lat="44.12391" lon="5.70321">
        <ele>1096.36</ele>
        <time>2018-12-22T16:30:18Z</time>
      </trkpt>
      <trkpt lat="44.12383" lon="5.70319">
        <ele>1095.326</ele>
        <time>2018-12-22T16:30:19Z</time>
      </trkpt>
      <trkpt lat="44.12375" lon="5.70316">
        <ele>1094.308</ele>
        <time>2018-12-22T16:30:20Z</time>
      </trkpt>
      <trkpt lat="44.12369" lon="5.70312">
        <ele>1093.291</ele>
        <time>2018-12-22T16:30:21Z</time>
      </trkpt>
      <trkpt lat="44.12362" lon="5.70307">
        <ele>1092.269</ele>
        <time>2018-12-22T16:30:22Z</time>
      </trkpt>
      <trkpt lat="44.12356" lon="5.70304">
        <ele>1091.213</ele>
        <time>2018-12-22T16:30:23Z</time>
      </trkpt>
      <trkpt lat="44.12352" lon="5.703">
        <ele>1090.271</ele>
        <time>2018-12-22T16:30:24Z</time>
      </trkpt>
      <trkpt lat="44.12348" lon="5.70297">
        <ele>1089.352</ele>
        <time>2018-12-22T16:30:25Z</time>
      </trkpt>
      <trkpt lat="44.12342" lon="5.70298">
        <ele>1088.512</ele>
        <time>2018-12-22T16:30:26Z</time>
      </trkpt>
      <trkpt lat="44.12335" lon="5.70298">
        <ele>1087.431</ele>
        <time>2018-12-22T16:30:27Z</time>
      </trkpt>
      <trkpt lat="44.12328" lon="5.70295">
        <ele>1085.617</ele>
        <time>2018-12-22T16:30:28Z</time>
      </trkpt>
      <trkpt lat="44.12321" lon="5.70291">
        <ele>1084.644</ele>
        <time>2018-12-22T16:30:29Z</time>
      </trkpt>
      <trkpt lat="44.12313" lon="5.70288">
        <ele>1083.405</ele>
        <time>2018-12-22T16:30:30Z</time>
      </trkpt>
      <trkpt lat="44.12304" lon="5.70287">
        <ele>1082.215</ele>
        <time>2018-12-22T16:30:31Z</time>
      </trkpt>
      <trkpt lat="44.12294" lon="5.70288">
        <ele>1081.008</ele>
        <time>2018-12-22T16:30:32Z</time>
      </trkpt>
      <trkpt lat="44.12286" lon="5.70291">
        <ele>1079.897</ele>
        <time>2018-12-22T16:30:33Z</time>
      </trkpt>
      <trkpt lat="44.12276" lon="5.70295">
        <ele>1078.595</ele>
        <time>2018-12-22T16:30:34Z</time>
      </trkpt>
      <trkpt lat="44.12269" lon="5.70298">
        <ele>1077.569</ele>
        <time>2018-12-22T16:30:35Z</time>
      </trkpt>
      <trkpt lat="44.1226" lon="5.703">
        <ele>1076.677</ele>
        <time>2018-12-22T16:30:36Z</time>
      </trkpt>
      <trkpt lat="44.1225" lon="5.70299">
        <ele>1075.538</ele>
        <time>2018-12-22T16:30:37Z</time>
      </trkpt>
      <trkpt lat="44.12243" lon="5.70299">
        <ele>1074.358</ele>
        <time>2018-12-22T16:30:38Z</time>
      </trkpt>
      <trkpt lat="44.12233" lon="5.70299">
        <ele>1073.167</ele>
        <time>2018-12-22T16:30:39Z</time>
      </trkpt>
      <trkpt lat="44.12222" lon="5.703">
        <ele>1070.863</ele>
        <time>2018-12-22T16:30:40Z</time>
      </trkpt>
      <trkpt lat="44.12213" lon="5.703">
        <ele>1069.733</ele>
        <time>2018-12-22T16:30:41Z</time>
      </trkpt>
      <trkpt lat="44.12204" lon="5.70301">
        <ele>1068.623</ele>
        <time>2018-12-22T16:30:42Z</time>
      </trkpt>
      <trkpt lat="44.12196" lon="5.70302">
        <ele>1067.615</ele>
        <time>2018-12-22T16:30:43Z</time>
      </trkpt>
      <trkpt lat="44.12187" lon="5.70302">
        <ele>1066.508</ele>
        <time>2018-12-22T16:30:44Z</time>
      </trkpt>
      <trkpt lat="44.12179" lon="5.70301">
        <ele>1065.396</ele>
        <time>2018-12-22T16:30:45Z</time>
      </trkpt>
      <trkpt lat="44.1217" lon="5.70301">
        <ele>1064.174</ele>
        <time>2018-12-22T16:30:46Z</time>
      </trkpt>
      <trkpt lat="44.12161" lon="5.703">
        <ele>1063.148</ele>
        <time>2018-12-22T16:30:47Z</time>
      </trkpt>
      <trkpt lat="44.12152" lon="5.70298">
        <ele>1062.086</ele>
        <time>2018-12-22T16:30:48Z</time>
      </trkpt>
      <trkpt lat="44.12142" lon="5.70298">
        <ele>1060.977</ele>
        <time>2018-12-22T16:30:49Z</time>
      </trkpt>
      <trkpt lat="44.12134" lon="5.70297">
        <ele>1059.967</ele>
        <time>2018-12-22T16:30:50Z</time>
      </trkpt>
      <trkpt lat="44.12126" lon="5.70296">
        <ele>1058.946</ele>
        <time>2018-12-22T16:30:51Z</time>
      </trkpt>
      <trkpt lat="44.12117" lon="5.70294">
        <ele>1056.662</ele>
        <time>2018-12-22T16:30:52Z</time>
      </trkpt>
      <trkpt lat="44.12108" lon="5.70292">
        <ele>1055.449</ele>
        <time>2018-12-22T16:30:53Z</time>
      </trkpt>
      <trkpt lat="44.12098" lon="5.70288">
        <ele>1053.902</ele>
        <time>2018-12-22T16:30:54Z</time>
      </trkpt>
      <trkpt lat="44.12089" lon="5.70285">
        <ele>1052.522</ele>
        <time>2018-12-22T16:30:55Z</time>
      </trkpt>
      <trkpt lat="44.12079" lon="5.7028">
        <ele>1051.108</ele>
        <time>2018-12-22T16:30:56Z</time>
      </trkpt>
      <trkpt lat="44.12071" lon="5.70275">
        <ele>1050.127</ele>
        <time>2018-12-22T16:30:57Z</time>
      </trkpt>
      <trkpt lat="44.12062" lon="5.70271">
        <ele>1049.115</ele>
        <time>2018-12-22T16:30:58Z</time>
      </trkpt>
      <trkpt lat="44.12053" lon="5.7027">
        <ele>1048.229</ele>
        <time>2018-12-22T16:30:59Z</time>
      </trkpt>
      <trkpt lat="44.12045" lon="5.7027">
        <ele>1047.287</ele>
        <time>2018-12-22T16:31:00Z</time>
      </trkpt>
      <trkpt lat="44.12035" lon="5.70271">
        <ele>1046.498</ele>
        <time>2018-12-22T16:31:01Z</time>
      </trkpt>
      <trkpt lat="44.12027" lon="5.70274">
        <ele>1045.318</ele>
        <time>2018-12-22T16:31:02Z</time>
      </trkpt>
      <trkpt lat="44.12019" lon="5.70278">
        <ele>1043.497</ele>
        <time>2018-12-22T16:31:03Z</time>
      </trkpt>
      <trkpt lat="44.12012" lon="5.7028">
        <ele>1042.653</ele>
        <time>2018-12-22T16:31:04Z</time>
      </trkpt>
      <trkpt lat="44.12006" lon="5.70276">
        <ele>1041.326</ele>
        <time>2018-12-22T16:31:06Z</time>
      </trkpt>
      <trkpt lat="44.12003" lon="5.70271">
        <ele>1040.747</ele>
        <time>2018-12-22T16:31:07Z</time>
      </trkpt>
      <trkpt lat="44.11999" lon="5.70263">
        <ele>1040.211</ele>
        <time>2018-12-22T16:31:09Z</time>
      </trkpt>
      <trkpt lat="44.11995" lon="5.70259">
        <ele>1040.208</ele>
        <time>2018-12-22T16:31:11Z</time>
      </trkpt>
      <trkpt lat="44.1199" lon="5.70257">
        <ele>1040.555</ele>
        <time>2018-12-22T16:31:13Z</time>
      </trkpt>
      <trkpt lat="44.11979" lon="5.70259">
        <ele>1040.293</ele>
        <time>2018-12-22T16:31:15Z</time>
      </trkpt>
      <trkpt lat="44.11971" lon="5.70263">
        <ele>1038.697</ele>
        <time>2018-12-22T16:31:16Z</time>
      </trkpt>
      <trkpt lat="44.1196" lon="5.70268">
        <ele>1037.175</ele>
        <time>2018-12-22T16:31:17Z</time>
      </trkpt>
      <trkpt lat="44.11947" lon="5.70272">
        <ele>1035.416</ele>
        <time>2018-12-22T16:31:18Z</time>
      </trkpt>
      <trkpt lat="44.11932" lon="5.70274">
        <ele>1033.586</ele>
        <time>2018-12-22T16:31:19Z</time>
      </trkpt>
      <trkpt lat="44.11919" lon="5.70277">
        <ele>1031.735</ele>
        <time>2018-12-22T16:31:20Z</time>
      </trkpt>
      <trkpt lat="44.11907" lon="5.7028">
        <ele>1030.721</ele>
        <time>2018-12-22T16:31:21Z</time>
      </trkpt>
      <trkpt lat="44.11895" lon="5.70283">
        <ele>1030.113</ele>
        <time>2018-12-22T16:31:22Z</time>
      </trkpt>
      <trkpt lat="44.11883" lon="5.70286">
        <ele>1029.843</ele>
        <time>2018-12-22T16:31:23Z</time>
      </trkpt>
      <trkpt lat="44.11872" lon="5.7029">
        <ele>1029.307</ele>
        <time>2018-12-22T16:31:24Z</time>
      </trkpt>
      <trkpt lat="44.11855" lon="5.70292">
        <ele>1029.008</ele>
        <time>2018-12-22T16:31:25Z</time>
      </trkpt>
      <trkpt lat="44.11839" lon="5.70293">
        <ele>1028.034</ele>
        <time>2018-12-22T16:31:26Z</time>
      </trkpt>
      <trkpt lat="44.11825" lon="5.70292">
        <ele>1024.392</ele>
        <time>2018-12-22T16:31:27Z</time>
      </trkpt>
      <trkpt lat="44.11811" lon="5.70286">
        <ele>1023.076</ele>
        <time>2018-12-22T16:31:28Z</time>
      </trkpt>
      <trkpt lat="44.11799" lon="5.70279">
        <ele>1021.854</ele>
        <time>2018-12-22T16:31:29Z</time>
      </trkpt>
      <trkpt lat="44.11788" lon="5.7027">
        <ele>1020.675</ele>
        <time>2018-12-22T16:31:30Z</time>
      </trkpt>
      <trkpt lat="44.11777" lon="5.70262">
        <ele>1020.185</ele>
        <time>2018-12-22T16:31:31Z</time>
      </trkpt>
      <trkpt lat="44.11765" lon="5.70256">
        <ele>1019.774</ele>
        <time>2018-12-22T16:31:32Z</time>
      </trkpt>
      <trkpt lat="44.11752" lon="5.70254">
        <ele>1018.71</ele>
        <time>2018-12-22T16:31:33Z</time>
      </trkpt>
      <trkpt lat="44.1174" lon="5.70249">
        <ele>1017.564</ele>
        <time>2018-12-22T16:31:34Z</time>
      </trkpt>
      <trkpt lat="44.11729" lon="5.70244">
        <ele>1016.606</ele>
        <time>2018-12-22T16:31:35Z</time>
      </trkpt>
      <trkpt lat="44.11718" lon="5.70238">
        <ele>1015.916</ele>
        <time>2018-12-22T16:31:36Z</time>
      </trkpt>
      <trkpt lat="44.11708" lon="5.70232">
        <ele>1015.108</ele>
        <time>2018-12-22T16:31:37Z</time>
      </trkpt>
      <trkpt lat="44.11699" lon="5.70226">
        <ele>1014.579</ele>
        <time>2018-12-22T16:31:38Z</time>
      </trkpt>
      <trkpt lat="44.11691" lon="5.70217">
        <ele>1013.567</ele>
        <time>2018-12-22T16:31:39Z</time>
      </trkpt>
      <trkpt lat="44.11684" lon="5.70205">
        <ele>1012.791</ele>
        <time>2018-12-22T16:31:40Z</time>
      </trkpt>
      <trkpt lat="44.11675" lon="5.70194">
        <ele>1011.629</ele>
        <time>2018-12-22T16:31:41Z</time>
      </trkpt>
      <trkpt lat="44.11668" lon="5.70182">
        <ele>1010.55</ele>
        <time>2018-12-22T16:31:42Z</time>
      </trkpt>
      <trkpt lat="44.11662" lon="5.70173">
        <ele>1009.61</ele>
        <time>2018-12-22T16:31:43Z</time>
      </trkpt>
      <trkpt lat="44.1166" lon="5.70161">
        <ele>1008.839</ele>
        <time>2018-12-22T16:31:44Z</time>
      </trkpt>
      <trkpt lat="44.11657" lon="5.70149">
        <ele>1008.255</ele>
        <time>2018-12-22T16:31:45Z</time>
      </trkpt>
      <trkpt lat="44.11654" lon="5.70134">
        <ele>1007.982</ele>
        <time>2018-12-22T16:31:46Z</time>
      </trkpt>
      <trkpt lat="44.11649" lon="5.7012">
        <ele>1007.443</ele>
        <time>2018-12-22T16:31:47Z</time>
      </trkpt>
      <trkpt lat="44.11644" lon="5.70107">
        <ele>1006.517</ele>
        <time>2018-12-22T16:31:48Z</time>
      </trkpt>
      <trkpt lat="44.11637" lon="5.70096">
        <ele>1005.708</ele>
        <time>2018-12-22T16:31:49Z</time>
      </trkpt>
      <trkpt lat="44.1163" lon="5.70084">
        <ele>1004.751</ele>
        <time>2018-12-22T16:31:50Z</time>
      </trkpt>
      <trkpt lat="44.11624" lon="5.70074">
        <ele>1003.289</ele>
        <time>2018-12-22T16:31:51Z</time>
      </trkpt>
      <trkpt lat="44.11616" lon="5.70063">
        <ele>1002.733</ele>
        <time>2018-12-22T16:31:52Z</time>
      </trkpt>
      <trkpt lat="44.11607" lon="5.70056">
        <ele>1002.071</ele>
        <time>2018-12-22T16:31:53Z</time>
      </trkpt>
      <trkpt lat="44.11597" lon="5.70049">
        <ele>1001.542</ele>
        <time>2018-12-22T16:31:54Z</time>
      </trkpt>
      <trkpt lat="44.11585" lon="5.70043">
        <ele>1000.892</ele>
        <time>2018-12-22T16:31:55Z</time>
      </trkpt>
      <trkpt lat="44.11573" lon="5.70038">
        <ele>999.491</ele>
        <time>2018-12-22T16:31:56Z</time>
      </trkpt>
      <trkpt lat="44.11562" lon="5.70033">
        <ele>998.337</ele>
        <time>2018-12-22T16:31:57Z</time>
      </trkpt>
      <trkpt lat="44.11552" lon="5.70028">
        <ele>997.247</ele>
        <time>2018-12-22T16:31:58Z</time>
      </trkpt>
      <trkpt lat="44.11541" lon="5.70024">
        <ele>996.129</ele>
        <time>2018-12-22T16:31:59Z</time>
      </trkpt>
      <trkpt lat="44.11529" lon="5.70021">
        <ele>995.321</ele>
        <time>2018-12-22T16:32:00Z</time>
      </trkpt>
      <trkpt lat="44.11515" lon="5.70019">
        <ele>994.808</ele>
        <time>2018-12-22T16:32:01Z</time>
      </trkpt>
      <trkpt lat="44.11503" lon="5.70017">
        <ele>993.777</ele>
        <time>2018-12-22T16:32:02Z</time>
      </trkpt>
      <trkpt lat="44.11491" lon="5.70016">
        <ele>993.015</ele>
        <time>2018-12-22T16:32:03Z</time>
      </trkpt>
      <trkpt lat="44.11478" lon="5.70015">
        <ele>991.919</ele>
        <time>2018-12-22T16:32:04Z</time>
      </trkpt>
      <trkpt lat="44.11465" lon="5.70015">
        <ele>991.137</ele>
        <time>2018-12-22T16:32:05Z</time>
      </trkpt>
      <trkpt lat="44.11452" lon="5.70014">
        <ele>990.458</ele>
        <time>2018-12-22T16:32:06Z</time>
      </trkpt>
      <trkpt lat="44.11438" lon="5.70013">
        <ele>989.218</ele>
        <time>2018-12-22T16:32:07Z</time>
      </trkpt>
      <trkpt lat="44.11424" lon="5.7001">
        <ele>988.017</ele>
        <time>2018-12-22T16:32:08Z</time>
      </trkpt>
      <trkpt lat="44.1141" lon="5.70008">
        <ele>987.173</ele>
        <time>2018-12-22T16:32:09Z</time>
      </trkpt>
      <trkpt lat="44.11397" lon="5.70006">
        <ele>983.624</ele>
        <time>2018-12-22T16:32:10Z</time>
      </trkpt>
      <trkpt lat="44.11384" lon="5.70004">
        <ele>983.604</ele>
        <time>2018-12-22T16:32:11Z</time>
      </trkpt>
      <trkpt lat="44.11371" lon="5.70002">
        <ele>983.114</ele>
        <time>2018-12-22T16:32:12Z</time>
      </trkpt>
      <trkpt lat="44.11358" lon="5.69999">
        <ele>982.308</ele>
        <time>2018-12-22T16:32:13Z</time>
      </trkpt>
      <trkpt lat="44.11346" lon="5.69995">
        <ele>981.685</ele>
        <time>2018-12-22T16:32:14Z</time>
      </trkpt>
      <trkpt lat="44.11334" lon="5.69993">
        <ele>981.253</ele>
        <time>2018-12-22T16:32:15Z</time>
      </trkpt>
      <trkpt lat="44.11322" lon="5.69992">
        <ele>980.467</ele>
        <time>2018-12-22T16:32:16Z</time>
      </trkpt>
      <trkpt lat="44.11311" lon="5.69992">
        <ele>979.725</ele>
        <time>2018-12-22T16:32:17Z</time>
      </trkpt>
      <trkpt lat="44.11299" lon="5.69993">
        <ele>978.896</ele>
        <time>2018-12-22T16:32:18Z</time>
      </trkpt>
      <trkpt lat="44.11286" lon="5.69994">
        <ele>978.146</ele>
        <time>2018-12-22T16:32:19Z</time>
      </trkpt>
      <trkpt lat="44.11274" lon="5.69994">
        <ele>977.065</ele>
        <time>2018-12-22T16:32:20Z</time>
      </trkpt>
      <trkpt lat="44.11261" lon="5.69992">
        <ele>976.291</ele>
        <time>2018-12-22T16:32:21Z</time>
      </trkpt>
      <trkpt lat="44.11249" lon="5.69991">
        <ele>975.226</ele>
        <time>2018-12-22T16:32:22Z</time>
      </trkpt>
      <trkpt lat="44.11237" lon="5.69988">
        <ele>973.947</ele>
        <time>2018-12-22T16:32:23Z</time>
      </trkpt>
      <trkpt lat="44.11226" lon="5.69986">
        <ele>973.011</ele>
        <time>2018-12-22T16:32:24Z</time>
      </trkpt>
      <trkpt lat="44.11216" lon="5.69985">
        <ele>972.308</ele>
        <time>2018-12-22T16:32:25Z</time>
      </trkpt>
      <trkpt lat="44.11206" lon="5.69985">
        <ele>971.425</ele>
        <time>2018-12-22T16:32:26Z</time>
      </trkpt>
      <trkpt lat="44.11196" lon="5.69984">
        <ele>971.443</ele>
        <time>2018-12-22T16:32:27Z</time>
      </trkpt>
      <trkpt lat="44.11184" lon="5.69981">
        <ele>971.057</ele>
        <time>2018-12-22T16:32:28Z</time>
      </trkpt>
      <trkpt lat="44.11173" lon="5.69978">
        <ele>970.265</ele>
        <time>2018-12-22T16:32:29Z</time>
      </trkpt>
      <trkpt lat="44.11161" lon="5.69974">
        <ele>969.376</ele>
        <time>2018-12-22T16:32:30Z</time>
      </trkpt>
      <trkpt lat="44.11149" lon="5.6997">
        <ele>968.296</ele>
        <time>2018-12-22T16:32:31Z</time>
      </trkpt>
      <trkpt lat="44.11137" lon="5.69966">
        <ele>967.375</ele>
        <time>2018-12-22T16:32:32Z</time>
      </trkpt>
      <trkpt lat="44.11126" lon="5.69961">
        <ele>966.441</ele>
        <time>2018-12-22T16:32:33Z</time>
      </trkpt>
      <trkpt lat="44.11113" lon="5.69958">
        <ele>965.749</ele>
        <time>2018-12-22T16:32:34Z</time>
      </trkpt>
      <trkpt lat="44.11099" lon="5.69956">
        <ele>964.902</ele>
        <time>2018-12-22T16:32:35Z</time>
      </trkpt>
      <trkpt lat="44.11085" lon="5.69954">
        <ele>964.122</ele>
        <time>2018-12-22T16:32:36Z</time>
      </trkpt>
      <trkpt lat="44.11071" lon="5.69954">
        <ele>962.008</ele>
        <time>2018-12-22T16:32:37Z</time>
      </trkpt>
      <trkpt lat="44.11058" lon="5.69952">
        <ele>961.027</ele>
        <time>2018-12-22T16:32:38Z</time>
      </trkpt>
      <trkpt lat="44.11045" lon="5.69951">
        <ele>959.925</ele>
        <time>2018-12-22T16:32:39Z</time>
      </trkpt>
      <trkpt lat="44.11031" lon="5.69948">
        <ele>959.129</ele>
        <time>2018-12-22T16:32:40Z</time>
      </trkpt>
      <trkpt lat="44.11018" lon="5.69945">
        <ele>958.547</ele>
        <time>2018-12-22T16:32:41Z</time>
      </trkpt>
      <trkpt lat="44.11007" lon="5.69941">
        <ele>958.028</ele>
        <time>2018-12-22T16:32:42Z</time>
      </trkpt>
      <trkpt lat="44.10997" lon="5.69937">
        <ele>957.128</ele>
        <time>2018-12-22T16:32:43Z</time>
      </trkpt>
      <trkpt lat="44.10988" lon="5.69934">
        <ele>956.777</ele>
        <time>2018-12-22T16:32:44Z</time>
      </trkpt>
      <trkpt lat="44.10979" lon="5.69934">
        <ele>955.763</ele>
        <time>2018-12-22T16:32:45Z</time>
      </trkpt>
      <trkpt lat="44.10971" lon="5.69936">
        <ele>954.825</ele>
        <time>2018-12-22T16:32:46Z</time>
      </trkpt>
      <trkpt lat="44.10959" lon="5.69938">
        <ele>954.126</ele>
        <time>2018-12-22T16:32:47Z</time>
      </trkpt>
      <trkpt lat="44.10949" lon="5.6994">
        <ele>953.708</ele>
        <time>2018-12-22T16:32:48Z</time>
      </trkpt>
      <trkpt lat="44.10939" lon="5.69941">
        <ele>952.808</ele>
        <time>2018-12-22T16:32:49Z</time>
      </trkpt>
      <trkpt lat="44.10929" lon="5.69941">
        <ele>952.515</ele>
        <time>2018-12-22T16:32:50Z</time>
      </trkpt>
      <trkpt lat="44.1092" lon="5.69941">
        <ele>952.033</ele>
        <time>2018-12-22T16:32:51Z</time>
      </trkpt>
      <trkpt lat="44.10911" lon="5.69938">
        <ele>951.587</ele>
        <time>2018-12-22T16:32:52Z</time>
      </trkpt>
      <trkpt lat="44.10901" lon="5.69935">
        <ele>951.035</ele>
        <time>2018-12-22T16:32:53Z</time>
      </trkpt>
      <trkpt lat="44.10892" lon="5.69932">
        <ele>950.416</ele>
        <time>2018-12-22T16:32:54Z</time>
      </trkpt>
      <trkpt lat="44.10881" lon="5.69929">
        <ele>949.796</ele>
        <time>2018-12-22T16:32:55Z</time>
      </trkpt>
      <trkpt lat="44.1087" lon="5.69926">
        <ele>948.445</ele>
        <time>2018-12-22T16:32:56Z</time>
      </trkpt>
      <trkpt lat="44.10859" lon="5.69922">
        <ele>947.171</ele>
        <time>2018-12-22T16:32:57Z</time>
      </trkpt>
      <trkpt lat="44.10847" lon="5.6992">
        <ele>945.679</ele>
        <time>2018-12-22T16:32:58Z</time>
      </trkpt>
      <trkpt lat="44.10834" lon="5.6992">
        <ele>943.705</ele>
        <time>2018-12-22T16:32:59Z</time>
      </trkpt>
      <trkpt lat="44.10821" lon="5.69919">
        <ele>942.225</ele>
        <time>2018-12-22T16:33:00Z</time>
      </trkpt>
      <trkpt lat="44.10808" lon="5.6992">
        <ele>939.808</ele>
        <time>2018-12-22T16:33:01Z</time>
      </trkpt>
      <trkpt lat="44.10794" lon="5.69923">
        <ele>939.09</ele>
        <time>2018-12-22T16:33:02Z</time>
      </trkpt>
      <trkpt lat="44.1078" lon="5.69928">
        <ele>939.048</ele>
        <time>2018-12-22T16:33:03Z</time>
      </trkpt>
      <trkpt lat="44.10766" lon="5.69932">
        <ele>938.452</ele>
        <time>2018-12-22T16:33:04Z</time>
      </trkpt>
      <trkpt lat="44.10754" lon="5.69937">
        <ele>937.95</ele>
        <time>2018-12-22T16:33:05Z</time>
      </trkpt>
      <trkpt lat="44.10741" lon="5.69942">
        <ele>937.561</ele>
        <time>2018-12-22T16:33:06Z</time>
      </trkpt>
      <trkpt lat="44.10729" lon="5.69946">
        <ele>936.981</ele>
        <time>2018-12-22T16:33:07Z</time>
      </trkpt>
      <trkpt lat="44.10717" lon="5.69952">
        <ele>935.86</ele>
        <time>2018-12-22T16:33:08Z</time>
      </trkpt>
      <trkpt lat="44.10705" lon="5.69957">
        <ele>935.326</ele>
        <time>2018-12-22T16:33:09Z</time>
      </trkpt>
      <trkpt lat="44.10693" lon="5.69962">
        <ele>934.645</ele>
        <time>2018-12-22T16:33:10Z</time>
      </trkpt>
      <trkpt lat="44.10681" lon="5.69966">
        <ele>933.847</ele>
        <time>2018-12-22T16:33:11Z</time>
      </trkpt>
      <trkpt lat="44.10671" lon="5.69969">
        <ele>933.311</ele>
        <time>2018-12-22T16:33:12Z</time>
      </trkpt>
      <trkpt lat="44.10665" lon="5.69971">
        <ele>932.308</ele>
        <time>2018-12-22T16:33:13Z</time>
      </trkpt>
      <trkpt lat="44.1066" lon="5.69974">
        <ele>932.197</ele>
        <time>2018-12-22T16:33:14Z</time>
      </trkpt>
      <trkpt lat="44.10654" lon="5.6998">
        <ele>932.215</ele>
        <time>2018-12-22T16:33:16Z</time>
      </trkpt>
      <trkpt lat="44.1065" lon="5.69984">
        <ele>932.279</ele>
        <time>2018-12-22T16:33:19Z</time>
      </trkpt>
      <trkpt lat="44.10646" lon="5.69991">
        <ele>931.937</ele>
        <time>2018-12-22T16:33:21Z</time>
      </trkpt>
      <trkpt lat="44.10643" lon="5.69999">
        <ele>931.588</ele>
        <time>2018-12-22T16:33:23Z</time>
      </trkpt>
      <trkpt lat="44.10643" lon="5.70007">
        <ele>931.228</ele>
        <time>2018-12-22T16:33:25Z</time>
      </trkpt>
      <trkpt lat="44.10652" lon="5.70006">
        <ele>931.317</ele>
        <time>2018-12-22T16:33:28Z</time>
      </trkpt>
      <trkpt lat="44.10658" lon="5.70004">
        <ele>931.573</ele>
        <time>2018-12-22T16:33:29Z</time>
      </trkpt>
      <trkpt lat="44.10664" lon="5.70002">
        <ele>931.567</ele>
        <time>2018-12-22T16:33:30Z</time>
      </trkpt>
      <trkpt lat="44.1067" lon="5.7">
        <ele>931.581</ele>
        <time>2018-12-22T16:33:31Z</time>
      </trkpt>
      <trkpt lat="44.10677" lon="5.69998">
        <ele>931.519</ele>
        <time>2018-12-22T16:33:32Z</time>
      </trkpt>
      <trkpt lat="44.10683" lon="5.69996">
        <ele>931.908</ele>
        <time>2018-12-22T16:33:33Z</time>
      </trkpt>
      <trkpt lat="44.10691" lon="5.69992">
        <ele>932.039</ele>
        <time>2018-12-22T16:33:34Z</time>
      </trkpt>
      <trkpt lat="44.10697" lon="5.69989">
        <ele>932.577</ele>
        <time>2018-12-22T16:33:35Z</time>
      </trkpt>
      <trkpt lat="44.10704" lon="5.69987">
        <ele>934.891</ele>
        <time>2018-12-22T16:33:37Z</time>
      </trkpt>
      <trkpt lat="44.10712" lon="5.6999">
        <ele>936.739</ele>
        <time>2018-12-22T16:33:40Z</time>
      </trkpt>
      <trkpt lat="44.10708" lon="5.69993">
        <ele>937.49</ele>
        <time>2018-12-22T16:33:43Z</time>
      </trkpt>
      <trkpt lat="44.10702" lon="5.69991">
        <ele>937.51</ele>
        <time>2018-12-22T16:33:46Z</time>
      </trkpt>
      <trkpt lat="44.10691" lon="5.69987">
        <ele>937.319</ele>
        <time>2018-12-22T16:33:48Z</time>
      </trkpt>
      <trkpt lat="44.10683" lon="5.69988">
        <ele>937.445</ele>
        <time>2018-12-22T16:33:49Z</time>
      </trkpt>
      <trkpt lat="44.10676" lon="5.69992">
        <ele>938.286</ele>
        <time>2018-12-22T16:33:50Z</time>
      </trkpt>
      <trkpt lat="44.10666" lon="5.69999">
        <ele>939.16</ele>
        <time>2018-12-22T16:33:51Z</time>
      </trkpt>
      <trkpt lat="44.10659" lon="5.70008">
        <ele>940.126</ele>
        <time>2018-12-22T16:33:52Z</time>
      </trkpt>
      <trkpt lat="44.10655" lon="5.70021">
        <ele>940.908</ele>
        <time>2018-12-22T16:33:53Z</time>
      </trkpt>
      <trkpt lat="44.1065" lon="5.70033">
        <ele>941.731</ele>
        <time>2018-12-22T16:33:54Z</time>
      </trkpt>
      <trkpt lat="44.10644" lon="5.70045">
        <ele>942.089</ele>
        <time>2018-12-22T16:33:55Z</time>
      </trkpt>
      <trkpt lat="44.10635" lon="5.70057">
        <ele>942.063</ele>
        <time>2018-12-22T16:33:56Z</time>
      </trkpt>
      <trkpt lat="44.10627" lon="5.7007">
        <ele>942.041</ele>
        <time>2018-12-22T16:33:57Z</time>
      </trkpt>
      <trkpt lat="44.10618" lon="5.70085">
        <ele>942.092</ele>
        <time>2018-12-22T16:33:58Z</time>
      </trkpt>
      <trkpt lat="44.10609" lon="5.701">
        <ele>942.162</ele>
        <time>2018-12-22T16:33:59Z</time>
      </trkpt>
      <trkpt lat="44.10597" lon="5.70112">
        <ele>942.581</ele>
        <time>2018-12-22T16:34:00Z</time>
      </trkpt>
      <trkpt lat="44.10586" lon="5.70122">
        <ele>943.487</ele>
        <time>2018-12-22T16:34:01Z</time>
      </trkpt>
      <trkpt lat="44.10577" lon="5.70131">
        <ele>944.311</ele>
        <time>2018-12-22T16:34:02Z</time>
      </trkpt>
      <trkpt lat="44.10571" lon="5.70141">
        <ele>945.621</ele>
        <time>2018-12-22T16:34:03Z</time>
      </trkpt>
      <trkpt lat="44.10564" lon="5.70151">
        <ele>947.103</ele>
        <time>2018-12-22T16:34:04Z</time>
      </trkpt>
      <trkpt lat="44.10562" lon="5.70161">
        <ele>948.308</ele>
        <time>2018-12-22T16:34:05Z</time>
      </trkpt>
      <trkpt lat="44.10562" lon="5.70173">
        <ele>949.314</ele>
        <time>2018-12-22T16:34:06Z</time>
      </trkpt>
      <trkpt lat="44.10565" lon="5.70185">
        <ele>949.752</ele>
        <time>2018-12-22T16:34:07Z</time>
      </trkpt>
      <trkpt lat="44.10569" lon="5.70192">
        <ele>949.996</ele>
        <time>2018-12-22T16:34:08Z</time>
      </trkpt>
      <trkpt lat="44.10575" lon="5.70197">
        <ele>950.844</ele>
        <time>2018-12-22T16:34:10Z</time>
      </trkpt>
      <trkpt lat="44.10572" lon="5.70203">
        <ele>952.825</ele>
        <time>2018-12-22T16:34:18Z</time>
      </trkpt>
      <trkpt lat="44.10567" lon="5.70204">
        <ele>952.075</ele>
        <time>2018-12-22T16:34:26Z</time>
      </trkpt>
      <trkpt lat="44.10562" lon="5.70205">
        <ele>953.554</ele>
        <time>2018-12-22T16:34:45Z</time>
      </trkpt>
      <trkpt lat="44.10557" lon="5.70207">
        <ele>953.65</ele>
        <time>2018-12-22T16:34:52Z</time>
      </trkpt>
      <trkpt lat="44.10554" lon="5.70203">
        <ele>953.443</ele>
        <time>2018-12-22T16:35:25Z</time>
      </trkpt>
      <trkpt lat="44.1055" lon="5.70203">
        <ele>953.664</ele>
        <time>2018-12-22T16:35:36Z</time>
      </trkpt>
      <trkpt lat="44.10545" lon="5.70205">
        <ele>954.21</ele>
        <time>2018-12-22T16:35:41Z</time>
      </trkpt>
      <trkpt lat="44.10546" lon="5.70198">
        <ele>954.008</ele>
        <time>2018-12-22T16:36:18Z</time>
      </trkpt>
      <trkpt lat="44.10548" lon="5.70204">
        <ele>953.687</ele>
        <time>2018-12-22T16:36:38Z</time>
      </trkpt>
      <trkpt lat="44.10552" lon="5.70206">
        <ele>954.285</ele>
        <time>2018-12-22T16:36:47Z</time>
      </trkpt>
      <trkpt lat="44.10548" lon="5.70203">
        <ele>954.479</ele>
        <time>2018-12-22T16:37:00Z</time>
      </trkpt>
      <trkpt lat="44.1055" lon="5.70209">
        <ele>954.587</ele>
        <time>2018-12-22T16:37:09Z</time>
      </trkpt>
      <trkpt lat="44.10554" lon="5.70205">
        <ele>953.068</ele>
        <time>2018-12-22T16:37:23Z</time>
      </trkpt>
      <trkpt lat="44.10557" lon="5.70209">
        <ele>953.868</ele>
        <time>2018-12-22T16:37:28Z</time>
      </trkpt>
      <trkpt lat="44.10553" lon="5.70214">
        <ele>951.947</ele>
        <time>2018-12-22T16:37:36Z</time>
      </trkpt>
      <trkpt lat="44.10547" lon="5.70224">
        <ele>951.233</ele>
        <time>2018-12-22T16:37:38Z</time>
      </trkpt>
      <trkpt lat="44.10547" lon="5.70233">
        <ele>950.927</ele>
        <time>2018-12-22T16:37:39Z</time>
      </trkpt>
      <trkpt lat="44.1055" lon="5.70239">
        <ele>950.068</ele>
        <time>2018-12-22T16:37:41Z</time>
      </trkpt>
      <trkpt lat="44.10557" lon="5.70238">
        <ele>948.114</ele>
        <time>2018-12-22T16:37:43Z</time>
      </trkpt>
      <trkpt lat="44.10562" lon="5.7024">
        <ele>947.508</ele>
        <time>2018-12-22T16:37:44Z</time>
      </trkpt>
      <trkpt lat="44.10567" lon="5.70241">
        <ele>946.715</ele>
        <time>2018-12-22T16:37:45Z</time>
      </trkpt>
      <trkpt lat="44.10576" lon="5.70246">
        <ele>945.313</ele>
        <time>2018-12-22T16:37:47Z</time>
      </trkpt>
      <trkpt lat="44.10581" lon="5.70249">
        <ele>944.867</ele>
        <time>2018-12-22T16:37:48Z</time>
      </trkpt>
      <trkpt lat="44.10584" lon="5.70253">
        <ele>944.295</ele>
        <time>2018-12-22T16:37:49Z</time>
      </trkpt>
      <trkpt lat="44.10588" lon="5.70257">
        <ele>943.676</ele>
        <time>2018-12-22T16:37:50Z</time>
      </trkpt>
      <trkpt lat="44.10592" lon="5.70263">
        <ele>943.076</ele>
        <time>2018-12-22T16:37:51Z</time>
      </trkpt>
      <trkpt lat="44.10595" lon="5.70269">
        <ele>941.815</ele>
        <time>2018-12-22T16:37:53Z</time>
      </trkpt>
      <trkpt lat="44.10589" lon="5.7027">
        <ele>939.871</ele>
        <time>2018-12-22T16:37:56Z</time>
      </trkpt>
      <trkpt lat="44.10584" lon="5.70271">
        <ele>938.119</ele>
        <time>2018-12-22T16:37:58Z</time>
      </trkpt>
      <trkpt lat="44.10577" lon="5.70272">
        <ele>937.109</ele>
        <time>2018-12-22T16:38:00Z</time>
      </trkpt>
      <trkpt lat="44.10566" lon="5.70277">
        <ele>935.719</ele>
        <time>2018-12-22T16:38:02Z</time>
      </trkpt>
      <trkpt lat="44.10559" lon="5.70281">
        <ele>935.508</ele>
        <time>2018-12-22T16:38:03Z</time>
      </trkpt>
      <trkpt lat="44.10549" lon="5.70286">
        <ele>934.494</ele>
        <time>2018-12-22T16:38:04Z</time>
      </trkpt>
      <trkpt lat="44.10539" lon="5.70293">
        <ele>933.452</ele>
        <time>2018-12-22T16:38:05Z</time>
      </trkpt>
      <trkpt lat="44.1053" lon="5.70299">
        <ele>932.586</ele>
        <time>2018-12-22T16:38:06Z</time>
      </trkpt>
      <trkpt lat="44.10522" lon="5.70306">
        <ele>930.954</ele>
        <time>2018-12-22T16:38:07Z</time>
      </trkpt>
      <trkpt lat="44.10514" lon="5.70313">
        <ele>930.565</ele>
        <time>2018-12-22T16:38:08Z</time>
      </trkpt>
      <trkpt lat="44.10505" lon="5.70318">
        <ele>930.545</ele>
        <time>2018-12-22T16:38:09Z</time>
      </trkpt>
      <trkpt lat="44.10495" lon="5.70322">
        <ele>930.794</ele>
        <time>2018-12-22T16:38:10Z</time>
      </trkpt>
      <trkpt lat="44.10485" lon="5.70324">
        <ele>931.02</ele>
        <time>2018-12-22T16:38:11Z</time>
      </trkpt>
      <trkpt lat="44.10474" lon="5.70325">
        <ele>931.056</ele>
        <time>2018-12-22T16:38:12Z</time>
      </trkpt>
      <trkpt lat="44.10465" lon="5.70324">
        <ele>931.059</ele>
        <time>2018-12-22T16:38:13Z</time>
      </trkpt>
      <trkpt lat="44.10457" lon="5.70322">
        <ele>930.514</ele>
        <time>2018-12-22T16:38:14Z</time>
      </trkpt>
      <trkpt lat="44.10451" lon="5.7032">
        <ele>929.608</ele>
        <time>2018-12-22T16:38:15Z</time>
      </trkpt>
      <trkpt lat="44.10442" lon="5.70319">
        <ele>928.548</ele>
        <time>2018-12-22T16:38:16Z</time>
      </trkpt>
      <trkpt lat="44.10434" lon="5.70319">
        <ele>927.246</ele>
        <time>2018-12-22T16:38:17Z</time>
      </trkpt>
      <trkpt lat="44.10425" lon="5.7032">
        <ele>925.93</ele>
        <time>2018-12-22T16:38:18Z</time>
      </trkpt>
      <trkpt lat="44.10416" lon="5.70321">
        <ele>922.788</ele>
        <time>2018-12-22T16:38:19Z</time>
      </trkpt>
      <trkpt lat="44.10406" lon="5.70321">
        <ele>921.099</ele>
        <time>2018-12-22T16:38:20Z</time>
      </trkpt>
      <trkpt lat="44.10397" lon="5.7032">
        <ele>919.689</ele>
        <time>2018-12-22T16:38:21Z</time>
      </trkpt>
      <trkpt lat="44.10388" lon="5.7032">
        <ele>918.418</ele>
        <time>2018-12-22T16:38:22Z</time>
      </trkpt>
      <trkpt lat="44.10381" lon="5.7032">
        <ele>917.574</ele>
        <time>2018-12-22T16:38:23Z</time>
      </trkpt>
      <trkpt lat="44.10374" lon="5.70324">
        <ele>917.531</ele>
        <time>2018-12-22T16:38:24Z</time>
      </trkpt>
      <trkpt lat="44.10369" lon="5.70327">
        <ele>917.661</ele>
        <time>2018-12-22T16:38:25Z</time>
      </trkpt>
      <trkpt lat="44.10365" lon="5.70332">
        <ele>918.907</ele>
        <time>2018-12-22T16:38:27Z</time>
      </trkpt>
      <trkpt lat="44.10366" lon="5.70339">
        <ele>920.608</ele>
        <time>2018-12-22T16:38:29Z</time>
      </trkpt>
      <trkpt lat="44.10369" lon="5.70344">
        <ele>920.926</ele>
        <time>2018-12-22T16:38:30Z</time>
      </trkpt>
      <trkpt lat="44.10371" lon="5.7035">
        <ele>921.074</ele>
        <time>2018-12-22T16:38:31Z</time>
      </trkpt>
      <trkpt lat="44.10373" lon="5.70356">
        <ele>921.038</ele>
        <time>2018-12-22T16:38:32Z</time>
      </trkpt>
      <trkpt lat="44.10375" lon="5.70364">
        <ele>921.026</ele>
        <time>2018-12-22T16:38:33Z</time>
      </trkpt>
      <trkpt lat="44.10378" lon="5.70373">
        <ele>921.277</ele>
        <time>2018-12-22T16:38:34Z</time>
      </trkpt>
      <trkpt lat="44.10383" lon="5.70381">
        <ele>921.747</ele>
        <time>2018-12-22T16:38:35Z</time>
      </trkpt>
      <trkpt lat="44.10389" lon="5.7039">
        <ele>921.796</ele>
        <time>2018-12-22T16:38:36Z</time>
      </trkpt>
      <trkpt lat="44.10394" lon="5.70398">
        <ele>922.142</ele>
        <time>2018-12-22T16:38:37Z</time>
      </trkpt>
      <trkpt lat="44.104" lon="5.70405">
        <ele>922.382</ele>
        <time>2018-12-22T16:38:38Z</time>
      </trkpt>
      <trkpt lat="44.10408" lon="5.70411">
        <ele>922.943</ele>
        <time>2018-12-22T16:38:39Z</time>
      </trkpt>
      <trkpt lat="44.10416" lon="5.70417">
        <ele>922.917</ele>
        <time>2018-12-22T16:38:40Z</time>
      </trkpt>
      <trkpt lat="44.10425" lon="5.70424">
        <ele>923.208</ele>
        <time>2018-12-22T16:38:41Z</time>
      </trkpt>
      <trkpt lat="44.10433" lon="5.70432">
        <ele>924.551</ele>
        <time>2018-12-22T16:38:42Z</time>
      </trkpt>
      <trkpt lat="44.10442" lon="5.7044">
        <ele>925.159</ele>
        <time>2018-12-22T16:38:43Z</time>
      </trkpt>
      <trkpt lat="44.10451" lon="5.70448">
        <ele>925.963</ele>
        <time>2018-12-22T16:38:44Z</time>
      </trkpt>
      <trkpt lat="44.10459" lon="5.70455">
        <ele>927.711</ele>
        <time>2018-12-22T16:38:45Z</time>
      </trkpt>
      <trkpt lat="44.10467" lon="5.70461">
        <ele>928.872</ele>
        <time>2018-12-22T16:38:46Z</time>
      </trkpt>
      <trkpt lat="44.10477" lon="5.70467">
        <ele>929.962</ele>
        <time>2018-12-22T16:38:47Z</time>
      </trkpt>
      <trkpt lat="44.10486" lon="5.70472">
        <ele>930.861</ele>
        <time>2018-12-22T16:38:48Z</time>
      </trkpt>
      <trkpt lat="44.10496" lon="5.70479">
        <ele>931.717</ele>
        <time>2018-12-22T16:38:49Z</time>
      </trkpt>
      <trkpt lat="44.10507" lon="5.70485">
        <ele>932.343</ele>
        <time>2018-12-22T16:38:50Z</time>
      </trkpt>
      <trkpt lat="44.10518" lon="5.7049">
        <ele>933.864</ele>
        <time>2018-12-22T16:38:51Z</time>
      </trkpt>
      <trkpt lat="44.10528" lon="5.70496">
        <ele>935.61</ele>
        <time>2018-12-22T16:38:52Z</time>
      </trkpt>
      <trkpt lat="44.10537" lon="5.70501">
        <ele>937.208</ele>
        <time>2018-12-22T16:38:53Z</time>
      </trkpt>
      <trkpt lat="44.10545" lon="5.70507">
        <ele>942.247</ele>
        <time>2018-12-22T16:38:54Z</time>
      </trkpt>
      <trkpt lat="44.10551" lon="5.70513">
        <ele>944.345</ele>
        <time>2018-12-22T16:38:55Z</time>
      </trkpt>
      <trkpt lat="44.10559" lon="5.70516">
        <ele>945.159</ele>
        <time>2018-12-22T16:38:56Z</time>
      </trkpt>
      <trkpt lat="44.10567" lon="5.70518">
        <ele>946.547</ele>
        <time>2018-12-22T16:38:57Z</time>
      </trkpt>
      <trkpt lat="44.10574" lon="5.70521">
        <ele>947.428</ele>
        <time>2018-12-22T16:38:58Z</time>
      </trkpt>
      <trkpt lat="44.10581" lon="5.70525">
        <ele>947.858</ele>
        <time>2018-12-22T16:38:59Z</time>
      </trkpt>
      <trkpt lat="44.10587" lon="5.70529">
        <ele>948.297</ele>
        <time>2018-12-22T16:39:00Z</time>
      </trkpt>
      <trkpt lat="44.10594" lon="5.70532">
        <ele>949.233</ele>
        <time>2018-12-22T16:39:01Z</time>
      </trkpt>
      <trkpt lat="44.10601" lon="5.70533">
        <ele>950.098</ele>
        <time>2018-12-22T16:39:02Z</time>
      </trkpt>
      <trkpt lat="44.10609" lon="5.70533">
        <ele>950.715</ele>
        <time>2018-12-22T16:39:03Z</time>
      </trkpt>
      <trkpt lat="44.10616" lon="5.70533">
        <ele>951.226</ele>
        <time>2018-12-22T16:39:04Z</time>
      </trkpt>
      <trkpt lat="44.10624" lon="5.70534">
        <ele>951.508</ele>
        <time>2018-12-22T16:39:05Z</time>
      </trkpt>
      <trkpt lat="44.10631" lon="5.70536">
        <ele>953.232</ele>
        <time>2018-12-22T16:39:06Z</time>
      </trkpt>
      <trkpt lat="44.10638" lon="5.70538">
        <ele>953.97</ele>
        <time>2018-12-22T16:39:07Z</time>
      </trkpt>
      <trkpt lat="44.10645" lon="5.70539">
        <ele>955.064</ele>
        <time>2018-12-22T16:39:08Z</time>
      </trkpt>
      <trkpt lat="44.10651" lon="5.70538">
        <ele>956.022</ele>
        <time>2018-12-22T16:39:09Z</time>
      </trkpt>
      <trkpt lat="44.10656" lon="5.70538">
        <ele>956.223</ele>
        <time>2018-12-22T16:39:10Z</time>
      </trkpt>
      <trkpt lat="44.10663" lon="5.70537">
        <ele>956.223</ele>
        <time>2018-12-22T16:39:11Z</time>
      </trkpt>
      <trkpt lat="44.10669" lon="5.70537">
        <ele>956.142</ele>
        <time>2018-12-22T16:39:12Z</time>
      </trkpt>
      <trkpt lat="44.10676" lon="5.70537">
        <ele>955.798</ele>
        <time>2018-12-22T16:39:13Z</time>
      </trkpt>
      <trkpt lat="44.10683" lon="5.70539">
        <ele>955.276</ele>
        <time>2018-12-22T16:39:14Z</time>
      </trkpt>
      <trkpt lat="44.10689" lon="5.70543">
        <ele>955.19</ele>
        <time>2018-12-22T16:39:15Z</time>
      </trkpt>
      <trkpt lat="44.10695" lon="5.70548">
        <ele>955.119</ele>
        <time>2018-12-22T16:39:16Z</time>
      </trkpt>
      <trkpt lat="44.107" lon="5.70551">
        <ele>955.508</ele>
        <time>2018-12-22T16:39:17Z</time>
      </trkpt>
      <trkpt lat="44.10706" lon="5.70553">
        <ele>957.43</ele>
        <time>2018-12-22T16:39:18Z</time>
      </trkpt>
      <trkpt lat="44.10712" lon="5.70553">
        <ele>957.458</ele>
        <time>2018-12-22T16:39:19Z</time>
      </trkpt>
      <trkpt lat="44.10718" lon="5.70551">
        <ele>959.742</ele>
        <time>2018-12-22T16:39:20Z</time>
      </trkpt>
      <trkpt lat="44.10723" lon="5.70548">
        <ele>960.62</ele>
        <time>2018-12-22T16:39:21Z</time>
      </trkpt>
      <trkpt lat="44.10729" lon="5.70542">
        <ele>961.861</ele>
        <time>2018-12-22T16:39:23Z</time>
      </trkpt>
      <trkpt lat="44.10734" lon="5.70535">
        <ele>962.411</ele>
        <time>2018-12-22T16:39:25Z</time>
      </trkpt>
      <trkpt lat="44.1074" lon="5.70532">
        <ele>962.42</ele>
        <time>2018-12-22T16:39:27Z</time>
      </trkpt>
      <trkpt lat="44.10746" lon="5.70537">
        <ele>963.056</ele>
        <time>2018-12-22T16:39:29Z</time>
      </trkpt>
      <trkpt lat="44.10753" lon="5.70545">
        <ele>964.798</ele>
        <time>2018-12-22T16:39:31Z</time>
      </trkpt>
      <trkpt lat="44.10759" lon="5.70553">
        <ele>966.915</ele>
        <time>2018-12-22T16:39:33Z</time>
      </trkpt>
      <trkpt lat="44.10764" lon="5.70563">
        <ele>969.226</ele>
        <time>2018-12-22T16:39:35Z</time>
      </trkpt>
      <trkpt lat="44.1077" lon="5.70567">
        <ele>970.208</ele>
        <time>2018-12-22T16:39:36Z</time>
      </trkpt>
      <trkpt lat="44.10775" lon="5.7057">
        <ele>971.252</ele>
        <time>2018-12-22T16:39:37Z</time>
      </trkpt>
      <trkpt lat="44.1078" lon="5.70571">
        <ele>972.19</ele>
        <time>2018-12-22T16:39:38Z</time>
      </trkpt>
      <trkpt lat="44.10785" lon="5.70572">
        <ele>973.454</ele>
        <time>2018-12-22T16:39:39Z</time>
      </trkpt>
      <trkpt lat="44.1079" lon="5.70572">
        <ele>975.432</ele>
        <time>2018-12-22T16:39:41Z</time>
      </trkpt>
      <trkpt lat="44.10795" lon="5.70571">
        <ele>977.833</ele>
        <time>2018-12-22T16:39:43Z</time>
      </trkpt>
      <trkpt lat="44.108" lon="5.7057">
        <ele>979.023</ele>
        <time>2018-12-22T16:39:45Z</time>
      </trkpt>
      <trkpt lat="44.10806" lon="5.70569">
        <ele>980.312</ele>
        <time>2018-12-22T16:39:48Z</time>
      </trkpt>
      <trkpt lat="44.1081" lon="5.7057">
        <ele>980.418</ele>
        <time>2018-12-22T16:39:51Z</time>
      </trkpt>
      <trkpt lat="44.10817" lon="5.7057">
        <ele>980.546</ele>
        <time>2018-12-22T16:39:53Z</time>
      </trkpt>
      <trkpt lat="44.10823" lon="5.70568">
        <ele>981.288</ele>
        <time>2018-12-22T16:39:54Z</time>
      </trkpt>
      <trkpt lat="44.10827" lon="5.70564">
        <ele>982.216</ele>
        <time>2018-12-22T16:39:55Z</time>
      </trkpt>
      <trkpt lat="44.1083" lon="5.70559">
        <ele>983.108</ele>
        <time>2018-12-22T16:39:56Z</time>
      </trkpt>
      <trkpt lat="44.10831" lon="5.70552">
        <ele>984.987</ele>
        <time>2018-12-22T16:39:57Z</time>
      </trkpt>
      <trkpt lat="44.10834" lon="5.70541">
        <ele>988.375</ele>
        <time>2018-12-22T16:39:59Z</time>
      </trkpt>
      <trkpt lat="44.10841" lon="5.7054">
        <ele>991.399</ele>
        <time>2018-12-22T16:40:01Z</time>
      </trkpt>
      <trkpt lat="44.10844" lon="5.70544">
        <ele>992.417</ele>
        <time>2018-12-22T16:40:02Z</time>
      </trkpt>
      <trkpt lat="44.10848" lon="5.7055">
        <ele>993.018</ele>
        <time>2018-12-22T16:40:03Z</time>
      </trkpt>
      <trkpt lat="44.10851" lon="5.70556">
        <ele>994.298</ele>
        <time>2018-12-22T16:40:04Z</time>
      </trkpt>
      <trkpt lat="44.10859" lon="5.7056">
        <ele>998.477</ele>
        <time>2018-12-22T16:40:06Z</time>
      </trkpt>
      <trkpt lat="44.10865" lon="5.70557">
        <ele>1000.373</ele>
        <time>2018-12-22T16:40:07Z</time>
      </trkpt>
      <trkpt lat="44.10871" lon="5.70554">
        <ele>1002.012</ele>
        <time>2018-12-22T16:40:08Z</time>
      </trkpt>
      <trkpt lat="44.10875" lon="5.70551">
        <ele>1003.532</ele>
        <time>2018-12-22T16:40:09Z</time>
      </trkpt>
      <trkpt lat="44.10884" lon="5.70549">
        <ele>1006.605</ele>
        <time>2018-12-22T16:40:11Z</time>
      </trkpt>
      <trkpt lat="44.10892" lon="5.70543">
        <ele>1009.108</ele>
        <time>2018-12-22T16:40:13Z</time>
      </trkpt>
      <trkpt lat="44.10899" lon="5.70539">
        <ele>1010.654</ele>
        <time>2018-12-22T16:40:15Z</time>
      </trkpt>
      <trkpt lat="44.10904" lon="5.70537">
        <ele>1011.312</ele>
        <time>2018-12-22T16:40:18Z</time>
      </trkpt>
      <trkpt lat="44.10902" lon="5.70544">
        <ele>1011.456</ele>
        <time>2018-12-22T16:40:38Z</time>
      </trkpt>
      <trkpt lat="44.10899" lon="5.70536">
        <ele>1011.034</ele>
        <time>2018-12-22T16:41:09Z</time>
      </trkpt>
      <trkpt lat="44.109" lon="5.70543">
        <ele>1011.235</ele>
        <time>2018-12-22T16:41:41Z</time>
      </trkpt>
      <trkpt lat="44.10902" lon="5.70549">
        <ele>1012.885</ele>
        <time>2018-12-22T16:42:08Z</time>
      </trkpt>
      <trkpt lat="44.10907" lon="5.70548">
        <ele>1011.574</ele>
        <time>2018-12-22T16:42:16Z</time>
      </trkpt>
      <trkpt lat="44.10908" lon="5.70542">
        <ele>1011.42</ele>
        <time>2018-12-22T16:42:24Z</time>
      </trkpt>
      <trkpt lat="44.10912" lon="5.70537">
        <ele>1010.845</ele>
        <time>2018-12-22T16:42:25Z</time>
      </trkpt>
      <trkpt lat="44.10914" lon="5.70529">
        <ele>1010.247</ele>
        <time>2018-12-22T16:42:26Z</time>
      </trkpt>
      <trkpt lat="44.10915" lon="5.70522">
        <ele>1009.711</ele>
        <time>2018-12-22T16:42:27Z</time>
      </trkpt>
      <trkpt lat="44.10919" lon="5.70515">
        <ele>1007.108</ele>
        <time>2018-12-22T16:42:29Z</time>
      </trkpt>
      <trkpt lat="44.10926" lon="5.70515">
        <ele>1005.327</ele>
        <time>2018-12-22T16:42:32Z</time>
      </trkpt>
      <trkpt lat="44.10932" lon="5.7052">
        <ele>1004.935</ele>
        <time>2018-12-22T16:42:33Z</time>
      </trkpt>
      <trkpt lat="44.10938" lon="5.70525">
        <ele>1004.059</ele>
        <time>2018-12-22T16:42:34Z</time>
      </trkpt>
      <trkpt lat="44.10944" lon="5.7053">
        <ele>1003.297</ele>
        <time>2018-12-22T16:42:35Z</time>
      </trkpt>
      <trkpt lat="44.1095" lon="5.70535">
        <ele>1003.248</ele>
        <time>2018-12-22T16:42:36Z</time>
      </trkpt>
      <trkpt lat="44.10956" lon="5.7054">
        <ele>1003.238</ele>
        <time>2018-12-22T16:42:37Z</time>
      </trkpt>
      <trkpt lat="44.10963" lon="5.70543">
        <ele>1003.227</ele>
        <time>2018-12-22T16:42:38Z</time>
      </trkpt>
      <trkpt lat="44.1097" lon="5.70548">
        <ele>1003.483</ele>
        <time>2018-12-22T16:42:39Z</time>
      </trkpt>
      <trkpt lat="44.10976" lon="5.70551">
        <ele>1003.434</ele>
        <time>2018-12-22T16:42:40Z</time>
      </trkpt>
      <trkpt lat="44.10983" lon="5.70554">
        <ele>1002.855</ele>
        <time>2018-12-22T16:42:41Z</time>
      </trkpt>
      <trkpt lat="44.10989" lon="5.70558">
        <ele>1002.81</ele>
        <time>2018-12-22T16:42:42Z</time>
      </trkpt>
      <trkpt lat="44.10994" lon="5.70562">
        <ele>1003.208</ele>
        <time>2018-12-22T16:42:43Z</time>
      </trkpt>
      <trkpt lat="44.10998" lon="5.70567">
        <ele>1003.446</ele>
        <time>2018-12-22T16:42:44Z</time>
      </trkpt>
      <trkpt lat="44.11002" lon="5.70573">
        <ele>1005.844</ele>
        <time>2018-12-22T16:42:46Z</time>
      </trkpt>
      <trkpt lat="44.11007" lon="5.7057">
        <ele>1009.558</ele>
        <time>2018-12-22T16:42:57Z</time>
      </trkpt>
      <trkpt lat="44.11012" lon="5.7057">
        <ele>1009.576</ele>
        <time>2018-12-22T16:43:00Z</time>
      </trkpt>
      <trkpt lat="44.11016" lon="5.70576">
        <ele>1009.717</ele>
        <time>2018-12-22T16:43:03Z</time>
      </trkpt>
      <trkpt lat="44.11018" lon="5.70582">
        <ele>1009.267</ele>
        <time>2018-12-22T16:43:04Z</time>
      </trkpt>
      <trkpt lat="44.1102" lon="5.70588">
        <ele>1009.286</ele>
        <time>2018-12-22T16:43:05Z</time>
      </trkpt>
      <trkpt lat="44.11024" lon="5.70596">
        <ele>1008.512</ele>
        <time>2018-12-22T16:43:06Z</time>
      </trkpt>
      <trkpt lat="44.11029" lon="5.70606">
        <ele>1008.534</ele>
        <time>2018-12-22T16:43:07Z</time>
      </trkpt>
      <trkpt lat="44.11035" lon="5.70617">
        <ele>1008.555</ele>
        <time>2018-12-22T16:43:08Z</time>
      </trkpt>
      <trkpt lat="44.11041" lon="5.70628">
        <ele>1008.91</ele>
        <time>2018-12-22T16:43:09Z</time>
      </trkpt>
      <trkpt lat="44.11045" lon="5.7064">
        <ele>1009.208</ele>
        <time>2018-12-22T16:43:10Z</time>
      </trkpt>
      <trkpt lat="44.11051" lon="5.70651">
        <ele>1009.296</ele>
        <time>2018-12-22T16:43:11Z</time>
      </trkpt>
      <trkpt lat="44.11056" lon="5.70661">
        <ele>1009.214</ele>
        <time>2018-12-22T16:43:12Z</time>
      </trkpt>
      <trkpt lat="44.11059" lon="5.7067">
        <ele>1009.288</ele>
        <time>2018-12-22T16:43:13Z</time>
      </trkpt>
      <trkpt lat="44.11063" lon="5.7068">
        <ele>1009.716</ele>
        <time>2018-12-22T16:43:14Z</time>
      </trkpt>
      <trkpt lat="44.11068" lon="5.70691">
        <ele>1010.077</ele>
        <time>2018-12-22T16:43:15Z</time>
      </trkpt>
      <trkpt lat="44.11075" lon="5.707">
        <ele>1011.237</ele>
        <time>2018-12-22T16:43:16Z</time>
      </trkpt>
      <trkpt lat="44.11083" lon="5.70708">
        <ele>1015.116</ele>
        <time>2018-12-22T16:43:17Z</time>
      </trkpt>
      <trkpt lat="44.11091" lon="5.70716">
        <ele>1016.442</ele>
        <time>2018-12-22T16:43:18Z</time>
      </trkpt>
      <trkpt lat="44.111" lon="5.70722">
        <ele>1017.649</ele>
        <time>2018-12-22T16:43:19Z</time>
      </trkpt>
      <trkpt lat="44.11112" lon="5.70729">
        <ele>1018.502</ele>
        <time>2018-12-22T16:43:20Z</time>
      </trkpt>
      <trkpt lat="44.11122" lon="5.70736">
        <ele>1019.122</ele>
        <time>2018-12-22T16:43:21Z</time>
      </trkpt>
      <trkpt lat="44.11132" lon="5.70742">
        <ele>1019.208</ele>
        <time>2018-12-22T16:43:22Z</time>
      </trkpt>
      <trkpt lat="44.11142" lon="5.70748">
        <ele>1019.577</ele>
        <time>2018-12-22T16:43:23Z</time>
      </trkpt>
      <trkpt lat="44.11152" lon="5.70753">
        <ele>1020.085</ele>
        <time>2018-12-22T16:43:24Z</time>
      </trkpt>
      <trkpt lat="44.11163" lon="5.70755">
        <ele>1020.799</ele>
        <time>2018-12-22T16:43:25Z</time>
      </trkpt>
      <trkpt lat="44.11175" lon="5.70755">
        <ele>1022.077</ele>
        <time>2018-12-22T16:43:26Z</time>
      </trkpt>
      <trkpt lat="44.11186" lon="5.70752">
        <ele>1023.268</ele>
        <time>2018-12-22T16:43:27Z</time>
      </trkpt>
      <trkpt lat="44.11198" lon="5.70749">
        <ele>1025.468</ele>
        <time>2018-12-22T16:43:28Z</time>
      </trkpt>
      <trkpt lat="44.11208" lon="5.70748">
        <ele>1028.597</ele>
        <time>2018-12-22T16:43:29Z</time>
      </trkpt>
      <trkpt lat="44.11218" lon="5.70748">
        <ele>1029.583</ele>
        <time>2018-12-22T16:43:30Z</time>
      </trkpt>
      <trkpt lat="44.11228" lon="5.7075">
        <ele>1030.396</ele>
        <time>2018-12-22T16:43:31Z</time>
      </trkpt>
      <trkpt lat="44.11238" lon="5.70754">
        <ele>1030.431</ele>
        <time>2018-12-22T16:43:32Z</time>
      </trkpt>
      <trkpt lat="44.11247" lon="5.70756">
        <ele>1030.424</ele>
        <time>2018-12-22T16:43:33Z</time>
      </trkpt>
      <trkpt lat="44.11256" lon="5.70757">
        <ele>1032.008</ele>
        <time>2018-12-22T16:43:34Z</time>
      </trkpt>
      <trkpt lat="44.11266" lon="5.70756">
        <ele>1033.932</ele>
        <time>2018-12-22T16:43:35Z</time>
      </trkpt>
      <trkpt lat="44.11276" lon="5.70757">
        <ele>1035.62</ele>
        <time>2018-12-22T16:43:36Z</time>
      </trkpt>
      <trkpt lat="44.11286" lon="5.70758">
        <ele>1037.794</ele>
        <time>2018-12-22T16:43:37Z</time>
      </trkpt>
      <trkpt lat="44.11296" lon="5.70759">
        <ele>1040.182</ele>
        <time>2018-12-22T16:43:38Z</time>
      </trkpt>
      <trkpt lat="44.11306" lon="5.70759">
        <ele>1041.023</ele>
        <time>2018-12-22T16:43:39Z</time>
      </trkpt>
      <trkpt lat="44.11316" lon="5.70761">
        <ele>1041.853</ele>
        <time>2018-12-22T16:43:40Z</time>
      </trkpt>
      <trkpt lat="44.11326" lon="5.70763">
        <ele>1042.522</ele>
        <time>2018-12-22T16:43:41Z</time>
      </trkpt>
      <trkpt lat="44.11336" lon="5.70766">
        <ele>1044.758</ele>
        <time>2018-12-22T16:43:42Z</time>
      </trkpt>
      <trkpt lat="44.11345" lon="5.7077">
        <ele>1046.556</ele>
        <time>2018-12-22T16:43:43Z</time>
      </trkpt>
      <trkpt lat="44.11353" lon="5.70773">
        <ele>1047.959</ele>
        <time>2018-12-22T16:43:44Z</time>
      </trkpt>
      <trkpt lat="44.11362" lon="5.70777">
        <ele>1049.914</ele>
        <time>2018-12-22T16:43:45Z</time>
      </trkpt>
      <trkpt lat="44.11372" lon="5.70781">
        <ele>1051.508</ele>
        <time>2018-12-22T16:43:46Z</time>
      </trkpt>
      <trkpt lat="44.11381" lon="5.70785">
        <ele>1053.988</ele>
        <time>2018-12-22T16:43:47Z</time>
      </trkpt>
      <trkpt lat="44.1139" lon="5.7079">
        <ele>1055.276</ele>
        <time>2018-12-22T16:43:48Z</time>
      </trkpt>
      <trkpt lat="44.11399" lon="5.70796">
        <ele>1056.89</ele>
        <time>2018-12-22T16:43:49Z</time>
      </trkpt>
      <trkpt lat="44.11407" lon="5.70803">
        <ele>1058.548</ele>
        <time>2018-12-22T16:43:50Z</time>
      </trkpt>
      <trkpt lat="44.11415" lon="5.7081">
        <ele>1060.339</ele>
        <time>2018-12-22T16:43:51Z</time>
      </trkpt>
      <trkpt lat="44.11422" lon="5.70816">
        <ele>1061.959</ele>
        <time>2018-12-22T16:43:52Z</time>
      </trkpt>
      <trkpt lat="44.11429" lon="5.70822">
        <ele>1063.788</ele>
        <time>2018-12-22T16:43:53Z</time>
      </trkpt>
      <trkpt lat="44.11436" lon="5.70827">
        <ele>1066.814</ele>
        <time>2018-12-22T16:43:54Z</time>
      </trkpt>
      <trkpt lat="44.11443" lon="5.70834">
        <ele>1068.246</ele>
        <time>2018-12-22T16:43:55Z</time>
      </trkpt>
      <trkpt lat="44.11449" lon="5.70841">
        <ele>1069.188</ele>
        <time>2018-12-22T16:43:56Z</time>
      </trkpt>
      <trkpt lat="44.11455" lon="5.70849">
        <ele>1069.716</ele>
        <time>2018-12-22T16:43:57Z</time>
      </trkpt>
      <trkpt lat="44.11461" lon="5.70856">
        <ele>1070.708</ele>
        <time>2018-12-22T16:43:58Z</time>
      </trkpt>
      <trkpt lat="44.11466" lon="5.70864">
        <ele>1071.187</ele>
        <time>2018-12-22T16:43:59Z</time>
      </trkpt>
      <trkpt lat="44.11471" lon="5.70873">
        <ele>1071.775</ele>
        <time>2018-12-22T16:44:00Z</time>
      </trkpt>
      <trkpt lat="44.11476" lon="5.70884">
        <ele>1072.889</ele>
        <time>2018-12-22T16:44:01Z</time>
      </trkpt>
      <trkpt lat="44.11481" lon="5.70894">
        <ele>1073.947</ele>
        <time>2018-12-22T16:44:02Z</time>
      </trkpt>
      <trkpt lat="44.11486" lon="5.70904">
        <ele>1074.968</ele>
        <time>2018-12-22T16:44:03Z</time>
      </trkpt>
      <trkpt lat="44.11492" lon="5.70914">
        <ele>1076.558</ele>
        <time>2018-12-22T16:44:04Z</time>
      </trkpt>
      <trkpt lat="44.11497" lon="5.70924">
        <ele>1077.727</ele>
        <time>2018-12-22T16:44:05Z</time>
      </trkpt>
      <trkpt lat="44.11502" lon="5.70934">
        <ele>1079.923</ele>
        <time>2018-12-22T16:44:06Z</time>
      </trkpt>
      <trkpt lat="44.11505" lon="5.7094">
        <ele>1081.497</ele>
        <time>2018-12-22T16:44:07Z</time>
      </trkpt>
      <trkpt lat="44.11508" lon="5.70947">
        <ele>1083.923</ele>
        <time>2018-12-22T16:44:09Z</time>
      </trkpt>
      <trkpt lat="44.11508" lon="5.70954">
        <ele>1086.425</ele>
        <time>2018-12-22T16:44:12Z</time>
      </trkpt>
      <trkpt lat="44.11507" lon="5.7096">
        <ele>1086.708</ele>
        <time>2018-12-22T16:44:16Z</time>
      </trkpt>
      <trkpt lat="44.11504" lon="5.70964">
        <ele>1086.822</ele>
        <time>2018-12-22T16:44:21Z</time>
      </trkpt>
      <trkpt lat="44.11501" lon="5.70969">
        <ele>1086.81</ele>
        <time>2018-12-22T16:44:29Z</time>
      </trkpt>
      <trkpt lat="44.11504" lon="5.7098">
        <ele>1087.354</ele>
        <time>2018-12-22T16:44:33Z</time>
      </trkpt>
      <trkpt lat="44.11504" lon="5.70987">
        <ele>1087.682</ele>
        <time>2018-12-22T16:44:34Z</time>
      </trkpt>
      <trkpt lat="44.11506" lon="5.70993">
        <ele>1087.643</ele>
        <time>2018-12-22T16:44:35Z</time>
      </trkpt>
      <trkpt lat="44.1151" lon="5.71">
        <ele>1087.763</ele>
        <time>2018-12-22T16:44:36Z</time>
      </trkpt>
      <trkpt lat="44.11514" lon="5.71007">
        <ele>1087.872</ele>
        <time>2018-12-22T16:44:37Z</time>
      </trkpt>
      <trkpt lat="44.11518" lon="5.71017">
        <ele>1088.238</ele>
        <time>2018-12-22T16:44:38Z</time>
      </trkpt>
      <trkpt lat="44.11522" lon="5.71026">
        <ele>1088.447</ele>
        <time>2018-12-22T16:44:39Z</time>
      </trkpt>
      <trkpt lat="44.11526" lon="5.71035">
        <ele>1088.929</ele>
        <time>2018-12-22T16:44:40Z</time>
      </trkpt>
      <trkpt lat="44.1153" lon="5.71044">
        <ele>1089.621</ele>
        <time>2018-12-22T16:44:41Z</time>
      </trkpt>
      <trkpt lat="44.11534" lon="5.71051">
        <ele>1090.708</ele>
        <time>2018-12-22T16:44:42Z</time>
      </trkpt>
      <trkpt lat="44.11538" lon="5.71058">
        <ele>1093.287</ele>
        <time>2018-12-22T16:44:43Z</time>
      </trkpt>
      <trkpt lat="44.11541" lon="5.71066">
        <ele>1094.845</ele>
        <time>2018-12-22T16:44:44Z</time>
      </trkpt>
      <trkpt lat="44.11545" lon="5.71073">
        <ele>1096.499</ele>
        <time>2018-12-22T16:44:45Z</time>
      </trkpt>
      <trkpt lat="44.11548" lon="5.71078">
        <ele>1098.187</ele>
        <time>2018-12-22T16:44:46Z</time>
      </trkpt>
      <trkpt lat="44.11551" lon="5.71084">
        <ele>1099.688</ele>
        <time>2018-12-22T16:44:47Z</time>
      </trkpt>
      <trkpt lat="44.11553" lon="5.71091">
        <ele>1101.358</ele>
        <time>2018-12-22T16:44:48Z</time>
      </trkpt>
      <trkpt lat="44.11556" lon="5.71098">
        <ele>1103.197</ele>
        <time>2018-12-22T16:44:49Z</time>
      </trkpt>
      <trkpt lat="44.1156" lon="5.71105">
        <ele>1104.993</ele>
        <time>2018-12-22T16:44:50Z</time>
      </trkpt>
      <trkpt lat="44.11563" lon="5.71112">
        <ele>1106.693</ele>
        <time>2018-12-22T16:44:51Z</time>
      </trkpt>
      <trkpt lat="44.11565" lon="5.71119">
        <ele>1108.465</ele>
        <time>2018-12-22T16:44:52Z</time>
      </trkpt>
      <trkpt lat="44.11569" lon="5.71127">
        <ele>1110.321</ele>
        <time>2018-12-22T16:44:53Z</time>
      </trkpt>
      <trkpt lat="44.11572" lon="5.71134">
        <ele>1114.008</ele>
        <time>2018-12-22T16:44:54Z</time>
      </trkpt>
      <trkpt lat="44.11576" lon="5.71142">
        <ele>1115.832</ele>
        <time>2018-12-22T16:44:55Z</time>
      </trkpt>
      <trkpt lat="44.11579" lon="5.71147">
        <ele>1118.14</ele>
        <time>2018-12-22T16:44:56Z</time>
      </trkpt>
      <trkpt lat="44.11584" lon="5.71153">
        <ele>1122.024</ele>
        <time>2018-12-22T16:44:58Z</time>
      </trkpt>
      <trkpt lat="44.11588" lon="5.71156">
        <ele>1125.232</ele>
        <time>2018-12-22T16:45:00Z</time>
      </trkpt>
      <trkpt lat="44.11593" lon="5.71158">
        <ele>1128.153</ele>
        <time>2018-12-22T16:45:05Z</time>
      </trkpt>
      <trkpt lat="44.11597" lon="5.71159">
        <ele>1127.883</ele>
        <time>2018-12-22T16:45:09Z</time>
      </trkpt>
      <trkpt lat="44.11602" lon="5.71157">
        <ele>1128.032</ele>
        <time>2018-12-22T16:45:17Z</time>
      </trkpt>
      <trkpt lat="44.11599" lon="5.71162">
        <ele>1127.658</ele>
        <time>2018-12-22T16:46:09Z</time>
      </trkpt>
      <trkpt lat="44.11594" lon="5.71163">
        <ele>1124.133</ele>
        <time>2018-12-22T16:46:23Z</time>
      </trkpt>
      <trkpt lat="44.11591" lon="5.71157">
        <ele>1124.923</ele>
        <time>2018-12-22T16:47:11Z</time>
      </trkpt>
      <trkpt lat="44.11592" lon="5.71151">
        <ele>1124.715</ele>
        <time>2018-12-22T16:47:22Z</time>
      </trkpt>
      <trkpt lat="44.11596" lon="5.71147">
        <ele>1124.308</ele>
        <time>2018-12-22T16:47:32Z</time>
      </trkpt>
      <trkpt lat="44.11591" lon="5.71144">
        <ele>1120.496</ele>
        <time>2018-12-22T16:47:40Z</time>
      </trkpt>
      <trkpt lat="44.11586" lon="5.71138">
        <ele>1118.464</ele>
        <time>2018-12-22T16:47:42Z</time>
      </trkpt>
      <trkpt lat="44.11583" lon="5.71131">
        <ele>1117.228</ele>
        <time>2018-12-22T16:47:43Z</time>
      </trkpt>
      <trkpt lat="44.11581" lon="5.71125">
        <ele>1115.946</ele>
        <time>2018-12-22T16:47:44Z</time>
      </trkpt>
      <trkpt lat="44.11578" lon="5.7112">
        <ele>1113.027</ele>
        <time>2018-12-22T16:47:45Z</time>
      </trkpt>
      <trkpt lat="44.11574" lon="5.71114">
        <ele>1111.557</ele>
        <time>2018-12-22T16:47:46Z</time>
      </trkpt>
      <trkpt lat="44.11571" lon="5.71108">
        <ele>1110.056</ele>
        <time>2018-12-22T16:47:47Z</time>
      </trkpt>
      <trkpt lat="44.11566" lon="5.71103">
        <ele>1108.522</ele>
        <time>2018-12-22T16:47:48Z</time>
      </trkpt>
      <trkpt lat="44.11562" lon="5.71097">
        <ele>1106.885</ele>
        <time>2018-12-22T16:47:49Z</time>
      </trkpt>
      <trkpt lat="44.11558" lon="5.71091">
        <ele>1104.989</ele>
        <time>2018-12-22T16:47:50Z</time>
      </trkpt>
      <trkpt lat="44.11553" lon="5.71083">
        <ele>1102.717</ele>
        <time>2018-12-22T16:47:51Z</time>
      </trkpt>
      <trkpt lat="44.11548" lon="5.71075">
        <ele>1100.508</ele>
        <time>2018-12-22T16:47:52Z</time>
      </trkpt>
      <trkpt lat="44.11544" lon="5.71065">
        <ele>1098.431</ele>
        <time>2018-12-22T16:47:53Z</time>
      </trkpt>
      <trkpt lat="44.1154" lon="5.71055">
        <ele>1096.549</ele>
        <time>2018-12-22T16:47:54Z</time>
      </trkpt>
      <trkpt lat="44.11535" lon="5.71045">
        <ele>1094.893</ele>
        <time>2018-12-22T16:47:55Z</time>
      </trkpt>
      <trkpt lat="44.1153" lon="5.71037">
        <ele>1093.281</ele>
        <time>2018-12-22T16:47:56Z</time>
      </trkpt>
      <trkpt lat="44.11525" lon="5.71028">
        <ele>1090.622</ele>
        <time>2018-12-22T16:47:57Z</time>
      </trkpt>
      <trkpt lat="44.1152" lon="5.71019">
        <ele>1089.632</ele>
        <time>2018-12-22T16:47:58Z</time>
      </trkpt>
      <trkpt lat="44.11518" lon="5.7101">
        <ele>1088.921</ele>
        <time>2018-12-22T16:47:59Z</time>
      </trkpt>
      <trkpt lat="44.11516" lon="5.71004">
        <ele>1088.647</ele>
        <time>2018-12-22T16:48:00Z</time>
      </trkpt>
      <trkpt lat="44.11513" lon="5.70998">
        <ele>1088.659</ele>
        <time>2018-12-22T16:48:02Z</time>
      </trkpt>
      <trkpt lat="44.11509" lon="5.70991">
        <ele>1089.303</ele>
        <time>2018-12-22T16:48:05Z</time>
      </trkpt>
      <trkpt lat="44.11506" lon="5.70985">
        <ele>1089.023</ele>
        <time>2018-12-22T16:48:09Z</time>
      </trkpt>
      <trkpt lat="44.11505" lon="5.70978">
        <ele>1088.208</ele>
        <time>2018-12-22T16:48:11Z</time>
      </trkpt>
      <trkpt lat="44.11505" lon="5.70972">
        <ele>1087.998</ele>
        <time>2018-12-22T16:48:12Z</time>
      </trkpt>
      <trkpt lat="44.11506" lon="5.70961">
        <ele>1087.486</ele>
        <time>2018-12-22T16:48:14Z</time>
      </trkpt>
      <trkpt lat="44.11505" lon="5.70955">
        <ele>1088.53</ele>
        <time>2018-12-22T16:48:23Z</time>
      </trkpt>
      <trkpt lat="44.11503" lon="5.70948">
        <ele>1088.418</ele>
        <time>2018-12-22T16:48:26Z</time>
      </trkpt>
      <trkpt lat="44.115" lon="5.70943">
        <ele>1088.699</ele>
        <time>2018-12-22T16:48:31Z</time>
      </trkpt>
      <trkpt lat="44.11495" lon="5.70938">
        <ele>1088.069</ele>
        <time>2018-12-22T16:48:40Z</time>
      </trkpt>
      <trkpt lat="44.11491" lon="5.70935">
        <ele>1086.448</ele>
        <time>2018-12-22T16:48:42Z</time>
      </trkpt>
      <trkpt lat="44.11487" lon="5.70932">
        <ele>1084.744</ele>
        <time>2018-12-22T16:48:44Z</time>
      </trkpt>
      <trkpt lat="44.1148" lon="5.7093">
        <ele>1083.623</ele>
        <time>2018-12-22T16:48:46Z</time>
      </trkpt>
      <trkpt lat="44.11477" lon="5.70922">
        <ele>1082.083</ele>
        <time>2018-12-22T16:48:49Z</time>
      </trkpt>
      <trkpt lat="44.11481" lon="5.70918">
        <ele>1081.411</ele>
        <time>2018-12-22T16:48:52Z</time>
      </trkpt>
      <trkpt lat="44.11489" lon="5.70916">
        <ele>1081.308</ele>
        <time>2018-12-22T16:48:54Z</time>
      </trkpt>
      <trkpt lat="44.11496" lon="5.70914">
        <ele>1083.035</ele>
        <time>2018-12-22T16:48:56Z</time>
      </trkpt>
      <trkpt lat="44.11502" lon="5.70912">
        <ele>1089.993</ele>
        <time>2018-12-22T16:49:03Z</time>
      </trkpt>
      <trkpt lat="44.11501" lon="5.70905">
        <ele>1089.897</ele>
        <time>2018-12-22T16:49:25Z</time>
      </trkpt>
      <trkpt lat="44.11499" lon="5.70896">
        <ele>1089.655</ele>
        <time>2018-12-22T16:49:30Z</time>
      </trkpt>
      <trkpt lat="44.11497" lon="5.70889">
        <ele>1089.676</ele>
        <time>2018-12-22T16:49:31Z</time>
      </trkpt>
      <trkpt lat="44.11495" lon="5.70882">
        <ele>1089.636</ele>
        <time>2018-12-22T16:49:32Z</time>
      </trkpt>
      <trkpt lat="44.11492" lon="5.70875">
        <ele>1089.695</ele>
        <time>2018-12-22T16:49:33Z</time>
      </trkpt>
      <trkpt lat="44.11488" lon="5.70867">
        <ele>1089.611</ele>
        <time>2018-12-22T16:49:34Z</time>
      </trkpt>
      <trkpt lat="44.11485" lon="5.70859">
        <ele>1089.642</ele>
        <time>2018-12-22T16:49:35Z</time>
      </trkpt>
      <trkpt lat="44.11483" lon="5.70852">
        <ele>1089.722</ele>
        <time>2018-12-22T16:49:36Z</time>
      </trkpt>
      <trkpt lat="44.1148" lon="5.70845">
        <ele>1089.914</ele>
        <time>2018-12-22T16:49:37Z</time>
      </trkpt>
      <trkpt lat="44.1148" lon="5.70837">
        <ele>1090.108</ele>
        <time>2018-12-22T16:49:38Z</time>
      </trkpt>
      <trkpt lat="44.11478" lon="5.7083">
        <ele>1090.477</ele>
        <time>2018-12-22T16:49:39Z</time>
      </trkpt>
      <trkpt lat="44.11478" lon="5.70821">
        <ele>1090.985</ele>
        <time>2018-12-22T16:49:41Z</time>
      </trkpt>
      <trkpt lat="44.11473" lon="5.70821">
        <ele>1092.529</ele>
        <time>2018-12-22T16:49:52Z</time>
      </trkpt>
      <trkpt lat="44.11471" lon="5.70815">
        <ele>1092.477</ele>
        <time>2018-12-22T16:49:59Z</time>
      </trkpt>
      <trkpt lat="44.11477" lon="5.70818">
        <ele>1092.398</ele>
        <time>2018-12-22T16:50:10Z</time>
      </trkpt>
      <trkpt lat="44.1148" lon="5.70827">
        <ele>1091.098</ele>
        <time>2018-12-22T16:50:12Z</time>
      </trkpt>
      <trkpt lat="44.11482" lon="5.70833">
        <ele>1090.237</ele>
        <time>2018-12-22T16:50:13Z</time>
      </trkpt>
      <trkpt lat="44.11483" lon="5.7084">
        <ele>1089.443</ele>
        <time>2018-12-22T16:50:14Z</time>
      </trkpt>
      <trkpt lat="44.11485" lon="5.70847">
        <ele>1088.996</ele>
        <time>2018-12-22T16:50:15Z</time>
      </trkpt>
      <trkpt lat="44.11489" lon="5.70854">
        <ele>1088.931</ele>
        <time>2018-12-22T16:50:16Z</time>
      </trkpt>
      <trkpt lat="44.11489" lon="5.70864">
        <ele>1089.624</ele>
        <time>2018-12-22T16:50:18Z</time>
      </trkpt>
      <trkpt lat="44.11489" lon="5.70875">
        <ele>1090.308</ele>
        <time>2018-12-22T16:50:20Z</time>
      </trkpt>
      <trkpt lat="44.11488" lon="5.70884">
        <ele>1090.262</ele>
        <time>2018-12-22T16:50:22Z</time>
      </trkpt>
      <trkpt lat="44.11489" lon="5.7089">
        <ele>1090.15</ele>
        <time>2018-12-22T16:50:24Z</time>
      </trkpt>
      <trkpt lat="44.1149" lon="5.70897">
        <ele>1090.084</ele>
        <time>2018-12-22T16:50:30Z</time>
      </trkpt>
      <trkpt lat="44.11496" lon="5.70908">
        <ele>1089.752</ele>
        <time>2018-12-22T16:50:35Z</time>
      </trkpt>
      <trkpt lat="44.11491" lon="5.70911">
        <ele>1087.323</ele>
        <time>2018-12-22T16:50:38Z</time>
      </trkpt>
      <trkpt lat="44.11484" lon="5.70909">
        <ele>1083.233</ele>
        <time>2018-12-22T16:50:40Z</time>
      </trkpt>
      <trkpt lat="44.11477" lon="5.70906">
        <ele>1079.972</ele>
        <time>2018-12-22T16:50:42Z</time>
      </trkpt>
      <trkpt lat="44.11472" lon="5.70905">
        <ele>1079.048</ele>
        <time>2018-12-22T16:50:43Z</time>
      </trkpt>
      <trkpt lat="44.11468" lon="5.709">
        <ele>1078.741</ele>
        <time>2018-12-22T16:50:44Z</time>
      </trkpt>
      <trkpt lat="44.11463" lon="5.70894">
        <ele>1078.481</ele>
        <time>2018-12-22T16:50:45Z</time>
      </trkpt>
      <trkpt lat="44.11459" lon="5.70888">
        <ele>1078.109</ele>
        <time>2018-12-22T16:50:46Z</time>
      </trkpt>
      <trkpt lat="44.11456" lon="5.70883">
        <ele>1077.608</ele>
        <time>2018-12-22T16:50:47Z</time>
      </trkpt>
      <trkpt lat="44.11454" lon="5.70876">
        <ele>1077.097</ele>
        <time>2018-12-22T16:50:48Z</time>
      </trkpt>
      <trkpt lat="44.11452" lon="5.70869">
        <ele>1075.985</ele>
        <time>2018-12-22T16:50:49Z</time>
      </trkpt>
      <trkpt lat="44.1145" lon="5.70863">
        <ele>1075.249</ele>
        <time>2018-12-22T16:50:50Z</time>
      </trkpt>
      <trkpt lat="44.11447" lon="5.70857">
        <ele>1074.797</ele>
        <time>2018-12-22T16:50:51Z</time>
      </trkpt>
      <trkpt lat="44.11444" lon="5.70851">
        <ele>1074.238</ele>
        <time>2018-12-22T16:50:52Z</time>
      </trkpt>
      <trkpt lat="44.11441" lon="5.70846">
        <ele>1073.998</ele>
        <time>2018-12-22T16:50:53Z</time>
      </trkpt>
      <trkpt lat="44.11438" lon="5.7084">
        <ele>1073.517</ele>
        <time>2018-12-22T16:50:54Z</time>
      </trkpt>
      <trkpt lat="44.11433" lon="5.70831">
        <ele>1072.663</ele>
        <time>2018-12-22T16:50:56Z</time>
      </trkpt>
      <trkpt lat="44.11425" lon="5.70822">
        <ele>1071.116</ele>
        <time>2018-12-22T16:50:58Z</time>
      </trkpt>
      <trkpt lat="44.1142" lon="5.70817">
        <ele>1070.276</ele>
        <time>2018-12-22T16:50:59Z</time>
      </trkpt>
      <trkpt lat="44.11415" lon="5.70811">
        <ele>1069.413</ele>
        <time>2018-12-22T16:51:00Z</time>
      </trkpt>
      <trkpt lat="44.11408" lon="5.70806">
        <ele>1067.608</ele>
        <time>2018-12-22T16:51:01Z</time>
      </trkpt>
      <trkpt lat="44.11401" lon="5.708">
        <ele>1066.794</ele>
        <time>2018-12-22T16:51:02Z</time>
      </trkpt>
      <trkpt lat="44.11394" lon="5.70794">
        <ele>1065.732</ele>
        <time>2018-12-22T16:51:03Z</time>
      </trkpt>
      <trkpt lat="44.11385" lon="5.70788">
        <ele>1064.746</ele>
        <time>2018-12-22T16:51:04Z</time>
      </trkpt>
      <trkpt lat="44.11377" lon="5.70784">
        <ele>1063.534</ele>
        <time>2018-12-22T16:51:05Z</time>
      </trkpt>
      <trkpt lat="44.11368" lon="5.70781">
        <ele>1062.265</ele>
        <time>2018-12-22T16:51:06Z</time>
      </trkpt>
      <trkpt lat="44.11359" lon="5.70778">
        <ele>1061.075</ele>
        <time>2018-12-22T16:51:07Z</time>
      </trkpt>
      <trkpt lat="44.1135" lon="5.70774">
        <ele>1059.634</ele>
        <time>2018-12-22T16:51:08Z</time>
      </trkpt>
      <trkpt lat="44.11341" lon="5.70771">
        <ele>1058.24</ele>
        <time>2018-12-22T16:51:09Z</time>
      </trkpt>
      <trkpt lat="44.11331" lon="5.70768">
        <ele>1057.071</ele>
        <time>2018-12-22T16:51:10Z</time>
      </trkpt>
      <trkpt lat="44.11322" lon="5.70765">
        <ele>1055.941</ele>
        <time>2018-12-22T16:51:11Z</time>
      </trkpt>
      <trkpt lat="44.11314" lon="5.70762">
        <ele>1054.815</ele>
        <time>2018-12-22T16:51:12Z</time>
      </trkpt>
      <trkpt lat="44.11305" lon="5.7076">
        <ele>1052.908</ele>
        <time>2018-12-22T16:51:13Z</time>
      </trkpt>
      <trkpt lat="44.11297" lon="5.70759">
        <ele>1052.05</ele>
        <time>2018-12-22T16:51:14Z</time>
      </trkpt>
      <trkpt lat="44.11288" lon="5.70759">
        <ele>1050.958</ele>
        <time>2018-12-22T16:51:15Z</time>
      </trkpt>
      <trkpt lat="44.11279" lon="5.7076">
        <ele>1049.742</ele>
        <time>2018-12-22T16:51:16Z</time>
      </trkpt>
      <trkpt lat="44.11269" lon="5.7076">
        <ele>1048.62</ele>
        <time>2018-12-22T16:51:17Z</time>
      </trkpt>
      <trkpt lat="44.11259" lon="5.7076">
        <ele>1047.491</ele>
        <time>2018-12-22T16:51:18Z</time>
      </trkpt>
      <trkpt lat="44.11249" lon="5.70761">
        <ele>1046.151</ele>
        <time>2018-12-22T16:51:19Z</time>
      </trkpt>
      <trkpt lat="44.1124" lon="5.70761">
        <ele>1044.42</ele>
        <time>2018-12-22T16:51:20Z</time>
      </trkpt>
      <trkpt lat="44.11231" lon="5.70761">
        <ele>1042.856</ele>
        <time>2018-12-22T16:51:21Z</time>
      </trkpt>
      <trkpt lat="44.11223" lon="5.7076">
        <ele>1041.037</ele>
        <time>2018-12-22T16:51:22Z</time>
      </trkpt>
      <trkpt lat="44.11214" lon="5.70758">
        <ele>1039.649</ele>
        <time>2018-12-22T16:51:23Z</time>
      </trkpt>
      <trkpt lat="44.11206" lon="5.70756">
        <ele>1038.313</ele>
        <time>2018-12-22T16:51:24Z</time>
      </trkpt>
      <trkpt lat="44.11198" lon="5.70755">
        <ele>1037.408</ele>
        <time>2018-12-22T16:51:25Z</time>
      </trkpt>
      <trkpt lat="44.11189" lon="5.70753">
        <ele>1035.556</ele>
        <time>2018-12-22T16:51:26Z</time>
      </trkpt>
      <trkpt lat="44.1118" lon="5.70754">
        <ele>1034.514</ele>
        <time>2018-12-22T16:51:27Z</time>
      </trkpt>
      <trkpt lat="44.11171" lon="5.70756">
        <ele>1033.378</ele>
        <time>2018-12-22T16:51:28Z</time>
      </trkpt>
      <trkpt lat="44.11164" lon="5.70755">
        <ele>1032.516</ele>
        <time>2018-12-22T16:51:29Z</time>
      </trkpt>
      <trkpt lat="44.11157" lon="5.70755">
        <ele>1031.897</ele>
        <time>2018-12-22T16:51:30Z</time>
      </trkpt>
      <trkpt lat="44.1115" lon="5.70755">
        <ele>1031.777</ele>
        <time>2018-12-22T16:51:31Z</time>
      </trkpt>
      <trkpt lat="44.11144" lon="5.70753">
        <ele>1031.376</ele>
        <time>2018-12-22T16:51:32Z</time>
      </trkpt>
      <trkpt lat="44.11137" lon="5.70751">
        <ele>1031.052</ele>
        <time>2018-12-22T16:51:33Z</time>
      </trkpt>
      <trkpt lat="44.11128" lon="5.70747">
        <ele>1030.542</ele>
        <time>2018-12-22T16:51:34Z</time>
      </trkpt>
      <trkpt lat="44.11119" lon="5.70743">
        <ele>1029.922</ele>
        <time>2018-12-22T16:51:35Z</time>
      </trkpt>
      <trkpt lat="44.1111" lon="5.70737">
        <ele>1028.714</ele>
        <time>2018-12-22T16:51:36Z</time>
      </trkpt>
      <trkpt lat="44.11102" lon="5.7073">
        <ele>1027.508</ele>
        <time>2018-12-22T16:51:37Z</time>
      </trkpt>
      <trkpt lat="44.11093" lon="5.70723">
        <ele>1025.087</ele>
        <time>2018-12-22T16:51:38Z</time>
      </trkpt>
      <trkpt lat="44.11084" lon="5.70715">
        <ele>1024.115</ele>
        <time>2018-12-22T16:51:39Z</time>
      </trkpt>
      <trkpt lat="44.11077" lon="5.70708">
        <ele>1023.479</ele>
        <time>2018-12-22T16:51:40Z</time>
      </trkpt>
      <trkpt lat="44.11072" lon="5.70701">
        <ele>1022.787</ele>
        <time>2018-12-22T16:51:41Z</time>
      </trkpt>
      <trkpt lat="44.11067" lon="5.70694">
        <ele>1022.468</ele>
        <time>2018-12-22T16:51:42Z</time>
      </trkpt>
      <trkpt lat="44.11062" lon="5.70687">
        <ele>1021.338</ele>
        <time>2018-12-22T16:51:43Z</time>
      </trkpt>
      <trkpt lat="44.11058" lon="5.70678">
        <ele>1020.397</ele>
        <time>2018-12-22T16:51:44Z</time>
      </trkpt>
      <trkpt lat="44.11053" lon="5.70667">
        <ele>1019.133</ele>
        <time>2018-12-22T16:51:45Z</time>
      </trkpt>
      <trkpt lat="44.11049" lon="5.70655">
        <ele>1018.027</ele>
        <time>2018-12-22T16:51:46Z</time>
      </trkpt>
      <trkpt lat="44.11044" lon="5.70646">
        <ele>1017.068</ele>
        <time>2018-12-22T16:51:47Z</time>
      </trkpt>
      <trkpt lat="44.11039" lon="5.70635">
        <ele>1016.014</ele>
        <time>2018-12-22T16:51:48Z</time>
      </trkpt>
      <trkpt lat="44.11034" lon="5.70621">
        <ele>1015.208</ele>
        <time>2018-12-22T16:51:49Z</time>
      </trkpt>
      <trkpt lat="44.1103" lon="5.7061">
        <ele>1013.975</ele>
        <time>2018-12-22T16:51:50Z</time>
      </trkpt>
      <trkpt lat="44.11025" lon="5.706">
        <ele>1013.113</ele>
        <time>2018-12-22T16:51:51Z</time>
      </trkpt>
      <trkpt lat="44.11019" lon="5.70591">
        <ele>1012.397</ele>
        <time>2018-12-22T16:51:52Z</time>
      </trkpt>
      <trkpt lat="44.11013" lon="5.70583">
        <ele>1011.455</ele>
        <time>2018-12-22T16:51:53Z</time>
      </trkpt>
      <trkpt lat="44.11008" lon="5.70574">
        <ele>1010.536</ele>
        <time>2018-12-22T16:51:54Z</time>
      </trkpt>
      <trkpt lat="44.11002" lon="5.7057">
        <ele>1009.716</ele>
        <time>2018-12-22T16:51:55Z</time>
      </trkpt>
      <trkpt lat="44.10997" lon="5.70565">
        <ele>1009.065</ele>
        <time>2018-12-22T16:51:56Z</time>
      </trkpt>
      <trkpt lat="44.1099" lon="5.70562">
        <ele>1008.031</ele>
        <time>2018-12-22T16:51:58Z</time>
      </trkpt>
      <trkpt lat="44.10984" lon="5.7056">
        <ele>1007.792</ele>
        <time>2018-12-22T16:51:59Z</time>
      </trkpt>
      <trkpt lat="44.10979" lon="5.70555">
        <ele>1007.573</ele>
        <time>2018-12-22T16:52:00Z</time>
      </trkpt>
      <trkpt lat="44.10975" lon="5.7055">
        <ele>1007.42</ele>
        <time>2018-12-22T16:52:01Z</time>
      </trkpt>
      <trkpt lat="44.1097" lon="5.70548">
        <ele>1007.408</ele>
        <time>2018-12-22T16:52:02Z</time>
      </trkpt>
      <trkpt lat="44.10966" lon="5.70546">
        <ele>1007.712</ele>
        <time>2018-12-22T16:52:03Z</time>
      </trkpt>
      <trkpt lat="44.10961" lon="5.70544">
        <ele>1007.92</ele>
        <time>2018-12-22T16:52:04Z</time>
      </trkpt>
      <trkpt lat="44.10956" lon="5.70543">
        <ele>1008.144</ele>
        <time>2018-12-22T16:52:05Z</time>
      </trkpt>
      <trkpt lat="44.10952" lon="5.7054">
        <ele>1008.122</ele>
        <time>2018-12-22T16:52:06Z</time>
      </trkpt>
      <trkpt lat="44.10948" lon="5.70537">
        <ele>1008.133</ele>
        <time>2018-12-22T16:52:07Z</time>
      </trkpt>
      <trkpt lat="44.10943" lon="5.70533">
        <ele>1008.063</ele>
        <time>2018-12-22T16:52:08Z</time>
      </trkpt>
      <trkpt lat="44.10937" lon="5.70529">
        <ele>1007.892</ele>
        <time>2018-12-22T16:52:09Z</time>
      </trkpt>
      <trkpt lat="44.10932" lon="5.70527">
        <ele>1007.788</ele>
        <time>2018-12-22T16:52:10Z</time>
      </trkpt>
      <trkpt lat="44.10923" lon="5.70523">
        <ele>1007.813</ele>
        <time>2018-12-22T16:52:12Z</time>
      </trkpt>
      <trkpt lat="44.10918" lon="5.70528">
        <ele>1008.343</ele>
        <time>2018-12-22T16:52:14Z</time>
      </trkpt>
      <trkpt lat="44.10914" lon="5.70536">
        <ele>1008.807</ele>
        <time>2018-12-22T16:52:16Z</time>
      </trkpt>
      <trkpt lat="44.10911" lon="5.70547">
        <ele>1009.008</ele>
        <time>2018-12-22T16:52:18Z</time>
      </trkpt>
      <trkpt lat="44.10908" lon="5.70553">
        <ele>1009.464</ele>
        <time>2018-12-22T16:52:19Z</time>
      </trkpt>
      <trkpt lat="44.10903" lon="5.70563">
        <ele>1010.212</ele>
        <time>2018-12-22T16:52:21Z</time>
      </trkpt>
      <trkpt lat="44.10894" lon="5.70571">
        <ele>1010.566</ele>
        <time>2018-12-22T16:52:23Z</time>
      </trkpt>
      <trkpt lat="44.10887" lon="5.70573">
        <ele>1010.234</ele>
        <time>2018-12-22T16:52:24Z</time>
      </trkpt>
      <trkpt lat="44.10881" lon="5.70574">
        <ele>1009.545</ele>
        <time>2018-12-22T16:52:25Z</time>
      </trkpt>
      <trkpt lat="44.10874" lon="5.70576">
        <ele>1008.435</ele>
        <time>2018-12-22T16:52:26Z</time>
      </trkpt>
      <trkpt lat="44.10868" lon="5.70574">
        <ele>1005.734</ele>
        <time>2018-12-22T16:52:27Z</time>
      </trkpt>
      <trkpt lat="44.10862" lon="5.70571">
        <ele>1004.44</ele>
        <time>2018-12-22T16:52:28Z</time>
      </trkpt>
      <trkpt lat="44.10858" lon="5.70566">
        <ele>1003.195</ele>
        <time>2018-12-22T16:52:29Z</time>
      </trkpt>
      <trkpt lat="44.10854" lon="5.70562">
        <ele>1002.049</ele>
        <time>2018-12-22T16:52:30Z</time>
      </trkpt>
      <trkpt lat="44.10849" lon="5.70558">
        <ele>1001.123</ele>
        <time>2018-12-22T16:52:31Z</time>
      </trkpt>
      <trkpt lat="44.10844" lon="5.70554">
        <ele>999.908</ele>
        <time>2018-12-22T16:52:33Z</time>
      </trkpt>
      <trkpt lat="44.10839" lon="5.70552">
        <ele>998.712</ele>
        <time>2018-12-22T16:52:36Z</time>
      </trkpt>
      <trkpt lat="44.10833" lon="5.70551">
        <ele>996.41</ele>
        <time>2018-12-22T16:52:39Z</time>
      </trkpt>
      <trkpt lat="44.10829" lon="5.70554">
        <ele>994.784</ele>
        <time>2018-12-22T16:52:42Z</time>
      </trkpt>
      <trkpt lat="44.10826" lon="5.7056">
        <ele>992.732</ele>
        <time>2018-12-22T16:52:48Z</time>
      </trkpt>
      <trkpt lat="44.10823" lon="5.70564">
        <ele>990.533</ele>
        <time>2018-12-22T16:52:51Z</time>
      </trkpt>
      <trkpt lat="44.10816" lon="5.70569">
        <ele>987.063</ele>
        <time>2018-12-22T16:52:53Z</time>
      </trkpt>
      <trkpt lat="44.1081" lon="5.70572">
        <ele>984.682</ele>
        <time>2018-12-22T16:52:55Z</time>
      </trkpt>
      <trkpt lat="44.10806" lon="5.70575">
        <ele>982.518</ele>
        <time>2018-12-22T16:52:57Z</time>
      </trkpt>
      <trkpt lat="44.108" lon="5.70575">
        <ele>981.019</ele>
        <time>2018-12-22T16:52:59Z</time>
      </trkpt>
      <trkpt lat="44.10795" lon="5.70575">
        <ele>980.209</ele>
        <time>2018-12-22T16:53:00Z</time>
      </trkpt>
      <trkpt lat="44.1079" lon="5.70575">
        <ele>979.419</ele>
        <time>2018-12-22T16:53:01Z</time>
      </trkpt>
      <trkpt lat="44.10783" lon="5.70573">
        <ele>978.508</ele>
        <time>2018-12-22T16:53:02Z</time>
      </trkpt>
      <trkpt lat="44.10776" lon="5.70571">
        <ele>977.594</ele>
        <time>2018-12-22T16:53:03Z</time>
      </trkpt>
      <trkpt lat="44.10771" lon="5.70566">
        <ele>975.632</ele>
        <time>2018-12-22T16:53:04Z</time>
      </trkpt>
      <trkpt lat="44.10766" lon="5.70561">
        <ele>974.666</ele>
        <time>2018-12-22T16:53:05Z</time>
      </trkpt>
      <trkpt lat="44.10761" lon="5.70555">
        <ele>973.684</ele>
        <time>2018-12-22T16:53:06Z</time>
      </trkpt>
      <trkpt lat="44.10754" lon="5.7055">
        <ele>972.565</ele>
        <time>2018-12-22T16:53:07Z</time>
      </trkpt>
      <trkpt lat="44.10747" lon="5.70544">
        <ele>971.295</ele>
        <time>2018-12-22T16:53:08Z</time>
      </trkpt>
      <trkpt lat="44.1074" lon="5.70539">
        <ele>969.724</ele>
        <time>2018-12-22T16:53:09Z</time>
      </trkpt>
      <trkpt lat="44.10734" lon="5.70536">
        <ele>968.23</ele>
        <time>2018-12-22T16:53:10Z</time>
      </trkpt>
      <trkpt lat="44.1073" lon="5.70536">
        <ele>967.089</ele>
        <time>2018-12-22T16:53:11Z</time>
      </trkpt>
      <trkpt lat="44.10725" lon="5.70535">
        <ele>965.806</ele>
        <time>2018-12-22T16:53:12Z</time>
      </trkpt>
      <trkpt lat="44.1072" lon="5.70536">
        <ele>964.626</ele>
        <time>2018-12-22T16:53:13Z</time>
      </trkpt>
      <trkpt lat="44.10717" lon="5.70542">
        <ele>963.908</ele>
        <time>2018-12-22T16:53:14Z</time>
      </trkpt>
      <trkpt lat="44.10712" lon="5.70546">
        <ele>963.561</ele>
        <time>2018-12-22T16:53:15Z</time>
      </trkpt>
      <trkpt lat="44.10707" lon="5.7055">
        <ele>962.959</ele>
        <time>2018-12-22T16:53:16Z</time>
      </trkpt>
      <trkpt lat="44.10698" lon="5.70552">
        <ele>962.363</ele>
        <time>2018-12-22T16:53:18Z</time>
      </trkpt>
      <trkpt lat="44.10692" lon="5.70551">
        <ele>961.571</ele>
        <time>2018-12-22T16:53:19Z</time>
      </trkpt>
      <trkpt lat="44.10685" lon="5.7055">
        <ele>960.662</ele>
        <time>2018-12-22T16:53:20Z</time>
      </trkpt>
      <trkpt lat="44.10678" lon="5.70547">
        <ele>959.682</ele>
        <time>2018-12-22T16:53:21Z</time>
      </trkpt>
      <trkpt lat="44.10671" lon="5.70544">
        <ele>958.551</ele>
        <time>2018-12-22T16:53:22Z</time>
      </trkpt>
      <trkpt lat="44.10665" lon="5.70542">
        <ele>957.447</ele>
        <time>2018-12-22T16:53:23Z</time>
      </trkpt>
      <trkpt lat="44.10658" lon="5.7054">
        <ele>956.379</ele>
        <time>2018-12-22T16:53:24Z</time>
      </trkpt>
      <trkpt lat="44.10652" lon="5.70539">
        <ele>955.705</ele>
        <time>2018-12-22T16:53:25Z</time>
      </trkpt>
      <trkpt lat="44.10644" lon="5.70538">
        <ele>955.725</ele>
        <time>2018-12-22T16:53:26Z</time>
      </trkpt>
      <trkpt lat="44.10638" lon="5.70535">
        <ele>956.408</ele>
        <time>2018-12-22T16:53:27Z</time>
      </trkpt>
      <trkpt lat="44.10631" lon="5.70531">
        <ele>958.39</ele>
        <time>2018-12-22T16:53:28Z</time>
      </trkpt>
      <trkpt lat="44.10625" lon="5.70528">
        <ele>958.818</ele>
        <time>2018-12-22T16:53:29Z</time>
      </trkpt>
      <trkpt lat="44.10618" lon="5.70526">
        <ele>958.882</ele>
        <time>2018-12-22T16:53:30Z</time>
      </trkpt>
      <trkpt lat="44.1061" lon="5.70523">
        <ele>957.95</ele>
        <time>2018-12-22T16:53:31Z</time>
      </trkpt>
      <trkpt lat="44.10602" lon="5.70518">
        <ele>957.081</ele>
        <time>2018-12-22T16:53:32Z</time>
      </trkpt>
      <trkpt lat="44.10594" lon="5.70514">
        <ele>956.151</ele>
        <time>2018-12-22T16:53:33Z</time>
      </trkpt>
      <trkpt lat="44.10586" lon="5.7051">
        <ele>955.07</ele>
        <time>2018-12-22T16:53:34Z</time>
      </trkpt>
      <trkpt lat="44.10579" lon="5.70506">
        <ele>954.036</ele>
        <time>2018-12-22T16:53:35Z</time>
      </trkpt>
      <trkpt lat="44.10572" lon="5.70504">
        <ele>953.466</ele>
        <time>2018-12-22T16:53:36Z</time>
      </trkpt>
      <trkpt lat="44.10565" lon="5.70502">
        <ele>952.929</ele>
        <time>2018-12-22T16:53:37Z</time>
      </trkpt>
      <trkpt lat="44.1056" lon="5.705">
        <ele>952.421</ele>
        <time>2018-12-22T16:53:38Z</time>
      </trkpt>
      <trkpt lat="44.10553" lon="5.70499">
        <ele>952.208</ele>
        <time>2018-12-22T16:53:40Z</time>
      </trkpt>
      <trkpt lat="44.1055" lon="5.70504">
        <ele>951.469</ele>
        <time>2018-12-22T16:53:44Z</time>
      </trkpt>
      <trkpt lat="44.10545" lon="5.70506">
        <ele>951.727</ele>
        <time>2018-12-22T16:53:53Z</time>
      </trkpt>
      <trkpt lat="44.10545" lon="5.70514">
        <ele>950.541</ele>
        <time>2018-12-22T16:53:58Z</time>
      </trkpt>
      <trkpt lat="44.10537" lon="5.70518">
        <ele>950.649</ele>
        <time>2018-12-22T16:53:59Z</time>
      </trkpt>
      <trkpt lat="44.10527" lon="5.70522">
        <ele>950.78</ele>
        <time>2018-12-22T16:54:00Z</time>
      </trkpt>
      <trkpt lat="44.10515" lon="5.70522">
        <ele>950.76</ele>
        <time>2018-12-22T16:54:01Z</time>
      </trkpt>
      <trkpt lat="44.10502" lon="5.70523">
        <ele>951.359</ele>
        <time>2018-12-22T16:54:02Z</time>
      </trkpt>
      <trkpt lat="44.10488" lon="5.70526">
        <ele>951.625</ele>
        <time>2018-12-22T16:54:03Z</time>
      </trkpt>
      <trkpt lat="44.10476" lon="5.70528">
        <ele>952.736</ele>
        <time>2018-12-22T16:54:04Z</time>
      </trkpt>
      <trkpt lat="44.10463" lon="5.70528">
        <ele>955.617</ele>
        <time>2018-12-22T16:54:05Z</time>
      </trkpt>
      <trkpt lat="44.10451" lon="5.7053">
        <ele>957.918</ele>
        <time>2018-12-22T16:54:06Z</time>
      </trkpt>
      <trkpt lat="44.10441" lon="5.70534">
        <ele>959.908</ele>
        <time>2018-12-22T16:54:07Z</time>
      </trkpt>
      <trkpt lat="44.10432" lon="5.70538">
        <ele>961.756</ele>
        <time>2018-12-22T16:54:08Z</time>
      </trkpt>
      <trkpt lat="44.10424" lon="5.70544">
        <ele>963.534</ele>
        <time>2018-12-22T16:54:09Z</time>
      </trkpt>
      <trkpt lat="44.10416" lon="5.70549">
        <ele>965.688</ele>
        <time>2018-12-22T16:54:10Z</time>
      </trkpt>
      <trkpt lat="44.1041" lon="5.70554">
        <ele>967.156</ele>
        <time>2018-12-22T16:54:11Z</time>
      </trkpt>
      <trkpt lat="44.10403" lon="5.70558">
        <ele>968.677</ele>
        <time>2018-12-22T16:54:12Z</time>
      </trkpt>
      <trkpt lat="44.10396" lon="5.70562">
        <ele>970.027</ele>
        <time>2018-12-22T16:54:13Z</time>
      </trkpt>
      <trkpt lat="44.10389" lon="5.70565">
        <ele>971.016</ele>
        <time>2018-12-22T16:54:14Z</time>
      </trkpt>
      <trkpt lat="44.10384" lon="5.70568">
        <ele>971.812</ele>
        <time>2018-12-22T16:54:15Z</time>
      </trkpt>
      <trkpt lat="44.1038" lon="5.70567">
        <ele>972.181</ele>
        <time>2018-12-22T16:54:17Z</time>
      </trkpt>
      <trkpt lat="44.10375" lon="5.70564">
        <ele>973.161</ele>
        <time>2018-12-22T16:54:19Z</time>
      </trkpt>
      <trkpt lat="44.1037" lon="5.70558">
        <ele>973.917</ele>
        <time>2018-12-22T16:54:21Z</time>
      </trkpt>
      <trkpt lat="44.10371" lon="5.70566">
        <ele>974.308</ele>
        <time>2018-12-22T16:54:27Z</time>
      </trkpt>
      <trkpt lat="44.10375" lon="5.70569">
        <ele>974.511</ele>
        <time>2018-12-22T16:54:30Z</time>
      </trkpt>
      <trkpt lat="44.1038" lon="5.70568">
        <ele>972.449</ele>
        <time>2018-12-22T16:54:34Z</time>
      </trkpt>
      <trkpt lat="44.10375" lon="5.70566">
        <ele>974.023</ele>
        <time>2018-12-22T16:54:46Z</time>
      </trkpt>
      <trkpt lat="44.10371" lon="5.70568">
        <ele>973.581</ele>
        <time>2018-12-22T16:54:52Z</time>
      </trkpt>
      <trkpt lat="44.10369" lon="5.70574">
        <ele>973.972</ele>
        <time>2018-12-22T16:54:55Z</time>
      </trkpt>
      <trkpt lat="44.10372" lon="5.70581">
        <ele>973.862</ele>
        <time>2018-12-22T16:54:58Z</time>
      </trkpt>
      <trkpt lat="44.10381" lon="5.7058">
        <ele>973.471</ele>
        <time>2018-12-22T16:55:00Z</time>
      </trkpt>
      <trkpt lat="44.10387" lon="5.70578">
        <ele>973.157</ele>
        <time>2018-12-22T16:55:01Z</time>
      </trkpt>
      <trkpt lat="44.10391" lon="5.70576">
        <ele>972.697</ele>
        <time>2018-12-22T16:55:02Z</time>
      </trkpt>
      <trkpt lat="44.10396" lon="5.70572">
        <ele>972.023</ele>
        <time>2018-12-22T16:55:03Z</time>
      </trkpt>
      <trkpt lat="44.10402" lon="5.70567">
        <ele>971.325</ele>
        <time>2018-12-22T16:55:04Z</time>
      </trkpt>
      <trkpt lat="44.10409" lon="5.70562">
        <ele>970.308</ele>
        <time>2018-12-22T16:55:05Z</time>
      </trkpt>
      <trkpt lat="44.10416" lon="5.70557">
        <ele>969.182</ele>
        <time>2018-12-22T16:55:06Z</time>
      </trkpt>
      <trkpt lat="44.10423" lon="5.70553">
        <ele>966.38</ele>
        <time>2018-12-22T16:55:07Z</time>
      </trkpt>
      <trkpt lat="44.10429" lon="5.70549">
        <ele>964.474</ele>
        <time>2018-12-22T16:55:08Z</time>
      </trkpt>
      <trkpt lat="44.10436" lon="5.70547">
        <ele>962.462</ele>
        <time>2018-12-22T16:55:09Z</time>
      </trkpt>
      <trkpt lat="44.10443" lon="5.70546">
        <ele>961.093</ele>
        <time>2018-12-22T16:55:10Z</time>
      </trkpt>
      <trkpt lat="44.1045" lon="5.70545">
        <ele>959.763</ele>
        <time>2018-12-22T16:55:11Z</time>
      </trkpt>
      <trkpt lat="44.10459" lon="5.70544">
        <ele>958.732</ele>
        <time>2018-12-22T16:55:12Z</time>
      </trkpt>
      <trkpt lat="44.10468" lon="5.70543">
        <ele>957.688</ele>
        <time>2018-12-22T16:55:13Z</time>
      </trkpt>
      <trkpt lat="44.10476" lon="5.70543">
        <ele>956.848</ele>
        <time>2018-12-22T16:55:14Z</time>
      </trkpt>
      <trkpt lat="44.10486" lon="5.70541">
        <ele>955.561</ele>
        <time>2018-12-22T16:55:15Z</time>
      </trkpt>
      <trkpt lat="44.10495" lon="5.70541">
        <ele>954.317</ele>
        <time>2018-12-22T16:55:16Z</time>
      </trkpt>
      <trkpt lat="44.10505" lon="5.70539">
        <ele>952.808</ele>
        <time>2018-12-22T16:55:17Z</time>
      </trkpt>
      <trkpt lat="44.10513" lon="5.70538">
        <ele>951.877</ele>
        <time>2018-12-22T16:55:18Z</time>
      </trkpt>
      <trkpt lat="44.10521" lon="5.70535">
        <ele>951.815</ele>
        <time>2018-12-22T16:55:19Z</time>
      </trkpt>
      <trkpt lat="44.10525" lon="5.70532">
        <ele>951.889</ele>
        <time>2018-12-22T16:55:20Z</time>
      </trkpt>
      <trkpt lat="44.10527" lon="5.70526">
        <ele>951.617</ele>
        <time>2018-12-22T16:55:21Z</time>
      </trkpt>
      <trkpt lat="44.10525" lon="5.70516">
        <ele>950.248</ele>
        <time>2018-12-22T16:55:23Z</time>
      </trkpt>
      <trkpt lat="44.1052" lon="5.70511">
        <ele>948.938</ele>
        <time>2018-12-22T16:55:24Z</time>
      </trkpt>
      <trkpt lat="44.10512" lon="5.70507">
        <ele>947.527</ele>
        <time>2018-12-22T16:55:25Z</time>
      </trkpt>
      <trkpt lat="44.10507" lon="5.70503">
        <ele>946.443</ele>
        <time>2018-12-22T16:55:26Z</time>
      </trkpt>
      <trkpt lat="44.105" lon="5.70498">
        <ele>945.288</ele>
        <time>2018-12-22T16:55:27Z</time>
      </trkpt>
      <trkpt lat="44.1049" lon="5.70492">
        <ele>944.024</ele>
        <time>2018-12-22T16:55:28Z</time>
      </trkpt>
      <trkpt lat="44.1048" lon="5.70487">
        <ele>943.126</ele>
        <time>2018-12-22T16:55:29Z</time>
      </trkpt>
      <trkpt lat="44.1047" lon="5.70484">
        <ele>942.308</ele>
        <time>2018-12-22T16:55:30Z</time>
      </trkpt>
      <trkpt lat="44.10462" lon="5.70483">
        <ele>940.811</ele>
        <time>2018-12-22T16:55:31Z</time>
      </trkpt>
      <trkpt lat="44.10453" lon="5.70485">
        <ele>939.919</ele>
        <time>2018-12-22T16:55:32Z</time>
      </trkpt>
      <trkpt lat="44.10443" lon="5.70489">
        <ele>939.493</ele>
        <time>2018-12-22T16:55:33Z</time>
      </trkpt>
      <trkpt lat="44.10434" lon="5.70493">
        <ele>939.181</ele>
        <time>2018-12-22T16:55:34Z</time>
      </trkpt>
      <trkpt lat="44.10425" lon="5.70496">
        <ele>939.192</ele>
        <time>2018-12-22T16:55:35Z</time>
      </trkpt>
      <trkpt lat="44.10417" lon="5.70499">
        <ele>939.522</ele>
        <time>2018-12-22T16:55:36Z</time>
      </trkpt>
      <trkpt lat="44.10409" lon="5.70502">
        <ele>940.551</ele>
        <time>2018-12-22T16:55:37Z</time>
      </trkpt>
      <trkpt lat="44.10402" lon="5.70504">
        <ele>941.797</ele>
        <time>2018-12-22T16:55:38Z</time>
      </trkpt>
      <trkpt lat="44.10397" lon="5.70506">
        <ele>941.723</ele>
        <time>2018-12-22T16:55:39Z</time>
      </trkpt>
      <trkpt lat="44.10393" lon="5.70507">
        <ele>943.283</ele>
        <time>2018-12-22T16:55:40Z</time>
      </trkpt>
      <trkpt lat="44.10388" lon="5.70509">
        <ele>944.111</ele>
        <time>2018-12-22T16:55:41Z</time>
      </trkpt>
      <trkpt lat="44.10381" lon="5.7051">
        <ele>944.808</ele>
        <time>2018-12-22T16:55:42Z</time>
      </trkpt>
      <trkpt lat="44.10374" lon="5.70513">
        <ele>946.555</ele>
        <time>2018-12-22T16:55:43Z</time>
      </trkpt>
      <trkpt lat="44.10366" lon="5.70514">
        <ele>947.023</ele>
        <time>2018-12-22T16:55:44Z</time>
      </trkpt>
      <trkpt lat="44.10359" lon="5.70513">
        <ele>947.267</ele>
        <time>2018-12-22T16:55:45Z</time>
      </trkpt>
      <trkpt lat="44.10353" lon="5.70513">
        <ele>947.785</ele>
        <time>2018-12-22T16:55:46Z</time>
      </trkpt>
      <trkpt lat="44.10347" lon="5.70512">
        <ele>948.316</ele>
        <time>2018-12-22T16:55:48Z</time>
      </trkpt>
      <trkpt lat="44.10341" lon="5.70513">
        <ele>948.516</ele>
        <time>2018-12-22T16:55:50Z</time>
      </trkpt>
      <trkpt lat="44.10345" lon="5.70509">
        <ele>946.955</ele>
        <time>2018-12-22T16:55:59Z</time>
      </trkpt>
      <trkpt lat="44.10356" lon="5.70505">
        <ele>945.391</ele>
        <time>2018-12-22T16:56:01Z</time>
      </trkpt>
      <trkpt lat="44.10362" lon="5.70502">
        <ele>944.854</ele>
        <time>2018-12-22T16:56:02Z</time>
      </trkpt>
      <trkpt lat="44.10369" lon="5.705">
        <ele>944.856</ele>
        <time>2018-12-22T16:56:03Z</time>
      </trkpt>
      <trkpt lat="44.10376" lon="5.70499">
        <ele>944.711</ele>
        <time>2018-12-22T16:56:04Z</time>
      </trkpt>
      <trkpt lat="44.10384" lon="5.70496">
        <ele>944.708</ele>
        <time>2018-12-22T16:56:05Z</time>
      </trkpt>
      <trkpt lat="44.10391" lon="5.70492">
        <ele>944.668</ele>
        <time>2018-12-22T16:56:06Z</time>
      </trkpt>
      <trkpt lat="44.104" lon="5.70488">
        <ele>943.976</ele>
        <time>2018-12-22T16:56:07Z</time>
      </trkpt>
      <trkpt lat="44.10408" lon="5.70484">
        <ele>941.67</ele>
        <time>2018-12-22T16:56:08Z</time>
      </trkpt>
      <trkpt lat="44.10416" lon="5.70481">
        <ele>940.548</ele>
        <time>2018-12-22T16:56:09Z</time>
      </trkpt>
      <trkpt lat="44.10425" lon="5.70478">
        <ele>939.619</ele>
        <time>2018-12-22T16:56:10Z</time>
      </trkpt>
      <trkpt lat="44.10433" lon="5.70476">
        <ele>938.489</ele>
        <time>2018-12-22T16:56:11Z</time>
      </trkpt>
      <trkpt lat="44.10441" lon="5.70473">
        <ele>937.518</ele>
        <time>2018-12-22T16:56:12Z</time>
      </trkpt>
      <trkpt lat="44.10448" lon="5.70469">
        <ele>936.934</ele>
        <time>2018-12-22T16:56:13Z</time>
      </trkpt>
      <trkpt lat="44.10453" lon="5.70463">
        <ele>936.584</ele>
        <time>2018-12-22T16:56:14Z</time>
      </trkpt>
      <trkpt lat="44.10457" lon="5.70457">
        <ele>936.507</ele>
        <time>2018-12-22T16:56:15Z</time>
      </trkpt>
      <trkpt lat="44.10451" lon="5.70446">
        <ele>937.117</ele>
        <time>2018-12-22T16:56:17Z</time>
      </trkpt>
      <trkpt lat="44.10447" lon="5.70443">
        <ele>937.108</ele>
        <time>2018-12-22T16:56:18Z</time>
      </trkpt>
      <trkpt lat="44.10441" lon="5.7044">
        <ele>937.161</ele>
        <time>2018-12-22T16:56:19Z</time>
      </trkpt>
      <trkpt lat="44.10436" lon="5.70435">
        <ele>936.679</ele>
        <time>2018-12-22T16:56:20Z</time>
      </trkpt>
      <trkpt lat="44.10432" lon="5.70431">
        <ele>936.053</ele>
        <time>2018-12-22T16:56:21Z</time>
      </trkpt>
      <trkpt lat="44.10427" lon="5.70428">
        <ele>935.351</ele>
        <time>2018-12-22T16:56:22Z</time>
      </trkpt>
      <trkpt lat="44.10421" lon="5.70423">
        <ele>934.652</ele>
        <time>2018-12-22T16:56:23Z</time>
      </trkpt>
      <trkpt lat="44.10414" lon="5.70419">
        <ele>933.882</ele>
        <time>2018-12-22T16:56:24Z</time>
      </trkpt>
      <trkpt lat="44.10405" lon="5.70416">
        <ele>932.961</ele>
        <time>2018-12-22T16:56:25Z</time>
      </trkpt>
      <trkpt lat="44.10398" lon="5.7041">
        <ele>931.857</ele>
        <time>2018-12-22T16:56:26Z</time>
      </trkpt>
      <trkpt lat="44.10393" lon="5.704">
        <ele>930.724</ele>
        <time>2018-12-22T16:56:27Z</time>
      </trkpt>
      <trkpt lat="44.10388" lon="5.7039">
        <ele>929.504</ele>
        <time>2018-12-22T16:56:28Z</time>
      </trkpt>
      <trkpt lat="44.10383" lon="5.7038">
        <ele>928.314</ele>
        <time>2018-12-22T16:56:29Z</time>
      </trkpt>
      <trkpt lat="44.10378" lon="5.70371">
        <ele>927.108</ele>
        <time>2018-12-22T16:56:30Z</time>
      </trkpt>
      <trkpt lat="44.10373" lon="5.70363">
        <ele>924.955</ele>
        <time>2018-12-22T16:56:31Z</time>
      </trkpt>
      <trkpt lat="44.10367" lon="5.70354">
        <ele>923.893</ele>
        <time>2018-12-22T16:56:32Z</time>
      </trkpt>
      <trkpt lat="44.10361" lon="5.70347">
        <ele>922.937</ele>
        <time>2018-12-22T16:56:33Z</time>
      </trkpt>
      <trkpt lat="44.10354" lon="5.70342">
        <ele>922.175</ele>
        <time>2018-12-22T16:56:34Z</time>
      </trkpt>
      <trkpt lat="44.10344" lon="5.70337">
        <ele>921.486</ele>
        <time>2018-12-22T16:56:35Z</time>
      </trkpt>
      <trkpt lat="44.10333" lon="5.70332">
        <ele>920.436</ele>
        <time>2018-12-22T16:56:36Z</time>
      </trkpt>
      <trkpt lat="44.10322" lon="5.70328">
        <ele>919.325</ele>
        <time>2018-12-22T16:56:37Z</time>
      </trkpt>
      <trkpt lat="44.10311" lon="5.70324">
        <ele>918.091</ele>
        <time>2018-12-22T16:56:38Z</time>
      </trkpt>
      <trkpt lat="44.10299" lon="5.7032">
        <ele>916.717</ele>
        <time>2018-12-22T16:56:39Z</time>
      </trkpt>
      <trkpt lat="44.10288" lon="5.70315">
        <ele>915.587</ele>
        <time>2018-12-22T16:56:40Z</time>
      </trkpt>
      <trkpt lat="44.10278" lon="5.7031">
        <ele>914.615</ele>
        <time>2018-12-22T16:56:41Z</time>
      </trkpt>
      <trkpt lat="44.10268" lon="5.70306">
        <ele>913.708</ele>
        <time>2018-12-22T16:56:42Z</time>
      </trkpt>
      <trkpt lat="44.10257" lon="5.70302">
        <ele>912.814</ele>
        <time>2018-12-22T16:56:43Z</time>
      </trkpt>
      <trkpt lat="44.10246" lon="5.70299">
        <ele>910.632</ele>
        <time>2018-12-22T16:56:44Z</time>
      </trkpt>
      <trkpt lat="44.10236" lon="5.70298">
        <ele>909.526</ele>
        <time>2018-12-22T16:56:45Z</time>
      </trkpt>
      <trkpt lat="44.10225" lon="5.70296">
        <ele>908.644</ele>
        <time>2018-12-22T16:56:46Z</time>
      </trkpt>
      <trkpt lat="44.10215" lon="5.70296">
        <ele>908.155</ele>
        <time>2018-12-22T16:56:47Z</time>
      </trkpt>
      <trkpt lat="44.10205" lon="5.70298">
        <ele>907.755</ele>
        <time>2018-12-22T16:56:48Z</time>
      </trkpt>
      <trkpt lat="44.10196" lon="5.70301">
        <ele>907.494</ele>
        <time>2018-12-22T16:56:49Z</time>
      </trkpt>
      <trkpt lat="44.10187" lon="5.70306">
        <ele>907.02</ele>
        <time>2018-12-22T16:56:50Z</time>
      </trkpt>
      <trkpt lat="44.10178" lon="5.70312">
        <ele>906.698</ele>
        <time>2018-12-22T16:56:51Z</time>
      </trkpt>
      <trkpt lat="44.10167" lon="5.70322">
        <ele>906.015</ele>
        <time>2018-12-22T16:56:52Z</time>
      </trkpt>
      <trkpt lat="44.10153" lon="5.70328">
        <ele>904.926</ele>
        <time>2018-12-22T16:56:53Z</time>
      </trkpt>
      <trkpt lat="44.1014" lon="5.70334">
        <ele>903.508</ele>
        <time>2018-12-22T16:56:54Z</time>
      </trkpt>
      <trkpt lat="44.10127" lon="5.70338">
        <ele>902.562</ele>
        <time>2018-12-22T16:56:55Z</time>
      </trkpt>
      <trkpt lat="44.10114" lon="5.70343">
        <ele>900.76</ele>
        <time>2018-12-22T16:56:56Z</time>
      </trkpt>
      <trkpt lat="44.10102" lon="5.70346">
        <ele>900.464</ele>
        <time>2018-12-22T16:56:57Z</time>
      </trkpt>
      <trkpt lat="44.10089" lon="5.7035">
        <ele>900.222</ele>
        <time>2018-12-22T16:56:58Z</time>
      </trkpt>
      <trkpt lat="44.10075" lon="5.70353">
        <ele>899.683</ele>
        <time>2018-12-22T16:56:59Z</time>
      </trkpt>
      <trkpt lat="44.10062" lon="5.70353">
        <ele>898.023</ele>
        <time>2018-12-22T16:57:00Z</time>
      </trkpt>
      <trkpt lat="44.10048" lon="5.70352">
        <ele>896.852</ele>
        <time>2018-12-22T16:57:01Z</time>
      </trkpt>
      <trkpt lat="44.10035" lon="5.70348">
        <ele>895.368</ele>
        <time>2018-12-22T16:57:02Z</time>
      </trkpt>
      <trkpt lat="44.10023" lon="5.7034">
        <ele>894.588</ele>
        <time>2018-12-22T16:57:03Z</time>
      </trkpt>
      <trkpt lat="44.10011" lon="5.7033">
        <ele>893.624</ele>
        <time>2018-12-22T16:57:04Z</time>
      </trkpt>
      <trkpt lat="44.09998" lon="5.70321">
        <ele>893.326</ele>
        <time>2018-12-22T16:57:05Z</time>
      </trkpt>
      <trkpt lat="44.09986" lon="5.70312">
        <ele>892.908</ele>
        <time>2018-12-22T16:57:06Z</time>
      </trkpt>
      <trkpt lat="44.09974" lon="5.70304">
        <ele>892.851</ele>
        <time>2018-12-22T16:57:07Z</time>
      </trkpt>
      <trkpt lat="44.09962" lon="5.70296">
        <ele>892.539</ele>
        <time>2018-12-22T16:57:08Z</time>
      </trkpt>
      <trkpt lat="44.0995" lon="5.70289">
        <ele>892.993</ele>
        <time>2018-12-22T16:57:09Z</time>
      </trkpt>
      <trkpt lat="44.09937" lon="5.70285">
        <ele>893.571</ele>
        <time>2018-12-22T16:57:10Z</time>
      </trkpt>
      <trkpt lat="44.09925" lon="5.70282">
        <ele>893.972</ele>
        <time>2018-12-22T16:57:11Z</time>
      </trkpt>
      <trkpt lat="44.09911" lon="5.70282">
        <ele>894.162</ele>
        <time>2018-12-22T16:57:12Z</time>
      </trkpt>
      <trkpt lat="44.09897" lon="5.70282">
        <ele>894.151</ele>
        <time>2018-12-22T16:57:13Z</time>
      </trkpt>
      <trkpt lat="44.09883" lon="5.70284">
        <ele>893.867</ele>
        <time>2018-12-22T16:57:14Z</time>
      </trkpt>
      <trkpt lat="44.09867" lon="5.70286">
        <ele>893.852</ele>
        <time>2018-12-22T16:57:15Z</time>
      </trkpt>
      <trkpt lat="44.09851" lon="5.70289">
        <ele>893.653</ele>
        <time>2018-12-22T16:57:16Z</time>
      </trkpt>
      <trkpt lat="44.09834" lon="5.70291">
        <ele>893.408</ele>
        <time>2018-12-22T16:57:17Z</time>
      </trkpt>
      <trkpt lat="44.09816" lon="5.70292">
        <ele>892.808</ele>
        <time>2018-12-22T16:57:18Z</time>
      </trkpt>
      <trkpt lat="44.09798" lon="5.70292">
        <ele>892.138</ele>
        <time>2018-12-22T16:57:19Z</time>
      </trkpt>
      <trkpt lat="44.09781" lon="5.70289">
        <ele>887.966</ele>
        <time>2018-12-22T16:57:20Z</time>
      </trkpt>
      <trkpt lat="44.09764" lon="5.70286">
        <ele>886.33</ele>
        <time>2018-12-22T16:57:21Z</time>
      </trkpt>
      <trkpt lat="44.09749" lon="5.70284">
        <ele>885.868</ele>
        <time>2018-12-22T16:57:22Z</time>
      </trkpt>
      <trkpt lat="44.09733" lon="5.70281">
        <ele>885.829</ele>
        <time>2018-12-22T16:57:23Z</time>
      </trkpt>
      <trkpt lat="44.09718" lon="5.70275">
        <ele>886.239</ele>
        <time>2018-12-22T16:57:24Z</time>
      </trkpt>
      <trkpt lat="44.09704" lon="5.7027">
        <ele>886.798</ele>
        <time>2018-12-22T16:57:25Z</time>
      </trkpt>
      <trkpt lat="44.09689" lon="5.70265">
        <ele>887.054</ele>
        <time>2018-12-22T16:57:26Z</time>
      </trkpt>
      <trkpt lat="44.09674" lon="5.70258">
        <ele>887.014</ele>
        <time>2018-12-22T16:57:27Z</time>
      </trkpt>
      <trkpt lat="44.09659" lon="5.70252">
        <ele>886.554</ele>
        <time>2018-12-22T16:57:28Z</time>
      </trkpt>
      <trkpt lat="44.09644" lon="5.70243">
        <ele>886.509</ele>
        <time>2018-12-22T16:57:29Z</time>
      </trkpt>
      <trkpt lat="44.09631" lon="5.70231">
        <ele>886.608</ele>
        <time>2018-12-22T16:57:30Z</time>
      </trkpt>
      <trkpt lat="44.09618" lon="5.70219">
        <ele>886.694</ele>
        <time>2018-12-22T16:57:31Z</time>
      </trkpt>
      <trkpt lat="44.09605" lon="5.70208">
        <ele>886.062</ele>
        <time>2018-12-22T16:57:32Z</time>
      </trkpt>
      <trkpt lat="44.0959" lon="5.70196">
        <ele>884.726</ele>
        <time>2018-12-22T16:57:33Z</time>
      </trkpt>
      <trkpt lat="44.09569" lon="5.70187">
        <ele>883.374</ele>
        <time>2018-12-22T16:57:34Z</time>
      </trkpt>
      <trkpt lat="44.09553" lon="5.70179">
        <ele>882.365</ele>
        <time>2018-12-22T16:57:35Z</time>
      </trkpt>
      <trkpt lat="44.09536" lon="5.70174">
        <ele>881.085</ele>
        <time>2018-12-22T16:57:36Z</time>
      </trkpt>
      <trkpt lat="44.09519" lon="5.70171">
        <ele>881.034</ele>
        <time>2018-12-22T16:57:37Z</time>
      </trkpt>
      <trkpt lat="44.09501" lon="5.70165">
        <ele>881.49</ele>
        <time>2018-12-22T16:57:38Z</time>
      </trkpt>
      <trkpt lat="44.09481" lon="5.70161">
        <ele>881.786</ele>
        <time>2018-12-22T16:57:39Z</time>
      </trkpt>
      <trkpt lat="44.09463" lon="5.70157">
        <ele>882.16</ele>
        <time>2018-12-22T16:57:40Z</time>
      </trkpt>
      <trkpt lat="44.09445" lon="5.7015">
        <ele>882.726</ele>
        <time>2018-12-22T16:57:41Z</time>
      </trkpt>
      <trkpt lat="44.09429" lon="5.7014">
        <ele>884.208</ele>
        <time>2018-12-22T16:57:42Z</time>
      </trkpt>
      <trkpt lat="44.09414" lon="5.7013">
        <ele>884.291</ele>
        <time>2018-12-22T16:57:43Z</time>
      </trkpt>
      <trkpt lat="44.09398" lon="5.7012">
        <ele>887.889</ele>
        <time>2018-12-22T16:57:44Z</time>
      </trkpt>
      <trkpt lat="44.09383" lon="5.70113">
        <ele>889.613</ele>
        <time>2018-12-22T16:57:45Z</time>
      </trkpt>
      <trkpt lat="44.09366" lon="5.70106">
        <ele>890.791</ele>
        <time>2018-12-22T16:57:46Z</time>
      </trkpt>
      <trkpt lat="44.09348" lon="5.70098">
        <ele>891.842</ele>
        <time>2018-12-22T16:57:47Z</time>
      </trkpt>
      <trkpt lat="44.09328" lon="5.70093">
        <ele>892.282</ele>
        <time>2018-12-22T16:57:48Z</time>
      </trkpt>
      <trkpt lat="44.0931" lon="5.70093">
        <ele>892.381</ele>
        <time>2018-12-22T16:57:49Z</time>
      </trkpt>
      <trkpt lat="44.09294" lon="5.70093">
        <ele>892.617</ele>
        <time>2018-12-22T16:57:50Z</time>
      </trkpt>
      <trkpt lat="44.09279" lon="5.70093">
        <ele>893.235</ele>
        <time>2018-12-22T16:57:51Z</time>
      </trkpt>
      <trkpt lat="44.0926" lon="5.70095">
        <ele>893.786</ele>
        <time>2018-12-22T16:57:52Z</time>
      </trkpt>
      <trkpt lat="44.09243" lon="5.70097">
        <ele>893.714</ele>
        <time>2018-12-22T16:57:53Z</time>
      </trkpt>
      <trkpt lat="44.09226" lon="5.70099">
        <ele>894.008</ele>
        <time>2018-12-22T16:57:54Z</time>
      </trkpt>
      <trkpt lat="44.0921" lon="5.70099">
        <ele>894.036</ele>
        <time>2018-12-22T16:57:55Z</time>
      </trkpt>
      <trkpt lat="44.09194" lon="5.70099">
        <ele>894.054</ele>
        <time>2018-12-22T16:57:56Z</time>
      </trkpt>
      <trkpt lat="44.09177" lon="5.70099">
        <ele>893.378</ele>
        <time>2018-12-22T16:57:57Z</time>
      </trkpt>
      <trkpt lat="44.09157" lon="5.70099">
        <ele>893.256</ele>
        <time>2018-12-22T16:57:58Z</time>
      </trkpt>
      <trkpt lat="44.09137" lon="5.70101">
        <ele>893.187</ele>
        <time>2018-12-22T16:57:59Z</time>
      </trkpt>
      <trkpt lat="44.09115" lon="5.70102">
        <ele>892.057</ele>
        <time>2018-12-22T16:58:00Z</time>
      </trkpt>
      <trkpt lat="44.09099" lon="5.70106">
        <ele>891.946</ele>
        <time>2018-12-22T16:58:01Z</time>
      </trkpt>
      <trkpt lat="44.09082" lon="5.70108">
        <ele>891.962</ele>
        <time>2018-12-22T16:58:02Z</time>
      </trkpt>
      <trkpt lat="44.09068" lon="5.70109">
        <ele>892.487</ele>
        <time>2018-12-22T16:58:03Z</time>
      </trkpt>
      <trkpt lat="44.09058" lon="5.70109">
        <ele>893.942</ele>
        <time>2018-12-22T16:58:04Z</time>
      </trkpt>
      <trkpt lat="44.09052" lon="5.70111">
        <ele>896.226</ele>
        <time>2018-12-22T16:58:05Z</time>
      </trkpt>
      <trkpt lat="44.09045" lon="5.70113">
        <ele>898.208</ele>
        <time>2018-12-22T16:58:06Z</time>
      </trkpt>
      <trkpt lat="44.09049" lon="5.70105">
        <ele>902.191</ele>
        <time>2018-12-22T16:58:11Z</time>
      </trkpt>
      <trkpt lat="44.09052" lon="5.70101">
        <ele>902.079</ele>
        <time>2018-12-22T16:58:26Z</time>
      </trkpt>
      <trkpt lat="44.09049" lon="5.70109">
        <ele>902.343</ele>
        <time>2018-12-22T16:58:36Z</time>
      </trkpt>
      <trkpt lat="44.09043" lon="5.70107">
        <ele>902.421</ele>
        <time>2018-12-22T16:58:38Z</time>
      </trkpt>
      <trkpt lat="44.09037" lon="5.70103">
        <ele>902.082</ele>
        <time>2018-12-22T16:58:41Z</time>
      </trkpt>
      <trkpt lat="44.09026" lon="5.70103">
        <ele>901.872</ele>
        <time>2018-12-22T16:58:43Z</time>
      </trkpt>
      <trkpt lat="44.0902" lon="5.70101">
        <ele>901.721</ele>
        <time>2018-12-22T16:58:44Z</time>
      </trkpt>
      <trkpt lat="44.09014" lon="5.70101">
        <ele>901.787</ele>
        <time>2018-12-22T16:58:45Z</time>
      </trkpt>
      <trkpt lat="44.09008" lon="5.70101">
        <ele>901.498</ele>
        <time>2018-12-22T16:58:46Z</time>
      </trkpt>
      <trkpt lat="44.09002" lon="5.70101">
        <ele>901.215</ele>
        <time>2018-12-22T16:58:47Z</time>
      </trkpt>
      <trkpt lat="44.08995" lon="5.70102">
        <ele>901.026</ele>
        <time>2018-12-22T16:58:49Z</time>
      </trkpt>
      <trkpt lat="44.08991" lon="5.70106">
        <ele>901.008</ele>
        <time>2018-12-22T16:59:00Z</time>
      </trkpt>
      <trkpt lat="44.08996" lon="5.70104">
        <ele>900.662</ele>
        <time>2018-12-22T16:59:05Z</time>
      </trkpt>
      <trkpt lat="44.09004" lon="5.70102">
        <ele>899.76</ele>
        <time>2018-12-22T16:59:08Z</time>
      </trkpt>
      <trkpt lat="44.09011" lon="5.701">
        <ele>898.644</ele>
        <time>2018-12-22T16:59:09Z</time>
      </trkpt>
      <trkpt lat="44.0902" lon="5.70104">
        <ele>898.452</ele>
        <time>2018-12-22T16:59:10Z</time>
      </trkpt>
      <trkpt lat="44.09029" lon="5.70108">
        <ele>898.433</ele>
        <time>2018-12-22T16:59:11Z</time>
      </trkpt>
      <trkpt lat="44.09034" lon="5.70113">
        <ele>898.543</ele>
        <time>2018-12-22T16:59:12Z</time>
      </trkpt>
      <trkpt lat="44.09036" lon="5.70119">
        <ele>899.282</ele>
        <time>2018-12-22T16:59:13Z</time>
      </trkpt>
      <trkpt lat="44.09039" lon="5.70125">
        <ele>900.268</ele>
        <time>2018-12-22T16:59:14Z</time>
      </trkpt>
      <trkpt lat="44.09041" lon="5.70133">
        <ele>901.254</ele>
        <time>2018-12-22T16:59:15Z</time>
      </trkpt>
      <trkpt lat="44.09042" lon="5.70144">
        <ele>902.056</ele>
        <time>2018-12-22T16:59:16Z</time>
      </trkpt>
      <trkpt lat="44.09043" lon="5.70155">
        <ele>902.811</ele>
        <time>2018-12-22T16:59:17Z</time>
      </trkpt>
      <trkpt lat="44.09044" lon="5.70168">
        <ele>903.408</ele>
        <time>2018-12-22T16:59:18Z</time>
      </trkpt>
      <trkpt lat="44.09045" lon="5.70181">
        <ele>904.048</ele>
        <time>2018-12-22T16:59:19Z</time>
      </trkpt>
      <trkpt lat="44.09046" lon="5.70192">
        <ele>904.836</ele>
        <time>2018-12-22T16:59:20Z</time>
      </trkpt>
      <trkpt lat="44.09046" lon="5.70201">
        <ele>906.09</ele>
        <time>2018-12-22T16:59:21Z</time>
      </trkpt>
      <trkpt lat="44.09046" lon="5.7021">
        <ele>907.318</ele>
        <time>2018-12-22T16:59:22Z</time>
      </trkpt>
      <trkpt lat="44.09046" lon="5.70218">
        <ele>910.269</ele>
        <time>2018-12-22T16:59:23Z</time>
      </trkpt>
      <trkpt lat="44.09046" lon="5.70226">
        <ele>911.739</ele>
        <time>2018-12-22T16:59:24Z</time>
      </trkpt>
      <trkpt lat="44.09047" lon="5.70233">
        <ele>912.578</ele>
        <time>2018-12-22T16:59:25Z</time>
      </trkpt>
      <trkpt lat="44.09048" lon="5.70246">
        <ele>914.084</ele>
        <time>2018-12-22T16:59:27Z</time>
      </trkpt>
      <trkpt lat="44.09051" lon="5.70253">
        <ele>914.447</ele>
        <time>2018-12-22T16:59:28Z</time>
      </trkpt>
      <trkpt lat="44.09057" lon="5.70257">
        <ele>914.429</ele>
        <time>2018-12-22T16:59:29Z</time>
      </trkpt>
      <trkpt lat="44.09064" lon="5.70261">
        <ele>914.321</ele>
        <time>2018-12-22T16:59:30Z</time>
      </trkpt>
      <trkpt lat="44.09071" lon="5.70269">
        <ele>913.908</ele>
        <time>2018-12-22T16:59:31Z</time>
      </trkpt>
      <trkpt lat="44.09078" lon="5.70277">
        <ele>913.917</ele>
        <time>2018-12-22T16:59:32Z</time>
      </trkpt>
      <trkpt lat="44.09085" lon="5.70287">
        <ele>914.215</ele>
        <time>2018-12-22T16:59:33Z</time>
      </trkpt>
      <trkpt lat="44.09091" lon="5.70297">
        <ele>915.579</ele>
        <time>2018-12-22T16:59:34Z</time>
      </trkpt>
      <trkpt lat="44.09098" lon="5.70306">
        <ele>916.877</ele>
        <time>2018-12-22T16:59:35Z</time>
      </trkpt>
      <trkpt lat="44.09103" lon="5.70315">
        <ele>917.918</ele>
        <time>2018-12-22T16:59:36Z</time>
      </trkpt>
      <trkpt lat="44.09111" lon="5.70323">
        <ele>920.298</ele>
        <time>2018-12-22T16:59:38Z</time>
      </trkpt>
      <trkpt lat="44.09114" lon="5.7033">
        <ele>921.377</ele>
        <time>2018-12-22T16:59:39Z</time>
      </trkpt>
      <trkpt lat="44.09115" lon="5.7034">
        <ele>922.633</ele>
        <time>2018-12-22T16:59:40Z</time>
      </trkpt>
      <trkpt lat="44.09115" lon="5.70352">
        <ele>923.778</ele>
        <time>2018-12-22T16:59:41Z</time>
      </trkpt>
      <trkpt lat="44.09116" lon="5.70365">
        <ele>924.433</ele>
        <time>2018-12-22T16:59:42Z</time>
      </trkpt>
      <trkpt lat="44.09116" lon="5.70377">
        <ele>924.526</ele>
        <time>2018-12-22T16:59:43Z</time>
      </trkpt>
      <trkpt lat="44.09115" lon="5.70389">
        <ele>924.708</ele>
        <time>2018-12-22T16:59:44Z</time>
      </trkpt>
      <trkpt lat="44.09114" lon="5.70402">
        <ele>924.74</ele>
        <time>2018-12-22T16:59:45Z</time>
      </trkpt>
      <trkpt lat="44.09112" lon="5.70414">
        <ele>924.558</ele>
        <time>2018-12-22T16:59:46Z</time>
      </trkpt>
      <trkpt lat="44.09109" lon="5.70425">
        <ele>924.032</ele>
        <time>2018-12-22T16:59:47Z</time>
      </trkpt>
      <trkpt lat="44.09102" lon="5.70435">
        <ele>923.87</ele>
        <time>2018-12-22T16:59:48Z</time>
      </trkpt>
      <trkpt lat="44.09093" lon="5.70443">
        <ele>923.561</ele>
        <time>2018-12-22T16:59:49Z</time>
      </trkpt>
      <trkpt lat="44.09084" lon="5.70448">
        <ele>923.571</ele>
        <time>2018-12-22T16:59:50Z</time>
      </trkpt>
      <trkpt lat="44.09076" lon="5.70456">
        <ele>923.56</ele>
        <time>2018-12-22T16:59:51Z</time>
      </trkpt>
      <trkpt lat="44.09069" lon="5.70464">
        <ele>923.546</ele>
        <time>2018-12-22T16:59:52Z</time>
      </trkpt>
      <trkpt lat="44.09062" lon="5.70476">
        <ele>923.337</ele>
        <time>2018-12-22T16:59:53Z</time>
      </trkpt>
      <trkpt lat="44.09057" lon="5.7049">
        <ele>923.149</ele>
        <time>2018-12-22T16:59:54Z</time>
      </trkpt>
      <trkpt lat="44.09053" lon="5.70503">
        <ele>923.013</ele>
        <time>2018-12-22T16:59:55Z</time>
      </trkpt>
      <trkpt lat="44.09048" lon="5.70518">
        <ele>922.708</ele>
        <time>2018-12-22T16:59:56Z</time>
      </trkpt>
      <trkpt lat="44.09042" lon="5.70532">
        <ele>922.446</ele>
        <time>2018-12-22T16:59:57Z</time>
      </trkpt>
      <trkpt lat="44.09034" lon="5.70545">
        <ele>922.264</ele>
        <time>2018-12-22T16:59:58Z</time>
      </trkpt>
      <trkpt lat="44.09025" lon="5.70556">
        <ele>922.298</ele>
        <time>2018-12-22T16:59:59Z</time>
      </trkpt>
      <trkpt lat="44.09013" lon="5.70567">
        <ele>922.266</ele>
        <time>2018-12-22T17:00:00Z</time>
      </trkpt>
      <trkpt lat="44.09003" lon="5.70579">
        <ele>922.317</ele>
        <time>2018-12-22T17:00:01Z</time>
      </trkpt>
      <trkpt lat="44.08994" lon="5.70591">
        <ele>922.667</ele>
        <time>2018-12-22T17:00:02Z</time>
      </trkpt>
      <trkpt lat="44.08983" lon="5.70603">
        <ele>923.756</ele>
        <time>2018-12-22T17:00:03Z</time>
      </trkpt>
      <trkpt lat="44.08972" lon="5.70615">
        <ele>924.252</ele>
        <time>2018-12-22T17:00:04Z</time>
      </trkpt>
      <trkpt lat="44.08961" lon="5.70627">
        <ele>925.117</ele>
        <time>2018-12-22T17:00:05Z</time>
      </trkpt>
      <trkpt lat="44.08951" lon="5.70638">
        <ele>927.187</ele>
        <time>2018-12-22T17:00:06Z</time>
      </trkpt>
      <trkpt lat="44.08941" lon="5.70651">
        <ele>929.215</ele>
        <time>2018-12-22T17:00:07Z</time>
      </trkpt>
      <trkpt lat="44.08931" lon="5.70663">
        <ele>930.308</ele>
        <time>2018-12-22T17:00:08Z</time>
      </trkpt>
      <trkpt lat="44.0892" lon="5.70674">
        <ele>934.224</ele>
        <time>2018-12-22T17:00:09Z</time>
      </trkpt>
      <trkpt lat="44.0891" lon="5.70687">
        <ele>935.442</ele>
        <time>2018-12-22T17:00:10Z</time>
      </trkpt>
      <trkpt lat="44.089" lon="5.707">
        <ele>937.116</ele>
        <time>2018-12-22T17:00:11Z</time>
      </trkpt>
      <trkpt lat="44.0889" lon="5.70713">
        <ele>938.274</ele>
        <time>2018-12-22T17:00:12Z</time>
      </trkpt>
      <trkpt lat="44.08879" lon="5.70726">
        <ele>939.335</ele>
        <time>2018-12-22T17:00:13Z</time>
      </trkpt>
      <trkpt lat="44.08868" lon="5.70738">
        <ele>940.355</ele>
        <time>2018-12-22T17:00:14Z</time>
      </trkpt>
      <trkpt lat="44.08859" lon="5.70751">
        <ele>941.044</ele>
        <time>2018-12-22T17:00:15Z</time>
      </trkpt>
      <trkpt lat="44.08849" lon="5.70764">
        <ele>941.69</ele>
        <time>2018-12-22T17:00:16Z</time>
      </trkpt>
      <trkpt lat="44.08839" lon="5.70776">
        <ele>942.623</ele>
        <time>2018-12-22T17:00:17Z</time>
      </trkpt>
      <trkpt lat="44.0883" lon="5.70788">
        <ele>943.683</ele>
        <time>2018-12-22T17:00:18Z</time>
      </trkpt>
      <trkpt lat="44.08821" lon="5.70798">
        <ele>944.411</ele>
        <time>2018-12-22T17:00:19Z</time>
      </trkpt>
      <trkpt lat="44.08813" lon="5.70807">
        <ele>945.408</ele>
        <time>2018-12-22T17:00:20Z</time>
      </trkpt>
      <trkpt lat="44.08804" lon="5.70815">
        <ele>946.695</ele>
        <time>2018-12-22T17:00:21Z</time>
      </trkpt>
      <trkpt lat="44.08794" lon="5.70822">
        <ele>947.413</ele>
        <time>2018-12-22T17:00:22Z</time>
      </trkpt>
      <trkpt lat="44.08781" lon="5.70825">
        <ele>949.197</ele>
        <time>2018-12-22T17:00:23Z</time>
      </trkpt>
      <trkpt lat="44.08768" lon="5.70828">
        <ele>949.185</ele>
        <time>2018-12-22T17:00:24Z</time>
      </trkpt>
      <trkpt lat="44.08755" lon="5.70831">
        <ele>948.926</ele>
        <time>2018-12-22T17:00:25Z</time>
      </trkpt>
      <trkpt lat="44.08741" lon="5.70833">
        <ele>948.576</ele>
        <time>2018-12-22T17:00:26Z</time>
      </trkpt>
      <trkpt lat="44.08728" lon="5.70835">
        <ele>948.075</ele>
        <time>2018-12-22T17:00:27Z</time>
      </trkpt>
      <trkpt lat="44.08714" lon="5.70838">
        <ele>947.981</ele>
        <time>2018-12-22T17:00:28Z</time>
      </trkpt>
      <trkpt lat="44.08701" lon="5.7084">
        <ele>947.954</ele>
        <time>2018-12-22T17:00:29Z</time>
      </trkpt>
      <trkpt lat="44.08687" lon="5.70844">
        <ele>948.056</ele>
        <time>2018-12-22T17:00:30Z</time>
      </trkpt>
      <trkpt lat="44.08673" lon="5.70847">
        <ele>948.111</ele>
        <time>2018-12-22T17:00:31Z</time>
      </trkpt>
      <trkpt lat="44.08658" lon="5.70851">
        <ele>948.108</ele>
        <time>2018-12-22T17:00:32Z</time>
      </trkpt>
      <trkpt lat="44.08644" lon="5.70854">
        <ele>947.888</ele>
        <time>2018-12-22T17:00:33Z</time>
      </trkpt>
      <trkpt lat="44.0863" lon="5.70857">
        <ele>947.266</ele>
        <time>2018-12-22T17:00:34Z</time>
      </trkpt>
      <trkpt lat="44.08614" lon="5.70862">
        <ele>946.71</ele>
        <time>2018-12-22T17:00:35Z</time>
      </trkpt>
      <trkpt lat="44.08599" lon="5.70865">
        <ele>946.978</ele>
        <time>2018-12-22T17:00:36Z</time>
      </trkpt>
      <trkpt lat="44.08586" lon="5.70869">
        <ele>947.659</ele>
        <time>2018-12-22T17:00:37Z</time>
      </trkpt>
      <trkpt lat="44.08573" lon="5.70875">
        <ele>948.769</ele>
        <time>2018-12-22T17:00:38Z</time>
      </trkpt>
      <trkpt lat="44.08561" lon="5.70883">
        <ele>949.898</ele>
        <time>2018-12-22T17:00:39Z</time>
      </trkpt>
      <trkpt lat="44.08551" lon="5.70895">
        <ele>951.144</ele>
        <time>2018-12-22T17:00:40Z</time>
      </trkpt>
      <trkpt lat="44.08542" lon="5.70912">
        <ele>951.732</ele>
        <time>2018-12-22T17:00:41Z</time>
      </trkpt>
      <trkpt lat="44.08538" lon="5.70934">
        <ele>952.092</ele>
        <time>2018-12-22T17:00:42Z</time>
      </trkpt>
      <trkpt lat="44.08532" lon="5.70953">
        <ele>952.011</ele>
        <time>2018-12-22T17:00:43Z</time>
      </trkpt>
      <trkpt lat="44.08525" lon="5.70974">
        <ele>951.708</ele>
        <time>2018-12-22T17:00:44Z</time>
      </trkpt>
      <trkpt lat="44.08517" lon="5.70996">
        <ele>950.676</ele>
        <time>2018-12-22T17:00:45Z</time>
      </trkpt>
      <trkpt lat="44.08508" lon="5.71021">
        <ele>950.094</ele>
        <time>2018-12-22T17:00:46Z</time>
      </trkpt>
      <trkpt lat="44.085" lon="5.71043">
        <ele>948.868</ele>
        <time>2018-12-22T17:00:47Z</time>
      </trkpt>
      <trkpt lat="44.08493" lon="5.71064">
        <ele>948.846</ele>
        <time>2018-12-22T17:00:48Z</time>
      </trkpt>
      <trkpt lat="44.08486" lon="5.71084">
        <ele>949.197</ele>
        <time>2018-12-22T17:00:49Z</time>
      </trkpt>
      <trkpt lat="44.0848" lon="5.71103">
        <ele>949.947</ele>
        <time>2018-12-22T17:00:50Z</time>
      </trkpt>
      <trkpt lat="44.08475" lon="5.71121">
        <ele>950.866</ele>
        <time>2018-12-22T17:00:51Z</time>
      </trkpt>
      <trkpt lat="44.08467" lon="5.71138">
        <ele>951.512</ele>
        <time>2018-12-22T17:00:52Z</time>
      </trkpt>
      <trkpt lat="44.08459" lon="5.71155">
        <ele>952.064</ele>
        <time>2018-12-22T17:00:53Z</time>
      </trkpt>
      <trkpt lat="44.0845" lon="5.71173">
        <ele>952.306</ele>
        <time>2018-12-22T17:00:54Z</time>
      </trkpt>
      <trkpt lat="44.08439" lon="5.71188">
        <ele>952.416</ele>
        <time>2018-12-22T17:00:55Z</time>
      </trkpt>
      <trkpt lat="44.08429" lon="5.71201">
        <ele>952.408</ele>
        <time>2018-12-22T17:00:56Z</time>
      </trkpt>
      <trkpt lat="44.08421" lon="5.71212">
        <ele>952.449</ele>
        <time>2018-12-22T17:00:57Z</time>
      </trkpt>
      <trkpt lat="44.08413" lon="5.71221">
        <ele>953.177</ele>
        <time>2018-12-22T17:00:58Z</time>
      </trkpt>
      <trkpt lat="44.08406" lon="5.71228">
        <ele>953.351</ele>
        <time>2018-12-22T17:00:59Z</time>
      </trkpt>
      <trkpt lat="44.084" lon="5.71239">
        <ele>953.889</ele>
        <time>2018-12-22T17:01:00Z</time>
      </trkpt>
      <trkpt lat="44.08396" lon="5.7125">
        <ele>954.42</ele>
        <time>2018-12-22T17:01:01Z</time>
      </trkpt>
      <trkpt lat="44.08391" lon="5.71266">
        <ele>954.76</ele>
        <time>2018-12-22T17:01:02Z</time>
      </trkpt>
      <trkpt lat="44.08388" lon="5.71279">
        <ele>955.059</ele>
        <time>2018-12-22T17:01:03Z</time>
      </trkpt>
      <trkpt lat="44.08385" lon="5.71292">
        <ele>955.125</ele>
        <time>2018-12-22T17:01:04Z</time>
      </trkpt>
      <trkpt lat="44.0838" lon="5.71306">
        <ele>955.153</ele>
        <time>2018-12-22T17:01:05Z</time>
      </trkpt>
      <trkpt lat="44.08377" lon="5.7132">
        <ele>954.504</ele>
        <time>2018-12-22T17:01:06Z</time>
      </trkpt>
      <trkpt lat="44.08373" lon="5.71335">
        <ele>953.814</ele>
        <time>2018-12-22T17:01:07Z</time>
      </trkpt>
      <trkpt lat="44.0837" lon="5.7135">
        <ele>952.908</ele>
        <time>2018-12-22T17:01:08Z</time>
      </trkpt>
      <trkpt lat="44.08366" lon="5.71365">
        <ele>951.818</ele>
        <time>2018-12-22T17:01:09Z</time>
      </trkpt>
      <trkpt lat="44.08362" lon="5.71379">
        <ele>951.216</ele>
        <time>2018-12-22T17:01:10Z</time>
      </trkpt>
      <trkpt lat="44.08362" lon="5.71394">
        <ele>951.43</ele>
        <time>2018-12-22T17:01:11Z</time>
      </trkpt>
      <trkpt lat="44.08361" lon="5.7141">
        <ele>951.928</ele>
        <time>2018-12-22T17:01:12Z</time>
      </trkpt>
      <trkpt lat="44.08355" lon="5.71423">
        <ele>952.979</ele>
        <time>2018-12-22T17:01:13Z</time>
      </trkpt>
      <trkpt lat="44.08352" lon="5.71441">
        <ele>953.799</ele>
        <time>2018-12-22T17:01:14Z</time>
      </trkpt>
      <trkpt lat="44.08349" lon="5.71457">
        <ele>954.418</ele>
        <time>2018-12-22T17:01:15Z</time>
      </trkpt>
      <trkpt lat="44.08348" lon="5.71474">
        <ele>955.364</ele>
        <time>2018-12-22T17:01:16Z</time>
      </trkpt>
      <trkpt lat="44.08346" lon="5.71488">
        <ele>956.396</ele>
        <time>2018-12-22T17:01:17Z</time>
      </trkpt>
      <trkpt lat="44.08354" lon="5.7149">
        <ele>957.331</ele>
        <time>2018-12-22T17:01:18Z</time>
      </trkpt>
      <trkpt lat="44.08361" lon="5.71491">
        <ele>958.724</ele>
        <time>2018-12-22T17:01:19Z</time>
      </trkpt>
      <trkpt lat="44.08367" lon="5.71496">
        <ele>961.208</ele>
        <time>2018-12-22T17:01:21Z</time>
      </trkpt>
      <trkpt lat="44.08372" lon="5.71498">
        <ele>962.922</ele>
        <time>2018-12-22T17:01:22Z</time>
      </trkpt>
      <trkpt lat="44.08377" lon="5.71506">
        <ele>963.81</ele>
        <time>2018-12-22T17:01:24Z</time>
      </trkpt>
      <trkpt lat="44.08383" lon="5.71515">
        <ele>964.174</ele>
        <time>2018-12-22T17:01:25Z</time>
      </trkpt>
      <trkpt lat="44.0838" lon="5.71525">
        <ele>964.752</ele>
        <time>2018-12-22T17:01:27Z</time>
      </trkpt>
      <trkpt lat="44.08379" lon="5.71534">
        <ele>965.043</ele>
        <time>2018-12-22T17:01:28Z</time>
      </trkpt>
      <trkpt lat="44.08377" lon="5.7154">
        <ele>965.673</ele>
        <time>2018-12-22T17:01:29Z</time>
      </trkpt>
      <trkpt lat="44.08373" lon="5.71546">
        <ele>966.212</ele>
        <time>2018-12-22T17:01:30Z</time>
      </trkpt>
      <trkpt lat="44.08368" lon="5.71554">
        <ele>967.858</ele>
        <time>2018-12-22T17:01:32Z</time>
      </trkpt>
      <trkpt lat="44.08363" lon="5.71559">
        <ele>969.686</ele>
        <time>2018-12-22T17:01:34Z</time>
      </trkpt>
      <trkpt lat="44.08355" lon="5.71564">
        <ele>970.76</ele>
        <time>2018-12-22T17:01:36Z</time>
      </trkpt>
      <trkpt lat="44.08349" lon="5.71571">
        <ele>970.526</ele>
        <time>2018-12-22T17:01:38Z</time>
      </trkpt>
      <trkpt lat="44.08343" lon="5.71578">
        <ele>970.408</ele>
        <time>2018-12-22T17:01:40Z</time>
      </trkpt>
      <trkpt lat="44.08341" lon="5.71584">
        <ele>970.331</ele>
        <time>2018-12-22T17:01:41Z</time>
      </trkpt>
      <trkpt lat="44.08338" lon="5.7159">
        <ele>970.129</ele>
        <time>2018-12-22T17:01:42Z</time>
      </trkpt>
      <trkpt lat="44.08334" lon="5.71594">
        <ele>970.033</ele>
        <time>2018-12-22T17:01:43Z</time>
      </trkpt>
      <trkpt lat="44.08328" lon="5.716">
        <ele>969.731</ele>
        <time>2018-12-22T17:01:44Z</time>
      </trkpt>
      <trkpt lat="44.08322" lon="5.71606">
        <ele>969.162</ele>
        <time>2018-12-22T17:01:45Z</time>
      </trkpt>
      <trkpt lat="44.08315" lon="5.71611">
        <ele>968.722</ele>
        <time>2018-12-22T17:01:46Z</time>
      </trkpt>
      <trkpt lat="44.0831" lon="5.71616">
        <ele>967.391</ele>
        <time>2018-12-22T17:01:47Z</time>
      </trkpt>
      <trkpt lat="44.08305" lon="5.71621">
        <ele>967.357</ele>
        <time>2018-12-22T17:01:48Z</time>
      </trkpt>
      <trkpt lat="44.08299" lon="5.71627">
        <ele>967.343</ele>
        <time>2018-12-22T17:01:49Z</time>
      </trkpt>
      <trkpt lat="44.08294" lon="5.71635">
        <ele>966.464</ele>
        <time>2018-12-22T17:01:50Z</time>
      </trkpt>
      <trkpt lat="44.08286" lon="5.71646">
        <ele>965.41</ele>
        <time>2018-12-22T17:01:51Z</time>
      </trkpt>
      <trkpt lat="44.08277" lon="5.71659">
        <ele>964.608</ele>
        <time>2018-12-22T17:01:52Z</time>
      </trkpt>
      <trkpt lat="44.0827" lon="5.7167">
        <ele>963.047</ele>
        <time>2018-12-22T17:01:53Z</time>
      </trkpt>
      <trkpt lat="44.08264" lon="5.71682">
        <ele>961.925</ele>
        <time>2018-12-22T17:01:54Z</time>
      </trkpt>
      <trkpt lat="44.08259" lon="5.71694">
        <ele>961.369</ele>
        <time>2018-12-22T17:01:55Z</time>
      </trkpt>
      <trkpt lat="44.08252" lon="5.71706">
        <ele>960.837</ele>
        <time>2018-12-22T17:01:56Z</time>
      </trkpt>
      <trkpt lat="44.08246" lon="5.71718">
        <ele>960.558</ele>
        <time>2018-12-22T17:01:57Z</time>
      </trkpt>
      <trkpt lat="44.08239" lon="5.71729">
        <ele>959.918</ele>
        <time>2018-12-22T17:01:58Z</time>
      </trkpt>
      <trkpt lat="44.08234" lon="5.71741">
        <ele>958.427</ele>
        <time>2018-12-22T17:01:59Z</time>
      </trkpt>
      <trkpt lat="44.08227" lon="5.71754">
        <ele>957.613</ele>
        <time>2018-12-22T17:02:00Z</time>
      </trkpt>
      <trkpt lat="44.08221" lon="5.71765">
        <ele>956.625</ele>
        <time>2018-12-22T17:02:01Z</time>
      </trkpt>
      <trkpt lat="44.08213" lon="5.71779">
        <ele>956.026</ele>
        <time>2018-12-22T17:02:02Z</time>
      </trkpt>
      <trkpt lat="44.08208" lon="5.71791">
        <ele>955.608</ele>
        <time>2018-12-22T17:02:03Z</time>
      </trkpt>
      <trkpt lat="44.08205" lon="5.71799">
        <ele>955.108</ele>
        <time>2018-12-22T17:02:04Z</time>
      </trkpt>
      <trkpt lat="44.08199" lon="5.7181">
        <ele>954.375</ele>
        <time>2018-12-22T17:02:05Z</time>
      </trkpt>
      <trkpt lat="44.08193" lon="5.71821">
        <ele>953.623</ele>
        <time>2018-12-22T17:02:06Z</time>
      </trkpt>
      <trkpt lat="44.08188" lon="5.71834">
        <ele>952.737</ele>
        <time>2018-12-22T17:02:07Z</time>
      </trkpt>
      <trkpt lat="44.08186" lon="5.71843">
        <ele>951.785</ele>
        <time>2018-12-22T17:02:08Z</time>
      </trkpt>
      <trkpt lat="44.08181" lon="5.71857">
        <ele>950.666</ele>
        <time>2018-12-22T17:02:09Z</time>
      </trkpt>
      <trkpt lat="44.08175" lon="5.71867">
        <ele>949.816</ele>
        <time>2018-12-22T17:02:10Z</time>
      </trkpt>
      <trkpt lat="44.0817" lon="5.71874">
        <ele>948.555</ele>
        <time>2018-12-22T17:02:11Z</time>
      </trkpt>
      <trkpt lat="44.08166" lon="5.71881">
        <ele>947.671</ele>
        <time>2018-12-22T17:02:12Z</time>
      </trkpt>
      <trkpt lat="44.0816" lon="5.71889">
        <ele>946.718</ele>
        <time>2018-12-22T17:02:13Z</time>
      </trkpt>
      <trkpt lat="44.08158" lon="5.71895">
        <ele>945.798</ele>
        <time>2018-12-22T17:02:14Z</time>
      </trkpt>
      <trkpt lat="44.08157" lon="5.71906">
        <ele>944.617</ele>
        <time>2018-12-22T17:02:15Z</time>
      </trkpt>
      <trkpt lat="44.08155" lon="5.71915">
        <ele>943.708</ele>
        <time>2018-12-22T17:02:16Z</time>
      </trkpt>
      <trkpt lat="44.08154" lon="5.71923">
        <ele>943.094</ele>
        <time>2018-12-22T17:02:17Z</time>
      </trkpt>
      <trkpt lat="44.08153" lon="5.71929">
        <ele>942.512</ele>
        <time>2018-12-22T17:02:18Z</time>
      </trkpt>
      <trkpt lat="44.08148" lon="5.71939">
        <ele>941.386</ele>
        <time>2018-12-22T17:02:20Z</time>
      </trkpt>
      <trkpt lat="44.08144" lon="5.71942">
        <ele>940.654</ele>
        <time>2018-12-22T17:02:21Z</time>
      </trkpt>
      <trkpt lat="44.08135" lon="5.71947">
        <ele>939.825</ele>
        <time>2018-12-22T17:02:22Z</time>
      </trkpt>
      <trkpt lat="44.08128" lon="5.71952">
        <ele>937.835</ele>
        <time>2018-12-22T17:02:23Z</time>
      </trkpt>
      <trkpt lat="44.08121" lon="5.71956">
        <ele>936.944</ele>
        <time>2018-12-22T17:02:24Z</time>
      </trkpt>
      <trkpt lat="44.08115" lon="5.71961">
        <ele>936.17</ele>
        <time>2018-12-22T17:02:25Z</time>
      </trkpt>
      <trkpt lat="44.0811" lon="5.71967">
        <ele>935.341</ele>
        <time>2018-12-22T17:02:26Z</time>
      </trkpt>
      <trkpt lat="44.08104" lon="5.71973">
        <ele>934.781</ele>
        <time>2018-12-22T17:02:27Z</time>
      </trkpt>
      <trkpt lat="44.08098" lon="5.71979">
        <ele>934.009</ele>
        <time>2018-12-22T17:02:28Z</time>
      </trkpt>
      <trkpt lat="44.08091" lon="5.71985">
        <ele>933.208</ele>
        <time>2018-12-22T17:02:29Z</time>
      </trkpt>
      <trkpt lat="44.08083" lon="5.71991">
        <ele>932.367</ele>
        <time>2018-12-22T17:02:30Z</time>
      </trkpt>
      <trkpt lat="44.08076" lon="5.71995">
        <ele>931.545</ele>
        <time>2018-12-22T17:02:31Z</time>
      </trkpt>
      <trkpt lat="44.08068" lon="5.71999">
        <ele>930.499</ele>
        <time>2018-12-22T17:02:32Z</time>
      </trkpt>
      <trkpt lat="44.0806" lon="5.72004">
        <ele>929.627</ele>
        <time>2018-12-22T17:02:33Z</time>
      </trkpt>
      <trkpt lat="44.08053" lon="5.7201">
        <ele>929.088</ele>
        <time>2018-12-22T17:02:34Z</time>
      </trkpt>
      <trkpt lat="44.08046" lon="5.72015">
        <ele>928.528</ele>
        <time>2018-12-22T17:02:35Z</time>
      </trkpt>
      <trkpt lat="44.08041" lon="5.72023">
        <ele>927.957</ele>
        <time>2018-12-22T17:02:36Z</time>
      </trkpt>
      <trkpt lat="44.08034" lon="5.72031">
        <ele>926.853</ele>
        <time>2018-12-22T17:02:37Z</time>
      </trkpt>
      <trkpt lat="44.08025" lon="5.72036">
        <ele>925.969</ele>
        <time>2018-12-22T17:02:38Z</time>
      </trkpt>
      <trkpt lat="44.08016" lon="5.72041">
        <ele>924.804</ele>
        <time>2018-12-22T17:02:39Z</time>
      </trkpt>
      <trkpt lat="44.08005" lon="5.72045">
        <ele>923.824</ele>
        <time>2018-12-22T17:02:40Z</time>
      </trkpt>
      <trkpt lat="44.07994" lon="5.72049">
        <ele>922.708</ele>
        <time>2018-12-22T17:02:41Z</time>
      </trkpt>
      <trkpt lat="44.07985" lon="5.72051">
        <ele>922.089</ele>
        <time>2018-12-22T17:02:42Z</time>
      </trkpt>
      <trkpt lat="44.07969" lon="5.72054">
        <ele>921.377</ele>
        <time>2018-12-22T17:02:43Z</time>
      </trkpt>
      <trkpt lat="44.07957" lon="5.72057">
        <ele>920.781</ele>
        <time>2018-12-22T17:02:44Z</time>
      </trkpt>
      <trkpt lat="44.07946" lon="5.72061">
        <ele>919.999</ele>
        <time>2018-12-22T17:02:45Z</time>
      </trkpt>
      <trkpt lat="44.07933" lon="5.72064">
        <ele>919.14</ele>
        <time>2018-12-22T17:02:46Z</time>
      </trkpt>
      <trkpt lat="44.07922" lon="5.72069">
        <ele>917.51</ele>
        <time>2018-12-22T17:02:47Z</time>
      </trkpt>
      <trkpt lat="44.0791" lon="5.72077">
        <ele>917.029</ele>
        <time>2018-12-22T17:02:48Z</time>
      </trkpt>
      <trkpt lat="44.07904" lon="5.72083">
        <ele>916.475</ele>
        <time>2018-12-22T17:02:49Z</time>
      </trkpt>
      <trkpt lat="44.07897" lon="5.72088">
        <ele>915.611</ele>
        <time>2018-12-22T17:02:50Z</time>
      </trkpt>
      <trkpt lat="44.07891" lon="5.72093">
        <ele>914.621</ele>
        <time>2018-12-22T17:02:51Z</time>
      </trkpt>
      <trkpt lat="44.07882" lon="5.72096">
        <ele>913.403</ele>
        <time>2018-12-22T17:02:52Z</time>
      </trkpt>
      <trkpt lat="44.07872" lon="5.721">
        <ele>912.008</ele>
        <time>2018-12-22T17:02:53Z</time>
      </trkpt>
      <trkpt lat="44.07859" lon="5.72103">
        <ele>910.844</ele>
        <time>2018-12-22T17:02:54Z</time>
      </trkpt>
      <trkpt lat="44.07849" lon="5.72104">
        <ele>909.872</ele>
        <time>2018-12-22T17:02:55Z</time>
      </trkpt>
      <trkpt lat="44.07839" lon="5.72108">
        <ele>909.146</ele>
        <time>2018-12-22T17:02:56Z</time>
      </trkpt>
      <trkpt lat="44.07828" lon="5.72112">
        <ele>908.644</ele>
        <time>2018-12-22T17:02:57Z</time>
      </trkpt>
      <trkpt lat="44.07817" lon="5.72117">
        <ele>907.995</ele>
        <time>2018-12-22T17:02:58Z</time>
      </trkpt>
      <trkpt lat="44.07806" lon="5.72123">
        <ele>906.575</ele>
        <time>2018-12-22T17:02:59Z</time>
      </trkpt>
      <trkpt lat="44.07794" lon="5.7213">
        <ele>905.674</ele>
        <time>2018-12-22T17:03:00Z</time>
      </trkpt>
      <trkpt lat="44.07784" lon="5.72136">
        <ele>904.54</ele>
        <time>2018-12-22T17:03:01Z</time>
      </trkpt>
      <trkpt lat="44.07773" lon="5.7214">
        <ele>903.557</ele>
        <time>2018-12-22T17:03:02Z</time>
      </trkpt>
      <trkpt lat="44.0776" lon="5.72143">
        <ele>902.6</ele>
        <time>2018-12-22T17:03:03Z</time>
      </trkpt>
      <trkpt lat="44.07747" lon="5.72147">
        <ele>901.92</ele>
        <time>2018-12-22T17:03:04Z</time>
      </trkpt>
      <trkpt lat="44.07735" lon="5.72151">
        <ele>901.108</ele>
        <time>2018-12-22T17:03:05Z</time>
      </trkpt>
      <trkpt lat="44.07721" lon="5.72155">
        <ele>900.688</ele>
        <time>2018-12-22T17:03:06Z</time>
      </trkpt>
      <trkpt lat="44.07708" lon="5.72156">
        <ele>900.386</ele>
        <time>2018-12-22T17:03:07Z</time>
      </trkpt>
      <trkpt lat="44.07694" lon="5.72157">
        <ele>899.77</ele>
        <time>2018-12-22T17:03:08Z</time>
      </trkpt>
      <trkpt lat="44.07679" lon="5.72157">
        <ele>899.278</ele>
        <time>2018-12-22T17:03:09Z</time>
      </trkpt>
      <trkpt lat="44.07665" lon="5.72156">
        <ele>898.559</ele>
        <time>2018-12-22T17:03:10Z</time>
      </trkpt>
      <trkpt lat="44.07651" lon="5.72155">
        <ele>897.999</ele>
        <time>2018-12-22T17:03:11Z</time>
      </trkpt>
      <trkpt lat="44.07638" lon="5.72152">
        <ele>897.698</ele>
        <time>2018-12-22T17:03:12Z</time>
      </trkpt>
      <trkpt lat="44.07623" lon="5.72149">
        <ele>896.864</ele>
        <time>2018-12-22T17:03:13Z</time>
      </trkpt>
      <trkpt lat="44.0761" lon="5.72146">
        <ele>895.617</ele>
        <time>2018-12-22T17:03:14Z</time>
      </trkpt>
      <trkpt lat="44.07597" lon="5.72143">
        <ele>894.487</ele>
        <time>2018-12-22T17:03:15Z</time>
      </trkpt>
      <trkpt lat="44.07585" lon="5.72139">
        <ele>893.415</ele>
        <time>2018-12-22T17:03:16Z</time>
      </trkpt>
      <trkpt lat="44.07573" lon="5.72135">
        <ele>892.608</ele>
        <time>2018-12-22T17:03:17Z</time>
      </trkpt>
      <trkpt lat="44.07562" lon="5.72132">
        <ele>891.924</ele>
        <time>2018-12-22T17:03:18Z</time>
      </trkpt>
      <trkpt lat="44.07551" lon="5.72129">
        <ele>891.442</ele>
        <time>2018-12-22T17:03:19Z</time>
      </trkpt>
      <trkpt lat="44.0754" lon="5.72124">
        <ele>891.216</ele>
        <time>2018-12-22T17:03:20Z</time>
      </trkpt>
      <trkpt lat="44.07529" lon="5.72121">
        <ele>890.894</ele>
        <time>2018-12-22T17:03:21Z</time>
      </trkpt>
      <trkpt lat="44.07517" lon="5.72117">
        <ele>889.945</ele>
        <time>2018-12-22T17:03:22Z</time>
      </trkpt>
      <trkpt lat="44.07503" lon="5.72112">
        <ele>888.315</ele>
        <time>2018-12-22T17:03:23Z</time>
      </trkpt>
      <trkpt lat="44.07491" lon="5.72108">
        <ele>887.274</ele>
        <time>2018-12-22T17:03:24Z</time>
      </trkpt>
      <trkpt lat="44.07479" lon="5.72102">
        <ele>886.18</ele>
        <time>2018-12-22T17:03:25Z</time>
      </trkpt>
      <trkpt lat="44.07465" lon="5.72097">
        <ele>884.837</ele>
        <time>2018-12-22T17:03:26Z</time>
      </trkpt>
      <trkpt lat="44.07452" lon="5.72093">
        <ele>883.849</ele>
        <time>2018-12-22T17:03:27Z</time>
      </trkpt>
      <trkpt lat="44.07438" lon="5.72089">
        <ele>882.713</ele>
        <time>2018-12-22T17:03:28Z</time>
      </trkpt>
      <trkpt lat="44.07425" lon="5.72086">
        <ele>882.208</ele>
        <time>2018-12-22T17:03:29Z</time>
      </trkpt>
      <trkpt lat="44.07413" lon="5.72083">
        <ele>882.286</ele>
        <time>2018-12-22T17:03:30Z</time>
      </trkpt>
      <trkpt lat="44.07402" lon="5.72081">
        <ele>882.684</ele>
        <time>2018-12-22T17:03:31Z</time>
      </trkpt>
      <trkpt lat="44.0739" lon="5.7208">
        <ele>882.758</ele>
        <time>2018-12-22T17:03:32Z</time>
      </trkpt>
      <trkpt lat="44.07379" lon="5.72081">
        <ele>882.716</ele>
        <time>2018-12-22T17:03:33Z</time>
      </trkpt>
      <trkpt lat="44.07369" lon="5.72079">
        <ele>882.747</ele>
        <time>2018-12-22T17:03:34Z</time>
      </trkpt>
      <trkpt lat="44.07357" lon="5.72077">
        <ele>880.567</ele>
        <time>2018-12-22T17:03:35Z</time>
      </trkpt>
      <trkpt lat="44.07345" lon="5.72075">
        <ele>879.376</ele>
        <time>2018-12-22T17:03:36Z</time>
      </trkpt>
      <trkpt lat="44.07332" lon="5.72071">
        <ele>878.292</ele>
        <time>2018-12-22T17:03:37Z</time>
      </trkpt>
      <trkpt lat="44.07318" lon="5.72068">
        <ele>876.736</ele>
        <time>2018-12-22T17:03:38Z</time>
      </trkpt>
      <trkpt lat="44.07305" lon="5.72064">
        <ele>875.617</ele>
        <time>2018-12-22T17:03:39Z</time>
      </trkpt>
      <trkpt lat="44.07291" lon="5.7206">
        <ele>874.618</ele>
        <time>2018-12-22T17:03:40Z</time>
      </trkpt>
      <trkpt lat="44.07278" lon="5.72056">
        <ele>874.008</ele>
        <time>2018-12-22T17:03:41Z</time>
      </trkpt>
      <trkpt lat="44.07264" lon="5.72052">
        <ele>873.446</ele>
        <time>2018-12-22T17:03:42Z</time>
      </trkpt>
      <trkpt lat="44.07251" lon="5.72049">
        <ele>872.944</ele>
        <time>2018-12-22T17:03:43Z</time>
      </trkpt>
      <trkpt lat="44.07236" lon="5.72047">
        <ele>872.538</ele>
        <time>2018-12-22T17:03:44Z</time>
      </trkpt>
      <trkpt lat="44.07223" lon="5.72043">
        <ele>872.026</ele>
        <time>2018-12-22T17:03:45Z</time>
      </trkpt>
      <trkpt lat="44.07211" lon="5.72039">
        <ele>871.027</ele>
        <time>2018-12-22T17:03:46Z</time>
      </trkpt>
      <trkpt lat="44.072" lon="5.72035">
        <ele>869.857</ele>
        <time>2018-12-22T17:03:47Z</time>
      </trkpt>
      <trkpt lat="44.07189" lon="5.72031">
        <ele>869.326</ele>
        <time>2018-12-22T17:03:48Z</time>
      </trkpt>
      <trkpt lat="44.07177" lon="5.72028">
        <ele>869.262</ele>
        <time>2018-12-22T17:03:49Z</time>
      </trkpt>
      <trkpt lat="44.07167" lon="5.72025">
        <ele>869.259</ele>
        <time>2018-12-22T17:03:50Z</time>
      </trkpt>
      <trkpt lat="44.07154" lon="5.72022">
        <ele>869.103</ele>
        <time>2018-12-22T17:03:51Z</time>
      </trkpt>
      <trkpt lat="44.07142" lon="5.72018">
        <ele>868.923</ele>
        <time>2018-12-22T17:03:52Z</time>
      </trkpt>
      <trkpt lat="44.07131" lon="5.72013">
        <ele>868.308</ele>
        <time>2018-12-22T17:03:53Z</time>
      </trkpt>
      <trkpt lat="44.0712" lon="5.72007">
        <ele>867.558</ele>
        <time>2018-12-22T17:03:54Z</time>
      </trkpt>
      <trkpt lat="44.07108" lon="5.72003">
        <ele>866.546</ele>
        <time>2018-12-22T17:03:55Z</time>
      </trkpt>
      <trkpt lat="44.07094" lon="5.71997">
        <ele>865.51</ele>
        <time>2018-12-22T17:03:56Z</time>
      </trkpt>
      <trkpt lat="44.07081" lon="5.71992">
        <ele>864.148</ele>
        <time>2018-12-22T17:03:57Z</time>
      </trkpt>
      <trkpt lat="44.07069" lon="5.71986">
        <ele>862.649</ele>
        <time>2018-12-22T17:03:58Z</time>
      </trkpt>
      <trkpt lat="44.07057" lon="5.71981">
        <ele>860.159</ele>
        <time>2018-12-22T17:03:59Z</time>
      </trkpt>
      <trkpt lat="44.07048" lon="5.71976">
        <ele>858.848</ele>
        <time>2018-12-22T17:04:00Z</time>
      </trkpt>
      <trkpt lat="44.0704" lon="5.71971">
        <ele>857.694</ele>
        <time>2018-12-22T17:04:01Z</time>
      </trkpt>
      <trkpt lat="44.07031" lon="5.71965">
        <ele>857.017</ele>
        <time>2018-12-22T17:04:02Z</time>
      </trkpt>
      <trkpt lat="44.07024" lon="5.71958">
        <ele>856.387</ele>
        <time>2018-12-22T17:04:03Z</time>
      </trkpt>
      <trkpt lat="44.07019" lon="5.71947">
        <ele>855.515</ele>
        <time>2018-12-22T17:04:04Z</time>
      </trkpt>
      <trkpt lat="44.07014" lon="5.71937">
        <ele>854.908</ele>
        <time>2018-12-22T17:04:05Z</time>
      </trkpt>
      <trkpt lat="44.07008" lon="5.7193">
        <ele>854.354</ele>
        <time>2018-12-22T17:04:06Z</time>
      </trkpt>
      <trkpt lat="44.07001" lon="5.71925">
        <ele>853.782</ele>
        <time>2018-12-22T17:04:07Z</time>
      </trkpt>
      <trkpt lat="44.06993" lon="5.7192">
        <ele>852.756</ele>
        <time>2018-12-22T17:04:08Z</time>
      </trkpt>
      <trkpt lat="44.06984" lon="5.71917">
        <ele>851.814</ele>
        <time>2018-12-22T17:04:09Z</time>
      </trkpt>
      <trkpt lat="44.06975" lon="5.71914">
        <ele>849.425</ele>
        <time>2018-12-22T17:04:10Z</time>
      </trkpt>
      <trkpt lat="44.06966" lon="5.71911">
        <ele>849.055</ele>
        <time>2018-12-22T17:04:11Z</time>
      </trkpt>
      <trkpt lat="44.0696" lon="5.7191">
        <ele>848.924</ele>
        <time>2018-12-22T17:04:12Z</time>
      </trkpt>
      <trkpt lat="44.06953" lon="5.71908">
        <ele>848.27</ele>
        <time>2018-12-22T17:04:13Z</time>
      </trkpt>
      <trkpt lat="44.06945" lon="5.71905">
        <ele>848.271</ele>
        <time>2018-12-22T17:04:14Z</time>
      </trkpt>
      <trkpt lat="44.06939" lon="5.71903">
        <ele>848.241</ele>
        <time>2018-12-22T17:04:15Z</time>
      </trkpt>
      <trkpt lat="44.06932" lon="5.71902">
        <ele>848.115</ele>
        <time>2018-12-22T17:04:16Z</time>
      </trkpt>
      <trkpt lat="44.06925" lon="5.71901">
        <ele>847.708</ele>
        <time>2018-12-22T17:04:17Z</time>
      </trkpt>
      <trkpt lat="44.06919" lon="5.71899">
        <ele>846.76</ele>
        <time>2018-12-22T17:04:18Z</time>
      </trkpt>
      <trkpt lat="44.06912" lon="5.71894">
        <ele>846.788</ele>
        <time>2018-12-22T17:04:19Z</time>
      </trkpt>
      <trkpt lat="44.06906" lon="5.7189">
        <ele>845.572</ele>
        <time>2018-12-22T17:04:20Z</time>
      </trkpt>
      <trkpt lat="44.069" lon="5.71886">
        <ele>844.95</ele>
        <time>2018-12-22T17:04:21Z</time>
      </trkpt>
      <trkpt lat="44.06892" lon="5.71882">
        <ele>843.591</ele>
        <time>2018-12-22T17:04:22Z</time>
      </trkpt>
      <trkpt lat="44.06884" lon="5.7188">
        <ele>843.581</ele>
        <time>2018-12-22T17:04:23Z</time>
      </trkpt>
      <trkpt lat="44.06877" lon="5.7188">
        <ele>843.59</ele>
        <time>2018-12-22T17:04:24Z</time>
      </trkpt>
      <trkpt lat="44.0687" lon="5.71882">
        <ele>843.516</ele>
        <time>2018-12-22T17:04:25Z</time>
      </trkpt>
      <trkpt lat="44.06861" lon="5.71883">
        <ele>843.469</ele>
        <time>2018-12-22T17:04:26Z</time>
      </trkpt>
      <trkpt lat="44.06852" lon="5.71883">
        <ele>843.304</ele>
        <time>2018-12-22T17:04:27Z</time>
      </trkpt>
      <trkpt lat="44.06841" lon="5.71883">
        <ele>841.624</ele>
        <time>2018-12-22T17:04:28Z</time>
      </trkpt>
      <trkpt lat="44.0683" lon="5.71881">
        <ele>840.408</ele>
        <time>2018-12-22T17:04:29Z</time>
      </trkpt>
      <trkpt lat="44.0682" lon="5.71877">
        <ele>839.389</ele>
        <time>2018-12-22T17:04:30Z</time>
      </trkpt>
      <trkpt lat="44.0681" lon="5.71871">
        <ele>838.767</ele>
        <time>2018-12-22T17:04:31Z</time>
      </trkpt>
      <trkpt lat="44.068" lon="5.71866">
        <ele>838.441</ele>
        <time>2018-12-22T17:04:32Z</time>
      </trkpt>
      <trkpt lat="44.06789" lon="5.71861">
        <ele>838.049</ele>
        <time>2018-12-22T17:04:33Z</time>
      </trkpt>
      <trkpt lat="44.06778" lon="5.71857">
        <ele>836.81</ele>
        <time>2018-12-22T17:04:34Z</time>
      </trkpt>
      <trkpt lat="44.06767" lon="5.71853">
        <ele>835.91</ele>
        <time>2018-12-22T17:04:35Z</time>
      </trkpt>
      <trkpt lat="44.06756" lon="5.71848">
        <ele>835.049</ele>
        <time>2018-12-22T17:04:36Z</time>
      </trkpt>
      <trkpt lat="44.06744" lon="5.71841">
        <ele>834.225</ele>
        <time>2018-12-22T17:04:37Z</time>
      </trkpt>
      <trkpt lat="44.06733" lon="5.71833">
        <ele>833.418</ele>
        <time>2018-12-22T17:04:38Z</time>
      </trkpt>
      <trkpt lat="44.06722" lon="5.71824">
        <ele>832.698</ele>
        <time>2018-12-22T17:04:39Z</time>
      </trkpt>
      <trkpt lat="44.06711" lon="5.71815">
        <ele>831.617</ele>
        <time>2018-12-22T17:04:40Z</time>
      </trkpt>
      <trkpt lat="44.06701" lon="5.71806">
        <ele>830.608</ele>
        <time>2018-12-22T17:04:41Z</time>
      </trkpt>
      <trkpt lat="44.0669" lon="5.71796">
        <ele>830.164</ele>
        <time>2018-12-22T17:04:42Z</time>
      </trkpt>
      <trkpt lat="44.06679" lon="5.71785">
        <ele>829.852</ele>
        <time>2018-12-22T17:04:43Z</time>
      </trkpt>
      <trkpt lat="44.06669" lon="5.71775">
        <ele>829.866</ele>
        <time>2018-12-22T17:04:44Z</time>
      </trkpt>
      <trkpt lat="44.06657" lon="5.71764">
        <ele>830.284</ele>
        <time>2018-12-22T17:04:45Z</time>
      </trkpt>
      <trkpt lat="44.06647" lon="5.71754">
        <ele>830.685</ele>
        <time>2018-12-22T17:04:46Z</time>
      </trkpt>
      <trkpt lat="44.06638" lon="5.71745">
        <ele>831.695</ele>
        <time>2018-12-22T17:04:47Z</time>
      </trkpt>
      <trkpt lat="44.06629" lon="5.71737">
        <ele>832.124</ele>
        <time>2018-12-22T17:04:48Z</time>
      </trkpt>
      <trkpt lat="44.06619" lon="5.71729">
        <ele>832.56</ele>
        <time>2018-12-22T17:04:49Z</time>
      </trkpt>
      <trkpt lat="44.06609" lon="5.71727">
        <ele>833.192</ele>
        <time>2018-12-22T17:04:50Z</time>
      </trkpt>
      <trkpt lat="44.06599" lon="5.71723">
        <ele>833.173</ele>
        <time>2018-12-22T17:04:51Z</time>
      </trkpt>
      <trkpt lat="44.06588" lon="5.71718">
        <ele>832.82</ele>
        <time>2018-12-22T17:04:52Z</time>
      </trkpt>
      <trkpt lat="44.06576" lon="5.71713">
        <ele>832.208</ele>
        <time>2018-12-22T17:04:53Z</time>
      </trkpt>
      <trkpt lat="44.06565" lon="5.71708">
        <ele>831.552</ele>
        <time>2018-12-22T17:04:54Z</time>
      </trkpt>
      <trkpt lat="44.06554" lon="5.71704">
        <ele>830.84</ele>
        <time>2018-12-22T17:04:55Z</time>
      </trkpt>
      <trkpt lat="44.06543" lon="5.717">
        <ele>830.044</ele>
        <time>2018-12-22T17:04:56Z</time>
      </trkpt>
      <trkpt lat="44.06531" lon="5.71697">
        <ele>828.922</ele>
        <time>2018-12-22T17:04:57Z</time>
      </trkpt>
      <trkpt lat="44.06517" lon="5.71694">
        <ele>827.873</ele>
        <time>2018-12-22T17:04:58Z</time>
      </trkpt>
      <trkpt lat="44.06502" lon="5.71691">
        <ele>825.173</ele>
        <time>2018-12-22T17:04:59Z</time>
      </trkpt>
      <trkpt lat="44.06487" lon="5.71686">
        <ele>823.862</ele>
        <time>2018-12-22T17:05:00Z</time>
      </trkpt>
      <trkpt lat="44.06473" lon="5.71681">
        <ele>823.138</ele>
        <time>2018-12-22T17:05:01Z</time>
      </trkpt>
      <trkpt lat="44.06461" lon="5.71675">
        <ele>822.377</ele>
        <time>2018-12-22T17:05:02Z</time>
      </trkpt>
      <trkpt lat="44.0645" lon="5.71669">
        <ele>821.861</ele>
        <time>2018-12-22T17:05:03Z</time>
      </trkpt>
      <trkpt lat="44.0644" lon="5.71662">
        <ele>821.327</ele>
        <time>2018-12-22T17:05:04Z</time>
      </trkpt>
      <trkpt lat="44.06431" lon="5.71656">
        <ele>821.208</ele>
        <time>2018-12-22T17:05:05Z</time>
      </trkpt>
      <trkpt lat="44.0642" lon="5.71652">
        <ele>820.95</ele>
        <time>2018-12-22T17:05:06Z</time>
      </trkpt>
      <trkpt lat="44.06411" lon="5.71649">
        <ele>820.628</ele>
        <time>2018-12-22T17:05:07Z</time>
      </trkpt>
      <trkpt lat="44.064" lon="5.71646">
        <ele>820.082</ele>
        <time>2018-12-22T17:05:08Z</time>
      </trkpt>
      <trkpt lat="44.06391" lon="5.71641">
        <ele>819.52</ele>
        <time>2018-12-22T17:05:09Z</time>
      </trkpt>
      <trkpt lat="44.06381" lon="5.71636">
        <ele>818.891</ele>
        <time>2018-12-22T17:05:10Z</time>
      </trkpt>
      <trkpt lat="44.06371" lon="5.71631">
        <ele>817.191</ele>
        <time>2018-12-22T17:05:11Z</time>
      </trkpt>
      <trkpt lat="44.06361" lon="5.71628">
        <ele>816.64</ele>
        <time>2018-12-22T17:05:12Z</time>
      </trkpt>
      <trkpt lat="44.06352" lon="5.71625">
        <ele>815.926</ele>
        <time>2018-12-22T17:05:13Z</time>
      </trkpt>
      <trkpt lat="44.06347" lon="5.71623">
        <ele>815.625</ele>
        <time>2018-12-22T17:05:14Z</time>
      </trkpt>
      <trkpt lat="44.06341" lon="5.7162">
        <ele>815.626</ele>
        <time>2018-12-22T17:05:16Z</time>
      </trkpt>
      <trkpt lat="44.06337" lon="5.71617">
        <ele>816.508</ele>
        <time>2018-12-22T17:05:21Z</time>
      </trkpt>
      <trkpt lat="44.06338" lon="5.71627">
        <ele>815.608</ele>
        <time>2018-12-22T17:05:35Z</time>
      </trkpt>
      <trkpt lat="44.06342" lon="5.71635">
        <ele>815.285</ele>
        <time>2018-12-22T17:05:36Z</time>
      </trkpt>
      <trkpt lat="44.06349" lon="5.71645">
        <ele>814.683</ele>
        <time>2018-12-22T17:05:37Z</time>
      </trkpt>
      <trkpt lat="44.06355" lon="5.71659">
        <ele>814.377</ele>
        <time>2018-12-22T17:05:38Z</time>
      </trkpt>
      <trkpt lat="44.06362" lon="5.71672">
        <ele>814.195</ele>
        <time>2018-12-22T17:05:39Z</time>
      </trkpt>
      <trkpt lat="44.06371" lon="5.71686">
        <ele>814.176</ele>
        <time>2018-12-22T17:05:40Z</time>
      </trkpt>
      <trkpt lat="44.06381" lon="5.71699">
        <ele>813.686</ele>
        <time>2018-12-22T17:05:41Z</time>
      </trkpt>
      <trkpt lat="44.06392" lon="5.71713">
        <ele>813.195</ele>
        <time>2018-12-22T17:05:42Z</time>
      </trkpt>
      <trkpt lat="44.06403" lon="5.71728">
        <ele>812.421</ele>
        <time>2018-12-22T17:05:43Z</time>
      </trkpt>
      <trkpt lat="44.06415" lon="5.71743">
        <ele>811.528</ele>
        <time>2018-12-22T17:05:44Z</time>
      </trkpt>
      <trkpt lat="44.06427" lon="5.71757">
        <ele>810.889</ele>
        <time>2018-12-22T17:05:45Z</time>
      </trkpt>
      <trkpt lat="44.06438" lon="5.71772">
        <ele>810.117</ele>
        <time>2018-12-22T17:05:46Z</time>
      </trkpt>
      <trkpt lat="44.06449" lon="5.71787">
        <ele>809.008</ele>
        <time>2018-12-22T17:05:47Z</time>
      </trkpt>
      <trkpt lat="44.06458" lon="5.71801">
        <ele>808.875</ele>
        <time>2018-12-22T17:05:48Z</time>
      </trkpt>
      <trkpt lat="44.06469" lon="5.71814">
        <ele>808.863</ele>
        <time>2018-12-22T17:05:49Z</time>
      </trkpt>
      <trkpt lat="44.06479" lon="5.71828">
        <ele>809.157</ele>
        <time>2018-12-22T17:05:50Z</time>
      </trkpt>
      <trkpt lat="44.06487" lon="5.71844">
        <ele>809.665</ele>
        <time>2018-12-22T17:05:51Z</time>
      </trkpt>
      <trkpt lat="44.06491" lon="5.71862">
        <ele>810.536</ele>
        <time>2018-12-22T17:05:52Z</time>
      </trkpt>
      <trkpt lat="44.06491" lon="5.7188">
        <ele>811.486</ele>
        <time>2018-12-22T17:05:53Z</time>
      </trkpt>
      <trkpt lat="44.06489" lon="5.71899">
        <ele>812.695</ele>
        <time>2018-12-22T17:05:54Z</time>
      </trkpt>
      <trkpt lat="44.06489" lon="5.71918">
        <ele>814.431</ele>
        <time>2018-12-22T17:05:55Z</time>
      </trkpt>
      <trkpt lat="44.06491" lon="5.71936">
        <ele>816.176</ele>
        <time>2018-12-22T17:05:56Z</time>
      </trkpt>
      <trkpt lat="44.06494" lon="5.71954">
        <ele>817.49</ele>
        <time>2018-12-22T17:05:57Z</time>
      </trkpt>
      <trkpt lat="44.06496" lon="5.71972">
        <ele>819.619</ele>
        <time>2018-12-22T17:05:58Z</time>
      </trkpt>
      <trkpt lat="44.06498" lon="5.71992">
        <ele>820.008</ele>
        <time>2018-12-22T17:05:59Z</time>
      </trkpt>
      <trkpt lat="44.06498" lon="5.72012">
        <ele>820.49</ele>
        <time>2018-12-22T17:06:00Z</time>
      </trkpt>
      <trkpt lat="44.06496" lon="5.72031">
        <ele>821.048</ele>
        <time>2018-12-22T17:06:01Z</time>
      </trkpt>
      <trkpt lat="44.06493" lon="5.72049">
        <ele>821.872</ele>
        <time>2018-12-22T17:06:02Z</time>
      </trkpt>
      <trkpt lat="44.06492" lon="5.72066">
        <ele>822.52</ele>
        <time>2018-12-22T17:06:03Z</time>
      </trkpt>
      <trkpt lat="44.06492" lon="5.7208">
        <ele>823.751</ele>
        <time>2018-12-22T17:06:04Z</time>
      </trkpt>
      <trkpt lat="44.06493" lon="5.72094">
        <ele>825.561</ele>
        <time>2018-12-22T17:06:05Z</time>
      </trkpt>
      <trkpt lat="44.06494" lon="5.72106">
        <ele>827.56</ele>
        <time>2018-12-22T17:06:06Z</time>
      </trkpt>
      <trkpt lat="44.06493" lon="5.72114">
        <ele>829.786</ele>
        <time>2018-12-22T17:06:07Z</time>
      </trkpt>
      <trkpt lat="44.06492" lon="5.72125">
        <ele>833.321</ele>
        <time>2018-12-22T17:06:09Z</time>
      </trkpt>
      <trkpt lat="44.06492" lon="5.72133">
        <ele>835.941</ele>
        <time>2018-12-22T17:06:12Z</time>
      </trkpt>
      <trkpt lat="44.06489" lon="5.7214">
        <ele>836.405</ele>
        <time>2018-12-22T17:06:17Z</time>
      </trkpt>
      <trkpt lat="44.06488" lon="5.72148">
        <ele>836.308</ele>
        <time>2018-12-22T17:06:19Z</time>
      </trkpt>
      <trkpt lat="44.06484" lon="5.72159">
        <ele>836.015</ele>
        <time>2018-12-22T17:06:20Z</time>
      </trkpt>
      <trkpt lat="44.06477" lon="5.72167">
        <ele>835.953</ele>
        <time>2018-12-22T17:06:21Z</time>
      </trkpt>
      <trkpt lat="44.06468" lon="5.72175">
        <ele>835.727</ele>
        <time>2018-12-22T17:06:22Z</time>
      </trkpt>
      <trkpt lat="44.0646" lon="5.72184">
        <ele>835.745</ele>
        <time>2018-12-22T17:06:23Z</time>
      </trkpt>
      <trkpt lat="44.06451" lon="5.72195">
        <ele>835.826</ele>
        <time>2018-12-22T17:06:24Z</time>
      </trkpt>
      <trkpt lat="44.06442" lon="5.72203">
        <ele>836.016</ele>
        <time>2018-12-22T17:06:25Z</time>
      </trkpt>
      <trkpt lat="44.06434" lon="5.72211">
        <ele>836.425</ele>
        <time>2018-12-22T17:06:26Z</time>
      </trkpt>
      <trkpt lat="44.06425" lon="5.72217">
        <ele>836.931</ele>
        <time>2018-12-22T17:06:27Z</time>
      </trkpt>
      <trkpt lat="44.06418" lon="5.72224">
        <ele>837.785</ele>
        <time>2018-12-22T17:06:28Z</time>
      </trkpt>
      <trkpt lat="44.06412" lon="5.72229">
        <ele>838.589</ele>
        <time>2018-12-22T17:06:29Z</time>
      </trkpt>
      <trkpt lat="44.06407" lon="5.72236">
        <ele>839.217</ele>
        <time>2018-12-22T17:06:30Z</time>
      </trkpt>
      <trkpt lat="44.06405" lon="5.72243">
        <ele>839.808</ele>
        <time>2018-12-22T17:06:31Z</time>
      </trkpt>
      <trkpt lat="44.06405" lon="5.72253">
        <ele>840.351</ele>
        <time>2018-12-22T17:06:32Z</time>
      </trkpt>
      <trkpt lat="44.0641" lon="5.72265">
        <ele>840.469</ele>
        <time>2018-12-22T17:06:33Z</time>
      </trkpt>
      <trkpt lat="44.0642" lon="5.72275">
        <ele>840.493</ele>
        <time>2018-12-22T17:06:34Z</time>
      </trkpt>
      <trkpt lat="44.06426" lon="5.72289">
        <ele>840.211</ele>
        <time>2018-12-22T17:06:35Z</time>
      </trkpt>
      <trkpt lat="44.06432" lon="5.72304">
        <ele>840.222</ele>
        <time>2018-12-22T17:06:36Z</time>
      </trkpt>
      <trkpt lat="44.06438" lon="5.72319">
        <ele>840.252</ele>
        <time>2018-12-22T17:06:37Z</time>
      </trkpt>
      <trkpt lat="44.06445" lon="5.72333">
        <ele>840.771</ele>
        <time>2018-12-22T17:06:38Z</time>
      </trkpt>
      <trkpt lat="44.06453" lon="5.72346">
        <ele>841.217</ele>
        <time>2018-12-22T17:06:39Z</time>
      </trkpt>
      <trkpt lat="44.06462" lon="5.72359">
        <ele>841.858</ele>
        <time>2018-12-22T17:06:40Z</time>
      </trkpt>
      <trkpt lat="44.06472" lon="5.72372">
        <ele>842.452</ele>
        <time>2018-12-22T17:06:41Z</time>
      </trkpt>
      <trkpt lat="44.06482" lon="5.72384">
        <ele>843.117</ele>
        <time>2018-12-22T17:06:42Z</time>
      </trkpt>
      <trkpt lat="44.06492" lon="5.72397">
        <ele>843.708</ele>
        <time>2018-12-22T17:06:43Z</time>
      </trkpt>
      <trkpt lat="44.06503" lon="5.72411">
        <ele>844.288</ele>
        <time>2018-12-22T17:06:44Z</time>
      </trkpt>
      <trkpt lat="44.06512" lon="5.72426">
        <ele>844.656</ele>
        <time>2018-12-22T17:06:45Z</time>
      </trkpt>
      <trkpt lat="44.06519" lon="5.72443">
        <ele>845.83</ele>
        <time>2018-12-22T17:06:46Z</time>
      </trkpt>
      <trkpt lat="44.06525" lon="5.7246">
        <ele>846.158</ele>
        <time>2018-12-22T17:06:47Z</time>
      </trkpt>
      <trkpt lat="44.06532" lon="5.72476">
        <ele>846.789</ele>
        <time>2018-12-22T17:06:48Z</time>
      </trkpt>
      <trkpt lat="44.06537" lon="5.72492">
        <ele>847.259</ele>
        <time>2018-12-22T17:06:49Z</time>
      </trkpt>
      <trkpt lat="44.06544" lon="5.72509">
        <ele>848.038</ele>
        <time>2018-12-22T17:06:50Z</time>
      </trkpt>
      <trkpt lat="44.06549" lon="5.72526">
        <ele>848.614</ele>
        <time>2018-12-22T17:06:51Z</time>
      </trkpt>
      <trkpt lat="44.06555" lon="5.72542">
        <ele>849.282</ele>
        <time>2018-12-22T17:06:52Z</time>
      </trkpt>
      <trkpt lat="44.0656" lon="5.72558">
        <ele>849.843</ele>
        <time>2018-12-22T17:06:53Z</time>
      </trkpt>
      <trkpt lat="44.06567" lon="5.72574">
        <ele>850.517</ele>
        <time>2018-12-22T17:06:54Z</time>
      </trkpt>
      <trkpt lat="44.06574" lon="5.7259">
        <ele>851.008</ele>
        <time>2018-12-22T17:06:55Z</time>
      </trkpt>
      <trkpt lat="44.06581" lon="5.72605">
        <ele>851.221</ele>
        <time>2018-12-22T17:06:56Z</time>
      </trkpt>
      <trkpt lat="44.06589" lon="5.72618">
        <ele>851.529</ele>
        <time>2018-12-22T17:06:57Z</time>
      </trkpt>
      <trkpt lat="44.06597" lon="5.72631">
        <ele>852.013</ele>
        <time>2018-12-22T17:06:58Z</time>
      </trkpt>
      <trkpt lat="44.06605" lon="5.72644">
        <ele>852.031</ele>
        <time>2018-12-22T17:06:59Z</time>
      </trkpt>
      <trkpt lat="44.06614" lon="5.72656">
        <ele>852.022</ele>
        <time>2018-12-22T17:07:00Z</time>
      </trkpt>
      <trkpt lat="44.06623" lon="5.7267">
        <ele>851.652</ele>
        <time>2018-12-22T17:07:01Z</time>
      </trkpt>
      <trkpt lat="44.0663" lon="5.72683">
        <ele>851.061</ele>
        <time>2018-12-22T17:07:02Z</time>
      </trkpt>
      <trkpt lat="44.06637" lon="5.72696">
        <ele>850.677</ele>
        <time>2018-12-22T17:07:03Z</time>
      </trkpt>
      <trkpt lat="44.06644" lon="5.72709">
        <ele>850.571</ele>
        <time>2018-12-22T17:07:04Z</time>
      </trkpt>
      <trkpt lat="44.0665" lon="5.72721">
        <ele>850.541</ele>
        <time>2018-12-22T17:07:05Z</time>
      </trkpt>
      <trkpt lat="44.06654" lon="5.72732">
        <ele>850.915</ele>
        <time>2018-12-22T17:07:06Z</time>
      </trkpt>
      <trkpt lat="44.06659" lon="5.72743">
        <ele>851.608</ele>
        <time>2018-12-22T17:07:07Z</time>
      </trkpt>
      <trkpt lat="44.06664" lon="5.72753">
        <ele>852.39</ele>
        <time>2018-12-22T17:07:08Z</time>
      </trkpt>
      <trkpt lat="44.06671" lon="5.72762">
        <ele>852.858</ele>
        <time>2018-12-22T17:07:09Z</time>
      </trkpt>
      <trkpt lat="44.06679" lon="5.72769">
        <ele>852.752</ele>
        <time>2018-12-22T17:07:10Z</time>
      </trkpt>
      <trkpt lat="44.06689" lon="5.72774">
        <ele>852.47</ele>
        <time>2018-12-22T17:07:11Z</time>
      </trkpt>
      <trkpt lat="44.06699" lon="5.72778">
        <ele>852.341</ele>
        <time>2018-12-22T17:07:12Z</time>
      </trkpt>
      <trkpt lat="44.0671" lon="5.72781">
        <ele>852.041</ele>
        <time>2018-12-22T17:07:13Z</time>
      </trkpt>
      <trkpt lat="44.0672" lon="5.72785">
        <ele>852.09</ele>
        <time>2018-12-22T17:07:14Z</time>
      </trkpt>
      <trkpt lat="44.0673" lon="5.72787">
        <ele>852.116</ele>
        <time>2018-12-22T17:07:15Z</time>
      </trkpt>
      <trkpt lat="44.0674" lon="5.72788">
        <ele>852.171</ele>
        <time>2018-12-22T17:07:16Z</time>
      </trkpt>
      <trkpt lat="44.0675" lon="5.72787">
        <ele>852.141</ele>
        <time>2018-12-22T17:07:17Z</time>
      </trkpt>
      <trkpt lat="44.0676" lon="5.72782">
        <ele>852.115</ele>
        <time>2018-12-22T17:07:18Z</time>
      </trkpt>
      <trkpt lat="44.0677" lon="5.72781">
        <ele>852.208</ele>
        <time>2018-12-22T17:07:19Z</time>
      </trkpt>
      <trkpt lat="44.06781" lon="5.7278">
        <ele>852.49</ele>
        <time>2018-12-22T17:07:20Z</time>
      </trkpt>
      <trkpt lat="44.06791" lon="5.72782">
        <ele>852.618</ele>
        <time>2018-12-22T17:07:21Z</time>
      </trkpt>
      <trkpt lat="44.06803" lon="5.72784">
        <ele>853.712</ele>
        <time>2018-12-22T17:07:22Z</time>
      </trkpt>
      <trkpt lat="44.06813" lon="5.72786">
        <ele>854.33</ele>
        <time>2018-12-22T17:07:23Z</time>
      </trkpt>
      <trkpt lat="44.06823" lon="5.72788">
        <ele>854.981</ele>
        <time>2018-12-22T17:07:24Z</time>
      </trkpt>
      <trkpt lat="44.06833" lon="5.72792">
        <ele>855.541</ele>
        <time>2018-12-22T17:07:25Z</time>
      </trkpt>
      <trkpt lat="44.06841" lon="5.72794">
        <ele>856.15</ele>
        <time>2018-12-22T17:07:26Z</time>
      </trkpt>
      <trkpt lat="44.0685" lon="5.72796">
        <ele>856.346</ele>
        <time>2018-12-22T17:07:27Z</time>
      </trkpt>
      <trkpt lat="44.06858" lon="5.72795">
        <ele>856.798</ele>
        <time>2018-12-22T17:07:28Z</time>
      </trkpt>
      <trkpt lat="44.06868" lon="5.72793">
        <ele>857.115</ele>
        <time>2018-12-22T17:07:29Z</time>
      </trkpt>
      <trkpt lat="44.06879" lon="5.7279">
        <ele>857.426</ele>
        <time>2018-12-22T17:07:30Z</time>
      </trkpt>
      <trkpt lat="44.0689" lon="5.72784">
        <ele>857.808</ele>
        <time>2018-12-22T17:07:31Z</time>
      </trkpt>
      <trkpt lat="44.069" lon="5.72777">
        <ele>858.482</ele>
        <time>2018-12-22T17:07:32Z</time>
      </trkpt>
      <trkpt lat="44.06909" lon="5.72769">
        <ele>859.05</ele>
        <time>2018-12-22T17:07:33Z</time>
      </trkpt>
      <trkpt lat="44.06919" lon="5.72762">
        <ele>859.844</ele>
        <time>2018-12-22T17:07:34Z</time>
      </trkpt>
      <trkpt lat="44.06931" lon="5.72759">
        <ele>859.932</ele>
        <time>2018-12-22T17:07:35Z</time>
      </trkpt>
      <trkpt lat="44.06941" lon="5.72756">
        <ele>859.973</ele>
        <time>2018-12-22T17:07:36Z</time>
      </trkpt>
      <trkpt lat="44.0695" lon="5.72755">
        <ele>860.523</ele>
        <time>2018-12-22T17:07:37Z</time>
      </trkpt>
      <trkpt lat="44.06958" lon="5.72754">
        <ele>861.582</ele>
        <time>2018-12-22T17:07:38Z</time>
      </trkpt>
      <trkpt lat="44.06967" lon="5.72755">
        <ele>862.348</ele>
        <time>2018-12-22T17:07:39Z</time>
      </trkpt>
      <trkpt lat="44.06978" lon="5.72756">
        <ele>863.264</ele>
        <time>2018-12-22T17:07:40Z</time>
      </trkpt>
      <trkpt lat="44.06989" lon="5.7276">
        <ele>864.106</ele>
        <time>2018-12-22T17:07:41Z</time>
      </trkpt>
      <trkpt lat="44.07" lon="5.72763">
        <ele>864.116</ele>
        <time>2018-12-22T17:07:42Z</time>
      </trkpt>
      <trkpt lat="44.07013" lon="5.7277">
        <ele>864.008</ele>
        <time>2018-12-22T17:07:43Z</time>
      </trkpt>
      <trkpt lat="44.07025" lon="5.72777">
        <ele>863.949</ele>
        <time>2018-12-22T17:07:44Z</time>
      </trkpt>
      <trkpt lat="44.07039" lon="5.72784">
        <ele>863.697</ele>
        <time>2018-12-22T17:07:45Z</time>
      </trkpt>
      <trkpt lat="44.07053" lon="5.72792">
        <ele>863.261</ele>
        <time>2018-12-22T17:07:46Z</time>
      </trkpt>
      <trkpt lat="44.07069" lon="5.72798">
        <ele>862.859</ele>
        <time>2018-12-22T17:07:47Z</time>
      </trkpt>
      <trkpt lat="44.07086" lon="5.72803">
        <ele>862.26</ele>
        <time>2018-12-22T17:07:48Z</time>
      </trkpt>
      <trkpt lat="44.07106" lon="5.72809">
        <ele>861.93</ele>
        <time>2018-12-22T17:07:49Z</time>
      </trkpt>
      <trkpt lat="44.07127" lon="5.72818">
        <ele>861.939</ele>
        <time>2018-12-22T17:07:50Z</time>
      </trkpt>
      <trkpt lat="44.07148" lon="5.72825">
        <ele>862.955</ele>
        <time>2018-12-22T17:07:51Z</time>
      </trkpt>
      <trkpt lat="44.0717" lon="5.72832">
        <ele>864.047</ele>
        <time>2018-12-22T17:07:52Z</time>
      </trkpt>
      <trkpt lat="44.07191" lon="5.7284">
        <ele>866.029</ele>
        <time>2018-12-22T17:07:53Z</time>
      </trkpt>
      <trkpt lat="44.07213" lon="5.72846">
        <ele>867.321</ele>
        <time>2018-12-22T17:07:54Z</time>
      </trkpt>
      <trkpt lat="44.07233" lon="5.72851">
        <ele>868.608</ele>
        <time>2018-12-22T17:07:55Z</time>
      </trkpt>
      <trkpt lat="44.07251" lon="5.72853">
        <ele>870.137</ele>
        <time>2018-12-22T17:07:56Z</time>
      </trkpt>
      <trkpt lat="44.07268" lon="5.72855">
        <ele>871.045</ele>
        <time>2018-12-22T17:07:57Z</time>
      </trkpt>
      <trkpt lat="44.07283" lon="5.72857">
        <ele>871.969</ele>
        <time>2018-12-22T17:07:58Z</time>
      </trkpt>
      <trkpt lat="44.07298" lon="5.72857">
        <ele>874.317</ele>
        <time>2018-12-22T17:07:59Z</time>
      </trkpt>
      <trkpt lat="44.07313" lon="5.72857">
        <ele>874.858</ele>
        <time>2018-12-22T17:08:00Z</time>
      </trkpt>
      <trkpt lat="44.07327" lon="5.72857">
        <ele>875.488</ele>
        <time>2018-12-22T17:08:01Z</time>
      </trkpt>
      <trkpt lat="44.07341" lon="5.72857">
        <ele>876.377</ele>
        <time>2018-12-22T17:08:02Z</time>
      </trkpt>
      <trkpt lat="44.07355" lon="5.72856">
        <ele>877.053</ele>
        <time>2018-12-22T17:08:03Z</time>
      </trkpt>
      <trkpt lat="44.07368" lon="5.72855">
        <ele>877.885</ele>
        <time>2018-12-22T17:08:04Z</time>
      </trkpt>
      <trkpt lat="44.07382" lon="5.72855">
        <ele>878.589</ele>
        <time>2018-12-22T17:08:05Z</time>
      </trkpt>
      <trkpt lat="44.07394" lon="5.72856">
        <ele>880.317</ele>
        <time>2018-12-22T17:08:06Z</time>
      </trkpt>
      <trkpt lat="44.07405" lon="5.72858">
        <ele>881.608</ele>
        <time>2018-12-22T17:08:07Z</time>
      </trkpt>
      <trkpt lat="44.07415" lon="5.72861">
        <ele>883.521</ele>
        <time>2018-12-22T17:08:08Z</time>
      </trkpt>
      <trkpt lat="44.07422" lon="5.72863">
        <ele>887.099</ele>
        <time>2018-12-22T17:08:09Z</time>
      </trkpt>
      <trkpt lat="44.07428" lon="5.72865">
        <ele>887.013</ele>
        <time>2018-12-22T17:08:10Z</time>
      </trkpt>
      <trkpt lat="44.07435" lon="5.72867">
        <ele>889.021</ele>
        <time>2018-12-22T17:08:11Z</time>
      </trkpt>
      <trkpt lat="44.0744" lon="5.7287">
        <ele>889.522</ele>
        <time>2018-12-22T17:08:12Z</time>
      </trkpt>
      <trkpt lat="44.07445" lon="5.72871">
        <ele>890.182</ele>
        <time>2018-12-22T17:08:13Z</time>
      </trkpt>
      <trkpt lat="44.0745" lon="5.72873">
        <ele>890.311</ele>
        <time>2018-12-22T17:08:14Z</time>
      </trkpt>
      <trkpt lat="44.07454" lon="5.72874">
        <ele>890.587</ele>
        <time>2018-12-22T17:08:15Z</time>
      </trkpt>
      <trkpt lat="44.0746" lon="5.72875">
        <ele>890.594</ele>
        <time>2018-12-22T17:08:16Z</time>
      </trkpt>
      <trkpt lat="44.07466" lon="5.72876">
        <ele>890.557</ele>
        <time>2018-12-22T17:08:17Z</time>
      </trkpt>
      <trkpt lat="44.07473" lon="5.72878">
        <ele>890.422</ele>
        <time>2018-12-22T17:08:18Z</time>
      </trkpt>
      <trkpt lat="44.07479" lon="5.72879">
        <ele>890.308</ele>
        <time>2018-12-22T17:08:19Z</time>
      </trkpt>
      <trkpt lat="44.07485" lon="5.72882">
        <ele>890.292</ele>
        <time>2018-12-22T17:08:20Z</time>
      </trkpt>
      <trkpt lat="44.07492" lon="5.72887">
        <ele>890.28</ele>
        <time>2018-12-22T17:08:21Z</time>
      </trkpt>
      <trkpt lat="44.07497" lon="5.72894">
        <ele>889.934</ele>
        <time>2018-12-22T17:08:22Z</time>
      </trkpt>
      <trkpt lat="44.07504" lon="5.72902">
        <ele>889.912</ele>
        <time>2018-12-22T17:08:23Z</time>
      </trkpt>
      <trkpt lat="44.07513" lon="5.72913">
        <ele>890.413</ele>
        <time>2018-12-22T17:08:24Z</time>
      </trkpt>
      <trkpt lat="44.07522" lon="5.72924">
        <ele>890.793</ele>
        <time>2018-12-22T17:08:25Z</time>
      </trkpt>
      <trkpt lat="44.07532" lon="5.72933">
        <ele>891.682</ele>
        <time>2018-12-22T17:08:26Z</time>
      </trkpt>
      <trkpt lat="44.07541" lon="5.72941">
        <ele>892.858</ele>
        <time>2018-12-22T17:08:27Z</time>
      </trkpt>
      <trkpt lat="44.07549" lon="5.72948">
        <ele>893.728</ele>
        <time>2018-12-22T17:08:28Z</time>
      </trkpt>
      <trkpt lat="44.07557" lon="5.72957">
        <ele>894.389</ele>
        <time>2018-12-22T17:08:29Z</time>
      </trkpt>
      <trkpt lat="44.07566" lon="5.72968">
        <ele>894.717</ele>
        <time>2018-12-22T17:08:30Z</time>
      </trkpt>
      <trkpt lat="44.07575" lon="5.72982">
        <ele>895.008</ele>
        <time>2018-12-22T17:08:31Z</time>
      </trkpt>
      <trkpt lat="44.07584" lon="5.72996">
        <ele>895.345</ele>
        <time>2018-12-22T17:08:32Z</time>
      </trkpt>
      <trkpt lat="44.07592" lon="5.73007">
        <ele>895.343</ele>
        <time>2018-12-22T17:08:33Z</time>
      </trkpt>
      <trkpt lat="44.076" lon="5.73015">
        <ele>895.767</ele>
        <time>2018-12-22T17:08:34Z</time>
      </trkpt>
      <trkpt lat="44.07608" lon="5.73024">
        <ele>895.755</ele>
        <time>2018-12-22T17:08:35Z</time>
      </trkpt>
      <trkpt lat="44.07615" lon="5.73034">
        <ele>895.726</ele>
        <time>2018-12-22T17:08:36Z</time>
      </trkpt>
      <trkpt lat="44.07621" lon="5.73045">
        <ele>895.776</ele>
        <time>2018-12-22T17:08:37Z</time>
      </trkpt>
      <trkpt lat="44.07629" lon="5.73056">
        <ele>895.845</ele>
        <time>2018-12-22T17:08:38Z</time>
      </trkpt>
      <trkpt lat="44.07636" lon="5.73068">
        <ele>895.811</ele>
        <time>2018-12-22T17:08:39Z</time>
      </trkpt>
      <trkpt lat="44.07645" lon="5.7308">
        <ele>896.011</ele>
        <time>2018-12-22T17:08:40Z</time>
      </trkpt>
      <trkpt lat="44.07653" lon="5.73092">
        <ele>897.221</ele>
        <time>2018-12-22T17:08:41Z</time>
      </trkpt>
      <trkpt lat="44.07663" lon="5.73105">
        <ele>897.203</ele>
        <time>2018-12-22T17:08:42Z</time>
      </trkpt>
      <trkpt lat="44.07672" lon="5.73117">
        <ele>897.208</ele>
        <time>2018-12-22T17:08:43Z</time>
      </trkpt>
      <trkpt lat="44.07681" lon="5.73128">
        <ele>897.334</ele>
        <time>2018-12-22T17:08:44Z</time>
      </trkpt>
      <trkpt lat="44.0769" lon="5.73139">
        <ele>897.952</ele>
        <time>2018-12-22T17:08:45Z</time>
      </trkpt>
      <trkpt lat="44.077" lon="5.73148">
        <ele>899.076</ele>
        <time>2018-12-22T17:08:46Z</time>
      </trkpt>
      <trkpt lat="44.07711" lon="5.73155">
        <ele>899.824</ele>
        <time>2018-12-22T17:08:47Z</time>
      </trkpt>
      <trkpt lat="44.07721" lon="5.73163">
        <ele>901.335</ele>
        <time>2018-12-22T17:08:48Z</time>
      </trkpt>
      <trkpt lat="44.07732" lon="5.73166">
        <ele>902.515</ele>
        <time>2018-12-22T17:08:49Z</time>
      </trkpt>
      <trkpt lat="44.07744" lon="5.73167">
        <ele>903.694</ele>
        <time>2018-12-22T17:08:50Z</time>
      </trkpt>
      <trkpt lat="44.07757" lon="5.73168">
        <ele>904.44</ele>
        <time>2018-12-22T17:08:51Z</time>
      </trkpt>
      <trkpt lat="44.07769" lon="5.7317">
        <ele>905.265</ele>
        <time>2018-12-22T17:08:52Z</time>
      </trkpt>
      <trkpt lat="44.07781" lon="5.73171">
        <ele>905.868</ele>
        <time>2018-12-22T17:08:53Z</time>
      </trkpt>
      <trkpt lat="44.07792" lon="5.73171">
        <ele>906.514</ele>
        <time>2018-12-22T17:08:54Z</time>
      </trkpt>
      <trkpt lat="44.07806" lon="5.73172">
        <ele>906.808</ele>
        <time>2018-12-22T17:08:55Z</time>
      </trkpt>
      <trkpt lat="44.07819" lon="5.73173">
        <ele>907.099</ele>
        <time>2018-12-22T17:08:56Z</time>
      </trkpt>
      <trkpt lat="44.07833" lon="5.73171">
        <ele>907.787</ele>
        <time>2018-12-22T17:08:57Z</time>
      </trkpt>
      <trkpt lat="44.07846" lon="5.7317">
        <ele>907.761</ele>
        <time>2018-12-22T17:08:58Z</time>
      </trkpt>
      <trkpt lat="44.07859" lon="5.73169">
        <ele>908.079</ele>
        <time>2018-12-22T17:08:59Z</time>
      </trkpt>
      <trkpt lat="44.07872" lon="5.73169">
        <ele>908.31</ele>
        <time>2018-12-22T17:09:00Z</time>
      </trkpt>
      <trkpt lat="44.07884" lon="5.73168">
        <ele>908.92</ele>
        <time>2018-12-22T17:09:01Z</time>
      </trkpt>
      <trkpt lat="44.07896" lon="5.73168">
        <ele>909.229</ele>
        <time>2018-12-22T17:09:02Z</time>
      </trkpt>
      <trkpt lat="44.07909" lon="5.73166">
        <ele>910.095</ele>
        <time>2018-12-22T17:09:03Z</time>
      </trkpt>
      <trkpt lat="44.07921" lon="5.73168">
        <ele>911.083</ele>
        <time>2018-12-22T17:09:04Z</time>
      </trkpt>
      <trkpt lat="44.07933" lon="5.73171">
        <ele>911.725</ele>
        <time>2018-12-22T17:09:05Z</time>
      </trkpt>
      <trkpt lat="44.07946" lon="5.73174">
        <ele>912.617</ele>
        <time>2018-12-22T17:09:06Z</time>
      </trkpt>
      <trkpt lat="44.0796" lon="5.73179">
        <ele>913.308</ele>
        <time>2018-12-22T17:09:07Z</time>
      </trkpt>
      <trkpt lat="44.07974" lon="5.73185">
        <ele>914.141</ele>
        <time>2018-12-22T17:09:08Z</time>
      </trkpt>
      <trkpt lat="44.07987" lon="5.7319">
        <ele>914.619</ele>
        <time>2018-12-22T17:09:09Z</time>
      </trkpt>
      <trkpt lat="44.08001" lon="5.73194">
        <ele>915.783</ele>
        <time>2018-12-22T17:09:10Z</time>
      </trkpt>
      <trkpt lat="44.08015" lon="5.73198">
        <ele>916.241</ele>
        <time>2018-12-22T17:09:11Z</time>
      </trkpt>
      <trkpt lat="44.08028" lon="5.732">
        <ele>916.712</ele>
        <time>2018-12-22T17:09:12Z</time>
      </trkpt>
      <trkpt lat="44.08041" lon="5.73205">
        <ele>917.232</ele>
        <time>2018-12-22T17:09:13Z</time>
      </trkpt>
      <trkpt lat="44.08054" lon="5.73209">
        <ele>918.081</ele>
        <time>2018-12-22T17:09:14Z</time>
      </trkpt>
      <trkpt lat="44.08067" lon="5.73212">
        <ele>919.077</ele>
        <time>2018-12-22T17:09:15Z</time>
      </trkpt>
      <trkpt lat="44.08079" lon="5.73217">
        <ele>919.846</ele>
        <time>2018-12-22T17:09:16Z</time>
      </trkpt>
      <trkpt lat="44.08092" lon="5.7322">
        <ele>921.088</ele>
        <time>2018-12-22T17:09:17Z</time>
      </trkpt>
      <trkpt lat="44.08103" lon="5.73224">
        <ele>921.816</ele>
        <time>2018-12-22T17:09:18Z</time>
      </trkpt>
      <trkpt lat="44.08113" lon="5.73227">
        <ele>922.508</ele>
        <time>2018-12-22T17:09:19Z</time>
      </trkpt>
      <trkpt lat="44.08123" lon="5.7323">
        <ele>923.077</ele>
        <time>2018-12-22T17:09:20Z</time>
      </trkpt>
      <trkpt lat="44.08133" lon="5.73231">
        <ele>924.625</ele>
        <time>2018-12-22T17:09:21Z</time>
      </trkpt>
      <trkpt lat="44.08143" lon="5.73232">
        <ele>925.629</ele>
        <time>2018-12-22T17:09:22Z</time>
      </trkpt>
      <trkpt lat="44.08154" lon="5.73236">
        <ele>926.437</ele>
        <time>2018-12-22T17:09:23Z</time>
      </trkpt>
      <trkpt lat="44.08166" lon="5.73242">
        <ele>926.848</ele>
        <time>2018-12-22T17:09:24Z</time>
      </trkpt>
      <trkpt lat="44.08177" lon="5.7325">
        <ele>927.098</ele>
        <time>2018-12-22T17:09:25Z</time>
      </trkpt>
      <trkpt lat="44.08186" lon="5.73259">
        <ele>927.347</ele>
        <time>2018-12-22T17:09:26Z</time>
      </trkpt>
      <trkpt lat="44.08195" lon="5.73267">
        <ele>927.453</ele>
        <time>2018-12-22T17:09:27Z</time>
      </trkpt>
      <trkpt lat="44.08203" lon="5.73276">
        <ele>927.885</ele>
        <time>2018-12-22T17:09:28Z</time>
      </trkpt>
      <trkpt lat="44.08212" lon="5.73284">
        <ele>928.089</ele>
        <time>2018-12-22T17:09:29Z</time>
      </trkpt>
      <trkpt lat="44.0822" lon="5.73291">
        <ele>928.117</ele>
        <time>2018-12-22T17:09:30Z</time>
      </trkpt>
      <trkpt lat="44.0823" lon="5.73298">
        <ele>928.208</ele>
        <time>2018-12-22T17:09:31Z</time>
      </trkpt>
      <trkpt lat="44.0824" lon="5.73305">
        <ele>928.411</ele>
        <time>2018-12-22T17:09:32Z</time>
      </trkpt>
      <trkpt lat="44.08249" lon="5.73312">
        <ele>929.029</ele>
        <time>2018-12-22T17:09:33Z</time>
      </trkpt>
      <trkpt lat="44.08256" lon="5.73317">
        <ele>931.593</ele>
        <time>2018-12-22T17:09:34Z</time>
      </trkpt>
      <trkpt lat="44.08261" lon="5.73323">
        <ele>933.111</ele>
        <time>2018-12-22T17:09:35Z</time>
      </trkpt>
      <trkpt lat="44.08265" lon="5.73329">
        <ele>934.742</ele>
        <time>2018-12-22T17:09:36Z</time>
      </trkpt>
      <trkpt lat="44.08267" lon="5.73335">
        <ele>935.932</ele>
        <time>2018-12-22T17:09:37Z</time>
      </trkpt>
      <trkpt lat="44.08267" lon="5.73342">
        <ele>936.611</ele>
        <time>2018-12-22T17:09:38Z</time>
      </trkpt>
      <trkpt lat="44.08266" lon="5.73352">
        <ele>936.957</ele>
        <time>2018-12-22T17:09:39Z</time>
      </trkpt>
      <trkpt lat="44.08264" lon="5.73363">
        <ele>937.522</ele>
        <time>2018-12-22T17:09:40Z</time>
      </trkpt>
      <trkpt lat="44.08263" lon="5.73378">
        <ele>937.662</ele>
        <time>2018-12-22T17:09:41Z</time>
      </trkpt>
      <trkpt lat="44.0826" lon="5.73392">
        <ele>937.708</ele>
        <time>2018-12-22T17:09:42Z</time>
      </trkpt>
      <trkpt lat="44.08257" lon="5.73406">
        <ele>937.908</ele>
        <time>2018-12-22T17:09:43Z</time>
      </trkpt>
      <trkpt lat="44.08254" lon="5.73422">
        <ele>938.255</ele>
        <time>2018-12-22T17:09:44Z</time>
      </trkpt>
      <trkpt lat="44.08252" lon="5.73437">
        <ele>938.523</ele>
        <time>2018-12-22T17:09:45Z</time>
      </trkpt>
      <trkpt lat="44.08251" lon="5.73454">
        <ele>939.167</ele>
        <time>2018-12-22T17:09:46Z</time>
      </trkpt>
      <trkpt lat="44.08253" lon="5.73471">
        <ele>940.025</ele>
        <time>2018-12-22T17:09:47Z</time>
      </trkpt>
      <trkpt lat="44.08255" lon="5.73488">
        <ele>940.896</ele>
        <time>2018-12-22T17:09:48Z</time>
      </trkpt>
      <trkpt lat="44.08257" lon="5.73503">
        <ele>941.566</ele>
        <time>2018-12-22T17:09:49Z</time>
      </trkpt>
      <trkpt lat="44.0826" lon="5.73517">
        <ele>942.825</ele>
        <time>2018-12-22T17:09:50Z</time>
      </trkpt>
      <trkpt lat="44.08265" lon="5.73532">
        <ele>943.871</ele>
        <time>2018-12-22T17:09:51Z</time>
      </trkpt>
      <trkpt lat="44.0827" lon="5.73545">
        <ele>944.521</ele>
        <time>2018-12-22T17:09:52Z</time>
      </trkpt>
      <trkpt lat="44.08274" lon="5.73557">
        <ele>945.241</ele>
        <time>2018-12-22T17:09:53Z</time>
      </trkpt>
      <trkpt lat="44.08278" lon="5.73564">
        <ele>945.905</ele>
        <time>2018-12-22T17:09:54Z</time>
      </trkpt>
      <trkpt lat="44.08279" lon="5.73575">
        <ele>947.208</ele>
        <time>2018-12-22T17:09:56Z</time>
      </trkpt>
      <trkpt lat="44.08277" lon="5.73584">
        <ele>948.715</ele>
        <time>2018-12-22T17:09:58Z</time>
      </trkpt>
      <trkpt lat="44.08272" lon="5.73586">
        <ele>948.773</ele>
        <time>2018-12-22T17:09:59Z</time>
      </trkpt>
      <trkpt lat="44.08265" lon="5.73582">
        <ele>948.247</ele>
        <time>2018-12-22T17:10:01Z</time>
      </trkpt>
      <trkpt lat="44.0826" lon="5.73578">
        <ele>947.925</ele>
        <time>2018-12-22T17:10:02Z</time>
      </trkpt>
      <trkpt lat="44.08255" lon="5.73571">
        <ele>947.416</ele>
        <time>2018-12-22T17:10:03Z</time>
      </trkpt>
      <trkpt lat="44.08248" lon="5.73564">
        <ele>946.796</ele>
        <time>2018-12-22T17:10:04Z</time>
      </trkpt>
      <trkpt lat="44.08241" lon="5.73553">
        <ele>946.015</ele>
        <time>2018-12-22T17:10:05Z</time>
      </trkpt>
      <trkpt lat="44.08235" lon="5.73543">
        <ele>945.541</ele>
        <time>2018-12-22T17:10:06Z</time>
      </trkpt>
      <trkpt lat="44.08226" lon="5.73531">
        <ele>944.735</ele>
        <time>2018-12-22T17:10:07Z</time>
      </trkpt>
      <trkpt lat="44.08218" lon="5.73517">
        <ele>943.686</ele>
        <time>2018-12-22T17:10:08Z</time>
      </trkpt>
      <trkpt lat="44.08209" lon="5.73502">
        <ele>942.614</ele>
        <time>2018-12-22T17:10:09Z</time>
      </trkpt>
      <trkpt lat="44.08201" lon="5.73486">
        <ele>941.508</ele>
        <time>2018-12-22T17:10:10Z</time>
      </trkpt>
      <trkpt lat="44.08193" lon="5.7347">
        <ele>942.626</ele>
        <time>2018-12-22T17:10:11Z</time>
      </trkpt>
      <trkpt lat="44.08187" lon="5.73455">
        <ele>944.794</ele>
        <time>2018-12-22T17:10:12Z</time>
      </trkpt>
      <trkpt lat="44.08181" lon="5.7344">
        <ele>947.878</ele>
        <time>2018-12-22T17:10:13Z</time>
      </trkpt>
      <trkpt lat="44.08176" lon="5.73429">
        <ele>951.756</ele>
        <time>2018-12-22T17:10:14Z</time>
      </trkpt>
      <trkpt lat="44.08172" lon="5.73421">
        <ele>954.667</ele>
        <time>2018-12-22T17:10:15Z</time>
      </trkpt>
      <trkpt lat="44.08169" lon="5.73415">
        <ele>956.627</ele>
        <time>2018-12-22T17:10:16Z</time>
      </trkpt>
      <trkpt lat="44.08161" lon="5.73411">
        <ele>958.596</ele>
        <time>2018-12-22T17:10:18Z</time>
      </trkpt>
      <trkpt lat="44.08156" lon="5.73415">
        <ele>958.692</ele>
        <time>2018-12-22T17:10:19Z</time>
      </trkpt>
      <trkpt lat="44.08153" lon="5.7342">
        <ele>958.651</ele>
        <time>2018-12-22T17:10:20Z</time>
      </trkpt>
      <trkpt lat="44.08149" lon="5.73433">
        <ele>958.501</ele>
        <time>2018-12-22T17:10:21Z</time>
      </trkpt>
      <trkpt lat="44.08148" lon="5.73446">
        <ele>958.711</ele>
        <time>2018-12-22T17:10:22Z</time>
      </trkpt>
      <trkpt lat="44.08149" lon="5.73456">
        <ele>959.208</ele>
        <time>2018-12-22T17:10:23Z</time>
      </trkpt>
      <trkpt lat="44.08148" lon="5.73464">
        <ele>959.528</ele>
        <time>2018-12-22T17:10:24Z</time>
      </trkpt>
      <trkpt lat="44.08147" lon="5.73472">
        <ele>960.496</ele>
        <time>2018-12-22T17:10:25Z</time>
      </trkpt>
      <trkpt lat="44.08146" lon="5.7348">
        <ele>960.97</ele>
        <time>2018-12-22T17:10:26Z</time>
      </trkpt>
      <trkpt lat="44.08144" lon="5.7349">
        <ele>961.528</ele>
        <time>2018-12-22T17:10:27Z</time>
      </trkpt>
      <trkpt lat="44.08143" lon="5.73499">
        <ele>961.749</ele>
        <time>2018-12-22T17:10:28Z</time>
      </trkpt>
      <trkpt lat="44.08141" lon="5.73508">
        <ele>962.569</ele>
        <time>2018-12-22T17:10:29Z</time>
      </trkpt>
      <trkpt lat="44.0814" lon="5.73517">
        <ele>962.678</ele>
        <time>2018-12-22T17:10:30Z</time>
      </trkpt>
      <trkpt lat="44.08139" lon="5.73525">
        <ele>963.044</ele>
        <time>2018-12-22T17:10:31Z</time>
      </trkpt>
      <trkpt lat="44.08137" lon="5.73535">
        <ele>963.443</ele>
        <time>2018-12-22T17:10:32Z</time>
      </trkpt>
      <trkpt lat="44.08137" lon="5.73548">
        <ele>964.864</ele>
        <time>2018-12-22T17:10:33Z</time>
      </trkpt>
      <trkpt lat="44.08138" lon="5.73562">
        <ele>968.61</ele>
        <time>2018-12-22T17:10:34Z</time>
      </trkpt>
      <trkpt lat="44.08142" lon="5.73577">
        <ele>970.908</ele>
        <time>2018-12-22T17:10:35Z</time>
      </trkpt>
      <trkpt lat="44.08145" lon="5.73592">
        <ele>972.897</ele>
        <time>2018-12-22T17:10:36Z</time>
      </trkpt>
      <trkpt lat="44.08148" lon="5.73605">
        <ele>974.265</ele>
        <time>2018-12-22T17:10:37Z</time>
      </trkpt>
      <trkpt lat="44.0815" lon="5.73618">
        <ele>975.139</ele>
        <time>2018-12-22T17:10:38Z</time>
      </trkpt>
      <trkpt lat="44.08151" lon="5.73632">
        <ele>976.737</ele>
        <time>2018-12-22T17:10:39Z</time>
      </trkpt>
      <trkpt lat="44.08153" lon="5.73644">
        <ele>978.348</ele>
        <time>2018-12-22T17:10:40Z</time>
      </trkpt>
      <trkpt lat="44.08154" lon="5.73656">
        <ele>979.948</ele>
        <time>2018-12-22T17:10:41Z</time>
      </trkpt>
      <trkpt lat="44.08155" lon="5.73668">
        <ele>981.627</ele>
        <time>2018-12-22T17:10:42Z</time>
      </trkpt>
      <trkpt lat="44.08157" lon="5.73677">
        <ele>983.383</ele>
        <time>2018-12-22T17:10:43Z</time>
      </trkpt>
      <trkpt lat="44.08161" lon="5.73684">
        <ele>985.089</ele>
        <time>2018-12-22T17:10:44Z</time>
      </trkpt>
      <trkpt lat="44.08163" lon="5.73692">
        <ele>986.606</ele>
        <time>2018-12-22T17:10:45Z</time>
      </trkpt>
      <trkpt lat="44.08163" lon="5.73701">
        <ele>988.526</ele>
        <time>2018-12-22T17:10:46Z</time>
      </trkpt>
      <trkpt lat="44.08164" lon="5.73711">
        <ele>992.308</ele>
        <time>2018-12-22T17:10:47Z</time>
      </trkpt>
      <trkpt lat="44.08164" lon="5.7372">
        <ele>994.171</ele>
        <time>2018-12-22T17:10:48Z</time>
      </trkpt>
      <trkpt lat="44.08165" lon="5.73729">
        <ele>995.639</ele>
        <time>2018-12-22T17:10:49Z</time>
      </trkpt>
      <trkpt lat="44.08165" lon="5.73739">
        <ele>997.063</ele>
        <time>2018-12-22T17:10:50Z</time>
      </trkpt>
      <trkpt lat="44.08166" lon="5.7375">
        <ele>998.331</ele>
        <time>2018-12-22T17:10:51Z</time>
      </trkpt>
      <trkpt lat="44.08168" lon="5.73762">
        <ele>1000.022</ele>
        <time>2018-12-22T17:10:52Z</time>
      </trkpt>
      <trkpt lat="44.08171" lon="5.73773">
        <ele>1001.172</ele>
        <time>2018-12-22T17:10:53Z</time>
      </trkpt>
      <trkpt lat="44.08172" lon="5.73784">
        <ele>1002.851</ele>
        <time>2018-12-22T17:10:54Z</time>
      </trkpt>
      <trkpt lat="44.08173" lon="5.73797">
        <ele>1004.647</ele>
        <time>2018-12-22T17:10:55Z</time>
      </trkpt>
      <trkpt lat="44.08173" lon="5.7381">
        <ele>1006.468</ele>
        <time>2018-12-22T17:10:56Z</time>
      </trkpt>
      <trkpt lat="44.08175" lon="5.73821">
        <ele>1008.342</ele>
        <time>2018-12-22T17:10:57Z</time>
      </trkpt>
      <trkpt lat="44.08178" lon="5.73832">
        <ele>1011.526</ele>
        <time>2018-12-22T17:10:58Z</time>
      </trkpt>
      <trkpt lat="44.08181" lon="5.73843">
        <ele>1012.808</ele>
        <time>2018-12-22T17:10:59Z</time>
      </trkpt>
      <trkpt lat="44.08182" lon="5.73856">
        <ele>1013.769</ele>
        <time>2018-12-22T17:11:00Z</time>
      </trkpt>
      <trkpt lat="44.08182" lon="5.73871">
        <ele>1014.987</ele>
        <time>2018-12-22T17:11:01Z</time>
      </trkpt>
      <trkpt lat="44.08183" lon="5.73885">
        <ele>1016.581</ele>
        <time>2018-12-22T17:11:02Z</time>
      </trkpt>
      <trkpt lat="44.08184" lon="5.73898">
        <ele>1018.349</ele>
        <time>2018-12-22T17:11:03Z</time>
      </trkpt>
      <trkpt lat="44.08184" lon="5.7391">
        <ele>1020.18</ele>
        <time>2018-12-22T17:11:04Z</time>
      </trkpt>
      <trkpt lat="44.08184" lon="5.73922">
        <ele>1022.68</ele>
        <time>2018-12-22T17:11:05Z</time>
      </trkpt>
      <trkpt lat="44.08183" lon="5.73936">
        <ele>1023.689</ele>
        <time>2018-12-22T17:11:06Z</time>
      </trkpt>
      <trkpt lat="44.08183" lon="5.73951">
        <ele>1024.685</ele>
        <time>2018-12-22T17:11:07Z</time>
      </trkpt>
      <trkpt lat="44.08184" lon="5.73968">
        <ele>1025.313</ele>
        <time>2018-12-22T17:11:08Z</time>
      </trkpt>
      <trkpt lat="44.08185" lon="5.73987">
        <ele>1026.643</ele>
        <time>2018-12-22T17:11:09Z</time>
      </trkpt>
      <trkpt lat="44.08188" lon="5.74004">
        <ele>1030.307</ele>
        <time>2018-12-22T17:11:10Z</time>
      </trkpt>
      <trkpt lat="44.0819" lon="5.74022">
        <ele>1033.308</ele>
        <time>2018-12-22T17:11:11Z</time>
      </trkpt>
      <trkpt lat="44.08193" lon="5.7404">
        <ele>1036.494</ele>
        <time>2018-12-22T17:11:12Z</time>
      </trkpt>
      <trkpt lat="44.08196" lon="5.74057">
        <ele>1039.482</ele>
        <time>2018-12-22T17:11:13Z</time>
      </trkpt>
      <trkpt lat="44.08201" lon="5.74074">
        <ele>1042.256</ele>
        <time>2018-12-22T17:11:14Z</time>
      </trkpt>
      <trkpt lat="44.08206" lon="5.74089">
        <ele>1045.064</ele>
        <time>2018-12-22T17:11:15Z</time>
      </trkpt>
      <trkpt lat="44.08209" lon="5.741">
        <ele>1047.445</ele>
        <time>2018-12-22T17:11:16Z</time>
      </trkpt>
      <trkpt lat="44.08216" lon="5.74109">
        <ele>1049.385</ele>
        <time>2018-12-22T17:11:17Z</time>
      </trkpt>
      <trkpt lat="44.08221" lon="5.74117">
        <ele>1051.154</ele>
        <time>2018-12-22T17:11:18Z</time>
      </trkpt>
      <trkpt lat="44.08224" lon="5.74125">
        <ele>1052.86</ele>
        <time>2018-12-22T17:11:19Z</time>
      </trkpt>
      <trkpt lat="44.08226" lon="5.74133">
        <ele>1054.577</ele>
        <time>2018-12-22T17:11:20Z</time>
      </trkpt>
      <trkpt lat="44.08225" lon="5.74143">
        <ele>1056.161</ele>
        <time>2018-12-22T17:11:21Z</time>
      </trkpt>
      <trkpt lat="44.08225" lon="5.74153">
        <ele>1059.427</ele>
        <time>2018-12-22T17:11:22Z</time>
      </trkpt>
      <trkpt lat="44.08224" lon="5.7416">
        <ele>1060.908</ele>
        <time>2018-12-22T17:11:23Z</time>
      </trkpt>
      <trkpt lat="44.0822" lon="5.7417">
        <ele>1062.46</ele>
        <time>2018-12-22T17:11:24Z</time>
      </trkpt>
      <trkpt lat="44.08216" lon="5.7418">
        <ele>1062.998</ele>
        <time>2018-12-22T17:11:25Z</time>
      </trkpt>
      <trkpt lat="44.08212" lon="5.74188">
        <ele>1063.532</ele>
        <time>2018-12-22T17:11:26Z</time>
      </trkpt>
      <trkpt lat="44.08208" lon="5.74194">
        <ele>1064.28</ele>
        <time>2018-12-22T17:11:27Z</time>
      </trkpt>
      <trkpt lat="44.08205" lon="5.74201">
        <ele>1065.481</ele>
        <time>2018-12-22T17:11:29Z</time>
      </trkpt>
      <trkpt lat="44.08203" lon="5.74207">
        <ele>1067.031</ele>
        <time>2018-12-22T17:11:32Z</time>
      </trkpt>
      <trkpt lat="44.08199" lon="5.74212">
        <ele>1068.45</ele>
        <time>2018-12-22T17:11:55Z</time>
      </trkpt>
      <trkpt lat="44.08196" lon="5.74218">
        <ele>1068.046</ele>
        <time>2018-12-22T17:12:07Z</time>
      </trkpt>
      <trkpt lat="44.08193" lon="5.74225">
        <ele>1067.983</ele>
        <time>2018-12-22T17:12:09Z</time>
      </trkpt>
      <trkpt lat="44.08189" lon="5.7423">
        <ele>1067.225</ele>
        <time>2018-12-22T17:12:12Z</time>
      </trkpt>
      <trkpt lat="44.08183" lon="5.74241">
        <ele>1067.117</ele>
        <time>2018-12-22T17:12:14Z</time>
      </trkpt>
      <trkpt lat="44.0818" lon="5.74248">
        <ele>1067.008</ele>
        <time>2018-12-22T17:12:15Z</time>
      </trkpt>
      <trkpt lat="44.08177" lon="5.74255">
        <ele>1066.981</ele>
        <time>2018-12-22T17:12:16Z</time>
      </trkpt>
      <trkpt lat="44.08174" lon="5.74261">
        <ele>1066.939</ele>
        <time>2018-12-22T17:12:17Z</time>
      </trkpt>
      <trkpt lat="44.08171" lon="5.74268">
        <ele>1066.833</ele>
        <time>2018-12-22T17:12:18Z</time>
      </trkpt>
      <trkpt lat="44.08168" lon="5.74275">
        <ele>1066.811</ele>
        <time>2018-12-22T17:12:19Z</time>
      </trkpt>
      <trkpt lat="44.08163" lon="5.74283">
        <ele>1066.812</ele>
        <time>2018-12-22T17:12:20Z</time>
      </trkpt>
      <trkpt lat="44.08159" lon="5.74291">
        <ele>1067.272</ele>
        <time>2018-12-22T17:12:21Z</time>
      </trkpt>
      <trkpt lat="44.08154" lon="5.743">
        <ele>1069.191</ele>
        <time>2018-12-22T17:12:22Z</time>
      </trkpt>
      <trkpt lat="44.0815" lon="5.74309">
        <ele>1070.897</ele>
        <time>2018-12-22T17:12:23Z</time>
      </trkpt>
      <trkpt lat="44.08145" lon="5.74317">
        <ele>1072.774</ele>
        <time>2018-12-22T17:12:24Z</time>
      </trkpt>
      <trkpt lat="44.0814" lon="5.74325">
        <ele>1074.756</ele>
        <time>2018-12-22T17:12:25Z</time>
      </trkpt>
      <trkpt lat="44.08134" lon="5.74333">
        <ele>1076.921</ele>
        <time>2018-12-22T17:12:26Z</time>
      </trkpt>
      <trkpt lat="44.08129" lon="5.74339">
        <ele>1079.108</ele>
        <time>2018-12-22T17:12:27Z</time>
      </trkpt>
      <trkpt lat="44.08124" lon="5.74346">
        <ele>1081.22</ele>
        <time>2018-12-22T17:12:28Z</time>
      </trkpt>
      <trkpt lat="44.0812" lon="5.74351">
        <ele>1083.558</ele>
        <time>2018-12-22T17:12:29Z</time>
      </trkpt>
      <trkpt lat="44.08116" lon="5.74355">
        <ele>1085.792</ele>
        <time>2018-12-22T17:12:30Z</time>
      </trkpt>
      <trkpt lat="44.08111" lon="5.7436">
        <ele>1087.97</ele>
        <time>2018-12-22T17:12:31Z</time>
      </trkpt>
      <trkpt lat="44.08106" lon="5.74365">
        <ele>1089.631</ele>
        <time>2018-12-22T17:12:32Z</time>
      </trkpt>
      <trkpt lat="44.081" lon="5.7437">
        <ele>1091.581</ele>
        <time>2018-12-22T17:12:33Z</time>
      </trkpt>
      <trkpt lat="44.08094" lon="5.74374">
        <ele>1094.42</ele>
        <time>2018-12-22T17:12:34Z</time>
      </trkpt>
      <trkpt lat="44.08088" lon="5.74379">
        <ele>1095.896</ele>
        <time>2018-12-22T17:12:35Z</time>
      </trkpt>
      <trkpt lat="44.08081" lon="5.74382">
        <ele>1097.137</ele>
        <time>2018-12-22T17:12:36Z</time>
      </trkpt>
      <trkpt lat="44.08076" lon="5.74386">
        <ele>1098.549</ele>
        <time>2018-12-22T17:12:37Z</time>
      </trkpt>
      <trkpt lat="44.0807" lon="5.74391">
        <ele>1099.613</ele>
        <time>2018-12-22T17:12:38Z</time>
      </trkpt>
      <trkpt lat="44.08063" lon="5.74395">
        <ele>1100.408</ele>
        <time>2018-12-22T17:12:39Z</time>
      </trkpt>
      <trkpt lat="44.08056" lon="5.74398">
        <ele>1101.116</ele>
        <time>2018-12-22T17:12:40Z</time>
      </trkpt>
      <trkpt lat="44.08051" lon="5.74399">
        <ele>1101.894</ele>
        <time>2018-12-22T17:12:41Z</time>
      </trkpt>
      <trkpt lat="44.08046" lon="5.744">
        <ele>1102.428</ele>
        <time>2018-12-22T17:12:42Z</time>
      </trkpt>
      <trkpt lat="44.08041" lon="5.744">
        <ele>1103.366</ele>
        <time>2018-12-22T17:12:43Z</time>
      </trkpt>
      <trkpt lat="44.08033" lon="5.74401">
        <ele>1104.847</ele>
        <time>2018-12-22T17:12:45Z</time>
      </trkpt>
      <trkpt lat="44.08024" lon="5.74404">
        <ele>1106.237</ele>
        <time>2018-12-22T17:12:47Z</time>
      </trkpt>
      <trkpt lat="44.08017" lon="5.74409">
        <ele>1106.866</ele>
        <time>2018-12-22T17:12:49Z</time>
      </trkpt>
      <trkpt lat="44.0801" lon="5.74411">
        <ele>1107.232</ele>
        <time>2018-12-22T17:12:51Z</time>
      </trkpt>
      <trkpt lat="44.08001" lon="5.7441">
        <ele>1107.763</ele>
        <time>2018-12-22T17:12:53Z</time>
      </trkpt>
      <trkpt lat="44.07999" lon="5.74419">
        <ele>1108.244</ele>
        <time>2018-12-22T17:12:57Z</time>
      </trkpt>
      <trkpt lat="44.08003" lon="5.7443">
        <ele>1108.418</ele>
        <time>2018-12-22T17:12:59Z</time>
      </trkpt>
      <trkpt lat="44.08006" lon="5.74437">
        <ele>1108.408</ele>
        <time>2018-12-22T17:13:00Z</time>
      </trkpt>
      <trkpt lat="44.08006" lon="5.7445">
        <ele>1109.779</ele>
        <time>2018-12-22T17:13:02Z</time>
      </trkpt>
      <trkpt lat="44.08005" lon="5.74456">
        <ele>1110.327</ele>
        <time>2018-12-22T17:13:03Z</time>
      </trkpt>
      <trkpt lat="44.08003" lon="5.74463">
        <ele>1111.581</ele>
        <time>2018-12-22T17:13:04Z</time>
      </trkpt>
      <trkpt lat="44.08001" lon="5.74471">
        <ele>1112.639</ele>
        <time>2018-12-22T17:13:05Z</time>
      </trkpt>
      <trkpt lat="44.07999" lon="5.74479">
        <ele>1114.37</ele>
        <time>2018-12-22T17:13:06Z</time>
      </trkpt>
      <trkpt lat="44.07996" lon="5.74486">
        <ele>1115.63</ele>
        <time>2018-12-22T17:13:07Z</time>
      </trkpt>
      <trkpt lat="44.07992" lon="5.74493">
        <ele>1117.379</ele>
        <time>2018-12-22T17:13:08Z</time>
      </trkpt>
      <trkpt lat="44.07987" lon="5.74501">
        <ele>1118.655</ele>
        <time>2018-12-22T17:13:09Z</time>
      </trkpt>
      <trkpt lat="44.07983" lon="5.74513">
        <ele>1121.686</ele>
        <time>2018-12-22T17:13:10Z</time>
      </trkpt>
      <trkpt lat="44.07979" lon="5.74523">
        <ele>1122.86</ele>
        <time>2018-12-22T17:13:11Z</time>
      </trkpt>
      <trkpt lat="44.07975" lon="5.74532">
        <ele>1124.426</ele>
        <time>2018-12-22T17:13:12Z</time>
      </trkpt>
      <trkpt lat="44.07972" lon="5.74541">
        <ele>1126.008</ele>
        <time>2018-12-22T17:13:13Z</time>
      </trkpt>
      <trkpt lat="44.07968" lon="5.74551">
        <ele>1127.611</ele>
        <time>2018-12-22T17:13:14Z</time>
      </trkpt>
      <trkpt lat="44.07965" lon="5.74561">
        <ele>1129.589</ele>
        <time>2018-12-22T17:13:15Z</time>
      </trkpt>
      <trkpt lat="44.0796" lon="5.7457">
        <ele>1131.983</ele>
        <time>2018-12-22T17:13:16Z</time>
      </trkpt>
      <trkpt lat="44.07956" lon="5.7458">
        <ele>1133.881</ele>
        <time>2018-12-22T17:13:17Z</time>
      </trkpt>
      <trkpt lat="44.07951" lon="5.7459">
        <ele>1135.712</ele>
        <time>2018-12-22T17:13:18Z</time>
      </trkpt>
      <trkpt lat="44.07947" lon="5.74599">
        <ele>1137.732</ele>
        <time>2018-12-22T17:13:19Z</time>
      </trkpt>
      <trkpt lat="44.07942" lon="5.74608">
        <ele>1139.521</ele>
        <time>2018-12-22T17:13:20Z</time>
      </trkpt>
      <trkpt lat="44.07937" lon="5.74616">
        <ele>1140.857</ele>
        <time>2018-12-22T17:13:21Z</time>
      </trkpt>
      <trkpt lat="44.07932" lon="5.74624">
        <ele>1144.531</ele>
        <time>2018-12-22T17:13:22Z</time>
      </trkpt>
      <trkpt lat="44.07927" lon="5.74631">
        <ele>1146.161</ele>
        <time>2018-12-22T17:13:23Z</time>
      </trkpt>
      <trkpt lat="44.07923" lon="5.74637">
        <ele>1147.407</ele>
        <time>2018-12-22T17:13:24Z</time>
      </trkpt>
      <trkpt lat="44.07918" lon="5.74643">
        <ele>1149.008</ele>
        <time>2018-12-22T17:13:25Z</time>
      </trkpt>
      <trkpt lat="44.07914" lon="5.74651">
        <ele>1150.156</ele>
        <time>2018-12-22T17:13:26Z</time>
      </trkpt>
      <trkpt lat="44.07909" lon="5.74659">
        <ele>1151.534</ele>
        <time>2018-12-22T17:13:27Z</time>
      </trkpt>
      <trkpt lat="44.07905" lon="5.74669">
        <ele>1153.048</ele>
        <time>2018-12-22T17:13:28Z</time>
      </trkpt>
      <trkpt lat="44.079" lon="5.74678">
        <ele>1154.586</ele>
        <time>2018-12-22T17:13:29Z</time>
      </trkpt>
      <trkpt lat="44.07896" lon="5.74687">
        <ele>1156.227</ele>
        <time>2018-12-22T17:13:30Z</time>
      </trkpt>
      <trkpt lat="44.07891" lon="5.74695">
        <ele>1157.987</ele>
        <time>2018-12-22T17:13:31Z</time>
      </trkpt>
      <trkpt lat="44.07885" lon="5.74706">
        <ele>1159.686</ele>
        <time>2018-12-22T17:13:32Z</time>
      </trkpt>
      <trkpt lat="44.07878" lon="5.74714">
        <ele>1161.492</ele>
        <time>2018-12-22T17:13:33Z</time>
      </trkpt>
      <trkpt lat="44.07873" lon="5.74722">
        <ele>1164.111</ele>
        <time>2018-12-22T17:13:34Z</time>
      </trkpt>
      <trkpt lat="44.07868" lon="5.7473">
        <ele>1165.521</ele>
        <time>2018-12-22T17:13:35Z</time>
      </trkpt>
      <trkpt lat="44.07863" lon="5.74739">
        <ele>1167.303</ele>
        <time>2018-12-22T17:13:36Z</time>
      </trkpt>
      <trkpt lat="44.07858" lon="5.74748">
        <ele>1168.608</ele>
        <time>2018-12-22T17:13:37Z</time>
      </trkpt>
      <trkpt lat="44.07853" lon="5.74757">
        <ele>1169.834</ele>
        <time>2018-12-22T17:13:38Z</time>
      </trkpt>
      <trkpt lat="44.07848" lon="5.74764">
        <ele>1171.552</ele>
        <time>2018-12-22T17:13:39Z</time>
      </trkpt>
      <trkpt lat="44.07843" lon="5.74771">
        <ele>1173.136</ele>
        <time>2018-12-22T17:13:40Z</time>
      </trkpt>
      <trkpt lat="44.07838" lon="5.74779">
        <ele>1174.234</ele>
        <time>2018-12-22T17:13:41Z</time>
      </trkpt>
      <trkpt lat="44.07834" lon="5.74788">
        <ele>1175.165</ele>
        <time>2018-12-22T17:13:42Z</time>
      </trkpt>
      <trkpt lat="44.07829" lon="5.74796">
        <ele>1176.985</ele>
        <time>2018-12-22T17:13:43Z</time>
      </trkpt>
      <trkpt lat="44.07826" lon="5.74805">
        <ele>1178.644</ele>
        <time>2018-12-22T17:13:44Z</time>
      </trkpt>
      <trkpt lat="44.07822" lon="5.74812">
        <ele>1180.35</ele>
        <time>2018-12-22T17:13:45Z</time>
      </trkpt>
      <trkpt lat="44.07819" lon="5.74819">
        <ele>1184.151</ele>
        <time>2018-12-22T17:13:46Z</time>
      </trkpt>
      <trkpt lat="44.07816" lon="5.74827">
        <ele>1185.601</ele>
        <time>2018-12-22T17:13:47Z</time>
      </trkpt>
      <trkpt lat="44.07813" lon="5.74836">
        <ele>1187.311</ele>
        <time>2018-12-22T17:13:48Z</time>
      </trkpt>
      <trkpt lat="44.07811" lon="5.74844">
        <ele>1188.708</ele>
        <time>2018-12-22T17:13:49Z</time>
      </trkpt>
      <trkpt lat="44.07809" lon="5.74854">
        <ele>1191.448</ele>
        <time>2018-12-22T17:13:50Z</time>
      </trkpt>
      <trkpt lat="44.07806" lon="5.74862">
        <ele>1193.296</ele>
        <time>2018-12-22T17:13:51Z</time>
      </trkpt>
      <trkpt lat="44.07803" lon="5.74869">
        <ele>1195.01</ele>
        <time>2018-12-22T17:13:52Z</time>
      </trkpt>
      <trkpt lat="44.078" lon="5.74875">
        <ele>1196.798</ele>
        <time>2018-12-22T17:13:53Z</time>
      </trkpt>
      <trkpt lat="44.07797" lon="5.74881">
        <ele>1198.759</ele>
        <time>2018-12-22T17:13:54Z</time>
      </trkpt>
      <trkpt lat="44.07794" lon="5.74889">
        <ele>1199.639</ele>
        <time>2018-12-22T17:13:55Z</time>
      </trkpt>
      <trkpt lat="44.07791" lon="5.74896">
        <ele>1200.858</ele>
        <time>2018-12-22T17:13:56Z</time>
      </trkpt>
      <trkpt lat="44.0779" lon="5.74903">
        <ele>1201.994</ele>
        <time>2018-12-22T17:13:57Z</time>
      </trkpt>
      <trkpt lat="44.07788" lon="5.7491">
        <ele>1204.518</ele>
        <time>2018-12-22T17:13:58Z</time>
      </trkpt>
      <trkpt lat="44.07787" lon="5.74918">
        <ele>1206.298</ele>
        <time>2018-12-22T17:13:59Z</time>
      </trkpt>
      <trkpt lat="44.07786" lon="5.74924">
        <ele>1207.717</ele>
        <time>2018-12-22T17:14:00Z</time>
      </trkpt>
      <trkpt lat="44.07784" lon="5.74932">
        <ele>1209.308</ele>
        <time>2018-12-22T17:14:01Z</time>
      </trkpt>
      <trkpt lat="44.07782" lon="5.74942">
        <ele>1211.084</ele>
        <time>2018-12-22T17:14:02Z</time>
      </trkpt>
      <trkpt lat="44.0778" lon="5.74953">
        <ele>1212.432</ele>
        <time>2018-12-22T17:14:03Z</time>
      </trkpt>
      <trkpt lat="44.07778" lon="5.74962">
        <ele>1213.516</ele>
        <time>2018-12-22T17:14:04Z</time>
      </trkpt>
      <trkpt lat="44.07775" lon="5.74969">
        <ele>1214.864</ele>
        <time>2018-12-22T17:14:05Z</time>
      </trkpt>
      <trkpt lat="44.07772" lon="5.74975">
        <ele>1215.815</ele>
        <time>2018-12-22T17:14:06Z</time>
      </trkpt>
      <trkpt lat="44.07767" lon="5.74985">
        <ele>1217.225</ele>
        <time>2018-12-22T17:14:08Z</time>
      </trkpt>
      <trkpt lat="44.07763" lon="5.74992">
        <ele>1217.574</ele>
        <time>2018-12-22T17:14:09Z</time>
      </trkpt>
      <trkpt lat="44.07759" lon="5.74998">
        <ele>1217.73</ele>
        <time>2018-12-22T17:14:10Z</time>
      </trkpt>
      <trkpt lat="44.07754" lon="5.75002">
        <ele>1217.792</ele>
        <time>2018-12-22T17:14:11Z</time>
      </trkpt>
      <trkpt lat="44.0775" lon="5.75006">
        <ele>1217.573</ele>
        <time>2018-12-22T17:14:12Z</time>
      </trkpt>
      <trkpt lat="44.07746" lon="5.75012">
        <ele>1217.52</ele>
        <time>2018-12-22T17:14:13Z</time>
      </trkpt>
      <trkpt lat="44.07741" lon="5.75018">
        <ele>1217.308</ele>
        <time>2018-12-22T17:14:14Z</time>
      </trkpt>
      <trkpt lat="44.07737" lon="5.75023">
        <ele>1217.312</ele>
        <time>2018-12-22T17:14:15Z</time>
      </trkpt>
      <trkpt lat="44.07732" lon="5.75027">
        <ele>1217.55</ele>
        <time>2018-12-22T17:14:16Z</time>
      </trkpt>
      <trkpt lat="44.07727" lon="5.75033">
        <ele>1217.794</ele>
        <time>2018-12-22T17:14:17Z</time>
      </trkpt>
      <trkpt lat="44.07723" lon="5.75037">
        <ele>1218.152</ele>
        <time>2018-12-22T17:14:18Z</time>
      </trkpt>
      <trkpt lat="44.07718" lon="5.7504">
        <ele>1218.293</ele>
        <time>2018-12-22T17:14:19Z</time>
      </trkpt>
      <trkpt lat="44.07712" lon="5.75042">
        <ele>1218.633</ele>
        <time>2018-12-22T17:14:21Z</time>
      </trkpt>
      <trkpt lat="44.07708" lon="5.75046">
        <ele>1219.082</ele>
        <time>2018-12-22T17:14:23Z</time>
      </trkpt>
      <trkpt lat="44.07707" lon="5.75055">
        <ele>1219.458</ele>
        <time>2018-12-22T17:14:26Z</time>
      </trkpt>
      <trkpt lat="44.07707" lon="5.75062">
        <ele>1219.438</ele>
        <time>2018-12-22T17:14:28Z</time>
      </trkpt>
      <trkpt lat="44.07705" lon="5.75069">
        <ele>1220.27</ele>
        <time>2018-12-22T17:14:31Z</time>
      </trkpt>
      <trkpt lat="44.07705" lon="5.75076">
        <ele>1220.217</ele>
        <time>2018-12-22T17:14:33Z</time>
      </trkpt>
      <trkpt lat="44.07705" lon="5.75085">
        <ele>1218.308</ele>
        <time>2018-12-22T17:14:38Z</time>
      </trkpt>
      <trkpt lat="44.07708" lon="5.7509">
        <ele>1218.336</ele>
        <time>2018-12-22T17:14:39Z</time>
      </trkpt>
      <trkpt lat="44.07709" lon="5.75097">
        <ele>1218.464</ele>
        <time>2018-12-22T17:14:40Z</time>
      </trkpt>
      <trkpt lat="44.07711" lon="5.75106">
        <ele>1218.828</ele>
        <time>2018-12-22T17:14:41Z</time>
      </trkpt>
      <trkpt lat="44.07715" lon="5.75113">
        <ele>1219.496</ele>
        <time>2018-12-22T17:14:42Z</time>
      </trkpt>
      <trkpt lat="44.07719" lon="5.75123">
        <ele>1219.667</ele>
        <time>2018-12-22T17:14:43Z</time>
      </trkpt>
      <trkpt lat="44.07724" lon="5.75133">
        <ele>1219.797</ele>
        <time>2018-12-22T17:14:44Z</time>
      </trkpt>
      <trkpt lat="44.0773" lon="5.75146">
        <ele>1219.946</ele>
        <time>2018-12-22T17:14:45Z</time>
      </trkpt>
      <trkpt lat="44.07736" lon="5.75162">
        <ele>1220.042</ele>
        <time>2018-12-22T17:14:46Z</time>
      </trkpt>
      <trkpt lat="44.07744" lon="5.75176">
        <ele>1220.651</ele>
        <time>2018-12-22T17:14:47Z</time>
      </trkpt>
      <trkpt lat="44.07752" lon="5.7519">
        <ele>1221.701</ele>
        <time>2018-12-22T17:14:48Z</time>
      </trkpt>
      <trkpt lat="44.07758" lon="5.75201">
        <ele>1223.011</ele>
        <time>2018-12-22T17:14:49Z</time>
      </trkpt>
      <trkpt lat="44.07764" lon="5.75212">
        <ele>1224.008</ele>
        <time>2018-12-22T17:14:50Z</time>
      </trkpt>
      <trkpt lat="44.07771" lon="5.75223">
        <ele>1225.088</ele>
        <time>2018-12-22T17:14:51Z</time>
      </trkpt>
      <trkpt lat="44.07779" lon="5.75235">
        <ele>1225.316</ele>
        <time>2018-12-22T17:14:52Z</time>
      </trkpt>
      <trkpt lat="44.07788" lon="5.75244">
        <ele>1225.31</ele>
        <time>2018-12-22T17:14:53Z</time>
      </trkpt>
      <trkpt lat="44.07796" lon="5.75254">
        <ele>1225.498</ele>
        <time>2018-12-22T17:14:54Z</time>
      </trkpt>
      <trkpt lat="44.07804" lon="5.75261">
        <ele>1225.849</ele>
        <time>2018-12-22T17:14:55Z</time>
      </trkpt>
      <trkpt lat="44.07811" lon="5.75265">
        <ele>1226.889</ele>
        <time>2018-12-22T17:14:56Z</time>
      </trkpt>
      <trkpt lat="44.07818" lon="5.75271">
        <ele>1228.168</ele>
        <time>2018-12-22T17:14:57Z</time>
      </trkpt>
      <trkpt lat="44.0782" lon="5.75281">
        <ele>1230.024</ele>
        <time>2018-12-22T17:14:58Z</time>
      </trkpt>
      <trkpt lat="44.07819" lon="5.75293">
        <ele>1230.056</ele>
        <time>2018-12-22T17:14:59Z</time>
      </trkpt>
      <trkpt lat="44.07816" lon="5.75306">
        <ele>1229.859</ele>
        <time>2018-12-22T17:15:00Z</time>
      </trkpt>
      <trkpt lat="44.07814" lon="5.75318">
        <ele>1229.614</ele>
        <time>2018-12-22T17:15:01Z</time>
      </trkpt>
      <trkpt lat="44.07811" lon="5.75328">
        <ele>1229.508</ele>
        <time>2018-12-22T17:15:02Z</time>
      </trkpt>
      <trkpt lat="44.07809" lon="5.75339">
        <ele>1229.188</ele>
        <time>2018-12-22T17:15:03Z</time>
      </trkpt>
      <trkpt lat="44.07806" lon="5.7535">
        <ele>1228.936</ele>
        <time>2018-12-22T17:15:04Z</time>
      </trkpt>
      <trkpt lat="44.07802" lon="5.75361">
        <ele>1228.34</ele>
        <time>2018-12-22T17:15:05Z</time>
      </trkpt>
      <trkpt lat="44.078" lon="5.75372">
        <ele>1226.868</ele>
        <time>2018-12-22T17:15:06Z</time>
      </trkpt>
      <trkpt lat="44.07796" lon="5.75384">
        <ele>1225.289</ele>
        <time>2018-12-22T17:15:07Z</time>
      </trkpt>
      <trkpt lat="44.07791" lon="5.75395">
        <ele>1223.359</ele>
        <time>2018-12-22T17:15:08Z</time>
      </trkpt>
      <trkpt lat="44.07786" lon="5.75406">
        <ele>1221.528</ele>
        <time>2018-12-22T17:15:09Z</time>
      </trkpt>
      <trkpt lat="44.0778" lon="5.75416">
        <ele>1218.144</ele>
        <time>2018-12-22T17:15:10Z</time>
      </trkpt>
      <trkpt lat="44.07774" lon="5.75427">
        <ele>1216.658</ele>
        <time>2018-12-22T17:15:11Z</time>
      </trkpt>
      <trkpt lat="44.07767" lon="5.75437">
        <ele>1215.652</ele>
        <time>2018-12-22T17:15:12Z</time>
      </trkpt>
      <trkpt lat="44.07759" lon="5.75446">
        <ele>1214.617</ele>
        <time>2018-12-22T17:15:13Z</time>
      </trkpt>
      <trkpt lat="44.07753" lon="5.75455">
        <ele>1213.308</ele>
        <time>2018-12-22T17:15:14Z</time>
      </trkpt>
      <trkpt lat="44.07746" lon="5.75467">
        <ele>1212.238</ele>
        <time>2018-12-22T17:15:15Z</time>
      </trkpt>
      <trkpt lat="44.07741" lon="5.7548">
        <ele>1210.926</ele>
        <time>2018-12-22T17:15:16Z</time>
      </trkpt>
      <trkpt lat="44.07736" lon="5.75492">
        <ele>1209.05</ele>
        <time>2018-12-22T17:15:17Z</time>
      </trkpt>
      <trkpt lat="44.07732" lon="5.75505">
        <ele>1207.078</ele>
        <time>2018-12-22T17:15:18Z</time>
      </trkpt>
      <trkpt lat="44.07727" lon="5.75519">
        <ele>1205.359</ele>
        <time>2018-12-22T17:15:19Z</time>
      </trkpt>
      <trkpt lat="44.07724" lon="5.75531">
        <ele>1203.759</ele>
        <time>2018-12-22T17:15:20Z</time>
      </trkpt>
      <trkpt lat="44.07721" lon="5.75544">
        <ele>1202.378</ele>
        <time>2018-12-22T17:15:21Z</time>
      </trkpt>
      <trkpt lat="44.07716" lon="5.75555">
        <ele>1200.044</ele>
        <time>2018-12-22T17:15:22Z</time>
      </trkpt>
      <trkpt lat="44.07712" lon="5.75567">
        <ele>1198.829</ele>
        <time>2018-12-22T17:15:23Z</time>
      </trkpt>
      <trkpt lat="44.07707" lon="5.75578">
        <ele>1197.7</ele>
        <time>2018-12-22T17:15:24Z</time>
      </trkpt>
      <trkpt lat="44.07703" lon="5.7559">
        <ele>1196.72</ele>
        <time>2018-12-22T17:15:25Z</time>
      </trkpt>
      <trkpt lat="44.07699" lon="5.75599">
        <ele>1195.408</ele>
        <time>2018-12-22T17:15:26Z</time>
      </trkpt>
      <trkpt lat="44.07694" lon="5.75607">
        <ele>1194.095</ele>
        <time>2018-12-22T17:15:27Z</time>
      </trkpt>
      <trkpt lat="44.07689" lon="5.75615">
        <ele>1192.523</ele>
        <time>2018-12-22T17:15:28Z</time>
      </trkpt>
      <trkpt lat="44.07683" lon="5.75625">
        <ele>1191.337</ele>
        <time>2018-12-22T17:15:29Z</time>
      </trkpt>
      <trkpt lat="44.07677" lon="5.75634">
        <ele>1189.615</ele>
        <time>2018-12-22T17:15:30Z</time>
      </trkpt>
      <trkpt lat="44.07671" lon="5.75644">
        <ele>1188.066</ele>
        <time>2018-12-22T17:15:31Z</time>
      </trkpt>
      <trkpt lat="44.07666" lon="5.75653">
        <ele>1186.616</ele>
        <time>2018-12-22T17:15:32Z</time>
      </trkpt>
      <trkpt lat="44.07661" lon="5.75663">
        <ele>1185.315</ele>
        <time>2018-12-22T17:15:33Z</time>
      </trkpt>
      <trkpt lat="44.07656" lon="5.75672">
        <ele>1182.751</ele>
        <time>2018-12-22T17:15:34Z</time>
      </trkpt>
      <trkpt lat="44.0765" lon="5.7568">
        <ele>1181.738</ele>
        <time>2018-12-22T17:15:35Z</time>
      </trkpt>
      <trkpt lat="44.07643" lon="5.75687">
        <ele>1180.87</ele>
        <time>2018-12-22T17:15:36Z</time>
      </trkpt>
      <trkpt lat="44.07635" lon="5.75693">
        <ele>1180.017</ele>
        <time>2018-12-22T17:15:37Z</time>
      </trkpt>
      <trkpt lat="44.07631" lon="5.75698">
        <ele>1179.108</ele>
        <time>2018-12-22T17:15:38Z</time>
      </trkpt>
      <trkpt lat="44.07623" lon="5.75709">
        <ele>1178.216</ele>
        <time>2018-12-22T17:15:39Z</time>
      </trkpt>
      <trkpt lat="44.07615" lon="5.75718">
        <ele>1176.944</ele>
        <time>2018-12-22T17:15:40Z</time>
      </trkpt>
      <trkpt lat="44.07607" lon="5.75729">
        <ele>1175.488</ele>
        <time>2018-12-22T17:15:41Z</time>
      </trkpt>
      <trkpt lat="44.076" lon="5.75737">
        <ele>1174.236</ele>
        <time>2018-12-22T17:15:42Z</time>
      </trkpt>
      <trkpt lat="44.07591" lon="5.75743">
        <ele>1173.357</ele>
        <time>2018-12-22T17:15:43Z</time>
      </trkpt>
      <trkpt lat="44.07583" lon="5.75749">
        <ele>1172.337</ele>
        <time>2018-12-22T17:15:44Z</time>
      </trkpt>
      <trkpt lat="44.07574" lon="5.75756">
        <ele>1171.636</ele>
        <time>2018-12-22T17:15:45Z</time>
      </trkpt>
      <trkpt lat="44.07564" lon="5.75764">
        <ele>1170.092</ele>
        <time>2018-12-22T17:15:46Z</time>
      </trkpt>
      <trkpt lat="44.07556" lon="5.75772">
        <ele>1168.838</ele>
        <time>2018-12-22T17:15:47Z</time>
      </trkpt>
      <trkpt lat="44.07549" lon="5.75778">
        <ele>1167.27</ele>
        <time>2018-12-22T17:15:48Z</time>
      </trkpt>
      <trkpt lat="44.07541" lon="5.75784">
        <ele>1165.717</ele>
        <time>2018-12-22T17:15:49Z</time>
      </trkpt>
      <trkpt lat="44.07534" lon="5.75789">
        <ele>1164.308</ele>
        <time>2018-12-22T17:15:50Z</time>
      </trkpt>
      <trkpt lat="44.07522" lon="5.758">
        <ele>1163.056</ele>
        <time>2018-12-22T17:15:51Z</time>
      </trkpt>
      <trkpt lat="44.07512" lon="5.75807">
        <ele>1161.694</ele>
        <time>2018-12-22T17:15:52Z</time>
      </trkpt>
      <trkpt lat="44.07502" lon="5.75815">
        <ele>1160.448</ele>
        <time>2018-12-22T17:15:53Z</time>
      </trkpt>
      <trkpt lat="44.07492" lon="5.75822">
        <ele>1159.256</ele>
        <time>2018-12-22T17:15:54Z</time>
      </trkpt>
      <trkpt lat="44.07482" lon="5.75828">
        <ele>1157.887</ele>
        <time>2018-12-22T17:15:55Z</time>
      </trkpt>
      <trkpt lat="44.07473" lon="5.75836">
        <ele>1156.437</ele>
        <time>2018-12-22T17:15:56Z</time>
      </trkpt>
      <trkpt lat="44.07461" lon="5.75845">
        <ele>1155.126</ele>
        <time>2018-12-22T17:15:57Z</time>
      </trkpt>
      <trkpt lat="44.07454" lon="5.75851">
        <ele>1154.072</ele>
        <time>2018-12-22T17:15:58Z</time>
      </trkpt>
      <trkpt lat="44.07446" lon="5.75856">
        <ele>1152.289</ele>
        <time>2018-12-22T17:15:59Z</time>
      </trkpt>
      <trkpt lat="44.07436" lon="5.75866">
        <ele>1151.406</ele>
        <time>2018-12-22T17:16:00Z</time>
      </trkpt>
      <trkpt lat="44.07428" lon="5.75872">
        <ele>1150.626</ele>
        <time>2018-12-22T17:16:01Z</time>
      </trkpt>
      <trkpt lat="44.0742" lon="5.75882">
        <ele>1149.708</ele>
        <time>2018-12-22T17:16:02Z</time>
      </trkpt>
      <trkpt lat="44.07413" lon="5.75892">
        <ele>1148.771</ele>
        <time>2018-12-22T17:16:03Z</time>
      </trkpt>
      <trkpt lat="44.07406" lon="5.75901">
        <ele>1147.699</ele>
        <time>2018-12-22T17:16:04Z</time>
      </trkpt>
      <trkpt lat="44.074" lon="5.75909">
        <ele>1146.493</ele>
        <time>2018-12-22T17:16:05Z</time>
      </trkpt>
      <trkpt lat="44.07393" lon="5.75916">
        <ele>1145.381</ele>
        <time>2018-12-22T17:16:06Z</time>
      </trkpt>
      <trkpt lat="44.07386" lon="5.75922">
        <ele>1144.422</ele>
        <time>2018-12-22T17:16:07Z</time>
      </trkpt>
      <trkpt lat="44.07379" lon="5.75926">
        <ele>1143.672</ele>
        <time>2018-12-22T17:16:08Z</time>
      </trkpt>
      <trkpt lat="44.07369" lon="5.75935">
        <ele>1143.011</ele>
        <time>2018-12-22T17:16:09Z</time>
      </trkpt>
      <trkpt lat="44.07362" lon="5.75934">
        <ele>1141.847</ele>
        <time>2018-12-22T17:16:10Z</time>
      </trkpt>
      <trkpt lat="44.07355" lon="5.75934">
        <ele>1141.332</ele>
        <time>2018-12-22T17:16:11Z</time>
      </trkpt>
      <trkpt lat="44.07348" lon="5.75934">
        <ele>1140.992</ele>
        <time>2018-12-22T17:16:12Z</time>
      </trkpt>
      <trkpt lat="44.0734" lon="5.75937">
        <ele>1140.411</ele>
        <time>2018-12-22T17:16:13Z</time>
      </trkpt>
      <trkpt lat="44.07335" lon="5.75941">
        <ele>1139.908</ele>
        <time>2018-12-22T17:16:14Z</time>
      </trkpt>
      <trkpt lat="44.0733" lon="5.75946">
        <ele>1139.476</ele>
        <time>2018-12-22T17:16:15Z</time>
      </trkpt>
      <trkpt lat="44.07323" lon="5.75958">
        <ele>1138.454</ele>
        <time>2018-12-22T17:16:17Z</time>
      </trkpt>
      <trkpt lat="44.07323" lon="5.75965">
        <ele>1137.748</ele>
        <time>2018-12-22T17:16:18Z</time>
      </trkpt>
      <trkpt lat="44.07327" lon="5.75969">
        <ele>1137.446</ele>
        <time>2018-12-22T17:16:21Z</time>
      </trkpt>
      <trkpt lat="44.07327" lon="5.75976">
        <ele>1137.577</ele>
        <time>2018-12-22T17:16:24Z</time>
      </trkpt>
      <trkpt lat="44.07322" lon="5.75978">
        <ele>1137.517</ele>
        <time>2018-12-22T17:16:32Z</time>
      </trkpt>
      <trkpt lat="44.07322" lon="5.75984">
        <ele>1137.526</ele>
        <time>2018-12-22T17:16:36Z</time>
      </trkpt>
      <trkpt lat="44.07323" lon="5.75992">
        <ele>1137.312</ele>
        <time>2018-12-22T17:16:39Z</time>
      </trkpt>
      <trkpt lat="44.07322" lon="5.75999">
        <ele>1137.715</ele>
        <time>2018-12-22T17:16:50Z</time>
      </trkpt>
      <trkpt lat="44.07325" lon="5.7601">
        <ele>1137.465</ele>
        <time>2018-12-22T17:16:52Z</time>
      </trkpt>
      <trkpt lat="44.07328" lon="5.76018">
        <ele>1136.911</ele>
        <time>2018-12-22T17:16:53Z</time>
      </trkpt>
      <trkpt lat="44.07331" lon="5.76027">
        <ele>1136.208</ele>
        <time>2018-12-22T17:16:54Z</time>
      </trkpt>
      <trkpt lat="44.07337" lon="5.76034">
        <ele>1135.524</ele>
        <time>2018-12-22T17:16:55Z</time>
      </trkpt>
      <trkpt lat="44.07344" lon="5.76043">
        <ele>1134.852</ele>
        <time>2018-12-22T17:16:56Z</time>
      </trkpt>
      <trkpt lat="44.07354" lon="5.7605">
        <ele>1134.336</ele>
        <time>2018-12-22T17:16:57Z</time>
      </trkpt>
      <trkpt lat="44.07365" lon="5.7606">
        <ele>1132.454</ele>
        <time>2018-12-22T17:16:58Z</time>
      </trkpt>
      <trkpt lat="44.07378" lon="5.7607">
        <ele>1131.355</ele>
        <time>2018-12-22T17:16:59Z</time>
      </trkpt>
      <trkpt lat="44.07391" lon="5.76079">
        <ele>1130.255</ele>
        <time>2018-12-22T17:17:00Z</time>
      </trkpt>
      <trkpt lat="44.07406" lon="5.76087">
        <ele>1128.884</ele>
        <time>2018-12-22T17:17:01Z</time>
      </trkpt>
      <trkpt lat="44.07422" lon="5.76094">
        <ele>1127.59</ele>
        <time>2018-12-22T17:17:02Z</time>
      </trkpt>
      <trkpt lat="44.07437" lon="5.76102">
        <ele>1126.525</ele>
        <time>2018-12-22T17:17:03Z</time>
      </trkpt>
      <trkpt lat="44.07453" lon="5.76109">
        <ele>1125.626</ele>
        <time>2018-12-22T17:17:04Z</time>
      </trkpt>
      <trkpt lat="44.07468" lon="5.76114">
        <ele>1124.408</ele>
        <time>2018-12-22T17:17:05Z</time>
      </trkpt>
      <trkpt lat="44.07485" lon="5.76119">
        <ele>1123.608</ele>
        <time>2018-12-22T17:17:06Z</time>
      </trkpt>
      <trkpt lat="44.07501" lon="5.76122">
        <ele>1122.825</ele>
        <time>2018-12-22T17:17:07Z</time>
      </trkpt>
      <trkpt lat="44.07517" lon="5.76124">
        <ele>1121.933</ele>
        <time>2018-12-22T17:17:08Z</time>
      </trkpt>
      <trkpt lat="44.07535" lon="5.76126">
        <ele>1120.337</ele>
        <time>2018-12-22T17:17:09Z</time>
      </trkpt>
      <trkpt lat="44.07551" lon="5.76127">
        <ele>1118.335</ele>
        <time>2018-12-22T17:17:10Z</time>
      </trkpt>
      <trkpt lat="44.07566" lon="5.76127">
        <ele>1117.626</ele>
        <time>2018-12-22T17:17:11Z</time>
      </trkpt>
      <trkpt lat="44.07582" lon="5.76126">
        <ele>1117.636</ele>
        <time>2018-12-22T17:17:12Z</time>
      </trkpt>
      <trkpt lat="44.07598" lon="5.76122">
        <ele>1117.695</ele>
        <time>2018-12-22T17:17:13Z</time>
      </trkpt>
      <trkpt lat="44.07613" lon="5.76117">
        <ele>1117.411</ele>
        <time>2018-12-22T17:17:14Z</time>
      </trkpt>
      <trkpt lat="44.07628" lon="5.76111">
        <ele>1116.576</ele>
        <time>2018-12-22T17:17:15Z</time>
      </trkpt>
      <trkpt lat="44.07642" lon="5.76104">
        <ele>1116.59</ele>
        <time>2018-12-22T17:17:16Z</time>
      </trkpt>
      <trkpt lat="44.07655" lon="5.76096">
        <ele>1116.519</ele>
        <time>2018-12-22T17:17:17Z</time>
      </trkpt>
      <trkpt lat="44.07667" lon="5.76092">
        <ele>1117.108</ele>
        <time>2018-12-22T17:17:18Z</time>
      </trkpt>
      <trkpt lat="44.07676" lon="5.76088">
        <ele>1119.33</ele>
        <time>2018-12-22T17:17:19Z</time>
      </trkpt>
      <trkpt lat="44.07684" lon="5.76088">
        <ele>1121.948</ele>
        <time>2018-12-22T17:17:20Z</time>
      </trkpt>
      <trkpt lat="44.0769" lon="5.7609">
        <ele>1123.992</ele>
        <time>2018-12-22T17:17:21Z</time>
      </trkpt>
      <trkpt lat="44.07696" lon="5.76105">
        <ele>1126.09</ele>
        <time>2018-12-22T17:17:25Z</time>
      </trkpt>
      <trkpt lat="44.07697" lon="5.76118">
        <ele>1123.061</ele>
        <time>2018-12-22T17:17:27Z</time>
      </trkpt>
      <trkpt lat="44.07694" lon="5.76131">
        <ele>1122.411</ele>
        <time>2018-12-22T17:17:28Z</time>
      </trkpt>
      <trkpt lat="44.07689" lon="5.76146">
        <ele>1122.42</ele>
        <time>2018-12-22T17:17:29Z</time>
      </trkpt>
      <trkpt lat="44.07683" lon="5.76162">
        <ele>1122.476</ele>
        <time>2018-12-22T17:17:30Z</time>
      </trkpt>
      <trkpt lat="44.07677" lon="5.76181">
        <ele>1123.048</ele>
        <time>2018-12-22T17:17:31Z</time>
      </trkpt>
      <trkpt lat="44.07672" lon="5.76197">
        <ele>1124.061</ele>
        <time>2018-12-22T17:17:32Z</time>
      </trkpt>
      <trkpt lat="44.07669" lon="5.76217">
        <ele>1124.417</ele>
        <time>2018-12-22T17:17:33Z</time>
      </trkpt>
      <trkpt lat="44.07665" lon="5.76243">
        <ele>1126.508</ele>
        <time>2018-12-22T17:17:34Z</time>
      </trkpt>
      <trkpt lat="44.07669" lon="5.7626">
        <ele>1127.877</ele>
        <time>2018-12-22T17:17:35Z</time>
      </trkpt>
      <trkpt lat="44.07673" lon="5.76296">
        <ele>1128.675</ele>
        <time>2018-12-22T17:17:36Z</time>
      </trkpt>
      <trkpt lat="44.07678" lon="5.76323">
        <ele>1129.519</ele>
        <time>2018-12-22T17:17:37Z</time>
      </trkpt>
      <trkpt lat="44.07681" lon="5.76347">
        <ele>1129.547</ele>
        <time>2018-12-22T17:17:38Z</time>
      </trkpt>
      <trkpt lat="44.07686" lon="5.76367">
        <ele>1129.148</ele>
        <time>2018-12-22T17:17:39Z</time>
      </trkpt>
      <trkpt lat="44.07693" lon="5.76384">
        <ele>1128.228</ele>
        <time>2018-12-22T17:17:40Z</time>
      </trkpt>
      <trkpt lat="44.07698" lon="5.76396">
        <ele>1126.997</ele>
        <time>2018-12-22T17:17:41Z</time>
      </trkpt>
      <trkpt lat="44.07704" lon="5.76406">
        <ele>1126.893</ele>
        <time>2018-12-22T17:17:42Z</time>
      </trkpt>
      <trkpt lat="44.07712" lon="5.76413">
        <ele>1126.889</ele>
        <time>2018-12-22T17:17:43Z</time>
      </trkpt>
      <trkpt lat="44.07721" lon="5.7642">
        <ele>1126.806</ele>
        <time>2018-12-22T17:17:44Z</time>
      </trkpt>
      <trkpt lat="44.0773" lon="5.76424">
        <ele>1127.026</ele>
        <time>2018-12-22T17:17:45Z</time>
      </trkpt>
      <trkpt lat="44.0774" lon="5.76424">
        <ele>1130.008</ele>
        <time>2018-12-22T17:17:46Z</time>
      </trkpt>
      <trkpt lat="44.07751" lon="5.76421">
        <ele>1130.821</ele>
        <time>2018-12-22T17:17:47Z</time>
      </trkpt>
      <trkpt lat="44.07763" lon="5.76415">
        <ele>1132.129</ele>
        <time>2018-12-22T17:17:48Z</time>
      </trkpt>
      <trkpt lat="44.07772" lon="5.76408">
        <ele>1132.733</ele>
        <time>2018-12-22T17:17:49Z</time>
      </trkpt>
      <trkpt lat="44.0778" lon="5.76402">
        <ele>1133.951</ele>
        <time>2018-12-22T17:17:50Z</time>
      </trkpt>
      <trkpt lat="44.07786" lon="5.76402">
        <ele>1135.382</ele>
        <time>2018-12-22T17:17:51Z</time>
      </trkpt>
      <trkpt lat="44.07792" lon="5.76407">
        <ele>1136.972</ele>
        <time>2018-12-22T17:17:52Z</time>
      </trkpt>
      <trkpt lat="44.07795" lon="5.76413">
        <ele>1138.581</ele>
        <time>2018-12-22T17:17:53Z</time>
      </trkpt>
      <trkpt lat="44.07792" lon="5.76431">
        <ele>1140.227</ele>
        <time>2018-12-22T17:17:54Z</time>
      </trkpt>
      <trkpt lat="44.07787" lon="5.76444">
        <ele>1140.538</ele>
        <time>2018-12-22T17:17:55Z</time>
      </trkpt>
      <trkpt lat="44.07783" lon="5.76457">
        <ele>1140.57</ele>
        <time>2018-12-22T17:17:56Z</time>
      </trkpt>
      <trkpt lat="44.07778" lon="5.76474">
        <ele>1139.917</ele>
        <time>2018-12-22T17:17:57Z</time>
      </trkpt>
      <trkpt lat="44.07774" lon="5.76487">
        <ele>1139.408</ele>
        <time>2018-12-22T17:17:58Z</time>
      </trkpt>
      <trkpt lat="44.07771" lon="5.76499">
        <ele>1139.636</ele>
        <time>2018-12-22T17:17:59Z</time>
      </trkpt>
      <trkpt lat="44.07769" lon="5.76506">
        <ele>1140.474</ele>
        <time>2018-12-22T17:18:00Z</time>
      </trkpt>
      <trkpt lat="44.07769" lon="5.76522">
        <ele>1142.168</ele>
        <time>2018-12-22T17:18:02Z</time>
      </trkpt>
      <trkpt lat="44.07771" lon="5.76534">
        <ele>1142.196</ele>
        <time>2018-12-22T17:18:03Z</time>
      </trkpt>
      <trkpt lat="44.07776" lon="5.76546">
        <ele>1141.817</ele>
        <time>2018-12-22T17:18:04Z</time>
      </trkpt>
      <trkpt lat="44.07782" lon="5.76559">
        <ele>1141.217</ele>
        <time>2018-12-22T17:18:05Z</time>
      </trkpt>
      <trkpt lat="44.07789" lon="5.76572">
        <ele>1141.086</ele>
        <time>2018-12-22T17:18:06Z</time>
      </trkpt>
      <trkpt lat="44.07797" lon="5.76584">
        <ele>1140.672</ele>
        <time>2018-12-22T17:18:07Z</time>
      </trkpt>
      <trkpt lat="44.07804" lon="5.76598">
        <ele>1140.265</ele>
        <time>2018-12-22T17:18:08Z</time>
      </trkpt>
      <trkpt lat="44.07811" lon="5.76613">
        <ele>1139.868</ele>
        <time>2018-12-22T17:18:09Z</time>
      </trkpt>
      <trkpt lat="44.07817" lon="5.76627">
        <ele>1139.414</ele>
        <time>2018-12-22T17:18:10Z</time>
      </trkpt>
      <trkpt lat="44.07824" lon="5.76642">
        <ele>1139.408</ele>
        <time>2018-12-22T17:18:11Z</time>
      </trkpt>
      <trkpt lat="44.07833" lon="5.76657">
        <ele>1139.979</ele>
        <time>2018-12-22T17:18:12Z</time>
      </trkpt>
      <trkpt lat="44.0784" lon="5.76673">
        <ele>1140.767</ele>
        <time>2018-12-22T17:18:13Z</time>
      </trkpt>
      <trkpt lat="44.07848" lon="5.76689">
        <ele>1141.011</ele>
        <time>2018-12-22T17:18:14Z</time>
      </trkpt>
      <trkpt lat="44.07856" lon="5.76707">
        <ele>1141.059</ele>
        <time>2018-12-22T17:18:15Z</time>
      </trkpt>
      <trkpt lat="44.07864" lon="5.76723">
        <ele>1140.88</ele>
        <time>2018-12-22T17:18:16Z</time>
      </trkpt>
      <trkpt lat="44.07871" lon="5.76737">
        <ele>1140.52</ele>
        <time>2018-12-22T17:18:17Z</time>
      </trkpt>
      <trkpt lat="44.07878" lon="5.76749">
        <ele>1140.539</ele>
        <time>2018-12-22T17:18:18Z</time>
      </trkpt>
      <trkpt lat="44.07885" lon="5.76763">
        <ele>1142.285</ele>
        <time>2018-12-22T17:18:19Z</time>
      </trkpt>
      <trkpt lat="44.07893" lon="5.76776">
        <ele>1144.221</ele>
        <time>2018-12-22T17:18:20Z</time>
      </trkpt>
      <trkpt lat="44.07899" lon="5.76788">
        <ele>1146.441</ele>
        <time>2018-12-22T17:18:21Z</time>
      </trkpt>
      <trkpt lat="44.07906" lon="5.76801">
        <ele>1150.605</ele>
        <time>2018-12-22T17:18:22Z</time>
      </trkpt>
      <trkpt lat="44.07911" lon="5.7681">
        <ele>1152.008</ele>
        <time>2018-12-22T17:18:23Z</time>
      </trkpt>
      <trkpt lat="44.07916" lon="5.7682">
        <ele>1153.455</ele>
        <time>2018-12-22T17:18:24Z</time>
      </trkpt>
      <trkpt lat="44.07921" lon="5.76827">
        <ele>1155.553</ele>
        <time>2018-12-22T17:18:25Z</time>
      </trkpt>
      <trkpt lat="44.07925" lon="5.76836">
        <ele>1157.357</ele>
        <time>2018-12-22T17:18:26Z</time>
      </trkpt>
      <trkpt lat="44.07928" lon="5.76846">
        <ele>1158.625</ele>
        <time>2018-12-22T17:18:27Z</time>
      </trkpt>
      <trkpt lat="44.07931" lon="5.76855">
        <ele>1159.566</ele>
        <time>2018-12-22T17:18:28Z</time>
      </trkpt>
      <trkpt lat="44.07933" lon="5.76865">
        <ele>1159.516</ele>
        <time>2018-12-22T17:18:29Z</time>
      </trkpt>
      <trkpt lat="44.07936" lon="5.76873">
        <ele>1159.545</ele>
        <time>2018-12-22T17:18:30Z</time>
      </trkpt>
      <trkpt lat="44.07941" lon="5.76881">
        <ele>1158.951</ele>
        <time>2018-12-22T17:18:31Z</time>
      </trkpt>
      <trkpt lat="44.07946" lon="5.76891">
        <ele>1158.567</ele>
        <time>2018-12-22T17:18:32Z</time>
      </trkpt>
      <trkpt lat="44.07949" lon="5.769">
        <ele>1158.581</ele>
        <time>2018-12-22T17:18:33Z</time>
      </trkpt>
      <trkpt lat="44.07954" lon="5.76908">
        <ele>1158.819</ele>
        <time>2018-12-22T17:18:34Z</time>
      </trkpt>
      <trkpt lat="44.0796" lon="5.76915">
        <ele>1159.508</ele>
        <time>2018-12-22T17:18:35Z</time>
      </trkpt>
      <trkpt lat="44.07966" lon="5.7692">
        <ele>1160.589</ele>
        <time>2018-12-22T17:18:36Z</time>
      </trkpt>
      <trkpt lat="44.0797" lon="5.76925">
        <ele>1160.637</ele>
        <time>2018-12-22T17:18:37Z</time>
      </trkpt>
      <trkpt lat="44.07976" lon="5.76929">
        <ele>1161.791</ele>
        <time>2018-12-22T17:18:39Z</time>
      </trkpt>
      <trkpt lat="44.0798" lon="5.76933">
        <ele>1162.689</ele>
        <time>2018-12-22T17:18:40Z</time>
      </trkpt>
      <trkpt lat="44.07984" lon="5.76937">
        <ele>1165.15</ele>
        <time>2018-12-22T17:18:42Z</time>
      </trkpt>
      <trkpt lat="44.07988" lon="5.7694">
        <ele>1165.97</ele>
        <time>2018-12-22T17:18:45Z</time>
      </trkpt>
      <trkpt lat="44.07991" lon="5.76946">
        <ele>1166.949</ele>
        <time>2018-12-22T17:19:04Z</time>
      </trkpt>
      <trkpt lat="44.07995" lon="5.76945">
        <ele>1165.645</ele>
        <time>2018-12-22T17:19:20Z</time>
      </trkpt>
      <trkpt lat="44.07998" lon="5.76951">
        <ele>1164.848</ele>
        <time>2018-12-22T17:19:39Z</time>
      </trkpt>
      <trkpt lat="44.08001" lon="5.76946">
        <ele>1165.461</ele>
        <time>2018-12-22T17:20:00Z</time>
      </trkpt>
      <trkpt lat="44.08" lon="5.76953">
        <ele>1167.117</ele>
        <time>2018-12-22T17:20:52Z</time>
      </trkpt>
      <trkpt lat="44.08003" lon="5.76958">
        <ele>1164.508</ele>
        <time>2018-12-22T17:21:28Z</time>
      </trkpt>
      <trkpt lat="44.08012" lon="5.76959">
        <ele>1163.747</ele>
        <time>2018-12-22T17:21:29Z</time>
      </trkpt>
      <trkpt lat="44.08021" lon="5.76959">
        <ele>1163.065</ele>
        <time>2018-12-22T17:21:30Z</time>
      </trkpt>
      <trkpt lat="44.08031" lon="5.76958">
        <ele>1161.259</ele>
        <time>2018-12-22T17:21:31Z</time>
      </trkpt>
      <trkpt lat="44.0804" lon="5.76955">
        <ele>1160.317</ele>
        <time>2018-12-22T17:21:32Z</time>
      </trkpt>
      <trkpt lat="44.08051" lon="5.76951">
        <ele>1159.248</ele>
        <time>2018-12-22T17:21:33Z</time>
      </trkpt>
      <trkpt lat="44.08062" lon="5.76946">
        <ele>1158.348</ele>
        <time>2018-12-22T17:21:34Z</time>
      </trkpt>
      <trkpt lat="44.08072" lon="5.76942">
        <ele>1157.797</ele>
        <time>2018-12-22T17:21:35Z</time>
      </trkpt>
      <trkpt lat="44.08082" lon="5.76937">
        <ele>1156.833</ele>
        <time>2018-12-22T17:21:36Z</time>
      </trkpt>
      <trkpt lat="44.08092" lon="5.7693">
        <ele>1156.379</ele>
        <time>2018-12-22T17:21:37Z</time>
      </trkpt>
      <trkpt lat="44.08101" lon="5.76921">
        <ele>1155.805</ele>
        <time>2018-12-22T17:21:38Z</time>
      </trkpt>
      <trkpt lat="44.08106" lon="5.7691">
        <ele>1155.825</ele>
        <time>2018-12-22T17:21:39Z</time>
      </trkpt>
      <trkpt lat="44.08111" lon="5.76899">
        <ele>1156.108</ele>
        <time>2018-12-22T17:21:40Z</time>
      </trkpt>
      <trkpt lat="44.08115" lon="5.7689">
        <ele>1156.91</ele>
        <time>2018-12-22T17:21:41Z</time>
      </trkpt>
      <trkpt lat="44.08119" lon="5.76886">
        <ele>1158.958</ele>
        <time>2018-12-22T17:21:42Z</time>
      </trkpt>
      <trkpt lat="44.08124" lon="5.76888">
        <ele>1159.592</ele>
        <time>2018-12-22T17:21:43Z</time>
      </trkpt>
      <trkpt lat="44.08128" lon="5.76895">
        <ele>1159.56</ele>
        <time>2018-12-22T17:21:44Z</time>
      </trkpt>
      <trkpt lat="44.08131" lon="5.76904">
        <ele>1159.461</ele>
        <time>2018-12-22T17:21:45Z</time>
      </trkpt>
      <trkpt lat="44.08134" lon="5.76914">
        <ele>1158.961</ele>
        <time>2018-12-22T17:21:46Z</time>
      </trkpt>
      <trkpt lat="44.08135" lon="5.76927">
        <ele>1157.95</ele>
        <time>2018-12-22T17:21:47Z</time>
      </trkpt>
      <trkpt lat="44.08137" lon="5.76939">
        <ele>1157.266</ele>
        <time>2018-12-22T17:21:48Z</time>
      </trkpt>
      <trkpt lat="44.08139" lon="5.76947">
        <ele>1156.768</ele>
        <time>2018-12-22T17:21:49Z</time>
      </trkpt>
      <trkpt lat="44.08141" lon="5.76956">
        <ele>1156.042</ele>
        <time>2018-12-22T17:21:50Z</time>
      </trkpt>
      <trkpt lat="44.08143" lon="5.76964">
        <ele>1155.926</ele>
        <time>2018-12-22T17:21:51Z</time>
      </trkpt>
      <trkpt lat="44.08146" lon="5.76974">
        <ele>1155.608</ele>
        <time>2018-12-22T17:21:52Z</time>
      </trkpt>
      <trkpt lat="44.08148" lon="5.76982">
        <ele>1155.469</ele>
        <time>2018-12-22T17:21:53Z</time>
      </trkpt>
      <trkpt lat="44.08151" lon="5.76989">
        <ele>1154.897</ele>
        <time>2018-12-22T17:21:54Z</time>
      </trkpt>
      <trkpt lat="44.08155" lon="5.76993">
        <ele>1153.021</ele>
        <time>2018-12-22T17:21:55Z</time>
      </trkpt>
      <trkpt lat="44.08161" lon="5.76994">
        <ele>1151.669</ele>
        <time>2018-12-22T17:21:56Z</time>
      </trkpt>
      <trkpt lat="44.08167" lon="5.76995">
        <ele>1151.39</ele>
        <time>2018-12-22T17:21:57Z</time>
      </trkpt>
      <trkpt lat="44.08174" lon="5.76992">
        <ele>1151.18</ele>
        <time>2018-12-22T17:21:58Z</time>
      </trkpt>
      <trkpt lat="44.08181" lon="5.76987">
        <ele>1151.129</ele>
        <time>2018-12-22T17:21:59Z</time>
      </trkpt>
      <trkpt lat="44.08187" lon="5.7698">
        <ele>1151.135</ele>
        <time>2018-12-22T17:22:00Z</time>
      </trkpt>
      <trkpt lat="44.08193" lon="5.76975">
        <ele>1151.014</ele>
        <time>2018-12-22T17:22:01Z</time>
      </trkpt>
      <trkpt lat="44.082" lon="5.76968">
        <ele>1150.554</ele>
        <time>2018-12-22T17:22:02Z</time>
      </trkpt>
      <trkpt lat="44.08207" lon="5.76963">
        <ele>1149.409</ele>
        <time>2018-12-22T17:22:03Z</time>
      </trkpt>
      <trkpt lat="44.08214" lon="5.76959">
        <ele>1149.108</ele>
        <time>2018-12-22T17:22:04Z</time>
      </trkpt>
      <trkpt lat="44.0822" lon="5.76956">
        <ele>1149.164</ele>
        <time>2018-12-22T17:22:05Z</time>
      </trkpt>
      <trkpt lat="44.08225" lon="5.76953">
        <ele>1149.242</ele>
        <time>2018-12-22T17:22:06Z</time>
      </trkpt>
      <trkpt lat="44.08232" lon="5.7695">
        <ele>1149.566</ele>
        <time>2018-12-22T17:22:07Z</time>
      </trkpt>
      <trkpt lat="44.08238" lon="5.7695">
        <ele>1149.324</ele>
        <time>2018-12-22T17:22:08Z</time>
      </trkpt>
      <trkpt lat="44.08235" lon="5.76957">
        <ele>1147.325</ele>
        <time>2018-12-22T17:22:13Z</time>
      </trkpt>
      <trkpt lat="44.0823" lon="5.76961">
        <ele>1146.955</ele>
        <time>2018-12-22T17:22:14Z</time>
      </trkpt>
      <trkpt lat="44.08223" lon="5.76967">
        <ele>1146.434</ele>
        <time>2018-12-22T17:22:15Z</time>
      </trkpt>
      <trkpt lat="44.08218" lon="5.76973">
        <ele>1145.47</ele>
        <time>2018-12-22T17:22:16Z</time>
      </trkpt>
      <trkpt lat="44.08214" lon="5.76984">
        <ele>1143.871</ele>
        <time>2018-12-22T17:22:17Z</time>
      </trkpt>
      <trkpt lat="44.0821" lon="5.76995">
        <ele>1141.341</ele>
        <time>2018-12-22T17:22:18Z</time>
      </trkpt>
      <trkpt lat="44.08207" lon="5.77007">
        <ele>1140.115</ele>
        <time>2018-12-22T17:22:19Z</time>
      </trkpt>
      <trkpt lat="44.08202" lon="5.77017">
        <ele>1138.908</ele>
        <time>2018-12-22T17:22:20Z</time>
      </trkpt>
      <trkpt lat="44.08197" lon="5.77027">
        <ele>1138.19</ele>
        <time>2018-12-22T17:22:21Z</time>
      </trkpt>
      <trkpt lat="44.08191" lon="5.77035">
        <ele>1136.968</ele>
        <time>2018-12-22T17:22:22Z</time>
      </trkpt>
      <trkpt lat="44.08184" lon="5.77042">
        <ele>1135.562</ele>
        <time>2018-12-22T17:22:23Z</time>
      </trkpt>
      <trkpt lat="44.08177" lon="5.77048">
        <ele>1134.27</ele>
        <time>2018-12-22T17:22:24Z</time>
      </trkpt>
      <trkpt lat="44.08171" lon="5.77053">
        <ele>1133.331</ele>
        <time>2018-12-22T17:22:25Z</time>
      </trkpt>
      <trkpt lat="44.08165" lon="5.77061">
        <ele>1132.321</ele>
        <time>2018-12-22T17:22:26Z</time>
      </trkpt>
      <trkpt lat="44.08161" lon="5.77071">
        <ele>1131.29</ele>
        <time>2018-12-22T17:22:27Z</time>
      </trkpt>
      <trkpt lat="44.0816" lon="5.77082">
        <ele>1130.326</ele>
        <time>2018-12-22T17:22:28Z</time>
      </trkpt>
      <trkpt lat="44.0816" lon="5.77094">
        <ele>1129.645</ele>
        <time>2018-12-22T17:22:29Z</time>
      </trkpt>
      <trkpt lat="44.08158" lon="5.77105">
        <ele>1128.047</ele>
        <time>2018-12-22T17:22:30Z</time>
      </trkpt>
      <trkpt lat="44.08155" lon="5.77115">
        <ele>1127.611</ele>
        <time>2018-12-22T17:22:31Z</time>
      </trkpt>
      <trkpt lat="44.0815" lon="5.77124">
        <ele>1126.908</ele>
        <time>2018-12-22T17:22:32Z</time>
      </trkpt>
      <trkpt lat="44.08142" lon="5.77138">
        <ele>1126.167</ele>
        <time>2018-12-22T17:22:33Z</time>
      </trkpt>
      <trkpt lat="44.08136" lon="5.77151">
        <ele>1125.145</ele>
        <time>2018-12-22T17:22:34Z</time>
      </trkpt>
      <trkpt lat="44.0813" lon="5.77162">
        <ele>1124.269</ele>
        <time>2018-12-22T17:22:35Z</time>
      </trkpt>
      <trkpt lat="44.08124" lon="5.77175">
        <ele>1122.957</ele>
        <time>2018-12-22T17:22:36Z</time>
      </trkpt>
      <trkpt lat="44.08118" lon="5.77188">
        <ele>1121.838</ele>
        <time>2018-12-22T17:22:37Z</time>
      </trkpt>
      <trkpt lat="44.08112" lon="5.772">
        <ele>1120.688</ele>
        <time>2018-12-22T17:22:38Z</time>
      </trkpt>
      <trkpt lat="44.08107" lon="5.77213">
        <ele>1119.877</ele>
        <time>2018-12-22T17:22:39Z</time>
      </trkpt>
      <trkpt lat="44.08102" lon="5.77227">
        <ele>1118.823</ele>
        <time>2018-12-22T17:22:40Z</time>
      </trkpt>
      <trkpt lat="44.08097" lon="5.7724">
        <ele>1118.012</ele>
        <time>2018-12-22T17:22:41Z</time>
      </trkpt>
      <trkpt lat="44.08092" lon="5.77254">
        <ele>1117.132</ele>
        <time>2018-12-22T17:22:42Z</time>
      </trkpt>
      <trkpt lat="44.08087" lon="5.77267">
        <ele>1115.305</ele>
        <time>2018-12-22T17:22:43Z</time>
      </trkpt>
      <trkpt lat="44.08082" lon="5.77278">
        <ele>1114.508</ele>
        <time>2018-12-22T17:22:44Z</time>
      </trkpt>
      <trkpt lat="44.08076" lon="5.77289">
        <ele>1113.824</ele>
        <time>2018-12-22T17:22:45Z</time>
      </trkpt>
      <trkpt lat="44.08071" lon="5.773">
        <ele>1113.272</ele>
        <time>2018-12-22T17:22:46Z</time>
      </trkpt>
      <trkpt lat="44.08064" lon="5.7731">
        <ele>1112.516</ele>
        <time>2018-12-22T17:22:47Z</time>
      </trkpt>
      <trkpt lat="44.08059" lon="5.77321">
        <ele>1111.824</ele>
        <time>2018-12-22T17:22:48Z</time>
      </trkpt>
      <trkpt lat="44.08052" lon="5.7733">
        <ele>1111.295</ele>
        <time>2018-12-22T17:22:49Z</time>
      </trkpt>
      <trkpt lat="44.08045" lon="5.7734">
        <ele>1110.285</ele>
        <time>2018-12-22T17:22:50Z</time>
      </trkpt>
      <trkpt lat="44.08038" lon="5.77349">
        <ele>1109.144</ele>
        <time>2018-12-22T17:22:51Z</time>
      </trkpt>
      <trkpt lat="44.08031" lon="5.77358">
        <ele>1108.07</ele>
        <time>2018-12-22T17:22:52Z</time>
      </trkpt>
      <trkpt lat="44.08022" lon="5.77365">
        <ele>1106.817</ele>
        <time>2018-12-22T17:22:53Z</time>
      </trkpt>
      <trkpt lat="44.08013" lon="5.77369">
        <ele>1104.387</ele>
        <time>2018-12-22T17:22:54Z</time>
      </trkpt>
      <trkpt lat="44.08004" lon="5.77372">
        <ele>1103.015</ele>
        <time>2018-12-22T17:22:55Z</time>
      </trkpt>
      <trkpt lat="44.07996" lon="5.77375">
        <ele>1102.208</ele>
        <time>2018-12-22T17:22:56Z</time>
      </trkpt>
      <trkpt lat="44.07988" lon="5.77377">
        <ele>1101.954</ele>
        <time>2018-12-22T17:22:57Z</time>
      </trkpt>
      <trkpt lat="44.0798" lon="5.77379">
        <ele>1101.362</ele>
        <time>2018-12-22T17:22:58Z</time>
      </trkpt>
      <trkpt lat="44.07973" lon="5.7738">
        <ele>1100.676</ele>
        <time>2018-12-22T17:22:59Z</time>
      </trkpt>
      <trkpt lat="44.07966" lon="5.77381">
        <ele>1100.064</ele>
        <time>2018-12-22T17:23:00Z</time>
      </trkpt>
      <trkpt lat="44.07958" lon="5.77383">
        <ele>1099.165</ele>
        <time>2018-12-22T17:23:01Z</time>
      </trkpt>
      <trkpt lat="44.07949" lon="5.77385">
        <ele>1097.875</ele>
        <time>2018-12-22T17:23:02Z</time>
      </trkpt>
      <trkpt lat="44.07936" lon="5.77388">
        <ele>1096.934</ele>
        <time>2018-12-22T17:23:03Z</time>
      </trkpt>
      <trkpt lat="44.07925" lon="5.7739">
        <ele>1096.19</ele>
        <time>2018-12-22T17:23:04Z</time>
      </trkpt>
      <trkpt lat="44.07915" lon="5.77393">
        <ele>1095.377</ele>
        <time>2018-12-22T17:23:05Z</time>
      </trkpt>
      <trkpt lat="44.07905" lon="5.77398">
        <ele>1093.961</ele>
        <time>2018-12-22T17:23:06Z</time>
      </trkpt>
      <trkpt lat="44.07897" lon="5.77402">
        <ele>1092.927</ele>
        <time>2018-12-22T17:23:07Z</time>
      </trkpt>
      <trkpt lat="44.0789" lon="5.77407">
        <ele>1092.208</ele>
        <time>2018-12-22T17:23:08Z</time>
      </trkpt>
      <trkpt lat="44.07882" lon="5.77413">
        <ele>1091.55</ele>
        <time>2018-12-22T17:23:09Z</time>
      </trkpt>
      <trkpt lat="44.07874" lon="5.7742">
        <ele>1090.728</ele>
        <time>2018-12-22T17:23:10Z</time>
      </trkpt>
      <trkpt lat="44.07866" lon="5.77428">
        <ele>1089.852</ele>
        <time>2018-12-22T17:23:11Z</time>
      </trkpt>
      <trkpt lat="44.07858" lon="5.77434">
        <ele>1089.05</ele>
        <time>2018-12-22T17:23:12Z</time>
      </trkpt>
      <trkpt lat="44.0785" lon="5.7744">
        <ele>1088.041</ele>
        <time>2018-12-22T17:23:13Z</time>
      </trkpt>
      <trkpt lat="44.07842" lon="5.77445">
        <ele>1087.171</ele>
        <time>2018-12-22T17:23:14Z</time>
      </trkpt>
      <trkpt lat="44.07835" lon="5.77449">
        <ele>1086.31</ele>
        <time>2018-12-22T17:23:15Z</time>
      </trkpt>
      <trkpt lat="44.07827" lon="5.77454">
        <ele>1085.516</ele>
        <time>2018-12-22T17:23:16Z</time>
      </trkpt>
      <trkpt lat="44.07817" lon="5.77461">
        <ele>1084.643</ele>
        <time>2018-12-22T17:23:17Z</time>
      </trkpt>
      <trkpt lat="44.07808" lon="5.7747">
        <ele>1082.964</ele>
        <time>2018-12-22T17:23:18Z</time>
      </trkpt>
      <trkpt lat="44.078" lon="5.77482">
        <ele>1081.91</ele>
        <time>2018-12-22T17:23:19Z</time>
      </trkpt>
      <trkpt lat="44.07792" lon="5.77495">
        <ele>1081.008</ele>
        <time>2018-12-22T17:23:20Z</time>
      </trkpt>
      <trkpt lat="44.07786" lon="5.77509">
        <ele>1080.287</ele>
        <time>2018-12-22T17:23:21Z</time>
      </trkpt>
      <trkpt lat="44.07782" lon="5.7752">
        <ele>1079.165</ele>
        <time>2018-12-22T17:23:22Z</time>
      </trkpt>
      <trkpt lat="44.07777" lon="5.77531">
        <ele>1078.199</ele>
        <time>2018-12-22T17:23:23Z</time>
      </trkpt>
      <trkpt lat="44.07775" lon="5.77543">
        <ele>1077.497</ele>
        <time>2018-12-22T17:23:24Z</time>
      </trkpt>
      <trkpt lat="44.07774" lon="5.77555">
        <ele>1076.568</ele>
        <time>2018-12-22T17:23:25Z</time>
      </trkpt>
      <trkpt lat="44.07773" lon="5.77568">
        <ele>1075.748</ele>
        <time>2018-12-22T17:23:26Z</time>
      </trkpt>
      <trkpt lat="44.07775" lon="5.77582">
        <ele>1075.077</ele>
        <time>2018-12-22T17:23:27Z</time>
      </trkpt>
      <trkpt lat="44.07776" lon="5.77598">
        <ele>1074.423</ele>
        <time>2018-12-22T17:23:28Z</time>
      </trkpt>
      <trkpt lat="44.07777" lon="5.77612">
        <ele>1072.859</ele>
        <time>2018-12-22T17:23:29Z</time>
      </trkpt>
      <trkpt lat="44.07776" lon="5.77626">
        <ele>1071.703</ele>
        <time>2018-12-22T17:23:30Z</time>
      </trkpt>
      <trkpt lat="44.07777" lon="5.7764">
        <ele>1070.623</ele>
        <time>2018-12-22T17:23:31Z</time>
      </trkpt>
      <trkpt lat="44.07776" lon="5.77655">
        <ele>1069.308</ele>
        <time>2018-12-22T17:23:32Z</time>
      </trkpt>
      <trkpt lat="44.07775" lon="5.77671">
        <ele>1068.028</ele>
        <time>2018-12-22T17:23:33Z</time>
      </trkpt>
      <trkpt lat="44.07774" lon="5.77685">
        <ele>1066.936</ele>
        <time>2018-12-22T17:23:34Z</time>
      </trkpt>
      <trkpt lat="44.07773" lon="5.77697">
        <ele>1066.27</ele>
        <time>2018-12-22T17:23:35Z</time>
      </trkpt>
      <trkpt lat="44.07772" lon="5.7771">
        <ele>1065.598</ele>
        <time>2018-12-22T17:23:36Z</time>
      </trkpt>
      <trkpt lat="44.07771" lon="5.77721">
        <ele>1065.039</ele>
        <time>2018-12-22T17:23:37Z</time>
      </trkpt>
      <trkpt lat="44.07767" lon="5.77729">
        <ele>1064.369</ele>
        <time>2018-12-22T17:23:38Z</time>
      </trkpt>
      <trkpt lat="44.0776" lon="5.77737">
        <ele>1063.668</ele>
        <time>2018-12-22T17:23:39Z</time>
      </trkpt>
      <trkpt lat="44.07753" lon="5.77745">
        <ele>1062.684</ele>
        <time>2018-12-22T17:23:40Z</time>
      </trkpt>
      <trkpt lat="44.07744" lon="5.77751">
        <ele>1060.586</ele>
        <time>2018-12-22T17:23:41Z</time>
      </trkpt>
      <trkpt lat="44.07736" lon="5.77758">
        <ele>1059.56</ele>
        <time>2018-12-22T17:23:42Z</time>
      </trkpt>
      <trkpt lat="44.07728" lon="5.77766">
        <ele>1057.326</ele>
        <time>2018-12-22T17:23:43Z</time>
      </trkpt>
      <trkpt lat="44.07722" lon="5.77778">
        <ele>1057.308</ele>
        <time>2018-12-22T17:23:44Z</time>
      </trkpt>
      <trkpt lat="44.07717" lon="5.77789">
        <ele>1057.351</ele>
        <time>2018-12-22T17:23:45Z</time>
      </trkpt>
      <trkpt lat="44.07713" lon="5.77801">
        <ele>1056.419</ele>
        <time>2018-12-22T17:23:46Z</time>
      </trkpt>
      <trkpt lat="44.07709" lon="5.77811">
        <ele>1055.673</ele>
        <time>2018-12-22T17:23:47Z</time>
      </trkpt>
      <trkpt lat="44.07702" lon="5.7782">
        <ele>1054.851</ele>
        <time>2018-12-22T17:23:48Z</time>
      </trkpt>
      <trkpt lat="44.07695" lon="5.77828">
        <ele>1053.782</ele>
        <time>2018-12-22T17:23:49Z</time>
      </trkpt>
      <trkpt lat="44.07687" lon="5.77836">
        <ele>1052.442</ele>
        <time>2018-12-22T17:23:50Z</time>
      </trkpt>
      <trkpt lat="44.0768" lon="5.77846">
        <ele>1051.211</ele>
        <time>2018-12-22T17:23:51Z</time>
      </trkpt>
      <trkpt lat="44.07674" lon="5.77856">
        <ele>1049.867</ele>
        <time>2018-12-22T17:23:52Z</time>
      </trkpt>
      <trkpt lat="44.07667" lon="5.77867">
        <ele>1047.041</ele>
        <time>2018-12-22T17:23:53Z</time>
      </trkpt>
      <trkpt lat="44.07661" lon="5.77877">
        <ele>1046.181</ele>
        <time>2018-12-22T17:23:54Z</time>
      </trkpt>
      <trkpt lat="44.07655" lon="5.77888">
        <ele>1045.209</ele>
        <time>2018-12-22T17:23:55Z</time>
      </trkpt>
      <trkpt lat="44.07647" lon="5.77898">
        <ele>1044.408</ele>
        <time>2018-12-22T17:23:56Z</time>
      </trkpt>
      <trkpt lat="44.07639" lon="5.77906">
        <ele>1043.787</ele>
        <time>2018-12-22T17:23:57Z</time>
      </trkpt>
      <trkpt lat="44.07631" lon="5.77912">
        <ele>1043.045</ele>
        <time>2018-12-22T17:23:58Z</time>
      </trkpt>
      <trkpt lat="44.07623" lon="5.77919">
        <ele>1042.149</ele>
        <time>2018-12-22T17:23:59Z</time>
      </trkpt>
      <trkpt lat="44.07616" lon="5.77927">
        <ele>1041.197</ele>
        <time>2018-12-22T17:24:00Z</time>
      </trkpt>
      <trkpt lat="44.07609" lon="5.77937">
        <ele>1039.948</ele>
        <time>2018-12-22T17:24:01Z</time>
      </trkpt>
      <trkpt lat="44.07602" lon="5.77949">
        <ele>1039.048</ele>
        <time>2018-12-22T17:24:02Z</time>
      </trkpt>
      <trkpt lat="44.07595" lon="5.7796">
        <ele>1037.717</ele>
        <time>2018-12-22T17:24:03Z</time>
      </trkpt>
      <trkpt lat="44.07589" lon="5.77971">
        <ele>1036.443</ele>
        <time>2018-12-22T17:24:04Z</time>
      </trkpt>
      <trkpt lat="44.07584" lon="5.77981">
        <ele>1034.664</ele>
        <time>2018-12-22T17:24:05Z</time>
      </trkpt>
      <trkpt lat="44.07578" lon="5.77994">
        <ele>1033.606</ele>
        <time>2018-12-22T17:24:06Z</time>
      </trkpt>
      <trkpt lat="44.07573" lon="5.78005">
        <ele>1032.616</ele>
        <time>2018-12-22T17:24:07Z</time>
      </trkpt>
      <trkpt lat="44.07568" lon="5.78015">
        <ele>1031.708</ele>
        <time>2018-12-22T17:24:08Z</time>
      </trkpt>
      <trkpt lat="44.07563" lon="5.78024">
        <ele>1030.619</ele>
        <time>2018-12-22T17:24:09Z</time>
      </trkpt>
      <trkpt lat="44.07557" lon="5.78034">
        <ele>1029.547</ele>
        <time>2018-12-22T17:24:10Z</time>
      </trkpt>
      <trkpt lat="44.07552" lon="5.78045">
        <ele>1028.611</ele>
        <time>2018-12-22T17:24:11Z</time>
      </trkpt>
      <trkpt lat="44.07546" lon="5.78056">
        <ele>1027.589</ele>
        <time>2018-12-22T17:24:12Z</time>
      </trkpt>
      <trkpt lat="44.07541" lon="5.78069">
        <ele>1026.63</ele>
        <time>2018-12-22T17:24:13Z</time>
      </trkpt>
      <trkpt lat="44.07537" lon="5.78081">
        <ele>1025.73</ele>
        <time>2018-12-22T17:24:14Z</time>
      </trkpt>
      <trkpt lat="44.07531" lon="5.78092">
        <ele>1024.549</ele>
        <time>2018-12-22T17:24:15Z</time>
      </trkpt>
      <trkpt lat="44.07526" lon="5.78103">
        <ele>1023.335</ele>
        <time>2018-12-22T17:24:16Z</time>
      </trkpt>
      <trkpt lat="44.07521" lon="5.78115">
        <ele>1020.541</ele>
        <time>2018-12-22T17:24:17Z</time>
      </trkpt>
      <trkpt lat="44.07516" lon="5.7813">
        <ele>1018.881</ele>
        <time>2018-12-22T17:24:18Z</time>
      </trkpt>
      <trkpt lat="44.07513" lon="5.78141">
        <ele>1017.709</ele>
        <time>2018-12-22T17:24:19Z</time>
      </trkpt>
      <trkpt lat="44.07509" lon="5.7815">
        <ele>1016.408</ele>
        <time>2018-12-22T17:24:20Z</time>
      </trkpt>
      <trkpt lat="44.07505" lon="5.78161">
        <ele>1015.347</ele>
        <time>2018-12-22T17:24:21Z</time>
      </trkpt>
      <trkpt lat="44.075" lon="5.7817">
        <ele>1014.495</ele>
        <time>2018-12-22T17:24:22Z</time>
      </trkpt>
      <trkpt lat="44.07494" lon="5.78176">
        <ele>1011.779</ele>
        <time>2018-12-22T17:24:23Z</time>
      </trkpt>
      <trkpt lat="44.07487" lon="5.78181">
        <ele>1011.777</ele>
        <time>2018-12-22T17:24:24Z</time>
      </trkpt>
      <trkpt lat="44.07482" lon="5.78184">
        <ele>1011.738</ele>
        <time>2018-12-22T17:24:25Z</time>
      </trkpt>
      <trkpt lat="44.07476" lon="5.78187">
        <ele>1009.998</ele>
        <time>2018-12-22T17:24:26Z</time>
      </trkpt>
      <trkpt lat="44.0747" lon="5.78193">
        <ele>1008.887</ele>
        <time>2018-12-22T17:24:27Z</time>
      </trkpt>
      <trkpt lat="44.07465" lon="5.78197">
        <ele>1008.843</ele>
        <time>2018-12-22T17:24:28Z</time>
      </trkpt>
      <trkpt lat="44.07453" lon="5.78214">
        <ele>1006.031</ele>
        <time>2018-12-22T17:24:29Z</time>
      </trkpt>
      <trkpt lat="44.07447" lon="5.78219">
        <ele>1004.561</ele>
        <time>2018-12-22T17:24:30Z</time>
      </trkpt>
      <trkpt lat="44.07442" lon="5.78227">
        <ele>1003.207</ele>
        <time>2018-12-22T17:24:31Z</time>
      </trkpt>
      <trkpt lat="44.07438" lon="5.78234">
        <ele>1002.008</ele>
        <time>2018-12-22T17:24:32Z</time>
      </trkpt>
      <trkpt lat="44.07433" lon="5.7824">
        <ele>1000.566</ele>
        <time>2018-12-22T17:24:33Z</time>
      </trkpt>
      <trkpt lat="44.07424" lon="5.78244">
        <ele>999.384</ele>
        <time>2018-12-22T17:24:34Z</time>
      </trkpt>
      <trkpt lat="44.07417" lon="5.78248">
        <ele>998.018</ele>
        <time>2018-12-22T17:24:35Z</time>
      </trkpt>
      <trkpt lat="44.07401" lon="5.78255">
        <ele>996.276</ele>
        <time>2018-12-22T17:24:36Z</time>
      </trkpt>
      <trkpt lat="44.07387" lon="5.78265">
        <ele>995.047</ele>
        <time>2018-12-22T17:24:37Z</time>
      </trkpt>
      <trkpt lat="44.07371" lon="5.78279">
        <ele>994.197</ele>
        <time>2018-12-22T17:24:38Z</time>
      </trkpt>
      <trkpt lat="44.07355" lon="5.78295">
        <ele>993.076</ele>
        <time>2018-12-22T17:24:39Z</time>
      </trkpt>
      <trkpt lat="44.07338" lon="5.78311">
        <ele>991.862</ele>
        <time>2018-12-22T17:24:40Z</time>
      </trkpt>
      <trkpt lat="44.07324" lon="5.78324">
        <ele>989.891</ele>
        <time>2018-12-22T17:24:41Z</time>
      </trkpt>
      <trkpt lat="44.07312" lon="5.78335">
        <ele>988.681</ele>
        <time>2018-12-22T17:24:42Z</time>
      </trkpt>
      <trkpt lat="44.07301" lon="5.78346">
        <ele>987.419</ele>
        <time>2018-12-22T17:24:43Z</time>
      </trkpt>
      <trkpt lat="44.0729" lon="5.78359">
        <ele>986.208</ele>
        <time>2018-12-22T17:24:44Z</time>
      </trkpt>
      <trkpt lat="44.07278" lon="5.78369">
        <ele>984.922</ele>
        <time>2018-12-22T17:24:45Z</time>
      </trkpt>
      <trkpt lat="44.07266" lon="5.78376">
        <ele>983.86</ele>
        <time>2018-12-22T17:24:46Z</time>
      </trkpt>
      <trkpt lat="44.07254" lon="5.78381">
        <ele>982.634</ele>
        <time>2018-12-22T17:24:47Z</time>
      </trkpt>
      <trkpt lat="44.07242" lon="5.78388">
        <ele>981.572</ele>
        <time>2018-12-22T17:24:48Z</time>
      </trkpt>
      <trkpt lat="44.0723" lon="5.78397">
        <ele>980.683</ele>
        <time>2018-12-22T17:24:49Z</time>
      </trkpt>
      <trkpt lat="44.07219" lon="5.78403">
        <ele>979.413</ele>
        <time>2018-12-22T17:24:50Z</time>
      </trkpt>
      <trkpt lat="44.07209" lon="5.78409">
        <ele>978.092</ele>
        <time>2018-12-22T17:24:51Z</time>
      </trkpt>
      <trkpt lat="44.07197" lon="5.78416">
        <ele>975.218</ele>
        <time>2018-12-22T17:24:52Z</time>
      </trkpt>
      <trkpt lat="44.07185" lon="5.78423">
        <ele>973.358</ele>
        <time>2018-12-22T17:24:53Z</time>
      </trkpt>
      <trkpt lat="44.07173" lon="5.78429">
        <ele>972.052</ele>
        <time>2018-12-22T17:24:54Z</time>
      </trkpt>
      <trkpt lat="44.07162" lon="5.78436">
        <ele>970.617</ele>
        <time>2018-12-22T17:24:55Z</time>
      </trkpt>
      <trkpt lat="44.0715" lon="5.78443">
        <ele>969.208</ele>
        <time>2018-12-22T17:24:56Z</time>
      </trkpt>
      <trkpt lat="44.07138" lon="5.78453">
        <ele>968.178</ele>
        <time>2018-12-22T17:24:57Z</time>
      </trkpt>
      <trkpt lat="44.07126" lon="5.78464">
        <ele>967.366</ele>
        <time>2018-12-22T17:24:58Z</time>
      </trkpt>
      <trkpt lat="44.07114" lon="5.78475">
        <ele>966.49</ele>
        <time>2018-12-22T17:24:59Z</time>
      </trkpt>
      <trkpt lat="44.07101" lon="5.78483">
        <ele>966.198</ele>
        <time>2018-12-22T17:25:00Z</time>
      </trkpt>
      <trkpt lat="44.07088" lon="5.7849">
        <ele>965.819</ele>
        <time>2018-12-22T17:25:01Z</time>
      </trkpt>
      <trkpt lat="44.07077" lon="5.78497">
        <ele>965.489</ele>
        <time>2018-12-22T17:25:02Z</time>
      </trkpt>
      <trkpt lat="44.07066" lon="5.78503">
        <ele>964.818</ele>
        <time>2018-12-22T17:25:03Z</time>
      </trkpt>
      <trkpt lat="44.07054" lon="5.7851">
        <ele>962.924</ele>
        <time>2018-12-22T17:25:04Z</time>
      </trkpt>
      <trkpt lat="44.07042" lon="5.78516">
        <ele>961.873</ele>
        <time>2018-12-22T17:25:05Z</time>
      </trkpt>
      <trkpt lat="44.0703" lon="5.78521">
        <ele>960.885</ele>
        <time>2018-12-22T17:25:06Z</time>
      </trkpt>
      <trkpt lat="44.07019" lon="5.78524">
        <ele>960.413</ele>
        <time>2018-12-22T17:25:07Z</time>
      </trkpt>
      <trkpt lat="44.07009" lon="5.78527">
        <ele>959.908</ele>
        <time>2018-12-22T17:25:08Z</time>
      </trkpt>
      <trkpt lat="44.06998" lon="5.78528">
        <ele>959.65</ele>
        <time>2018-12-22T17:25:09Z</time>
      </trkpt>
      <trkpt lat="44.06988" lon="5.78528">
        <ele>959.188</ele>
        <time>2018-12-22T17:25:10Z</time>
      </trkpt>
      <trkpt lat="44.06978" lon="5.78529">
        <ele>958.552</ele>
        <time>2018-12-22T17:25:11Z</time>
      </trkpt>
      <trkpt lat="44.06967" lon="5.78531">
        <ele>957.49</ele>
        <time>2018-12-22T17:25:12Z</time>
      </trkpt>
      <trkpt lat="44.06956" lon="5.78534">
        <ele>956.251</ele>
        <time>2018-12-22T17:25:13Z</time>
      </trkpt>
      <trkpt lat="44.06946" lon="5.78538">
        <ele>954.651</ele>
        <time>2018-12-22T17:25:14Z</time>
      </trkpt>
      <trkpt lat="44.06935" lon="5.78542">
        <ele>952.13</ele>
        <time>2018-12-22T17:25:15Z</time>
      </trkpt>
      <trkpt lat="44.06923" lon="5.78546">
        <ele>950.986</ele>
        <time>2018-12-22T17:25:16Z</time>
      </trkpt>
      <trkpt lat="44.06912" lon="5.7855">
        <ele>950.399</ele>
        <time>2018-12-22T17:25:17Z</time>
      </trkpt>
      <trkpt lat="44.06902" lon="5.78556">
        <ele>949.607</ele>
        <time>2018-12-22T17:25:18Z</time>
      </trkpt>
      <trkpt lat="44.06892" lon="5.78562">
        <ele>948.727</ele>
        <time>2018-12-22T17:25:19Z</time>
      </trkpt>
      <trkpt lat="44.06884" lon="5.78569">
        <ele>947.808</ele>
        <time>2018-12-22T17:25:20Z</time>
      </trkpt>
      <trkpt lat="44.06873" lon="5.78576">
        <ele>946.942</ele>
        <time>2018-12-22T17:25:21Z</time>
      </trkpt>
      <trkpt lat="44.06863" lon="5.78583">
        <ele>945.53</ele>
        <time>2018-12-22T17:25:22Z</time>
      </trkpt>
      <trkpt lat="44.06852" lon="5.78591">
        <ele>944.324</ele>
        <time>2018-12-22T17:25:23Z</time>
      </trkpt>
      <trkpt lat="44.06841" lon="5.78599">
        <ele>943.142</ele>
        <time>2018-12-22T17:25:24Z</time>
      </trkpt>
      <trkpt lat="44.0683" lon="5.78608">
        <ele>941.713</ele>
        <time>2018-12-22T17:25:25Z</time>
      </trkpt>
      <trkpt lat="44.06819" lon="5.78617">
        <ele>940.253</ele>
        <time>2018-12-22T17:25:26Z</time>
      </trkpt>
      <trkpt lat="44.06808" lon="5.78626">
        <ele>937.572</ele>
        <time>2018-12-22T17:25:27Z</time>
      </trkpt>
      <trkpt lat="44.06797" lon="5.78635">
        <ele>936.158</ele>
        <time>2018-12-22T17:25:28Z</time>
      </trkpt>
      <trkpt lat="44.06788" lon="5.78642">
        <ele>935.046</ele>
        <time>2018-12-22T17:25:29Z</time>
      </trkpt>
      <trkpt lat="44.06779" lon="5.78648">
        <ele>934.388</ele>
        <time>2018-12-22T17:25:30Z</time>
      </trkpt>
      <trkpt lat="44.0677" lon="5.78654">
        <ele>933.916</ele>
        <time>2018-12-22T17:25:31Z</time>
      </trkpt>
      <trkpt lat="44.06761" lon="5.78658">
        <ele>933.708</ele>
        <time>2018-12-22T17:25:32Z</time>
      </trkpt>
      <trkpt lat="44.06752" lon="5.7866">
        <ele>933.697</ele>
        <time>2018-12-22T17:25:33Z</time>
      </trkpt>
      <trkpt lat="44.06744" lon="5.78659">
        <ele>933.475</ele>
        <time>2018-12-22T17:25:34Z</time>
      </trkpt>
      <trkpt lat="44.06735" lon="5.78659">
        <ele>933.039</ele>
        <time>2018-12-22T17:25:35Z</time>
      </trkpt>
      <trkpt lat="44.06727" lon="5.7866">
        <ele>932.517</ele>
        <time>2018-12-22T17:25:36Z</time>
      </trkpt>
      <trkpt lat="44.06719" lon="5.78661">
        <ele>931.668</ele>
        <time>2018-12-22T17:25:37Z</time>
      </trkpt>
      <trkpt lat="44.0671" lon="5.78665">
        <ele>930.768</ele>
        <time>2018-12-22T17:25:38Z</time>
      </trkpt>
      <trkpt lat="44.06702" lon="5.78668">
        <ele>928.937</ele>
        <time>2018-12-22T17:25:39Z</time>
      </trkpt>
      <trkpt lat="44.06693" lon="5.78674">
        <ele>928.073</ele>
        <time>2018-12-22T17:25:40Z</time>
      </trkpt>
      <trkpt lat="44.06684" lon="5.7868">
        <ele>927.332</ele>
        <time>2018-12-22T17:25:41Z</time>
      </trkpt>
      <trkpt lat="44.06675" lon="5.78686">
        <ele>926.292</ele>
        <time>2018-12-22T17:25:42Z</time>
      </trkpt>
      <trkpt lat="44.06665" lon="5.78692">
        <ele>925.011</ele>
        <time>2018-12-22T17:25:43Z</time>
      </trkpt>
      <trkpt lat="44.06654" lon="5.78696">
        <ele>923.908</ele>
        <time>2018-12-22T17:25:44Z</time>
      </trkpt>
      <trkpt lat="44.06643" lon="5.787">
        <ele>923.076</ele>
        <time>2018-12-22T17:25:45Z</time>
      </trkpt>
      <trkpt lat="44.06633" lon="5.78704">
        <ele>921.964</ele>
        <time>2018-12-22T17:25:46Z</time>
      </trkpt>
      <trkpt lat="44.06622" lon="5.78711">
        <ele>921.098</ele>
        <time>2018-12-22T17:25:47Z</time>
      </trkpt>
      <trkpt lat="44.06611" lon="5.78719">
        <ele>919.986</ele>
        <time>2018-12-22T17:25:48Z</time>
      </trkpt>
      <trkpt lat="44.06598" lon="5.78729">
        <ele>918.837</ele>
        <time>2018-12-22T17:25:49Z</time>
      </trkpt>
      <trkpt lat="44.06586" lon="5.78736">
        <ele>917.217</ele>
        <time>2018-12-22T17:25:50Z</time>
      </trkpt>
      <trkpt lat="44.06574" lon="5.78742">
        <ele>916.216</ele>
        <time>2018-12-22T17:25:51Z</time>
      </trkpt>
      <trkpt lat="44.06563" lon="5.78747">
        <ele>914.482</ele>
        <time>2018-12-22T17:25:52Z</time>
      </trkpt>
      <trkpt lat="44.06552" lon="5.78751">
        <ele>913.841</ele>
        <time>2018-12-22T17:25:53Z</time>
      </trkpt>
      <trkpt lat="44.06541" lon="5.78755">
        <ele>913.481</ele>
        <time>2018-12-22T17:25:54Z</time>
      </trkpt>
      <trkpt lat="44.0653" lon="5.78759">
        <ele>912.709</ele>
        <time>2018-12-22T17:25:55Z</time>
      </trkpt>
      <trkpt lat="44.06519" lon="5.78764">
        <ele>912.108</ele>
        <time>2018-12-22T17:25:56Z</time>
      </trkpt>
      <trkpt lat="44.06509" lon="5.78771">
        <ele>911.427</ele>
        <time>2018-12-22T17:25:57Z</time>
      </trkpt>
      <trkpt lat="44.06499" lon="5.7878">
        <ele>910.765</ele>
        <time>2018-12-22T17:25:58Z</time>
      </trkpt>
      <trkpt lat="44.0649" lon="5.78788">
        <ele>910.119</ele>
        <time>2018-12-22T17:25:59Z</time>
      </trkpt>
      <trkpt lat="44.06481" lon="5.78793">
        <ele>909.687</ele>
        <time>2018-12-22T17:26:00Z</time>
      </trkpt>
      <trkpt lat="44.06472" lon="5.78797">
        <ele>909.048</ele>
        <time>2018-12-22T17:26:01Z</time>
      </trkpt>
      <trkpt lat="44.06463" lon="5.78801">
        <ele>908.568</ele>
        <time>2018-12-22T17:26:02Z</time>
      </trkpt>
      <trkpt lat="44.06456" lon="5.78805">
        <ele>908.417</ele>
        <time>2018-12-22T17:26:03Z</time>
      </trkpt>
      <trkpt lat="44.06449" lon="5.7881">
        <ele>908.463</ele>
        <time>2018-12-22T17:26:04Z</time>
      </trkpt>
      <trkpt lat="44.06443" lon="5.78813">
        <ele>908.787</ele>
        <time>2018-12-22T17:26:05Z</time>
      </trkpt>
      <trkpt lat="44.06435" lon="5.78813">
        <ele>909.342</ele>
        <time>2018-12-22T17:26:07Z</time>
      </trkpt>
      <trkpt lat="44.06432" lon="5.78822">
        <ele>908.526</ele>
        <time>2018-12-22T17:26:19Z</time>
      </trkpt>
      <trkpt lat="44.06428" lon="5.78828">
        <ele>907.808</ele>
        <time>2018-12-22T17:26:20Z</time>
      </trkpt>
      <trkpt lat="44.06423" lon="5.78832">
        <ele>907.121</ele>
        <time>2018-12-22T17:26:21Z</time>
      </trkpt>
      <trkpt lat="44.06417" lon="5.78835">
        <ele>906.369</ele>
        <time>2018-12-22T17:26:22Z</time>
      </trkpt>
      <trkpt lat="44.06409" lon="5.78838">
        <ele>905.333</ele>
        <time>2018-12-22T17:26:23Z</time>
      </trkpt>
      <trkpt lat="44.06401" lon="5.7884">
        <ele>904.771</ele>
        <time>2018-12-22T17:26:24Z</time>
      </trkpt>
      <trkpt lat="44.06394" lon="5.78839">
        <ele>904.232</ele>
        <time>2018-12-22T17:26:25Z</time>
      </trkpt>
      <trkpt lat="44.06386" lon="5.78838">
        <ele>903.862</ele>
        <time>2018-12-22T17:26:26Z</time>
      </trkpt>
      <trkpt lat="44.06379" lon="5.78838">
        <ele>902.911</ele>
        <time>2018-12-22T17:26:27Z</time>
      </trkpt>
      <trkpt lat="44.06371" lon="5.7884">
        <ele>902.387</ele>
        <time>2018-12-22T17:26:28Z</time>
      </trkpt>
      <trkpt lat="44.06363" lon="5.78842">
        <ele>901.535</ele>
        <time>2018-12-22T17:26:29Z</time>
      </trkpt>
      <trkpt lat="44.06355" lon="5.78843">
        <ele>900.686</ele>
        <time>2018-12-22T17:26:30Z</time>
      </trkpt>
      <trkpt lat="44.06348" lon="5.78846">
        <ele>899.914</ele>
        <time>2018-12-22T17:26:31Z</time>
      </trkpt>
      <trkpt lat="44.06343" lon="5.78848">
        <ele>899.608</ele>
        <time>2018-12-22T17:26:32Z</time>
      </trkpt>
      <trkpt lat="44.06337" lon="5.78848">
        <ele>899.316</ele>
        <time>2018-12-22T17:26:34Z</time>
      </trkpt>
      <trkpt lat="44.06332" lon="5.78851">
        <ele>900.164</ele>
        <time>2018-12-22T17:26:38Z</time>
      </trkpt>
      <trkpt lat="44.06328" lon="5.78851">
        <ele>900.878</ele>
        <time>2018-12-22T17:27:02Z</time>
      </trkpt>
      <trkpt lat="44.0633" lon="5.78857">
        <ele>901.116</ele>
        <time>2018-12-22T17:27:22Z</time>
      </trkpt>
      <trkpt lat="44.06322" lon="5.78857">
        <ele>899.247</ele>
        <time>2018-12-22T17:27:35Z</time>
      </trkpt>
      <trkpt lat="44.06317" lon="5.7886">
        <ele>898.857</ele>
        <time>2018-12-22T17:27:36Z</time>
      </trkpt>
      <trkpt lat="44.0631" lon="5.78861">
        <ele>898.346</ele>
        <time>2018-12-22T17:27:37Z</time>
      </trkpt>
      <trkpt lat="44.06303" lon="5.78861">
        <ele>897.532</ele>
        <time>2018-12-22T17:27:38Z</time>
      </trkpt>
      <trkpt lat="44.06293" lon="5.78861">
        <ele>895.323</ele>
        <time>2018-12-22T17:27:39Z</time>
      </trkpt>
      <trkpt lat="44.06284" lon="5.78863">
        <ele>894.483</ele>
        <time>2018-12-22T17:27:40Z</time>
      </trkpt>
      <trkpt lat="44.06273" lon="5.78865">
        <ele>893.511</ele>
        <time>2018-12-22T17:27:41Z</time>
      </trkpt>
      <trkpt lat="44.06263" lon="5.78868">
        <ele>892.708</ele>
        <time>2018-12-22T17:27:42Z</time>
      </trkpt>
      <trkpt lat="44.06253" lon="5.78872">
        <ele>892.235</ele>
        <time>2018-12-22T17:27:43Z</time>
      </trkpt>
      <trkpt lat="44.06243" lon="5.78876">
        <ele>892.043</ele>
        <time>2018-12-22T17:27:44Z</time>
      </trkpt>
      <trkpt lat="44.06235" lon="5.78882">
        <ele>891.547</ele>
        <time>2018-12-22T17:27:45Z</time>
      </trkpt>
      <trkpt lat="44.06226" lon="5.78887">
        <ele>890.945</ele>
        <time>2018-12-22T17:27:46Z</time>
      </trkpt>
      <trkpt lat="44.06218" lon="5.78891">
        <ele>890.476</ele>
        <time>2018-12-22T17:27:47Z</time>
      </trkpt>
      <trkpt lat="44.06209" lon="5.78895">
        <ele>890.096</ele>
        <time>2018-12-22T17:27:48Z</time>
      </trkpt>
      <trkpt lat="44.06199" lon="5.78898">
        <ele>889.555</ele>
        <time>2018-12-22T17:27:49Z</time>
      </trkpt>
      <trkpt lat="44.0619" lon="5.789">
        <ele>888.521</ele>
        <time>2018-12-22T17:27:50Z</time>
      </trkpt>
      <trkpt lat="44.06181" lon="5.78901">
        <ele>888.243</ele>
        <time>2018-12-22T17:27:51Z</time>
      </trkpt>
      <trkpt lat="44.06173" lon="5.78902">
        <ele>887.664</ele>
        <time>2018-12-22T17:27:52Z</time>
      </trkpt>
      <trkpt lat="44.06165" lon="5.78905">
        <ele>886.91</ele>
        <time>2018-12-22T17:27:53Z</time>
      </trkpt>
      <trkpt lat="44.06157" lon="5.78907">
        <ele>886.408</ele>
        <time>2018-12-22T17:27:54Z</time>
      </trkpt>
      <trkpt lat="44.06149" lon="5.78909">
        <ele>885.847</ele>
        <time>2018-12-22T17:27:55Z</time>
      </trkpt>
      <trkpt lat="44.06141" lon="5.78908">
        <ele>885.045</ele>
        <time>2018-12-22T17:27:56Z</time>
      </trkpt>
      <trkpt lat="44.06134" lon="5.78907">
        <ele>884.329</ele>
        <time>2018-12-22T17:27:57Z</time>
      </trkpt>
      <trkpt lat="44.06127" lon="5.78906">
        <ele>883.527</ele>
        <time>2018-12-22T17:27:58Z</time>
      </trkpt>
      <trkpt lat="44.06118" lon="5.78902">
        <ele>882.868</ele>
        <time>2018-12-22T17:27:59Z</time>
      </trkpt>
      <trkpt lat="44.0611" lon="5.78901">
        <ele>881.778</ele>
        <time>2018-12-22T17:28:00Z</time>
      </trkpt>
      <trkpt lat="44.06103" lon="5.789">
        <ele>880.357</ele>
        <time>2018-12-22T17:28:01Z</time>
      </trkpt>
      <trkpt lat="44.06096" lon="5.78899">
        <ele>877.533</ele>
        <time>2018-12-22T17:28:02Z</time>
      </trkpt>
      <trkpt lat="44.06089" lon="5.78899">
        <ele>875.939</ele>
        <time>2018-12-22T17:28:03Z</time>
      </trkpt>
      <trkpt lat="44.06081" lon="5.78897">
        <ele>874.401</ele>
        <time>2018-12-22T17:28:04Z</time>
      </trkpt>
      <trkpt lat="44.06074" lon="5.78897">
        <ele>873.221</ele>
        <time>2018-12-22T17:28:05Z</time>
      </trkpt>
      <trkpt lat="44.06067" lon="5.78893">
        <ele>871.808</ele>
        <time>2018-12-22T17:28:06Z</time>
      </trkpt>
      <trkpt lat="44.0606" lon="5.78891">
        <ele>870.416</ele>
        <time>2018-12-22T17:28:07Z</time>
      </trkpt>
      <trkpt lat="44.06051" lon="5.78888">
        <ele>869.224</ele>
        <time>2018-12-22T17:28:08Z</time>
      </trkpt>
      <trkpt lat="44.06043" lon="5.78886">
        <ele>868.298</ele>
        <time>2018-12-22T17:28:09Z</time>
      </trkpt>
      <trkpt lat="44.06033" lon="5.78883">
        <ele>867.026</ele>
        <time>2018-12-22T17:28:10Z</time>
      </trkpt>
      <trkpt lat="44.06023" lon="5.7888">
        <ele>866.057</ele>
        <time>2018-12-22T17:28:11Z</time>
      </trkpt>
      <trkpt lat="44.06014" lon="5.7888">
        <ele>865.117</ele>
        <time>2018-12-22T17:28:12Z</time>
      </trkpt>
      <trkpt lat="44.06006" lon="5.78879">
        <ele>864.416</ele>
        <time>2018-12-22T17:28:13Z</time>
      </trkpt>
      <trkpt lat="44.05998" lon="5.78878">
        <ele>863.832</ele>
        <time>2018-12-22T17:28:14Z</time>
      </trkpt>
      <trkpt lat="44.0599" lon="5.78877">
        <ele>862.666</ele>
        <time>2018-12-22T17:28:15Z</time>
      </trkpt>
      <trkpt lat="44.05982" lon="5.78878">
        <ele>861.829</ele>
        <time>2018-12-22T17:28:16Z</time>
      </trkpt>
      <trkpt lat="44.05975" lon="5.78877">
        <ele>860.721</ele>
        <time>2018-12-22T17:28:17Z</time>
      </trkpt>
      <trkpt lat="44.05967" lon="5.78877">
        <ele>859.508</ele>
        <time>2018-12-22T17:28:18Z</time>
      </trkpt>
      <trkpt lat="44.05959" lon="5.78877">
        <ele>858.569</ele>
        <time>2018-12-22T17:28:19Z</time>
      </trkpt>
      <trkpt lat="44.0595" lon="5.78877">
        <ele>857.587</ele>
        <time>2018-12-22T17:28:20Z</time>
      </trkpt>
      <trkpt lat="44.0594" lon="5.78875">
        <ele>856.841</ele>
        <time>2018-12-22T17:28:21Z</time>
      </trkpt>
      <trkpt lat="44.05931" lon="5.78873">
        <ele>856.449</ele>
        <time>2018-12-22T17:28:22Z</time>
      </trkpt>
      <trkpt lat="44.05923" lon="5.78872">
        <ele>855.83</ele>
        <time>2018-12-22T17:28:23Z</time>
      </trkpt>
      <trkpt lat="44.05915" lon="5.78872">
        <ele>855.22</ele>
        <time>2018-12-22T17:28:24Z</time>
      </trkpt>
      <trkpt lat="44.05907" lon="5.78871">
        <ele>854.769</ele>
        <time>2018-12-22T17:28:25Z</time>
      </trkpt>
      <trkpt lat="44.05899" lon="5.78868">
        <ele>853.155</ele>
        <time>2018-12-22T17:28:26Z</time>
      </trkpt>
      <trkpt lat="44.05888" lon="5.78863">
        <ele>852.485</ele>
        <time>2018-12-22T17:28:27Z</time>
      </trkpt>
      <trkpt lat="44.05878" lon="5.78859">
        <ele>851.789</ele>
        <time>2018-12-22T17:28:28Z</time>
      </trkpt>
      <trkpt lat="44.0587" lon="5.78857">
        <ele>850.817</ele>
        <time>2018-12-22T17:28:29Z</time>
      </trkpt>
      <trkpt lat="44.0586" lon="5.78856">
        <ele>849.908</ele>
        <time>2018-12-22T17:28:30Z</time>
      </trkpt>
      <trkpt lat="44.05851" lon="5.78855">
        <ele>849.111</ele>
        <time>2018-12-22T17:28:31Z</time>
      </trkpt>
      <trkpt lat="44.05842" lon="5.78856">
        <ele>848.239</ele>
        <time>2018-12-22T17:28:32Z</time>
      </trkpt>
      <trkpt lat="44.05832" lon="5.7886">
        <ele>847.333</ele>
        <time>2018-12-22T17:28:33Z</time>
      </trkpt>
      <trkpt lat="44.05824" lon="5.78864">
        <ele>846.771</ele>
        <time>2018-12-22T17:28:34Z</time>
      </trkpt>
      <trkpt lat="44.05816" lon="5.78869">
        <ele>845.932</ele>
        <time>2018-12-22T17:28:35Z</time>
      </trkpt>
      <trkpt lat="44.05809" lon="5.78871">
        <ele>845.062</ele>
        <time>2018-12-22T17:28:36Z</time>
      </trkpt>
      <trkpt lat="44.05802" lon="5.78872">
        <ele>844.221</ele>
        <time>2018-12-22T17:28:37Z</time>
      </trkpt>
      <trkpt lat="44.05797" lon="5.78874">
        <ele>842.987</ele>
        <time>2018-12-22T17:28:39Z</time>
      </trkpt>
      <trkpt lat="44.05793" lon="5.78884">
        <ele>842.344</ele>
        <time>2018-12-22T17:28:44Z</time>
      </trkpt>
      <trkpt lat="44.0579" lon="5.78895">
        <ele>842.405</ele>
        <time>2018-12-22T17:28:46Z</time>
      </trkpt>
      <trkpt lat="44.0579" lon="5.78905">
        <ele>842.515</ele>
        <time>2018-12-22T17:28:47Z</time>
      </trkpt>
      <trkpt lat="44.0579" lon="5.78918">
        <ele>842.208</ele>
        <time>2018-12-22T17:28:50Z</time>
      </trkpt>
      <trkpt lat="44.05788" lon="5.78928">
        <ele>841.817</ele>
        <time>2018-12-22T17:28:51Z</time>
      </trkpt>
      <trkpt lat="44.05787" lon="5.78939">
        <ele>841.525</ele>
        <time>2018-12-22T17:28:52Z</time>
      </trkpt>
      <trkpt lat="44.05789" lon="5.78952">
        <ele>841.559</ele>
        <time>2018-12-22T17:28:53Z</time>
      </trkpt>
      <trkpt lat="44.05791" lon="5.78966">
        <ele>841.557</ele>
        <time>2018-12-22T17:28:54Z</time>
      </trkpt>
      <trkpt lat="44.05794" lon="5.78982">
        <ele>841.528</ele>
        <time>2018-12-22T17:28:55Z</time>
      </trkpt>
      <trkpt lat="44.05797" lon="5.78997">
        <ele>841.678</ele>
        <time>2018-12-22T17:28:56Z</time>
      </trkpt>
      <trkpt lat="44.05801" lon="5.79012">
        <ele>841.617</ele>
        <time>2018-12-22T17:28:57Z</time>
      </trkpt>
      <trkpt lat="44.05804" lon="5.79028">
        <ele>841.913</ele>
        <time>2018-12-22T17:28:58Z</time>
      </trkpt>
      <trkpt lat="44.05807" lon="5.79043">
        <ele>842.095</ele>
        <time>2018-12-22T17:28:59Z</time>
      </trkpt>
      <trkpt lat="44.05809" lon="5.79054">
        <ele>842.949</ele>
        <time>2018-12-22T17:29:00Z</time>
      </trkpt>
      <trkpt lat="44.0581" lon="5.79065">
        <ele>843.723</ele>
        <time>2018-12-22T17:29:01Z</time>
      </trkpt>
      <trkpt lat="44.0581" lon="5.79071">
        <ele>845.708</ele>
        <time>2018-12-22T17:29:02Z</time>
      </trkpt>
      <trkpt lat="44.05807" lon="5.79078">
        <ele>846.112</ele>
        <time>2018-12-22T17:29:03Z</time>
      </trkpt>
      <trkpt lat="44.05799" lon="5.79081">
        <ele>846.12</ele>
        <time>2018-12-22T17:29:04Z</time>
      </trkpt>
      <trkpt lat="44.05787" lon="5.79084">
        <ele>845.824</ele>
        <time>2018-12-22T17:29:05Z</time>
      </trkpt>
      <trkpt lat="44.05775" lon="5.7909">
        <ele>845.032</ele>
        <time>2018-12-22T17:29:06Z</time>
      </trkpt>
      <trkpt lat="44.05764" lon="5.79096">
        <ele>843.933</ele>
        <time>2018-12-22T17:29:07Z</time>
      </trkpt>
      <trkpt lat="44.05752" lon="5.79101">
        <ele>843.033</ele>
        <time>2018-12-22T17:29:08Z</time>
      </trkpt>
      <trkpt lat="44.05741" lon="5.79107">
        <ele>842.132</ele>
        <time>2018-12-22T17:29:09Z</time>
      </trkpt>
      <trkpt lat="44.05729" lon="5.79112">
        <ele>840.948</ele>
        <time>2018-12-22T17:29:10Z</time>
      </trkpt>
      <trkpt lat="44.05717" lon="5.79119">
        <ele>839.714</ele>
        <time>2018-12-22T17:29:11Z</time>
      </trkpt>
      <trkpt lat="44.05705" lon="5.79125">
        <ele>838.354</ele>
        <time>2018-12-22T17:29:12Z</time>
      </trkpt>
      <trkpt lat="44.05693" lon="5.7913">
        <ele>836.809</ele>
        <time>2018-12-22T17:29:13Z</time>
      </trkpt>
      <trkpt lat="44.05683" lon="5.79136">
        <ele>833.908</ele>
        <time>2018-12-22T17:29:14Z</time>
      </trkpt>
      <trkpt lat="44.05673" lon="5.7914">
        <ele>832.674</ele>
        <time>2018-12-22T17:29:15Z</time>
      </trkpt>
      <trkpt lat="44.05664" lon="5.79142">
        <ele>832.142</ele>
        <time>2018-12-22T17:29:16Z</time>
      </trkpt>
      <trkpt lat="44.05658" lon="5.79146">
        <ele>831.816</ele>
        <time>2018-12-22T17:29:17Z</time>
      </trkpt>
      <trkpt lat="44.05653" lon="5.7915">
        <ele>831.894</ele>
        <time>2018-12-22T17:29:18Z</time>
      </trkpt>
      <trkpt lat="44.0565" lon="5.79155">
        <ele>831.945</ele>
        <time>2018-12-22T17:29:19Z</time>
      </trkpt>
      <trkpt lat="44.05648" lon="5.79161">
        <ele>831.985</ele>
        <time>2018-12-22T17:29:20Z</time>
      </trkpt>
      <trkpt lat="44.05648" lon="5.79168">
        <ele>831.834</ele>
        <time>2018-12-22T17:29:21Z</time>
      </trkpt>
      <trkpt lat="44.0565" lon="5.79177">
        <ele>831.32</ele>
        <time>2018-12-22T17:29:22Z</time>
      </trkpt>
      <trkpt lat="44.05653" lon="5.79185">
        <ele>830.858</ele>
        <time>2018-12-22T17:29:23Z</time>
      </trkpt>
      <trkpt lat="44.05656" lon="5.79194">
        <ele>830.452</ele>
        <time>2018-12-22T17:29:24Z</time>
      </trkpt>
      <trkpt lat="44.0566" lon="5.79202">
        <ele>830.017</ele>
        <time>2018-12-22T17:29:25Z</time>
      </trkpt>
      <trkpt lat="44.05663" lon="5.79211">
        <ele>829.908</ele>
        <time>2018-12-22T17:29:26Z</time>
      </trkpt>
      <trkpt lat="44.05666" lon="5.79221">
        <ele>829.968</ele>
        <time>2018-12-22T17:29:27Z</time>
      </trkpt>
      <trkpt lat="44.0567" lon="5.79234">
        <ele>829.926</ele>
        <time>2018-12-22T17:29:28Z</time>
      </trkpt>
      <trkpt lat="44.05674" lon="5.79248">
        <ele>829.45</ele>
        <time>2018-12-22T17:29:29Z</time>
      </trkpt>
      <trkpt lat="44.05679" lon="5.79264">
        <ele>828.518</ele>
        <time>2018-12-22T17:29:30Z</time>
      </trkpt>
      <trkpt lat="44.05685" lon="5.7928">
        <ele>827.189</ele>
        <time>2018-12-22T17:29:31Z</time>
      </trkpt>
      <trkpt lat="44.0569" lon="5.79295">
        <ele>825.459</ele>
        <time>2018-12-22T17:29:32Z</time>
      </trkpt>
      <trkpt lat="44.05695" lon="5.7931">
        <ele>823.818</ele>
        <time>2018-12-22T17:29:33Z</time>
      </trkpt>
      <trkpt lat="44.05701" lon="5.79325">
        <ele>822.754</ele>
        <time>2018-12-22T17:29:34Z</time>
      </trkpt>
      <trkpt lat="44.05706" lon="5.79341">
        <ele>821.665</ele>
        <time>2018-12-22T17:29:35Z</time>
      </trkpt>
      <trkpt lat="44.05711" lon="5.79358">
        <ele>820.868</ele>
        <time>2018-12-22T17:29:36Z</time>
      </trkpt>
      <trkpt lat="44.05715" lon="5.79375">
        <ele>820.414</ele>
        <time>2018-12-22T17:29:37Z</time>
      </trkpt>
      <trkpt lat="44.0572" lon="5.79392">
        <ele>820.208</ele>
        <time>2018-12-22T17:29:38Z</time>
      </trkpt>
      <trkpt lat="44.05724" lon="5.7941">
        <ele>820.629</ele>
        <time>2018-12-22T17:29:39Z</time>
      </trkpt>
      <trkpt lat="44.05728" lon="5.79428">
        <ele>821.117</ele>
        <time>2018-12-22T17:29:40Z</time>
      </trkpt>
      <trkpt lat="44.05733" lon="5.79446">
        <ele>821.471</ele>
        <time>2018-12-22T17:29:41Z</time>
      </trkpt>
      <trkpt lat="44.05737" lon="5.79462">
        <ele>821.459</ele>
        <time>2018-12-22T17:29:42Z</time>
      </trkpt>
      <trkpt lat="44.05742" lon="5.79478">
        <ele>820.91</ele>
        <time>2018-12-22T17:29:43Z</time>
      </trkpt>
      <trkpt lat="44.05748" lon="5.79493">
        <ele>820.36</ele>
        <time>2018-12-22T17:29:44Z</time>
      </trkpt>
      <trkpt lat="44.05753" lon="5.79509">
        <ele>819.849</ele>
        <time>2018-12-22T17:29:45Z</time>
      </trkpt>
      <trkpt lat="44.05759" lon="5.79523">
        <ele>819.465</ele>
        <time>2018-12-22T17:29:46Z</time>
      </trkpt>
      <trkpt lat="44.05764" lon="5.79536">
        <ele>818.641</ele>
        <time>2018-12-22T17:29:47Z</time>
      </trkpt>
      <trkpt lat="44.05769" lon="5.79551">
        <ele>818.081</ele>
        <time>2018-12-22T17:29:48Z</time>
      </trkpt>
      <trkpt lat="44.05771" lon="5.79566">
        <ele>817.209</ele>
        <time>2018-12-22T17:29:49Z</time>
      </trkpt>
      <trkpt lat="44.05774" lon="5.79581">
        <ele>815.008</ele>
        <time>2018-12-22T17:29:50Z</time>
      </trkpt>
      <trkpt lat="44.05777" lon="5.79596">
        <ele>814.227</ele>
        <time>2018-12-22T17:29:51Z</time>
      </trkpt>
      <trkpt lat="44.05781" lon="5.7961">
        <ele>813.345</ele>
        <time>2018-12-22T17:29:52Z</time>
      </trkpt>
      <trkpt lat="44.05785" lon="5.79625">
        <ele>812.739</ele>
        <time>2018-12-22T17:29:53Z</time>
      </trkpt>
      <trkpt lat="44.05788" lon="5.79641">
        <ele>812.317</ele>
        <time>2018-12-22T17:29:54Z</time>
      </trkpt>
      <trkpt lat="44.05792" lon="5.79655">
        <ele>811.658</ele>
        <time>2018-12-22T17:29:55Z</time>
      </trkpt>
      <trkpt lat="44.05796" lon="5.79669">
        <ele>811.218</ele>
        <time>2018-12-22T17:29:56Z</time>
      </trkpt>
      <trkpt lat="44.058" lon="5.79681">
        <ele>810.927</ele>
        <time>2018-12-22T17:29:57Z</time>
      </trkpt>
      <trkpt lat="44.05803" lon="5.79694">
        <ele>810.723</ele>
        <time>2018-12-22T17:29:58Z</time>
      </trkpt>
      <trkpt lat="44.05807" lon="5.79707">
        <ele>810.747</ele>
        <time>2018-12-22T17:29:59Z</time>
      </trkpt>
      <trkpt lat="44.05811" lon="5.79719">
        <ele>810.729</ele>
        <time>2018-12-22T17:30:00Z</time>
      </trkpt>
      <trkpt lat="44.05814" lon="5.79731">
        <ele>810.721</ele>
        <time>2018-12-22T17:30:01Z</time>
      </trkpt>
      <trkpt lat="44.05817" lon="5.79744">
        <ele>810.608</ele>
        <time>2018-12-22T17:30:02Z</time>
      </trkpt>
      <trkpt lat="44.0582" lon="5.79755">
        <ele>810.537</ele>
        <time>2018-12-22T17:30:03Z</time>
      </trkpt>
      <trkpt lat="44.05823" lon="5.79766">
        <ele>810.395</ele>
        <time>2018-12-22T17:30:04Z</time>
      </trkpt>
      <trkpt lat="44.05827" lon="5.79776">
        <ele>810.129</ele>
        <time>2018-12-22T17:30:05Z</time>
      </trkpt>
      <trkpt lat="44.05831" lon="5.79787">
        <ele>810.027</ele>
        <time>2018-12-22T17:30:06Z</time>
      </trkpt>
      <trkpt lat="44.05836" lon="5.79795">
        <ele>809.778</ele>
        <time>2018-12-22T17:30:07Z</time>
      </trkpt>
      <trkpt lat="44.0584" lon="5.79802">
        <ele>809.498</ele>
        <time>2018-12-22T17:30:08Z</time>
      </trkpt>
      <trkpt lat="44.05842" lon="5.79808">
        <ele>809.377</ele>
        <time>2018-12-22T17:30:09Z</time>
      </trkpt>
      <trkpt lat="44.05848" lon="5.79817">
        <ele>809.333</ele>
        <time>2018-12-22T17:30:11Z</time>
      </trkpt>
      <trkpt lat="44.05852" lon="5.7982">
        <ele>809.544</ele>
        <time>2018-12-22T17:30:12Z</time>
      </trkpt>
      <trkpt lat="44.05857" lon="5.79824">
        <ele>809.705</ele>
        <time>2018-12-22T17:30:13Z</time>
      </trkpt>
      <trkpt lat="44.05861" lon="5.79828">
        <ele>809.915</ele>
        <time>2018-12-22T17:30:14Z</time>
      </trkpt>
      <trkpt lat="44.05865" lon="5.79833">
        <ele>810.308</ele>
        <time>2018-12-22T17:30:16Z</time>
      </trkpt>
      <trkpt lat="44.05868" lon="5.79838">
        <ele>809.857</ele>
        <time>2018-12-22T17:30:20Z</time>
      </trkpt>
      <trkpt lat="44.05863" lon="5.79844">
        <ele>808.385</ele>
        <time>2018-12-22T17:30:22Z</time>
      </trkpt>
      <trkpt lat="44.05859" lon="5.79847">
        <ele>807.489</ele>
        <time>2018-12-22T17:30:23Z</time>
      </trkpt>
      <trkpt lat="44.05855" lon="5.79849">
        <ele>806.597</ele>
        <time>2018-12-22T17:30:24Z</time>
      </trkpt>
      <trkpt lat="44.05847" lon="5.79848">
        <ele>804.628</ele>
        <time>2018-12-22T17:30:26Z</time>
      </trkpt>
      <trkpt lat="44.05842" lon="5.79847">
        <ele>804.238</ele>
        <time>2018-12-22T17:30:27Z</time>
      </trkpt>
      <trkpt lat="44.05836" lon="5.79844">
        <ele>803.867</ele>
        <time>2018-12-22T17:30:28Z</time>
      </trkpt>
      <trkpt lat="44.05828" lon="5.79841">
        <ele>803.533</ele>
        <time>2018-12-22T17:30:29Z</time>
      </trkpt>
      <trkpt lat="44.05822" lon="5.79838">
        <ele>803.178</ele>
        <time>2018-12-22T17:30:30Z</time>
      </trkpt>
      <trkpt lat="44.05815" lon="5.79835">
        <ele>802.533</ele>
        <time>2018-12-22T17:30:31Z</time>
      </trkpt>
      <trkpt lat="44.05808" lon="5.79832">
        <ele>802.226</ele>
        <time>2018-12-22T17:30:32Z</time>
      </trkpt>
      <trkpt lat="44.05802" lon="5.79829">
        <ele>802.008</ele>
        <time>2018-12-22T17:30:33Z</time>
      </trkpt>
      <trkpt lat="44.05789" lon="5.79827">
        <ele>801.81</ele>
        <time>2018-12-22T17:30:34Z</time>
      </trkpt>
      <trkpt lat="44.05778" lon="5.79818">
        <ele>801.858</ele>
        <time>2018-12-22T17:30:35Z</time>
      </trkpt>
      <trkpt lat="44.05767" lon="5.7981">
        <ele>801.682</ele>
        <time>2018-12-22T17:30:36Z</time>
      </trkpt>
      <trkpt lat="44.05756" lon="5.79801">
        <ele>801.34</ele>
        <time>2018-12-22T17:30:37Z</time>
      </trkpt>
      <trkpt lat="44.05745" lon="5.79791">
        <ele>800.781</ele>
        <time>2018-12-22T17:30:38Z</time>
      </trkpt>
      <trkpt lat="44.05735" lon="5.79779">
        <ele>800.621</ele>
        <time>2018-12-22T17:30:39Z</time>
      </trkpt>
      <trkpt lat="44.05727" lon="5.79769">
        <ele>800.65</ele>
        <time>2018-12-22T17:30:40Z</time>
      </trkpt>
      <trkpt lat="44.05719" lon="5.79762">
        <ele>800.666</ele>
        <time>2018-12-22T17:30:41Z</time>
      </trkpt>
      <trkpt lat="44.05711" lon="5.79755">
        <ele>800.882</ele>
        <time>2018-12-22T17:30:42Z</time>
      </trkpt>
      <trkpt lat="44.05703" lon="5.79746">
        <ele>801.043</ele>
        <time>2018-12-22T17:30:43Z</time>
      </trkpt>
      <trkpt lat="44.05696" lon="5.79738">
        <ele>801.117</ele>
        <time>2018-12-22T17:30:44Z</time>
      </trkpt>
      <trkpt lat="44.05688" lon="5.79729">
        <ele>801.108</ele>
        <time>2018-12-22T17:30:45Z</time>
      </trkpt>
      <trkpt lat="44.0568" lon="5.79722">
        <ele>801.031</ele>
        <time>2018-12-22T17:30:46Z</time>
      </trkpt>
      <trkpt lat="44.05672" lon="5.79716">
        <ele>800.889</ele>
        <time>2018-12-22T17:30:47Z</time>
      </trkpt>
      <trkpt lat="44.05663" lon="5.79713">
        <ele>800.113</ele>
        <time>2018-12-22T17:30:48Z</time>
      </trkpt>
      <trkpt lat="44.05655" lon="5.79711">
        <ele>799.391</ele>
        <time>2018-12-22T17:30:49Z</time>
      </trkpt>
      <trkpt lat="44.05646" lon="5.79708">
        <ele>799.012</ele>
        <time>2018-12-22T17:30:50Z</time>
      </trkpt>
      <trkpt lat="44.05636" lon="5.79706">
        <ele>798.912</ele>
        <time>2018-12-22T17:30:51Z</time>
      </trkpt>
      <trkpt lat="44.05627" lon="5.79704">
        <ele>798.991</ele>
        <time>2018-12-22T17:30:52Z</time>
      </trkpt>
      <trkpt lat="44.05619" lon="5.79703">
        <ele>799.217</ele>
        <time>2018-12-22T17:30:53Z</time>
      </trkpt>
      <trkpt lat="44.05611" lon="5.797">
        <ele>799.311</ele>
        <time>2018-12-22T17:30:54Z</time>
      </trkpt>
      <trkpt lat="44.05604" lon="5.79695">
        <ele>799.421</ele>
        <time>2018-12-22T17:30:55Z</time>
      </trkpt>
      <trkpt lat="44.05597" lon="5.79689">
        <ele>799.503</ele>
        <time>2018-12-22T17:30:56Z</time>
      </trkpt>
      <trkpt lat="44.0559" lon="5.79682">
        <ele>799.508</ele>
        <time>2018-12-22T17:30:57Z</time>
      </trkpt>
      <trkpt lat="44.05583" lon="5.79675">
        <ele>799.424</ele>
        <time>2018-12-22T17:30:58Z</time>
      </trkpt>
      <trkpt lat="44.05577" lon="5.79668">
        <ele>799.392</ele>
        <time>2018-12-22T17:30:59Z</time>
      </trkpt>
      <trkpt lat="44.05571" lon="5.7966">
        <ele>799.336</ele>
        <time>2018-12-22T17:31:00Z</time>
      </trkpt>
      <trkpt lat="44.05565" lon="5.7965">
        <ele>799.254</ele>
        <time>2018-12-22T17:31:01Z</time>
      </trkpt>
      <trkpt lat="44.0556" lon="5.7964">
        <ele>799.155</ele>
        <time>2018-12-22T17:31:02Z</time>
      </trkpt>
      <trkpt lat="44.05555" lon="5.7963">
        <ele>798.955</ele>
        <time>2018-12-22T17:31:03Z</time>
      </trkpt>
      <trkpt lat="44.05546" lon="5.79621">
        <ele>798.694</ele>
        <time>2018-12-22T17:31:04Z</time>
      </trkpt>
      <trkpt lat="44.05538" lon="5.79612">
        <ele>798.51</ele>
        <time>2018-12-22T17:31:05Z</time>
      </trkpt>
      <trkpt lat="44.05531" lon="5.79602">
        <ele>798.454</ele>
        <time>2018-12-22T17:31:06Z</time>
      </trkpt>
      <trkpt lat="44.05525" lon="5.79592">
        <ele>798.456</ele>
        <time>2018-12-22T17:31:07Z</time>
      </trkpt>
      <trkpt lat="44.05518" lon="5.79582">
        <ele>798.411</ele>
        <time>2018-12-22T17:31:08Z</time>
      </trkpt>
      <trkpt lat="44.05512" lon="5.79574">
        <ele>798.408</ele>
        <time>2018-12-22T17:31:09Z</time>
      </trkpt>
      <trkpt lat="44.05507" lon="5.79567">
        <ele>798.438</ele>
        <time>2018-12-22T17:31:10Z</time>
      </trkpt>
      <trkpt lat="44.05503" lon="5.7956">
        <ele>798.396</ele>
        <time>2018-12-22T17:31:11Z</time>
      </trkpt>
      <trkpt lat="44.05498" lon="5.79553">
        <ele>798.13</ele>
        <time>2018-12-22T17:31:12Z</time>
      </trkpt>
      <trkpt lat="44.05494" lon="5.79545">
        <ele>797.878</ele>
        <time>2018-12-22T17:31:13Z</time>
      </trkpt>
      <trkpt lat="44.05489" lon="5.79537">
        <ele>797.149</ele>
        <time>2018-12-22T17:31:14Z</time>
      </trkpt>
      <trkpt lat="44.05484" lon="5.7953">
        <ele>796.789</ele>
        <time>2018-12-22T17:31:15Z</time>
      </trkpt>
      <trkpt lat="44.0548" lon="5.79524">
        <ele>796.548</ele>
        <time>2018-12-22T17:31:16Z</time>
      </trkpt>
      <trkpt lat="44.05476" lon="5.79519">
        <ele>796.554</ele>
        <time>2018-12-22T17:31:17Z</time>
      </trkpt>
      <trkpt lat="44.05472" lon="5.79515">
        <ele>796.482</ele>
        <time>2018-12-22T17:31:18Z</time>
      </trkpt>
      <trkpt lat="44.05467" lon="5.79511">
        <ele>796.343</ele>
        <time>2018-12-22T17:31:19Z</time>
      </trkpt>
      <trkpt lat="44.05462" lon="5.79508">
        <ele>796.017</ele>
        <time>2018-12-22T17:31:20Z</time>
      </trkpt>
      <trkpt lat="44.05456" lon="5.79504">
        <ele>795.608</ele>
        <time>2018-12-22T17:31:21Z</time>
      </trkpt>
      <trkpt lat="44.0545" lon="5.795">
        <ele>794.711</ele>
        <time>2018-12-22T17:31:22Z</time>
      </trkpt>
      <trkpt lat="44.05445" lon="5.79495">
        <ele>793.689</ele>
        <time>2018-12-22T17:31:23Z</time>
      </trkpt>
      <trkpt lat="44.05439" lon="5.79489">
        <ele>792.483</ele>
        <time>2018-12-22T17:31:24Z</time>
      </trkpt>
      <trkpt lat="44.05435" lon="5.79483">
        <ele>790.011</ele>
        <time>2018-12-22T17:31:25Z</time>
      </trkpt>
      <trkpt lat="44.0543" lon="5.79479">
        <ele>789.062</ele>
        <time>2018-12-22T17:31:26Z</time>
      </trkpt>
      <trkpt lat="44.05426" lon="5.79472">
        <ele>788.222</ele>
        <time>2018-12-22T17:31:27Z</time>
      </trkpt>
      <trkpt lat="44.05423" lon="5.79465">
        <ele>787.461</ele>
        <time>2018-12-22T17:31:28Z</time>
      </trkpt>
      <trkpt lat="44.0542" lon="5.79457">
        <ele>786.797</ele>
        <time>2018-12-22T17:31:29Z</time>
      </trkpt>
      <trkpt lat="44.05416" lon="5.79451">
        <ele>786.077</ele>
        <time>2018-12-22T17:31:30Z</time>
      </trkpt>
      <trkpt lat="44.05412" lon="5.79445">
        <ele>785.361</ele>
        <time>2018-12-22T17:31:31Z</time>
      </trkpt>
      <trkpt lat="44.05409" lon="5.79432">
        <ele>783.627</ele>
        <time>2018-12-22T17:31:33Z</time>
      </trkpt>
      <trkpt lat="44.05408" lon="5.79422">
        <ele>782.808</ele>
        <time>2018-12-22T17:31:34Z</time>
      </trkpt>
      <trkpt lat="44.05403" lon="5.7941">
        <ele>782.17</ele>
        <time>2018-12-22T17:31:35Z</time>
      </trkpt>
      <trkpt lat="44.05401" lon="5.79402">
        <ele>781.568</ele>
        <time>2018-12-22T17:31:36Z</time>
      </trkpt>
      <trkpt lat="44.05396" lon="5.79396">
        <ele>780.682</ele>
        <time>2018-12-22T17:31:37Z</time>
      </trkpt>
      <trkpt lat="44.05391" lon="5.7939">
        <ele>780.05</ele>
        <time>2018-12-22T17:31:38Z</time>
      </trkpt>
      <trkpt lat="44.05384" lon="5.79386">
        <ele>779.231</ele>
        <time>2018-12-22T17:31:39Z</time>
      </trkpt>
      <trkpt lat="44.05376" lon="5.79381">
        <ele>778.471</ele>
        <time>2018-12-22T17:31:40Z</time>
      </trkpt>
      <trkpt lat="44.0537" lon="5.79373">
        <ele>777.58</ele>
        <time>2018-12-22T17:31:41Z</time>
      </trkpt>
      <trkpt lat="44.05362" lon="5.79367">
        <ele>776.546</ele>
        <time>2018-12-22T17:31:42Z</time>
      </trkpt>
      <trkpt lat="44.05355" lon="5.79362">
        <ele>775.567</ele>
        <time>2018-12-22T17:31:43Z</time>
      </trkpt>
      <trkpt lat="44.05348" lon="5.79354">
        <ele>774.781</ele>
        <time>2018-12-22T17:31:44Z</time>
      </trkpt>
      <trkpt lat="44.05343" lon="5.79349">
        <ele>773.919</ele>
        <time>2018-12-22T17:31:45Z</time>
      </trkpt>
      <trkpt lat="44.05337" lon="5.79344">
        <ele>773.008</ele>
        <time>2018-12-22T17:31:46Z</time>
      </trkpt>
      <trkpt lat="44.0533" lon="5.79338">
        <ele>771.969</ele>
        <time>2018-12-22T17:31:47Z</time>
      </trkpt>
      <trkpt lat="44.05325" lon="5.79332">
        <ele>771.167</ele>
        <time>2018-12-22T17:31:48Z</time>
      </trkpt>
      <trkpt lat="44.0532" lon="5.79323">
        <ele>769.471</ele>
        <time>2018-12-22T17:31:49Z</time>
      </trkpt>
      <trkpt lat="44.05316" lon="5.79314">
        <ele>768.759</ele>
        <time>2018-12-22T17:31:50Z</time>
      </trkpt>
      <trkpt lat="44.0531" lon="5.79305">
        <ele>768.13</ele>
        <time>2018-12-22T17:31:51Z</time>
      </trkpt>
      <trkpt lat="44.05303" lon="5.79294">
        <ele>767.51</ele>
        <time>2018-12-22T17:31:52Z</time>
      </trkpt>
      <trkpt lat="44.05297" lon="5.79286">
        <ele>766.819</ele>
        <time>2018-12-22T17:31:53Z</time>
      </trkpt>
      <trkpt lat="44.05291" lon="5.7928">
        <ele>766.495</ele>
        <time>2018-12-22T17:31:54Z</time>
      </trkpt>
      <trkpt lat="44.05286" lon="5.79274">
        <ele>766.061</ele>
        <time>2018-12-22T17:31:55Z</time>
      </trkpt>
      <trkpt lat="44.05282" lon="5.79267">
        <ele>766.021</ele>
        <time>2018-12-22T17:31:56Z</time>
      </trkpt>
      <trkpt lat="44.05277" lon="5.79258">
        <ele>766.013</ele>
        <time>2018-12-22T17:31:57Z</time>
      </trkpt>
      <trkpt lat="44.05273" lon="5.7925">
        <ele>766.008</ele>
        <time>2018-12-22T17:31:58Z</time>
      </trkpt>
      <trkpt lat="44.0527" lon="5.79243">
        <ele>766.129</ele>
        <time>2018-12-22T17:31:59Z</time>
      </trkpt>
      <trkpt lat="44.05267" lon="5.79233">
        <ele>766.157</ele>
        <time>2018-12-22T17:32:00Z</time>
      </trkpt>
      <trkpt lat="44.05264" lon="5.79221">
        <ele>765.281</ele>
        <time>2018-12-22T17:32:01Z</time>
      </trkpt>
      <trkpt lat="44.05262" lon="5.79211">
        <ele>764.789</ele>
        <time>2018-12-22T17:32:02Z</time>
      </trkpt>
      <trkpt lat="44.05259" lon="5.79201">
        <ele>764.38</ele>
        <time>2018-12-22T17:32:03Z</time>
      </trkpt>
      <trkpt lat="44.05256" lon="5.79187">
        <ele>764.09</ele>
        <time>2018-12-22T17:32:04Z</time>
      </trkpt>
      <trkpt lat="44.05251" lon="5.79175">
        <ele>764.059</ele>
        <time>2018-12-22T17:32:05Z</time>
      </trkpt>
      <trkpt lat="44.05248" lon="5.79164">
        <ele>764.065</ele>
        <time>2018-12-22T17:32:06Z</time>
      </trkpt>
      <trkpt lat="44.05244" lon="5.79155">
        <ele>764.032</ele>
        <time>2018-12-22T17:32:07Z</time>
      </trkpt>
      <trkpt lat="44.05239" lon="5.79143">
        <ele>764.192</ele>
        <time>2018-12-22T17:32:08Z</time>
      </trkpt>
      <trkpt lat="44.05233" lon="5.79132">
        <ele>764.111</ele>
        <time>2018-12-22T17:32:09Z</time>
      </trkpt>
      <trkpt lat="44.05225" lon="5.79119">
        <ele>763.908</ele>
        <time>2018-12-22T17:32:10Z</time>
      </trkpt>
      <trkpt lat="44.05217" lon="5.79107">
        <ele>763.416</ele>
        <time>2018-12-22T17:32:11Z</time>
      </trkpt>
      <trkpt lat="44.0521" lon="5.79096">
        <ele>762.774</ele>
        <time>2018-12-22T17:32:12Z</time>
      </trkpt>
      <trkpt lat="44.052" lon="5.79084">
        <ele>762.038</ele>
        <time>2018-12-22T17:32:13Z</time>
      </trkpt>
      <trkpt lat="44.05193" lon="5.79072">
        <ele>761.566</ele>
        <time>2018-12-22T17:32:14Z</time>
      </trkpt>
      <trkpt lat="44.05187" lon="5.79063">
        <ele>761.447</ele>
        <time>2018-12-22T17:32:15Z</time>
      </trkpt>
      <trkpt lat="44.0518" lon="5.79055">
        <ele>761.467</ele>
        <time>2018-12-22T17:32:16Z</time>
      </trkpt>
      <trkpt lat="44.05175" lon="5.79046">
        <ele>761.236</ele>
        <time>2018-12-22T17:32:17Z</time>
      </trkpt>
      <trkpt lat="44.05169" lon="5.79039">
        <ele>761.252</ele>
        <time>2018-12-22T17:32:18Z</time>
      </trkpt>
      <trkpt lat="44.05162" lon="5.79035">
        <ele>761.235</ele>
        <time>2018-12-22T17:32:19Z</time>
      </trkpt>
      <trkpt lat="44.05155" lon="5.79033">
        <ele>761.286</ele>
        <time>2018-12-22T17:32:20Z</time>
      </trkpt>
      <trkpt lat="44.05149" lon="5.79034">
        <ele>761.114</ele>
        <time>2018-12-22T17:32:21Z</time>
      </trkpt>
      <trkpt lat="44.05144" lon="5.79035">
        <ele>761.008</ele>
        <time>2018-12-22T17:32:22Z</time>
      </trkpt>
      <trkpt lat="44.05137" lon="5.79036">
        <ele>760.726</ele>
        <time>2018-12-22T17:32:23Z</time>
      </trkpt>
      <trkpt lat="44.05129" lon="5.79034">
        <ele>760.224</ele>
        <time>2018-12-22T17:32:24Z</time>
      </trkpt>
      <trkpt lat="44.0512" lon="5.79034">
        <ele>758.688</ele>
        <time>2018-12-22T17:32:25Z</time>
      </trkpt>
      <trkpt lat="44.05112" lon="5.79033">
        <ele>757.596</ele>
        <time>2018-12-22T17:32:26Z</time>
      </trkpt>
      <trkpt lat="44.05102" lon="5.79033">
        <ele>756.277</ele>
        <time>2018-12-22T17:32:27Z</time>
      </trkpt>
      <trkpt lat="44.05093" lon="5.79034">
        <ele>755.077</ele>
        <time>2018-12-22T17:32:28Z</time>
      </trkpt>
      <trkpt lat="44.05082" lon="5.79036">
        <ele>753.736</ele>
        <time>2018-12-22T17:32:29Z</time>
      </trkpt>
      <trkpt lat="44.0507" lon="5.79038">
        <ele>752.662</ele>
        <time>2018-12-22T17:32:30Z</time>
      </trkpt>
      <trkpt lat="44.05055" lon="5.7904">
        <ele>751.413</ele>
        <time>2018-12-22T17:32:31Z</time>
      </trkpt>
      <trkpt lat="44.05041" lon="5.79041">
        <ele>750.143</ele>
        <time>2018-12-22T17:32:32Z</time>
      </trkpt>
      <trkpt lat="44.05029" lon="5.79042">
        <ele>748.807</ele>
        <time>2018-12-22T17:32:33Z</time>
      </trkpt>
      <trkpt lat="44.05018" lon="5.79042">
        <ele>747.608</ele>
        <time>2018-12-22T17:32:34Z</time>
      </trkpt>
      <trkpt lat="44.05007" lon="5.79043">
        <ele>746.384</ele>
        <time>2018-12-22T17:32:35Z</time>
      </trkpt>
      <trkpt lat="44.04996" lon="5.79046">
        <ele>745.132</ele>
        <time>2018-12-22T17:32:36Z</time>
      </trkpt>
      <trkpt lat="44.04984" lon="5.7905">
        <ele>743.216</ele>
        <time>2018-12-22T17:32:37Z</time>
      </trkpt>
      <trkpt lat="44.04973" lon="5.79052">
        <ele>742.424</ele>
        <time>2018-12-22T17:32:38Z</time>
      </trkpt>
      <trkpt lat="44.04962" lon="5.79053">
        <ele>741.675</ele>
        <time>2018-12-22T17:32:39Z</time>
      </trkpt>
      <trkpt lat="44.04951" lon="5.79055">
        <ele>740.755</ele>
        <time>2018-12-22T17:32:40Z</time>
      </trkpt>
      <trkpt lat="44.04941" lon="5.79058">
        <ele>739.834</ele>
        <time>2018-12-22T17:32:41Z</time>
      </trkpt>
      <trkpt lat="44.0493" lon="5.7906">
        <ele>739.04</ele>
        <time>2018-12-22T17:32:42Z</time>
      </trkpt>
      <trkpt lat="44.04919" lon="5.79061">
        <ele>737.988</ele>
        <time>2018-12-22T17:32:43Z</time>
      </trkpt>
      <trkpt lat="44.04908" lon="5.79064">
        <ele>736.724</ele>
        <time>2018-12-22T17:32:44Z</time>
      </trkpt>
      <trkpt lat="44.04897" lon="5.79067">
        <ele>735.726</ele>
        <time>2018-12-22T17:32:45Z</time>
      </trkpt>
      <trkpt lat="44.04886" lon="5.79071">
        <ele>734.808</ele>
        <time>2018-12-22T17:32:46Z</time>
      </trkpt>
      <trkpt lat="44.04876" lon="5.79074">
        <ele>734.031</ele>
        <time>2018-12-22T17:32:47Z</time>
      </trkpt>
      <trkpt lat="44.04866" lon="5.79077">
        <ele>732.389</ele>
        <time>2018-12-22T17:32:48Z</time>
      </trkpt>
      <trkpt lat="44.04855" lon="5.7908">
        <ele>731.143</ele>
        <time>2018-12-22T17:32:49Z</time>
      </trkpt>
      <trkpt lat="44.04844" lon="5.79084">
        <ele>729.961</ele>
        <time>2018-12-22T17:32:50Z</time>
      </trkpt>
      <trkpt lat="44.04832" lon="5.79087">
        <ele>728.912</ele>
        <time>2018-12-22T17:32:51Z</time>
      </trkpt>
      <trkpt lat="44.0482" lon="5.79091">
        <ele>727.842</ele>
        <time>2018-12-22T17:32:52Z</time>
      </trkpt>
      <trkpt lat="44.04808" lon="5.79095">
        <ele>726.881</ele>
        <time>2018-12-22T17:32:53Z</time>
      </trkpt>
      <trkpt lat="44.04796" lon="5.791">
        <ele>726.377</ele>
        <time>2018-12-22T17:32:54Z</time>
      </trkpt>
      <trkpt lat="44.04785" lon="5.79105">
        <ele>725.962</ele>
        <time>2018-12-22T17:32:55Z</time>
      </trkpt>
      <trkpt lat="44.04775" lon="5.79109">
        <ele>725.383</ele>
        <time>2018-12-22T17:32:56Z</time>
      </trkpt>
      <trkpt lat="44.04766" lon="5.7911">
        <ele>724.811</ele>
        <time>2018-12-22T17:32:57Z</time>
      </trkpt>
      <trkpt lat="44.04758" lon="5.79107">
        <ele>724.408</ele>
        <time>2018-12-22T17:32:58Z</time>
      </trkpt>
      <trkpt lat="44.04749" lon="5.79102">
        <ele>724.069</ele>
        <time>2018-12-22T17:32:59Z</time>
      </trkpt>
      <trkpt lat="44.04739" lon="5.79097">
        <ele>722.527</ele>
        <time>2018-12-22T17:33:00Z</time>
      </trkpt>
      <trkpt lat="44.04728" lon="5.79091">
        <ele>721.471</ele>
        <time>2018-12-22T17:33:01Z</time>
      </trkpt>
      <trkpt lat="44.04717" lon="5.79085">
        <ele>720.279</ele>
        <time>2018-12-22T17:33:02Z</time>
      </trkpt>
      <trkpt lat="44.04706" lon="5.79079">
        <ele>719.13</ele>
        <time>2018-12-22T17:33:03Z</time>
      </trkpt>
      <trkpt lat="44.04696" lon="5.79072">
        <ele>718.06</ele>
        <time>2018-12-22T17:33:04Z</time>
      </trkpt>
      <trkpt lat="44.04686" lon="5.79064">
        <ele>717.089</ele>
        <time>2018-12-22T17:33:05Z</time>
      </trkpt>
      <trkpt lat="44.04676" lon="5.79057">
        <ele>716.275</ele>
        <time>2018-12-22T17:33:06Z</time>
      </trkpt>
      <trkpt lat="44.04666" lon="5.79047">
        <ele>715.398</ele>
        <time>2018-12-22T17:33:07Z</time>
      </trkpt>
      <trkpt lat="44.04656" lon="5.79037">
        <ele>714.115</ele>
        <time>2018-12-22T17:33:08Z</time>
      </trkpt>
      <trkpt lat="44.04647" lon="5.79027">
        <ele>712.926</ele>
        <time>2018-12-22T17:33:09Z</time>
      </trkpt>
      <trkpt lat="44.04638" lon="5.79017">
        <ele>711.708</ele>
        <time>2018-12-22T17:33:10Z</time>
      </trkpt>
      <trkpt lat="44.04629" lon="5.79007">
        <ele>710.662</ele>
        <time>2018-12-22T17:33:11Z</time>
      </trkpt>
      <trkpt lat="44.0462" lon="5.78998">
        <ele>708.92</ele>
        <time>2018-12-22T17:33:12Z</time>
      </trkpt>
      <trkpt lat="44.0461" lon="5.7899">
        <ele>708.394</ele>
        <time>2018-12-22T17:33:13Z</time>
      </trkpt>
      <trkpt lat="44.04599" lon="5.78982">
        <ele>707.592</ele>
        <time>2018-12-22T17:33:14Z</time>
      </trkpt>
      <trkpt lat="44.0459" lon="5.78974">
        <ele>706.953</ele>
        <time>2018-12-22T17:33:15Z</time>
      </trkpt>
      <trkpt lat="44.04581" lon="5.7897">
        <ele>706.573</ele>
        <time>2018-12-22T17:33:16Z</time>
      </trkpt>
      <trkpt lat="44.04575" lon="5.78967">
        <ele>706.492</ele>
        <time>2018-12-22T17:33:17Z</time>
      </trkpt>
      <trkpt lat="44.0457" lon="5.78964">
        <ele>706.418</ele>
        <time>2018-12-22T17:33:18Z</time>
      </trkpt>
      <trkpt lat="44.04564" lon="5.78961">
        <ele>707.343</ele>
        <time>2018-12-22T17:33:20Z</time>
      </trkpt>
      <trkpt lat="44.04558" lon="5.78959">
        <ele>708.264</ele>
        <time>2018-12-22T17:33:27Z</time>
      </trkpt>
      <trkpt lat="44.04552" lon="5.78956">
        <ele>708.11</ele>
        <time>2018-12-22T17:33:29Z</time>
      </trkpt>
      <trkpt lat="44.04548" lon="5.78952">
        <ele>707.708</ele>
        <time>2018-12-22T17:33:30Z</time>
      </trkpt>
      <trkpt lat="44.04544" lon="5.78949">
        <ele>707.117</ele>
        <time>2018-12-22T17:33:31Z</time>
      </trkpt>
      <trkpt lat="44.04538" lon="5.78946">
        <ele>706.615</ele>
        <time>2018-12-22T17:33:32Z</time>
      </trkpt>
      <trkpt lat="44.04532" lon="5.78942">
        <ele>705.959</ele>
        <time>2018-12-22T17:33:33Z</time>
      </trkpt>
      <trkpt lat="44.04525" lon="5.78937">
        <ele>705.147</ele>
        <time>2018-12-22T17:33:34Z</time>
      </trkpt>
      <trkpt lat="44.04517" lon="5.78932">
        <ele>704.358</ele>
        <time>2018-12-22T17:33:35Z</time>
      </trkpt>
      <trkpt lat="44.0451" lon="5.78929">
        <ele>702.698</ele>
        <time>2018-12-22T17:33:36Z</time>
      </trkpt>
      <trkpt lat="44.04503" lon="5.78926">
        <ele>701.967</ele>
        <time>2018-12-22T17:33:37Z</time>
      </trkpt>
      <trkpt lat="44.04497" lon="5.78923">
        <ele>701.333</ele>
        <time>2018-12-22T17:33:38Z</time>
      </trkpt>
      <trkpt lat="44.04491" lon="5.7892">
        <ele>700.977</ele>
        <time>2018-12-22T17:33:39Z</time>
      </trkpt>
      <trkpt lat="44.04484" lon="5.78918">
        <ele>700.661</ele>
        <time>2018-12-22T17:33:40Z</time>
      </trkpt>
      <trkpt lat="44.04478" lon="5.78915">
        <ele>700.227</ele>
        <time>2018-12-22T17:33:41Z</time>
      </trkpt>
      <trkpt lat="44.04471" lon="5.78911">
        <ele>699.808</ele>
        <time>2018-12-22T17:33:42Z</time>
      </trkpt>
      <trkpt lat="44.04464" lon="5.78907">
        <ele>699.21</ele>
        <time>2018-12-22T17:33:43Z</time>
      </trkpt>
      <trkpt lat="44.04457" lon="5.78904">
        <ele>698.618</ele>
        <time>2018-12-22T17:33:44Z</time>
      </trkpt>
      <trkpt lat="44.04449" lon="5.78902">
        <ele>698.042</ele>
        <time>2018-12-22T17:33:45Z</time>
      </trkpt>
      <trkpt lat="44.04441" lon="5.78901">
        <ele>697.67</ele>
        <time>2018-12-22T17:33:46Z</time>
      </trkpt>
      <trkpt lat="44.04431" lon="5.78899">
        <ele>697.081</ele>
        <time>2018-12-22T17:33:47Z</time>
      </trkpt>
      <trkpt lat="44.04422" lon="5.78897">
        <ele>695.911</ele>
        <time>2018-12-22T17:33:48Z</time>
      </trkpt>
      <trkpt lat="44.04413" lon="5.78895">
        <ele>695.21</ele>
        <time>2018-12-22T17:33:49Z</time>
      </trkpt>
      <trkpt lat="44.04404" lon="5.78892">
        <ele>694.586</ele>
        <time>2018-12-22T17:33:50Z</time>
      </trkpt>
      <trkpt lat="44.04395" lon="5.78889">
        <ele>693.824</ele>
        <time>2018-12-22T17:33:51Z</time>
      </trkpt>
      <trkpt lat="44.04388" lon="5.78885">
        <ele>693.104</ele>
        <time>2018-12-22T17:33:52Z</time>
      </trkpt>
      <trkpt lat="44.0438" lon="5.7888">
        <ele>692.214</ele>
        <time>2018-12-22T17:33:53Z</time>
      </trkpt>
      <trkpt lat="44.04371" lon="5.78874">
        <ele>691.508</ele>
        <time>2018-12-22T17:33:54Z</time>
      </trkpt>
      <trkpt lat="44.04363" lon="5.78867">
        <ele>690.535</ele>
        <time>2018-12-22T17:33:55Z</time>
      </trkpt>
      <trkpt lat="44.04354" lon="5.7886">
        <ele>689.333</ele>
        <time>2018-12-22T17:33:56Z</time>
      </trkpt>
      <trkpt lat="44.04343" lon="5.78852">
        <ele>688.077</ele>
        <time>2018-12-22T17:33:57Z</time>
      </trkpt>
      <trkpt lat="44.04332" lon="5.78845">
        <ele>686.885</ele>
        <time>2018-12-22T17:33:58Z</time>
      </trkpt>
      <trkpt lat="44.04321" lon="5.78838">
        <ele>685.386</ele>
        <time>2018-12-22T17:33:59Z</time>
      </trkpt>
      <trkpt lat="44.04311" lon="5.78832">
        <ele>683.056</ele>
        <time>2018-12-22T17:34:00Z</time>
      </trkpt>
      <trkpt lat="44.04301" lon="5.78826">
        <ele>682.195</ele>
        <time>2018-12-22T17:34:01Z</time>
      </trkpt>
      <trkpt lat="44.04291" lon="5.78822">
        <ele>681.321</ele>
        <time>2018-12-22T17:34:02Z</time>
      </trkpt>
      <trkpt lat="44.04281" lon="5.78816">
        <ele>680.785</ele>
        <time>2018-12-22T17:34:03Z</time>
      </trkpt>
      <trkpt lat="44.04272" lon="5.78809">
        <ele>680.289</ele>
        <time>2018-12-22T17:34:04Z</time>
      </trkpt>
      <trkpt lat="44.04263" lon="5.78801">
        <ele>679.817</ele>
        <time>2018-12-22T17:34:05Z</time>
      </trkpt>
      <trkpt lat="44.04255" lon="5.78795">
        <ele>679.508</ele>
        <time>2018-12-22T17:34:06Z</time>
      </trkpt>
      <trkpt lat="44.04246" lon="5.78787">
        <ele>679.091</ele>
        <time>2018-12-22T17:34:07Z</time>
      </trkpt>
      <trkpt lat="44.04237" lon="5.7878">
        <ele>678.429</ele>
        <time>2018-12-22T17:34:08Z</time>
      </trkpt>
      <trkpt lat="44.04228" lon="5.78773">
        <ele>677.933</ele>
        <time>2018-12-22T17:34:09Z</time>
      </trkpt>
      <trkpt lat="44.04219" lon="5.78765">
        <ele>677.171</ele>
        <time>2018-12-22T17:34:10Z</time>
      </trkpt>
      <trkpt lat="44.04207" lon="5.78758">
        <ele>675.862</ele>
        <time>2018-12-22T17:34:11Z</time>
      </trkpt>
      <trkpt lat="44.04195" lon="5.78752">
        <ele>673.442</ele>
        <time>2018-12-22T17:34:12Z</time>
      </trkpt>
      <trkpt lat="44.04183" lon="5.78747">
        <ele>671.871</ele>
        <time>2018-12-22T17:34:13Z</time>
      </trkpt>
      <trkpt lat="44.04172" lon="5.78745">
        <ele>670.417</ele>
        <time>2018-12-22T17:34:14Z</time>
      </trkpt>
      <trkpt lat="44.04161" lon="5.78744">
        <ele>669.362</ele>
        <time>2018-12-22T17:34:15Z</time>
      </trkpt>
      <trkpt lat="44.04151" lon="5.78747">
        <ele>668.483</ele>
        <time>2018-12-22T17:34:16Z</time>
      </trkpt>
      <trkpt lat="44.04141" lon="5.78751">
        <ele>667.811</ele>
        <time>2018-12-22T17:34:17Z</time>
      </trkpt>
      <trkpt lat="44.04131" lon="5.78758">
        <ele>667.508</ele>
        <time>2018-12-22T17:34:18Z</time>
      </trkpt>
      <trkpt lat="44.04122" lon="5.78766">
        <ele>667.159</ele>
        <time>2018-12-22T17:34:19Z</time>
      </trkpt>
      <trkpt lat="44.04115" lon="5.78774">
        <ele>667.157</ele>
        <time>2018-12-22T17:34:20Z</time>
      </trkpt>
      <trkpt lat="44.04108" lon="5.78779">
        <ele>667.131</ele>
        <time>2018-12-22T17:34:21Z</time>
      </trkpt>
      <trkpt lat="44.04102" lon="5.78783">
        <ele>667.119</ele>
        <time>2018-12-22T17:34:22Z</time>
      </trkpt>
      <trkpt lat="44.04096" lon="5.78783">
        <ele>666.89</ele>
        <time>2018-12-22T17:34:23Z</time>
      </trkpt>
      <trkpt lat="44.04088" lon="5.7878">
        <ele>666.59</ele>
        <time>2018-12-22T17:34:24Z</time>
      </trkpt>
      <trkpt lat="44.04078" lon="5.78773">
        <ele>664.799</ele>
        <time>2018-12-22T17:34:25Z</time>
      </trkpt>
      <trkpt lat="44.04067" lon="5.78768">
        <ele>663.685</ele>
        <time>2018-12-22T17:34:26Z</time>
      </trkpt>
      <trkpt lat="44.04056" lon="5.78763">
        <ele>662.342</ele>
        <time>2018-12-22T17:34:27Z</time>
      </trkpt>
      <trkpt lat="44.04045" lon="5.78758">
        <ele>661.122</ele>
        <time>2018-12-22T17:34:28Z</time>
      </trkpt>
      <trkpt lat="44.04034" lon="5.78754">
        <ele>659.914</ele>
        <time>2018-12-22T17:34:29Z</time>
      </trkpt>
      <trkpt lat="44.04022" lon="5.78749">
        <ele>658.808</ele>
        <time>2018-12-22T17:34:30Z</time>
      </trkpt>
      <trkpt lat="44.04011" lon="5.78744">
        <ele>657.697</ele>
        <time>2018-12-22T17:34:31Z</time>
      </trkpt>
      <trkpt lat="44.04" lon="5.7874">
        <ele>656.555</ele>
        <time>2018-12-22T17:34:32Z</time>
      </trkpt>
      <trkpt lat="44.0399" lon="5.78737">
        <ele>655.529</ele>
        <time>2018-12-22T17:34:33Z</time>
      </trkpt>
      <trkpt lat="44.03979" lon="5.78735">
        <ele>654.897</ele>
        <time>2018-12-22T17:34:34Z</time>
      </trkpt>
      <trkpt lat="44.03969" lon="5.78734">
        <ele>653.358</ele>
        <time>2018-12-22T17:34:35Z</time>
      </trkpt>
      <trkpt lat="44.03957" lon="5.78734">
        <ele>652.928</ele>
        <time>2018-12-22T17:34:36Z</time>
      </trkpt>
      <trkpt lat="44.03946" lon="5.78732">
        <ele>652.147</ele>
        <time>2018-12-22T17:34:37Z</time>
      </trkpt>
      <trkpt lat="44.03934" lon="5.78731">
        <ele>651.263</ele>
        <time>2018-12-22T17:34:38Z</time>
      </trkpt>
      <trkpt lat="44.03922" lon="5.78731">
        <ele>650.446</ele>
        <time>2018-12-22T17:34:39Z</time>
      </trkpt>
      <trkpt lat="44.0391" lon="5.78731">
        <ele>649.788</ele>
        <time>2018-12-22T17:34:40Z</time>
      </trkpt>
      <trkpt lat="44.03898" lon="5.78733">
        <ele>648.716</ele>
        <time>2018-12-22T17:34:41Z</time>
      </trkpt>
      <trkpt lat="44.03887" lon="5.78736">
        <ele>648.108</ele>
        <time>2018-12-22T17:34:42Z</time>
      </trkpt>
      <trkpt lat="44.03876" lon="5.78739">
        <ele>647.517</ele>
        <time>2018-12-22T17:34:43Z</time>
      </trkpt>
      <trkpt lat="44.03865" lon="5.78742">
        <ele>647.015</ele>
        <time>2018-12-22T17:34:44Z</time>
      </trkpt>
      <trkpt lat="44.03855" lon="5.78745">
        <ele>646.539</ele>
        <time>2018-12-22T17:34:45Z</time>
      </trkpt>
      <trkpt lat="44.03844" lon="5.78749">
        <ele>646.127</ele>
        <time>2018-12-22T17:34:46Z</time>
      </trkpt>
      <trkpt lat="44.03833" lon="5.78752">
        <ele>644.978</ele>
        <time>2018-12-22T17:34:47Z</time>
      </trkpt>
      <trkpt lat="44.0382" lon="5.78756">
        <ele>644.078</ele>
        <time>2018-12-22T17:34:48Z</time>
      </trkpt>
      <trkpt lat="44.03808" lon="5.78758">
        <ele>643.117</ele>
        <time>2018-12-22T17:34:49Z</time>
      </trkpt>
      <trkpt lat="44.03797" lon="5.78759">
        <ele>642.033</ele>
        <time>2018-12-22T17:34:50Z</time>
      </trkpt>
      <trkpt lat="44.03785" lon="5.78757">
        <ele>640.972</ele>
        <time>2018-12-22T17:34:51Z</time>
      </trkpt>
      <trkpt lat="44.03774" lon="5.78755">
        <ele>640.213</ele>
        <time>2018-12-22T17:34:52Z</time>
      </trkpt>
      <trkpt lat="44.03763" lon="5.78753">
        <ele>639.514</ele>
        <time>2018-12-22T17:34:53Z</time>
      </trkpt>
      <trkpt lat="44.03753" lon="5.7875">
        <ele>639.008</ele>
        <time>2018-12-22T17:34:54Z</time>
      </trkpt>
      <trkpt lat="44.03743" lon="5.78747">
        <ele>638.98</ele>
        <time>2018-12-22T17:34:55Z</time>
      </trkpt>
      <trkpt lat="44.03733" lon="5.78745">
        <ele>638.638</ele>
        <time>2018-12-22T17:34:56Z</time>
      </trkpt>
      <trkpt lat="44.03724" lon="5.78743">
        <ele>638.392</ele>
        <time>2018-12-22T17:34:57Z</time>
      </trkpt>
      <trkpt lat="44.03715" lon="5.78743">
        <ele>638.02</ele>
        <time>2018-12-22T17:34:58Z</time>
      </trkpt>
      <trkpt lat="44.03705" lon="5.78745">
        <ele>637.581</ele>
        <time>2018-12-22T17:34:59Z</time>
      </trkpt>
      <trkpt lat="44.03696" lon="5.7875">
        <ele>636.411</ele>
        <time>2018-12-22T17:35:00Z</time>
      </trkpt>
      <trkpt lat="44.03686" lon="5.78756">
        <ele>635.96</ele>
        <time>2018-12-22T17:35:01Z</time>
      </trkpt>
      <trkpt lat="44.03677" lon="5.78761">
        <ele>635.336</ele>
        <time>2018-12-22T17:35:02Z</time>
      </trkpt>
      <trkpt lat="44.03668" lon="5.78765">
        <ele>634.637</ele>
        <time>2018-12-22T17:35:03Z</time>
      </trkpt>
      <trkpt lat="44.03659" lon="5.7877">
        <ele>633.949</ele>
        <time>2018-12-22T17:35:04Z</time>
      </trkpt>
      <trkpt lat="44.0365" lon="5.78775">
        <ele>633.213</ele>
        <time>2018-12-22T17:35:05Z</time>
      </trkpt>
      <trkpt lat="44.03641" lon="5.7878">
        <ele>632.308</ele>
        <time>2018-12-22T17:35:06Z</time>
      </trkpt>
      <trkpt lat="44.03632" lon="5.78785">
        <ele>631.716</ele>
        <time>2018-12-22T17:35:07Z</time>
      </trkpt>
      <trkpt lat="44.03622" lon="5.7879">
        <ele>631.294</ele>
        <time>2018-12-22T17:35:08Z</time>
      </trkpt>
      <trkpt lat="44.03614" lon="5.78795">
        <ele>630.988</ele>
        <time>2018-12-22T17:35:09Z</time>
      </trkpt>
      <trkpt lat="44.03606" lon="5.788">
        <ele>630.586</ele>
        <time>2018-12-22T17:35:10Z</time>
      </trkpt>
      <trkpt lat="44.03598" lon="5.78804">
        <ele>630.227</ele>
        <time>2018-12-22T17:35:11Z</time>
      </trkpt>
      <trkpt lat="44.03591" lon="5.78808">
        <ele>629.787</ele>
        <time>2018-12-22T17:35:12Z</time>
      </trkpt>
      <trkpt lat="44.03585" lon="5.78811">
        <ele>629.376</ele>
        <time>2018-12-22T17:35:13Z</time>
      </trkpt>
      <trkpt lat="44.03577" lon="5.78815">
        <ele>629.072</ele>
        <time>2018-12-22T17:35:14Z</time>
      </trkpt>
      <trkpt lat="44.03568" lon="5.78819">
        <ele>628.657</ele>
        <time>2018-12-22T17:35:15Z</time>
      </trkpt>
      <trkpt lat="44.0356" lon="5.78822">
        <ele>628.1</ele>
        <time>2018-12-22T17:35:16Z</time>
      </trkpt>
      <trkpt lat="44.03552" lon="5.78825">
        <ele>627.72</ele>
        <time>2018-12-22T17:35:17Z</time>
      </trkpt>
      <trkpt lat="44.03544" lon="5.78827">
        <ele>627.408</ele>
        <time>2018-12-22T17:35:18Z</time>
      </trkpt>
      <trkpt lat="44.03534" lon="5.78825">
        <ele>627.078</ele>
        <time>2018-12-22T17:35:19Z</time>
      </trkpt>
      <trkpt lat="44.03526" lon="5.7882">
        <ele>626.646</ele>
        <time>2018-12-22T17:35:20Z</time>
      </trkpt>
      <trkpt lat="44.03517" lon="5.78816">
        <ele>626.23</ele>
        <time>2018-12-22T17:35:21Z</time>
      </trkpt>
      <trkpt lat="44.03507" lon="5.78814">
        <ele>625.858</ele>
        <time>2018-12-22T17:35:22Z</time>
      </trkpt>
      <trkpt lat="44.03497" lon="5.78812">
        <ele>625.339</ele>
        <time>2018-12-22T17:35:23Z</time>
      </trkpt>
      <trkpt lat="44.03488" lon="5.78811">
        <ele>624.179</ele>
        <time>2018-12-22T17:35:24Z</time>
      </trkpt>
      <trkpt lat="44.03479" lon="5.7881">
        <ele>623.778</ele>
        <time>2018-12-22T17:35:25Z</time>
      </trkpt>
      <trkpt lat="44.03471" lon="5.78808">
        <ele>623.384</ele>
        <time>2018-12-22T17:35:26Z</time>
      </trkpt>
      <trkpt lat="44.03463" lon="5.78806">
        <ele>623.122</ele>
        <time>2018-12-22T17:35:27Z</time>
      </trkpt>
      <trkpt lat="44.03456" lon="5.78804">
        <ele>623.162</ele>
        <time>2018-12-22T17:35:28Z</time>
      </trkpt>
      <trkpt lat="44.0345" lon="5.78802">
        <ele>623.208</ele>
        <time>2018-12-22T17:35:29Z</time>
      </trkpt>
      <trkpt lat="44.03442" lon="5.788">
        <ele>623.508</ele>
        <time>2018-12-22T17:35:31Z</time>
      </trkpt>
      <trkpt lat="44.03436" lon="5.78794">
        <ele>623.795</ele>
        <time>2018-12-22T17:35:33Z</time>
      </trkpt>
      <trkpt lat="44.03432" lon="5.78786">
        <ele>623.553</ele>
        <time>2018-12-22T17:35:34Z</time>
      </trkpt>
      <trkpt lat="44.03427" lon="5.78775">
        <ele>622.137</ele>
        <time>2018-12-22T17:35:35Z</time>
      </trkpt>
      <trkpt lat="44.0342" lon="5.78763">
        <ele>621.125</ele>
        <time>2018-12-22T17:35:36Z</time>
      </trkpt>
      <trkpt lat="44.03414" lon="5.78751">
        <ele>620.176</ele>
        <time>2018-12-22T17:35:37Z</time>
      </trkpt>
      <trkpt lat="44.03407" lon="5.78738">
        <ele>619.396</ele>
        <time>2018-12-22T17:35:38Z</time>
      </trkpt>
      <trkpt lat="44.034" lon="5.78725">
        <ele>618.455</ele>
        <time>2018-12-22T17:35:39Z</time>
      </trkpt>
      <trkpt lat="44.03392" lon="5.78712">
        <ele>617.591</ele>
        <time>2018-12-22T17:35:40Z</time>
      </trkpt>
      <trkpt lat="44.03385" lon="5.787">
        <ele>616.986</ele>
        <time>2018-12-22T17:35:41Z</time>
      </trkpt>
      <trkpt lat="44.03378" lon="5.78688">
        <ele>616.46</ele>
        <time>2018-12-22T17:35:42Z</time>
      </trkpt>
      <trkpt lat="44.03371" lon="5.78677">
        <ele>615.826</ele>
        <time>2018-12-22T17:35:43Z</time>
      </trkpt>
      <trkpt lat="44.03365" lon="5.78667">
        <ele>615.208</ele>
        <time>2018-12-22T17:35:44Z</time>
      </trkpt>
      <trkpt lat="44.03358" lon="5.78658">
        <ele>614.811</ele>
        <time>2018-12-22T17:35:45Z</time>
      </trkpt>
      <trkpt lat="44.03352" lon="5.78649">
        <ele>614.579</ele>
        <time>2018-12-22T17:35:46Z</time>
      </trkpt>
      <trkpt lat="44.03345" lon="5.78639">
        <ele>614.133</ele>
        <time>2018-12-22T17:35:47Z</time>
      </trkpt>
      <trkpt lat="44.03339" lon="5.78631">
        <ele>613.731</ele>
        <time>2018-12-22T17:35:48Z</time>
      </trkpt>
      <trkpt lat="44.03333" lon="5.78623">
        <ele>613.682</ele>
        <time>2018-12-22T17:35:49Z</time>
      </trkpt>
      <trkpt lat="44.03329" lon="5.78617">
        <ele>613.712</ele>
        <time>2018-12-22T17:35:50Z</time>
      </trkpt>
      <trkpt lat="44.03326" lon="5.78611">
        <ele>613.731</ele>
        <time>2018-12-22T17:35:51Z</time>
      </trkpt>
      <trkpt lat="44.03322" lon="5.78604">
        <ele>613.797</ele>
        <time>2018-12-22T17:35:52Z</time>
      </trkpt>
      <trkpt lat="44.03314" lon="5.78597">
        <ele>613.577</ele>
        <time>2018-12-22T17:35:53Z</time>
      </trkpt>
      <trkpt lat="44.03303" lon="5.78589">
        <ele>612.861</ele>
        <time>2018-12-22T17:35:54Z</time>
      </trkpt>
      <trkpt lat="44.03291" lon="5.78583">
        <ele>612.027</ele>
        <time>2018-12-22T17:35:55Z</time>
      </trkpt>
      <trkpt lat="44.03278" lon="5.78579">
        <ele>610.808</ele>
        <time>2018-12-22T17:35:56Z</time>
      </trkpt>
      <trkpt lat="44.03264" lon="5.78574">
        <ele>609.56</ele>
        <time>2018-12-22T17:35:57Z</time>
      </trkpt>
      <trkpt lat="44.03249" lon="5.78569">
        <ele>608.158</ele>
        <time>2018-12-22T17:35:58Z</time>
      </trkpt>
      <trkpt lat="44.03235" lon="5.78564">
        <ele>606.062</ele>
        <time>2018-12-22T17:35:59Z</time>
      </trkpt>
      <trkpt lat="44.03221" lon="5.7856">
        <ele>606.07</ele>
        <time>2018-12-22T17:36:00Z</time>
      </trkpt>
      <trkpt lat="44.03209" lon="5.78556">
        <ele>606.181</ele>
        <time>2018-12-22T17:36:01Z</time>
      </trkpt>
      <trkpt lat="44.03196" lon="5.78553">
        <ele>606.391</ele>
        <time>2018-12-22T17:36:02Z</time>
      </trkpt>
      <trkpt lat="44.03182" lon="5.78549">
        <ele>606.76</ele>
        <time>2018-12-22T17:36:03Z</time>
      </trkpt>
      <trkpt lat="44.03167" lon="5.78547">
        <ele>606.776</ele>
        <time>2018-12-22T17:36:04Z</time>
      </trkpt>
      <trkpt lat="44.03152" lon="5.78546">
        <ele>606.774</ele>
        <time>2018-12-22T17:36:05Z</time>
      </trkpt>
      <trkpt lat="44.03136" lon="5.78548">
        <ele>605.956</ele>
        <time>2018-12-22T17:36:06Z</time>
      </trkpt>
      <trkpt lat="44.0312" lon="5.7855">
        <ele>604.921</ele>
        <time>2018-12-22T17:36:07Z</time>
      </trkpt>
      <trkpt lat="44.03103" lon="5.78553">
        <ele>604.008</ele>
        <time>2018-12-22T17:36:08Z</time>
      </trkpt>
      <trkpt lat="44.03087" lon="5.78556">
        <ele>602.95</ele>
        <time>2018-12-22T17:36:09Z</time>
      </trkpt>
      <trkpt lat="44.03072" lon="5.78558">
        <ele>602.018</ele>
        <time>2018-12-22T17:36:10Z</time>
      </trkpt>
      <trkpt lat="44.03055" lon="5.78561">
        <ele>601.222</ele>
        <time>2018-12-22T17:36:11Z</time>
      </trkpt>
      <trkpt lat="44.03038" lon="5.78565">
        <ele>600.92</ele>
        <time>2018-12-22T17:36:12Z</time>
      </trkpt>
      <trkpt lat="44.03021" lon="5.7857">
        <ele>600.721</ele>
        <time>2018-12-22T17:36:13Z</time>
      </trkpt>
      <trkpt lat="44.03003" lon="5.78572">
        <ele>600.651</ele>
        <time>2018-12-22T17:36:14Z</time>
      </trkpt>
      <trkpt lat="44.02986" lon="5.78576">
        <ele>600.21</ele>
        <time>2018-12-22T17:36:15Z</time>
      </trkpt>
      <trkpt lat="44.0297" lon="5.78577">
        <ele>600.216</ele>
        <time>2018-12-22T17:36:16Z</time>
      </trkpt>
      <trkpt lat="44.02953" lon="5.78575">
        <ele>600.221</ele>
        <time>2018-12-22T17:36:17Z</time>
      </trkpt>
      <trkpt lat="44.02934" lon="5.78569">
        <ele>600.241</ele>
        <time>2018-12-22T17:36:18Z</time>
      </trkpt>
      <trkpt lat="44.02915" lon="5.78557">
        <ele>599.805</ele>
        <time>2018-12-22T17:36:19Z</time>
      </trkpt>
      <trkpt lat="44.02896" lon="5.78547">
        <ele>599.008</ele>
        <time>2018-12-22T17:36:20Z</time>
      </trkpt>
      <trkpt lat="44.02876" lon="5.7854">
        <ele>597.615</ele>
        <time>2018-12-22T17:36:21Z</time>
      </trkpt>
      <trkpt lat="44.02858" lon="5.78531">
        <ele>596.023</ele>
        <time>2018-12-22T17:36:22Z</time>
      </trkpt>
      <trkpt lat="44.02839" lon="5.78522">
        <ele>594.657</ele>
        <time>2018-12-22T17:36:23Z</time>
      </trkpt>
      <trkpt lat="44.0282" lon="5.7851">
        <ele>594.425</ele>
        <time>2018-12-22T17:36:24Z</time>
      </trkpt>
      <trkpt lat="44.02801" lon="5.78499">
        <ele>593.936</ele>
        <time>2018-12-22T17:36:25Z</time>
      </trkpt>
      <trkpt lat="44.02786" lon="5.7849">
        <ele>593.496</ele>
        <time>2018-12-22T17:36:26Z</time>
      </trkpt>
      <trkpt lat="44.0277" lon="5.78479">
        <ele>592.835</ele>
        <time>2018-12-22T17:36:27Z</time>
      </trkpt>
      <trkpt lat="44.02757" lon="5.78467">
        <ele>592.391</ele>
        <time>2018-12-22T17:36:28Z</time>
      </trkpt>
      <trkpt lat="44.02743" lon="5.78458">
        <ele>591.623</ele>
        <time>2018-12-22T17:36:29Z</time>
      </trkpt>
      <trkpt lat="44.02728" lon="5.78449">
        <ele>591.083</ele>
        <time>2018-12-22T17:36:30Z</time>
      </trkpt>
      <trkpt lat="44.02713" lon="5.7844">
        <ele>590.911</ele>
        <time>2018-12-22T17:36:31Z</time>
      </trkpt>
      <trkpt lat="44.02696" lon="5.78434">
        <ele>590.208</ele>
        <time>2018-12-22T17:36:32Z</time>
      </trkpt>
      <trkpt lat="44.02679" lon="5.78432">
        <ele>588.915</ele>
        <time>2018-12-22T17:36:33Z</time>
      </trkpt>
      <trkpt lat="44.02661" lon="5.78432">
        <ele>587.023</ele>
        <time>2018-12-22T17:36:34Z</time>
      </trkpt>
      <trkpt lat="44.02643" lon="5.78438">
        <ele>586.077</ele>
        <time>2018-12-22T17:36:35Z</time>
      </trkpt>
      <trkpt lat="44.02627" lon="5.78446">
        <ele>585.315</ele>
        <time>2018-12-22T17:36:36Z</time>
      </trkpt>
      <trkpt lat="44.0261" lon="5.78451">
        <ele>585.036</ele>
        <time>2018-12-22T17:36:37Z</time>
      </trkpt>
      <trkpt lat="44.02595" lon="5.78455">
        <ele>584.776</ele>
        <time>2018-12-22T17:36:38Z</time>
      </trkpt>
      <trkpt lat="44.02582" lon="5.78458">
        <ele>584.655</ele>
        <time>2018-12-22T17:36:39Z</time>
      </trkpt>
      <trkpt lat="44.02569" lon="5.78462">
        <ele>584.661</ele>
        <time>2018-12-22T17:36:40Z</time>
      </trkpt>
      <trkpt lat="44.02554" lon="5.78469">
        <ele>584.671</ele>
        <time>2018-12-22T17:36:41Z</time>
      </trkpt>
      <trkpt lat="44.0254" lon="5.78473">
        <ele>584.641</ele>
        <time>2018-12-22T17:36:42Z</time>
      </trkpt>
      <trkpt lat="44.02525" lon="5.78474">
        <ele>584.615</ele>
        <time>2018-12-22T17:36:43Z</time>
      </trkpt>
      <trkpt lat="44.0251" lon="5.78473">
        <ele>584.508</ele>
        <time>2018-12-22T17:36:44Z</time>
      </trkpt>
      <trkpt lat="44.02497" lon="5.78475">
        <ele>584.65</ele>
        <time>2018-12-22T17:36:45Z</time>
      </trkpt>
      <trkpt lat="44.02484" lon="5.78469">
        <ele>584.748</ele>
        <time>2018-12-22T17:36:46Z</time>
      </trkpt>
      <trkpt lat="44.02472" lon="5.78466">
        <ele>585.542</ele>
        <time>2018-12-22T17:36:47Z</time>
      </trkpt>
      <trkpt lat="44.02461" lon="5.78462">
        <ele>586.46</ele>
        <time>2018-12-22T17:36:48Z</time>
      </trkpt>
      <trkpt lat="44.0245" lon="5.7846">
        <ele>587.711</ele>
        <time>2018-12-22T17:36:49Z</time>
      </trkpt>
      <trkpt lat="44.02441" lon="5.78462">
        <ele>589.071</ele>
        <time>2018-12-22T17:36:50Z</time>
      </trkpt>
      <trkpt lat="44.02436" lon="5.78467">
        <ele>590.41</ele>
        <time>2018-12-22T17:36:51Z</time>
      </trkpt>
      <trkpt lat="44.0243" lon="5.7847">
        <ele>593.026</ele>
        <time>2018-12-22T17:36:54Z</time>
      </trkpt>
      <trkpt lat="44.02431" lon="5.78477">
        <ele>593.826</ele>
        <time>2018-12-22T17:36:56Z</time>
      </trkpt>
      <trkpt lat="44.02427" lon="5.78482">
        <ele>595.947</ele>
        <time>2018-12-22T17:37:04Z</time>
      </trkpt>
      <trkpt lat="44.02422" lon="5.78479">
        <ele>595.011</ele>
        <time>2018-12-22T17:37:12Z</time>
      </trkpt>
      <trkpt lat="44.02426" lon="5.78484">
        <ele>595.108</ele>
        <time>2018-12-22T17:37:22Z</time>
      </trkpt>
      <trkpt lat="44.02426" lon="5.78477">
        <ele>594.995</ele>
        <time>2018-12-22T17:37:29Z</time>
      </trkpt>
      <trkpt lat="44.02434" lon="5.7848">
        <ele>594.563</ele>
        <time>2018-12-22T17:37:45Z</time>
      </trkpt>
      <trkpt lat="44.02431" lon="5.78475">
        <ele>594.037</ele>
        <time>2018-12-22T17:37:47Z</time>
      </trkpt>
      <trkpt lat="44.02428" lon="5.7847">
        <ele>595.315</ele>
        <time>2018-12-22T17:37:54Z</time>
      </trkpt>
      <trkpt lat="44.02424" lon="5.78467">
        <ele>594.116</ele>
        <time>2018-12-22T17:37:58Z</time>
      </trkpt>
      <trkpt lat="44.02419" lon="5.78468">
        <ele>594.216</ele>
        <time>2018-12-22T17:38:23Z</time>
      </trkpt>
      <trkpt lat="44.02417" lon="5.78474">
        <ele>594.015</ele>
        <time>2018-12-22T17:43:56Z</time>
      </trkpt>
      <trkpt lat="44.02421" lon="5.78477">
        <ele>593.841</ele>
        <time>2018-12-22T17:44:32Z</time>
      </trkpt>
    </trkseg>
  </trk>
  <trk>
    <name><![CDATA[20190416155013-419ZJ]]></name>
    <extensions>
      <line xmlns="http://www.topografix.com/GPX/gpx_style/0/2">
        <color>ee00ff</color>
        <width>4</width>
      </line>
    </extensions>
    <trkseg>
      <trkpt lat="44.03632" lon="5.62827">
        <ele>773.8</ele>
      </trkpt>
      <trkpt lat="44.03632" lon="5.62827">
        <ele>773.8</ele>
      </trkpt>
      <trkpt lat="44.03635" lon="5.62828">
        <ele>774</ele>
      </trkpt>
      <trkpt lat="44.03656" lon="5.62833">
        <ele>775.9</ele>
      </trkpt>
      <trkpt lat="44.03703" lon="5.62848">
        <ele>781.9</ele>
      </trkpt>
      <trkpt lat="44.03731" lon="5.62856">
        <ele>785.4</ele>
      </trkpt>
      <trkpt lat="44.03765" lon="5.6287">
        <ele>789.3</ele>
      </trkpt>
      <trkpt lat="44.03768" lon="5.62871">
        <ele>789.6</ele>
      </trkpt>
      <trkpt lat="44.0377" lon="5.62863">
        <ele>790</ele>
      </trkpt>
      <trkpt lat="44.03792" lon="5.62795">
        <ele>801.1</ele>
      </trkpt>
      <trkpt lat="44.03794" lon="5.6279">
        <ele>802.4</ele>
      </trkpt>
      <trkpt lat="44.03797" lon="5.62793">
        <ele>802.2</ele>
      </trkpt>
      <trkpt lat="44.03801" lon="5.62798">
        <ele>801.7</ele>
      </trkpt>
      <trkpt lat="44.0381" lon="5.62806">
        <ele>801.3</ele>
      </trkpt>
      <trkpt lat="44.03821" lon="5.62818">
        <ele>800.3</ele>
      </trkpt>
      <trkpt lat="44.03833" lon="5.6283">
        <ele>799.6</ele>
      </trkpt>
      <trkpt lat="44.03841" lon="5.62839">
        <ele>799.2</ele>
      </trkpt>
      <trkpt lat="44.03847" lon="5.62845">
        <ele>799.2</ele>
      </trkpt>
      <trkpt lat="44.0385" lon="5.62848">
        <ele>799.2</ele>
      </trkpt>
      <trkpt lat="44.03872" lon="5.62871">
        <ele>798.7</ele>
      </trkpt>
      <trkpt lat="44.03881" lon="5.62881">
        <ele>798.3</ele>
      </trkpt>
      <trkpt lat="44.0389" lon="5.62854">
        <ele>800.7</ele>
      </trkpt>
      <trkpt lat="44.03891" lon="5.62851">
        <ele>801</ele>
      </trkpt>
      <trkpt lat="44.039" lon="5.62818">
        <ele>805.4</ele>
      </trkpt>
      <trkpt lat="44.03902" lon="5.62811">
        <ele>806.5</ele>
      </trkpt>
      <trkpt lat="44.03913" lon="5.62765">
        <ele>813.8</ele>
      </trkpt>
      <trkpt lat="44.03913" lon="5.62764">
        <ele>813.9</ele>
      </trkpt>
      <trkpt lat="44.03905" lon="5.62724">
        <ele>819.7</ele>
      </trkpt>
      <trkpt lat="44.0391" lon="5.62717">
        <ele>820.6</ele>
      </trkpt>
      <trkpt lat="44.03924" lon="5.62672">
        <ele>827.6</ele>
      </trkpt>
      <trkpt lat="44.03927" lon="5.62665">
        <ele>828.9</ele>
      </trkpt>
      <trkpt lat="44.03939" lon="5.62643">
        <ele>831.6</ele>
      </trkpt>
      <trkpt lat="44.03947" lon="5.6263">
        <ele>833.1</ele>
      </trkpt>
      <trkpt lat="44.03969" lon="5.62586">
        <ele>836.9</ele>
      </trkpt>
      <trkpt lat="44.03995" lon="5.62527">
        <ele>839.5</ele>
      </trkpt>
      <trkpt lat="44.03996" lon="5.62514">
        <ele>839.5</ele>
      </trkpt>
      <trkpt lat="44.03995" lon="5.6251">
        <ele>839.2</ele>
      </trkpt>
      <trkpt lat="44.04003" lon="5.62501">
        <ele>840.4</ele>
      </trkpt>
      <trkpt lat="44.04032" lon="5.62471">
        <ele>842.9</ele>
      </trkpt>
      <trkpt lat="44.0405" lon="5.62448">
        <ele>843.5</ele>
      </trkpt>
      <trkpt lat="44.0406" lon="5.62446">
        <ele>844.3</ele>
      </trkpt>
      <trkpt lat="44.04087" lon="5.62457">
        <ele>848.2</ele>
      </trkpt>
      <trkpt lat="44.04098" lon="5.62456">
        <ele>850.7</ele>
      </trkpt>
      <trkpt lat="44.04124" lon="5.62441">
        <ele>854.4</ele>
      </trkpt>
      <trkpt lat="44.04151" lon="5.62429">
        <ele>857.7</ele>
      </trkpt>
      <trkpt lat="44.04198" lon="5.62427">
        <ele>862.6</ele>
      </trkpt>
      <trkpt lat="44.04221" lon="5.62435">
        <ele>865.7</ele>
      </trkpt>
      <trkpt lat="44.04238" lon="5.62442">
        <ele>867.9</ele>
      </trkpt>
      <trkpt lat="44.0424" lon="5.62443">
        <ele>868.2</ele>
      </trkpt>
      <trkpt lat="44.0452" lon="5.62588">
        <ele>888.1</ele>
      </trkpt>
      <trkpt lat="44.04533" lon="5.62606">
        <ele>892.1</ele>
      </trkpt>
      <trkpt lat="44.04543" lon="5.62639">
        <ele>895.7</ele>
      </trkpt>
      <trkpt lat="44.04553" lon="5.62689">
        <ele>898.9</ele>
      </trkpt>
      <trkpt lat="44.04564" lon="5.62725">
        <ele>900.5</ele>
      </trkpt>
      <trkpt lat="44.04576" lon="5.62739">
        <ele>899.6</ele>
      </trkpt>
      <trkpt lat="44.0459" lon="5.62747">
        <ele>899.3</ele>
      </trkpt>
      <trkpt lat="44.04635" lon="5.62764">
        <ele>905.4</ele>
      </trkpt>
      <trkpt lat="44.04641" lon="5.62765">
        <ele>905.9</ele>
      </trkpt>
      <trkpt lat="44.04653" lon="5.62768">
        <ele>907.3</ele>
      </trkpt>
      <trkpt lat="44.04718" lon="5.62765">
        <ele>911.5</ele>
      </trkpt>
      <trkpt lat="44.04735" lon="5.62759">
        <ele>911.6</ele>
      </trkpt>
      <trkpt lat="44.04755" lon="5.62756">
        <ele>912.4</ele>
      </trkpt>
      <trkpt lat="44.04826" lon="5.62765">
        <ele>916.2</ele>
      </trkpt>
      <trkpt lat="44.04847" lon="5.62774">
        <ele>920.4</ele>
      </trkpt>
      <trkpt lat="44.04851" lon="5.62786">
        <ele>922.2</ele>
      </trkpt>
      <trkpt lat="44.04857" lon="5.62801">
        <ele>924.4</ele>
      </trkpt>
      <trkpt lat="44.04862" lon="5.6283">
        <ele>926.9</ele>
      </trkpt>
      <trkpt lat="44.04868" lon="5.62856">
        <ele>930</ele>
      </trkpt>
      <trkpt lat="44.04869" lon="5.62859">
        <ele>930.3</ele>
      </trkpt>
      <trkpt lat="44.04879" lon="5.62883">
        <ele>932.7</ele>
      </trkpt>
      <trkpt lat="44.04888" lon="5.62898">
        <ele>933.6</ele>
      </trkpt>
      <trkpt lat="44.04901" lon="5.62912">
        <ele>933.7</ele>
      </trkpt>
      <trkpt lat="44.04939" lon="5.62929">
        <ele>937</ele>
      </trkpt>
      <trkpt lat="44.04986" lon="5.62942">
        <ele>941.2</ele>
      </trkpt>
      <trkpt lat="44.05013" lon="5.62945">
        <ele>943.2</ele>
      </trkpt>
      <trkpt lat="44.0508" lon="5.62934">
        <ele>948.4</ele>
      </trkpt>
      <trkpt lat="44.05195" lon="5.62919">
        <ele>955.4</ele>
      </trkpt>
      <trkpt lat="44.05259" lon="5.62928">
        <ele>961.3</ele>
      </trkpt>
      <trkpt lat="44.05259" lon="5.62928">
        <ele>961.3</ele>
      </trkpt>
      <trkpt lat="44.05263" lon="5.62928">
        <ele>961.8</ele>
      </trkpt>
      <trkpt lat="44.05283" lon="5.6294">
        <ele>964.6</ele>
      </trkpt>
      <trkpt lat="44.053" lon="5.62961">
        <ele>966.5</ele>
      </trkpt>
      <trkpt lat="44.05306" lon="5.62979">
        <ele>966.8</ele>
      </trkpt>
      <trkpt lat="44.05312" lon="5.62986">
        <ele>966.8</ele>
      </trkpt>
      <trkpt lat="44.05337" lon="5.6301">
        <ele>968.5</ele>
      </trkpt>
      <trkpt lat="44.05357" lon="5.63037">
        <ele>975</ele>
      </trkpt>
      <trkpt lat="44.05411" lon="5.63133">
        <ele>981.3</ele>
      </trkpt>
      <trkpt lat="44.05553" lon="5.6334">
        <ele>997.3</ele>
      </trkpt>
      <trkpt lat="44.05606" lon="5.63391">
        <ele>1001.1</ele>
      </trkpt>
      <trkpt lat="44.05634" lon="5.63425">
        <ele>1002</ele>
      </trkpt>
      <trkpt lat="44.05698" lon="5.63481">
        <ele>1006.5</ele>
      </trkpt>
      <trkpt lat="44.05713" lon="5.63484">
        <ele>1006.8</ele>
      </trkpt>
      <trkpt lat="44.05725" lon="5.63484">
        <ele>1006.9</ele>
      </trkpt>
      <trkpt lat="44.05743" lon="5.63476">
        <ele>1007.5</ele>
      </trkpt>
      <trkpt lat="44.05757" lon="5.63472">
        <ele>1008.5</ele>
      </trkpt>
      <trkpt lat="44.0577" lon="5.63473">
        <ele>1009.5</ele>
      </trkpt>
      <trkpt lat="44.05844" lon="5.63491">
        <ele>1012.9</ele>
      </trkpt>
      <trkpt lat="44.05857" lon="5.63503">
        <ele>1013.3</ele>
      </trkpt>
      <trkpt lat="44.05868" lon="5.63518">
        <ele>1016.8</ele>
      </trkpt>
      <trkpt lat="44.05885" lon="5.63531">
        <ele>1019.7</ele>
      </trkpt>
      <trkpt lat="44.0591" lon="5.63545">
        <ele>1022.3</ele>
      </trkpt>
      <trkpt lat="44.05944" lon="5.63559">
        <ele>1024.4</ele>
      </trkpt>
      <trkpt lat="44.06014" lon="5.63579">
        <ele>1025.5</ele>
      </trkpt>
      <trkpt lat="44.06106" lon="5.63591">
        <ele>1029.7</ele>
      </trkpt>
      <trkpt lat="44.06119" lon="5.63596">
        <ele>1030.6</ele>
      </trkpt>
      <trkpt lat="44.06135" lon="5.63608">
        <ele>1032.4</ele>
      </trkpt>
      <trkpt lat="44.06199" lon="5.63674">
        <ele>1040.5</ele>
      </trkpt>
      <trkpt lat="44.06206" lon="5.63681">
        <ele>1041.7</ele>
      </trkpt>
      <trkpt lat="44.06223" lon="5.63691">
        <ele>1043.1</ele>
      </trkpt>
      <trkpt lat="44.06245" lon="5.637">
        <ele>1043.6</ele>
      </trkpt>
      <trkpt lat="44.06269" lon="5.63704">
        <ele>1044.8</ele>
      </trkpt>
      <trkpt lat="44.06334" lon="5.63728">
        <ele>1049</ele>
      </trkpt>
      <trkpt lat="44.06355" lon="5.63733">
        <ele>1049.3</ele>
      </trkpt>
      <trkpt lat="44.06419" lon="5.63739">
        <ele>1049.5</ele>
      </trkpt>
      <trkpt lat="44.06451" lon="5.63739">
        <ele>1051</ele>
      </trkpt>
      <trkpt lat="44.06463" lon="5.63735">
        <ele>1051.7</ele>
      </trkpt>
      <trkpt lat="44.06472" lon="5.63727">
        <ele>1052.3</ele>
      </trkpt>
      <trkpt lat="44.06488" lon="5.63702">
        <ele>1053.7</ele>
      </trkpt>
      <trkpt lat="44.06498" lon="5.6369">
        <ele>1054.4</ele>
      </trkpt>
      <trkpt lat="44.06531" lon="5.63674">
        <ele>1057.7</ele>
      </trkpt>
      <trkpt lat="44.06547" lon="5.63671">
        <ele>1059</ele>
      </trkpt>
      <trkpt lat="44.06559" lon="5.63662">
        <ele>1060.6</ele>
      </trkpt>
      <trkpt lat="44.06571" lon="5.63649">
        <ele>1063.4</ele>
      </trkpt>
      <trkpt lat="44.06579" lon="5.63644">
        <ele>1064.7</ele>
      </trkpt>
      <trkpt lat="44.0659" lon="5.63642">
        <ele>1065.9</ele>
      </trkpt>
      <trkpt lat="44.06597" lon="5.63644">
        <ele>1066.4</ele>
      </trkpt>
      <trkpt lat="44.06612" lon="5.63644">
        <ele>1068</ele>
      </trkpt>
      <trkpt lat="44.06687" lon="5.63632">
        <ele>1076.8</ele>
      </trkpt>
      <trkpt lat="44.06712" lon="5.63617">
        <ele>1079.7</ele>
      </trkpt>
      <trkpt lat="44.06747" lon="5.63606">
        <ele>1082.6</ele>
      </trkpt>
      <trkpt lat="44.06762" lon="5.63597">
        <ele>1083.4</ele>
      </trkpt>
      <trkpt lat="44.06792" lon="5.63585">
        <ele>1085.1</ele>
      </trkpt>
      <trkpt lat="44.06795" lon="5.63581">
        <ele>1085.5</ele>
      </trkpt>
      <trkpt lat="44.06799" lon="5.63561">
        <ele>1087.8</ele>
      </trkpt>
      <trkpt lat="44.06799" lon="5.63539">
        <ele>1090</ele>
      </trkpt>
      <trkpt lat="44.06796" lon="5.63533">
        <ele>1090.6</ele>
      </trkpt>
      <trkpt lat="44.06791" lon="5.63529">
        <ele>1090.9</ele>
      </trkpt>
      <trkpt lat="44.06786" lon="5.63528">
        <ele>1090.8</ele>
      </trkpt>
      <trkpt lat="44.06764" lon="5.63533">
        <ele>1089.6</ele>
      </trkpt>
      <trkpt lat="44.06761" lon="5.63531">
        <ele>1089.8</ele>
      </trkpt>
      <trkpt lat="44.06761" lon="5.63527">
        <ele>1090.4</ele>
      </trkpt>
      <trkpt lat="44.06767" lon="5.63519">
        <ele>1091.5</ele>
      </trkpt>
      <trkpt lat="44.06808" lon="5.63508">
        <ele>1093.2</ele>
      </trkpt>
      <trkpt lat="44.06836" lon="5.6351">
        <ele>1093.5</ele>
      </trkpt>
      <trkpt lat="44.06855" lon="5.63515">
        <ele>1094.6</ele>
      </trkpt>
      <trkpt lat="44.06876" lon="5.63526">
        <ele>1095.4</ele>
      </trkpt>
      <trkpt lat="44.06912" lon="5.6355">
        <ele>1095.9</ele>
      </trkpt>
      <trkpt lat="44.06947" lon="5.63563">
        <ele>1098.3</ele>
      </trkpt>
      <trkpt lat="44.06965" lon="5.63576">
        <ele>1099.4</ele>
      </trkpt>
      <trkpt lat="44.06978" lon="5.63588">
        <ele>1100.3</ele>
      </trkpt>
      <trkpt lat="44.06993" lon="5.63595">
        <ele>1101.9</ele>
      </trkpt>
      <trkpt lat="44.07017" lon="5.6359">
        <ele>1104.5</ele>
      </trkpt>
      <trkpt lat="44.07047" lon="5.63575">
        <ele>1107.8</ele>
      </trkpt>
      <trkpt lat="44.07184" lon="5.63548">
        <ele>1120.7</ele>
      </trkpt>
      <trkpt lat="44.07192" lon="5.63545">
        <ele>1121.2</ele>
      </trkpt>
      <trkpt lat="44.07249" lon="5.63521">
        <ele>1123.2</ele>
      </trkpt>
      <trkpt lat="44.07263" lon="5.63517">
        <ele>1122.6</ele>
      </trkpt>
      <trkpt lat="44.07285" lon="5.6351">
        <ele>1121.3</ele>
      </trkpt>
      <trkpt lat="44.07323" lon="5.63494">
        <ele>1118.5</ele>
      </trkpt>
      <trkpt lat="44.07338" lon="5.63494">
        <ele>1118.1</ele>
      </trkpt>
      <trkpt lat="44.07352" lon="5.63497">
        <ele>1117.8</ele>
      </trkpt>
      <trkpt lat="44.07439" lon="5.63535">
        <ele>1117.6</ele>
      </trkpt>
      <trkpt lat="44.07459" lon="5.63537">
        <ele>1117.1</ele>
      </trkpt>
      <trkpt lat="44.07479" lon="5.63535">
        <ele>1116.2</ele>
      </trkpt>
      <trkpt lat="44.075" lon="5.63539">
        <ele>1115.8</ele>
      </trkpt>
      <trkpt lat="44.0752" lon="5.63543">
        <ele>1116.7</ele>
      </trkpt>
      <trkpt lat="44.07524" lon="5.63543">
        <ele>1116.8</ele>
      </trkpt>
      <trkpt lat="44.07647" lon="5.63557">
        <ele>1124</ele>
      </trkpt>
      <trkpt lat="44.07663" lon="5.63568">
        <ele>1126.2</ele>
      </trkpt>
      <trkpt lat="44.07678" lon="5.63582">
        <ele>1129</ele>
      </trkpt>
      <trkpt lat="44.0769" lon="5.63598">
        <ele>1130.9</ele>
      </trkpt>
      <trkpt lat="44.07699" lon="5.63613">
        <ele>1132.4</ele>
      </trkpt>
      <trkpt lat="44.07703" lon="5.63619">
        <ele>1133</ele>
      </trkpt>
      <trkpt lat="44.07748" lon="5.63643">
        <ele>1138</ele>
      </trkpt>
      <trkpt lat="44.07754" lon="5.63647">
        <ele>1138.3</ele>
      </trkpt>
      <trkpt lat="44.07764" lon="5.63655">
        <ele>1138.9</ele>
      </trkpt>
      <trkpt lat="44.0778" lon="5.63673">
        <ele>1140.1</ele>
      </trkpt>
      <trkpt lat="44.07795" lon="5.63708">
        <ele>1141.2</ele>
      </trkpt>
      <trkpt lat="44.07815" lon="5.63769">
        <ele>1144.1</ele>
      </trkpt>
      <trkpt lat="44.0787" lon="5.63868">
        <ele>1149.6</ele>
      </trkpt>
      <trkpt lat="44.07896" lon="5.63896">
        <ele>1151.4</ele>
      </trkpt>
      <trkpt lat="44.07925" lon="5.6392">
        <ele>1153.2</ele>
      </trkpt>
      <trkpt lat="44.08017" lon="5.63958">
        <ele>1157.3</ele>
      </trkpt>
      <trkpt lat="44.08025" lon="5.63966">
        <ele>1157.8</ele>
      </trkpt>
      <trkpt lat="44.08025" lon="5.63966">
        <ele>1157.8</ele>
      </trkpt>
      <trkpt lat="44.08039" lon="5.6398">
        <ele>1158.9</ele>
      </trkpt>
      <trkpt lat="44.08069" lon="5.6399">
        <ele>1160.8</ele>
      </trkpt>
      <trkpt lat="44.08137" lon="5.64004">
        <ele>1166</ele>
      </trkpt>
      <trkpt lat="44.08175" lon="5.64019">
        <ele>1169.5</ele>
      </trkpt>
      <trkpt lat="44.08221" lon="5.64035">
        <ele>1173.4</ele>
      </trkpt>
      <trkpt lat="44.08271" lon="5.64043">
        <ele>1176.4</ele>
      </trkpt>
      <trkpt lat="44.08313" lon="5.64035">
        <ele>1178.1</ele>
      </trkpt>
      <trkpt lat="44.08333" lon="5.64044">
        <ele>1179</ele>
      </trkpt>
      <trkpt lat="44.08355" lon="5.64047">
        <ele>1180.3</ele>
      </trkpt>
      <trkpt lat="44.08379" lon="5.64043">
        <ele>1181.7</ele>
      </trkpt>
      <trkpt lat="44.08402" lon="5.64044">
        <ele>1183.1</ele>
      </trkpt>
      <trkpt lat="44.08444" lon="5.64058">
        <ele>1183.9</ele>
      </trkpt>
      <trkpt lat="44.08494" lon="5.64064">
        <ele>1184.4</ele>
      </trkpt>
      <trkpt lat="44.08556" lon="5.64067">
        <ele>1184.8</ele>
      </trkpt>
      <trkpt lat="44.08605" lon="5.64083">
        <ele>1185</ele>
      </trkpt>
      <trkpt lat="44.08627" lon="5.64084">
        <ele>1185</ele>
      </trkpt>
      <trkpt lat="44.08684" lon="5.64104">
        <ele>1185.4</ele>
      </trkpt>
      <trkpt lat="44.08703" lon="5.64114">
        <ele>1185.7</ele>
      </trkpt>
      <trkpt lat="44.08776" lon="5.64162">
        <ele>1186</ele>
      </trkpt>
      <trkpt lat="44.08802" lon="5.64186">
        <ele>1185.7</ele>
      </trkpt>
      <trkpt lat="44.08827" lon="5.64214">
        <ele>1185.4</ele>
      </trkpt>
      <trkpt lat="44.08845" lon="5.64223">
        <ele>1184.6</ele>
      </trkpt>
      <trkpt lat="44.08916" lon="5.64237">
        <ele>1181.3</ele>
      </trkpt>
      <trkpt lat="44.08922" lon="5.6424">
        <ele>1181</ele>
      </trkpt>
      <trkpt lat="44.08936" lon="5.64246">
        <ele>1180.3</ele>
      </trkpt>
      <trkpt lat="44.0908" lon="5.64304">
        <ele>1171.2</ele>
      </trkpt>
      <trkpt lat="44.09101" lon="5.64319">
        <ele>1171.9</ele>
      </trkpt>
      <trkpt lat="44.09116" lon="5.64339">
        <ele>1173.8</ele>
      </trkpt>
      <trkpt lat="44.09137" lon="5.64338">
        <ele>1172.4</ele>
      </trkpt>
      <trkpt lat="44.09177" lon="5.6432">
        <ele>1168.1</ele>
      </trkpt>
      <trkpt lat="44.09216" lon="5.64321">
        <ele>1167.5</ele>
      </trkpt>
      <trkpt lat="44.09252" lon="5.64336">
        <ele>1168.2</ele>
      </trkpt>
      <trkpt lat="44.09292" lon="5.64358">
        <ele>1168.3</ele>
      </trkpt>
      <trkpt lat="44.09324" lon="5.64381">
        <ele>1169.2</ele>
      </trkpt>
      <trkpt lat="44.09406" lon="5.64396">
        <ele>1170.6</ele>
      </trkpt>
      <trkpt lat="44.09443" lon="5.64407">
        <ele>1171.3</ele>
      </trkpt>
      <trkpt lat="44.09464" lon="5.64418">
        <ele>1172.5</ele>
      </trkpt>
      <trkpt lat="44.0949" lon="5.6444">
        <ele>1176</ele>
      </trkpt>
      <trkpt lat="44.09518" lon="5.64454">
        <ele>1176.1</ele>
      </trkpt>
      <trkpt lat="44.0955" lon="5.64469">
        <ele>1175</ele>
      </trkpt>
      <trkpt lat="44.09577" lon="5.64492">
        <ele>1176.9</ele>
      </trkpt>
      <trkpt lat="44.09596" lon="5.64522">
        <ele>1179.6</ele>
      </trkpt>
      <trkpt lat="44.09617" lon="5.64537">
        <ele>1178.1</ele>
      </trkpt>
      <trkpt lat="44.09638" lon="5.64547">
        <ele>1175.4</ele>
      </trkpt>
      <trkpt lat="44.09667" lon="5.64575">
        <ele>1173</ele>
      </trkpt>
      <trkpt lat="44.09681" lon="5.64581">
        <ele>1173.2</ele>
      </trkpt>
      <trkpt lat="44.09697" lon="5.64583">
        <ele>1172.9</ele>
      </trkpt>
      <trkpt lat="44.09709" lon="5.64578">
        <ele>1172</ele>
      </trkpt>
      <trkpt lat="44.09714" lon="5.64577">
        <ele>1171.7</ele>
      </trkpt>
      <trkpt lat="44.09722" lon="5.64576">
        <ele>1171.4</ele>
      </trkpt>
      <trkpt lat="44.09745" lon="5.64577">
        <ele>1170.7</ele>
      </trkpt>
      <trkpt lat="44.0977" lon="5.64567">
        <ele>1171.9</ele>
      </trkpt>
      <trkpt lat="44.09777" lon="5.64566">
        <ele>1172.6</ele>
      </trkpt>
      <trkpt lat="44.09804" lon="5.64548">
        <ele>1174.7</ele>
      </trkpt>
      <trkpt lat="44.09894" lon="5.64503">
        <ele>1191.6</ele>
      </trkpt>
      <trkpt lat="44.09902" lon="5.64494">
        <ele>1193</ele>
      </trkpt>
      <trkpt lat="44.09919" lon="5.64468">
        <ele>1194.6</ele>
      </trkpt>
      <trkpt lat="44.09931" lon="5.6446">
        <ele>1195.6</ele>
      </trkpt>
      <trkpt lat="44.09949" lon="5.64452">
        <ele>1197.5</ele>
      </trkpt>
      <trkpt lat="44.10002" lon="5.64444">
        <ele>1204</ele>
      </trkpt>
      <trkpt lat="44.10062" lon="5.64412">
        <ele>1204.6</ele>
      </trkpt>
      <trkpt lat="44.1009" lon="5.64403">
        <ele>1205.4</ele>
      </trkpt>
      <trkpt lat="44.10104" lon="5.64394">
        <ele>1204.4</ele>
      </trkpt>
      <trkpt lat="44.1013" lon="5.64368">
        <ele>1202.7</ele>
      </trkpt>
      <trkpt lat="44.10148" lon="5.64344">
        <ele>1201.4</ele>
      </trkpt>
      <trkpt lat="44.10199" lon="5.64266">
        <ele>1197.8</ele>
      </trkpt>
      <trkpt lat="44.10218" lon="5.64246">
        <ele>1196.2</ele>
      </trkpt>
      <trkpt lat="44.10235" lon="5.64232">
        <ele>1194.1</ele>
      </trkpt>
      <trkpt lat="44.10263" lon="5.64217">
        <ele>1192.3</ele>
      </trkpt>
      <trkpt lat="44.1029" lon="5.64202">
        <ele>1192.3</ele>
      </trkpt>
      <trkpt lat="44.10319" lon="5.64177">
        <ele>1192.2</ele>
      </trkpt>
      <trkpt lat="44.10369" lon="5.64141">
        <ele>1192.4</ele>
      </trkpt>
      <trkpt lat="44.10376" lon="5.64134">
        <ele>1192.6</ele>
      </trkpt>
      <trkpt lat="44.10398" lon="5.64084">
        <ele>1192.7</ele>
      </trkpt>
      <trkpt lat="44.10405" lon="5.64076">
        <ele>1192.9</ele>
      </trkpt>
      <trkpt lat="44.10442" lon="5.64052">
        <ele>1195.9</ele>
      </trkpt>
      <trkpt lat="44.10457" lon="5.64035">
        <ele>1196.9</ele>
      </trkpt>
      <trkpt lat="44.10479" lon="5.63995">
        <ele>1197.6</ele>
      </trkpt>
      <trkpt lat="44.10492" lon="5.63977">
        <ele>1197.3</ele>
      </trkpt>
      <trkpt lat="44.10506" lon="5.63966">
        <ele>1197.7</ele>
      </trkpt>
      <trkpt lat="44.10522" lon="5.63962">
        <ele>1198.8</ele>
      </trkpt>
      <trkpt lat="44.1053" lon="5.63963">
        <ele>1199.6</ele>
      </trkpt>
      <trkpt lat="44.10545" lon="5.63964">
        <ele>1201</ele>
      </trkpt>
      <trkpt lat="44.10603" lon="5.63976">
        <ele>1206.1</ele>
      </trkpt>
      <trkpt lat="44.10626" lon="5.63973">
        <ele>1206.9</ele>
      </trkpt>
      <trkpt lat="44.10652" lon="5.63969">
        <ele>1207.9</ele>
      </trkpt>
      <trkpt lat="44.10663" lon="5.63968">
        <ele>1208.3</ele>
      </trkpt>
      <trkpt lat="44.10685" lon="5.63964">
        <ele>1208.7</ele>
      </trkpt>
      <trkpt lat="44.10713" lon="5.6395">
        <ele>1208.8</ele>
      </trkpt>
      <trkpt lat="44.10727" lon="5.63946">
        <ele>1209.1</ele>
      </trkpt>
      <trkpt lat="44.10771" lon="5.63943">
        <ele>1209.3</ele>
      </trkpt>
      <trkpt lat="44.10837" lon="5.63957">
        <ele>1208.7</ele>
      </trkpt>
      <trkpt lat="44.10885" lon="5.63953">
        <ele>1212.1</ele>
      </trkpt>
      <trkpt lat="44.10896" lon="5.63946">
        <ele>1213.3</ele>
      </trkpt>
      <trkpt lat="44.109" lon="5.63938">
        <ele>1214</ele>
      </trkpt>
      <trkpt lat="44.10899" lon="5.63883">
        <ele>1215.2</ele>
      </trkpt>
      <trkpt lat="44.10899" lon="5.63859">
        <ele>1215.3</ele>
      </trkpt>
      <trkpt lat="44.10902" lon="5.63839">
        <ele>1215.9</ele>
      </trkpt>
      <trkpt lat="44.10909" lon="5.63826">
        <ele>1216.5</ele>
      </trkpt>
      <trkpt lat="44.10921" lon="5.63817">
        <ele>1217.6</ele>
      </trkpt>
      <trkpt lat="44.10935" lon="5.63813">
        <ele>1219</ele>
      </trkpt>
      <trkpt lat="44.10953" lon="5.63816">
        <ele>1221.4</ele>
      </trkpt>
      <trkpt lat="44.10973" lon="5.63824">
        <ele>1224.3</ele>
      </trkpt>
      <trkpt lat="44.11011" lon="5.63808">
        <ele>1228.1</ele>
      </trkpt>
      <trkpt lat="44.11026" lon="5.63811">
        <ele>1230</ele>
      </trkpt>
      <trkpt lat="44.11069" lon="5.63802">
        <ele>1234.8</ele>
      </trkpt>
      <trkpt lat="44.11092" lon="5.638">
        <ele>1236.9</ele>
      </trkpt>
      <trkpt lat="44.11103" lon="5.63801">
        <ele>1237.6</ele>
      </trkpt>
      <trkpt lat="44.11125" lon="5.63809">
        <ele>1239.5</ele>
      </trkpt>
      <trkpt lat="44.11158" lon="5.63814">
        <ele>1242.1</ele>
      </trkpt>
      <trkpt lat="44.11194" lon="5.63835">
        <ele>1246.1</ele>
      </trkpt>
      <trkpt lat="44.11214" lon="5.63853">
        <ele>1248.8</ele>
      </trkpt>
      <trkpt lat="44.11232" lon="5.63864">
        <ele>1251.3</ele>
      </trkpt>
      <trkpt lat="44.11255" lon="5.63863">
        <ele>1253.7</ele>
      </trkpt>
      <trkpt lat="44.11261" lon="5.63862">
        <ele>1254.9</ele>
      </trkpt>
      <trkpt lat="44.11355" lon="5.63822">
        <ele>1271.3</ele>
      </trkpt>
      <trkpt lat="44.1136" lon="5.63823">
        <ele>1272.8</ele>
      </trkpt>
      <trkpt lat="44.11373" lon="5.63807">
        <ele>1274.4</ele>
      </trkpt>
      <trkpt lat="44.11381" lon="5.6379">
        <ele>1274.8</ele>
      </trkpt>
      <trkpt lat="44.11389" lon="5.63754">
        <ele>1273.5</ele>
      </trkpt>
      <trkpt lat="44.11402" lon="5.6373">
        <ele>1273</ele>
      </trkpt>
      <trkpt lat="44.11423" lon="5.63714">
        <ele>1274.4</ele>
      </trkpt>
      <trkpt lat="44.11465" lon="5.63697">
        <ele>1273.5</ele>
      </trkpt>
      <trkpt lat="44.11476" lon="5.63699">
        <ele>1274.9</ele>
      </trkpt>
      <trkpt lat="44.11504" lon="5.63711">
        <ele>1280.4</ele>
      </trkpt>
      <trkpt lat="44.11593" lon="5.63711">
        <ele>1281.2</ele>
      </trkpt>
      <trkpt lat="44.1163" lon="5.63723">
        <ele>1284.7</ele>
      </trkpt>
      <trkpt lat="44.1172" lon="5.63772">
        <ele>1293.4</ele>
      </trkpt>
      <trkpt lat="44.1178" lon="5.63799">
        <ele>1293.5</ele>
      </trkpt>
      <trkpt lat="44.11813" lon="5.63816">
        <ele>1294</ele>
      </trkpt>
      <trkpt lat="44.11833" lon="5.63835">
        <ele>1296.4</ele>
      </trkpt>
      <trkpt lat="44.11843" lon="5.63838">
        <ele>1298.5</ele>
      </trkpt>
      <trkpt lat="44.11857" lon="5.63828">
        <ele>1298.7</ele>
      </trkpt>
      <trkpt lat="44.11893" lon="5.6379">
        <ele>1296.4</ele>
      </trkpt>
      <trkpt lat="44.11913" lon="5.63781">
        <ele>1298</ele>
      </trkpt>
      <trkpt lat="44.11925" lon="5.63779">
        <ele>1299.2</ele>
      </trkpt>
      <trkpt lat="44.11967" lon="5.63784">
        <ele>1305.3</ele>
      </trkpt>
      <trkpt lat="44.12014" lon="5.63781">
        <ele>1309.2</ele>
      </trkpt>
      <trkpt lat="44.1206" lon="5.63759">
        <ele>1306.7</ele>
      </trkpt>
      <trkpt lat="44.12105" lon="5.63747">
        <ele>1307.2</ele>
      </trkpt>
      <trkpt lat="44.12134" lon="5.63742">
        <ele>1308.5</ele>
      </trkpt>
      <trkpt lat="44.12186" lon="5.63741">
        <ele>1312.1</ele>
      </trkpt>
      <trkpt lat="44.12216" lon="5.63735">
        <ele>1312.5</ele>
      </trkpt>
      <trkpt lat="44.12235" lon="5.63737">
        <ele>1314.1</ele>
      </trkpt>
      <trkpt lat="44.12275" lon="5.63763">
        <ele>1320.5</ele>
      </trkpt>
      <trkpt lat="44.12278" lon="5.63769">
        <ele>1321.6</ele>
      </trkpt>
      <trkpt lat="44.12278" lon="5.63781">
        <ele>1323.7</ele>
      </trkpt>
      <trkpt lat="44.12272" lon="5.6383">
        <ele>1332.2</ele>
      </trkpt>
      <trkpt lat="44.12273" lon="5.63842">
        <ele>1333.6</ele>
      </trkpt>
      <trkpt lat="44.1228" lon="5.63859">
        <ele>1335.3</ele>
      </trkpt>
      <trkpt lat="44.12297" lon="5.6389">
        <ele>1338.2</ele>
      </trkpt>
      <trkpt lat="44.12299" lon="5.63902">
        <ele>1339.3</ele>
      </trkpt>
      <trkpt lat="44.12299" lon="5.63913">
        <ele>1340.5</ele>
      </trkpt>
      <trkpt lat="44.12299" lon="5.6393">
        <ele>1341.3</ele>
      </trkpt>
      <trkpt lat="44.12308" lon="5.63931">
        <ele>1341.1</ele>
      </trkpt>
      <trkpt lat="44.12403" lon="5.63956">
        <ele>1335.6</ele>
      </trkpt>
      <trkpt lat="44.12423" lon="5.63958">
        <ele>1333.7</ele>
      </trkpt>
      <trkpt lat="44.12482" lon="5.63969">
        <ele>1325.7</ele>
      </trkpt>
      <trkpt lat="44.1251" lon="5.63979">
        <ele>1322.9</ele>
      </trkpt>
      <trkpt lat="44.12535" lon="5.63984">
        <ele>1322.4</ele>
      </trkpt>
      <trkpt lat="44.12538" lon="5.63936">
        <ele>1320.3</ele>
      </trkpt>
      <trkpt lat="44.12536" lon="5.639">
        <ele>1317.7</ele>
      </trkpt>
      <trkpt lat="44.12537" lon="5.63891">
        <ele>1316.5</ele>
      </trkpt>
      <trkpt lat="44.12541" lon="5.63878">
        <ele>1314.4</ele>
      </trkpt>
      <trkpt lat="44.12546" lon="5.63875">
        <ele>1313.4</ele>
      </trkpt>
      <trkpt lat="44.12563" lon="5.63871">
        <ele>1310.7</ele>
      </trkpt>
      <trkpt lat="44.12572" lon="5.63866">
        <ele>1308.8</ele>
      </trkpt>
      <trkpt lat="44.12589" lon="5.63849">
        <ele>1305.6</ele>
      </trkpt>
      <trkpt lat="44.126" lon="5.63846">
        <ele>1306.1</ele>
      </trkpt>
      <trkpt lat="44.12616" lon="5.6381">
        <ele>1301.7</ele>
      </trkpt>
      <trkpt lat="44.1262" lon="5.63785">
        <ele>1297.6</ele>
      </trkpt>
      <trkpt lat="44.1263" lon="5.63696">
        <ele>1280.8</ele>
      </trkpt>
      <trkpt lat="44.1263" lon="5.63622">
        <ele>1266.6</ele>
      </trkpt>
      <trkpt lat="44.12639" lon="5.63579">
        <ele>1258.7</ele>
      </trkpt>
      <trkpt lat="44.12639" lon="5.63564">
        <ele>1256.7</ele>
      </trkpt>
      <trkpt lat="44.12633" lon="5.63552">
        <ele>1255</ele>
      </trkpt>
      <trkpt lat="44.12629" lon="5.63522">
        <ele>1250.8</ele>
      </trkpt>
      <trkpt lat="44.12626" lon="5.63477">
        <ele>1249</ele>
      </trkpt>
      <trkpt lat="44.12622" lon="5.63457">
        <ele>1250.3</ele>
      </trkpt>
      <trkpt lat="44.12623" lon="5.6344">
        <ele>1251.4</ele>
      </trkpt>
      <trkpt lat="44.12633" lon="5.63363">
        <ele>1259.5</ele>
      </trkpt>
      <trkpt lat="44.12635" lon="5.63333">
        <ele>1262.9</ele>
      </trkpt>
      <trkpt lat="44.12649" lon="5.63289">
        <ele>1265.8</ele>
      </trkpt>
      <trkpt lat="44.12654" lon="5.63262">
        <ele>1267.5</ele>
      </trkpt>
      <trkpt lat="44.12663" lon="5.63234">
        <ele>1269</ele>
      </trkpt>
      <trkpt lat="44.12704" lon="5.63173">
        <ele>1274.2</ele>
      </trkpt>
      <trkpt lat="44.12739" lon="5.63143">
        <ele>1277.2</ele>
      </trkpt>
      <trkpt lat="44.12762" lon="5.63126">
        <ele>1279.8</ele>
      </trkpt>
      <trkpt lat="44.12783" lon="5.63124">
        <ele>1281.7</ele>
      </trkpt>
      <trkpt lat="44.12821" lon="5.63109">
        <ele>1285</ele>
      </trkpt>
      <trkpt lat="44.12835" lon="5.63099">
        <ele>1286</ele>
      </trkpt>
      <trkpt lat="44.12838" lon="5.63081">
        <ele>1286.9</ele>
      </trkpt>
      <trkpt lat="44.12838" lon="5.63027">
        <ele>1297.9</ele>
      </trkpt>
      <trkpt lat="44.12846" lon="5.62989">
        <ele>1306</ele>
      </trkpt>
      <trkpt lat="44.12846" lon="5.62964">
        <ele>1310.7</ele>
      </trkpt>
      <trkpt lat="44.12852" lon="5.6294">
        <ele>1315.5</ele>
      </trkpt>
      <trkpt lat="44.12846" lon="5.62872">
        <ele>1324.7</ele>
      </trkpt>
      <trkpt lat="44.12836" lon="5.62844">
        <ele>1327.8</ele>
      </trkpt>
      <trkpt lat="44.12888" lon="5.62832">
        <ele>1329.6</ele>
      </trkpt>
      <trkpt lat="44.12905" lon="5.62816">
        <ele>1329</ele>
      </trkpt>
      <trkpt lat="44.12923" lon="5.62812">
        <ele>1329</ele>
      </trkpt>
      <trkpt lat="44.1295" lon="5.62818">
        <ele>1329.5</ele>
      </trkpt>
      <trkpt lat="44.12981" lon="5.62803">
        <ele>1329.4</ele>
      </trkpt>
      <trkpt lat="44.13034" lon="5.62797">
        <ele>1328.6</ele>
      </trkpt>
      <trkpt lat="44.13081" lon="5.62783">
        <ele>1326.9</ele>
      </trkpt>
      <trkpt lat="44.13103" lon="5.62775">
        <ele>1325.4</ele>
      </trkpt>
      <trkpt lat="44.13115" lon="5.62765">
        <ele>1324.6</ele>
      </trkpt>
      <trkpt lat="44.13153" lon="5.62754">
        <ele>1322.6</ele>
      </trkpt>
      <trkpt lat="44.13187" lon="5.62753">
        <ele>1321.9</ele>
      </trkpt>
      <trkpt lat="44.13204" lon="5.62753">
        <ele>1321.9</ele>
      </trkpt>
      <trkpt lat="44.13262" lon="5.6274">
        <ele>1321</ele>
      </trkpt>
      <trkpt lat="44.13356" lon="5.62738">
        <ele>1318.3</ele>
      </trkpt>
      <trkpt lat="44.13377" lon="5.62725">
        <ele>1317.5</ele>
      </trkpt>
      <trkpt lat="44.134" lon="5.62698">
        <ele>1315.9</ele>
      </trkpt>
      <trkpt lat="44.13427" lon="5.62649">
        <ele>1312.9</ele>
      </trkpt>
      <trkpt lat="44.13477" lon="5.62584">
        <ele>1308.2</ele>
      </trkpt>
      <trkpt lat="44.13531" lon="5.62524">
        <ele>1302.3</ele>
      </trkpt>
      <trkpt lat="44.13566" lon="5.62471">
        <ele>1296.7</ele>
      </trkpt>
      <trkpt lat="44.13597" lon="5.6243">
        <ele>1294.6</ele>
      </trkpt>
      <trkpt lat="44.13609" lon="5.62399">
        <ele>1294.9</ele>
      </trkpt>
      <trkpt lat="44.13628" lon="5.62303">
        <ele>1296.1</ele>
      </trkpt>
      <trkpt lat="44.13649" lon="5.62238">
        <ele>1296.7</ele>
      </trkpt>
      <trkpt lat="44.13669" lon="5.62205">
        <ele>1297.6</ele>
      </trkpt>
      <trkpt lat="44.13694" lon="5.62187">
        <ele>1299.1</ele>
      </trkpt>
      <trkpt lat="44.13706" lon="5.6216">
        <ele>1299.5</ele>
      </trkpt>
      <trkpt lat="44.13742" lon="5.62111">
        <ele>1302.6</ele>
      </trkpt>
      <trkpt lat="44.13763" lon="5.62088">
        <ele>1303.7</ele>
      </trkpt>
      <trkpt lat="44.13778" lon="5.6209">
        <ele>1304.5</ele>
      </trkpt>
      <trkpt lat="44.13805" lon="5.62077">
        <ele>1305.4</ele>
      </trkpt>
      <trkpt lat="44.13857" lon="5.62057">
        <ele>1306.4</ele>
      </trkpt>
      <trkpt lat="44.13914" lon="5.62033">
        <ele>1306.3</ele>
      </trkpt>
      <trkpt lat="44.13985" lon="5.62007">
        <ele>1303.2</ele>
      </trkpt>
      <trkpt lat="44.14031" lon="5.61997">
        <ele>1301.2</ele>
      </trkpt>
      <trkpt lat="44.14073" lon="5.62">
        <ele>1301.1</ele>
      </trkpt>
      <trkpt lat="44.14115" lon="5.62019">
        <ele>1302</ele>
      </trkpt>
      <trkpt lat="44.14162" lon="5.62035">
        <ele>1301.1</ele>
      </trkpt>
      <trkpt lat="44.14221" lon="5.6206">
        <ele>1300.7</ele>
      </trkpt>
      <trkpt lat="44.14263" lon="5.62075">
        <ele>1300.3</ele>
      </trkpt>
      <trkpt lat="44.14295" lon="5.62084">
        <ele>1300</ele>
      </trkpt>
      <trkpt lat="44.14338" lon="5.62082">
        <ele>1298.6</ele>
      </trkpt>
      <trkpt lat="44.14347" lon="5.6207">
        <ele>1298.3</ele>
      </trkpt>
      <trkpt lat="44.14357" lon="5.62035">
        <ele>1294.9</ele>
      </trkpt>
      <trkpt lat="44.14378" lon="5.61977">
        <ele>1288.8</ele>
      </trkpt>
      <trkpt lat="44.1441" lon="5.61923">
        <ele>1281.8</ele>
      </trkpt>
      <trkpt lat="44.14501" lon="5.61778">
        <ele>1272.2</ele>
      </trkpt>
      <trkpt lat="44.14527" lon="5.61746">
        <ele>1269.5</ele>
      </trkpt>
      <trkpt lat="44.14562" lon="5.6172">
        <ele>1268.5</ele>
      </trkpt>
      <trkpt lat="44.14603" lon="5.61703">
        <ele>1266.6</ele>
      </trkpt>
      <trkpt lat="44.14638" lon="5.61697">
        <ele>1263.8</ele>
      </trkpt>
      <trkpt lat="44.14682" lon="5.61702">
        <ele>1262.4</ele>
      </trkpt>
      <trkpt lat="44.14716" lon="5.61716">
        <ele>1262.2</ele>
      </trkpt>
      <trkpt lat="44.14727" lon="5.61726">
        <ele>1262.8</ele>
      </trkpt>
      <trkpt lat="44.14771" lon="5.61793">
        <ele>1271.6</ele>
      </trkpt>
      <trkpt lat="44.1477" lon="5.61731">
        <ele>1263</ele>
      </trkpt>
      <trkpt lat="44.14796" lon="5.61667">
        <ele>1256.5</ele>
      </trkpt>
      <trkpt lat="44.14818" lon="5.61633">
        <ele>1253.2</ele>
      </trkpt>
      <trkpt lat="44.14879" lon="5.61595">
        <ele>1249.9</ele>
      </trkpt>
      <trkpt lat="44.14979" lon="5.61523">
        <ele>1241.3</ele>
      </trkpt>
      <trkpt lat="44.15013" lon="5.61488">
        <ele>1239.5</ele>
      </trkpt>
      <trkpt lat="44.15051" lon="5.61402">
        <ele>1238</ele>
      </trkpt>
      <trkpt lat="44.15106" lon="5.61308">
        <ele>1238.3</ele>
      </trkpt>
      <trkpt lat="44.15168" lon="5.61208">
        <ele>1240.4</ele>
      </trkpt>
      <trkpt lat="44.15193" lon="5.61161">
        <ele>1238.2</ele>
      </trkpt>
      <trkpt lat="44.15197" lon="5.6115">
        <ele>1238.6</ele>
      </trkpt>
      <trkpt lat="44.15205" lon="5.61141">
        <ele>1239.1</ele>
      </trkpt>
      <trkpt lat="44.1522" lon="5.6114">
        <ele>1239.6</ele>
      </trkpt>
      <trkpt lat="44.15222" lon="5.6114">
        <ele>1239.7</ele>
      </trkpt>
      <trkpt lat="44.15234" lon="5.61139">
        <ele>1240.1</ele>
      </trkpt>
      <trkpt lat="44.15249" lon="5.61137">
        <ele>1240.8</ele>
      </trkpt>
      <trkpt lat="44.15272" lon="5.61109">
        <ele>1235.1</ele>
      </trkpt>
      <trkpt lat="44.15312" lon="5.61069">
        <ele>1231.2</ele>
      </trkpt>
      <trkpt lat="44.15364" lon="5.61028">
        <ele>1226.3</ele>
      </trkpt>
      <trkpt lat="44.15405" lon="5.6099">
        <ele>1222.4</ele>
      </trkpt>
      <trkpt lat="44.1543" lon="5.60964">
        <ele>1215.9</ele>
      </trkpt>
      <trkpt lat="44.15447" lon="5.60924">
        <ele>1214</ele>
      </trkpt>
      <trkpt lat="44.15452" lon="5.60918">
        <ele>1211.8</ele>
      </trkpt>
      <trkpt lat="44.15456" lon="5.60919">
        <ele>1208.7</ele>
      </trkpt>
      <trkpt lat="44.15458" lon="5.60923">
        <ele>1206.3</ele>
      </trkpt>
      <trkpt lat="44.15457" lon="5.6093">
        <ele>1205.4</ele>
      </trkpt>
      <trkpt lat="44.15425" lon="5.61001">
        <ele>1209.3</ele>
      </trkpt>
      <trkpt lat="44.15337" lon="5.61128">
        <ele>1202.4</ele>
      </trkpt>
      <trkpt lat="44.15324" lon="5.61154">
        <ele>1199.7</ele>
      </trkpt>
      <trkpt lat="44.15322" lon="5.61168">
        <ele>1196.3</ele>
      </trkpt>
      <trkpt lat="44.15319" lon="5.6121">
        <ele>1191.2</ele>
      </trkpt>
      <trkpt lat="44.15315" lon="5.61238">
        <ele>1189.5</ele>
      </trkpt>
      <trkpt lat="44.15309" lon="5.61257">
        <ele>1190.4</ele>
      </trkpt>
      <trkpt lat="44.15307" lon="5.61271">
        <ele>1188.4</ele>
      </trkpt>
      <trkpt lat="44.1531" lon="5.61273">
        <ele>1185.6</ele>
      </trkpt>
      <trkpt lat="44.15316" lon="5.61271">
        <ele>1181.4</ele>
      </trkpt>
      <trkpt lat="44.15321" lon="5.61257">
        <ele>1181.3</ele>
      </trkpt>
      <trkpt lat="44.15342" lon="5.61185">
        <ele>1181.4</ele>
      </trkpt>
      <trkpt lat="44.15354" lon="5.61162">
        <ele>1180.1</ele>
      </trkpt>
      <trkpt lat="44.15486" lon="5.61049">
        <ele>1153.5</ele>
      </trkpt>
      <trkpt lat="44.15501" lon="5.61026">
        <ele>1152.6</ele>
      </trkpt>
      <trkpt lat="44.15507" lon="5.61023">
        <ele>1149.7</ele>
      </trkpt>
      <trkpt lat="44.1551" lon="5.61027">
        <ele>1146.5</ele>
      </trkpt>
      <trkpt lat="44.15509" lon="5.61034">
        <ele>1144.9</ele>
      </trkpt>
      <trkpt lat="44.15453" lon="5.61123">
        <ele>1142.3</ele>
      </trkpt>
      <trkpt lat="44.15402" lon="5.61196">
        <ele>1142.7</ele>
      </trkpt>
      <trkpt lat="44.15392" lon="5.61216">
        <ele>1143.3</ele>
      </trkpt>
      <trkpt lat="44.1539" lon="5.61227">
        <ele>1141.5</ele>
      </trkpt>
      <trkpt lat="44.15395" lon="5.61231">
        <ele>1137.2</ele>
      </trkpt>
      <trkpt lat="44.15399" lon="5.61229">
        <ele>1135.1</ele>
      </trkpt>
      <trkpt lat="44.15408" lon="5.61215">
        <ele>1133.4</ele>
      </trkpt>
      <trkpt lat="44.15434" lon="5.61188">
        <ele>1127.6</ele>
      </trkpt>
      <trkpt lat="44.15478" lon="5.61147">
        <ele>1119.9</ele>
      </trkpt>
      <trkpt lat="44.15509" lon="5.61129">
        <ele>1111.8</ele>
      </trkpt>
      <trkpt lat="44.15536" lon="5.61111">
        <ele>1105.5</ele>
      </trkpt>
      <trkpt lat="44.15555" lon="5.61082">
        <ele>1105.3</ele>
      </trkpt>
      <trkpt lat="44.15578" lon="5.61043">
        <ele>1100</ele>
      </trkpt>
      <trkpt lat="44.15594" lon="5.61003">
        <ele>1097.1</ele>
      </trkpt>
      <trkpt lat="44.15599" lon="5.60978">
        <ele>1095.6</ele>
      </trkpt>
      <trkpt lat="44.15599" lon="5.60954">
        <ele>1096.6</ele>
      </trkpt>
      <trkpt lat="44.15596" lon="5.60934">
        <ele>1099.3</ele>
      </trkpt>
      <trkpt lat="44.15604" lon="5.60893">
        <ele>1096.7</ele>
      </trkpt>
      <trkpt lat="44.15626" lon="5.6082">
        <ele>1088.3</ele>
      </trkpt>
      <trkpt lat="44.15631" lon="5.60767">
        <ele>1088.9</ele>
      </trkpt>
      <trkpt lat="44.15638" lon="5.6075">
        <ele>1086.2</ele>
      </trkpt>
      <trkpt lat="44.15654" lon="5.60731">
        <ele>1079.8</ele>
      </trkpt>
      <trkpt lat="44.15666" lon="5.60709">
        <ele>1076.3</ele>
      </trkpt>
      <trkpt lat="44.15678" lon="5.60671">
        <ele>1075.1</ele>
      </trkpt>
      <trkpt lat="44.15694" lon="5.60635">
        <ele>1070.3</ele>
      </trkpt>
      <trkpt lat="44.15706" lon="5.60602">
        <ele>1066.9</ele>
      </trkpt>
      <trkpt lat="44.15712" lon="5.60561">
        <ele>1065.9</ele>
      </trkpt>
      <trkpt lat="44.15715" lon="5.60551">
        <ele>1064.4</ele>
      </trkpt>
      <trkpt lat="44.1572" lon="5.60549">
        <ele>1061.5</ele>
      </trkpt>
      <trkpt lat="44.15723" lon="5.60552">
        <ele>1059.6</ele>
      </trkpt>
      <trkpt lat="44.15723" lon="5.60564">
        <ele>1059.3</ele>
      </trkpt>
      <trkpt lat="44.15717" lon="5.60632">
        <ele>1057.6</ele>
      </trkpt>
      <trkpt lat="44.15701" lon="5.6076">
        <ele>1052.3</ele>
      </trkpt>
      <trkpt lat="44.15707" lon="5.60794">
        <ele>1048</ele>
      </trkpt>
      <trkpt lat="44.15725" lon="5.60815">
        <ele>1039.5</ele>
      </trkpt>
      <trkpt lat="44.15748" lon="5.60831">
        <ele>1029.8</ele>
      </trkpt>
      <trkpt lat="44.1576" lon="5.60851">
        <ele>1024.8</ele>
      </trkpt>
      <trkpt lat="44.1577" lon="5.60871">
        <ele>1020.9</ele>
      </trkpt>
      <trkpt lat="44.15788" lon="5.60892">
        <ele>1016.1</ele>
      </trkpt>
      <trkpt lat="44.15798" lon="5.60898">
        <ele>1014</ele>
      </trkpt>
      <trkpt lat="44.15808" lon="5.60896">
        <ele>1012.2</ele>
      </trkpt>
      <trkpt lat="44.15814" lon="5.60888">
        <ele>1011.1</ele>
      </trkpt>
      <trkpt lat="44.15812" lon="5.60872">
        <ele>1011.6</ele>
      </trkpt>
      <trkpt lat="44.15796" lon="5.60845">
        <ele>1016</ele>
      </trkpt>
      <trkpt lat="44.15792" lon="5.60824">
        <ele>1016.8</ele>
      </trkpt>
      <trkpt lat="44.15791" lon="5.60811">
        <ele>1016.4</ele>
      </trkpt>
      <trkpt lat="44.15779" lon="5.60799">
        <ele>1019.4</ele>
      </trkpt>
      <trkpt lat="44.15771" lon="5.60788">
        <ele>1021.6</ele>
      </trkpt>
      <trkpt lat="44.1577" lon="5.60768">
        <ele>1021.2</ele>
      </trkpt>
      <trkpt lat="44.15779" lon="5.60737">
        <ele>1018.1</ele>
      </trkpt>
      <trkpt lat="44.15802" lon="5.60669">
        <ele>1012.8</ele>
      </trkpt>
      <trkpt lat="44.15814" lon="5.6065">
        <ele>1009</ele>
      </trkpt>
      <trkpt lat="44.15831" lon="5.60645">
        <ele>1001.9</ele>
      </trkpt>
      <trkpt lat="44.15855" lon="5.60648">
        <ele>994.1</ele>
      </trkpt>
      <trkpt lat="44.15897" lon="5.60665">
        <ele>980.7</ele>
      </trkpt>
      <trkpt lat="44.15911" lon="5.60658">
        <ele>977</ele>
      </trkpt>
      <trkpt lat="44.15922" lon="5.60648">
        <ele>974.1</ele>
      </trkpt>
      <trkpt lat="44.15923" lon="5.60635">
        <ele>974.3</ele>
      </trkpt>
      <trkpt lat="44.15902" lon="5.60604">
        <ele>982</ele>
      </trkpt>
      <trkpt lat="44.15897" lon="5.60592">
        <ele>984.2</ele>
      </trkpt>
      <trkpt lat="44.15896" lon="5.60585">
        <ele>984.9</ele>
      </trkpt>
      <trkpt lat="44.15901" lon="5.6058">
        <ele>983.6</ele>
      </trkpt>
      <trkpt lat="44.15908" lon="5.60581">
        <ele>981.2</ele>
      </trkpt>
      <trkpt lat="44.15921" lon="5.60593">
        <ele>976.5</ele>
      </trkpt>
      <trkpt lat="44.1595" lon="5.60635">
        <ele>966.6</ele>
      </trkpt>
      <trkpt lat="44.15951" lon="5.60644">
        <ele>965.9</ele>
      </trkpt>
      <trkpt lat="44.15946" lon="5.60658">
        <ele>966.6</ele>
      </trkpt>
      <trkpt lat="44.15933" lon="5.60682">
        <ele>970.4</ele>
      </trkpt>
      <trkpt lat="44.15912" lon="5.60712">
        <ele>975.8</ele>
      </trkpt>
      <trkpt lat="44.15911" lon="5.60724">
        <ele>975.9</ele>
      </trkpt>
      <trkpt lat="44.15913" lon="5.60733">
        <ele>975.2</ele>
      </trkpt>
      <trkpt lat="44.1592" lon="5.60738">
        <ele>973.6</ele>
      </trkpt>
      <trkpt lat="44.15933" lon="5.60741">
        <ele>971.7</ele>
      </trkpt>
      <trkpt lat="44.15971" lon="5.60744">
        <ele>966.2</ele>
      </trkpt>
      <trkpt lat="44.16075" lon="5.60725">
        <ele>949.1</ele>
      </trkpt>
      <trkpt lat="44.16116" lon="5.60731">
        <ele>942.8</ele>
      </trkpt>
      <trkpt lat="44.16149" lon="5.60751">
        <ele>940.1</ele>
      </trkpt>
      <trkpt lat="44.1618" lon="5.60762">
        <ele>935.9</ele>
      </trkpt>
      <trkpt lat="44.16226" lon="5.60766">
        <ele>926.2</ele>
      </trkpt>
      <trkpt lat="44.16277" lon="5.60774">
        <ele>916.3</ele>
      </trkpt>
      <trkpt lat="44.16309" lon="5.60776">
        <ele>909.8</ele>
      </trkpt>
      <trkpt lat="44.16351" lon="5.608">
        <ele>904.6</ele>
      </trkpt>
      <trkpt lat="44.16379" lon="5.60811">
        <ele>899.4</ele>
      </trkpt>
      <trkpt lat="44.16395" lon="5.60813">
        <ele>895.6</ele>
      </trkpt>
      <trkpt lat="44.16407" lon="5.60818">
        <ele>893.3</ele>
      </trkpt>
      <trkpt lat="44.16414" lon="5.60824">
        <ele>892.3</ele>
      </trkpt>
      <trkpt lat="44.16416" lon="5.60842">
        <ele>892.3</ele>
      </trkpt>
      <trkpt lat="44.16412" lon="5.60856">
        <ele>892.1</ele>
      </trkpt>
      <trkpt lat="44.16405" lon="5.60864">
        <ele>893.2</ele>
      </trkpt>
      <trkpt lat="44.16402" lon="5.60873">
        <ele>893.2</ele>
      </trkpt>
      <trkpt lat="44.16404" lon="5.60879">
        <ele>892.1</ele>
      </trkpt>
      <trkpt lat="44.1641" lon="5.6088">
        <ele>890.4</ele>
      </trkpt>
      <trkpt lat="44.16421" lon="5.60878">
        <ele>887.8</ele>
      </trkpt>
      <trkpt lat="44.16437" lon="5.60866">
        <ele>885.5</ele>
      </trkpt>
      <trkpt lat="44.16444" lon="5.6085">
        <ele>885.2</ele>
      </trkpt>
      <trkpt lat="44.16447" lon="5.60832">
        <ele>885.6</ele>
      </trkpt>
      <trkpt lat="44.16446" lon="5.60818">
        <ele>884.5</ele>
      </trkpt>
      <trkpt lat="44.16437" lon="5.60809">
        <ele>885.4</ele>
      </trkpt>
      <trkpt lat="44.16421" lon="5.608">
        <ele>887.4</ele>
      </trkpt>
      <trkpt lat="44.16379" lon="5.60768">
        <ele>892.5</ele>
      </trkpt>
      <trkpt lat="44.16366" lon="5.60756">
        <ele>893.5</ele>
      </trkpt>
      <trkpt lat="44.16358" lon="5.6074">
        <ele>893.9</ele>
      </trkpt>
      <trkpt lat="44.16354" lon="5.6073">
        <ele>894.1</ele>
      </trkpt>
      <trkpt lat="44.16354" lon="5.60722">
        <ele>893.7</ele>
      </trkpt>
      <trkpt lat="44.16358" lon="5.60715">
        <ele>892.6</ele>
      </trkpt>
      <trkpt lat="44.16462" lon="5.60707">
        <ele>878.5</ele>
      </trkpt>
      <trkpt lat="44.16469" lon="5.60698">
        <ele>878.6</ele>
      </trkpt>
      <trkpt lat="44.16487" lon="5.60727">
        <ele>875.1</ele>
      </trkpt>
      <trkpt lat="44.16495" lon="5.60725">
        <ele>874.6</ele>
      </trkpt>
      <trkpt lat="44.16501" lon="5.60727">
        <ele>873.8</ele>
      </trkpt>
      <trkpt lat="44.16495" lon="5.60725">
        <ele>874.6</ele>
      </trkpt>
      <trkpt lat="44.16487" lon="5.60727">
        <ele>875.1</ele>
      </trkpt>
      <trkpt lat="44.16483" lon="5.60745">
        <ele>874.2</ele>
      </trkpt>
      <trkpt lat="44.1648" lon="5.60756">
        <ele>874.4</ele>
      </trkpt>
      <trkpt lat="44.16482" lon="5.60777">
        <ele>875</ele>
      </trkpt>
      <trkpt lat="44.16499" lon="5.60846">
        <ele>872.8</ele>
      </trkpt>
      <trkpt lat="44.16503" lon="5.60882">
        <ele>870.9</ele>
      </trkpt>
      <trkpt lat="44.16502" lon="5.60909">
        <ele>870</ele>
      </trkpt>
      <trkpt lat="44.16499" lon="5.60929">
        <ele>868.8</ele>
      </trkpt>
      <trkpt lat="44.16489" lon="5.6096">
        <ele>867.2</ele>
      </trkpt>
      <trkpt lat="44.16479" lon="5.60983">
        <ele>866.4</ele>
      </trkpt>
      <trkpt lat="44.16477" lon="5.61003">
        <ele>864.6</ele>
      </trkpt>
      <trkpt lat="44.16488" lon="5.61087">
        <ele>856.9</ele>
      </trkpt>
      <trkpt lat="44.16486" lon="5.61134">
        <ele>855.6</ele>
      </trkpt>
      <trkpt lat="44.16487" lon="5.61163">
        <ele>854.5</ele>
      </trkpt>
      <trkpt lat="44.16509" lon="5.61233">
        <ele>850.7</ele>
      </trkpt>
      <trkpt lat="44.16523" lon="5.61303">
        <ele>847.1</ele>
      </trkpt>
      <trkpt lat="44.16526" lon="5.61339">
        <ele>845.6</ele>
      </trkpt>
      <trkpt lat="44.16528" lon="5.61456">
        <ele>842.4</ele>
      </trkpt>
      <trkpt lat="44.1653" lon="5.61467">
        <ele>841.9</ele>
      </trkpt>
      <trkpt lat="44.1654" lon="5.61475">
        <ele>841</ele>
      </trkpt>
      <trkpt lat="44.16545" lon="5.61484">
        <ele>840.4</ele>
      </trkpt>
      <trkpt lat="44.16568" lon="5.61559">
        <ele>836.9</ele>
      </trkpt>
      <trkpt lat="44.16588" lon="5.61597">
        <ele>834.5</ele>
      </trkpt>
      <trkpt lat="44.16595" lon="5.61636">
        <ele>833.6</ele>
      </trkpt>
      <trkpt lat="44.16597" lon="5.6168">
        <ele>832.5</ele>
      </trkpt>
      <trkpt lat="44.16607" lon="5.6177">
        <ele>827.9</ele>
      </trkpt>
      <trkpt lat="44.16609" lon="5.61817">
        <ele>826</ele>
      </trkpt>
      <trkpt lat="44.1661" lon="5.61842">
        <ele>825.1</ele>
      </trkpt>
      <trkpt lat="44.16607" lon="5.61872">
        <ele>824.3</ele>
      </trkpt>
      <trkpt lat="44.166" lon="5.61918">
        <ele>823.2</ele>
      </trkpt>
      <trkpt lat="44.16605" lon="5.61978">
        <ele>823.3</ele>
      </trkpt>
      <trkpt lat="44.16605" lon="5.62002">
        <ele>823.4</ele>
      </trkpt>
      <trkpt lat="44.16601" lon="5.62042">
        <ele>822.6</ele>
      </trkpt>
      <trkpt lat="44.16612" lon="5.62156">
        <ele>817</ele>
      </trkpt>
      <trkpt lat="44.16614" lon="5.62164">
        <ele>816.4</ele>
      </trkpt>
      <trkpt lat="44.16633" lon="5.62183">
        <ele>815.2</ele>
      </trkpt>
      <trkpt lat="44.16649" lon="5.62197">
        <ele>814.3</ele>
      </trkpt>
      <trkpt lat="44.16668" lon="5.62203">
        <ele>813.7</ele>
      </trkpt>
      <trkpt lat="44.16684" lon="5.62203">
        <ele>813.2</ele>
      </trkpt>
      <trkpt lat="44.16697" lon="5.62195">
        <ele>813.1</ele>
      </trkpt>
      <trkpt lat="44.16718" lon="5.62191">
        <ele>812.7</ele>
      </trkpt>
      <trkpt lat="44.16753" lon="5.62189">
        <ele>811.8</ele>
      </trkpt>
      <trkpt lat="44.16763" lon="5.62183">
        <ele>811.8</ele>
      </trkpt>
      <trkpt lat="44.16775" lon="5.62172">
        <ele>811.9</ele>
      </trkpt>
      <trkpt lat="44.1679" lon="5.62166">
        <ele>811.6</ele>
      </trkpt>
      <trkpt lat="44.16811" lon="5.62166">
        <ele>810.8</ele>
      </trkpt>
      <trkpt lat="44.1683" lon="5.62156">
        <ele>810.3</ele>
      </trkpt>
      <trkpt lat="44.16856" lon="5.62124">
        <ele>809.6</ele>
      </trkpt>
      <trkpt lat="44.16873" lon="5.62119">
        <ele>808.8</ele>
      </trkpt>
      <trkpt lat="44.16889" lon="5.62109">
        <ele>808</ele>
      </trkpt>
      <trkpt lat="44.16903" lon="5.62095">
        <ele>807</ele>
      </trkpt>
      <trkpt lat="44.16919" lon="5.6207">
        <ele>806.1</ele>
      </trkpt>
      <trkpt lat="44.16933" lon="5.62058">
        <ele>806.1</ele>
      </trkpt>
      <trkpt lat="44.16949" lon="5.62056">
        <ele>805.9</ele>
      </trkpt>
      <trkpt lat="44.16962" lon="5.62055">
        <ele>805.8</ele>
      </trkpt>
      <trkpt lat="44.16958" lon="5.62068">
        <ele>805.7</ele>
      </trkpt>
      <trkpt lat="44.16955" lon="5.62082">
        <ele>805.6</ele>
      </trkpt>
      <trkpt lat="44.16959" lon="5.62146">
        <ele>807</ele>
      </trkpt>
      <trkpt lat="44.16933" lon="5.62248">
        <ele>808.4</ele>
      </trkpt>
      <trkpt lat="44.16922" lon="5.623">
        <ele>807.7</ele>
      </trkpt>
      <trkpt lat="44.16917" lon="5.62345">
        <ele>806.6</ele>
      </trkpt>
      <trkpt lat="44.16918" lon="5.62366">
        <ele>805.9</ele>
      </trkpt>
      <trkpt lat="44.16926" lon="5.62427">
        <ele>804.3</ele>
      </trkpt>
      <trkpt lat="44.16925" lon="5.6247">
        <ele>802</ele>
      </trkpt>
      <trkpt lat="44.16915" lon="5.62514">
        <ele>799.5</ele>
      </trkpt>
      <trkpt lat="44.16899" lon="5.62546">
        <ele>798.4</ele>
      </trkpt>
      <trkpt lat="44.16879" lon="5.62572">
        <ele>797.7</ele>
      </trkpt>
      <trkpt lat="44.16856" lon="5.62589">
        <ele>797.7</ele>
      </trkpt>
      <trkpt lat="44.16782" lon="5.62632">
        <ele>804.2</ele>
      </trkpt>
      <trkpt lat="44.16782" lon="5.62661">
        <ele>805</ele>
      </trkpt>
      <trkpt lat="44.16778" lon="5.62687">
        <ele>805.6</ele>
      </trkpt>
      <trkpt lat="44.16769" lon="5.62718">
        <ele>806.4</ele>
      </trkpt>
      <trkpt lat="44.16762" lon="5.62737">
        <ele>807</ele>
      </trkpt>
      <trkpt lat="44.16758" lon="5.6277">
        <ele>807.3</ele>
      </trkpt>
      <trkpt lat="44.16753" lon="5.62794">
        <ele>807.7</ele>
      </trkpt>
      <trkpt lat="44.16745" lon="5.6281">
        <ele>808.5</ele>
      </trkpt>
      <trkpt lat="44.16733" lon="5.6282">
        <ele>809.6</ele>
      </trkpt>
      <trkpt lat="44.16719" lon="5.62837">
        <ele>810.9</ele>
      </trkpt>
      <trkpt lat="44.1671" lon="5.62857">
        <ele>811.3</ele>
      </trkpt>
      <trkpt lat="44.16703" lon="5.62897">
        <ele>810.9</ele>
      </trkpt>
      <trkpt lat="44.16698" lon="5.62944">
        <ele>810.1</ele>
      </trkpt>
      <trkpt lat="44.16678" lon="5.62997">
        <ele>810.3</ele>
      </trkpt>
      <trkpt lat="44.16674" lon="5.6303">
        <ele>808.7</ele>
      </trkpt>
      <trkpt lat="44.16669" lon="5.63049">
        <ele>807.9</ele>
      </trkpt>
      <trkpt lat="44.16633" lon="5.63133">
        <ele>806.3</ele>
      </trkpt>
      <trkpt lat="44.1661" lon="5.63181">
        <ele>805.3</ele>
      </trkpt>
      <trkpt lat="44.16594" lon="5.6322">
        <ele>805</ele>
      </trkpt>
      <trkpt lat="44.16577" lon="5.63245">
        <ele>805.3</ele>
      </trkpt>
      <trkpt lat="44.1657" lon="5.63268">
        <ele>805.4</ele>
      </trkpt>
      <trkpt lat="44.16547" lon="5.6343">
        <ele>805.5</ele>
      </trkpt>
      <trkpt lat="44.16541" lon="5.63462">
        <ele>805.8</ele>
      </trkpt>
      <trkpt lat="44.16535" lon="5.63485">
        <ele>806</ele>
      </trkpt>
      <trkpt lat="44.16527" lon="5.63499">
        <ele>806.4</ele>
      </trkpt>
      <trkpt lat="44.16522" lon="5.63542">
        <ele>808</ele>
      </trkpt>
      <trkpt lat="44.1651" lon="5.63601">
        <ele>810.5</ele>
      </trkpt>
      <trkpt lat="44.16487" lon="5.63685">
        <ele>816.4</ele>
      </trkpt>
      <trkpt lat="44.16473" lon="5.63744">
        <ele>820</ele>
      </trkpt>
      <trkpt lat="44.16466" lon="5.63797">
        <ele>822.3</ele>
      </trkpt>
      <trkpt lat="44.16464" lon="5.63852">
        <ele>822.7</ele>
      </trkpt>
      <trkpt lat="44.16453" lon="5.63893">
        <ele>821.2</ele>
      </trkpt>
      <trkpt lat="44.16438" lon="5.63903">
        <ele>820.1</ele>
      </trkpt>
      <trkpt lat="44.16429" lon="5.63932">
        <ele>816.1</ele>
      </trkpt>
      <trkpt lat="44.16417" lon="5.63946">
        <ele>812.7</ele>
      </trkpt>
      <trkpt lat="44.16403" lon="5.6395">
        <ele>811.4</ele>
      </trkpt>
      <trkpt lat="44.16369" lon="5.63941">
        <ele>811.3</ele>
      </trkpt>
      <trkpt lat="44.16357" lon="5.63941">
        <ele>810.7</ele>
      </trkpt>
      <trkpt lat="44.16347" lon="5.63958">
        <ele>807.6</ele>
      </trkpt>
      <trkpt lat="44.16339" lon="5.63984">
        <ele>803.5</ele>
      </trkpt>
      <trkpt lat="44.16327" lon="5.63999">
        <ele>801.5</ele>
      </trkpt>
      <trkpt lat="44.16309" lon="5.64012">
        <ele>802.3</ele>
      </trkpt>
      <trkpt lat="44.16291" lon="5.64006">
        <ele>803.5</ele>
      </trkpt>
      <trkpt lat="44.16279" lon="5.64062">
        <ele>804.2</ele>
      </trkpt>
      <trkpt lat="44.16268" lon="5.64102">
        <ele>805.1</ele>
      </trkpt>
      <trkpt lat="44.16265" lon="5.64121">
        <ele>805.2</ele>
      </trkpt>
      <trkpt lat="44.1628" lon="5.64135">
        <ele>803.7</ele>
      </trkpt>
      <trkpt lat="44.16292" lon="5.64152">
        <ele>802.6</ele>
      </trkpt>
      <trkpt lat="44.16297" lon="5.64176">
        <ele>801.9</ele>
      </trkpt>
      <trkpt lat="44.1629" lon="5.6421">
        <ele>801.6</ele>
      </trkpt>
      <trkpt lat="44.16278" lon="5.64245">
        <ele>801.2</ele>
      </trkpt>
      <trkpt lat="44.1628" lon="5.64258">
        <ele>801.7</ele>
      </trkpt>
      <trkpt lat="44.16299" lon="5.64271">
        <ele>802.8</ele>
      </trkpt>
      <trkpt lat="44.16303" lon="5.64278">
        <ele>803.6</ele>
      </trkpt>
      <trkpt lat="44.16295" lon="5.64289">
        <ele>805</ele>
      </trkpt>
      <trkpt lat="44.1629" lon="5.64302">
        <ele>806.4</ele>
      </trkpt>
      <trkpt lat="44.163" lon="5.64316">
        <ele>808.3</ele>
      </trkpt>
      <trkpt lat="44.16312" lon="5.64346">
        <ele>812.3</ele>
      </trkpt>
      <trkpt lat="44.16308" lon="5.64351">
        <ele>812.7</ele>
      </trkpt>
      <trkpt lat="44.16313" lon="5.64361">
        <ele>814</ele>
      </trkpt>
      <trkpt lat="44.16343" lon="5.64377">
        <ele>817.9</ele>
      </trkpt>
      <trkpt lat="44.16361" lon="5.64373">
        <ele>819.6</ele>
      </trkpt>
      <trkpt lat="44.16369" lon="5.64379">
        <ele>821.3</ele>
      </trkpt>
      <trkpt lat="44.16369" lon="5.64464">
        <ele>824.4</ele>
      </trkpt>
      <trkpt lat="44.16355" lon="5.64514">
        <ele>821.2</ele>
      </trkpt>
      <trkpt lat="44.16339" lon="5.64551">
        <ele>817.9</ele>
      </trkpt>
      <trkpt lat="44.16342" lon="5.64603">
        <ele>814.9</ele>
      </trkpt>
      <trkpt lat="44.16347" lon="5.64653">
        <ele>810.8</ele>
      </trkpt>
      <trkpt lat="44.16344" lon="5.64674">
        <ele>809.3</ele>
      </trkpt>
      <trkpt lat="44.16315" lon="5.64716">
        <ele>807.3</ele>
      </trkpt>
      <trkpt lat="44.16306" lon="5.64724">
        <ele>807.4</ele>
      </trkpt>
      <trkpt lat="44.16284" lon="5.64724">
        <ele>809.2</ele>
      </trkpt>
      <trkpt lat="44.16276" lon="5.64753">
        <ele>808.6</ele>
      </trkpt>
      <trkpt lat="44.16279" lon="5.64778">
        <ele>808.9</ele>
      </trkpt>
      <trkpt lat="44.16296" lon="5.64813">
        <ele>809.6</ele>
      </trkpt>
      <trkpt lat="44.16293" lon="5.64826">
        <ele>810.2</ele>
      </trkpt>
      <trkpt lat="44.16266" lon="5.64861">
        <ele>811.1</ele>
      </trkpt>
      <trkpt lat="44.16239" lon="5.64887">
        <ele>810.6</ele>
      </trkpt>
      <trkpt lat="44.16203" lon="5.64949">
        <ele>813.8</ele>
      </trkpt>
      <trkpt lat="44.16181" lon="5.64968">
        <ele>813.2</ele>
      </trkpt>
      <trkpt lat="44.16157" lon="5.65021">
        <ele>812.1</ele>
      </trkpt>
      <trkpt lat="44.16114" lon="5.65099">
        <ele>820.7</ele>
      </trkpt>
      <trkpt lat="44.16092" lon="5.65167">
        <ele>821.8</ele>
      </trkpt>
      <trkpt lat="44.16079" lon="5.65253">
        <ele>819.4</ele>
      </trkpt>
      <trkpt lat="44.16076" lon="5.65309">
        <ele>820.6</ele>
      </trkpt>
      <trkpt lat="44.1608" lon="5.65348">
        <ele>820.2</ele>
      </trkpt>
      <trkpt lat="44.16068" lon="5.65371">
        <ele>823.1</ele>
      </trkpt>
      <trkpt lat="44.16065" lon="5.65393">
        <ele>823.9</ele>
      </trkpt>
      <trkpt lat="44.16087" lon="5.65443">
        <ele>825.2</ele>
      </trkpt>
      <trkpt lat="44.16092" lon="5.65453">
        <ele>826.7</ele>
      </trkpt>
      <trkpt lat="44.16059" lon="5.65471">
        <ele>830.4</ele>
      </trkpt>
      <trkpt lat="44.16046" lon="5.65483">
        <ele>832.9</ele>
      </trkpt>
      <trkpt lat="44.1603" lon="5.65507">
        <ele>836.9</ele>
      </trkpt>
      <trkpt lat="44.16012" lon="5.65517">
        <ele>839.9</ele>
      </trkpt>
      <trkpt lat="44.15991" lon="5.65534">
        <ele>844.4</ele>
      </trkpt>
      <trkpt lat="44.15976" lon="5.65541">
        <ele>847.5</ele>
      </trkpt>
      <trkpt lat="44.15929" lon="5.65553">
        <ele>856.6</ele>
      </trkpt>
      <trkpt lat="44.1591" lon="5.65555">
        <ele>859.6</ele>
      </trkpt>
      <trkpt lat="44.15896" lon="5.65559">
        <ele>861.9</ele>
      </trkpt>
      <trkpt lat="44.15847" lon="5.65603">
        <ele>872</ele>
      </trkpt>
      <trkpt lat="44.15796" lon="5.65636">
        <ele>883.5</ele>
      </trkpt>
      <trkpt lat="44.1579" lon="5.65643">
        <ele>885.5</ele>
      </trkpt>
      <trkpt lat="44.1578" lon="5.6566">
        <ele>889.7</ele>
      </trkpt>
      <trkpt lat="44.15774" lon="5.65666">
        <ele>891.7</ele>
      </trkpt>
      <trkpt lat="44.15768" lon="5.65668">
        <ele>893</ele>
      </trkpt>
      <trkpt lat="44.15751" lon="5.65667">
        <ele>896.8</ele>
      </trkpt>
      <trkpt lat="44.15696" lon="5.65693">
        <ele>906.7</ele>
      </trkpt>
      <trkpt lat="44.15665" lon="5.65713">
        <ele>912.8</ele>
      </trkpt>
      <trkpt lat="44.15643" lon="5.65724">
        <ele>918.1</ele>
      </trkpt>
      <trkpt lat="44.15622" lon="5.65729">
        <ele>923.2</ele>
      </trkpt>
      <trkpt lat="44.15597" lon="5.65733">
        <ele>929</ele>
      </trkpt>
      <trkpt lat="44.15589" lon="5.65736">
        <ele>930.6</ele>
      </trkpt>
      <trkpt lat="44.15566" lon="5.65749">
        <ele>937.7</ele>
      </trkpt>
      <trkpt lat="44.15551" lon="5.65762">
        <ele>942.2</ele>
      </trkpt>
      <trkpt lat="44.15538" lon="5.65777">
        <ele>945.5</ele>
      </trkpt>
      <trkpt lat="44.15516" lon="5.65808">
        <ele>950.6</ele>
      </trkpt>
      <trkpt lat="44.1548" lon="5.65831">
        <ele>964.9</ele>
      </trkpt>
      <trkpt lat="44.15467" lon="5.65848">
        <ele>971.5</ele>
      </trkpt>
      <trkpt lat="44.15454" lon="5.65859">
        <ele>978</ele>
      </trkpt>
      <trkpt lat="44.15447" lon="5.6587">
        <ele>981.2</ele>
      </trkpt>
      <trkpt lat="44.15443" lon="5.65889">
        <ele>982.7</ele>
      </trkpt>
      <trkpt lat="44.15437" lon="5.65898">
        <ele>985.1</ele>
      </trkpt>
      <trkpt lat="44.15415" lon="5.65918">
        <ele>993.3</ele>
      </trkpt>
      <trkpt lat="44.15409" lon="5.65918">
        <ele>995.8</ele>
      </trkpt>
      <trkpt lat="44.15404" lon="5.65913">
        <ele>998.5</ele>
      </trkpt>
      <trkpt lat="44.15402" lon="5.65907">
        <ele>999.8</ele>
      </trkpt>
      <trkpt lat="44.15402" lon="5.65891">
        <ele>1001.1</ele>
      </trkpt>
      <trkpt lat="44.154" lon="5.65881">
        <ele>1002.9</ele>
      </trkpt>
      <trkpt lat="44.15394" lon="5.65874">
        <ele>1006.3</ele>
      </trkpt>
      <trkpt lat="44.15376" lon="5.65861">
        <ele>1016.5</ele>
      </trkpt>
      <trkpt lat="44.15368" lon="5.65851">
        <ele>1021.9</ele>
      </trkpt>
      <trkpt lat="44.15359" lon="5.65826">
        <ele>1029.9</ele>
      </trkpt>
      <trkpt lat="44.15355" lon="5.6582">
        <ele>1032.7</ele>
      </trkpt>
      <trkpt lat="44.15347" lon="5.6582">
        <ele>1037</ele>
      </trkpt>
      <trkpt lat="44.15338" lon="5.65823">
        <ele>1041.5</ele>
      </trkpt>
      <trkpt lat="44.15333" lon="5.65822">
        <ele>1044.3</ele>
      </trkpt>
      <trkpt lat="44.15327" lon="5.65817">
        <ele>1048</ele>
      </trkpt>
      <trkpt lat="44.15318" lon="5.65791">
        <ele>1055.6</ele>
      </trkpt>
      <trkpt lat="44.15308" lon="5.65782">
        <ele>1062.2</ele>
      </trkpt>
      <trkpt lat="44.15301" lon="5.65782">
        <ele>1066.1</ele>
      </trkpt>
      <trkpt lat="44.15284" lon="5.65794">
        <ele>1074.3</ele>
      </trkpt>
      <trkpt lat="44.15277" lon="5.65796">
        <ele>1077.9</ele>
      </trkpt>
      <trkpt lat="44.15258" lon="5.65789">
        <ele>1089.4</ele>
      </trkpt>
      <trkpt lat="44.1525" lon="5.65791">
        <ele>1093.6</ele>
      </trkpt>
      <trkpt lat="44.15243" lon="5.65794">
        <ele>1096.5</ele>
      </trkpt>
      <trkpt lat="44.1519" lon="5.65838">
        <ele>1114.4</ele>
      </trkpt>
      <trkpt lat="44.15166" lon="5.65854">
        <ele>1122.4</ele>
      </trkpt>
      <trkpt lat="44.15144" lon="5.65866">
        <ele>1131.3</ele>
      </trkpt>
      <trkpt lat="44.1513" lon="5.65876">
        <ele>1136.7</ele>
      </trkpt>
      <trkpt lat="44.15114" lon="5.65893">
        <ele>1142.3</ele>
      </trkpt>
      <trkpt lat="44.15103" lon="5.65895">
        <ele>1147.7</ele>
      </trkpt>
      <trkpt lat="44.15088" lon="5.65889">
        <ele>1156.5</ele>
      </trkpt>
      <trkpt lat="44.15062" lon="5.65884">
        <ele>1173.1</ele>
      </trkpt>
      <trkpt lat="44.15056" lon="5.65884">
        <ele>1176.9</ele>
      </trkpt>
      <trkpt lat="44.1505" lon="5.65887">
        <ele>1180.2</ele>
      </trkpt>
      <trkpt lat="44.15044" lon="5.65894">
        <ele>1182.9</ele>
      </trkpt>
      <trkpt lat="44.15029" lon="5.65924">
        <ele>1188.3</ele>
      </trkpt>
      <trkpt lat="44.15021" lon="5.65955">
        <ele>1190.9</ele>
      </trkpt>
      <trkpt lat="44.15003" lon="5.65979">
        <ele>1199.9</ele>
      </trkpt>
      <trkpt lat="44.14989" lon="5.66002">
        <ele>1206.8</ele>
      </trkpt>
      <trkpt lat="44.14958" lon="5.66069">
        <ele>1222.2</ele>
      </trkpt>
      <trkpt lat="44.14939" lon="5.66091">
        <ele>1234.5</ele>
      </trkpt>
      <trkpt lat="44.14922" lon="5.66117">
        <ele>1247.8</ele>
      </trkpt>
      <trkpt lat="44.14915" lon="5.66134">
        <ele>1253.6</ele>
      </trkpt>
      <trkpt lat="44.14912" lon="5.66157">
        <ele>1257</ele>
      </trkpt>
      <trkpt lat="44.14907" lon="5.66164">
        <ele>1260.3</ele>
      </trkpt>
      <trkpt lat="44.149" lon="5.66165">
        <ele>1264.3</ele>
      </trkpt>
      <trkpt lat="44.14892" lon="5.66158">
        <ele>1268.4</ele>
      </trkpt>
      <trkpt lat="44.14868" lon="5.66127">
        <ele>1281</ele>
      </trkpt>
      <trkpt lat="44.14862" lon="5.66121">
        <ele>1284.3</ele>
      </trkpt>
      <trkpt lat="44.14853" lon="5.6612">
        <ele>1289.7</ele>
      </trkpt>
      <trkpt lat="44.14845" lon="5.66125">
        <ele>1294.6</ele>
      </trkpt>
      <trkpt lat="44.14841" lon="5.66133">
        <ele>1297.1</ele>
      </trkpt>
      <trkpt lat="44.14838" lon="5.66141">
        <ele>1299</ele>
      </trkpt>
      <trkpt lat="44.14837" lon="5.66154">
        <ele>1299.7</ele>
      </trkpt>
      <trkpt lat="44.14835" lon="5.66161">
        <ele>1301</ele>
      </trkpt>
      <trkpt lat="44.14815" lon="5.66162">
        <ele>1303.2</ele>
      </trkpt>
      <trkpt lat="44.14801" lon="5.66179">
        <ele>1304.6</ele>
      </trkpt>
      <trkpt lat="44.14797" lon="5.66226">
        <ele>1307</ele>
      </trkpt>
      <trkpt lat="44.14802" lon="5.66274">
        <ele>1311.4</ele>
      </trkpt>
      <trkpt lat="44.14812" lon="5.66302">
        <ele>1315.5</ele>
      </trkpt>
      <trkpt lat="44.14808" lon="5.66359">
        <ele>1321.9</ele>
      </trkpt>
      <trkpt lat="44.14806" lon="5.66418">
        <ele>1327.5</ele>
      </trkpt>
      <trkpt lat="44.14809" lon="5.66503">
        <ele>1339.3</ele>
      </trkpt>
      <trkpt lat="44.14815" lon="5.66544">
        <ele>1342.7</ele>
      </trkpt>
      <trkpt lat="44.14825" lon="5.66595">
        <ele>1347.4</ele>
      </trkpt>
      <trkpt lat="44.14834" lon="5.66616">
        <ele>1349.6</ele>
      </trkpt>
      <trkpt lat="44.1484" lon="5.66646">
        <ele>1351.3</ele>
      </trkpt>
      <trkpt lat="44.14851" lon="5.66671">
        <ele>1353.5</ele>
      </trkpt>
      <trkpt lat="44.14858" lon="5.66712">
        <ele>1358.4</ele>
      </trkpt>
      <trkpt lat="44.14856" lon="5.66791">
        <ele>1366.9</ele>
      </trkpt>
      <trkpt lat="44.14858" lon="5.66823">
        <ele>1370.2</ele>
      </trkpt>
      <trkpt lat="44.14851" lon="5.6684">
        <ele>1372.4</ele>
      </trkpt>
      <trkpt lat="44.14841" lon="5.66876">
        <ele>1377.7</ele>
      </trkpt>
      <trkpt lat="44.14834" lon="5.66882">
        <ele>1379.9</ele>
      </trkpt>
      <trkpt lat="44.14821" lon="5.66921">
        <ele>1383.6</ele>
      </trkpt>
      <trkpt lat="44.14803" lon="5.66976">
        <ele>1385.9</ele>
      </trkpt>
      <trkpt lat="44.148" lon="5.66996">
        <ele>1387.2</ele>
      </trkpt>
      <trkpt lat="44.14791" lon="5.67029">
        <ele>1386.6</ele>
      </trkpt>
      <trkpt lat="44.1479" lon="5.67062">
        <ele>1386.7</ele>
      </trkpt>
      <trkpt lat="44.14803" lon="5.67109">
        <ele>1386.8</ele>
      </trkpt>
      <trkpt lat="44.14811" lon="5.67132">
        <ele>1385.6</ele>
      </trkpt>
      <trkpt lat="44.14793" lon="5.67194">
        <ele>1386.2</ele>
      </trkpt>
      <trkpt lat="44.14778" lon="5.67243">
        <ele>1391.9</ele>
      </trkpt>
      <trkpt lat="44.14718" lon="5.67333">
        <ele>1420.2</ele>
      </trkpt>
      <trkpt lat="44.14708" lon="5.67446">
        <ele>1450.3</ele>
      </trkpt>
      <trkpt lat="44.14679" lon="5.67565">
        <ele>1484.1</ele>
      </trkpt>
      <trkpt lat="44.14652" lon="5.67733">
        <ele>1515.3</ele>
      </trkpt>
      <trkpt lat="44.14616" lon="5.67786">
        <ele>1518</ele>
      </trkpt>
      <trkpt lat="44.14612" lon="5.67814">
        <ele>1520</ele>
      </trkpt>
      <trkpt lat="44.14609" lon="5.67869">
        <ele>1519.8</ele>
      </trkpt>
      <trkpt lat="44.14609" lon="5.6787">
        <ele>1519.7</ele>
      </trkpt>
      <trkpt lat="44.14572" lon="5.67981">
        <ele>1518.8</ele>
      </trkpt>
      <trkpt lat="44.14521" lon="5.68061">
        <ele>1508.2</ele>
      </trkpt>
      <trkpt lat="44.14531" lon="5.68139">
        <ele>1485</ele>
      </trkpt>
      <trkpt lat="44.14504" lon="5.68157">
        <ele>1489.8</ele>
      </trkpt>
      <trkpt lat="44.14487" lon="5.68171">
        <ele>1486.7</ele>
      </trkpt>
      <trkpt lat="44.14474" lon="5.68321">
        <ele>1463.1</ele>
      </trkpt>
      <trkpt lat="44.14472" lon="5.68417">
        <ele>1452.7</ele>
      </trkpt>
      <trkpt lat="44.14475" lon="5.68537">
        <ele>1456.7</ele>
      </trkpt>
      <trkpt lat="44.1448" lon="5.68633">
        <ele>1456.3</ele>
      </trkpt>
      <trkpt lat="44.1445" lon="5.68709">
        <ele>1453.9</ele>
      </trkpt>
      <trkpt lat="44.14445" lon="5.68808">
        <ele>1446.2</ele>
      </trkpt>
      <trkpt lat="44.14453" lon="5.68943">
        <ele>1431.6</ele>
      </trkpt>
      <trkpt lat="44.14438" lon="5.69028">
        <ele>1421.6</ele>
      </trkpt>
      <trkpt lat="44.144" lon="5.69103">
        <ele>1412.6</ele>
      </trkpt>
      <trkpt lat="44.14317" lon="5.69245">
        <ele>1387.5</ele>
      </trkpt>
      <trkpt lat="44.14273" lon="5.69291">
        <ele>1373.7</ele>
      </trkpt>
      <trkpt lat="44.14277" lon="5.69346">
        <ele>1365.5</ele>
      </trkpt>
      <trkpt lat="44.14279" lon="5.69392">
        <ele>1363.3</ele>
      </trkpt>
      <trkpt lat="44.14284" lon="5.69464">
        <ele>1365.2</ele>
      </trkpt>
      <trkpt lat="44.14332" lon="5.69531">
        <ele>1363.3</ele>
      </trkpt>
      <trkpt lat="44.14333" lon="5.6959">
        <ele>1375.2</ele>
      </trkpt>
      <trkpt lat="44.14383" lon="5.69703">
        <ele>1364.4</ele>
      </trkpt>
      <trkpt lat="44.14385" lon="5.6979">
        <ele>1371.8</ele>
      </trkpt>
      <trkpt lat="44.14425" lon="5.69911">
        <ele>1379.4</ele>
      </trkpt>
      <trkpt lat="44.14386" lon="5.69927">
        <ele>1373.7</ele>
      </trkpt>
      <trkpt lat="44.14392" lon="5.69961">
        <ele>1367.7</ele>
      </trkpt>
      <trkpt lat="44.14373" lon="5.69966">
        <ele>1364.4</ele>
      </trkpt>
      <trkpt lat="44.14376" lon="5.69995">
        <ele>1359.5</ele>
      </trkpt>
      <trkpt lat="44.14356" lon="5.7">
        <ele>1357.4</ele>
      </trkpt>
      <trkpt lat="44.14293" lon="5.70029">
        <ele>1343.5</ele>
      </trkpt>
      <trkpt lat="44.14228" lon="5.70056">
        <ele>1336.6</ele>
      </trkpt>
      <trkpt lat="44.14212" lon="5.70091">
        <ele>1335.5</ele>
      </trkpt>
      <trkpt lat="44.14181" lon="5.70112">
        <ele>1333.3</ele>
      </trkpt>
      <trkpt lat="44.14138" lon="5.70154">
        <ele>1334.8</ele>
      </trkpt>
      <trkpt lat="44.14111" lon="5.7019">
        <ele>1335</ele>
      </trkpt>
      <trkpt lat="44.14099" lon="5.70251">
        <ele>1322.7</ele>
      </trkpt>
      <trkpt lat="44.14076" lon="5.70282">
        <ele>1319.2</ele>
      </trkpt>
      <trkpt lat="44.14021" lon="5.70327">
        <ele>1320</ele>
      </trkpt>
      <trkpt lat="44.13983" lon="5.70382">
        <ele>1310.2</ele>
      </trkpt>
      <trkpt lat="44.13949" lon="5.70416">
        <ele>1306.4</ele>
      </trkpt>
      <trkpt lat="44.13848" lon="5.70488">
        <ele>1298.6</ele>
      </trkpt>
      <trkpt lat="44.13786" lon="5.70527">
        <ele>1291.3</ele>
      </trkpt>
      <trkpt lat="44.13754" lon="5.70533">
        <ele>1292.7</ele>
      </trkpt>
      <trkpt lat="44.13735" lon="5.70545">
        <ele>1292.4</ele>
      </trkpt>
      <trkpt lat="44.13707" lon="5.70556">
        <ele>1293.4</ele>
      </trkpt>
      <trkpt lat="44.13692" lon="5.7055">
        <ele>1294.6</ele>
      </trkpt>
      <trkpt lat="44.13702" lon="5.70506">
        <ele>1295.6</ele>
      </trkpt>
      <trkpt lat="44.13692" lon="5.7055">
        <ele>1294.6</ele>
      </trkpt>
      <trkpt lat="44.13654" lon="5.70537">
        <ele>1295.4</ele>
      </trkpt>
      <trkpt lat="44.1362" lon="5.70541">
        <ele>1294.3</ele>
      </trkpt>
      <trkpt lat="44.13566" lon="5.70558">
        <ele>1291</ele>
      </trkpt>
      <trkpt lat="44.1355" lon="5.70561">
        <ele>1288.8</ele>
      </trkpt>
      <trkpt lat="44.13487" lon="5.70541">
        <ele>1279.2</ele>
      </trkpt>
      <trkpt lat="44.13457" lon="5.70534">
        <ele>1273.6</ele>
      </trkpt>
      <trkpt lat="44.13435" lon="5.70527">
        <ele>1269.1</ele>
      </trkpt>
      <trkpt lat="44.13407" lon="5.70524">
        <ele>1263.9</ele>
      </trkpt>
      <trkpt lat="44.13129" lon="5.70484">
        <ele>1219.7</ele>
      </trkpt>
      <trkpt lat="44.13104" lon="5.70473">
        <ele>1216.8</ele>
      </trkpt>
      <trkpt lat="44.1307" lon="5.70448">
        <ele>1211.9</ele>
      </trkpt>
      <trkpt lat="44.12989" lon="5.7045">
        <ele>1199.1</ele>
      </trkpt>
      <trkpt lat="44.12936" lon="5.70445">
        <ele>1189.9</ele>
      </trkpt>
      <trkpt lat="44.12925" lon="5.70441">
        <ele>1187.4</ele>
      </trkpt>
      <trkpt lat="44.12907" lon="5.70429">
        <ele>1182.4</ele>
      </trkpt>
      <trkpt lat="44.12845" lon="5.70413">
        <ele>1172.5</ele>
      </trkpt>
      <trkpt lat="44.12805" lon="5.7041">
        <ele>1168.2</ele>
      </trkpt>
      <trkpt lat="44.12783" lon="5.70397">
        <ele>1167.3</ele>
      </trkpt>
      <trkpt lat="44.12755" lon="5.70387">
        <ele>1164</ele>
      </trkpt>
      <trkpt lat="44.12722" lon="5.70362">
        <ele>1161.9</ele>
      </trkpt>
      <trkpt lat="44.12603" lon="5.70327">
        <ele>1146.1</ele>
      </trkpt>
      <trkpt lat="44.12546" lon="5.70333">
        <ele>1137.6</ele>
      </trkpt>
      <trkpt lat="44.125" lon="5.70345">
        <ele>1135.1</ele>
      </trkpt>
      <trkpt lat="44.12446" lon="5.7035">
        <ele>1133.7</ele>
      </trkpt>
      <trkpt lat="44.12412" lon="5.70334">
        <ele>1126.4</ele>
      </trkpt>
      <trkpt lat="44.1239" lon="5.70333">
        <ele>1122.6</ele>
      </trkpt>
      <trkpt lat="44.12358" lon="5.70316">
        <ele>1122.5</ele>
      </trkpt>
      <trkpt lat="44.12341" lon="5.70314">
        <ele>1120.2</ele>
      </trkpt>
      <trkpt lat="44.12309" lon="5.70316">
        <ele>1113.7</ele>
      </trkpt>
      <trkpt lat="44.12295" lon="5.70312">
        <ele>1112</ele>
      </trkpt>
      <trkpt lat="44.12265" lon="5.70307">
        <ele>1107.1</ele>
      </trkpt>
      <trkpt lat="44.12245" lon="5.70315">
        <ele>1101.9</ele>
      </trkpt>
      <trkpt lat="44.12227" lon="5.70317">
        <ele>1098.2</ele>
      </trkpt>
      <trkpt lat="44.12206" lon="5.70309">
        <ele>1094.5</ele>
      </trkpt>
      <trkpt lat="44.12157" lon="5.70306">
        <ele>1084.9</ele>
      </trkpt>
      <trkpt lat="44.12123" lon="5.70297">
        <ele>1079.4</ele>
      </trkpt>
      <trkpt lat="44.12077" lon="5.70272">
        <ele>1066.7</ele>
      </trkpt>
      <trkpt lat="44.12058" lon="5.70267">
        <ele>1064.2</ele>
      </trkpt>
      <trkpt lat="44.1204" lon="5.70264">
        <ele>1062.3</ele>
      </trkpt>
      <trkpt lat="44.12029" lon="5.70266">
        <ele>1062.2</ele>
      </trkpt>
      <trkpt lat="44.12011" lon="5.70274">
        <ele>1063.3</ele>
      </trkpt>
      <trkpt lat="44.11989" lon="5.70275">
        <ele>1062.1</ele>
      </trkpt>
      <trkpt lat="44.11975" lon="5.70279">
        <ele>1062.1</ele>
      </trkpt>
      <trkpt lat="44.11964" lon="5.7028">
        <ele>1061.4</ele>
      </trkpt>
      <trkpt lat="44.11956" lon="5.70277">
        <ele>1060.2</ele>
      </trkpt>
      <trkpt lat="44.11942" lon="5.70269">
        <ele>1057.6</ele>
      </trkpt>
      <trkpt lat="44.11903" lon="5.70277">
        <ele>1056.6</ele>
      </trkpt>
      <trkpt lat="44.11871" lon="5.7029">
        <ele>1056.3</ele>
      </trkpt>
      <trkpt lat="44.11848" lon="5.70295">
        <ele>1055.1</ele>
      </trkpt>
      <trkpt lat="44.11822" lon="5.70295">
        <ele>1053.1</ele>
      </trkpt>
      <trkpt lat="44.11806" lon="5.70287">
        <ele>1051</ele>
      </trkpt>
      <trkpt lat="44.11786" lon="5.70274">
        <ele>1047.3</ele>
      </trkpt>
      <trkpt lat="44.11763" lon="5.70272">
        <ele>1044</ele>
      </trkpt>
      <trkpt lat="44.11747" lon="5.70268">
        <ele>1041.3</ele>
      </trkpt>
      <trkpt lat="44.11713" lon="5.70252">
        <ele>1035</ele>
      </trkpt>
      <trkpt lat="44.11693" lon="5.7024">
        <ele>1033.2</ele>
      </trkpt>
      <trkpt lat="44.11669" lon="5.70206">
        <ele>1028.1</ele>
      </trkpt>
      <trkpt lat="44.11659" lon="5.70186">
        <ele>1026.5</ele>
      </trkpt>
      <trkpt lat="44.11649" lon="5.70136">
        <ele>1028</ele>
      </trkpt>
      <trkpt lat="44.11617" lon="5.70079">
        <ele>1025</ele>
      </trkpt>
      <trkpt lat="44.1159" lon="5.70058">
        <ele>1020.8</ele>
      </trkpt>
      <trkpt lat="44.11554" lon="5.70034">
        <ele>1017.1</ele>
      </trkpt>
      <trkpt lat="44.11392" lon="5.70015">
        <ele>999</ele>
      </trkpt>
      <trkpt lat="44.1135" lon="5.70002">
        <ele>995.3</ele>
      </trkpt>
      <trkpt lat="44.1128" lon="5.70003">
        <ele>989</ele>
      </trkpt>
      <trkpt lat="44.11238" lon="5.69992">
        <ele>985.9</ele>
      </trkpt>
      <trkpt lat="44.11208" lon="5.69993">
        <ele>984.6</ele>
      </trkpt>
      <trkpt lat="44.11193" lon="5.69991">
        <ele>984.1</ele>
      </trkpt>
      <trkpt lat="44.11132" lon="5.69964">
        <ele>980.6</ele>
      </trkpt>
      <trkpt lat="44.1106" lon="5.69957">
        <ele>974.5</ele>
      </trkpt>
      <trkpt lat="44.10999" lon="5.69946">
        <ele>968.7</ele>
      </trkpt>
      <trkpt lat="44.10966" lon="5.69952">
        <ele>967.1</ele>
      </trkpt>
      <trkpt lat="44.10933" lon="5.69951">
        <ele>964.8</ele>
      </trkpt>
      <trkpt lat="44.10892" lon="5.69933">
        <ele>959.7</ele>
      </trkpt>
      <trkpt lat="44.10863" lon="5.69928">
        <ele>956.5</ele>
      </trkpt>
      <trkpt lat="44.10836" lon="5.69928">
        <ele>954.1</ele>
      </trkpt>
      <trkpt lat="44.10784" lon="5.69937">
        <ele>953.2</ele>
      </trkpt>
      <trkpt lat="44.10741" lon="5.69949">
        <ele>952.1</ele>
      </trkpt>
      <trkpt lat="44.10711" lon="5.69965">
        <ele>950.9</ele>
      </trkpt>
      <trkpt lat="44.10668" lon="5.69981">
        <ele>946.3</ele>
      </trkpt>
      <trkpt lat="44.10656" lon="5.69988">
        <ele>944.4</ele>
      </trkpt>
      <trkpt lat="44.10646" lon="5.70002">
        <ele>941.8</ele>
      </trkpt>
      <trkpt lat="44.10637" lon="5.70014">
        <ele>943</ele>
      </trkpt>
      <trkpt lat="44.1063" lon="5.70014">
        <ele>942.3</ele>
      </trkpt>
      <trkpt lat="44.106" lon="5.70004">
        <ele>938.6</ele>
      </trkpt>
      <trkpt lat="44.10585" lon="5.70005">
        <ele>937.5</ele>
      </trkpt>
      <trkpt lat="44.10555" lon="5.7001">
        <ele>936</ele>
      </trkpt>
      <trkpt lat="44.10538" lon="5.70011">
        <ele>934.9</ele>
      </trkpt>
      <trkpt lat="44.10525" lon="5.70016">
        <ele>934</ele>
      </trkpt>
      <trkpt lat="44.105" lon="5.70034">
        <ele>931.4</ele>
      </trkpt>
      <trkpt lat="44.1046" lon="5.70059">
        <ele>926.3</ele>
      </trkpt>
      <trkpt lat="44.10454" lon="5.70064">
        <ele>925.3</ele>
      </trkpt>
      <trkpt lat="44.1045" lon="5.70066">
        <ele>924.7</ele>
      </trkpt>
      <trkpt lat="44.10422" lon="5.7008">
        <ele>920.1</ele>
      </trkpt>
      <trkpt lat="44.10412" lon="5.70089">
        <ele>919.3</ele>
      </trkpt>
      <trkpt lat="44.10379" lon="5.70145">
        <ele>918.5</ele>
      </trkpt>
      <trkpt lat="44.10365" lon="5.70164">
        <ele>917</ele>
      </trkpt>
      <trkpt lat="44.10262" lon="5.70275">
        <ele>912.7</ele>
      </trkpt>
      <trkpt lat="44.1024" lon="5.70288">
        <ele>912</ele>
      </trkpt>
      <trkpt lat="44.10227" lon="5.70292">
        <ele>912</ele>
      </trkpt>
      <trkpt lat="44.10205" lon="5.70291">
        <ele>912.7</ele>
      </trkpt>
      <trkpt lat="44.10195" lon="5.70296">
        <ele>912.2</ele>
      </trkpt>
      <trkpt lat="44.10198" lon="5.70298">
        <ele>911.9</ele>
      </trkpt>
      <trkpt lat="44.10201" lon="5.70304">
        <ele>911.1</ele>
      </trkpt>
      <trkpt lat="44.10196" lon="5.7031">
        <ele>910.3</ele>
      </trkpt>
      <trkpt lat="44.10175" lon="5.7033">
        <ele>906.9</ele>
      </trkpt>
      <trkpt lat="44.10151" lon="5.70342">
        <ele>906.4</ele>
      </trkpt>
      <trkpt lat="44.10109" lon="5.70356">
        <ele>906.4</ele>
      </trkpt>
      <trkpt lat="44.10082" lon="5.7036">
        <ele>905.9</ele>
      </trkpt>
      <trkpt lat="44.10053" lon="5.70358">
        <ele>905.5</ele>
      </trkpt>
      <trkpt lat="44.10033" lon="5.70348">
        <ele>903.9</ele>
      </trkpt>
      <trkpt lat="44.09965" lon="5.70301">
        <ele>901.3</ele>
      </trkpt>
      <trkpt lat="44.09947" lon="5.70294">
        <ele>901.3</ele>
      </trkpt>
      <trkpt lat="44.09924" lon="5.70292">
        <ele>901.4</ele>
      </trkpt>
      <trkpt lat="44.09844" lon="5.70311">
        <ele>901.5</ele>
      </trkpt>
      <trkpt lat="44.09818" lon="5.70314">
        <ele>902.6</ele>
      </trkpt>
      <trkpt lat="44.09786" lon="5.70309">
        <ele>903.5</ele>
      </trkpt>
      <trkpt lat="44.0975" lon="5.70298">
        <ele>902.9</ele>
      </trkpt>
      <trkpt lat="44.09705" lon="5.70278">
        <ele>904.5</ele>
      </trkpt>
      <trkpt lat="44.09583" lon="5.70199">
        <ele>896.1</ele>
      </trkpt>
      <trkpt lat="44.09528" lon="5.70172">
        <ele>895.6</ele>
      </trkpt>
      <trkpt lat="44.09478" lon="5.70153">
        <ele>896.2</ele>
      </trkpt>
      <trkpt lat="44.09438" lon="5.7013">
        <ele>893.6</ele>
      </trkpt>
      <trkpt lat="44.09403" lon="5.70116">
        <ele>893</ele>
      </trkpt>
      <trkpt lat="44.09351" lon="5.70106">
        <ele>895.5</ele>
      </trkpt>
      <trkpt lat="44.09075" lon="5.70102">
        <ele>897.4</ele>
      </trkpt>
      <trkpt lat="44.0906" lon="5.70104">
        <ele>897.6</ele>
      </trkpt>
      <trkpt lat="44.09079" lon="5.70203">
        <ele>909.3</ele>
      </trkpt>
      <trkpt lat="44.09103" lon="5.70317">
        <ele>918.9</ele>
      </trkpt>
      <trkpt lat="44.09109" lon="5.70351">
        <ele>921.5</ele>
      </trkpt>
      <trkpt lat="44.0911" lon="5.70386">
        <ele>923.5</ele>
      </trkpt>
      <trkpt lat="44.09095" lon="5.70417">
        <ele>924</ele>
      </trkpt>
      <trkpt lat="44.0905" lon="5.70462">
        <ele>922.8</ele>
      </trkpt>
      <trkpt lat="44.09044" lon="5.70489">
        <ele>924</ele>
      </trkpt>
      <trkpt lat="44.09032" lon="5.70524">
        <ele>925.7</ele>
      </trkpt>
      <trkpt lat="44.0901" lon="5.70558">
        <ele>927.1</ele>
      </trkpt>
      <trkpt lat="44.08961" lon="5.70613">
        <ele>932.2</ele>
      </trkpt>
      <trkpt lat="44.0881" lon="5.70796">
        <ele>952.2</ele>
      </trkpt>
      <trkpt lat="44.08794" lon="5.7081">
        <ele>953.8</ele>
      </trkpt>
      <trkpt lat="44.08775" lon="5.70821">
        <ele>954.1</ele>
      </trkpt>
      <trkpt lat="44.08581" lon="5.70867">
        <ele>951</ele>
      </trkpt>
      <trkpt lat="44.08561" lon="5.70881">
        <ele>949.2</ele>
      </trkpt>
      <trkpt lat="44.08548" lon="5.70905">
        <ele>951.7</ele>
      </trkpt>
      <trkpt lat="44.08482" lon="5.71112">
        <ele>963.5</ele>
      </trkpt>
      <trkpt lat="44.08467" lon="5.71146">
        <ele>965.4</ele>
      </trkpt>
      <trkpt lat="44.08458" lon="5.7116">
        <ele>965.1</ele>
      </trkpt>
      <trkpt lat="44.08408" lon="5.71219">
        <ele>959.9</ele>
      </trkpt>
      <trkpt lat="44.08392" lon="5.71248">
        <ele>964.3</ele>
      </trkpt>
      <trkpt lat="44.08379" lon="5.71303">
        <ele>968.3</ele>
      </trkpt>
      <trkpt lat="44.0836" lon="5.71354">
        <ele>970.9</ele>
      </trkpt>
      <trkpt lat="44.08355" lon="5.71417">
        <ele>974</ele>
      </trkpt>
      <trkpt lat="44.08355" lon="5.71442">
        <ele>974.9</ele>
      </trkpt>
      <trkpt lat="44.0836" lon="5.71453">
        <ele>974.9</ele>
      </trkpt>
      <trkpt lat="44.08381" lon="5.715">
        <ele>974.4</ele>
      </trkpt>
      <trkpt lat="44.08388" lon="5.7151">
        <ele>973.7</ele>
      </trkpt>
      <trkpt lat="44.08408" lon="5.71543">
        <ele>972.1</ele>
      </trkpt>
      <trkpt lat="44.08452" lon="5.7159">
        <ele>978.3</ele>
      </trkpt>
      <trkpt lat="44.085" lon="5.71636">
        <ele>983.8</ele>
      </trkpt>
      <trkpt lat="44.08543" lon="5.71662">
        <ele>990.3</ele>
      </trkpt>
      <trkpt lat="44.08595" lon="5.71701">
        <ele>1000.3</ele>
      </trkpt>
      <trkpt lat="44.08642" lon="5.71734">
        <ele>1005.5</ele>
      </trkpt>
      <trkpt lat="44.08674" lon="5.71769">
        <ele>1010.4</ele>
      </trkpt>
      <trkpt lat="44.08684" lon="5.71793">
        <ele>1014.6</ele>
      </trkpt>
      <trkpt lat="44.08683" lon="5.7181">
        <ele>1016.9</ele>
      </trkpt>
      <trkpt lat="44.08675" lon="5.71824">
        <ele>1018.3</ele>
      </trkpt>
      <trkpt lat="44.08638" lon="5.71841">
        <ele>1018.8</ele>
      </trkpt>
      <trkpt lat="44.08626" lon="5.71851">
        <ele>1019.5</ele>
      </trkpt>
      <trkpt lat="44.08619" lon="5.71865">
        <ele>1020.9</ele>
      </trkpt>
      <trkpt lat="44.08619" lon="5.7188">
        <ele>1023</ele>
      </trkpt>
      <trkpt lat="44.08635" lon="5.7189">
        <ele>1025.7</ele>
      </trkpt>
      <trkpt lat="44.08662" lon="5.71916">
        <ele>1032.4</ele>
      </trkpt>
      <trkpt lat="44.08709" lon="5.72005">
        <ele>1043.3</ele>
      </trkpt>
      <trkpt lat="44.08755" lon="5.7206">
        <ele>1053</ele>
      </trkpt>
      <trkpt lat="44.088" lon="5.72119">
        <ele>1059</ele>
      </trkpt>
      <trkpt lat="44.08813" lon="5.7213">
        <ele>1060.9</ele>
      </trkpt>
      <trkpt lat="44.08859" lon="5.72182">
        <ele>1068.8</ele>
      </trkpt>
      <trkpt lat="44.08905" lon="5.72224">
        <ele>1077.5</ele>
      </trkpt>
      <trkpt lat="44.08962" lon="5.72262">
        <ele>1089.8</ele>
      </trkpt>
      <trkpt lat="44.0902" lon="5.72287">
        <ele>1100.1</ele>
      </trkpt>
      <trkpt lat="44.09082" lon="5.72298">
        <ele>1110.8</ele>
      </trkpt>
      <trkpt lat="44.09218" lon="5.72328">
        <ele>1135.6</ele>
      </trkpt>
      <trkpt lat="44.09241" lon="5.72336">
        <ele>1139.7</ele>
      </trkpt>
      <trkpt lat="44.09277" lon="5.72356">
        <ele>1142</ele>
      </trkpt>
      <trkpt lat="44.093" lon="5.72375">
        <ele>1145</ele>
      </trkpt>
      <trkpt lat="44.09326" lon="5.72403">
        <ele>1151.6</ele>
      </trkpt>
      <trkpt lat="44.09337" lon="5.7243">
        <ele>1157.1</ele>
      </trkpt>
      <trkpt lat="44.09342" lon="5.72462">
        <ele>1161.6</ele>
      </trkpt>
      <trkpt lat="44.09342" lon="5.72494">
        <ele>1165.1</ele>
      </trkpt>
      <trkpt lat="44.09337" lon="5.72546">
        <ele>1170.2</ele>
      </trkpt>
      <trkpt lat="44.09338" lon="5.72574">
        <ele>1173.7</ele>
      </trkpt>
      <trkpt lat="44.09342" lon="5.72595">
        <ele>1175.6</ele>
      </trkpt>
      <trkpt lat="44.09348" lon="5.72615">
        <ele>1176.6</ele>
      </trkpt>
      <trkpt lat="44.09355" lon="5.72625">
        <ele>1177.9</ele>
      </trkpt>
      <trkpt lat="44.09362" lon="5.72629">
        <ele>1179.2</ele>
      </trkpt>
      <trkpt lat="44.09375" lon="5.72628">
        <ele>1181.5</ele>
      </trkpt>
      <trkpt lat="44.09441" lon="5.72631">
        <ele>1194.3</ele>
      </trkpt>
      <trkpt lat="44.09451" lon="5.72638">
        <ele>1196.7</ele>
      </trkpt>
      <trkpt lat="44.09503" lon="5.72692">
        <ele>1206.6</ele>
      </trkpt>
      <trkpt lat="44.09545" lon="5.72721">
        <ele>1212.5</ele>
      </trkpt>
      <trkpt lat="44.0959" lon="5.72738">
        <ele>1221.1</ele>
      </trkpt>
      <trkpt lat="44.09604" lon="5.72749">
        <ele>1222.8</ele>
      </trkpt>
      <trkpt lat="44.09612" lon="5.72752">
        <ele>1223.7</ele>
      </trkpt>
      <trkpt lat="44.09616" lon="5.72747">
        <ele>1225.2</ele>
      </trkpt>
      <trkpt lat="44.09617" lon="5.72742">
        <ele>1225.8</ele>
      </trkpt>
      <trkpt lat="44.09607" lon="5.72716">
        <ele>1226.2</ele>
      </trkpt>
      <trkpt lat="44.09604" lon="5.72702">
        <ele>1226.7</ele>
      </trkpt>
      <trkpt lat="44.09607" lon="5.72683">
        <ele>1229</ele>
      </trkpt>
      <trkpt lat="44.09621" lon="5.72656">
        <ele>1233.4</ele>
      </trkpt>
      <trkpt lat="44.09686" lon="5.72591">
        <ele>1246.9</ele>
      </trkpt>
      <trkpt lat="44.09703" lon="5.72568">
        <ele>1250.7</ele>
      </trkpt>
      <trkpt lat="44.09723" lon="5.7252">
        <ele>1256.8</ele>
      </trkpt>
      <trkpt lat="44.09739" lon="5.72468">
        <ele>1261.4</ele>
      </trkpt>
      <trkpt lat="44.09748" lon="5.72462">
        <ele>1263.9</ele>
      </trkpt>
      <trkpt lat="44.09758" lon="5.72469">
        <ele>1266</ele>
      </trkpt>
      <trkpt lat="44.09776" lon="5.7249">
        <ele>1268.6</ele>
      </trkpt>
      <trkpt lat="44.0979" lon="5.72501">
        <ele>1270.2</ele>
      </trkpt>
      <trkpt lat="44.0981" lon="5.72511">
        <ele>1272.1</ele>
      </trkpt>
      <trkpt lat="44.09835" lon="5.72511">
        <ele>1275.4</ele>
      </trkpt>
      <trkpt lat="44.09888" lon="5.72489">
        <ele>1285.8</ele>
      </trkpt>
      <trkpt lat="44.09916" lon="5.7248">
        <ele>1290.6</ele>
      </trkpt>
      <trkpt lat="44.09943" lon="5.72482">
        <ele>1294.1</ele>
      </trkpt>
      <trkpt lat="44.09985" lon="5.72506">
        <ele>1301.5</ele>
      </trkpt>
      <trkpt lat="44.09998" lon="5.7252">
        <ele>1304.1</ele>
      </trkpt>
      <trkpt lat="44.10037" lon="5.72588">
        <ele>1312.6</ele>
      </trkpt>
      <trkpt lat="44.10048" lon="5.72597">
        <ele>1313.7</ele>
      </trkpt>
      <trkpt lat="44.10061" lon="5.72601">
        <ele>1315.7</ele>
      </trkpt>
      <trkpt lat="44.10088" lon="5.72597">
        <ele>1321.2</ele>
      </trkpt>
      <trkpt lat="44.10193" lon="5.72612">
        <ele>1338.2</ele>
      </trkpt>
      <trkpt lat="44.10241" lon="5.72617">
        <ele>1346</ele>
      </trkpt>
      <trkpt lat="44.10287" lon="5.72627">
        <ele>1353.1</ele>
      </trkpt>
      <trkpt lat="44.10304" lon="5.72634">
        <ele>1355.6</ele>
      </trkpt>
      <trkpt lat="44.10312" lon="5.72632">
        <ele>1357.3</ele>
      </trkpt>
      <trkpt lat="44.10315" lon="5.72627">
        <ele>1358.4</ele>
      </trkpt>
      <trkpt lat="44.10315" lon="5.7262">
        <ele>1359.1</ele>
      </trkpt>
      <trkpt lat="44.10304" lon="5.72593">
        <ele>1360</ele>
      </trkpt>
      <trkpt lat="44.10305" lon="5.72575">
        <ele>1360.6</ele>
      </trkpt>
      <trkpt lat="44.10311" lon="5.72563">
        <ele>1360.7</ele>
      </trkpt>
      <trkpt lat="44.10328" lon="5.72543">
        <ele>1362.5</ele>
      </trkpt>
      <trkpt lat="44.10341" lon="5.72527">
        <ele>1364.4</ele>
      </trkpt>
      <trkpt lat="44.10352" lon="5.72527">
        <ele>1367</ele>
      </trkpt>
      <trkpt lat="44.10374" lon="5.72553">
        <ele>1372.4</ele>
      </trkpt>
      <trkpt lat="44.10395" lon="5.72561">
        <ele>1376.6</ele>
      </trkpt>
      <trkpt lat="44.10418" lon="5.7256">
        <ele>1381.1</ele>
      </trkpt>
      <trkpt lat="44.10454" lon="5.72552">
        <ele>1389.9</ele>
      </trkpt>
      <trkpt lat="44.10514" lon="5.72549">
        <ele>1403.6</ele>
      </trkpt>
      <trkpt lat="44.10524" lon="5.72542">
        <ele>1406.1</ele>
      </trkpt>
      <trkpt lat="44.10533" lon="5.7249">
        <ele>1410.7</ele>
      </trkpt>
      <trkpt lat="44.10552" lon="5.7246">
        <ele>1413.2</ele>
      </trkpt>
      <trkpt lat="44.10559" lon="5.72455">
        <ele>1414.7</ele>
      </trkpt>
      <trkpt lat="44.10571" lon="5.72453">
        <ele>1417.5</ele>
      </trkpt>
      <trkpt lat="44.10606" lon="5.72499">
        <ele>1426.4</ele>
      </trkpt>
      <trkpt lat="44.10637" lon="5.7252">
        <ele>1431.4</ele>
      </trkpt>
      <trkpt lat="44.10666" lon="5.72547">
        <ele>1434.1</ele>
      </trkpt>
      <trkpt lat="44.10676" lon="5.72552">
        <ele>1435.2</ele>
      </trkpt>
      <trkpt lat="44.10683" lon="5.7255">
        <ele>1436.8</ele>
      </trkpt>
      <trkpt lat="44.10687" lon="5.72542">
        <ele>1438.7</ele>
      </trkpt>
      <trkpt lat="44.10686" lon="5.72534">
        <ele>1439.7</ele>
      </trkpt>
      <trkpt lat="44.10675" lon="5.72511">
        <ele>1441</ele>
      </trkpt>
      <trkpt lat="44.10673" lon="5.72483">
        <ele>1442.8</ele>
      </trkpt>
      <trkpt lat="44.10686" lon="5.72448">
        <ele>1446.6</ele>
      </trkpt>
      <trkpt lat="44.10706" lon="5.7241">
        <ele>1451.5</ele>
      </trkpt>
      <trkpt lat="44.10719" lon="5.72378">
        <ele>1454.1</ele>
      </trkpt>
      <trkpt lat="44.10736" lon="5.72335">
        <ele>1458.4</ele>
      </trkpt>
      <trkpt lat="44.1076" lon="5.7226">
        <ele>1466.7</ele>
      </trkpt>
      <trkpt lat="44.10771" lon="5.72217">
        <ele>1470.7</ele>
      </trkpt>
      <trkpt lat="44.10772" lon="5.72195">
        <ele>1471.7</ele>
      </trkpt>
      <trkpt lat="44.10767" lon="5.72161">
        <ele>1472.6</ele>
      </trkpt>
      <trkpt lat="44.10755" lon="5.72132">
        <ele>1473.6</ele>
      </trkpt>
      <trkpt lat="44.10776" lon="5.7212">
        <ele>1475.3</ele>
      </trkpt>
      <trkpt lat="44.10795" lon="5.72118">
        <ele>1475.9</ele>
      </trkpt>
      <trkpt lat="44.1081" lon="5.72128">
        <ele>1476.6</ele>
      </trkpt>
      <trkpt lat="44.10827" lon="5.72139">
        <ele>1478.2</ele>
      </trkpt>
      <trkpt lat="44.10845" lon="5.72149">
        <ele>1480.1</ele>
      </trkpt>
      <trkpt lat="44.10872" lon="5.72178">
        <ele>1485.5</ele>
      </trkpt>
      <trkpt lat="44.10896" lon="5.72195">
        <ele>1490.2</ele>
      </trkpt>
      <trkpt lat="44.10928" lon="5.72213">
        <ele>1497.1</ele>
      </trkpt>
      <trkpt lat="44.1096" lon="5.72237">
        <ele>1505.5</ele>
      </trkpt>
      <trkpt lat="44.11014" lon="5.72267">
        <ele>1516.6</ele>
      </trkpt>
      <trkpt lat="44.1107" lon="5.72275">
        <ele>1525.8</ele>
      </trkpt>
      <trkpt lat="44.11132" lon="5.72271">
        <ele>1533.9</ele>
      </trkpt>
      <trkpt lat="44.11227" lon="5.72278">
        <ele>1543.2</ele>
      </trkpt>
      <trkpt lat="44.11283" lon="5.72297">
        <ele>1551</ele>
      </trkpt>
      <trkpt lat="44.11308" lon="5.72317">
        <ele>1557.6</ele>
      </trkpt>
      <trkpt lat="44.1133" lon="5.72327">
        <ele>1563.2</ele>
      </trkpt>
      <trkpt lat="44.11358" lon="5.72336">
        <ele>1568.3</ele>
      </trkpt>
      <trkpt lat="44.11429" lon="5.72363">
        <ele>1579.2</ele>
      </trkpt>
      <trkpt lat="44.11468" lon="5.72381">
        <ele>1585.6</ele>
      </trkpt>
      <trkpt lat="44.11493" lon="5.72391">
        <ele>1590.3</ele>
      </trkpt>
      <trkpt lat="44.11514" lon="5.72399">
        <ele>1593.8</ele>
      </trkpt>
      <trkpt lat="44.11538" lon="5.72398">
        <ele>1595.9</ele>
      </trkpt>
      <trkpt lat="44.11556" lon="5.724">
        <ele>1597.8</ele>
      </trkpt>
      <trkpt lat="44.11589" lon="5.72398">
        <ele>1600.7</ele>
      </trkpt>
      <trkpt lat="44.11631" lon="5.724">
        <ele>1604.5</ele>
      </trkpt>
      <trkpt lat="44.11696" lon="5.72419">
        <ele>1608.5</ele>
      </trkpt>
      <trkpt lat="44.11726" lon="5.72424">
        <ele>1607.1</ele>
      </trkpt>
      <trkpt lat="44.11808" lon="5.72463">
        <ele>1611.2</ele>
      </trkpt>
      <trkpt lat="44.11838" lon="5.72467">
        <ele>1614.4</ele>
      </trkpt>
      <trkpt lat="44.11866" lon="5.72494">
        <ele>1618</ele>
      </trkpt>
      <trkpt lat="44.11907" lon="5.72544">
        <ele>1620.6</ele>
      </trkpt>
      <trkpt lat="44.11932" lon="5.7255">
        <ele>1620</ele>
      </trkpt>
      <trkpt lat="44.12019" lon="5.72559">
        <ele>1609.1</ele>
      </trkpt>
      <trkpt lat="44.12056" lon="5.72576">
        <ele>1603.9</ele>
      </trkpt>
      <trkpt lat="44.12128" lon="5.72585">
        <ele>1593.4</ele>
      </trkpt>
      <trkpt lat="44.12172" lon="5.72595">
        <ele>1587.5</ele>
      </trkpt>
      <trkpt lat="44.12252" lon="5.72643">
        <ele>1586.8</ele>
      </trkpt>
      <trkpt lat="44.1234" lon="5.72701">
        <ele>1591</ele>
      </trkpt>
      <trkpt lat="44.12439" lon="5.72743">
        <ele>1594.5</ele>
      </trkpt>
      <trkpt lat="44.12485" lon="5.7278">
        <ele>1595.5</ele>
      </trkpt>
      <trkpt lat="44.12555" lon="5.72858">
        <ele>1594.7</ele>
      </trkpt>
      <trkpt lat="44.12608" lon="5.72976">
        <ele>1590.5</ele>
      </trkpt>
      <trkpt lat="44.12618" lon="5.73017">
        <ele>1587.8</ele>
      </trkpt>
      <trkpt lat="44.12634" lon="5.73057">
        <ele>1583.5</ele>
      </trkpt>
      <trkpt lat="44.12639" lon="5.73099">
        <ele>1578.2</ele>
      </trkpt>
      <trkpt lat="44.1265" lon="5.73136">
        <ele>1571.3</ele>
      </trkpt>
      <trkpt lat="44.12706" lon="5.73276">
        <ele>1544.2</ele>
      </trkpt>
      <trkpt lat="44.12721" lon="5.73306">
        <ele>1537.2</ele>
      </trkpt>
      <trkpt lat="44.12753" lon="5.73409">
        <ele>1507.7</ele>
      </trkpt>
      <trkpt lat="44.12769" lon="5.735">
        <ele>1484.8</ele>
      </trkpt>
      <trkpt lat="44.12778" lon="5.73512">
        <ele>1480.5</ele>
      </trkpt>
      <trkpt lat="44.12787" lon="5.73563">
        <ele>1466.7</ele>
      </trkpt>
      <trkpt lat="44.12782" lon="5.73603">
        <ele>1458</ele>
      </trkpt>
      <trkpt lat="44.12772" lon="5.7364">
        <ele>1450.7</ele>
      </trkpt>
      <trkpt lat="44.12773" lon="5.73656">
        <ele>1446.5</ele>
      </trkpt>
      <trkpt lat="44.12792" lon="5.73694">
        <ele>1432.6</ele>
      </trkpt>
      <trkpt lat="44.12813" lon="5.73722">
        <ele>1421.7</ele>
      </trkpt>
      <trkpt lat="44.12831" lon="5.73792">
        <ele>1402.1</ele>
      </trkpt>
      <trkpt lat="44.1285" lon="5.73829">
        <ele>1389.5</ele>
      </trkpt>
      <trkpt lat="44.12871" lon="5.73856">
        <ele>1380.4</ele>
      </trkpt>
      <trkpt lat="44.12896" lon="5.73884">
        <ele>1373.3</ele>
      </trkpt>
      <trkpt lat="44.12904" lon="5.73907">
        <ele>1370.3</ele>
      </trkpt>
      <trkpt lat="44.12912" lon="5.73941">
        <ele>1370.8</ele>
      </trkpt>
      <trkpt lat="44.12915" lon="5.73941">
        <ele>1371</ele>
      </trkpt>
      <trkpt lat="44.12912" lon="5.73941">
        <ele>1370.8</ele>
      </trkpt>
      <trkpt lat="44.12928" lon="5.73941">
        <ele>1368.4</ele>
      </trkpt>
      <trkpt lat="44.12938" lon="5.73826">
        <ele>1363.8</ele>
      </trkpt>
      <trkpt lat="44.12945" lon="5.73873">
        <ele>1360.1</ele>
      </trkpt>
      <trkpt lat="44.12964" lon="5.73919">
        <ele>1355.8</ele>
      </trkpt>
      <trkpt lat="44.12991" lon="5.73933">
        <ele>1351.6</ele>
      </trkpt>
      <trkpt lat="44.13093" lon="5.74014">
        <ele>1330.2</ele>
      </trkpt>
      <trkpt lat="44.13169" lon="5.74072">
        <ele>1318.8</ele>
      </trkpt>
      <trkpt lat="44.13235" lon="5.741">
        <ele>1301.8</ele>
      </trkpt>
      <trkpt lat="44.13302" lon="5.74158">
        <ele>1290.1</ele>
      </trkpt>
      <trkpt lat="44.13383" lon="5.7421">
        <ele>1271.9</ele>
      </trkpt>
      <trkpt lat="44.13491" lon="5.74246">
        <ele>1250</ele>
      </trkpt>
      <trkpt lat="44.13523" lon="5.74223">
        <ele>1229.5</ele>
      </trkpt>
      <trkpt lat="44.13561" lon="5.74238">
        <ele>1221.2</ele>
      </trkpt>
      <trkpt lat="44.13636" lon="5.74291">
        <ele>1202.6</ele>
      </trkpt>
      <trkpt lat="44.13645" lon="5.7432">
        <ele>1206.4</ele>
      </trkpt>
      <trkpt lat="44.13646" lon="5.74361">
        <ele>1215.9</ele>
      </trkpt>
      <trkpt lat="44.13656" lon="5.74373">
        <ele>1212.5</ele>
      </trkpt>
      <trkpt lat="44.13683" lon="5.74385">
        <ele>1200.5</ele>
      </trkpt>
      <trkpt lat="44.13694" lon="5.7442">
        <ele>1204.4</ele>
      </trkpt>
      <trkpt lat="44.13739" lon="5.74433">
        <ele>1187.7</ele>
      </trkpt>
      <trkpt lat="44.13784" lon="5.74464">
        <ele>1171.9</ele>
      </trkpt>
      <trkpt lat="44.13805" lon="5.74492">
        <ele>1168.1</ele>
      </trkpt>
      <trkpt lat="44.13823" lon="5.74562">
        <ele>1170</ele>
      </trkpt>
      <trkpt lat="44.13826" lon="5.74585">
        <ele>1172</ele>
      </trkpt>
      <trkpt lat="44.13867" lon="5.74604">
        <ele>1154.8</ele>
      </trkpt>
      <trkpt lat="44.13883" lon="5.74631">
        <ele>1151.4</ele>
      </trkpt>
      <trkpt lat="44.13904" lon="5.74644">
        <ele>1143.6</ele>
      </trkpt>
      <trkpt lat="44.13902" lon="5.74679">
        <ele>1151</ele>
      </trkpt>
      <trkpt lat="44.13925" lon="5.74697">
        <ele>1145.1</ele>
      </trkpt>
      <trkpt lat="44.13951" lon="5.74723">
        <ele>1138.4</ele>
      </trkpt>
      <trkpt lat="44.13974" lon="5.74791">
        <ele>1138.6</ele>
      </trkpt>
      <trkpt lat="44.13999" lon="5.74837">
        <ele>1132.8</ele>
      </trkpt>
      <trkpt lat="44.14043" lon="5.74901">
        <ele>1121.2</ele>
      </trkpt>
      <trkpt lat="44.14063" lon="5.74964">
        <ele>1111.5</ele>
      </trkpt>
      <trkpt lat="44.14077" lon="5.75029">
        <ele>1099.8</ele>
      </trkpt>
      <trkpt lat="44.14073" lon="5.75058">
        <ele>1097.8</ele>
      </trkpt>
      <trkpt lat="44.1405" lon="5.75076">
        <ele>1105.6</ele>
      </trkpt>
      <trkpt lat="44.14044" lon="5.75092">
        <ele>1107.5</ele>
      </trkpt>
      <trkpt lat="44.14042" lon="5.75128">
        <ele>1108.6</ele>
      </trkpt>
      <trkpt lat="44.14065" lon="5.75149">
        <ele>1099.2</ele>
      </trkpt>
      <trkpt lat="44.14119" lon="5.75209">
        <ele>1081.5</ele>
      </trkpt>
      <trkpt lat="44.14133" lon="5.75223">
        <ele>1077.7</ele>
      </trkpt>
      <trkpt lat="44.14139" lon="5.75242">
        <ele>1076.4</ele>
      </trkpt>
      <trkpt lat="44.14131" lon="5.75264">
        <ele>1076.8</ele>
      </trkpt>
      <trkpt lat="44.14088" lon="5.75325">
        <ele>1075.8</ele>
      </trkpt>
      <trkpt lat="44.14079" lon="5.7535">
        <ele>1075.9</ele>
      </trkpt>
      <trkpt lat="44.14081" lon="5.75371">
        <ele>1075.2</ele>
      </trkpt>
      <trkpt lat="44.1409" lon="5.75379">
        <ele>1073.3</ele>
      </trkpt>
      <trkpt lat="44.14116" lon="5.75396">
        <ele>1068.7</ele>
      </trkpt>
      <trkpt lat="44.14133" lon="5.75439">
        <ele>1066.3</ele>
      </trkpt>
      <trkpt lat="44.1416" lon="5.75499">
        <ele>1063.2</ele>
      </trkpt>
      <trkpt lat="44.14173" lon="5.75515">
        <ele>1061</ele>
      </trkpt>
      <trkpt lat="44.14199" lon="5.75525">
        <ele>1060.4</ele>
      </trkpt>
      <trkpt lat="44.14192" lon="5.75548">
        <ele>1059.6</ele>
      </trkpt>
      <trkpt lat="44.14182" lon="5.75579">
        <ele>1057.9</ele>
      </trkpt>
      <trkpt lat="44.14151" lon="5.75672">
        <ele>1053.8</ele>
      </trkpt>
      <trkpt lat="44.14132" lon="5.75717">
        <ele>1052.5</ele>
      </trkpt>
      <trkpt lat="44.14102" lon="5.75778">
        <ele>1050.9</ele>
      </trkpt>
      <trkpt lat="44.14096" lon="5.75816">
        <ele>1048.1</ele>
      </trkpt>
      <trkpt lat="44.14057" lon="5.75903">
        <ele>1047.2</ele>
      </trkpt>
      <trkpt lat="44.14017" lon="5.75987">
        <ele>1045.1</ele>
      </trkpt>
      <trkpt lat="44.13996" lon="5.76022">
        <ele>1045.5</ele>
      </trkpt>
      <trkpt lat="44.13981" lon="5.76031">
        <ele>1046.1</ele>
      </trkpt>
      <trkpt lat="44.13965" lon="5.7607">
        <ele>1044.6</ele>
      </trkpt>
      <trkpt lat="44.13947" lon="5.7611">
        <ele>1041.5</ele>
      </trkpt>
      <trkpt lat="44.13931" lon="5.76139">
        <ele>1037.3</ele>
      </trkpt>
      <trkpt lat="44.13908" lon="5.76211">
        <ele>1033.2</ele>
      </trkpt>
      <trkpt lat="44.13909" lon="5.7627">
        <ele>1031.3</ele>
      </trkpt>
      <trkpt lat="44.13899" lon="5.76326">
        <ele>1031.2</ele>
      </trkpt>
      <trkpt lat="44.13894" lon="5.76415">
        <ele>1024</ele>
      </trkpt>
      <trkpt lat="44.13883" lon="5.76449">
        <ele>1022.1</ele>
      </trkpt>
      <trkpt lat="44.13851" lon="5.76542">
        <ele>1018.1</ele>
      </trkpt>
      <trkpt lat="44.13846" lon="5.7656">
        <ele>1017.9</ele>
      </trkpt>
      <trkpt lat="44.1383" lon="5.76586">
        <ele>1020.4</ele>
      </trkpt>
      <trkpt lat="44.13833" lon="5.76607">
        <ele>1021.4</ele>
      </trkpt>
      <trkpt lat="44.13847" lon="5.76645">
        <ele>1022.1</ele>
      </trkpt>
      <trkpt lat="44.13846" lon="5.76693">
        <ele>1025.7</ele>
      </trkpt>
      <trkpt lat="44.13849" lon="5.76744">
        <ele>1028.1</ele>
      </trkpt>
      <trkpt lat="44.13847" lon="5.76774">
        <ele>1028.2</ele>
      </trkpt>
      <trkpt lat="44.13849" lon="5.76803">
        <ele>1027.6</ele>
      </trkpt>
      <trkpt lat="44.13856" lon="5.76831">
        <ele>1027.6</ele>
      </trkpt>
      <trkpt lat="44.13865" lon="5.76836">
        <ele>1028.1</ele>
      </trkpt>
      <trkpt lat="44.13882" lon="5.76837">
        <ele>1029.5</ele>
      </trkpt>
      <trkpt lat="44.13892" lon="5.76831">
        <ele>1030.1</ele>
      </trkpt>
      <trkpt lat="44.13909" lon="5.76802">
        <ele>1028.2</ele>
      </trkpt>
      <trkpt lat="44.13917" lon="5.76782">
        <ele>1025.9</ele>
      </trkpt>
      <trkpt lat="44.13924" lon="5.76772">
        <ele>1025.5</ele>
      </trkpt>
      <trkpt lat="44.13933" lon="5.76763">
        <ele>1025.3</ele>
      </trkpt>
      <trkpt lat="44.1399" lon="5.76729">
        <ele>1023.5</ele>
      </trkpt>
      <trkpt lat="44.14019" lon="5.76715">
        <ele>1017.5</ele>
      </trkpt>
      <trkpt lat="44.14019" lon="5.76715">
        <ele>1017.5</ele>
      </trkpt>
      <trkpt lat="44.14027" lon="5.76712">
        <ele>1016.8</ele>
      </trkpt>
      <trkpt lat="44.14035" lon="5.7671">
        <ele>1016.2</ele>
      </trkpt>
      <trkpt lat="44.14042" lon="5.76706">
        <ele>1015.4</ele>
      </trkpt>
      <trkpt lat="44.1405" lon="5.76702">
        <ele>1014.7</ele>
      </trkpt>
      <trkpt lat="44.14058" lon="5.76699">
        <ele>1014</ele>
      </trkpt>
      <trkpt lat="44.14065" lon="5.76697">
        <ele>1013.4</ele>
      </trkpt>
      <trkpt lat="44.14073" lon="5.76695">
        <ele>1012.6</ele>
      </trkpt>
      <trkpt lat="44.14081" lon="5.76693">
        <ele>1011.9</ele>
      </trkpt>
      <trkpt lat="44.14088" lon="5.7669">
        <ele>1000.5</ele>
      </trkpt>
      <trkpt lat="44.14095" lon="5.76687">
        <ele>1000</ele>
      </trkpt>
      <trkpt lat="44.14102" lon="5.76685">
        <ele>999.1</ele>
      </trkpt>
      <trkpt lat="44.14109" lon="5.76683">
        <ele>998</ele>
      </trkpt>
      <trkpt lat="44.14115" lon="5.76681">
        <ele>996.9</ele>
      </trkpt>
      <trkpt lat="44.1412" lon="5.7668">
        <ele>996.1</ele>
      </trkpt>
      <trkpt lat="44.14125" lon="5.76679">
        <ele>995.2</ele>
      </trkpt>
      <trkpt lat="44.1413" lon="5.76676">
        <ele>994.3</ele>
      </trkpt>
      <trkpt lat="44.14134" lon="5.76672">
        <ele>993.5</ele>
      </trkpt>
      <trkpt lat="44.1414" lon="5.7667">
        <ele>992.5</ele>
      </trkpt>
      <trkpt lat="44.14145" lon="5.76667">
        <ele>991.6</ele>
      </trkpt>
      <trkpt lat="44.1415" lon="5.76663">
        <ele>991.2</ele>
      </trkpt>
      <trkpt lat="44.14152" lon="5.76675">
        <ele>990.3</ele>
      </trkpt>
      <trkpt lat="44.1415" lon="5.76681">
        <ele>990.9</ele>
      </trkpt>
      <trkpt lat="44.14145" lon="5.7669">
        <ele>991.8</ele>
      </trkpt>
      <trkpt lat="44.14143" lon="5.76693">
        <ele>992.1</ele>
      </trkpt>
      <trkpt lat="44.14137" lon="5.767">
        <ele>992.8</ele>
      </trkpt>
      <trkpt lat="44.14136" lon="5.76703">
        <ele>993</ele>
      </trkpt>
      <trkpt lat="44.14133" lon="5.76711">
        <ele>993.3</ele>
      </trkpt>
      <trkpt lat="44.14131" lon="5.76714">
        <ele>993.4</ele>
      </trkpt>
      <trkpt lat="44.14129" lon="5.76723">
        <ele>993.7</ele>
      </trkpt>
      <trkpt lat="44.14128" lon="5.76728">
        <ele>994</ele>
      </trkpt>
      <trkpt lat="44.14124" lon="5.76738">
        <ele>995.3</ele>
      </trkpt>
      <trkpt lat="44.14123" lon="5.76743">
        <ele>995.9</ele>
      </trkpt>
      <trkpt lat="44.14122" lon="5.76753">
        <ele>998.7</ele>
      </trkpt>
      <trkpt lat="44.14122" lon="5.76759">
        <ele>998.6</ele>
      </trkpt>
      <trkpt lat="44.14126" lon="5.76769">
        <ele>996.9</ele>
      </trkpt>
      <trkpt lat="44.14128" lon="5.76768">
        <ele>996.1</ele>
      </trkpt>
      <trkpt lat="44.14132" lon="5.76758">
        <ele>993.6</ele>
      </trkpt>
      <trkpt lat="44.14133" lon="5.76754">
        <ele>992.9</ele>
      </trkpt>
      <trkpt lat="44.14136" lon="5.76748">
        <ele>989.7</ele>
      </trkpt>
      <trkpt lat="44.14138" lon="5.76744">
        <ele>988.6</ele>
      </trkpt>
      <trkpt lat="44.14145" lon="5.76739">
        <ele>986.2</ele>
      </trkpt>
      <trkpt lat="44.14148" lon="5.76737">
        <ele>985.1</ele>
      </trkpt>
      <trkpt lat="44.14155" lon="5.76732">
        <ele>984</ele>
      </trkpt>
      <trkpt lat="44.14156" lon="5.76731">
        <ele>984</ele>
      </trkpt>
      <trkpt lat="44.14156" lon="5.76738">
        <ele>980.7</ele>
      </trkpt>
      <trkpt lat="44.14154" lon="5.76743">
        <ele>980.3</ele>
      </trkpt>
      <trkpt lat="44.14149" lon="5.76752">
        <ele>982.9</ele>
      </trkpt>
      <trkpt lat="44.14148" lon="5.76757">
        <ele>984.3</ele>
      </trkpt>
      <trkpt lat="44.14149" lon="5.76767">
        <ele>986.2</ele>
      </trkpt>
      <trkpt lat="44.14151" lon="5.76773">
        <ele>986.7</ele>
      </trkpt>
      <trkpt lat="44.14158" lon="5.76777">
        <ele>985.7</ele>
      </trkpt>
      <trkpt lat="44.14161" lon="5.76782">
        <ele>985.9</ele>
      </trkpt>
      <trkpt lat="44.14164" lon="5.76787">
        <ele>985.9</ele>
      </trkpt>
      <trkpt lat="44.14168" lon="5.76791">
        <ele>944.2</ele>
      </trkpt>
      <trkpt lat="44.14175" lon="5.76797">
        <ele>942.7</ele>
      </trkpt>
      <trkpt lat="44.14179" lon="5.768">
        <ele>942.1</ele>
      </trkpt>
      <trkpt lat="44.14181" lon="5.76808">
        <ele>942.2</ele>
      </trkpt>
      <trkpt lat="44.14182" lon="5.76813">
        <ele>942.8</ele>
      </trkpt>
      <trkpt lat="44.14182" lon="5.76823">
        <ele>945.8</ele>
      </trkpt>
      <trkpt lat="44.14181" lon="5.76829">
        <ele>947.8</ele>
      </trkpt>
      <trkpt lat="44.14178" lon="5.76839">
        <ele>946.8</ele>
      </trkpt>
      <trkpt lat="44.14177" lon="5.76842">
        <ele>946.3</ele>
      </trkpt>
      <trkpt lat="44.14173" lon="5.76851">
        <ele>943.2</ele>
      </trkpt>
      <trkpt lat="44.14172" lon="5.76854">
        <ele>942.1</ele>
      </trkpt>
      <trkpt lat="44.14173" lon="5.76866">
        <ele>938.2</ele>
      </trkpt>
      <trkpt lat="44.14174" lon="5.7687">
        <ele>937.5</ele>
      </trkpt>
      <trkpt lat="44.14175" lon="5.76879">
        <ele>937.4</ele>
      </trkpt>
      <trkpt lat="44.14174" lon="5.76884">
        <ele>938.3</ele>
      </trkpt>
      <trkpt lat="44.14173" lon="5.76894">
        <ele>942.3</ele>
      </trkpt>
      <trkpt lat="44.14171" lon="5.76899">
        <ele>945.7</ele>
      </trkpt>
      <trkpt lat="44.14169" lon="5.7691">
        <ele>956.5</ele>
      </trkpt>
      <trkpt lat="44.14168" lon="5.76914">
        <ele>963</ele>
      </trkpt>
      <trkpt lat="44.1417" lon="5.76922">
        <ele>956.8</ele>
      </trkpt>
      <trkpt lat="44.14169" lon="5.76923">
        <ele>956.1</ele>
      </trkpt>
      <trkpt lat="44.14168" lon="5.76923">
        <ele>956.8</ele>
      </trkpt>
      <trkpt lat="44.14172" lon="5.76914">
        <ele>958.7</ele>
      </trkpt>
      <trkpt lat="44.14174" lon="5.76911">
        <ele>953.9</ele>
      </trkpt>
      <trkpt lat="44.14178" lon="5.76904">
        <ele>945.5</ele>
      </trkpt>
      <trkpt lat="44.14179" lon="5.769">
        <ele>942.5</ele>
      </trkpt>
      <trkpt lat="44.14187" lon="5.76903">
        <ele>937.8</ele>
      </trkpt>
      <trkpt lat="44.14188" lon="5.76903">
        <ele>937</ele>
      </trkpt>
      <trkpt lat="44.1419" lon="5.76896">
        <ele>933.9</ele>
      </trkpt>
      <trkpt lat="44.14191" lon="5.7689">
        <ele>932.5</ele>
      </trkpt>
      <trkpt lat="44.14191" lon="5.76883">
        <ele>931.4</ele>
      </trkpt>
      <trkpt lat="44.14192" lon="5.76877">
        <ele>930.6</ele>
      </trkpt>
      <trkpt lat="44.14193" lon="5.76868">
        <ele>930.2</ele>
      </trkpt>
      <trkpt lat="44.14194" lon="5.76862">
        <ele>930.3</ele>
      </trkpt>
      <trkpt lat="44.14202" lon="5.76863">
        <ele>925.9</ele>
      </trkpt>
      <trkpt lat="44.14204" lon="5.76868">
        <ele>924.8</ele>
      </trkpt>
      <trkpt lat="44.14206" lon="5.76874">
        <ele>923.6</ele>
      </trkpt>
      <trkpt lat="44.14208" lon="5.76881">
        <ele>922.6</ele>
      </trkpt>
      <trkpt lat="44.14209" lon="5.76888">
        <ele>922.1</ele>
      </trkpt>
      <trkpt lat="44.14208" lon="5.76894">
        <ele>922.1</ele>
      </trkpt>
      <trkpt lat="44.14208" lon="5.76904">
        <ele>922.4</ele>
      </trkpt>
      <trkpt lat="44.14208" lon="5.7691">
        <ele>922.4</ele>
      </trkpt>
      <trkpt lat="44.14215" lon="5.76912">
        <ele>916.1</ele>
      </trkpt>
      <trkpt lat="44.14217" lon="5.7691">
        <ele>915</ele>
      </trkpt>
      <trkpt lat="44.14222" lon="5.76901">
        <ele>911.9</ele>
      </trkpt>
      <trkpt lat="44.14224" lon="5.76897">
        <ele>911.9</ele>
      </trkpt>
      <trkpt lat="44.14228" lon="5.76887">
        <ele>911.3</ele>
      </trkpt>
      <trkpt lat="44.1423" lon="5.76887">
        <ele>910.6</ele>
      </trkpt>
      <trkpt lat="44.14234" lon="5.76896">
        <ele>905.8</ele>
      </trkpt>
      <trkpt lat="44.14234" lon="5.76901">
        <ele>903</ele>
      </trkpt>
      <trkpt lat="44.14235" lon="5.76912">
        <ele>897.5</ele>
      </trkpt>
      <trkpt lat="44.14236" lon="5.76917">
        <ele>893.4</ele>
      </trkpt>
      <trkpt lat="44.14244" lon="5.76915">
        <ele>884.4</ele>
      </trkpt>
      <trkpt lat="44.14245" lon="5.76911">
        <ele>886.3</ele>
      </trkpt>
      <trkpt lat="44.14247" lon="5.76904">
        <ele>893.7</ele>
      </trkpt>
      <trkpt lat="44.14247" lon="5.76899">
        <ele>897.2</ele>
      </trkpt>
      <trkpt lat="44.1425" lon="5.76888">
        <ele>903.1</ele>
      </trkpt>
      <trkpt lat="44.14251" lon="5.76882">
        <ele>870.9</ele>
      </trkpt>
      <trkpt lat="44.14254" lon="5.76872">
        <ele>871.8</ele>
      </trkpt>
      <trkpt lat="44.14255" lon="5.76867">
        <ele>872.4</ele>
      </trkpt>
      <trkpt lat="44.14258" lon="5.76857">
        <ele>874.1</ele>
      </trkpt>
      <trkpt lat="44.14259" lon="5.76852">
        <ele>875.2</ele>
      </trkpt>
      <trkpt lat="44.14261" lon="5.76841">
        <ele>877.6</ele>
      </trkpt>
      <trkpt lat="44.14262" lon="5.76831">
        <ele>886.9</ele>
      </trkpt>
      <trkpt lat="44.14265" lon="5.7682">
        <ele>888.2</ele>
      </trkpt>
      <trkpt lat="44.14268" lon="5.76814">
        <ele>889</ele>
      </trkpt>
      <trkpt lat="44.14271" lon="5.76805">
        <ele>890.3</ele>
      </trkpt>
      <trkpt lat="44.14273" lon="5.76802">
        <ele>890.8</ele>
      </trkpt>
      <trkpt lat="44.14277" lon="5.76813">
        <ele>889</ele>
      </trkpt>
      <trkpt lat="44.14277" lon="5.76818">
        <ele>888.3</ele>
      </trkpt>
      <trkpt lat="44.14278" lon="5.76827">
        <ele>887.4</ele>
      </trkpt>
      <trkpt lat="44.14279" lon="5.76832">
        <ele>887</ele>
      </trkpt>
      <trkpt lat="44.14281" lon="5.76843">
        <ele>871.9</ele>
      </trkpt>
      <trkpt lat="44.14283" lon="5.76846">
        <ele>871.4</ele>
      </trkpt>
      <trkpt lat="44.14288" lon="5.76853">
        <ele>869.7</ele>
      </trkpt>
      <trkpt lat="44.1429" lon="5.76858">
        <ele>869</ele>
      </trkpt>
      <trkpt lat="44.14298" lon="5.76859">
        <ele>867.7</ele>
      </trkpt>
      <trkpt lat="44.14299" lon="5.76857">
        <ele>867.7</ele>
      </trkpt>
      <trkpt lat="44.14307" lon="5.76857">
        <ele>866.9</ele>
      </trkpt>
      <trkpt lat="44.14309" lon="5.76862">
        <ele>866.1</ele>
      </trkpt>
      <trkpt lat="44.14314" lon="5.7687">
        <ele>864.5</ele>
      </trkpt>
      <trkpt lat="44.14315" lon="5.76872">
        <ele>864</ele>
      </trkpt>
      <trkpt lat="44.14316" lon="5.76873">
        <ele>863.9</ele>
      </trkpt>
      <trkpt lat="44.14316" lon="5.76874">
        <ele>863.6</ele>
      </trkpt>
      <trkpt lat="44.14316" lon="5.76874">
        <ele>863.6</ele>
      </trkpt>
      <trkpt lat="44.14322" lon="5.76878">
        <ele>862.1</ele>
      </trkpt>
      <trkpt lat="44.14325" lon="5.76882">
        <ele>860.8</ele>
      </trkpt>
      <trkpt lat="44.14332" lon="5.76891">
        <ele>856.9</ele>
      </trkpt>
      <trkpt lat="44.14338" lon="5.76899">
        <ele>846.8</ele>
      </trkpt>
      <trkpt lat="44.14342" lon="5.76905">
        <ele>845.5</ele>
      </trkpt>
      <trkpt lat="44.14348" lon="5.76909">
        <ele>845.7</ele>
      </trkpt>
      <trkpt lat="44.14351" lon="5.76913">
        <ele>845.6</ele>
      </trkpt>
      <trkpt lat="44.14356" lon="5.7692">
        <ele>831.3</ele>
      </trkpt>
      <trkpt lat="44.14361" lon="5.76928">
        <ele>829.8</ele>
      </trkpt>
      <trkpt lat="44.14365" lon="5.76936">
        <ele>828.2</ele>
      </trkpt>
      <trkpt lat="44.1437" lon="5.76942">
        <ele>827</ele>
      </trkpt>
      <trkpt lat="44.14373" lon="5.76949">
        <ele>825.8</ele>
      </trkpt>
      <trkpt lat="44.14376" lon="5.76955">
        <ele>824.7</ele>
      </trkpt>
      <trkpt lat="44.14378" lon="5.76961">
        <ele>823.6</ele>
      </trkpt>
      <trkpt lat="44.1438" lon="5.76967">
        <ele>822.6</ele>
      </trkpt>
      <trkpt lat="44.14383" lon="5.76973">
        <ele>821.5</ele>
      </trkpt>
      <trkpt lat="44.14387" lon="5.76978">
        <ele>820.5</ele>
      </trkpt>
      <trkpt lat="44.14391" lon="5.76983">
        <ele>819.1</ele>
      </trkpt>
      <trkpt lat="44.14394" lon="5.76987">
        <ele>818</ele>
      </trkpt>
      <trkpt lat="44.14402" lon="5.76987">
        <ele>816.3</ele>
      </trkpt>
      <trkpt lat="44.14408" lon="5.76986">
        <ele>815.7</ele>
      </trkpt>
      <trkpt lat="44.14413" lon="5.76983">
        <ele>815.8</ele>
      </trkpt>
      <trkpt lat="44.1442" lon="5.76981">
        <ele>816.2</ele>
      </trkpt>
      <trkpt lat="44.14426" lon="5.76988">
        <ele>814.6</ele>
      </trkpt>
      <trkpt lat="44.14427" lon="5.76995">
        <ele>813.1</ele>
      </trkpt>
      <trkpt lat="44.14429" lon="5.77">
        <ele>802.9</ele>
      </trkpt>
      <trkpt lat="44.14433" lon="5.77006">
        <ele>801.8</ele>
      </trkpt>
      <trkpt lat="44.14437" lon="5.7701">
        <ele>800.7</ele>
      </trkpt>
      <trkpt lat="44.14442" lon="5.77014">
        <ele>799.9</ele>
      </trkpt>
      <trkpt lat="44.14446" lon="5.77017">
        <ele>799.3</ele>
      </trkpt>
      <trkpt lat="44.14451" lon="5.7702">
        <ele>798.9</ele>
      </trkpt>
      <trkpt lat="44.14456" lon="5.77023">
        <ele>798.6</ele>
      </trkpt>
      <trkpt lat="44.1446" lon="5.77027">
        <ele>798</ele>
      </trkpt>
      <trkpt lat="44.14458" lon="5.77039">
        <ele>796</ele>
      </trkpt>
      <trkpt lat="44.14455" lon="5.77043">
        <ele>795.2</ele>
      </trkpt>
      <trkpt lat="44.14448" lon="5.77052">
        <ele>793.6</ele>
      </trkpt>
      <trkpt lat="44.14443" lon="5.77054">
        <ele>793</ele>
      </trkpt>
      <trkpt lat="44.14436" lon="5.77061">
        <ele>791.2</ele>
      </trkpt>
      <trkpt lat="44.14433" lon="5.77066">
        <ele>789.9</ele>
      </trkpt>
      <trkpt lat="44.1443" lon="5.77071">
        <ele>788.2</ele>
      </trkpt>
      <trkpt lat="44.14426" lon="5.77078">
        <ele>786</ele>
      </trkpt>
      <trkpt lat="44.14419" lon="5.77084">
        <ele>780</ele>
      </trkpt>
      <trkpt lat="44.14413" lon="5.77085">
        <ele>779.9</ele>
      </trkpt>
      <trkpt lat="44.14408" lon="5.77087">
        <ele>778.6</ele>
      </trkpt>
      <trkpt lat="44.14402" lon="5.77088">
        <ele>777.7</ele>
      </trkpt>
      <trkpt lat="44.14398" lon="5.77088">
        <ele>777.2</ele>
      </trkpt>
      <trkpt lat="44.14394" lon="5.77092">
        <ele>776.7</ele>
      </trkpt>
      <trkpt lat="44.14389" lon="5.77095">
        <ele>776.3</ele>
      </trkpt>
      <trkpt lat="44.14384" lon="5.77097">
        <ele>776.2</ele>
      </trkpt>
      <trkpt lat="44.14378" lon="5.771">
        <ele>776.1</ele>
      </trkpt>
      <trkpt lat="44.14374" lon="5.77105">
        <ele>775.8</ele>
      </trkpt>
      <trkpt lat="44.14371" lon="5.77111">
        <ele>775.3</ele>
      </trkpt>
      <trkpt lat="44.14371" lon="5.77119">
        <ele>774.1</ele>
      </trkpt>
      <trkpt lat="44.14371" lon="5.77126">
        <ele>773.1</ele>
      </trkpt>
      <trkpt lat="44.14372" lon="5.77134">
        <ele>771.9</ele>
      </trkpt>
      <trkpt lat="44.14375" lon="5.77142">
        <ele>770.7</ele>
      </trkpt>
      <trkpt lat="44.14378" lon="5.77149">
        <ele>769.5</ele>
      </trkpt>
      <trkpt lat="44.14381" lon="5.77156">
        <ele>768.6</ele>
      </trkpt>
      <trkpt lat="44.14383" lon="5.77162">
        <ele>767.8</ele>
      </trkpt>
      <trkpt lat="44.14388" lon="5.77171">
        <ele>752.9</ele>
      </trkpt>
      <trkpt lat="44.14392" lon="5.77175">
        <ele>752.7</ele>
      </trkpt>
      <trkpt lat="44.14397" lon="5.77177">
        <ele>752.6</ele>
      </trkpt>
      <trkpt lat="44.14402" lon="5.77178">
        <ele>752.7</ele>
      </trkpt>
      <trkpt lat="44.14407" lon="5.77176">
        <ele>753.3</ele>
      </trkpt>
      <trkpt lat="44.14412" lon="5.77173">
        <ele>754.2</ele>
      </trkpt>
      <trkpt lat="44.14419" lon="5.77172">
        <ele>752.9</ele>
      </trkpt>
      <trkpt lat="44.14421" lon="5.77177">
        <ele>751</ele>
      </trkpt>
      <trkpt lat="44.14423" lon="5.77182">
        <ele>749</ele>
      </trkpt>
      <trkpt lat="44.14423" lon="5.7719">
        <ele>746.9</ele>
      </trkpt>
      <trkpt lat="44.14423" lon="5.77198">
        <ele>744.9</ele>
      </trkpt>
      <trkpt lat="44.14422" lon="5.77206">
        <ele>743.3</ele>
      </trkpt>
      <trkpt lat="44.1442" lon="5.77212">
        <ele>741.9</ele>
      </trkpt>
      <trkpt lat="44.14417" lon="5.77218">
        <ele>740.7</ele>
      </trkpt>
      <trkpt lat="44.14411" lon="5.77218">
        <ele>745.4</ele>
      </trkpt>
      <trkpt lat="44.14406" lon="5.77221">
        <ele>745.1</ele>
      </trkpt>
      <trkpt lat="44.14402" lon="5.77231">
        <ele>743.1</ele>
      </trkpt>
      <trkpt lat="44.14401" lon="5.77236">
        <ele>742</ele>
      </trkpt>
      <trkpt lat="44.14407" lon="5.77245">
        <ele>738.2</ele>
      </trkpt>
      <trkpt lat="44.14412" lon="5.77247">
        <ele>735.3</ele>
      </trkpt>
      <trkpt lat="44.14421" lon="5.77247">
        <ele>733.9</ele>
      </trkpt>
      <trkpt lat="44.14428" lon="5.7725">
        <ele>728.4</ele>
      </trkpt>
      <trkpt lat="44.14436" lon="5.77254">
        <ele>726.5</ele>
      </trkpt>
      <trkpt lat="44.14444" lon="5.77257">
        <ele>725.4</ele>
      </trkpt>
      <trkpt lat="44.14453" lon="5.77261">
        <ele>724.4</ele>
      </trkpt>
      <trkpt lat="44.14461" lon="5.77263">
        <ele>724</ele>
      </trkpt>
      <trkpt lat="44.1447" lon="5.77263">
        <ele>724</ele>
      </trkpt>
      <trkpt lat="44.14477" lon="5.77262">
        <ele>724.4</ele>
      </trkpt>
      <trkpt lat="44.14485" lon="5.77263">
        <ele>724.8</ele>
      </trkpt>
      <trkpt lat="44.14491" lon="5.77264">
        <ele>725.2</ele>
      </trkpt>
      <trkpt lat="44.14496" lon="5.77264">
        <ele>725.4</ele>
      </trkpt>
      <trkpt lat="44.14502" lon="5.77264">
        <ele>725.7</ele>
      </trkpt>
      <trkpt lat="44.14507" lon="5.77265">
        <ele>725.4</ele>
      </trkpt>
      <trkpt lat="44.14512" lon="5.77264">
        <ele>725.2</ele>
      </trkpt>
      <trkpt lat="44.14517" lon="5.77265">
        <ele>724.7</ele>
      </trkpt>
      <trkpt lat="44.14522" lon="5.7727">
        <ele>724</ele>
      </trkpt>
      <trkpt lat="44.14526" lon="5.77275">
        <ele>723.3</ele>
      </trkpt>
      <trkpt lat="44.1453" lon="5.77279">
        <ele>722.9</ele>
      </trkpt>
      <trkpt lat="44.14535" lon="5.77282">
        <ele>722.7</ele>
      </trkpt>
      <trkpt lat="44.14543" lon="5.77282">
        <ele>722.8</ele>
      </trkpt>
      <trkpt lat="44.14547" lon="5.77281">
        <ele>723.1</ele>
      </trkpt>
      <trkpt lat="44.14552" lon="5.77279">
        <ele>723.5</ele>
      </trkpt>
      <trkpt lat="44.14557" lon="5.77279">
        <ele>723.7</ele>
      </trkpt>
      <trkpt lat="44.14564" lon="5.7728">
        <ele>724</ele>
      </trkpt>
      <trkpt lat="44.1457" lon="5.77282">
        <ele>723.9</ele>
      </trkpt>
      <trkpt lat="44.14577" lon="5.77284">
        <ele>723.7</ele>
      </trkpt>
      <trkpt lat="44.14584" lon="5.77284">
        <ele>728.3</ele>
      </trkpt>
      <trkpt lat="44.1459" lon="5.7728">
        <ele>728.9</ele>
      </trkpt>
      <trkpt lat="44.14596" lon="5.77276">
        <ele>729.4</ele>
      </trkpt>
      <trkpt lat="44.14603" lon="5.77271">
        <ele>730</ele>
      </trkpt>
      <trkpt lat="44.14609" lon="5.77268">
        <ele>730.3</ele>
      </trkpt>
      <trkpt lat="44.14615" lon="5.77269">
        <ele>730.3</ele>
      </trkpt>
      <trkpt lat="44.14622" lon="5.77272">
        <ele>730.4</ele>
      </trkpt>
      <trkpt lat="44.14627" lon="5.77277">
        <ele>730.3</ele>
      </trkpt>
      <trkpt lat="44.14632" lon="5.77283">
        <ele>730.1</ele>
      </trkpt>
      <trkpt lat="44.14639" lon="5.77287">
        <ele>730.2</ele>
      </trkpt>
      <trkpt lat="44.14646" lon="5.77289">
        <ele>730.5</ele>
      </trkpt>
      <trkpt lat="44.14654" lon="5.77291">
        <ele>730.6</ele>
      </trkpt>
      <trkpt lat="44.14662" lon="5.77294">
        <ele>730.6</ele>
      </trkpt>
      <trkpt lat="44.14669" lon="5.77296">
        <ele>733.3</ele>
      </trkpt>
      <trkpt lat="44.14674" lon="5.77299">
        <ele>733</ele>
      </trkpt>
      <trkpt lat="44.14679" lon="5.77306">
        <ele>732.5</ele>
      </trkpt>
      <trkpt lat="44.14685" lon="5.77311">
        <ele>732.2</ele>
      </trkpt>
      <trkpt lat="44.14693" lon="5.77317">
        <ele>732</ele>
      </trkpt>
      <trkpt lat="44.14701" lon="5.77322">
        <ele>731.9</ele>
      </trkpt>
      <trkpt lat="44.14709" lon="5.77324">
        <ele>731.8</ele>
      </trkpt>
      <trkpt lat="44.1472" lon="5.77329">
        <ele>731.4</ele>
      </trkpt>
      <trkpt lat="44.14729" lon="5.77332">
        <ele>730.8</ele>
      </trkpt>
      <trkpt lat="44.14738" lon="5.77334">
        <ele>725.1</ele>
      </trkpt>
      <trkpt lat="44.14747" lon="5.77335">
        <ele>726.9</ele>
      </trkpt>
      <trkpt lat="44.14756" lon="5.77336">
        <ele>724.6</ele>
      </trkpt>
      <trkpt lat="44.14764" lon="5.77337">
        <ele>721</ele>
      </trkpt>
      <trkpt lat="44.14771" lon="5.7734">
        <ele>718.6</ele>
      </trkpt>
      <trkpt lat="44.14779" lon="5.77342">
        <ele>716.7</ele>
      </trkpt>
      <trkpt lat="44.14786" lon="5.77343">
        <ele>715.3</ele>
      </trkpt>
      <trkpt lat="44.14793" lon="5.77344">
        <ele>714.3</ele>
      </trkpt>
      <trkpt lat="44.148" lon="5.77344">
        <ele>713.4</ele>
      </trkpt>
      <trkpt lat="44.14807" lon="5.77341">
        <ele>712.7</ele>
      </trkpt>
      <trkpt lat="44.14815" lon="5.77338">
        <ele>712.1</ele>
      </trkpt>
      <trkpt lat="44.14823" lon="5.77337">
        <ele>711.6</ele>
      </trkpt>
      <trkpt lat="44.14829" lon="5.77336">
        <ele>711.2</ele>
      </trkpt>
      <trkpt lat="44.14835" lon="5.77334">
        <ele>709.8</ele>
      </trkpt>
      <trkpt lat="44.14839" lon="5.77329">
        <ele>709.4</ele>
      </trkpt>
      <trkpt lat="44.14842" lon="5.77324">
        <ele>708.5</ele>
      </trkpt>
      <trkpt lat="44.14849" lon="5.77322">
        <ele>707.3</ele>
      </trkpt>
      <trkpt lat="44.14852" lon="5.77326">
        <ele>706.9</ele>
      </trkpt>
      <trkpt lat="44.14853" lon="5.77332">
        <ele>706.7</ele>
      </trkpt>
      <trkpt lat="44.14853" lon="5.77339">
        <ele>700.4</ele>
      </trkpt>
      <trkpt lat="44.14853" lon="5.77347">
        <ele>699.4</ele>
      </trkpt>
      <trkpt lat="44.14855" lon="5.77356">
        <ele>697.6</ele>
      </trkpt>
      <trkpt lat="44.14858" lon="5.77363">
        <ele>696.2</ele>
      </trkpt>
      <trkpt lat="44.14862" lon="5.77368">
        <ele>695.1</ele>
      </trkpt>
      <trkpt lat="44.1487" lon="5.77371">
        <ele>693.7</ele>
      </trkpt>
      <trkpt lat="44.14873" lon="5.77374">
        <ele>693.1</ele>
      </trkpt>
      <trkpt lat="44.14871" lon="5.77383">
        <ele>692.7</ele>
      </trkpt>
      <trkpt lat="44.14867" lon="5.77389">
        <ele>693</ele>
      </trkpt>
      <trkpt lat="44.14863" lon="5.77396">
        <ele>693.2</ele>
      </trkpt>
      <trkpt lat="44.14861" lon="5.77402">
        <ele>693.3</ele>
      </trkpt>
      <trkpt lat="44.14867" lon="5.77409">
        <ele>692.2</ele>
      </trkpt>
      <trkpt lat="44.14871" lon="5.77407">
        <ele>691.7</ele>
      </trkpt>
      <trkpt lat="44.14878" lon="5.77409">
        <ele>690.4</ele>
      </trkpt>
      <trkpt lat="44.14879" lon="5.77413">
        <ele>690.1</ele>
      </trkpt>
      <trkpt lat="44.14881" lon="5.77418">
        <ele>683.2</ele>
      </trkpt>
      <trkpt lat="44.14878" lon="5.77426">
        <ele>683.4</ele>
      </trkpt>
      <trkpt lat="44.14874" lon="5.77434">
        <ele>683.7</ele>
      </trkpt>
      <trkpt lat="44.14867" lon="5.7744">
        <ele>684.2</ele>
      </trkpt>
      <trkpt lat="44.14861" lon="5.77446">
        <ele>684.3</ele>
      </trkpt>
      <trkpt lat="44.14858" lon="5.77451">
        <ele>684</ele>
      </trkpt>
      <trkpt lat="44.14858" lon="5.77461">
        <ele>683</ele>
      </trkpt>
      <trkpt lat="44.14863" lon="5.77465">
        <ele>682.4</ele>
      </trkpt>
      <trkpt lat="44.14868" lon="5.77466">
        <ele>682</ele>
      </trkpt>
      <trkpt lat="44.14872" lon="5.77465">
        <ele>681.8</ele>
      </trkpt>
      <trkpt lat="44.14876" lon="5.77461">
        <ele>681.8</ele>
      </trkpt>
      <trkpt lat="44.14881" lon="5.77457">
        <ele>681.6</ele>
      </trkpt>
      <trkpt lat="44.14887" lon="5.77452">
        <ele>681.5</ele>
      </trkpt>
      <trkpt lat="44.14892" lon="5.77445">
        <ele>681.3</ele>
      </trkpt>
      <trkpt lat="44.14895" lon="5.77438">
        <ele>681.2</ele>
      </trkpt>
      <trkpt lat="44.14897" lon="5.77429">
        <ele>681</ele>
      </trkpt>
      <trkpt lat="44.14898" lon="5.77417">
        <ele>680.8</ele>
      </trkpt>
      <trkpt lat="44.149" lon="5.77404">
        <ele>686.4</ele>
      </trkpt>
      <trkpt lat="44.14902" lon="5.77391">
        <ele>687.9</ele>
      </trkpt>
      <trkpt lat="44.14903" lon="5.7738">
        <ele>689</ele>
      </trkpt>
      <trkpt lat="44.14905" lon="5.77371">
        <ele>689.4</ele>
      </trkpt>
      <trkpt lat="44.14906" lon="5.77361">
        <ele>689.5</ele>
      </trkpt>
      <trkpt lat="44.14907" lon="5.7735">
        <ele>689.1</ele>
      </trkpt>
      <trkpt lat="44.14907" lon="5.77341">
        <ele>688.2</ele>
      </trkpt>
      <trkpt lat="44.14909" lon="5.77335">
        <ele>687.2</ele>
      </trkpt>
      <trkpt lat="44.14914" lon="5.77331">
        <ele>687.7</ele>
      </trkpt>
      <trkpt lat="44.1492" lon="5.7733">
        <ele>685.2</ele>
      </trkpt>
      <trkpt lat="44.14928" lon="5.77326">
        <ele>685.4</ele>
      </trkpt>
      <trkpt lat="44.14936" lon="5.77322">
        <ele>685.3</ele>
      </trkpt>
      <trkpt lat="44.14943" lon="5.7732">
        <ele>685</ele>
      </trkpt>
      <trkpt lat="44.1495" lon="5.77317">
        <ele>684.7</ele>
      </trkpt>
      <trkpt lat="44.14956" lon="5.77311">
        <ele>684.6</ele>
      </trkpt>
      <trkpt lat="44.14964" lon="5.77305">
        <ele>684.3</ele>
      </trkpt>
      <trkpt lat="44.14972" lon="5.77301">
        <ele>683.9</ele>
      </trkpt>
      <trkpt lat="44.1498" lon="5.77298">
        <ele>683.6</ele>
      </trkpt>
      <trkpt lat="44.14989" lon="5.77296">
        <ele>683.3</ele>
      </trkpt>
      <trkpt lat="44.14997" lon="5.77292">
        <ele>683.4</ele>
      </trkpt>
      <trkpt lat="44.15005" lon="5.77286">
        <ele>672.5</ele>
      </trkpt>
      <trkpt lat="44.15013" lon="5.7728">
        <ele>672.7</ele>
      </trkpt>
      <trkpt lat="44.15019" lon="5.77274">
        <ele>672.8</ele>
      </trkpt>
      <trkpt lat="44.15025" lon="5.77265">
        <ele>672.7</ele>
      </trkpt>
      <trkpt lat="44.15029" lon="5.77255">
        <ele>672.3</ele>
      </trkpt>
      <trkpt lat="44.15034" lon="5.77243">
        <ele>678.3</ele>
      </trkpt>
      <trkpt lat="44.15037" lon="5.77229">
        <ele>678.2</ele>
      </trkpt>
      <trkpt lat="44.1504" lon="5.77217">
        <ele>678.5</ele>
      </trkpt>
      <trkpt lat="44.15044" lon="5.77206">
        <ele>678.8</ele>
      </trkpt>
      <trkpt lat="44.15051" lon="5.77199">
        <ele>678</ele>
      </trkpt>
      <trkpt lat="44.15059" lon="5.77191">
        <ele>677</ele>
      </trkpt>
      <trkpt lat="44.15067" lon="5.77182">
        <ele>675.6</ele>
      </trkpt>
      <trkpt lat="44.15074" lon="5.77174">
        <ele>673.5</ele>
      </trkpt>
      <trkpt lat="44.15081" lon="5.77169">
        <ele>671.2</ele>
      </trkpt>
      <trkpt lat="44.15088" lon="5.77165">
        <ele>670</ele>
      </trkpt>
      <trkpt lat="44.15097" lon="5.77163">
        <ele>669.6</ele>
      </trkpt>
      <trkpt lat="44.15106" lon="5.77161">
        <ele>669</ele>
      </trkpt>
      <trkpt lat="44.15114" lon="5.77156">
        <ele>668.3</ele>
      </trkpt>
      <trkpt lat="44.15124" lon="5.77151">
        <ele>667.3</ele>
      </trkpt>
      <trkpt lat="44.15134" lon="5.77146">
        <ele>666</ele>
      </trkpt>
      <trkpt lat="44.15144" lon="5.77142">
        <ele>664.9</ele>
      </trkpt>
      <trkpt lat="44.15154" lon="5.77138">
        <ele>664</ele>
      </trkpt>
      <trkpt lat="44.15164" lon="5.77137">
        <ele>663.4</ele>
      </trkpt>
      <trkpt lat="44.15175" lon="5.77134">
        <ele>653.1</ele>
      </trkpt>
      <trkpt lat="44.15186" lon="5.77132">
        <ele>653</ele>
      </trkpt>
      <trkpt lat="44.15197" lon="5.7713">
        <ele>652.6</ele>
      </trkpt>
      <trkpt lat="44.15209" lon="5.77128">
        <ele>652</ele>
      </trkpt>
      <trkpt lat="44.15219" lon="5.77126">
        <ele>651.3</ele>
      </trkpt>
      <trkpt lat="44.1523" lon="5.77123">
        <ele>650.8</ele>
      </trkpt>
      <trkpt lat="44.15239" lon="5.77122">
        <ele>650.4</ele>
      </trkpt>
      <trkpt lat="44.15247" lon="5.77121">
        <ele>650.2</ele>
      </trkpt>
      <trkpt lat="44.15253" lon="5.77121">
        <ele>643.8</ele>
      </trkpt>
      <trkpt lat="44.15259" lon="5.77124">
        <ele>643.5</ele>
      </trkpt>
      <trkpt lat="44.15264" lon="5.77126">
        <ele>643.1</ele>
      </trkpt>
      <trkpt lat="44.1527" lon="5.77128">
        <ele>642.8</ele>
      </trkpt>
      <trkpt lat="44.15277" lon="5.7713">
        <ele>642.5</ele>
      </trkpt>
      <trkpt lat="44.15285" lon="5.77129">
        <ele>642.2</ele>
      </trkpt>
      <trkpt lat="44.15294" lon="5.7713">
        <ele>641.9</ele>
      </trkpt>
      <trkpt lat="44.15304" lon="5.77131">
        <ele>641.3</ele>
      </trkpt>
      <trkpt lat="44.15315" lon="5.77134">
        <ele>640.7</ele>
      </trkpt>
      <trkpt lat="44.15327" lon="5.77136">
        <ele>640</ele>
      </trkpt>
      <trkpt lat="44.15337" lon="5.77139">
        <ele>637.2</ele>
      </trkpt>
      <trkpt lat="44.15348" lon="5.77139">
        <ele>637.2</ele>
      </trkpt>
      <trkpt lat="44.1536" lon="5.77138">
        <ele>637.3</ele>
      </trkpt>
      <trkpt lat="44.15372" lon="5.77138">
        <ele>637.3</ele>
      </trkpt>
      <trkpt lat="44.15383" lon="5.77136">
        <ele>637.2</ele>
      </trkpt>
      <trkpt lat="44.15395" lon="5.77132">
        <ele>637.3</ele>
      </trkpt>
      <trkpt lat="44.15405" lon="5.77129">
        <ele>637.3</ele>
      </trkpt>
      <trkpt lat="44.15415" lon="5.77128">
        <ele>637.3</ele>
      </trkpt>
      <trkpt lat="44.15424" lon="5.77129">
        <ele>636.3</ele>
      </trkpt>
      <trkpt lat="44.15434" lon="5.7713">
        <ele>636.2</ele>
      </trkpt>
      <trkpt lat="44.15443" lon="5.77131">
        <ele>636.2</ele>
      </trkpt>
      <trkpt lat="44.15452" lon="5.77132">
        <ele>636.1</ele>
      </trkpt>
      <trkpt lat="44.15462" lon="5.77134">
        <ele>635.9</ele>
      </trkpt>
      <trkpt lat="44.15471" lon="5.77139">
        <ele>635.5</ele>
      </trkpt>
      <trkpt lat="44.15481" lon="5.77146">
        <ele>634.8</ele>
      </trkpt>
      <trkpt lat="44.15491" lon="5.77154">
        <ele>633.6</ele>
      </trkpt>
      <trkpt lat="44.15501" lon="5.7716">
        <ele>632</ele>
      </trkpt>
      <trkpt lat="44.15512" lon="5.77167">
        <ele>632.6</ele>
      </trkpt>
      <trkpt lat="44.15523" lon="5.77174">
        <ele>630.3</ele>
      </trkpt>
      <trkpt lat="44.15534" lon="5.77181">
        <ele>630.2</ele>
      </trkpt>
      <trkpt lat="44.15544" lon="5.7719">
        <ele>630</ele>
      </trkpt>
      <trkpt lat="44.15554" lon="5.77201">
        <ele>629.8</ele>
      </trkpt>
      <trkpt lat="44.15565" lon="5.77212">
        <ele>629.5</ele>
      </trkpt>
      <trkpt lat="44.15576" lon="5.77221">
        <ele>629</ele>
      </trkpt>
      <trkpt lat="44.15589" lon="5.77231">
        <ele>628.4</ele>
      </trkpt>
      <trkpt lat="44.15601" lon="5.77241">
        <ele>628.2</ele>
      </trkpt>
      <trkpt lat="44.15612" lon="5.77251">
        <ele>625.2</ele>
      </trkpt>
      <trkpt lat="44.15623" lon="5.77259">
        <ele>624.8</ele>
      </trkpt>
      <trkpt lat="44.15635" lon="5.77266">
        <ele>624.7</ele>
      </trkpt>
      <trkpt lat="44.15647" lon="5.77273">
        <ele>624.5</ele>
      </trkpt>
      <trkpt lat="44.15657" lon="5.77281">
        <ele>624.2</ele>
      </trkpt>
      <trkpt lat="44.15668" lon="5.77289">
        <ele>623.2</ele>
      </trkpt>
      <trkpt lat="44.1568" lon="5.77296">
        <ele>622.7</ele>
      </trkpt>
      <trkpt lat="44.15692" lon="5.77302">
        <ele>622.5</ele>
      </trkpt>
      <trkpt lat="44.15704" lon="5.7731">
        <ele>622.3</ele>
      </trkpt>
      <trkpt lat="44.15716" lon="5.77317">
        <ele>622</ele>
      </trkpt>
      <trkpt lat="44.15729" lon="5.77325">
        <ele>621.6</ele>
      </trkpt>
      <trkpt lat="44.1574" lon="5.77334">
        <ele>619.4</ele>
      </trkpt>
      <trkpt lat="44.15751" lon="5.77342">
        <ele>619.7</ele>
      </trkpt>
      <trkpt lat="44.15762" lon="5.77351">
        <ele>619.4</ele>
      </trkpt>
      <trkpt lat="44.15773" lon="5.77358">
        <ele>619.2</ele>
      </trkpt>
      <trkpt lat="44.15784" lon="5.77365">
        <ele>619.2</ele>
      </trkpt>
      <trkpt lat="44.15793" lon="5.77372">
        <ele>619.1</ele>
      </trkpt>
      <trkpt lat="44.15803" lon="5.77381">
        <ele>619</ele>
      </trkpt>
      <trkpt lat="44.15813" lon="5.7739">
        <ele>618.8</ele>
      </trkpt>
      <trkpt lat="44.15823" lon="5.774">
        <ele>618.6</ele>
      </trkpt>
      <trkpt lat="44.15834" lon="5.7741">
        <ele>618.6</ele>
      </trkpt>
      <trkpt lat="44.15844" lon="5.77419">
        <ele>616.9</ele>
      </trkpt>
      <trkpt lat="44.15852" lon="5.77428">
        <ele>616.2</ele>
      </trkpt>
      <trkpt lat="44.15858" lon="5.77435">
        <ele>615.7</ele>
      </trkpt>
      <trkpt lat="44.15865" lon="5.7744">
        <ele>615.5</ele>
      </trkpt>
      <trkpt lat="44.15873" lon="5.77441">
        <ele>615.5</ele>
      </trkpt>
      <trkpt lat="44.15883" lon="5.77442">
        <ele>615.6</ele>
      </trkpt>
      <trkpt lat="44.15893" lon="5.77447">
        <ele>615.5</ele>
      </trkpt>
      <trkpt lat="44.15903" lon="5.77455">
        <ele>615.2</ele>
      </trkpt>
      <trkpt lat="44.15915" lon="5.77461">
        <ele>614.9</ele>
      </trkpt>
      <trkpt lat="44.15928" lon="5.77466">
        <ele>614.6</ele>
      </trkpt>
      <trkpt lat="44.15939" lon="5.77471">
        <ele>614.4</ele>
      </trkpt>
      <trkpt lat="44.15951" lon="5.77474">
        <ele>614.3</ele>
      </trkpt>
      <trkpt lat="44.15961" lon="5.77473">
        <ele>614.4</ele>
      </trkpt>
      <trkpt lat="44.15972" lon="5.7747">
        <ele>614.4</ele>
      </trkpt>
      <trkpt lat="44.1598" lon="5.77466">
        <ele>614.4</ele>
      </trkpt>
      <trkpt lat="44.15987" lon="5.77464">
        <ele>614.4</ele>
      </trkpt>
      <trkpt lat="44.15994" lon="5.77465">
        <ele>614.3</ele>
      </trkpt>
      <trkpt lat="44.16" lon="5.77471">
        <ele>615.3</ele>
      </trkpt>
      <trkpt lat="44.16007" lon="5.77477">
        <ele>615.1</ele>
      </trkpt>
      <trkpt lat="44.16013" lon="5.77484">
        <ele>615</ele>
      </trkpt>
      <trkpt lat="44.16019" lon="5.77489">
        <ele>615.1</ele>
      </trkpt>
      <trkpt lat="44.16025" lon="5.77494">
        <ele>615.4</ele>
      </trkpt>
      <trkpt lat="44.1603" lon="5.77498">
        <ele>615.6</ele>
      </trkpt>
      <trkpt lat="44.16039" lon="5.77496">
        <ele>616</ele>
      </trkpt>
      <trkpt lat="44.16041" lon="5.7749">
        <ele>616.2</ele>
      </trkpt>
      <trkpt lat="44.16045" lon="5.77483">
        <ele>616.4</ele>
      </trkpt>
      <trkpt lat="44.16049" lon="5.77479">
        <ele>616.6</ele>
      </trkpt>
      <trkpt lat="44.16056" lon="5.77476">
        <ele>616.8</ele>
      </trkpt>
      <trkpt lat="44.16061" lon="5.77475">
        <ele>617</ele>
      </trkpt>
      <trkpt lat="44.16066" lon="5.77483">
        <ele>616.9</ele>
      </trkpt>
      <trkpt lat="44.16068" lon="5.77492">
        <ele>616.9</ele>
      </trkpt>
      <trkpt lat="44.16069" lon="5.77502">
        <ele>614.8</ele>
      </trkpt>
      <trkpt lat="44.16069" lon="5.7751">
        <ele>614.4</ele>
      </trkpt>
      <trkpt lat="44.16069" lon="5.77519">
        <ele>613.9</ele>
      </trkpt>
      <trkpt lat="44.16071" lon="5.77525">
        <ele>613.5</ele>
      </trkpt>
      <trkpt lat="44.16074" lon="5.77532">
        <ele>613.1</ele>
      </trkpt>
      <trkpt lat="44.16076" lon="5.77539">
        <ele>612.7</ele>
      </trkpt>
      <trkpt lat="44.16079" lon="5.77548">
        <ele>612.2</ele>
      </trkpt>
      <trkpt lat="44.16082" lon="5.77558">
        <ele>611.6</ele>
      </trkpt>
      <trkpt lat="44.16086" lon="5.77568">
        <ele>615.8</ele>
      </trkpt>
      <trkpt lat="44.1609" lon="5.77578">
        <ele>613.9</ele>
      </trkpt>
      <trkpt lat="44.16095" lon="5.7759">
        <ele>610.6</ele>
      </trkpt>
      <trkpt lat="44.16101" lon="5.776">
        <ele>610.8</ele>
      </trkpt>
      <trkpt lat="44.16109" lon="5.77607">
        <ele>611</ele>
      </trkpt>
      <trkpt lat="44.16117" lon="5.77615">
        <ele>611</ele>
      </trkpt>
      <trkpt lat="44.16124" lon="5.77624">
        <ele>610.8</ele>
      </trkpt>
      <trkpt lat="44.1613" lon="5.77634">
        <ele>610.2</ele>
      </trkpt>
      <trkpt lat="44.16137" lon="5.77646">
        <ele>609.5</ele>
      </trkpt>
      <trkpt lat="44.16143" lon="5.77658">
        <ele>608.7</ele>
      </trkpt>
      <trkpt lat="44.16149" lon="5.7767">
        <ele>603.6</ele>
      </trkpt>
      <trkpt lat="44.16157" lon="5.77681">
        <ele>603.6</ele>
      </trkpt>
      <trkpt lat="44.16164" lon="5.7769">
        <ele>603</ele>
      </trkpt>
      <trkpt lat="44.16172" lon="5.77699">
        <ele>601.4</ele>
      </trkpt>
      <trkpt lat="44.16182" lon="5.77699">
        <ele>601.2</ele>
      </trkpt>
      <trkpt lat="44.16193" lon="5.77702">
        <ele>600.7</ele>
      </trkpt>
      <trkpt lat="44.16204" lon="5.77704">
        <ele>600.3</ele>
      </trkpt>
      <trkpt lat="44.16216" lon="5.77706">
        <ele>599.9</ele>
      </trkpt>
      <trkpt lat="44.16228" lon="5.77708">
        <ele>599.6</ele>
      </trkpt>
      <trkpt lat="44.1624" lon="5.7771">
        <ele>599.2</ele>
      </trkpt>
      <trkpt lat="44.16251" lon="5.77712">
        <ele>596.6</ele>
      </trkpt>
      <trkpt lat="44.16261" lon="5.77713">
        <ele>596.4</ele>
      </trkpt>
      <trkpt lat="44.1627" lon="5.77713">
        <ele>596.3</ele>
      </trkpt>
      <trkpt lat="44.16279" lon="5.77709">
        <ele>596.3</ele>
      </trkpt>
      <trkpt lat="44.16286" lon="5.77703">
        <ele>596.3</ele>
      </trkpt>
      <trkpt lat="44.16294" lon="5.77696">
        <ele>596.2</ele>
      </trkpt>
      <trkpt lat="44.16302" lon="5.77691">
        <ele>596.1</ele>
      </trkpt>
      <trkpt lat="44.1631" lon="5.77687">
        <ele>595.9</ele>
      </trkpt>
      <trkpt lat="44.16318" lon="5.77684">
        <ele>595.7</ele>
      </trkpt>
      <trkpt lat="44.16325" lon="5.77683">
        <ele>595.5</ele>
      </trkpt>
      <trkpt lat="44.16332" lon="5.7768">
        <ele>595.4</ele>
      </trkpt>
      <trkpt lat="44.1634" lon="5.77678">
        <ele>595</ele>
      </trkpt>
      <trkpt lat="44.16346" lon="5.77677">
        <ele>595</ele>
      </trkpt>
      <trkpt lat="44.16353" lon="5.77676">
        <ele>595.1</ele>
      </trkpt>
      <trkpt lat="44.1636" lon="5.77676">
        <ele>595.1</ele>
      </trkpt>
      <trkpt lat="44.16367" lon="5.77679">
        <ele>595.2</ele>
      </trkpt>
      <trkpt lat="44.16375" lon="5.77683">
        <ele>595.3</ele>
      </trkpt>
      <trkpt lat="44.16383" lon="5.7769">
        <ele>595.3</ele>
      </trkpt>
      <trkpt lat="44.16389" lon="5.77697">
        <ele>595.3</ele>
      </trkpt>
      <trkpt lat="44.16396" lon="5.77703">
        <ele>595.3</ele>
      </trkpt>
      <trkpt lat="44.16402" lon="5.77708">
        <ele>595.3</ele>
      </trkpt>
      <trkpt lat="44.16409" lon="5.77712">
        <ele>595.3</ele>
      </trkpt>
      <trkpt lat="44.16415" lon="5.77713">
        <ele>595.3</ele>
      </trkpt>
      <trkpt lat="44.16422" lon="5.77711">
        <ele>596.3</ele>
      </trkpt>
      <trkpt lat="44.16429" lon="5.77706">
        <ele>596.4</ele>
      </trkpt>
      <trkpt lat="44.16435" lon="5.77702">
        <ele>596.5</ele>
      </trkpt>
      <trkpt lat="44.16441" lon="5.77699">
        <ele>596.5</ele>
      </trkpt>
      <trkpt lat="44.16446" lon="5.77695">
        <ele>596.6</ele>
      </trkpt>
      <trkpt lat="44.16453" lon="5.77694">
        <ele>596.6</ele>
      </trkpt>
      <trkpt lat="44.1646" lon="5.77694">
        <ele>596.7</ele>
      </trkpt>
      <trkpt lat="44.16467" lon="5.77698">
        <ele>596.7</ele>
      </trkpt>
      <trkpt lat="44.16472" lon="5.77702">
        <ele>596.7</ele>
      </trkpt>
      <trkpt lat="44.16476" lon="5.77705">
        <ele>596.7</ele>
      </trkpt>
      <trkpt lat="44.1648" lon="5.77707">
        <ele>596.6</ele>
      </trkpt>
      <trkpt lat="44.16488" lon="5.77712">
        <ele>596.6</ele>
      </trkpt>
      <trkpt lat="44.16491" lon="5.77715">
        <ele>596.5</ele>
      </trkpt>
      <trkpt lat="44.16496" lon="5.7772">
        <ele>596.5</ele>
      </trkpt>
      <trkpt lat="44.16499" lon="5.77724">
        <ele>596.4</ele>
      </trkpt>
      <trkpt lat="44.16502" lon="5.77731">
        <ele>603.2</ele>
      </trkpt>
      <trkpt lat="44.16503" lon="5.7774">
        <ele>600.8</ele>
      </trkpt>
      <trkpt lat="44.16505" lon="5.77751">
        <ele>597.8</ele>
      </trkpt>
      <trkpt lat="44.16507" lon="5.77763">
        <ele>599.9</ele>
      </trkpt>
      <trkpt lat="44.16509" lon="5.77775">
        <ele>601.4</ele>
      </trkpt>
      <trkpt lat="44.16511" lon="5.77789">
        <ele>601.9</ele>
      </trkpt>
      <trkpt lat="44.16514" lon="5.77803">
        <ele>601.5</ele>
      </trkpt>
      <trkpt lat="44.16516" lon="5.77818">
        <ele>600.5</ele>
      </trkpt>
      <trkpt lat="44.16519" lon="5.77833">
        <ele>600</ele>
      </trkpt>
      <trkpt lat="44.16522" lon="5.77849">
        <ele>598.5</ele>
      </trkpt>
      <trkpt lat="44.16525" lon="5.77864">
        <ele>599</ele>
      </trkpt>
      <trkpt lat="44.16527" lon="5.77879">
        <ele>599</ele>
      </trkpt>
      <trkpt lat="44.1653" lon="5.77893">
        <ele>598.9</ele>
      </trkpt>
      <trkpt lat="44.16532" lon="5.77908">
        <ele>598.8</ele>
      </trkpt>
      <trkpt lat="44.16535" lon="5.77923">
        <ele>598.2</ele>
      </trkpt>
      <trkpt lat="44.16538" lon="5.77938">
        <ele>598.5</ele>
      </trkpt>
      <trkpt lat="44.16541" lon="5.77953">
        <ele>598.7</ele>
      </trkpt>
      <trkpt lat="44.16543" lon="5.77968">
        <ele>598.8</ele>
      </trkpt>
      <trkpt lat="44.16546" lon="5.77984">
        <ele>599</ele>
      </trkpt>
      <trkpt lat="44.16548" lon="5.77998">
        <ele>599.2</ele>
      </trkpt>
      <trkpt lat="44.1655" lon="5.78013">
        <ele>599</ele>
      </trkpt>
      <trkpt lat="44.16553" lon="5.78027">
        <ele>599</ele>
      </trkpt>
      <trkpt lat="44.16556" lon="5.78042">
        <ele>599.1</ele>
      </trkpt>
      <trkpt lat="44.16557" lon="5.78058">
        <ele>599.3</ele>
      </trkpt>
      <trkpt lat="44.16558" lon="5.78073">
        <ele>599.8</ele>
      </trkpt>
      <trkpt lat="44.16558" lon="5.78089">
        <ele>600.1</ele>
      </trkpt>
      <trkpt lat="44.16556" lon="5.78105">
        <ele>599.7</ele>
      </trkpt>
      <trkpt lat="44.16554" lon="5.78122">
        <ele>599.5</ele>
      </trkpt>
      <trkpt lat="44.16551" lon="5.7814">
        <ele>599.5</ele>
      </trkpt>
      <trkpt lat="44.16547" lon="5.78156">
        <ele>599.4</ele>
      </trkpt>
      <trkpt lat="44.16545" lon="5.78174">
        <ele>600.2</ele>
      </trkpt>
      <trkpt lat="44.16541" lon="5.78192">
        <ele>600</ele>
      </trkpt>
      <trkpt lat="44.16538" lon="5.7821">
        <ele>599.9</ele>
      </trkpt>
      <trkpt lat="44.16535" lon="5.78229">
        <ele>599.5</ele>
      </trkpt>
      <trkpt lat="44.16532" lon="5.78248">
        <ele>598.7</ele>
      </trkpt>
      <trkpt lat="44.16529" lon="5.78268">
        <ele>600.5</ele>
      </trkpt>
      <trkpt lat="44.16526" lon="5.78287">
        <ele>600.9</ele>
      </trkpt>
      <trkpt lat="44.16523" lon="5.78307">
        <ele>600.3</ele>
      </trkpt>
      <trkpt lat="44.1652" lon="5.78326">
        <ele>598.4</ele>
      </trkpt>
      <trkpt lat="44.16517" lon="5.78345">
        <ele>599.4</ele>
      </trkpt>
      <trkpt lat="44.16516" lon="5.78363">
        <ele>601.2</ele>
      </trkpt>
      <trkpt lat="44.16514" lon="5.78382">
        <ele>601.3</ele>
      </trkpt>
      <trkpt lat="44.16513" lon="5.784">
        <ele>599.1</ele>
      </trkpt>
      <trkpt lat="44.16514" lon="5.78418">
        <ele>597.6</ele>
      </trkpt>
      <trkpt lat="44.16514" lon="5.78436">
        <ele>600.7</ele>
      </trkpt>
      <trkpt lat="44.16515" lon="5.78455">
        <ele>602.6</ele>
      </trkpt>
      <trkpt lat="44.16515" lon="5.78473">
        <ele>602.2</ele>
      </trkpt>
      <trkpt lat="44.16513" lon="5.7849">
        <ele>599.6</ele>
      </trkpt>
      <trkpt lat="44.16511" lon="5.78509">
        <ele>598.5</ele>
      </trkpt>
      <trkpt lat="44.16507" lon="5.78527">
        <ele>600.9</ele>
      </trkpt>
      <trkpt lat="44.16504" lon="5.78544">
        <ele>601.4</ele>
      </trkpt>
      <trkpt lat="44.16502" lon="5.78563">
        <ele>599.4</ele>
      </trkpt>
      <trkpt lat="44.16502" lon="5.7858">
        <ele>593.9</ele>
      </trkpt>
      <trkpt lat="44.16504" lon="5.78596">
        <ele>596</ele>
      </trkpt>
      <trkpt lat="44.16508" lon="5.7861">
        <ele>597.9</ele>
      </trkpt>
      <trkpt lat="44.1651" lon="5.78623">
        <ele>598.3</ele>
      </trkpt>
      <trkpt lat="44.16512" lon="5.78632">
        <ele>598</ele>
      </trkpt>
      <trkpt lat="44.16513" lon="5.7864">
        <ele>597.5</ele>
      </trkpt>
      <trkpt lat="44.16515" lon="5.78647">
        <ele>596.8</ele>
      </trkpt>
      <trkpt lat="44.16516" lon="5.78654">
        <ele>596.1</ele>
      </trkpt>
      <trkpt lat="44.16517" lon="5.78666">
        <ele>595.3</ele>
      </trkpt>
      <trkpt lat="44.16516" lon="5.7867">
        <ele>594.3</ele>
      </trkpt>
      <trkpt lat="44.16521" lon="5.78673">
        <ele>595.6</ele>
      </trkpt>
      <trkpt lat="44.16525" lon="5.78675">
        <ele>596.5</ele>
      </trkpt>
      <trkpt lat="44.16526" lon="5.78673">
        <ele>596.5</ele>
      </trkpt>
      <trkpt lat="44.16526" lon="5.78673">
        <ele>596.6</ele>
      </trkpt>
      <trkpt lat="44.16526" lon="5.78673">
        <ele>596.7</ele>
      </trkpt>
      <trkpt lat="44.16525" lon="5.78671">
        <ele>596.4</ele>
      </trkpt>
      <trkpt lat="44.16525" lon="5.78671">
        <ele>596.4</ele>
      </trkpt>
      <trkpt lat="44.16526" lon="5.7867">
        <ele>596.4</ele>
      </trkpt>
      <trkpt lat="44.16526" lon="5.78672">
        <ele>596.6</ele>
      </trkpt>
      <trkpt lat="44.16531" lon="5.78682">
        <ele>597.8</ele>
      </trkpt>
      <trkpt lat="44.16533" lon="5.78686">
        <ele>598.2</ele>
      </trkpt>
      <trkpt lat="44.16537" lon="5.78696">
        <ele>599.1</ele>
      </trkpt>
      <trkpt lat="44.16538" lon="5.78698">
        <ele>599.4</ele>
      </trkpt>
      <trkpt lat="44.16546" lon="5.78701">
        <ele>600.4</ele>
      </trkpt>
      <trkpt lat="44.16547" lon="5.78702">
        <ele>600.6</ele>
      </trkpt>
      <trkpt lat="44.16555" lon="5.78708">
        <ele>601.7</ele>
      </trkpt>
      <trkpt lat="44.16557" lon="5.78709">
        <ele>602.1</ele>
      </trkpt>
      <trkpt lat="44.16564" lon="5.78712">
        <ele>603.1</ele>
      </trkpt>
      <trkpt lat="44.16567" lon="5.78714">
        <ele>603.5</ele>
      </trkpt>
      <trkpt lat="44.16575" lon="5.78719">
        <ele>604.8</ele>
      </trkpt>
      <trkpt lat="44.16577" lon="5.78721">
        <ele>605.2</ele>
      </trkpt>
      <trkpt lat="44.16584" lon="5.78726">
        <ele>618.5</ele>
      </trkpt>
      <trkpt lat="44.16587" lon="5.78728">
        <ele>618.5</ele>
      </trkpt>
      <trkpt lat="44.16593" lon="5.78732">
        <ele>618.7</ele>
      </trkpt>
      <trkpt lat="44.16596" lon="5.78734">
        <ele>618.8</ele>
      </trkpt>
      <trkpt lat="44.16602" lon="5.78737">
        <ele>619.5</ele>
      </trkpt>
      <trkpt lat="44.16606" lon="5.7874">
        <ele>620</ele>
      </trkpt>
      <trkpt lat="44.16614" lon="5.78745">
        <ele>621.1</ele>
      </trkpt>
      <trkpt lat="44.16617" lon="5.78746">
        <ele>621.8</ele>
      </trkpt>
      <trkpt lat="44.16626" lon="5.78745">
        <ele>623.3</ele>
      </trkpt>
      <trkpt lat="44.16631" lon="5.78744">
        <ele>624</ele>
      </trkpt>
      <trkpt lat="44.16638" lon="5.7874">
        <ele>625.1</ele>
      </trkpt>
      <trkpt lat="44.1664" lon="5.78737">
        <ele>625.4</ele>
      </trkpt>
      <trkpt lat="44.16647" lon="5.78732">
        <ele>626.3</ele>
      </trkpt>
      <trkpt lat="44.16649" lon="5.78731">
        <ele>626.5</ele>
      </trkpt>
      <trkpt lat="44.16656" lon="5.78728">
        <ele>627.1</ele>
      </trkpt>
      <trkpt lat="44.1666" lon="5.78727">
        <ele>627.2</ele>
      </trkpt>
      <trkpt lat="44.16668" lon="5.78721">
        <ele>640.2</ele>
      </trkpt>
      <trkpt lat="44.16672" lon="5.78718">
        <ele>640.7</ele>
      </trkpt>
      <trkpt lat="44.1668" lon="5.78713">
        <ele>641.7</ele>
      </trkpt>
      <trkpt lat="44.16684" lon="5.78712">
        <ele>642.2</ele>
      </trkpt>
      <trkpt lat="44.16691" lon="5.7871">
        <ele>643</ele>
      </trkpt>
      <trkpt lat="44.16694" lon="5.78709">
        <ele>643.5</ele>
      </trkpt>
      <trkpt lat="44.167" lon="5.78706">
        <ele>644.4</ele>
      </trkpt>
      <trkpt lat="44.16702" lon="5.78705">
        <ele>644.9</ele>
      </trkpt>
      <trkpt lat="44.16704" lon="5.78703">
        <ele>645.1</ele>
      </trkpt>
      <trkpt lat="44.16704" lon="5.78703">
        <ele>645.2</ele>
      </trkpt>
      <trkpt lat="44.16704" lon="5.78703">
        <ele>645.2</ele>
      </trkpt>
      <trkpt lat="44.16705" lon="5.78703">
        <ele>645.4</ele>
      </trkpt>
      <trkpt lat="44.16705" lon="5.78704">
        <ele>645.3</ele>
      </trkpt>
      <trkpt lat="44.16705" lon="5.78704">
        <ele>645.3</ele>
      </trkpt>
      <trkpt lat="44.16706" lon="5.78703">
        <ele>645.4</ele>
      </trkpt>
      <trkpt lat="44.16706" lon="5.78702">
        <ele>645.5</ele>
      </trkpt>
      <trkpt lat="44.16706" lon="5.78701">
        <ele>645.6</ele>
      </trkpt>
      <trkpt lat="44.16712" lon="5.78693">
        <ele>647.2</ele>
      </trkpt>
      <trkpt lat="44.16715" lon="5.7869">
        <ele>648</ele>
      </trkpt>
      <trkpt lat="44.16721" lon="5.78685">
        <ele>650</ele>
      </trkpt>
      <trkpt lat="44.16725" lon="5.78684">
        <ele>651.2</ele>
      </trkpt>
      <trkpt lat="44.16732" lon="5.78681">
        <ele>653.9</ele>
      </trkpt>
      <trkpt lat="44.16735" lon="5.7868">
        <ele>655.3</ele>
      </trkpt>
      <trkpt lat="44.16741" lon="5.78675">
        <ele>658.9</ele>
      </trkpt>
      <trkpt lat="44.16744" lon="5.78673">
        <ele>661.2</ele>
      </trkpt>
      <trkpt lat="44.16751" lon="5.78667">
        <ele>668.1</ele>
      </trkpt>
      <trkpt lat="44.16753" lon="5.78665">
        <ele>669.7</ele>
      </trkpt>
      <trkpt lat="44.16759" lon="5.7866">
        <ele>673.3</ele>
      </trkpt>
      <trkpt lat="44.16761" lon="5.78659">
        <ele>674.1</ele>
      </trkpt>
      <trkpt lat="44.16767" lon="5.78654">
        <ele>676.6</ele>
      </trkpt>
      <trkpt lat="44.1677" lon="5.78653">
        <ele>677.4</ele>
      </trkpt>
      <trkpt lat="44.16776" lon="5.78652">
        <ele>678.9</ele>
      </trkpt>
      <trkpt lat="44.16779" lon="5.78653">
        <ele>679.6</ele>
      </trkpt>
      <trkpt lat="44.16788" lon="5.78653">
        <ele>681.6</ele>
      </trkpt>
      <trkpt lat="44.16791" lon="5.78651">
        <ele>682.3</ele>
      </trkpt>
      <trkpt lat="44.16798" lon="5.78647">
        <ele>683.9</ele>
      </trkpt>
      <trkpt lat="44.16801" lon="5.78645">
        <ele>684.5</ele>
      </trkpt>
      <trkpt lat="44.16808" lon="5.78641">
        <ele>685.7</ele>
      </trkpt>
      <trkpt lat="44.16811" lon="5.78639">
        <ele>686</ele>
      </trkpt>
      <trkpt lat="44.16817" lon="5.78635">
        <ele>686.7</ele>
      </trkpt>
      <trkpt lat="44.1682" lon="5.78634">
        <ele>687.1</ele>
      </trkpt>
      <trkpt lat="44.16828" lon="5.78637">
        <ele>688.2</ele>
      </trkpt>
      <trkpt lat="44.16829" lon="5.78637">
        <ele>688.3</ele>
      </trkpt>
      <trkpt lat="44.16837" lon="5.78634">
        <ele>703.8</ele>
      </trkpt>
      <trkpt lat="44.16841" lon="5.78633">
        <ele>704.1</ele>
      </trkpt>
      <trkpt lat="44.16849" lon="5.78629">
        <ele>704.9</ele>
      </trkpt>
      <trkpt lat="44.16849" lon="5.78629">
        <ele>705</ele>
      </trkpt>
      <trkpt lat="44.16851" lon="5.78627">
        <ele>705.2</ele>
      </trkpt>
      <trkpt lat="44.16859" lon="5.78625">
        <ele>706.2</ele>
      </trkpt>
      <trkpt lat="44.16865" lon="5.78621">
        <ele>707.1</ele>
      </trkpt>
      <trkpt lat="44.1687" lon="5.78615">
        <ele>708</ele>
      </trkpt>
      <trkpt lat="44.16875" lon="5.78609">
        <ele>709.2</ele>
      </trkpt>
      <trkpt lat="44.1688" lon="5.78603">
        <ele>710.8</ele>
      </trkpt>
      <trkpt lat="44.16887" lon="5.78597">
        <ele>712.9</ele>
      </trkpt>
      <trkpt lat="44.16892" lon="5.78592">
        <ele>715</ele>
      </trkpt>
      <trkpt lat="44.16895" lon="5.78585">
        <ele>716.7</ele>
      </trkpt>
      <trkpt lat="44.16898" lon="5.78577">
        <ele>720.4</ele>
      </trkpt>
      <trkpt lat="44.169" lon="5.78569">
        <ele>720.3</ele>
      </trkpt>
      <trkpt lat="44.16903" lon="5.78562">
        <ele>719.7</ele>
      </trkpt>
      <trkpt lat="44.16906" lon="5.78557">
        <ele>719.6</ele>
      </trkpt>
      <trkpt lat="44.16909" lon="5.78553">
        <ele>719.6</ele>
      </trkpt>
      <trkpt lat="44.1691" lon="5.78553">
        <ele>719.7</ele>
      </trkpt>
      <trkpt lat="44.1691" lon="5.78553">
        <ele>719.7</ele>
      </trkpt>
      <trkpt lat="44.16911" lon="5.78552">
        <ele>719.7</ele>
      </trkpt>
      <trkpt lat="44.16911" lon="5.7855">
        <ele>719.6</ele>
      </trkpt>
      <trkpt lat="44.16911" lon="5.7855">
        <ele>719.6</ele>
      </trkpt>
      <trkpt lat="44.16911" lon="5.7855">
        <ele>719.6</ele>
      </trkpt>
      <trkpt lat="44.16914" lon="5.78544">
        <ele>719.6</ele>
      </trkpt>
      <trkpt lat="44.16917" lon="5.7854">
        <ele>719.9</ele>
      </trkpt>
      <trkpt lat="44.1692" lon="5.78535">
        <ele>738.2</ele>
      </trkpt>
      <trkpt lat="44.16922" lon="5.7853">
        <ele>738.2</ele>
      </trkpt>
      <trkpt lat="44.16925" lon="5.78525">
        <ele>738.1</ele>
      </trkpt>
      <trkpt lat="44.16931" lon="5.78522">
        <ele>738.6</ele>
      </trkpt>
      <trkpt lat="44.16936" lon="5.7852">
        <ele>739.1</ele>
      </trkpt>
      <trkpt lat="44.16941" lon="5.78516">
        <ele>739.9</ele>
      </trkpt>
      <trkpt lat="44.16948" lon="5.78514">
        <ele>741.3</ele>
      </trkpt>
      <trkpt lat="44.16954" lon="5.78513">
        <ele>742.8</ele>
      </trkpt>
      <trkpt lat="44.16961" lon="5.78511">
        <ele>744.3</ele>
      </trkpt>
      <trkpt lat="44.16968" lon="5.7851">
        <ele>746.3</ele>
      </trkpt>
      <trkpt lat="44.16976" lon="5.78509">
        <ele>748.7</ele>
      </trkpt>
      <trkpt lat="44.16984" lon="5.78508">
        <ele>751.3</ele>
      </trkpt>
      <trkpt lat="44.16991" lon="5.78508">
        <ele>754.1</ele>
      </trkpt>
      <trkpt lat="44.17001" lon="5.78506">
        <ele>761.7</ele>
      </trkpt>
      <trkpt lat="44.17008" lon="5.78505">
        <ele>762.2</ele>
      </trkpt>
      <trkpt lat="44.17014" lon="5.78504">
        <ele>762.9</ele>
      </trkpt>
      <trkpt lat="44.1702" lon="5.78503">
        <ele>763.7</ele>
      </trkpt>
      <trkpt lat="44.17027" lon="5.78502">
        <ele>764.6</ele>
      </trkpt>
      <trkpt lat="44.17034" lon="5.78501">
        <ele>765.6</ele>
      </trkpt>
      <trkpt lat="44.1704" lon="5.78499">
        <ele>764.4</ele>
      </trkpt>
      <trkpt lat="44.17048" lon="5.78497">
        <ele>765.6</ele>
      </trkpt>
      <trkpt lat="44.17055" lon="5.78495">
        <ele>767.1</ele>
      </trkpt>
      <trkpt lat="44.17062" lon="5.78492">
        <ele>768.8</ele>
      </trkpt>
      <trkpt lat="44.1707" lon="5.78492">
        <ele>771.1</ele>
      </trkpt>
      <trkpt lat="44.17077" lon="5.78493">
        <ele>774</ele>
      </trkpt>
      <trkpt lat="44.17085" lon="5.78494">
        <ele>780.4</ele>
      </trkpt>
      <trkpt lat="44.17093" lon="5.78496">
        <ele>780.9</ele>
      </trkpt>
      <trkpt lat="44.17103" lon="5.78499">
        <ele>781.9</ele>
      </trkpt>
      <trkpt lat="44.17112" lon="5.78501">
        <ele>782.5</ele>
      </trkpt>
      <trkpt lat="44.17121" lon="5.78503">
        <ele>783.5</ele>
      </trkpt>
      <trkpt lat="44.1713" lon="5.78501">
        <ele>784.9</ele>
      </trkpt>
      <trkpt lat="44.17138" lon="5.78498">
        <ele>787.3</ele>
      </trkpt>
      <trkpt lat="44.17146" lon="5.78495">
        <ele>789.2</ele>
      </trkpt>
      <trkpt lat="44.17154" lon="5.78492">
        <ele>791</ele>
      </trkpt>
      <trkpt lat="44.17162" lon="5.78488">
        <ele>792</ele>
      </trkpt>
      <trkpt lat="44.1717" lon="5.78484">
        <ele>799.2</ele>
      </trkpt>
      <trkpt lat="44.17177" lon="5.78481">
        <ele>799.6</ele>
      </trkpt>
      <trkpt lat="44.17185" lon="5.78477">
        <ele>800.1</ele>
      </trkpt>
      <trkpt lat="44.17193" lon="5.78474">
        <ele>800.7</ele>
      </trkpt>
      <trkpt lat="44.17201" lon="5.78472">
        <ele>801.4</ele>
      </trkpt>
      <trkpt lat="44.17208" lon="5.78469">
        <ele>802</ele>
      </trkpt>
      <trkpt lat="44.17214" lon="5.78465">
        <ele>802.6</ele>
      </trkpt>
      <trkpt lat="44.1722" lon="5.78461">
        <ele>803.2</ele>
      </trkpt>
      <trkpt lat="44.17225" lon="5.78455">
        <ele>803.9</ele>
      </trkpt>
      <trkpt lat="44.1723" lon="5.78448">
        <ele>804.8</ele>
      </trkpt>
      <trkpt lat="44.17235" lon="5.78441">
        <ele>806.2</ele>
      </trkpt>
      <trkpt lat="44.17242" lon="5.78435">
        <ele>808.2</ele>
      </trkpt>
      <trkpt lat="44.17249" lon="5.78428">
        <ele>810.9</ele>
      </trkpt>
      <trkpt lat="44.17255" lon="5.7842">
        <ele>817.8</ele>
      </trkpt>
      <trkpt lat="44.1726" lon="5.78415">
        <ele>819.8</ele>
      </trkpt>
      <trkpt lat="44.17264" lon="5.7841">
        <ele>821.3</ele>
      </trkpt>
      <trkpt lat="44.17268" lon="5.78407">
        <ele>822.5</ele>
      </trkpt>
      <trkpt lat="44.17273" lon="5.78403">
        <ele>823.8</ele>
      </trkpt>
      <trkpt lat="44.17278" lon="5.78399">
        <ele>825</ele>
      </trkpt>
      <trkpt lat="44.17283" lon="5.78394">
        <ele>826</ele>
      </trkpt>
      <trkpt lat="44.17288" lon="5.78389">
        <ele>826.9</ele>
      </trkpt>
      <trkpt lat="44.17292" lon="5.78386">
        <ele>827.8</ele>
      </trkpt>
      <trkpt lat="44.17297" lon="5.78385">
        <ele>828.8</ele>
      </trkpt>
      <trkpt lat="44.17302" lon="5.78385">
        <ele>829.7</ele>
      </trkpt>
      <trkpt lat="44.1731" lon="5.78388">
        <ele>831.4</ele>
      </trkpt>
      <trkpt lat="44.17312" lon="5.78389">
        <ele>831.9</ele>
      </trkpt>
      <trkpt lat="44.17319" lon="5.78393">
        <ele>833.6</ele>
      </trkpt>
      <trkpt lat="44.1732" lon="5.78394">
        <ele>834.1</ele>
      </trkpt>
      <trkpt lat="44.17325" lon="5.78397">
        <ele>835.7</ele>
      </trkpt>
      <trkpt lat="44.17331" lon="5.78399">
        <ele>836.8</ele>
      </trkpt>
      <trkpt lat="44.17339" lon="5.78401">
        <ele>849.2</ele>
      </trkpt>
      <trkpt lat="44.17346" lon="5.78402">
        <ele>849.9</ele>
      </trkpt>
      <trkpt lat="44.17354" lon="5.78403">
        <ele>851</ele>
      </trkpt>
      <trkpt lat="44.17363" lon="5.78404">
        <ele>852.2</ele>
      </trkpt>
      <trkpt lat="44.1737" lon="5.78406">
        <ele>853.3</ele>
      </trkpt>
      <trkpt lat="44.17377" lon="5.78408">
        <ele>854.3</ele>
      </trkpt>
      <trkpt lat="44.17384" lon="5.78411">
        <ele>855.2</ele>
      </trkpt>
      <trkpt lat="44.17389" lon="5.78413">
        <ele>856.1</ele>
      </trkpt>
      <trkpt lat="44.17398" lon="5.78414">
        <ele>857.4</ele>
      </trkpt>
      <trkpt lat="44.17402" lon="5.78411">
        <ele>857.9</ele>
      </trkpt>
      <trkpt lat="44.17407" lon="5.78401">
        <ele>858</ele>
      </trkpt>
      <trkpt lat="44.17408" lon="5.78401">
        <ele>858.1</ele>
      </trkpt>
      <trkpt lat="44.17415" lon="5.78396">
        <ele>858.2</ele>
      </trkpt>
      <trkpt lat="44.17419" lon="5.78391">
        <ele>861.2</ele>
      </trkpt>
      <trkpt lat="44.17423" lon="5.78384">
        <ele>861.4</ele>
      </trkpt>
      <trkpt lat="44.17427" lon="5.78376">
        <ele>861.7</ele>
      </trkpt>
      <trkpt lat="44.17432" lon="5.78369">
        <ele>862</ele>
      </trkpt>
      <trkpt lat="44.17437" lon="5.78363">
        <ele>862.3</ele>
      </trkpt>
      <trkpt lat="44.17442" lon="5.78356">
        <ele>862.5</ele>
      </trkpt>
      <trkpt lat="44.17446" lon="5.78349">
        <ele>862.7</ele>
      </trkpt>
      <trkpt lat="44.17451" lon="5.78341">
        <ele>862.8</ele>
      </trkpt>
      <trkpt lat="44.17455" lon="5.78334">
        <ele>862.7</ele>
      </trkpt>
      <trkpt lat="44.1746" lon="5.78327">
        <ele>869.7</ele>
      </trkpt>
      <trkpt lat="44.17463" lon="5.7832">
        <ele>869.9</ele>
      </trkpt>
      <trkpt lat="44.17465" lon="5.78313">
        <ele>870.3</ele>
      </trkpt>
      <trkpt lat="44.17467" lon="5.78304">
        <ele>871</ele>
      </trkpt>
      <trkpt lat="44.17469" lon="5.78296">
        <ele>871.8</ele>
      </trkpt>
      <trkpt lat="44.17471" lon="5.78287">
        <ele>872.7</ele>
      </trkpt>
      <trkpt lat="44.17473" lon="5.78278">
        <ele>873.8</ele>
      </trkpt>
      <trkpt lat="44.17474" lon="5.78271">
        <ele>874.7</ele>
      </trkpt>
      <trkpt lat="44.17474" lon="5.78264">
        <ele>875.6</ele>
      </trkpt>
      <trkpt lat="44.17475" lon="5.78257">
        <ele>876.4</ele>
      </trkpt>
      <trkpt lat="44.17476" lon="5.7825">
        <ele>879.4</ele>
      </trkpt>
      <trkpt lat="44.17477" lon="5.78244">
        <ele>879.5</ele>
      </trkpt>
      <trkpt lat="44.17481" lon="5.78239">
        <ele>879.9</ele>
      </trkpt>
      <trkpt lat="44.17485" lon="5.78234">
        <ele>880.3</ele>
      </trkpt>
      <trkpt lat="44.1749" lon="5.78229">
        <ele>880.5</ele>
      </trkpt>
      <trkpt lat="44.17494" lon="5.78224">
        <ele>880.4</ele>
      </trkpt>
      <trkpt lat="44.17499" lon="5.78219">
        <ele>880.4</ele>
      </trkpt>
      <trkpt lat="44.17505" lon="5.78213">
        <ele>888.5</ele>
      </trkpt>
      <trkpt lat="44.17509" lon="5.78208">
        <ele>888.8</ele>
      </trkpt>
      <trkpt lat="44.17514" lon="5.78204">
        <ele>889.1</ele>
      </trkpt>
      <trkpt lat="44.17519" lon="5.78199">
        <ele>889.5</ele>
      </trkpt>
      <trkpt lat="44.17522" lon="5.78195">
        <ele>889.8</ele>
      </trkpt>
      <trkpt lat="44.17526" lon="5.7819">
        <ele>890.1</ele>
      </trkpt>
      <trkpt lat="44.1753" lon="5.78185">
        <ele>890.5</ele>
      </trkpt>
      <trkpt lat="44.17534" lon="5.7818">
        <ele>890.9</ele>
      </trkpt>
      <trkpt lat="44.17538" lon="5.78176">
        <ele>891.4</ele>
      </trkpt>
      <trkpt lat="44.17542" lon="5.78171">
        <ele>891.9</ele>
      </trkpt>
      <trkpt lat="44.17546" lon="5.78166">
        <ele>897.4</ele>
      </trkpt>
      <trkpt lat="44.17551" lon="5.7816">
        <ele>898</ele>
      </trkpt>
      <trkpt lat="44.17556" lon="5.78155">
        <ele>898.6</ele>
      </trkpt>
      <trkpt lat="44.17561" lon="5.78149">
        <ele>899.1</ele>
      </trkpt>
      <trkpt lat="44.17566" lon="5.78144">
        <ele>899.5</ele>
      </trkpt>
      <trkpt lat="44.17572" lon="5.7814">
        <ele>900</ele>
      </trkpt>
      <trkpt lat="44.17578" lon="5.78136">
        <ele>900.4</ele>
      </trkpt>
      <trkpt lat="44.17583" lon="5.78133">
        <ele>900.7</ele>
      </trkpt>
      <trkpt lat="44.17588" lon="5.7813">
        <ele>910</ele>
      </trkpt>
      <trkpt lat="44.17593" lon="5.78126">
        <ele>910.5</ele>
      </trkpt>
      <trkpt lat="44.17598" lon="5.78122">
        <ele>911</ele>
      </trkpt>
      <trkpt lat="44.17605" lon="5.78116">
        <ele>911.7</ele>
      </trkpt>
      <trkpt lat="44.17606" lon="5.78115">
        <ele>911.8</ele>
      </trkpt>
      <trkpt lat="44.17605" lon="5.78114">
        <ele>911.8</ele>
      </trkpt>
      <trkpt lat="44.17604" lon="5.78114">
        <ele>911.9</ele>
      </trkpt>
      <trkpt lat="44.17605" lon="5.78115">
        <ele>911.8</ele>
      </trkpt>
      <trkpt lat="44.17605" lon="5.78115">
        <ele>911.8</ele>
      </trkpt>
      <trkpt lat="44.17611" lon="5.78107">
        <ele>912.4</ele>
      </trkpt>
      <trkpt lat="44.17615" lon="5.78103">
        <ele>912.9</ele>
      </trkpt>
      <trkpt lat="44.17619" lon="5.78097">
        <ele>913.3</ele>
      </trkpt>
      <trkpt lat="44.17623" lon="5.78092">
        <ele>913.7</ele>
      </trkpt>
      <trkpt lat="44.17626" lon="5.78086">
        <ele>914.1</ele>
      </trkpt>
      <trkpt lat="44.1763" lon="5.7808">
        <ele>909.8</ele>
      </trkpt>
      <trkpt lat="44.17634" lon="5.78075">
        <ele>909.9</ele>
      </trkpt>
      <trkpt lat="44.17638" lon="5.78071">
        <ele>910.1</ele>
      </trkpt>
      <trkpt lat="44.17642" lon="5.7807">
        <ele>910.6</ele>
      </trkpt>
      <trkpt lat="44.17647" lon="5.7807">
        <ele>911.5</ele>
      </trkpt>
      <trkpt lat="44.17653" lon="5.78069">
        <ele>912.3</ele>
      </trkpt>
      <trkpt lat="44.1766" lon="5.78066">
        <ele>912.8</ele>
      </trkpt>
      <trkpt lat="44.17668" lon="5.78062">
        <ele>917.7</ele>
      </trkpt>
      <trkpt lat="44.17677" lon="5.78059">
        <ele>917</ele>
      </trkpt>
      <trkpt lat="44.17687" lon="5.78056">
        <ele>916.6</ele>
      </trkpt>
      <trkpt lat="44.17697" lon="5.78052">
        <ele>916.5</ele>
      </trkpt>
      <trkpt lat="44.17706" lon="5.78047">
        <ele>916.4</ele>
      </trkpt>
      <trkpt lat="44.17716" lon="5.78044">
        <ele>916.7</ele>
      </trkpt>
      <trkpt lat="44.17725" lon="5.78043">
        <ele>917.2</ele>
      </trkpt>
      <trkpt lat="44.17734" lon="5.78042">
        <ele>917.5</ele>
      </trkpt>
      <trkpt lat="44.17743" lon="5.7804">
        <ele>917.7</ele>
      </trkpt>
      <trkpt lat="44.17752" lon="5.78037">
        <ele>923.2</ele>
      </trkpt>
      <trkpt lat="44.17761" lon="5.78034">
        <ele>923.2</ele>
      </trkpt>
      <trkpt lat="44.1777" lon="5.78031">
        <ele>923.4</ele>
      </trkpt>
      <trkpt lat="44.17779" lon="5.78028">
        <ele>923.8</ele>
      </trkpt>
      <trkpt lat="44.17789" lon="5.78025">
        <ele>924.3</ele>
      </trkpt>
      <trkpt lat="44.17798" lon="5.78021">
        <ele>924.9</ele>
      </trkpt>
      <trkpt lat="44.17809" lon="5.78016">
        <ele>925.7</ele>
      </trkpt>
      <trkpt lat="44.1782" lon="5.78011">
        <ele>926.7</ele>
      </trkpt>
      <trkpt lat="44.1783" lon="5.78007">
        <ele>927.9</ele>
      </trkpt>
      <trkpt lat="44.17841" lon="5.78002">
        <ele>929.2</ele>
      </trkpt>
      <trkpt lat="44.17852" lon="5.77997">
        <ele>921.7</ele>
      </trkpt>
      <trkpt lat="44.17863" lon="5.77991">
        <ele>919.8</ele>
      </trkpt>
      <trkpt lat="44.17872" lon="5.77987">
        <ele>919.2</ele>
      </trkpt>
      <trkpt lat="44.17883" lon="5.77987">
        <ele>919.9</ele>
      </trkpt>
      <trkpt lat="44.17892" lon="5.77987">
        <ele>921.3</ele>
      </trkpt>
      <trkpt lat="44.17902" lon="5.77985">
        <ele>923</ele>
      </trkpt>
      <trkpt lat="44.17912" lon="5.77983">
        <ele>923.8</ele>
      </trkpt>
      <trkpt lat="44.17921" lon="5.77982">
        <ele>929.2</ele>
      </trkpt>
      <trkpt lat="44.17931" lon="5.77982">
        <ele>929</ele>
      </trkpt>
      <trkpt lat="44.17941" lon="5.77984">
        <ele>929.1</ele>
      </trkpt>
      <trkpt lat="44.1795" lon="5.77988">
        <ele>929.8</ele>
      </trkpt>
      <trkpt lat="44.17957" lon="5.77993">
        <ele>930.8</ele>
      </trkpt>
      <trkpt lat="44.17964" lon="5.77998">
        <ele>931.9</ele>
      </trkpt>
      <trkpt lat="44.17973" lon="5.78">
        <ele>933.6</ele>
      </trkpt>
      <trkpt lat="44.17981" lon="5.78002">
        <ele>940.5</ele>
      </trkpt>
      <trkpt lat="44.17988" lon="5.78006">
        <ele>941.5</ele>
      </trkpt>
      <trkpt lat="44.17995" lon="5.7801">
        <ele>942.1</ele>
      </trkpt>
      <trkpt lat="44.18001" lon="5.78014">
        <ele>947.3</ele>
      </trkpt>
      <trkpt lat="44.18008" lon="5.78021">
        <ele>948.1</ele>
      </trkpt>
      <trkpt lat="44.18014" lon="5.78028">
        <ele>948.8</ele>
      </trkpt>
      <trkpt lat="44.1802" lon="5.78036">
        <ele>949.2</ele>
      </trkpt>
      <trkpt lat="44.18027" lon="5.78043">
        <ele>949.6</ele>
      </trkpt>
      <trkpt lat="44.18034" lon="5.7805">
        <ele>950</ele>
      </trkpt>
      <trkpt lat="44.1804" lon="5.78057">
        <ele>950.5</ele>
      </trkpt>
      <trkpt lat="44.18044" lon="5.78065">
        <ele>950.8</ele>
      </trkpt>
      <trkpt lat="44.18049" lon="5.78074">
        <ele>951.3</ele>
      </trkpt>
      <trkpt lat="44.18055" lon="5.78082">
        <ele>952.1</ele>
      </trkpt>
      <trkpt lat="44.18061" lon="5.78089">
        <ele>948.9</ele>
      </trkpt>
      <trkpt lat="44.18067" lon="5.78094">
        <ele>949.9</ele>
      </trkpt>
      <trkpt lat="44.18073" lon="5.781">
        <ele>949.9</ele>
      </trkpt>
      <trkpt lat="44.1808" lon="5.78105">
        <ele>949.5</ele>
      </trkpt>
      <trkpt lat="44.18086" lon="5.78108">
        <ele>957.5</ele>
      </trkpt>
      <trkpt lat="44.18092" lon="5.78108">
        <ele>957.7</ele>
      </trkpt>
      <trkpt lat="44.18098" lon="5.78105">
        <ele>958</ele>
      </trkpt>
      <trkpt lat="44.18103" lon="5.78104">
        <ele>958.4</ele>
      </trkpt>
      <trkpt lat="44.18108" lon="5.78106">
        <ele>958.6</ele>
      </trkpt>
      <trkpt lat="44.18112" lon="5.78111">
        <ele>958.7</ele>
      </trkpt>
      <trkpt lat="44.18115" lon="5.78118">
        <ele>958.6</ele>
      </trkpt>
      <trkpt lat="44.18119" lon="5.78127">
        <ele>958.4</ele>
      </trkpt>
      <trkpt lat="44.18123" lon="5.78136">
        <ele>958.2</ele>
      </trkpt>
      <trkpt lat="44.18129" lon="5.78146">
        <ele>958.2</ele>
      </trkpt>
      <trkpt lat="44.18134" lon="5.78155">
        <ele>958.4</ele>
      </trkpt>
      <trkpt lat="44.18141" lon="5.78161">
        <ele>958.9</ele>
      </trkpt>
      <trkpt lat="44.18147" lon="5.78163">
        <ele>959.5</ele>
      </trkpt>
      <trkpt lat="44.18153" lon="5.78163">
        <ele>959.9</ele>
      </trkpt>
      <trkpt lat="44.18159" lon="5.7816">
        <ele>960.3</ele>
      </trkpt>
      <trkpt lat="44.18166" lon="5.78157">
        <ele>960.5</ele>
      </trkpt>
      <trkpt lat="44.18173" lon="5.78155">
        <ele>966.4</ele>
      </trkpt>
      <trkpt lat="44.1818" lon="5.78153">
        <ele>968.1</ele>
      </trkpt>
      <trkpt lat="44.18187" lon="5.78153">
        <ele>969.4</ele>
      </trkpt>
      <trkpt lat="44.18193" lon="5.78154">
        <ele>970.5</ele>
      </trkpt>
      <trkpt lat="44.18199" lon="5.78155">
        <ele>971.3</ele>
      </trkpt>
      <trkpt lat="44.18203" lon="5.78158">
        <ele>971.8</ele>
      </trkpt>
      <trkpt lat="44.18206" lon="5.78165">
        <ele>972</ele>
      </trkpt>
      <trkpt lat="44.18208" lon="5.78174">
        <ele>967.6</ele>
      </trkpt>
      <trkpt lat="44.18212" lon="5.78184">
        <ele>967.8</ele>
      </trkpt>
      <trkpt lat="44.18215" lon="5.78196">
        <ele>967.7</ele>
      </trkpt>
      <trkpt lat="44.18218" lon="5.7821">
        <ele>967.4</ele>
      </trkpt>
      <trkpt lat="44.1822" lon="5.78224">
        <ele>967.3</ele>
      </trkpt>
      <trkpt lat="44.1822" lon="5.78239">
        <ele>967.4</ele>
      </trkpt>
      <trkpt lat="44.1822" lon="5.78254">
        <ele>962.8</ele>
      </trkpt>
      <trkpt lat="44.18219" lon="5.78267">
        <ele>961.8</ele>
      </trkpt>
      <trkpt lat="44.18218" lon="5.78281">
        <ele>960.7</ele>
      </trkpt>
      <trkpt lat="44.18218" lon="5.78293">
        <ele>959.9</ele>
      </trkpt>
      <trkpt lat="44.1822" lon="5.78306">
        <ele>959.4</ele>
      </trkpt>
      <trkpt lat="44.18221" lon="5.7832">
        <ele>959.1</ele>
      </trkpt>
      <trkpt lat="44.18223" lon="5.78333">
        <ele>954.4</ele>
      </trkpt>
      <trkpt lat="44.18224" lon="5.78348">
        <ele>953.9</ele>
      </trkpt>
      <trkpt lat="44.18228" lon="5.78361">
        <ele>953.1</ele>
      </trkpt>
      <trkpt lat="44.18233" lon="5.78374">
        <ele>952.4</ele>
      </trkpt>
      <trkpt lat="44.1824" lon="5.78386">
        <ele>951.9</ele>
      </trkpt>
      <trkpt lat="44.18248" lon="5.78397">
        <ele>951.4</ele>
      </trkpt>
      <trkpt lat="44.18256" lon="5.78409">
        <ele>954.7</ele>
      </trkpt>
      <trkpt lat="44.18263" lon="5.78422">
        <ele>951.6</ele>
      </trkpt>
      <trkpt lat="44.1827" lon="5.78434">
        <ele>951.7</ele>
      </trkpt>
      <trkpt lat="44.18276" lon="5.78448">
        <ele>951.5</ele>
      </trkpt>
      <trkpt lat="44.1828" lon="5.78464">
        <ele>950.7</ele>
      </trkpt>
      <trkpt lat="44.18283" lon="5.7848">
        <ele>949.9</ele>
      </trkpt>
      <trkpt lat="44.18287" lon="5.78495">
        <ele>949.5</ele>
      </trkpt>
      <trkpt lat="44.1829" lon="5.7851">
        <ele>942.9</ele>
      </trkpt>
      <trkpt lat="44.18294" lon="5.78525">
        <ele>942.4</ele>
      </trkpt>
      <trkpt lat="44.18297" lon="5.7854">
        <ele>941.6</ele>
      </trkpt>
      <trkpt lat="44.18301" lon="5.78554">
        <ele>940.7</ele>
      </trkpt>
      <trkpt lat="44.18305" lon="5.78569">
        <ele>940</ele>
      </trkpt>
      <trkpt lat="44.18309" lon="5.78584">
        <ele>933.9</ele>
      </trkpt>
      <trkpt lat="44.18314" lon="5.78598">
        <ele>933.6</ele>
      </trkpt>
      <trkpt lat="44.18318" lon="5.78613">
        <ele>932.5</ele>
      </trkpt>
      <trkpt lat="44.18323" lon="5.78626">
        <ele>931.4</ele>
      </trkpt>
      <trkpt lat="44.18327" lon="5.7864">
        <ele>930.1</ele>
      </trkpt>
      <trkpt lat="44.18329" lon="5.78653">
        <ele>928.9</ele>
      </trkpt>
      <trkpt lat="44.18329" lon="5.78666">
        <ele>927.6</ele>
      </trkpt>
      <trkpt lat="44.18328" lon="5.7868">
        <ele>924.5</ele>
      </trkpt>
      <trkpt lat="44.18325" lon="5.78693">
        <ele>923</ele>
      </trkpt>
      <trkpt lat="44.18322" lon="5.78707">
        <ele>921.7</ele>
      </trkpt>
      <trkpt lat="44.18319" lon="5.78718">
        <ele>920.7</ele>
      </trkpt>
      <trkpt lat="44.18315" lon="5.78727">
        <ele>919.9</ele>
      </trkpt>
      <trkpt lat="44.18311" lon="5.78735">
        <ele>919.6</ele>
      </trkpt>
      <trkpt lat="44.18308" lon="5.78741">
        <ele>919.4</ele>
      </trkpt>
      <trkpt lat="44.18307" lon="5.78748">
        <ele>919.2</ele>
      </trkpt>
      <trkpt lat="44.1831" lon="5.78754">
        <ele>914</ele>
      </trkpt>
      <trkpt lat="44.18315" lon="5.78756">
        <ele>913.9</ele>
      </trkpt>
      <trkpt lat="44.1832" lon="5.78754">
        <ele>914.1</ele>
      </trkpt>
      <trkpt lat="44.18326" lon="5.78748">
        <ele>916.9</ele>
      </trkpt>
      <trkpt lat="44.18333" lon="5.7874">
        <ele>917.3</ele>
      </trkpt>
      <trkpt lat="44.18341" lon="5.78734">
        <ele>916.1</ele>
      </trkpt>
      <trkpt lat="44.18351" lon="5.78728">
        <ele>916.3</ele>
      </trkpt>
      <trkpt lat="44.18363" lon="5.78724">
        <ele>916.3</ele>
      </trkpt>
      <trkpt lat="44.18374" lon="5.7872">
        <ele>915.9</ele>
      </trkpt>
      <trkpt lat="44.18386" lon="5.78716">
        <ele>915.5</ele>
      </trkpt>
      <trkpt lat="44.18398" lon="5.78714">
        <ele>915.1</ele>
      </trkpt>
      <trkpt lat="44.1841" lon="5.78714">
        <ele>914.6</ele>
      </trkpt>
      <trkpt lat="44.18422" lon="5.78714">
        <ele>909.6</ele>
      </trkpt>
      <trkpt lat="44.18435" lon="5.78723">
        <ele>908.6</ele>
      </trkpt>
      <trkpt lat="44.18448" lon="5.78728">
        <ele>908</ele>
      </trkpt>
      <trkpt lat="44.18462" lon="5.78733">
        <ele>907.1</ele>
      </trkpt>
      <trkpt lat="44.18476" lon="5.78735">
        <ele>905.7</ele>
      </trkpt>
      <trkpt lat="44.18489" lon="5.78739">
        <ele>903.7</ele>
      </trkpt>
      <trkpt lat="44.18501" lon="5.78745">
        <ele>900.6</ele>
      </trkpt>
      <trkpt lat="44.18513" lon="5.78753">
        <ele>896.7</ele>
      </trkpt>
      <trkpt lat="44.18525" lon="5.7876">
        <ele>895.6</ele>
      </trkpt>
      <trkpt lat="44.18538" lon="5.78767">
        <ele>895.2</ele>
      </trkpt>
      <trkpt lat="44.1855" lon="5.78774">
        <ele>895.2</ele>
      </trkpt>
      <trkpt lat="44.18561" lon="5.78783">
        <ele>894.7</ele>
      </trkpt>
      <trkpt lat="44.18571" lon="5.78794">
        <ele>893.7</ele>
      </trkpt>
      <trkpt lat="44.18581" lon="5.78807">
        <ele>892</ele>
      </trkpt>
      <trkpt lat="44.1859" lon="5.78822">
        <ele>893.6</ele>
      </trkpt>
      <trkpt lat="44.186" lon="5.78838">
        <ele>888.8</ele>
      </trkpt>
      <trkpt lat="44.18609" lon="5.78854">
        <ele>889</ele>
      </trkpt>
      <trkpt lat="44.18618" lon="5.78869">
        <ele>888.9</ele>
      </trkpt>
      <trkpt lat="44.18626" lon="5.78885">
        <ele>888.4</ele>
      </trkpt>
      <trkpt lat="44.18633" lon="5.789">
        <ele>888.1</ele>
      </trkpt>
      <trkpt lat="44.1864" lon="5.78915">
        <ele>888.2</ele>
      </trkpt>
      <trkpt lat="44.18646" lon="5.78928">
        <ele>882.3</ele>
      </trkpt>
      <trkpt lat="44.18651" lon="5.78942">
        <ele>881.3</ele>
      </trkpt>
      <trkpt lat="44.18653" lon="5.78957">
        <ele>879.9</ele>
      </trkpt>
      <trkpt lat="44.18654" lon="5.78973">
        <ele>878.9</ele>
      </trkpt>
      <trkpt lat="44.18652" lon="5.7899">
        <ele>878.6</ele>
      </trkpt>
      <trkpt lat="44.1865" lon="5.79005">
        <ele>874.7</ele>
      </trkpt>
      <trkpt lat="44.18647" lon="5.79016">
        <ele>873.2</ele>
      </trkpt>
      <trkpt lat="44.18647" lon="5.79028">
        <ele>872.2</ele>
      </trkpt>
      <trkpt lat="44.18649" lon="5.79038">
        <ele>871.7</ele>
      </trkpt>
      <trkpt lat="44.18655" lon="5.79048">
        <ele>871.6</ele>
      </trkpt>
      <trkpt lat="44.18662" lon="5.79056">
        <ele>871.8</ele>
      </trkpt>
      <trkpt lat="44.1867" lon="5.79062">
        <ele>878.9</ele>
      </trkpt>
      <trkpt lat="44.18678" lon="5.79067">
        <ele>878.8</ele>
      </trkpt>
      <trkpt lat="44.18686" lon="5.79072">
        <ele>879.2</ele>
      </trkpt>
      <trkpt lat="44.18649" lon="5.79046">
        <ele>873.5</ele>
      </trkpt>
      <trkpt lat="44.18648" lon="5.79015">
        <ele>875.6</ele>
      </trkpt>
      <trkpt lat="44.18653" lon="5.78974">
        <ele>880.7</ele>
      </trkpt>
      <trkpt lat="44.18651" lon="5.78947">
        <ele>883.5</ele>
      </trkpt>
      <trkpt lat="44.18626" lon="5.78875">
        <ele>889.2</ele>
      </trkpt>
      <trkpt lat="44.18615" lon="5.78868">
        <ele>888.3</ele>
      </trkpt>
      <trkpt lat="44.18602" lon="5.78839">
        <ele>890.5</ele>
      </trkpt>
      <trkpt lat="44.18578" lon="5.78805">
        <ele>893</ele>
      </trkpt>
      <trkpt lat="44.18557" lon="5.7878">
        <ele>896.4</ele>
      </trkpt>
      <trkpt lat="44.18505" lon="5.78749">
        <ele>899.5</ele>
      </trkpt>
      <trkpt lat="44.18491" lon="5.78741">
        <ele>901.2</ele>
      </trkpt>
      <trkpt lat="44.18403" lon="5.78716">
        <ele>912.7</ele>
      </trkpt>
      <trkpt lat="44.18365" lon="5.78725">
        <ele>915.3</ele>
      </trkpt>
      <trkpt lat="44.1833" lon="5.78745">
        <ele>915.9</ele>
      </trkpt>
      <trkpt lat="44.18309" lon="5.78754">
        <ele>915.9</ele>
      </trkpt>
      <trkpt lat="44.18304" lon="5.7874">
        <ele>917.9</ele>
      </trkpt>
      <trkpt lat="44.18322" lon="5.78711">
        <ele>920.9</ele>
      </trkpt>
      <trkpt lat="44.18331" lon="5.78677">
        <ele>925.5</ele>
      </trkpt>
      <trkpt lat="44.18329" lon="5.78651">
        <ele>928.9</ele>
      </trkpt>
      <trkpt lat="44.18322" lon="5.78631">
        <ele>931.3</ele>
      </trkpt>
      <trkpt lat="44.18342" lon="5.78576">
        <ele>939.2</ele>
      </trkpt>
      <trkpt lat="44.18349" lon="5.78531">
        <ele>947</ele>
      </trkpt>
      <trkpt lat="44.18332" lon="5.78513">
        <ele>948</ele>
      </trkpt>
      <trkpt lat="44.18307" lon="5.78415">
        <ele>959.5</ele>
      </trkpt>
      <trkpt lat="44.18326" lon="5.78391">
        <ele>966.2</ele>
      </trkpt>
      <trkpt lat="44.18319" lon="5.78349">
        <ele>971.9</ele>
      </trkpt>
      <trkpt lat="44.18304" lon="5.78288">
        <ele>978.4</ele>
      </trkpt>
      <trkpt lat="44.18296" lon="5.78267">
        <ele>979.9</ele>
      </trkpt>
      <trkpt lat="44.18295" lon="5.78241">
        <ele>982.9</ele>
      </trkpt>
      <trkpt lat="44.18301" lon="5.78225">
        <ele>985.5</ele>
      </trkpt>
      <trkpt lat="44.18325" lon="5.78139">
        <ele>996.6</ele>
      </trkpt>
      <trkpt lat="44.1835" lon="5.78112">
        <ele>1002.8</ele>
      </trkpt>
      <trkpt lat="44.18381" lon="5.78058">
        <ele>1007.7</ele>
      </trkpt>
      <trkpt lat="44.18407" lon="5.78032">
        <ele>1010.5</ele>
      </trkpt>
      <trkpt lat="44.1844" lon="5.78">
        <ele>1015.2</ele>
      </trkpt>
      <trkpt lat="44.18456" lon="5.78">
        <ele>1019.4</ele>
      </trkpt>
      <trkpt lat="44.18476" lon="5.77982">
        <ele>1021.4</ele>
      </trkpt>
      <trkpt lat="44.18527" lon="5.77957">
        <ele>1035.9</ele>
      </trkpt>
      <trkpt lat="44.18546" lon="5.77968">
        <ele>1044.8</ele>
      </trkpt>
      <trkpt lat="44.18565" lon="5.77911">
        <ele>1047.1</ele>
      </trkpt>
      <trkpt lat="44.18604" lon="5.77868">
        <ele>1060.2</ele>
      </trkpt>
      <trkpt lat="44.18611" lon="5.77849">
        <ele>1061.7</ele>
      </trkpt>
      <trkpt lat="44.18618" lon="5.77847">
        <ele>1065.2</ele>
      </trkpt>
      <trkpt lat="44.18626" lon="5.77769">
        <ele>1058.4</ele>
      </trkpt>
      <trkpt lat="44.18643" lon="5.77719">
        <ele>1059.9</ele>
      </trkpt>
      <trkpt lat="44.18657" lon="5.77695">
        <ele>1063.1</ele>
      </trkpt>
      <trkpt lat="44.18675" lon="5.77676">
        <ele>1069.9</ele>
      </trkpt>
      <trkpt lat="44.18689" lon="5.77641">
        <ele>1074.3</ele>
      </trkpt>
      <trkpt lat="44.18697" lon="5.77605">
        <ele>1075.5</ele>
      </trkpt>
      <trkpt lat="44.18699" lon="5.77525">
        <ele>1070.7</ele>
      </trkpt>
      <trkpt lat="44.18706" lon="5.775">
        <ele>1072.4</ele>
      </trkpt>
      <trkpt lat="44.1878" lon="5.77376">
        <ele>1081.7</ele>
      </trkpt>
      <trkpt lat="44.18792" lon="5.77341">
        <ele>1081.5</ele>
      </trkpt>
      <trkpt lat="44.18799" lon="5.77301">
        <ele>1079.8</ele>
      </trkpt>
      <trkpt lat="44.18832" lon="5.77255">
        <ele>1088.8</ele>
      </trkpt>
      <trkpt lat="44.1888" lon="5.77196">
        <ele>1097.2</ele>
      </trkpt>
      <trkpt lat="44.18902" lon="5.77181">
        <ele>1102.4</ele>
      </trkpt>
      <trkpt lat="44.18913" lon="5.77169">
        <ele>1104.1</ele>
      </trkpt>
      <trkpt lat="44.18923" lon="5.77146">
        <ele>1102.8</ele>
      </trkpt>
      <trkpt lat="44.18934" lon="5.77129">
        <ele>1103</ele>
      </trkpt>
      <trkpt lat="44.18972" lon="5.77097">
        <ele>1110.2</ele>
      </trkpt>
      <trkpt lat="44.1899" lon="5.77083">
        <ele>1114.4</ele>
      </trkpt>
      <trkpt lat="44.19" lon="5.77063">
        <ele>1115.1</ele>
      </trkpt>
      <trkpt lat="44.19011" lon="5.77037">
        <ele>1115.7</ele>
      </trkpt>
      <trkpt lat="44.19032" lon="5.77018">
        <ele>1121.5</ele>
      </trkpt>
      <trkpt lat="44.19043" lon="5.76999">
        <ele>1123.4</ele>
      </trkpt>
      <trkpt lat="44.19054" lon="5.76975">
        <ele>1125.3</ele>
      </trkpt>
      <trkpt lat="44.19071" lon="5.76951">
        <ele>1129.7</ele>
      </trkpt>
      <trkpt lat="44.19086" lon="5.76927">
        <ele>1133.6</ele>
      </trkpt>
      <trkpt lat="44.19101" lon="5.76885">
        <ele>1138.9</ele>
      </trkpt>
      <trkpt lat="44.19105" lon="5.76864">
        <ele>1139.7</ele>
      </trkpt>
      <trkpt lat="44.19107" lon="5.76832">
        <ele>1138.6</ele>
      </trkpt>
      <trkpt lat="44.19111" lon="5.76804">
        <ele>1137</ele>
      </trkpt>
      <trkpt lat="44.19122" lon="5.76776">
        <ele>1139</ele>
      </trkpt>
      <trkpt lat="44.19148" lon="5.76716">
        <ele>1146.6</ele>
      </trkpt>
      <trkpt lat="44.19168" lon="5.76649">
        <ele>1154.3</ele>
      </trkpt>
      <trkpt lat="44.19178" lon="5.76601">
        <ele>1155.9</ele>
      </trkpt>
      <trkpt lat="44.19215" lon="5.76512">
        <ele>1165.6</ele>
      </trkpt>
      <trkpt lat="44.19234" lon="5.76453">
        <ele>1167.2</ele>
      </trkpt>
      <trkpt lat="44.19281" lon="5.76399">
        <ele>1177.8</ele>
      </trkpt>
      <trkpt lat="44.19297" lon="5.76375">
        <ele>1179.1</ele>
      </trkpt>
      <trkpt lat="44.19376" lon="5.76221">
        <ele>1186.5</ele>
      </trkpt>
      <trkpt lat="44.19391" lon="5.7619">
        <ele>1187.7</ele>
      </trkpt>
      <trkpt lat="44.1941" lon="5.76141">
        <ele>1187</ele>
      </trkpt>
      <trkpt lat="44.1943" lon="5.7611">
        <ele>1185.1</ele>
      </trkpt>
      <trkpt lat="44.19453" lon="5.76083">
        <ele>1183.7</ele>
      </trkpt>
      <trkpt lat="44.19464" lon="5.76082">
        <ele>1184.7</ele>
      </trkpt>
      <trkpt lat="44.19471" lon="5.76089">
        <ele>1186.8</ele>
      </trkpt>
      <trkpt lat="44.1948" lon="5.76124">
        <ele>1191.3</ele>
      </trkpt>
      <trkpt lat="44.19501" lon="5.76329">
        <ele>1198.4</ele>
      </trkpt>
      <trkpt lat="44.19508" lon="5.76373">
        <ele>1197.6</ele>
      </trkpt>
      <trkpt lat="44.19511" lon="5.76421">
        <ele>1199</ele>
      </trkpt>
      <trkpt lat="44.19516" lon="5.76432">
        <ele>1199.2</ele>
      </trkpt>
      <trkpt lat="44.19534" lon="5.7645">
        <ele>1197.7</ele>
      </trkpt>
      <trkpt lat="44.1955" lon="5.7647">
        <ele>1197.3</ele>
      </trkpt>
      <trkpt lat="44.19576" lon="5.76489">
        <ele>1195.4</ele>
      </trkpt>
      <trkpt lat="44.19594" lon="5.76511">
        <ele>1196.2</ele>
      </trkpt>
      <trkpt lat="44.19614" lon="5.7656">
        <ele>1202.4</ele>
      </trkpt>
      <trkpt lat="44.19638" lon="5.76564">
        <ele>1199.8</ele>
      </trkpt>
      <trkpt lat="44.19661" lon="5.76578">
        <ele>1199.6</ele>
      </trkpt>
      <trkpt lat="44.19682" lon="5.76601">
        <ele>1202.6</ele>
      </trkpt>
      <trkpt lat="44.19698" lon="5.76623">
        <ele>1205.6</ele>
      </trkpt>
      <trkpt lat="44.19717" lon="5.76631">
        <ele>1204.9</ele>
      </trkpt>
      <trkpt lat="44.1974" lon="5.76655">
        <ele>1206.4</ele>
      </trkpt>
      <trkpt lat="44.19748" lon="5.76656">
        <ele>1205.4</ele>
      </trkpt>
      <trkpt lat="44.19763" lon="5.76647">
        <ele>1203.9</ele>
      </trkpt>
      <trkpt lat="44.19811" lon="5.76627">
        <ele>1201.4</ele>
      </trkpt>
      <trkpt lat="44.19835" lon="5.76632">
        <ele>1203</ele>
      </trkpt>
      <trkpt lat="44.19892" lon="5.76668">
        <ele>1208.5</ele>
      </trkpt>
      <trkpt lat="44.19966" lon="5.76683">
        <ele>1217.6</ele>
      </trkpt>
      <trkpt lat="44.19979" lon="5.76683">
        <ele>1219.4</ele>
      </trkpt>
      <trkpt lat="44.20025" lon="5.76643">
        <ele>1218.7</ele>
      </trkpt>
      <trkpt lat="44.2006" lon="5.76609">
        <ele>1218.1</ele>
      </trkpt>
      <trkpt lat="44.20105" lon="5.76582">
        <ele>1223</ele>
      </trkpt>
      <trkpt lat="44.20117" lon="5.76573">
        <ele>1224.7</ele>
      </trkpt>
      <trkpt lat="44.2013" lon="5.76551">
        <ele>1224.2</ele>
      </trkpt>
      <trkpt lat="44.20138" lon="5.76498">
        <ele>1216</ele>
      </trkpt>
      <trkpt lat="44.20144" lon="5.76483">
        <ele>1214</ele>
      </trkpt>
      <trkpt lat="44.20153" lon="5.76479">
        <ele>1215.3</ele>
      </trkpt>
      <trkpt lat="44.2016" lon="5.76482">
        <ele>1217.8</ele>
      </trkpt>
      <trkpt lat="44.20178" lon="5.765">
        <ele>1225.9</ele>
      </trkpt>
      <trkpt lat="44.20188" lon="5.76504">
        <ele>1228.5</ele>
      </trkpt>
      <trkpt lat="44.20205" lon="5.76506">
        <ele>1231.9</ele>
      </trkpt>
      <trkpt lat="44.20265" lon="5.7648">
        <ele>1237.2</ele>
      </trkpt>
      <trkpt lat="44.20286" lon="5.7646">
        <ele>1238.7</ele>
      </trkpt>
      <trkpt lat="44.20298" lon="5.76442">
        <ele>1237.6</ele>
      </trkpt>
      <trkpt lat="44.20307" lon="5.76421">
        <ele>1234.5</ele>
      </trkpt>
      <trkpt lat="44.20333" lon="5.76397">
        <ele>1238.9</ele>
      </trkpt>
      <trkpt lat="44.20342" lon="5.76381">
        <ele>1239.1</ele>
      </trkpt>
      <trkpt lat="44.20351" lon="5.76334">
        <ele>1232.5</ele>
      </trkpt>
      <trkpt lat="44.20357" lon="5.7633">
        <ele>1233.9</ele>
      </trkpt>
      <trkpt lat="44.20378" lon="5.7633">
        <ele>1241.5</ele>
      </trkpt>
      <trkpt lat="44.20391" lon="5.76317">
        <ele>1244</ele>
      </trkpt>
      <trkpt lat="44.20405" lon="5.76296">
        <ele>1245.5</ele>
      </trkpt>
      <trkpt lat="44.20418" lon="5.76249">
        <ele>1242.4</ele>
      </trkpt>
      <trkpt lat="44.20434" lon="5.76219">
        <ele>1244.5</ele>
      </trkpt>
      <trkpt lat="44.20441" lon="5.76176">
        <ele>1241</ele>
      </trkpt>
      <trkpt lat="44.20449" lon="5.76159">
        <ele>1240.7</ele>
      </trkpt>
      <trkpt lat="44.20547" lon="5.76081">
        <ele>1252.3</ele>
      </trkpt>
      <trkpt lat="44.20568" lon="5.76048">
        <ele>1253.6</ele>
      </trkpt>
      <trkpt lat="44.20582" lon="5.76038">
        <ele>1255.9</ele>
      </trkpt>
      <trkpt lat="44.20635" lon="5.76024">
        <ele>1262.5</ele>
      </trkpt>
      <trkpt lat="44.20651" lon="5.76014">
        <ele>1263.9</ele>
      </trkpt>
      <trkpt lat="44.20663" lon="5.75997">
        <ele>1264.2</ele>
      </trkpt>
      <trkpt lat="44.20689" lon="5.75932">
        <ele>1264.7</ele>
      </trkpt>
      <trkpt lat="44.20707" lon="5.75897">
        <ele>1263.9</ele>
      </trkpt>
      <trkpt lat="44.20737" lon="5.75842">
        <ele>1261.5</ele>
      </trkpt>
      <trkpt lat="44.20785" lon="5.75764">
        <ele>1268.1</ele>
      </trkpt>
      <trkpt lat="44.20815" lon="5.7569">
        <ele>1271.5</ele>
      </trkpt>
      <trkpt lat="44.20839" lon="5.75611">
        <ele>1270.2</ele>
      </trkpt>
      <trkpt lat="44.2087" lon="5.75561">
        <ele>1275.5</ele>
      </trkpt>
      <trkpt lat="44.20875" lon="5.75552">
        <ele>1276.4</ele>
      </trkpt>
      <trkpt lat="44.20902" lon="5.7553">
        <ele>1283.1</ele>
      </trkpt>
      <trkpt lat="44.20927" lon="5.75516">
        <ele>1287</ele>
      </trkpt>
      <trkpt lat="44.20945" lon="5.75504">
        <ele>1287.1</ele>
      </trkpt>
      <trkpt lat="44.20968" lon="5.75484">
        <ele>1289.8</ele>
      </trkpt>
      <trkpt lat="44.21014" lon="5.75446">
        <ele>1294</ele>
      </trkpt>
      <trkpt lat="44.2104" lon="5.75433">
        <ele>1293.1</ele>
      </trkpt>
      <trkpt lat="44.21074" lon="5.75431">
        <ele>1290.4</ele>
      </trkpt>
      <trkpt lat="44.21097" lon="5.75433">
        <ele>1286.8</ele>
      </trkpt>
      <trkpt lat="44.21109" lon="5.75428">
        <ele>1285</ele>
      </trkpt>
      <trkpt lat="44.21117" lon="5.75416">
        <ele>1284.7</ele>
      </trkpt>
      <trkpt lat="44.21145" lon="5.75345">
        <ele>1290.8</ele>
      </trkpt>
      <trkpt lat="44.2117" lon="5.75305">
        <ele>1289.2</ele>
      </trkpt>
      <trkpt lat="44.21199" lon="5.75253">
        <ele>1287.5</ele>
      </trkpt>
      <trkpt lat="44.21229" lon="5.75189">
        <ele>1290</ele>
      </trkpt>
      <trkpt lat="44.21263" lon="5.75148">
        <ele>1289</ele>
      </trkpt>
      <trkpt lat="44.21266" lon="5.75134">
        <ele>1289.5</ele>
      </trkpt>
      <trkpt lat="44.21331" lon="5.75173">
        <ele>1298</ele>
      </trkpt>
      <trkpt lat="44.21372" lon="5.75159">
        <ele>1311.1</ele>
      </trkpt>
      <trkpt lat="44.21385" lon="5.75164">
        <ele>1315.1</ele>
      </trkpt>
      <trkpt lat="44.21413" lon="5.75249">
        <ele>1315.9</ele>
      </trkpt>
      <trkpt lat="44.21433" lon="5.75264">
        <ele>1320.3</ele>
      </trkpt>
      <trkpt lat="44.21451" lon="5.75288">
        <ele>1322.1</ele>
      </trkpt>
      <trkpt lat="44.21537" lon="5.75281">
        <ele>1343</ele>
      </trkpt>
      <trkpt lat="44.21583" lon="5.75323">
        <ele>1347.4</ele>
      </trkpt>
      <trkpt lat="44.21606" lon="5.75342">
        <ele>1352.5</ele>
      </trkpt>
      <trkpt lat="44.21577" lon="5.75413">
        <ele>1347.4</ele>
      </trkpt>
      <trkpt lat="44.21644" lon="5.75346">
        <ele>1363.2</ele>
      </trkpt>
      <trkpt lat="44.21685" lon="5.75336">
        <ele>1372.6</ele>
      </trkpt>
      <trkpt lat="44.21703" lon="5.75347">
        <ele>1377.4</ele>
      </trkpt>
      <trkpt lat="44.21704" lon="5.75314">
        <ele>1378.6</ele>
      </trkpt>
      <trkpt lat="44.21671" lon="5.75256">
        <ele>1377.2</ele>
      </trkpt>
      <trkpt lat="44.21693" lon="5.75213">
        <ele>1384.6</ele>
      </trkpt>
      <trkpt lat="44.2175" lon="5.75199">
        <ele>1393.6</ele>
      </trkpt>
      <trkpt lat="44.21782" lon="5.75212">
        <ele>1398.2</ele>
      </trkpt>
      <trkpt lat="44.21824" lon="5.75223">
        <ele>1404.9</ele>
      </trkpt>
      <trkpt lat="44.21917" lon="5.75221">
        <ele>1418</ele>
      </trkpt>
      <trkpt lat="44.22018" lon="5.75218">
        <ele>1430.3</ele>
      </trkpt>
      <trkpt lat="44.2203" lon="5.75201">
        <ele>1428.5</ele>
      </trkpt>
      <trkpt lat="44.22092" lon="5.75201">
        <ele>1431.4</ele>
      </trkpt>
      <trkpt lat="44.22232" lon="5.75257">
        <ele>1447.7</ele>
      </trkpt>
      <trkpt lat="44.22255" lon="5.75231">
        <ele>1448.1</ele>
      </trkpt>
      <trkpt lat="44.22265" lon="5.75166">
        <ele>1447.3</ele>
      </trkpt>
      <trkpt lat="44.22257" lon="5.75082">
        <ele>1443.3</ele>
      </trkpt>
      <trkpt lat="44.22224" lon="5.74906">
        <ele>1447.9</ele>
      </trkpt>
      <trkpt lat="44.2223" lon="5.74831">
        <ele>1451.1</ele>
      </trkpt>
      <trkpt lat="44.22241" lon="5.74777">
        <ele>1448.5</ele>
      </trkpt>
      <trkpt lat="44.22281" lon="5.74737">
        <ele>1454</ele>
      </trkpt>
      <trkpt lat="44.22314" lon="5.74701">
        <ele>1459.5</ele>
      </trkpt>
      <trkpt lat="44.22326" lon="5.74703">
        <ele>1463.1</ele>
      </trkpt>
      <trkpt lat="44.22333" lon="5.74712">
        <ele>1465.6</ele>
      </trkpt>
      <trkpt lat="44.22346" lon="5.74715">
        <ele>1465.1</ele>
      </trkpt>
      <trkpt lat="44.22353" lon="5.74704">
        <ele>1464.1</ele>
      </trkpt>
      <trkpt lat="44.22369" lon="5.74665">
        <ele>1462.3</ele>
      </trkpt>
      <trkpt lat="44.22402" lon="5.74618">
        <ele>1467.4</ele>
      </trkpt>
      <trkpt lat="44.22438" lon="5.74605">
        <ele>1464</ele>
      </trkpt>
      <trkpt lat="44.22489" lon="5.74648">
        <ele>1438.2</ele>
      </trkpt>
      <trkpt lat="44.2252" lon="5.7463">
        <ele>1436.1</ele>
      </trkpt>
      <trkpt lat="44.22578" lon="5.74632">
        <ele>1425.6</ele>
      </trkpt>
      <trkpt lat="44.22667" lon="5.74671">
        <ele>1387.9</ele>
      </trkpt>
      <trkpt lat="44.22719" lon="5.74712">
        <ele>1354.9</ele>
      </trkpt>
      <trkpt lat="44.22743" lon="5.74759">
        <ele>1337.2</ele>
      </trkpt>
      <trkpt lat="44.22827" lon="5.74871">
        <ele>1293.4</ele>
      </trkpt>
      <trkpt lat="44.22905" lon="5.74942">
        <ele>1270.3</ele>
      </trkpt>
      <trkpt lat="44.22988" lon="5.74925">
        <ele>1252.5</ele>
      </trkpt>
      <trkpt lat="44.23052" lon="5.74932">
        <ele>1234.9</ele>
      </trkpt>
      <trkpt lat="44.2308" lon="5.74908">
        <ele>1229.2</ele>
      </trkpt>
      <trkpt lat="44.23133" lon="5.74899">
        <ele>1218.1</ele>
      </trkpt>
      <trkpt lat="44.23146" lon="5.74932">
        <ele>1213</ele>
      </trkpt>
      <trkpt lat="44.23202" lon="5.74901">
        <ele>1205.4</ele>
      </trkpt>
      <trkpt lat="44.2326" lon="5.74895">
        <ele>1198.3</ele>
      </trkpt>
      <trkpt lat="44.2334" lon="5.74923">
        <ele>1188.8</ele>
      </trkpt>
      <trkpt lat="44.23373" lon="5.74744">
        <ele>1161.3</ele>
      </trkpt>
      <trkpt lat="44.23446" lon="5.74652">
        <ele>1136.5</ele>
      </trkpt>
      <trkpt lat="44.23545" lon="5.74556">
        <ele>1107.9</ele>
      </trkpt>
      <trkpt lat="44.23569" lon="5.74533">
        <ele>1097.8</ele>
      </trkpt>
      <trkpt lat="44.23604" lon="5.74488">
        <ele>1086</ele>
      </trkpt>
      <trkpt lat="44.23629" lon="5.74435">
        <ele>1078.4</ele>
      </trkpt>
      <trkpt lat="44.23664" lon="5.74387">
        <ele>1065.1</ele>
      </trkpt>
      <trkpt lat="44.23679" lon="5.74392">
        <ele>1062.2</ele>
      </trkpt>
      <trkpt lat="44.23807" lon="5.7434">
        <ele>1038.1</ele>
      </trkpt>
      <trkpt lat="44.23851" lon="5.74299">
        <ele>1027.7</ele>
      </trkpt>
      <trkpt lat="44.2389" lon="5.74282">
        <ele>1019.3</ele>
      </trkpt>
      <trkpt lat="44.23964" lon="5.74286">
        <ele>1003.5</ele>
      </trkpt>
      <trkpt lat="44.23981" lon="5.74307">
        <ele>998.9</ele>
      </trkpt>
      <trkpt lat="44.23988" lon="5.74317">
        <ele>996.7</ele>
      </trkpt>
      <trkpt lat="44.23994" lon="5.74332">
        <ele>994.5</ele>
      </trkpt>
      <trkpt lat="44.24025" lon="5.74373">
        <ele>1000</ele>
      </trkpt>
      <trkpt lat="44.24041" lon="5.74386">
        <ele>1000.2</ele>
      </trkpt>
      <trkpt lat="44.24049" lon="5.74388">
        <ele>999.1</ele>
      </trkpt>
      <trkpt lat="44.24073" lon="5.7439">
        <ele>995.1</ele>
      </trkpt>
      <trkpt lat="44.24084" lon="5.74386">
        <ele>992.5</ele>
      </trkpt>
      <trkpt lat="44.24114" lon="5.74361">
        <ele>982.5</ele>
      </trkpt>
      <trkpt lat="44.24124" lon="5.74355">
        <ele>979.4</ele>
      </trkpt>
      <trkpt lat="44.24134" lon="5.74358">
        <ele>977.7</ele>
      </trkpt>
      <trkpt lat="44.24152" lon="5.74375">
        <ele>977</ele>
      </trkpt>
      <trkpt lat="44.24162" lon="5.7438">
        <ele>975.9</ele>
      </trkpt>
      <trkpt lat="44.24187" lon="5.74375">
        <ele>972.4</ele>
      </trkpt>
      <trkpt lat="44.24199" lon="5.74368">
        <ele>970.1</ele>
      </trkpt>
      <trkpt lat="44.2422" lon="5.74375">
        <ele>969.8</ele>
      </trkpt>
      <trkpt lat="44.24226" lon="5.74373">
        <ele>969</ele>
      </trkpt>
      <trkpt lat="44.24231" lon="5.74368">
        <ele>967.6</ele>
      </trkpt>
      <trkpt lat="44.24242" lon="5.74344">
        <ele>961.8</ele>
      </trkpt>
      <trkpt lat="44.24253" lon="5.74333">
        <ele>959.5</ele>
      </trkpt>
      <trkpt lat="44.24261" lon="5.7432">
        <ele>958.8</ele>
      </trkpt>
      <trkpt lat="44.24272" lon="5.74309">
        <ele>958.6</ele>
      </trkpt>
      <trkpt lat="44.24281" lon="5.74295">
        <ele>957.4</ele>
      </trkpt>
      <trkpt lat="44.24308" lon="5.74231">
        <ele>947.9</ele>
      </trkpt>
      <trkpt lat="44.24351" lon="5.74152">
        <ele>935.8</ele>
      </trkpt>
      <trkpt lat="44.24372" lon="5.74107">
        <ele>929</ele>
      </trkpt>
      <trkpt lat="44.24386" lon="5.7409">
        <ele>927.4</ele>
      </trkpt>
      <trkpt lat="44.244" lon="5.7408">
        <ele>927.5</ele>
      </trkpt>
      <trkpt lat="44.24413" lon="5.74068">
        <ele>926.9</ele>
      </trkpt>
      <trkpt lat="44.24468" lon="5.74012">
        <ele>920.6</ele>
      </trkpt>
      <trkpt lat="44.24484" lon="5.74002">
        <ele>919.8</ele>
      </trkpt>
      <trkpt lat="44.24499" lon="5.73997">
        <ele>920.4</ele>
      </trkpt>
      <trkpt lat="44.24516" lon="5.73987">
        <ele>918.6</ele>
      </trkpt>
      <trkpt lat="44.24539" lon="5.73956">
        <ele>913.8</ele>
      </trkpt>
      <trkpt lat="44.24555" lon="5.7394">
        <ele>911.9</ele>
      </trkpt>
      <trkpt lat="44.24569" lon="5.73907">
        <ele>907.5</ele>
      </trkpt>
      <trkpt lat="44.24577" lon="5.73895">
        <ele>905.8</ele>
      </trkpt>
      <trkpt lat="44.24605" lon="5.73871">
        <ele>901.5</ele>
      </trkpt>
      <trkpt lat="44.2463" lon="5.73843">
        <ele>896.2</ele>
      </trkpt>
      <trkpt lat="44.24638" lon="5.7384">
        <ele>895.5</ele>
      </trkpt>
      <trkpt lat="44.24647" lon="5.7384">
        <ele>895.4</ele>
      </trkpt>
      <trkpt lat="44.24658" lon="5.73843">
        <ele>895.8</ele>
      </trkpt>
      <trkpt lat="44.24683" lon="5.73817">
        <ele>890.4</ele>
      </trkpt>
      <trkpt lat="44.24693" lon="5.73788">
        <ele>885</ele>
      </trkpt>
      <trkpt lat="44.24711" lon="5.73772">
        <ele>882.2</ele>
      </trkpt>
      <trkpt lat="44.24728" lon="5.73732">
        <ele>876.7</ele>
      </trkpt>
      <trkpt lat="44.2477" lon="5.7372">
        <ele>874.1</ele>
      </trkpt>
      <trkpt lat="44.24793" lon="5.73697">
        <ele>869.9</ele>
      </trkpt>
      <trkpt lat="44.24816" lon="5.73684">
        <ele>866.8</ele>
      </trkpt>
      <trkpt lat="44.2489" lon="5.73626">
        <ele>853.3</ele>
      </trkpt>
      <trkpt lat="44.24958" lon="5.73617">
        <ele>843</ele>
      </trkpt>
      <trkpt lat="44.24985" lon="5.73584">
        <ele>838.3</ele>
      </trkpt>
      <trkpt lat="44.25073" lon="5.73591">
        <ele>818.3</ele>
      </trkpt>
      <trkpt lat="44.25068" lon="5.73638">
        <ele>818.5</ele>
      </trkpt>
      <trkpt lat="44.25172" lon="5.73656">
        <ele>792.1</ele>
      </trkpt>
      <trkpt lat="44.25258" lon="5.73638">
        <ele>771.6</ele>
      </trkpt>
      <trkpt lat="44.25327" lon="5.73599">
        <ele>752.9</ele>
      </trkpt>
      <trkpt lat="44.25367" lon="5.73563">
        <ele>741.9</ele>
      </trkpt>
      <trkpt lat="44.25413" lon="5.73546">
        <ele>727.2</ele>
      </trkpt>
      <trkpt lat="44.25416" lon="5.73564">
        <ele>726.2</ele>
      </trkpt>
      <trkpt lat="44.25427" lon="5.73606">
        <ele>722.7</ele>
      </trkpt>
      <trkpt lat="44.25433" lon="5.73632">
        <ele>720.1</ele>
      </trkpt>
      <trkpt lat="44.25438" lon="5.73646">
        <ele>718.4</ele>
      </trkpt>
      <trkpt lat="44.2544" lon="5.7366">
        <ele>717.3</ele>
      </trkpt>
      <trkpt lat="44.25437" lon="5.73695">
        <ele>715</ele>
      </trkpt>
      <trkpt lat="44.25432" lon="5.73704">
        <ele>715.1</ele>
      </trkpt>
      <trkpt lat="44.25433" lon="5.73711">
        <ele>714.2</ele>
      </trkpt>
      <trkpt lat="44.25439" lon="5.73713">
        <ele>712.9</ele>
      </trkpt>
      <trkpt lat="44.25453" lon="5.73697">
        <ele>711.7</ele>
      </trkpt>
      <trkpt lat="44.25461" lon="5.73695">
        <ele>710.3</ele>
      </trkpt>
      <trkpt lat="44.25478" lon="5.73682">
        <ele>707.8</ele>
      </trkpt>
      <trkpt lat="44.25504" lon="5.73657">
        <ele>704</ele>
      </trkpt>
      <trkpt lat="44.25505" lon="5.73655">
        <ele>704</ele>
      </trkpt>
      <trkpt lat="44.25514" lon="5.73646">
        <ele>703.4</ele>
      </trkpt>
      <trkpt lat="44.25554" lon="5.73613">
        <ele>700.5</ele>
      </trkpt>
      <trkpt lat="44.2559" lon="5.73569">
        <ele>697.1</ele>
      </trkpt>
      <trkpt lat="44.25597" lon="5.73556">
        <ele>695.3</ele>
      </trkpt>
      <trkpt lat="44.25608" lon="5.73519">
        <ele>692.8</ele>
      </trkpt>
      <trkpt lat="44.25628" lon="5.73462">
        <ele>687.9</ele>
      </trkpt>
      <trkpt lat="44.25634" lon="5.73441">
        <ele>686.1</ele>
      </trkpt>
      <trkpt lat="44.25637" lon="5.73422">
        <ele>684.8</ele>
      </trkpt>
      <trkpt lat="44.25638" lon="5.734">
        <ele>683.1</ele>
      </trkpt>
      <trkpt lat="44.25639" lon="5.73387">
        <ele>681.9</ele>
      </trkpt>
      <trkpt lat="44.25642" lon="5.73381">
        <ele>680.9</ele>
      </trkpt>
      <trkpt lat="44.25648" lon="5.73379">
        <ele>679.7</ele>
      </trkpt>
      <trkpt lat="44.2566" lon="5.73378">
        <ele>677.5</ele>
      </trkpt>
      <trkpt lat="44.25665" lon="5.73377">
        <ele>676.5</ele>
      </trkpt>
      <trkpt lat="44.2568" lon="5.73378">
        <ele>673.4</ele>
      </trkpt>
      <trkpt lat="44.25689" lon="5.73386">
        <ele>672.2</ele>
      </trkpt>
      <trkpt lat="44.25695" lon="5.734">
        <ele>672.3</ele>
      </trkpt>
      <trkpt lat="44.25698" lon="5.73413">
        <ele>672.9</ele>
      </trkpt>
      <trkpt lat="44.25703" lon="5.7343">
        <ele>672.6</ele>
      </trkpt>
      <trkpt lat="44.25721" lon="5.73454">
        <ele>669.3</ele>
      </trkpt>
      <trkpt lat="44.25729" lon="5.73462">
        <ele>667.8</ele>
      </trkpt>
      <trkpt lat="44.25748" lon="5.73514">
        <ele>663.1</ele>
      </trkpt>
      <trkpt lat="44.25754" lon="5.73522">
        <ele>660.8</ele>
      </trkpt>
      <trkpt lat="44.2576" lon="5.73526">
        <ele>658.8</ele>
      </trkpt>
      <trkpt lat="44.25769" lon="5.73524">
        <ele>656.6</ele>
      </trkpt>
      <trkpt lat="44.25775" lon="5.73515">
        <ele>655.4</ele>
      </trkpt>
      <trkpt lat="44.25777" lon="5.73483">
        <ele>655.3</ele>
      </trkpt>
      <trkpt lat="44.25782" lon="5.7348">
        <ele>653.7</ele>
      </trkpt>
      <trkpt lat="44.25788" lon="5.73485">
        <ele>651.9</ele>
      </trkpt>
      <trkpt lat="44.25795" lon="5.735">
        <ele>650</ele>
      </trkpt>
      <trkpt lat="44.25797" lon="5.73512">
        <ele>649.2</ele>
      </trkpt>
      <trkpt lat="44.25796" lon="5.73524">
        <ele>649.3</ele>
      </trkpt>
      <trkpt lat="44.25792" lon="5.73532">
        <ele>650.1</ele>
      </trkpt>
      <trkpt lat="44.25785" lon="5.73542">
        <ele>651.6</ele>
      </trkpt>
      <trkpt lat="44.2576" lon="5.73559">
        <ele>656.2</ele>
      </trkpt>
      <trkpt lat="44.25752" lon="5.73566">
        <ele>657.3</ele>
      </trkpt>
      <trkpt lat="44.25749" lon="5.73576">
        <ele>657</ele>
      </trkpt>
      <trkpt lat="44.25746" lon="5.73589">
        <ele>657.6</ele>
      </trkpt>
      <trkpt lat="44.25748" lon="5.736">
        <ele>658.3</ele>
      </trkpt>
      <trkpt lat="44.25753" lon="5.73607">
        <ele>658.1</ele>
      </trkpt>
      <trkpt lat="44.25759" lon="5.73606">
        <ele>657</ele>
      </trkpt>
      <trkpt lat="44.25767" lon="5.73598">
        <ele>654.8</ele>
      </trkpt>
      <trkpt lat="44.25776" lon="5.73593">
        <ele>652.7</ele>
      </trkpt>
      <trkpt lat="44.25797" lon="5.7359">
        <ele>648.9</ele>
      </trkpt>
      <trkpt lat="44.25816" lon="5.7358">
        <ele>644.9</ele>
      </trkpt>
      <trkpt lat="44.25824" lon="5.73579">
        <ele>643.4</ele>
      </trkpt>
      <trkpt lat="44.25831" lon="5.73583">
        <ele>642.4</ele>
      </trkpt>
      <trkpt lat="44.25839" lon="5.73592">
        <ele>642.4</ele>
      </trkpt>
      <trkpt lat="44.25842" lon="5.73593">
        <ele>642.2</ele>
      </trkpt>
      <trkpt lat="44.25843" lon="5.73593">
        <ele>642.1</ele>
      </trkpt>
      <trkpt lat="44.25846" lon="5.73594">
        <ele>641.8</ele>
      </trkpt>
      <trkpt lat="44.25849" lon="5.73593">
        <ele>641.4</ele>
      </trkpt>
      <trkpt lat="44.25872" lon="5.73581">
        <ele>638.2</ele>
      </trkpt>
      <trkpt lat="44.25877" lon="5.73578">
        <ele>637.7</ele>
      </trkpt>
      <trkpt lat="44.25881" lon="5.73576">
        <ele>637.3</ele>
      </trkpt>
      <trkpt lat="44.25878" lon="5.73563">
        <ele>637.3</ele>
      </trkpt>
      <trkpt lat="44.25861" lon="5.73522">
        <ele>637.4</ele>
      </trkpt>
      <trkpt lat="44.2586" lon="5.73506">
        <ele>636.9</ele>
      </trkpt>
      <trkpt lat="44.25868" lon="5.7339">
        <ele>636.4</ele>
      </trkpt>
      <trkpt lat="44.25874" lon="5.73369">
        <ele>636.3</ele>
      </trkpt>
      <trkpt lat="44.25947" lon="5.73239">
        <ele>636.8</ele>
      </trkpt>
      <trkpt lat="44.25952" lon="5.73228">
        <ele>636.6</ele>
      </trkpt>
      <trkpt lat="44.25953" lon="5.73211">
        <ele>636.4</ele>
      </trkpt>
      <trkpt lat="44.25943" lon="5.7316">
        <ele>636.3</ele>
      </trkpt>
      <trkpt lat="44.25941" lon="5.7314">
        <ele>636.1</ele>
      </trkpt>
      <trkpt lat="44.25942" lon="5.73122">
        <ele>635.9</ele>
      </trkpt>
      <trkpt lat="44.25945" lon="5.73107">
        <ele>635.6</ele>
      </trkpt>
      <trkpt lat="44.25963" lon="5.731">
        <ele>635.1</ele>
      </trkpt>
      <trkpt lat="44.26032" lon="5.7307">
        <ele>636.8</ele>
      </trkpt>
      <trkpt lat="44.26095" lon="5.73045">
        <ele>643.1</ele>
      </trkpt>
      <trkpt lat="44.26117" lon="5.73037">
        <ele>646.2</ele>
      </trkpt>
      <trkpt lat="44.26152" lon="5.73029">
        <ele>651.3</ele>
      </trkpt>
      <trkpt lat="44.26155" lon="5.73028">
        <ele>651.7</ele>
      </trkpt>
      <trkpt lat="44.26155" lon="5.73012">
        <ele>652.1</ele>
      </trkpt>
      <trkpt lat="44.26158" lon="5.72931">
        <ele>654.2</ele>
      </trkpt>
      <trkpt lat="44.26162" lon="5.72925">
        <ele>655</ele>
      </trkpt>
      <trkpt lat="44.26168" lon="5.72908">
        <ele>656.7</ele>
      </trkpt>
      <trkpt lat="44.26184" lon="5.72911">
        <ele>659.8</ele>
      </trkpt>
      <trkpt lat="44.26195" lon="5.7291">
        <ele>662.1</ele>
      </trkpt>
      <trkpt lat="44.26202" lon="5.72908">
        <ele>663.6</ele>
      </trkpt>
      <trkpt lat="44.26274" lon="5.72958">
        <ele>677.8</ele>
      </trkpt>
      <trkpt lat="44.26281" lon="5.72973">
        <ele>679</ele>
      </trkpt>
      <trkpt lat="44.26301" lon="5.72998">
        <ele>682.7</ele>
      </trkpt>
      <trkpt lat="44.2631" lon="5.73001">
        <ele>684.6</ele>
      </trkpt>
      <trkpt lat="44.26318" lon="5.72995">
        <ele>686.7</ele>
      </trkpt>
      <trkpt lat="44.26322" lon="5.72986">
        <ele>688</ele>
      </trkpt>
      <trkpt lat="44.26328" lon="5.72947">
        <ele>691.2</ele>
      </trkpt>
      <trkpt lat="44.26333" lon="5.72938">
        <ele>692.9</ele>
      </trkpt>
      <trkpt lat="44.26361" lon="5.72914">
        <ele>702</ele>
      </trkpt>
      <trkpt lat="44.26393" lon="5.72896">
        <ele>713.1</ele>
      </trkpt>
      <trkpt lat="44.26407" lon="5.72867">
        <ele>720.8</ele>
      </trkpt>
      <trkpt lat="44.26412" lon="5.72865">
        <ele>722.5</ele>
      </trkpt>
      <trkpt lat="44.26425" lon="5.72872">
        <ele>724.9</ele>
      </trkpt>
      <trkpt lat="44.26431" lon="5.72885">
        <ele>724.6</ele>
      </trkpt>
      <trkpt lat="44.26429" lon="5.729">
        <ele>722.2</ele>
      </trkpt>
      <trkpt lat="44.26423" lon="5.72908">
        <ele>719.7</ele>
      </trkpt>
      <trkpt lat="44.26433" lon="5.72937">
        <ele>721.1</ele>
      </trkpt>
      <trkpt lat="44.26438" lon="5.72939">
        <ele>722.2</ele>
      </trkpt>
      <trkpt lat="44.26464" lon="5.72934">
        <ele>727.7</ele>
      </trkpt>
      <trkpt lat="44.26479" lon="5.72929">
        <ele>731.2</ele>
      </trkpt>
      <trkpt lat="44.26488" lon="5.72931">
        <ele>733</ele>
      </trkpt>
      <trkpt lat="44.26496" lon="5.72938">
        <ele>734.1</ele>
      </trkpt>
      <trkpt lat="44.26498" lon="5.72953">
        <ele>733.1</ele>
      </trkpt>
      <trkpt lat="44.26502" lon="5.72945">
        <ele>734.1</ele>
      </trkpt>
      <trkpt lat="44.26513" lon="5.72923">
        <ele>735.4</ele>
      </trkpt>
      <trkpt lat="44.26545" lon="5.72877">
        <ele>738</ele>
      </trkpt>
      <trkpt lat="44.26559" lon="5.72856">
        <ele>738.7</ele>
      </trkpt>
      <trkpt lat="44.2656" lon="5.72845">
        <ele>739.7</ele>
      </trkpt>
      <trkpt lat="44.26557" lon="5.72838">
        <ele>740.7</ele>
      </trkpt>
      <trkpt lat="44.26542" lon="5.72818">
        <ele>743.9</ele>
      </trkpt>
      <trkpt lat="44.26537" lon="5.72808">
        <ele>745.4</ele>
      </trkpt>
      <trkpt lat="44.26544" lon="5.72793">
        <ele>744.9</ele>
      </trkpt>
      <trkpt lat="44.26549" lon="5.72779">
        <ele>744.2</ele>
      </trkpt>
      <trkpt lat="44.26573" lon="5.72668">
        <ele>745.2</ele>
      </trkpt>
      <trkpt lat="44.26573" lon="5.72647">
        <ele>748.3</ele>
      </trkpt>
      <trkpt lat="44.26577" lon="5.72599">
        <ele>754</ele>
      </trkpt>
      <trkpt lat="44.26582" lon="5.7259">
        <ele>753.5</ele>
      </trkpt>
      <trkpt lat="44.26588" lon="5.72591">
        <ele>753.2</ele>
      </trkpt>
      <trkpt lat="44.26599" lon="5.72604">
        <ele>751.9</ele>
      </trkpt>
      <trkpt lat="44.26624" lon="5.72624">
        <ele>749</ele>
      </trkpt>
      <trkpt lat="44.26637" lon="5.72627">
        <ele>748.6</ele>
      </trkpt>
      <trkpt lat="44.26658" lon="5.72616">
        <ele>752.4</ele>
      </trkpt>
      <trkpt lat="44.26699" lon="5.7261">
        <ele>758.6</ele>
      </trkpt>
      <trkpt lat="44.26721" lon="5.72602">
        <ele>763.9</ele>
      </trkpt>
      <trkpt lat="44.26732" lon="5.72591">
        <ele>769</ele>
      </trkpt>
      <trkpt lat="44.26756" lon="5.72574">
        <ele>776</ele>
      </trkpt>
      <trkpt lat="44.26773" lon="5.72573">
        <ele>776.2</ele>
      </trkpt>
      <trkpt lat="44.26787" lon="5.72568">
        <ele>777.2</ele>
      </trkpt>
      <trkpt lat="44.26805" lon="5.72565">
        <ele>777.8</ele>
      </trkpt>
      <trkpt lat="44.2682" lon="5.72554">
        <ele>780</ele>
      </trkpt>
      <trkpt lat="44.26833" lon="5.7253">
        <ele>784.9</ele>
      </trkpt>
      <trkpt lat="44.26849" lon="5.72481">
        <ele>790.6</ele>
      </trkpt>
      <trkpt lat="44.26879" lon="5.72406">
        <ele>798.4</ele>
      </trkpt>
      <trkpt lat="44.26885" lon="5.72364">
        <ele>805.3</ele>
      </trkpt>
      <trkpt lat="44.26884" lon="5.72349">
        <ele>808.9</ele>
      </trkpt>
      <trkpt lat="44.26897" lon="5.72333">
        <ele>805.4</ele>
      </trkpt>
      <trkpt lat="44.26903" lon="5.72308">
        <ele>804.7</ele>
      </trkpt>
      <trkpt lat="44.26899" lon="5.72196">
        <ele>815.8</ele>
      </trkpt>
      <trkpt lat="44.26899" lon="5.7215">
        <ele>816.8</ele>
      </trkpt>
      <trkpt lat="44.26902" lon="5.72113">
        <ele>814.2</ele>
      </trkpt>
      <trkpt lat="44.26899" lon="5.72066">
        <ele>815.8</ele>
      </trkpt>
      <trkpt lat="44.26889" lon="5.72027">
        <ele>821.6</ele>
      </trkpt>
      <trkpt lat="44.26876" lon="5.71956">
        <ele>832.9</ele>
      </trkpt>
      <trkpt lat="44.26884" lon="5.71931">
        <ele>832.9</ele>
      </trkpt>
      <trkpt lat="44.26942" lon="5.71924">
        <ele>821.8</ele>
      </trkpt>
      <trkpt lat="44.26958" lon="5.71912">
        <ele>824.3</ele>
      </trkpt>
      <trkpt lat="44.26969" lon="5.71894">
        <ele>830.1</ele>
      </trkpt>
      <trkpt lat="44.27012" lon="5.71865">
        <ele>838.4</ele>
      </trkpt>
      <trkpt lat="44.27021" lon="5.71851">
        <ele>843.6</ele>
      </trkpt>
      <trkpt lat="44.27026" lon="5.71847">
        <ele>845.1</ele>
      </trkpt>
      <trkpt lat="44.27044" lon="5.71847">
        <ele>846.3</ele>
      </trkpt>
      <trkpt lat="44.27049" lon="5.71838">
        <ele>849.1</ele>
      </trkpt>
      <trkpt lat="44.27061" lon="5.71833">
        <ele>851</ele>
      </trkpt>
      <trkpt lat="44.27069" lon="5.71827">
        <ele>852.7</ele>
      </trkpt>
      <trkpt lat="44.27075" lon="5.71814">
        <ele>855.5</ele>
      </trkpt>
      <trkpt lat="44.27079" lon="5.7181">
        <ele>856.4</ele>
      </trkpt>
      <trkpt lat="44.2709" lon="5.71817">
        <ele>855.9</ele>
      </trkpt>
      <trkpt lat="44.27107" lon="5.71832">
        <ele>855.4</ele>
      </trkpt>
      <trkpt lat="44.27117" lon="5.71835">
        <ele>856</ele>
      </trkpt>
      <trkpt lat="44.27129" lon="5.71833">
        <ele>858.1</ele>
      </trkpt>
      <trkpt lat="44.27138" lon="5.71836">
        <ele>858.5</ele>
      </trkpt>
      <trkpt lat="44.27154" lon="5.71831">
        <ele>861.6</ele>
      </trkpt>
      <trkpt lat="44.27164" lon="5.7182">
        <ele>864.3</ele>
      </trkpt>
      <trkpt lat="44.27177" lon="5.71817">
        <ele>863.9</ele>
      </trkpt>
      <trkpt lat="44.272" lon="5.71803">
        <ele>864.1</ele>
      </trkpt>
      <trkpt lat="44.2722" lon="5.71785">
        <ele>866.6</ele>
      </trkpt>
      <trkpt lat="44.27266" lon="5.71723">
        <ele>875.7</ele>
      </trkpt>
      <trkpt lat="44.27297" lon="5.71689">
        <ele>879.7</ele>
      </trkpt>
      <trkpt lat="44.27307" lon="5.71669">
        <ele>885.3</ele>
      </trkpt>
      <trkpt lat="44.27313" lon="5.71661">
        <ele>887.5</ele>
      </trkpt>
      <trkpt lat="44.27321" lon="5.71656">
        <ele>888.7</ele>
      </trkpt>
      <trkpt lat="44.27328" lon="5.71647">
        <ele>891</ele>
      </trkpt>
      <trkpt lat="44.27356" lon="5.71582">
        <ele>901.3</ele>
      </trkpt>
      <trkpt lat="44.27361" lon="5.71562">
        <ele>904.6</ele>
      </trkpt>
      <trkpt lat="44.27377" lon="5.71527">
        <ele>909.4</ele>
      </trkpt>
      <trkpt lat="44.27386" lon="5.71503">
        <ele>913.7</ele>
      </trkpt>
      <trkpt lat="44.27393" lon="5.71475">
        <ele>920</ele>
      </trkpt>
      <trkpt lat="44.27396" lon="5.7145">
        <ele>926.1</ele>
      </trkpt>
      <trkpt lat="44.27404" lon="5.71426">
        <ele>930.6</ele>
      </trkpt>
      <trkpt lat="44.2741" lon="5.71416">
        <ele>931.7</ele>
      </trkpt>
      <trkpt lat="44.27419" lon="5.71411">
        <ele>930.9</ele>
      </trkpt>
      <trkpt lat="44.27436" lon="5.71406">
        <ele>929.8</ele>
      </trkpt>
      <trkpt lat="44.27496" lon="5.7132">
        <ele>939.6</ele>
      </trkpt>
      <trkpt lat="44.27512" lon="5.71284">
        <ele>937.3</ele>
      </trkpt>
      <trkpt lat="44.27526" lon="5.7124">
        <ele>934.7</ele>
      </trkpt>
      <trkpt lat="44.27528" lon="5.71229">
        <ele>934.5</ele>
      </trkpt>
      <trkpt lat="44.2753" lon="5.71207">
        <ele>935.2</ele>
      </trkpt>
      <trkpt lat="44.27527" lon="5.71179">
        <ele>939.7</ele>
      </trkpt>
      <trkpt lat="44.2753" lon="5.71159">
        <ele>939.5</ele>
      </trkpt>
      <trkpt lat="44.27527" lon="5.71137">
        <ele>943.5</ele>
      </trkpt>
      <trkpt lat="44.2752" lon="5.71117">
        <ele>950</ele>
      </trkpt>
      <trkpt lat="44.27545" lon="5.71067">
        <ele>938.7</ele>
      </trkpt>
      <trkpt lat="44.27562" lon="5.71012">
        <ele>937.3</ele>
      </trkpt>
      <trkpt lat="44.27567" lon="5.70994">
        <ele>937.5</ele>
      </trkpt>
      <trkpt lat="44.27569" lon="5.70976">
        <ele>940</ele>
      </trkpt>
      <trkpt lat="44.27563" lon="5.70948">
        <ele>949.7</ele>
      </trkpt>
      <trkpt lat="44.27569" lon="5.70923">
        <ele>951.5</ele>
      </trkpt>
      <trkpt lat="44.2758" lon="5.70915">
        <ele>947.1</ele>
      </trkpt>
      <trkpt lat="44.27597" lon="5.70915">
        <ele>938.9</ele>
      </trkpt>
      <trkpt lat="44.27605" lon="5.70908">
        <ele>936.2</ele>
      </trkpt>
      <trkpt lat="44.27613" lon="5.70887">
        <ele>935.9</ele>
      </trkpt>
      <trkpt lat="44.2764" lon="5.70793">
        <ele>934.3</ele>
      </trkpt>
      <trkpt lat="44.27639" lon="5.70768">
        <ele>936</ele>
      </trkpt>
      <trkpt lat="44.27641" lon="5.70752">
        <ele>936.3</ele>
      </trkpt>
      <trkpt lat="44.27653" lon="5.70746">
        <ele>932.6</ele>
      </trkpt>
      <trkpt lat="44.27667" lon="5.70734">
        <ele>927.9</ele>
      </trkpt>
      <trkpt lat="44.27673" lon="5.70726">
        <ele>928.3</ele>
      </trkpt>
      <trkpt lat="44.27707" lon="5.70725">
        <ele>934.1</ele>
      </trkpt>
      <trkpt lat="44.27722" lon="5.70738">
        <ele>936.5</ele>
      </trkpt>
      <trkpt lat="44.27743" lon="5.70723">
        <ele>940.4</ele>
      </trkpt>
      <trkpt lat="44.27762" lon="5.70716">
        <ele>944</ele>
      </trkpt>
      <trkpt lat="44.27808" lon="5.70708">
        <ele>953</ele>
      </trkpt>
      <trkpt lat="44.27815" lon="5.70697">
        <ele>956.4</ele>
      </trkpt>
      <trkpt lat="44.27828" lon="5.70689">
        <ele>960.7</ele>
      </trkpt>
      <trkpt lat="44.27846" lon="5.70688">
        <ele>965.1</ele>
      </trkpt>
      <trkpt lat="44.27854" lon="5.70679">
        <ele>969</ele>
      </trkpt>
      <trkpt lat="44.27869" lon="5.70673">
        <ele>973.8</ele>
      </trkpt>
      <trkpt lat="44.27871" lon="5.70658">
        <ele>976.5</ele>
      </trkpt>
      <trkpt lat="44.27882" lon="5.70618">
        <ele>984.5</ele>
      </trkpt>
      <trkpt lat="44.27879" lon="5.70589">
        <ele>987</ele>
      </trkpt>
      <trkpt lat="44.2792" lon="5.70585">
        <ele>1005.1</ele>
      </trkpt>
      <trkpt lat="44.27972" lon="5.70609">
        <ele>1022.2</ele>
      </trkpt>
      <trkpt lat="44.27989" lon="5.7063">
        <ele>1024.1</ele>
      </trkpt>
      <trkpt lat="44.28028" lon="5.70643">
        <ele>1039.3</ele>
      </trkpt>
      <trkpt lat="44.28045" lon="5.7064">
        <ele>1048.6</ele>
      </trkpt>
      <trkpt lat="44.28061" lon="5.70653">
        <ele>1053.6</ele>
      </trkpt>
      <trkpt lat="44.28076" lon="5.70648">
        <ele>1062.3</ele>
      </trkpt>
      <trkpt lat="44.28077" lon="5.70635">
        <ele>1065.7</ele>
      </trkpt>
      <trkpt lat="44.2806" lon="5.7056">
        <ele>1075.6</ele>
      </trkpt>
      <trkpt lat="44.28052" lon="5.70555">
        <ele>1073.3</ele>
      </trkpt>
      <trkpt lat="44.28046" lon="5.70543">
        <ele>1073.9</ele>
      </trkpt>
      <trkpt lat="44.28043" lon="5.70517">
        <ele>1079.8</ele>
      </trkpt>
      <trkpt lat="44.28052" lon="5.70501">
        <ele>1088.4</ele>
      </trkpt>
      <trkpt lat="44.28066" lon="5.70501">
        <ele>1094.8</ele>
      </trkpt>
      <trkpt lat="44.28079" lon="5.70512">
        <ele>1097.7</ele>
      </trkpt>
      <trkpt lat="44.28089" lon="5.70525">
        <ele>1099.1</ele>
      </trkpt>
      <trkpt lat="44.28104" lon="5.70534">
        <ele>1104.6</ele>
      </trkpt>
      <trkpt lat="44.28134" lon="5.70564">
        <ele>1111.4</ele>
      </trkpt>
      <trkpt lat="44.28166" lon="5.7062">
        <ele>1112.9</ele>
      </trkpt>
      <trkpt lat="44.28217" lon="5.70669">
        <ele>1127.9</ele>
      </trkpt>
      <trkpt lat="44.28243" lon="5.70697">
        <ele>1133.4</ele>
      </trkpt>
      <trkpt lat="44.28256" lon="5.70708">
        <ele>1136.5</ele>
      </trkpt>
      <trkpt lat="44.2829" lon="5.70723">
        <ele>1149</ele>
      </trkpt>
      <trkpt lat="44.28313" lon="5.7074">
        <ele>1156.5</ele>
      </trkpt>
      <trkpt lat="44.28336" lon="5.70776">
        <ele>1160.4</ele>
      </trkpt>
      <trkpt lat="44.28356" lon="5.70815">
        <ele>1163.1</ele>
      </trkpt>
      <trkpt lat="44.28372" lon="5.70849">
        <ele>1166.4</ele>
      </trkpt>
      <trkpt lat="44.28393" lon="5.70877">
        <ele>1173.9</ele>
      </trkpt>
      <trkpt lat="44.28395" lon="5.70834">
        <ele>1182.9</ele>
      </trkpt>
      <trkpt lat="44.28389" lon="5.70815">
        <ele>1182</ele>
      </trkpt>
      <trkpt lat="44.2839" lon="5.70772">
        <ele>1188.5</ele>
      </trkpt>
      <trkpt lat="44.28389" lon="5.70725">
        <ele>1194.5</ele>
      </trkpt>
      <trkpt lat="44.28381" lon="5.70688">
        <ele>1196.6</ele>
      </trkpt>
      <trkpt lat="44.28378" lon="5.70663">
        <ele>1199.2</ele>
      </trkpt>
      <trkpt lat="44.28382" lon="5.70665">
        <ele>1200.4</ele>
      </trkpt>
      <trkpt lat="44.28386" lon="5.70656">
        <ele>1203.1</ele>
      </trkpt>
      <trkpt lat="44.28389" lon="5.70643">
        <ele>1205.9</ele>
      </trkpt>
      <trkpt lat="44.28391" lon="5.70617">
        <ele>1210</ele>
      </trkpt>
      <trkpt lat="44.28391" lon="5.70602">
        <ele>1212</ele>
      </trkpt>
      <trkpt lat="44.28388" lon="5.70588">
        <ele>1213.2</ele>
      </trkpt>
      <trkpt lat="44.28389" lon="5.70582">
        <ele>1214.3</ele>
      </trkpt>
      <trkpt lat="44.28394" lon="5.70583">
        <ele>1215.2</ele>
      </trkpt>
      <trkpt lat="44.28397" lon="5.70577">
        <ele>1216.8</ele>
      </trkpt>
      <trkpt lat="44.28398" lon="5.70561">
        <ele>1219.4</ele>
      </trkpt>
      <trkpt lat="44.28396" lon="5.70553">
        <ele>1220.4</ele>
      </trkpt>
      <trkpt lat="44.28399" lon="5.70549">
        <ele>1221.3</ele>
      </trkpt>
      <trkpt lat="44.28397" lon="5.7054">
        <ele>1222.6</ele>
      </trkpt>
      <trkpt lat="44.28394" lon="5.70533">
        <ele>1223.6</ele>
      </trkpt>
      <trkpt lat="44.28373" lon="5.70509">
        <ele>1229</ele>
      </trkpt>
      <trkpt lat="44.28377" lon="5.70503">
        <ele>1230.1</ele>
      </trkpt>
      <trkpt lat="44.28386" lon="5.705">
        <ele>1229.9</ele>
      </trkpt>
      <trkpt lat="44.28386" lon="5.70496">
        <ele>1230.2</ele>
      </trkpt>
      <trkpt lat="44.28383" lon="5.70491">
        <ele>1231</ele>
      </trkpt>
      <trkpt lat="44.28391" lon="5.70485">
        <ele>1230.3</ele>
      </trkpt>
      <trkpt lat="44.28391" lon="5.7048">
        <ele>1230.6</ele>
      </trkpt>
      <trkpt lat="44.28387" lon="5.70473">
        <ele>1231.8</ele>
      </trkpt>
      <trkpt lat="44.28379" lon="5.70472">
        <ele>1233.5</ele>
      </trkpt>
      <trkpt lat="44.28364" lon="5.70462">
        <ele>1238.3</ele>
      </trkpt>
      <trkpt lat="44.28372" lon="5.70451">
        <ele>1237.8</ele>
      </trkpt>
      <trkpt lat="44.28377" lon="5.70447">
        <ele>1236.7</ele>
      </trkpt>
      <trkpt lat="44.28381" lon="5.70447">
        <ele>1235.5</ele>
      </trkpt>
      <trkpt lat="44.28384" lon="5.70441">
        <ele>1235.1</ele>
      </trkpt>
      <trkpt lat="44.28382" lon="5.70432">
        <ele>1236.6</ele>
      </trkpt>
      <trkpt lat="44.28376" lon="5.70419">
        <ele>1240.3</ele>
      </trkpt>
      <trkpt lat="44.28371" lon="5.70408">
        <ele>1241.4</ele>
      </trkpt>
      <trkpt lat="44.2834" lon="5.70387">
        <ele>1252.4</ele>
      </trkpt>
      <trkpt lat="44.28329" lon="5.70362">
        <ele>1252.3</ele>
      </trkpt>
      <trkpt lat="44.28315" lon="5.70315">
        <ele>1249.9</ele>
      </trkpt>
      <trkpt lat="44.28314" lon="5.70272">
        <ele>1246.8</ele>
      </trkpt>
      <trkpt lat="44.2831" lon="5.70243">
        <ele>1246.5</ele>
      </trkpt>
      <trkpt lat="44.28312" lon="5.70226">
        <ele>1244.5</ele>
      </trkpt>
      <trkpt lat="44.28311" lon="5.70191">
        <ele>1242.8</ele>
      </trkpt>
      <trkpt lat="44.28315" lon="5.70165">
        <ele>1239.1</ele>
      </trkpt>
      <trkpt lat="44.28314" lon="5.70141">
        <ele>1239.3</ele>
      </trkpt>
      <trkpt lat="44.28332" lon="5.70086">
        <ele>1227</ele>
      </trkpt>
      <trkpt lat="44.28334" lon="5.70065">
        <ele>1225.4</ele>
      </trkpt>
      <trkpt lat="44.28363" lon="5.70011">
        <ele>1208.5</ele>
      </trkpt>
      <trkpt lat="44.28373" lon="5.69988">
        <ele>1202.3</ele>
      </trkpt>
      <trkpt lat="44.28375" lon="5.69975">
        <ele>1200.9</ele>
      </trkpt>
      <trkpt lat="44.2837" lon="5.69943">
        <ele>1202.9</ele>
      </trkpt>
      <trkpt lat="44.28379" lon="5.69919">
        <ele>1197.4</ele>
      </trkpt>
      <trkpt lat="44.28385" lon="5.69884">
        <ele>1193.2</ele>
      </trkpt>
      <trkpt lat="44.2839" lon="5.69875">
        <ele>1190.2</ele>
      </trkpt>
      <trkpt lat="44.28404" lon="5.69865">
        <ele>1182.5</ele>
      </trkpt>
      <trkpt lat="44.28414" lon="5.6985">
        <ele>1176.8</ele>
      </trkpt>
      <trkpt lat="44.28421" lon="5.69823">
        <ele>1173.4</ele>
      </trkpt>
      <trkpt lat="44.2842" lon="5.69802">
        <ele>1172.9</ele>
      </trkpt>
      <trkpt lat="44.28424" lon="5.69788">
        <ele>1171.3</ele>
      </trkpt>
      <trkpt lat="44.2843" lon="5.69785">
        <ele>1169.4</ele>
      </trkpt>
      <trkpt lat="44.28446" lon="5.69794">
        <ele>1165.1</ele>
      </trkpt>
      <trkpt lat="44.28454" lon="5.6979">
        <ele>1162.7</ele>
      </trkpt>
      <trkpt lat="44.28466" lon="5.69807">
        <ele>1159.8</ele>
      </trkpt>
      <trkpt lat="44.28476" lon="5.69811">
        <ele>1157.1</ele>
      </trkpt>
      <trkpt lat="44.28484" lon="5.69808">
        <ele>1154.7</ele>
      </trkpt>
      <trkpt lat="44.28508" lon="5.69782">
        <ele>1146</ele>
      </trkpt>
      <trkpt lat="44.28509" lon="5.69776">
        <ele>1145.3</ele>
      </trkpt>
      <trkpt lat="44.28507" lon="5.69737">
        <ele>1143.5</ele>
      </trkpt>
      <trkpt lat="44.28513" lon="5.69706">
        <ele>1137.5</ele>
      </trkpt>
      <trkpt lat="44.28521" lon="5.69692">
        <ele>1133.2</ele>
      </trkpt>
      <trkpt lat="44.28529" lon="5.69686">
        <ele>1129.9</ele>
      </trkpt>
      <trkpt lat="44.28539" lon="5.69686">
        <ele>1126.5</ele>
      </trkpt>
      <trkpt lat="44.28556" lon="5.69693">
        <ele>1121.3</ele>
      </trkpt>
      <trkpt lat="44.28561" lon="5.69692">
        <ele>1119.5</ele>
      </trkpt>
      <trkpt lat="44.28568" lon="5.69682">
        <ele>1116.6</ele>
      </trkpt>
      <trkpt lat="44.2858" lon="5.69679">
        <ele>1112.5</ele>
      </trkpt>
      <trkpt lat="44.28604" lon="5.69694">
        <ele>1106.7</ele>
      </trkpt>
      <trkpt lat="44.28636" lon="5.69701">
        <ele>1098.7</ele>
      </trkpt>
      <trkpt lat="44.28656" lon="5.69714">
        <ele>1093.9</ele>
      </trkpt>
      <trkpt lat="44.28674" lon="5.69713">
        <ele>1089.7</ele>
      </trkpt>
      <trkpt lat="44.28682" lon="5.69709">
        <ele>1088.2</ele>
      </trkpt>
      <trkpt lat="44.28691" lon="5.69713">
        <ele>1086.5</ele>
      </trkpt>
      <trkpt lat="44.287" lon="5.69728">
        <ele>1084.8</ele>
      </trkpt>
      <trkpt lat="44.28711" lon="5.69728">
        <ele>1082.6</ele>
      </trkpt>
      <trkpt lat="44.28739" lon="5.69698">
        <ele>1077.8</ele>
      </trkpt>
      <trkpt lat="44.2876" lon="5.69695">
        <ele>1075.5</ele>
      </trkpt>
      <trkpt lat="44.28764" lon="5.69682">
        <ele>1076.1</ele>
      </trkpt>
      <trkpt lat="44.28762" lon="5.69657">
        <ele>1077</ele>
      </trkpt>
      <trkpt lat="44.28765" lon="5.69602">
        <ele>1077.5</ele>
      </trkpt>
      <trkpt lat="44.28781" lon="5.69547">
        <ele>1075.4</ele>
      </trkpt>
      <trkpt lat="44.28826" lon="5.69454">
        <ele>1068.4</ele>
      </trkpt>
      <trkpt lat="44.28835" lon="5.69419">
        <ele>1064.6</ele>
      </trkpt>
      <trkpt lat="44.28844" lon="5.69403">
        <ele>1065</ele>
      </trkpt>
      <trkpt lat="44.2889" lon="5.69317">
        <ele>1060.5</ele>
      </trkpt>
      <trkpt lat="44.28921" lon="5.69247">
        <ele>1054.4</ele>
      </trkpt>
      <trkpt lat="44.28942" lon="5.69215">
        <ele>1054.5</ele>
      </trkpt>
      <trkpt lat="44.28962" lon="5.69193">
        <ele>1053.4</ele>
      </trkpt>
      <trkpt lat="44.28982" lon="5.69179">
        <ele>1052</ele>
      </trkpt>
      <trkpt lat="44.29019" lon="5.69174">
        <ele>1051.6</ele>
      </trkpt>
      <trkpt lat="44.2905" lon="5.6917">
        <ele>1051.4</ele>
      </trkpt>
      <trkpt lat="44.29059" lon="5.69171">
        <ele>1051.8</ele>
      </trkpt>
      <trkpt lat="44.29081" lon="5.6917">
        <ele>1051.9</ele>
      </trkpt>
      <trkpt lat="44.29116" lon="5.69168">
        <ele>1056.5</ele>
      </trkpt>
      <trkpt lat="44.29172" lon="5.69158">
        <ele>1062.6</ele>
      </trkpt>
      <trkpt lat="44.29256" lon="5.69113">
        <ele>1056.8</ele>
      </trkpt>
      <trkpt lat="44.29277" lon="5.69123">
        <ele>1055.9</ele>
      </trkpt>
      <trkpt lat="44.29289" lon="5.69151">
        <ele>1061.6</ele>
      </trkpt>
      <trkpt lat="44.293" lon="5.69164">
        <ele>1063.5</ele>
      </trkpt>
      <trkpt lat="44.29307" lon="5.6917">
        <ele>1064</ele>
      </trkpt>
      <trkpt lat="44.29346" lon="5.69202">
        <ele>1066.1</ele>
      </trkpt>
      <trkpt lat="44.29359" lon="5.69196">
        <ele>1061.3</ele>
      </trkpt>
      <trkpt lat="44.29379" lon="5.69182">
        <ele>1052.5</ele>
      </trkpt>
      <trkpt lat="44.29402" lon="5.69185">
        <ele>1047.8</ele>
      </trkpt>
      <trkpt lat="44.29422" lon="5.69181">
        <ele>1040.8</ele>
      </trkpt>
      <trkpt lat="44.29414" lon="5.69163">
        <ele>1038.9</ele>
      </trkpt>
      <trkpt lat="44.2941" lon="5.69148">
        <ele>1036.9</ele>
      </trkpt>
      <trkpt lat="44.29414" lon="5.69145">
        <ele>1035.4</ele>
      </trkpt>
      <trkpt lat="44.29456" lon="5.69173">
        <ele>1023.7</ele>
      </trkpt>
      <trkpt lat="44.29501" lon="5.69218">
        <ele>1015.6</ele>
      </trkpt>
      <trkpt lat="44.29552" lon="5.69258">
        <ele>1006.9</ele>
      </trkpt>
      <trkpt lat="44.29575" lon="5.69272">
        <ele>1004.8</ele>
      </trkpt>
      <trkpt lat="44.29582" lon="5.69273">
        <ele>1002.8</ele>
      </trkpt>
      <trkpt lat="44.29614" lon="5.69286">
        <ele>1004.4</ele>
      </trkpt>
      <trkpt lat="44.29657" lon="5.69278">
        <ele>993.9</ele>
      </trkpt>
      <trkpt lat="44.29701" lon="5.69279">
        <ele>993.3</ele>
      </trkpt>
      <trkpt lat="44.29734" lon="5.6927">
        <ele>988.2</ele>
      </trkpt>
      <trkpt lat="44.29765" lon="5.69253">
        <ele>979.6</ele>
      </trkpt>
      <trkpt lat="44.29787" lon="5.69251">
        <ele>981</ele>
      </trkpt>
      <trkpt lat="44.29808" lon="5.69255">
        <ele>985.8</ele>
      </trkpt>
      <trkpt lat="44.29857" lon="5.69244">
        <ele>980.2</ele>
      </trkpt>
      <trkpt lat="44.29888" lon="5.69244">
        <ele>977.6</ele>
      </trkpt>
      <trkpt lat="44.29933" lon="5.69264">
        <ele>979.5</ele>
      </trkpt>
      <trkpt lat="44.29979" lon="5.69321">
        <ele>983.5</ele>
      </trkpt>
      <trkpt lat="44.30049" lon="5.69414">
        <ele>993.8</ele>
      </trkpt>
      <trkpt lat="44.30062" lon="5.69445">
        <ele>996.7</ele>
      </trkpt>
      <trkpt lat="44.30086" lon="5.69473">
        <ele>996.1</ele>
      </trkpt>
      <trkpt lat="44.30095" lon="5.69472">
        <ele>999</ele>
      </trkpt>
      <trkpt lat="44.30109" lon="5.69406">
        <ele>992</ele>
      </trkpt>
      <trkpt lat="44.30126" lon="5.69351">
        <ele>989.2</ele>
      </trkpt>
      <trkpt lat="44.30146" lon="5.69248">
        <ele>982.8</ele>
      </trkpt>
      <trkpt lat="44.30173" lon="5.69161">
        <ele>982.1</ele>
      </trkpt>
      <trkpt lat="44.30188" lon="5.69143">
        <ele>978.3</ele>
      </trkpt>
      <trkpt lat="44.30234" lon="5.69122">
        <ele>978.1</ele>
      </trkpt>
      <trkpt lat="44.30282" lon="5.69108">
        <ele>970</ele>
      </trkpt>
      <trkpt lat="44.30304" lon="5.69115">
        <ele>967.9</ele>
      </trkpt>
      <trkpt lat="44.30311" lon="5.69095">
        <ele>961.8</ele>
      </trkpt>
      <trkpt lat="44.30371" lon="5.6909">
        <ele>949.5</ele>
      </trkpt>
      <trkpt lat="44.30383" lon="5.69077">
        <ele>946.6</ele>
      </trkpt>
      <trkpt lat="44.30391" lon="5.69072">
        <ele>945.4</ele>
      </trkpt>
      <trkpt lat="44.30399" lon="5.69102">
        <ele>944.4</ele>
      </trkpt>
      <trkpt lat="44.30457" lon="5.69173">
        <ele>926.9</ele>
      </trkpt>
      <trkpt lat="44.30507" lon="5.69218">
        <ele>912.4</ele>
      </trkpt>
      <trkpt lat="44.30563" lon="5.69242">
        <ele>894.9</ele>
      </trkpt>
      <trkpt lat="44.30576" lon="5.69272">
        <ele>890.2</ele>
      </trkpt>
      <trkpt lat="44.30581" lon="5.69313">
        <ele>887.5</ele>
      </trkpt>
      <trkpt lat="44.30595" lon="5.69328">
        <ele>882.1</ele>
      </trkpt>
      <trkpt lat="44.30602" lon="5.6933">
        <ele>879.6</ele>
      </trkpt>
      <trkpt lat="44.30624" lon="5.69328">
        <ele>872.1</ele>
      </trkpt>
      <trkpt lat="44.30629" lon="5.69328">
        <ele>870.4</ele>
      </trkpt>
      <trkpt lat="44.3065" lon="5.69311">
        <ele>864.4</ele>
      </trkpt>
      <trkpt lat="44.30668" lon="5.69297">
        <ele>859.8</ele>
      </trkpt>
      <trkpt lat="44.30695" lon="5.69281">
        <ele>855.7</ele>
      </trkpt>
      <trkpt lat="44.30719" lon="5.69258">
        <ele>854.6</ele>
      </trkpt>
      <trkpt lat="44.30722" lon="5.69259">
        <ele>853.9</ele>
      </trkpt>
      <trkpt lat="44.30725" lon="5.69268">
        <ele>851.9</ele>
      </trkpt>
      <trkpt lat="44.30723" lon="5.69274">
        <ele>851.2</ele>
      </trkpt>
      <trkpt lat="44.30715" lon="5.69285">
        <ele>851.1</ele>
      </trkpt>
      <trkpt lat="44.30696" lon="5.69306">
        <ele>852.4</ele>
      </trkpt>
      <trkpt lat="44.30684" lon="5.69335">
        <ele>851.9</ele>
      </trkpt>
      <trkpt lat="44.30656" lon="5.69367">
        <ele>855.6</ele>
      </trkpt>
      <trkpt lat="44.30645" lon="5.69376">
        <ele>858.8</ele>
      </trkpt>
      <trkpt lat="44.30643" lon="5.69382">
        <ele>858.9</ele>
      </trkpt>
      <trkpt lat="44.30644" lon="5.69391">
        <ele>857.3</ele>
      </trkpt>
      <trkpt lat="44.30661" lon="5.69462">
        <ele>849.4</ele>
      </trkpt>
      <trkpt lat="44.30687" lon="5.69497">
        <ele>841.5</ele>
      </trkpt>
      <trkpt lat="44.30723" lon="5.69559">
        <ele>833.4</ele>
      </trkpt>
      <trkpt lat="44.3075" lon="5.69584">
        <ele>824.1</ele>
      </trkpt>
      <trkpt lat="44.30755" lon="5.69576">
        <ele>822</ele>
      </trkpt>
      <trkpt lat="44.3076" lon="5.69569">
        <ele>820.1</ele>
      </trkpt>
      <trkpt lat="44.30762" lon="5.69558">
        <ele>818.5</ele>
      </trkpt>
      <trkpt lat="44.30781" lon="5.6955">
        <ele>812.7</ele>
      </trkpt>
      <trkpt lat="44.30792" lon="5.69525">
        <ele>807.1</ele>
      </trkpt>
      <trkpt lat="44.30796" lon="5.69514">
        <ele>804.8</ele>
      </trkpt>
      <trkpt lat="44.30795" lon="5.69497">
        <ele>803.6</ele>
      </trkpt>
      <trkpt lat="44.30794" lon="5.69482">
        <ele>803.9</ele>
      </trkpt>
      <trkpt lat="44.308" lon="5.69448">
        <ele>802.2</ele>
      </trkpt>
      <trkpt lat="44.30803" lon="5.69438">
        <ele>801.4</ele>
      </trkpt>
      <trkpt lat="44.30828" lon="5.69417">
        <ele>794.5</ele>
      </trkpt>
      <trkpt lat="44.30835" lon="5.69396">
        <ele>797.3</ele>
      </trkpt>
      <trkpt lat="44.30855" lon="5.69403">
        <ele>790.6</ele>
      </trkpt>
      <trkpt lat="44.30891" lon="5.69397">
        <ele>782.9</ele>
      </trkpt>
      <trkpt lat="44.30904" lon="5.694">
        <ele>778.8</ele>
      </trkpt>
      <trkpt lat="44.30919" lon="5.69408">
        <ele>772.8</ele>
      </trkpt>
      <trkpt lat="44.30948" lon="5.69402">
        <ele>768</ele>
      </trkpt>
      <trkpt lat="44.30979" lon="5.69384">
        <ele>768.1</ele>
      </trkpt>
      <trkpt lat="44.30991" lon="5.69385">
        <ele>765.4</ele>
      </trkpt>
      <trkpt lat="44.31021" lon="5.69397">
        <ele>754.3</ele>
      </trkpt>
      <trkpt lat="44.31031" lon="5.69404">
        <ele>749.4</ele>
      </trkpt>
      <trkpt lat="44.31056" lon="5.69417">
        <ele>739.2</ele>
      </trkpt>
      <trkpt lat="44.31086" lon="5.69419">
        <ele>732.2</ele>
      </trkpt>
      <trkpt lat="44.31126" lon="5.69409">
        <ele>719.4</ele>
      </trkpt>
      <trkpt lat="44.31152" lon="5.694">
        <ele>710.6</ele>
      </trkpt>
      <trkpt lat="44.31165" lon="5.69385">
        <ele>707.9</ele>
      </trkpt>
      <trkpt lat="44.31173" lon="5.69368">
        <ele>708.3</ele>
      </trkpt>
      <trkpt lat="44.31188" lon="5.69325">
        <ele>708.3</ele>
      </trkpt>
      <trkpt lat="44.31208" lon="5.6925">
        <ele>699.1</ele>
      </trkpt>
      <trkpt lat="44.31234" lon="5.69219">
        <ele>690.3</ele>
      </trkpt>
      <trkpt lat="44.31238" lon="5.6921">
        <ele>689.2</ele>
      </trkpt>
      <trkpt lat="44.31227" lon="5.69178">
        <ele>693</ele>
      </trkpt>
      <trkpt lat="44.31228" lon="5.69155">
        <ele>693.3</ele>
      </trkpt>
      <trkpt lat="44.31249" lon="5.69169">
        <ele>687.2</ele>
      </trkpt>
      <trkpt lat="44.31257" lon="5.69165">
        <ele>687.7</ele>
      </trkpt>
      <trkpt lat="44.3127" lon="5.6916">
        <ele>689.2</ele>
      </trkpt>
      <trkpt lat="44.31283" lon="5.69155">
        <ele>691.1</ele>
      </trkpt>
      <trkpt lat="44.31284" lon="5.69159">
        <ele>690.9</ele>
      </trkpt>
      <trkpt lat="44.31284" lon="5.69161">
        <ele>690.7</ele>
      </trkpt>
      <trkpt lat="44.31295" lon="5.69199">
        <ele>689.1</ele>
      </trkpt>
      <trkpt lat="44.31306" lon="5.69216">
        <ele>688.6</ele>
      </trkpt>
      <trkpt lat="44.31323" lon="5.69235">
        <ele>688</ele>
      </trkpt>
      <trkpt lat="44.31326" lon="5.69238">
        <ele>687.8</ele>
      </trkpt>
      <trkpt lat="44.31339" lon="5.69252">
        <ele>687.4</ele>
      </trkpt>
      <trkpt lat="44.31347" lon="5.69265">
        <ele>687.6</ele>
      </trkpt>
      <trkpt lat="44.31349" lon="5.69273">
        <ele>687.5</ele>
      </trkpt>
      <trkpt lat="44.31352" lon="5.69299">
        <ele>686.9</ele>
      </trkpt>
      <trkpt lat="44.31358" lon="5.69414">
        <ele>689.7</ele>
      </trkpt>
      <trkpt lat="44.31358" lon="5.69427">
        <ele>690.6</ele>
      </trkpt>
      <trkpt lat="44.31353" lon="5.6947">
        <ele>692.5</ele>
      </trkpt>
      <trkpt lat="44.31343" lon="5.69508">
        <ele>692.4</ele>
      </trkpt>
      <trkpt lat="44.31336" lon="5.69545">
        <ele>691.2</ele>
      </trkpt>
      <trkpt lat="44.31332" lon="5.69575">
        <ele>690.7</ele>
      </trkpt>
      <trkpt lat="44.31327" lon="5.69695">
        <ele>690.5</ele>
      </trkpt>
      <trkpt lat="44.31327" lon="5.69701">
        <ele>690.6</ele>
      </trkpt>
      <trkpt lat="44.31337" lon="5.69706">
        <ele>692.1</ele>
      </trkpt>
    </trkseg>
  </trk>
</gpx>